<?xml version="1.0" encoding="UTF-8" standalone="no" ?>
<gpx xmlns="http://www.topografix.com/GPX/1/1" xmlns:xsi="http://www.w3.org/2001/XMLSchema-instance" xsi:schemaLocation="http://www.topografix.com/GPX/1/1 http://www.topografix.com/GPX/1/1/gpx.xsd" version="1.1" creator="VisuGPX - https://www.visugpx.com">
  <metadata>
    <name>2016-10-04 Bike ride-Mont Brouilly O</name>
    <desc><![CDATA[2016-10-04 Bike ride-Mont Brouilly O]]></desc>
  </metadata>
  <wpt lat="45.92461" lon="4.73709">
    <ele>174</ele>
    <name><![CDATA[2016-10-04 10:20 (Start)]]></name>
  </wpt>
  <wpt lat="45.92459" lon="4.73699">
    <ele>174</ele>
    <name><![CDATA[2016-10-04 10:20 (End)]]></name>
    <desc><![CDATA[Created by Google My Tracks on Android  Name: 2016-10-04 10:20 Activity type: biking Description: - Total distance: 67.33 km (41.8 mi) Total time: 3:22:18 Moving time: 3:15:54 Average speed: 19.97 km/h (12.4 mi/h) Average moving speed: 20.62 km/h (12.8 mi/h) Max speed: 43.59 km/h (27.1 mi/h) Average pace: 3:00 min/km (4:50 min/mi) Average moving pace: 2:55 min/km (4:41 min/mi) Fastest pace: 1:23 min/km (2:13 min/mi) Max elevation: 484 m (1588 ft) Min elevation: 158 m (517 ft) Elevation gain: 1118 m (3669 ft) Max grade: 23 % Min grade: -16 % Recorded: 04/10/2016 10:20]]></desc>
  </wpt>
  <trk>
    <name><![CDATA[2016-10-04 10:20]]></name>
    <trkseg>
      <trkpt lat="45.92461" lon="4.73709">
        <ele>174</ele>
        <time>2016-10-04T08:20:05.761Z</time>
      </trkpt>
      <trkpt lat="45.92456" lon="4.73717">
        <ele>174</ele>
        <time>2016-10-04T08:21:27Z</time>
      </trkpt>
      <trkpt lat="45.92453" lon="4.73719">
        <ele>174</ele>
        <time>2016-10-04T08:21:28Z</time>
      </trkpt>
      <trkpt lat="45.92455" lon="4.73709">
        <ele>174</ele>
        <time>2016-10-04T08:21:45Z</time>
      </trkpt>
      <trkpt lat="45.92457" lon="4.73707">
        <ele>174</ele>
        <time>2016-10-04T08:21:46Z</time>
      </trkpt>
      <trkpt lat="45.92464" lon="4.73703">
        <ele>174</ele>
        <time>2016-10-04T08:22:03Z</time>
      </trkpt>
      <trkpt lat="45.92465" lon="4.73701">
        <ele>174</ele>
        <time>2016-10-04T08:22:04Z</time>
      </trkpt>
      <trkpt lat="45.92467" lon="4.73689">
        <ele>174</ele>
        <time>2016-10-04T08:22:07Z</time>
      </trkpt>
      <trkpt lat="45.92467" lon="4.73685">
        <ele>174</ele>
        <time>2016-10-04T08:22:08Z</time>
      </trkpt>
      <trkpt lat="45.92468" lon="4.73675">
        <ele>174</ele>
        <time>2016-10-04T08:22:10Z</time>
      </trkpt>
      <trkpt lat="45.9247" lon="4.73669">
        <ele>174</ele>
        <time>2016-10-04T08:22:11Z</time>
      </trkpt>
      <trkpt lat="45.92471" lon="4.73659">
        <ele>174</ele>
        <time>2016-10-04T08:22:13Z</time>
      </trkpt>
      <trkpt lat="45.92472" lon="4.73654">
        <ele>174</ele>
        <time>2016-10-04T08:22:14Z</time>
      </trkpt>
      <trkpt lat="45.92476" lon="4.73645">
        <ele>174</ele>
        <time>2016-10-04T08:22:16Z</time>
      </trkpt>
      <trkpt lat="45.92479" lon="4.73641">
        <ele>174</ele>
        <time>2016-10-04T08:22:17Z</time>
      </trkpt>
      <trkpt lat="45.92486" lon="4.7364">
        <ele>174</ele>
        <time>2016-10-04T08:22:19Z</time>
      </trkpt>
      <trkpt lat="45.92489" lon="4.7364">
        <ele>174</ele>
        <time>2016-10-04T08:22:20Z</time>
      </trkpt>
      <trkpt lat="45.92497" lon="4.73642">
        <ele>174</ele>
        <time>2016-10-04T08:22:22Z</time>
      </trkpt>
      <trkpt lat="45.925" lon="4.73642">
        <ele>174</ele>
        <time>2016-10-04T08:22:23Z</time>
      </trkpt>
      <trkpt lat="45.92505" lon="4.73642">
        <ele>174</ele>
        <time>2016-10-04T08:22:24Z</time>
      </trkpt>
      <trkpt lat="45.9251" lon="4.73642">
        <ele>174</ele>
        <time>2016-10-04T08:22:25Z</time>
      </trkpt>
      <trkpt lat="45.92514" lon="4.73641">
        <ele>174</ele>
        <time>2016-10-04T08:22:26Z</time>
      </trkpt>
      <trkpt lat="45.92519" lon="4.7364">
        <ele>173</ele>
        <time>2016-10-04T08:22:27Z</time>
      </trkpt>
      <trkpt lat="45.92523" lon="4.73639">
        <ele>173</ele>
        <time>2016-10-04T08:22:28Z</time>
      </trkpt>
      <trkpt lat="45.92529" lon="4.73638">
        <ele>173</ele>
        <time>2016-10-04T08:22:29Z</time>
      </trkpt>
      <trkpt lat="45.92535" lon="4.73637">
        <ele>173</ele>
        <time>2016-10-04T08:22:30Z</time>
      </trkpt>
      <trkpt lat="45.9254" lon="4.73636">
        <ele>173</ele>
        <time>2016-10-04T08:22:31Z</time>
      </trkpt>
      <trkpt lat="45.92545" lon="4.73634">
        <ele>173</ele>
        <time>2016-10-04T08:22:32Z</time>
      </trkpt>
      <trkpt lat="45.92551" lon="4.73632">
        <ele>173</ele>
        <time>2016-10-04T08:22:33Z</time>
      </trkpt>
      <trkpt lat="45.92557" lon="4.73629">
        <ele>173</ele>
        <time>2016-10-04T08:22:34Z</time>
      </trkpt>
      <trkpt lat="45.92563" lon="4.73627">
        <ele>173</ele>
        <time>2016-10-04T08:22:35Z</time>
      </trkpt>
      <trkpt lat="45.92568" lon="4.73626">
        <ele>173</ele>
        <time>2016-10-04T08:22:36Z</time>
      </trkpt>
      <trkpt lat="45.92573" lon="4.73624">
        <ele>173</ele>
        <time>2016-10-04T08:22:37Z</time>
      </trkpt>
      <trkpt lat="45.92578" lon="4.73623">
        <ele>173</ele>
        <time>2016-10-04T08:22:38Z</time>
      </trkpt>
      <trkpt lat="45.92582" lon="4.73621">
        <ele>173</ele>
        <time>2016-10-04T08:22:39Z</time>
      </trkpt>
      <trkpt lat="45.92591" lon="4.73621">
        <ele>173</ele>
        <time>2016-10-04T08:22:41Z</time>
      </trkpt>
      <trkpt lat="45.92596" lon="4.73619">
        <ele>173</ele>
        <time>2016-10-04T08:22:42Z</time>
      </trkpt>
      <trkpt lat="45.92602" lon="4.73619">
        <ele>173</ele>
        <time>2016-10-04T08:22:43Z</time>
      </trkpt>
      <trkpt lat="45.92609" lon="4.73619">
        <ele>173</ele>
        <time>2016-10-04T08:22:44Z</time>
      </trkpt>
      <trkpt lat="45.92615" lon="4.73618">
        <ele>173</ele>
        <time>2016-10-04T08:22:45Z</time>
      </trkpt>
      <trkpt lat="45.92622" lon="4.73618">
        <ele>173</ele>
        <time>2016-10-04T08:22:46Z</time>
      </trkpt>
      <trkpt lat="45.92629" lon="4.73618">
        <ele>173</ele>
        <time>2016-10-04T08:22:47Z</time>
      </trkpt>
      <trkpt lat="45.92635" lon="4.73622">
        <ele>173</ele>
        <time>2016-10-04T08:22:48Z</time>
      </trkpt>
      <trkpt lat="45.9264" lon="4.73626">
        <ele>173</ele>
        <time>2016-10-04T08:22:49Z</time>
      </trkpt>
      <trkpt lat="45.9264" lon="4.73637">
        <ele>173</ele>
        <time>2016-10-04T08:22:50Z</time>
      </trkpt>
      <trkpt lat="45.92643" lon="4.73641">
        <ele>173</ele>
        <time>2016-10-04T08:22:51Z</time>
      </trkpt>
      <trkpt lat="45.92642" lon="4.73651">
        <ele>173</ele>
        <time>2016-10-04T08:22:52Z</time>
      </trkpt>
      <trkpt lat="45.92648" lon="4.73655">
        <ele>173</ele>
        <time>2016-10-04T08:22:53Z</time>
      </trkpt>
      <trkpt lat="45.9265" lon="4.73662">
        <ele>173</ele>
        <time>2016-10-04T08:22:54Z</time>
      </trkpt>
      <trkpt lat="45.92655" lon="4.73666">
        <ele>173</ele>
        <time>2016-10-04T08:22:55Z</time>
      </trkpt>
      <trkpt lat="45.92657" lon="4.73672">
        <ele>173</ele>
        <time>2016-10-04T08:22:56Z</time>
      </trkpt>
      <trkpt lat="45.92662" lon="4.73676">
        <ele>173</ele>
        <time>2016-10-04T08:22:57Z</time>
      </trkpt>
      <trkpt lat="45.92667" lon="4.73682">
        <ele>174</ele>
        <time>2016-10-04T08:22:58Z</time>
      </trkpt>
      <trkpt lat="45.92674" lon="4.73686">
        <ele>174</ele>
        <time>2016-10-04T08:22:59Z</time>
      </trkpt>
      <trkpt lat="45.92679" lon="4.73691">
        <ele>174</ele>
        <time>2016-10-04T08:23:00Z</time>
      </trkpt>
      <trkpt lat="45.92684" lon="4.73694">
        <ele>173</ele>
        <time>2016-10-04T08:23:01Z</time>
      </trkpt>
      <trkpt lat="45.92689" lon="4.73697">
        <ele>173</ele>
        <time>2016-10-04T08:23:02Z</time>
      </trkpt>
      <trkpt lat="45.92694" lon="4.737">
        <ele>173</ele>
        <time>2016-10-04T08:23:03Z</time>
      </trkpt>
      <trkpt lat="45.92699" lon="4.73703">
        <ele>173</ele>
        <time>2016-10-04T08:23:04Z</time>
      </trkpt>
      <trkpt lat="45.92704" lon="4.73705">
        <ele>173</ele>
        <time>2016-10-04T08:23:05Z</time>
      </trkpt>
      <trkpt lat="45.9271" lon="4.73706">
        <ele>173</ele>
        <time>2016-10-04T08:23:06Z</time>
      </trkpt>
      <trkpt lat="45.92715" lon="4.73709">
        <ele>173</ele>
        <time>2016-10-04T08:23:07Z</time>
      </trkpt>
      <trkpt lat="45.9272" lon="4.73711">
        <ele>173</ele>
        <time>2016-10-04T08:23:08Z</time>
      </trkpt>
      <trkpt lat="45.92725" lon="4.73712">
        <ele>173</ele>
        <time>2016-10-04T08:23:09Z</time>
      </trkpt>
      <trkpt lat="45.9273" lon="4.73713">
        <ele>173</ele>
        <time>2016-10-04T08:23:10Z</time>
      </trkpt>
      <trkpt lat="45.92735" lon="4.73714">
        <ele>173</ele>
        <time>2016-10-04T08:23:11Z</time>
      </trkpt>
      <trkpt lat="45.92741" lon="4.73715">
        <ele>173</ele>
        <time>2016-10-04T08:23:12Z</time>
      </trkpt>
      <trkpt lat="45.92745" lon="4.73716">
        <ele>173</ele>
        <time>2016-10-04T08:23:13Z</time>
      </trkpt>
      <trkpt lat="45.92751" lon="4.73715">
        <ele>172</ele>
        <time>2016-10-04T08:23:14Z</time>
      </trkpt>
      <trkpt lat="45.92756" lon="4.73716">
        <ele>172</ele>
        <time>2016-10-04T08:23:15Z</time>
      </trkpt>
      <trkpt lat="45.92761" lon="4.73716">
        <ele>172</ele>
        <time>2016-10-04T08:23:16Z</time>
      </trkpt>
      <trkpt lat="45.92769" lon="4.73717">
        <ele>172</ele>
        <time>2016-10-04T08:23:18Z</time>
      </trkpt>
      <trkpt lat="45.92773" lon="4.73718">
        <ele>172</ele>
        <time>2016-10-04T08:23:19Z</time>
      </trkpt>
      <trkpt lat="45.9278" lon="4.73722">
        <ele>172</ele>
        <time>2016-10-04T08:23:21Z</time>
      </trkpt>
      <trkpt lat="45.92784" lon="4.73721">
        <ele>172</ele>
        <time>2016-10-04T08:23:22Z</time>
      </trkpt>
      <trkpt lat="45.92793" lon="4.73717">
        <ele>172</ele>
        <time>2016-10-04T08:23:25Z</time>
      </trkpt>
      <trkpt lat="45.92794" lon="4.73711">
        <ele>172</ele>
        <time>2016-10-04T08:23:26Z</time>
      </trkpt>
      <trkpt lat="45.92796" lon="4.73699">
        <ele>172</ele>
        <time>2016-10-04T08:23:28Z</time>
      </trkpt>
      <trkpt lat="45.92797" lon="4.73692">
        <ele>172</ele>
        <time>2016-10-04T08:23:29Z</time>
      </trkpt>
      <trkpt lat="45.92799" lon="4.73685">
        <ele>172</ele>
        <time>2016-10-04T08:23:30Z</time>
      </trkpt>
      <trkpt lat="45.92801" lon="4.73678">
        <ele>172</ele>
        <time>2016-10-04T08:23:31Z</time>
      </trkpt>
      <trkpt lat="45.92803" lon="4.73672">
        <ele>172</ele>
        <time>2016-10-04T08:23:32Z</time>
      </trkpt>
      <trkpt lat="45.92805" lon="4.73666">
        <ele>172</ele>
        <time>2016-10-04T08:23:33Z</time>
      </trkpt>
      <trkpt lat="45.92807" lon="4.73654">
        <ele>172</ele>
        <time>2016-10-04T08:23:35Z</time>
      </trkpt>
      <trkpt lat="45.92808" lon="4.73648">
        <ele>172</ele>
        <time>2016-10-04T08:23:36Z</time>
      </trkpt>
      <trkpt lat="45.92812" lon="4.73637">
        <ele>172</ele>
        <time>2016-10-04T08:23:38Z</time>
      </trkpt>
      <trkpt lat="45.92816" lon="4.73634">
        <ele>172</ele>
        <time>2016-10-04T08:23:39Z</time>
      </trkpt>
      <trkpt lat="45.92822" lon="4.73628">
        <ele>172</ele>
        <time>2016-10-04T08:23:43Z</time>
      </trkpt>
      <trkpt lat="45.92822" lon="4.73628">
        <ele>172</ele>
        <time>2016-10-04T08:23:44Z</time>
      </trkpt>
      <trkpt lat="45.92826" lon="4.73623">
        <ele>171</ele>
        <time>2016-10-04T08:24:02Z</time>
      </trkpt>
      <trkpt lat="45.92826" lon="4.73622">
        <ele>171</ele>
        <time>2016-10-04T08:24:03Z</time>
      </trkpt>
      <trkpt lat="45.92828" lon="4.73613">
        <ele>171</ele>
        <time>2016-10-04T08:24:07Z</time>
      </trkpt>
      <trkpt lat="45.92828" lon="4.73608">
        <ele>171</ele>
        <time>2016-10-04T08:24:08Z</time>
      </trkpt>
      <trkpt lat="45.92826" lon="4.73595">
        <ele>171</ele>
        <time>2016-10-04T08:24:10Z</time>
      </trkpt>
      <trkpt lat="45.92826" lon="4.73588">
        <ele>171</ele>
        <time>2016-10-04T08:24:11Z</time>
      </trkpt>
      <trkpt lat="45.92825" lon="4.7358">
        <ele>171</ele>
        <time>2016-10-04T08:24:12Z</time>
      </trkpt>
      <trkpt lat="45.92825" lon="4.73572">
        <ele>171</ele>
        <time>2016-10-04T08:24:13Z</time>
      </trkpt>
      <trkpt lat="45.92825" lon="4.73563">
        <ele>171</ele>
        <time>2016-10-04T08:24:14Z</time>
      </trkpt>
      <trkpt lat="45.92825" lon="4.73555">
        <ele>171</ele>
        <time>2016-10-04T08:24:15Z</time>
      </trkpt>
      <trkpt lat="45.92824" lon="4.73547">
        <ele>171</ele>
        <time>2016-10-04T08:24:16Z</time>
      </trkpt>
      <trkpt lat="45.92824" lon="4.73539">
        <ele>172</ele>
        <time>2016-10-04T08:24:17Z</time>
      </trkpt>
      <trkpt lat="45.92825" lon="4.73531">
        <ele>172</ele>
        <time>2016-10-04T08:24:18Z</time>
      </trkpt>
      <trkpt lat="45.92825" lon="4.73523">
        <ele>172</ele>
        <time>2016-10-04T08:24:19Z</time>
      </trkpt>
      <trkpt lat="45.92825" lon="4.73514">
        <ele>172</ele>
        <time>2016-10-04T08:24:20Z</time>
      </trkpt>
      <trkpt lat="45.92825" lon="4.73506">
        <ele>172</ele>
        <time>2016-10-04T08:24:21Z</time>
      </trkpt>
      <trkpt lat="45.92825" lon="4.73498">
        <ele>172</ele>
        <time>2016-10-04T08:24:22Z</time>
      </trkpt>
      <trkpt lat="45.92825" lon="4.73489">
        <ele>172</ele>
        <time>2016-10-04T08:24:23Z</time>
      </trkpt>
      <trkpt lat="45.92826" lon="4.73481">
        <ele>172</ele>
        <time>2016-10-04T08:24:24Z</time>
      </trkpt>
      <trkpt lat="45.92827" lon="4.73472">
        <ele>172</ele>
        <time>2016-10-04T08:24:25Z</time>
      </trkpt>
      <trkpt lat="45.92828" lon="4.73465">
        <ele>172</ele>
        <time>2016-10-04T08:24:26Z</time>
      </trkpt>
      <trkpt lat="45.9283" lon="4.73458">
        <ele>172</ele>
        <time>2016-10-04T08:24:27Z</time>
      </trkpt>
      <trkpt lat="45.92833" lon="4.73451">
        <ele>172</ele>
        <time>2016-10-04T08:24:28Z</time>
      </trkpt>
      <trkpt lat="45.92834" lon="4.73443">
        <ele>172</ele>
        <time>2016-10-04T08:24:29Z</time>
      </trkpt>
      <trkpt lat="45.92835" lon="4.73435">
        <ele>172</ele>
        <time>2016-10-04T08:24:30Z</time>
      </trkpt>
      <trkpt lat="45.92836" lon="4.73427">
        <ele>172</ele>
        <time>2016-10-04T08:24:31Z</time>
      </trkpt>
      <trkpt lat="45.92837" lon="4.73418">
        <ele>172</ele>
        <time>2016-10-04T08:24:32Z</time>
      </trkpt>
      <trkpt lat="45.92837" lon="4.7341">
        <ele>172</ele>
        <time>2016-10-04T08:24:33Z</time>
      </trkpt>
      <trkpt lat="45.92839" lon="4.73401">
        <ele>172</ele>
        <time>2016-10-04T08:24:34Z</time>
      </trkpt>
      <trkpt lat="45.9284" lon="4.73392">
        <ele>172</ele>
        <time>2016-10-04T08:24:35Z</time>
      </trkpt>
      <trkpt lat="45.9284" lon="4.73384">
        <ele>172</ele>
        <time>2016-10-04T08:24:36Z</time>
      </trkpt>
      <trkpt lat="45.92841" lon="4.73375">
        <ele>171</ele>
        <time>2016-10-04T08:24:37Z</time>
      </trkpt>
      <trkpt lat="45.92842" lon="4.73366">
        <ele>171</ele>
        <time>2016-10-04T08:24:38Z</time>
      </trkpt>
      <trkpt lat="45.92842" lon="4.73358">
        <ele>171</ele>
        <time>2016-10-04T08:24:39Z</time>
      </trkpt>
      <trkpt lat="45.92843" lon="4.7335">
        <ele>171</ele>
        <time>2016-10-04T08:24:40Z</time>
      </trkpt>
      <trkpt lat="45.92844" lon="4.73341">
        <ele>171</ele>
        <time>2016-10-04T08:24:41Z</time>
      </trkpt>
      <trkpt lat="45.92845" lon="4.73333">
        <ele>171</ele>
        <time>2016-10-04T08:24:42Z</time>
      </trkpt>
      <trkpt lat="45.92846" lon="4.73324">
        <ele>171</ele>
        <time>2016-10-04T08:24:43Z</time>
      </trkpt>
      <trkpt lat="45.92847" lon="4.73315">
        <ele>171</ele>
        <time>2016-10-04T08:24:44Z</time>
      </trkpt>
      <trkpt lat="45.92848" lon="4.73307">
        <ele>171</ele>
        <time>2016-10-04T08:24:45Z</time>
      </trkpt>
      <trkpt lat="45.92849" lon="4.73298">
        <ele>171</ele>
        <time>2016-10-04T08:24:46Z</time>
      </trkpt>
      <trkpt lat="45.9285" lon="4.7329">
        <ele>171</ele>
        <time>2016-10-04T08:24:47Z</time>
      </trkpt>
      <trkpt lat="45.92851" lon="4.73282">
        <ele>171</ele>
        <time>2016-10-04T08:24:48Z</time>
      </trkpt>
      <trkpt lat="45.92852" lon="4.73273">
        <ele>171</ele>
        <time>2016-10-04T08:24:49Z</time>
      </trkpt>
      <trkpt lat="45.92854" lon="4.73265">
        <ele>171</ele>
        <time>2016-10-04T08:24:50Z</time>
      </trkpt>
      <trkpt lat="45.92855" lon="4.73257">
        <ele>171</ele>
        <time>2016-10-04T08:24:51Z</time>
      </trkpt>
      <trkpt lat="45.92856" lon="4.7325">
        <ele>171</ele>
        <time>2016-10-04T08:24:52Z</time>
      </trkpt>
      <trkpt lat="45.92857" lon="4.73241">
        <ele>171</ele>
        <time>2016-10-04T08:24:53Z</time>
      </trkpt>
      <trkpt lat="45.92859" lon="4.73232">
        <ele>171</ele>
        <time>2016-10-04T08:24:54Z</time>
      </trkpt>
      <trkpt lat="45.92859" lon="4.73224">
        <ele>171</ele>
        <time>2016-10-04T08:24:55Z</time>
      </trkpt>
      <trkpt lat="45.9286" lon="4.73215">
        <ele>171</ele>
        <time>2016-10-04T08:24:56Z</time>
      </trkpt>
      <trkpt lat="45.92862" lon="4.73206">
        <ele>171</ele>
        <time>2016-10-04T08:24:57Z</time>
      </trkpt>
      <trkpt lat="45.92863" lon="4.73198">
        <ele>171</ele>
        <time>2016-10-04T08:24:58Z</time>
      </trkpt>
      <trkpt lat="45.92864" lon="4.7319">
        <ele>171</ele>
        <time>2016-10-04T08:24:59Z</time>
      </trkpt>
      <trkpt lat="45.92865" lon="4.73181">
        <ele>171</ele>
        <time>2016-10-04T08:25:00Z</time>
      </trkpt>
      <trkpt lat="45.92866" lon="4.73173">
        <ele>171</ele>
        <time>2016-10-04T08:25:01Z</time>
      </trkpt>
      <trkpt lat="45.92867" lon="4.73165">
        <ele>171</ele>
        <time>2016-10-04T08:25:02Z</time>
      </trkpt>
      <trkpt lat="45.92868" lon="4.73156">
        <ele>171</ele>
        <time>2016-10-04T08:25:03Z</time>
      </trkpt>
      <trkpt lat="45.92871" lon="4.73148">
        <ele>171</ele>
        <time>2016-10-04T08:25:04Z</time>
      </trkpt>
      <trkpt lat="45.92873" lon="4.7314">
        <ele>171</ele>
        <time>2016-10-04T08:25:05Z</time>
      </trkpt>
      <trkpt lat="45.92875" lon="4.73131">
        <ele>171</ele>
        <time>2016-10-04T08:25:06Z</time>
      </trkpt>
      <trkpt lat="45.92877" lon="4.73124">
        <ele>172</ele>
        <time>2016-10-04T08:25:07Z</time>
      </trkpt>
      <trkpt lat="45.92879" lon="4.73115">
        <ele>172</ele>
        <time>2016-10-04T08:25:08Z</time>
      </trkpt>
      <trkpt lat="45.92881" lon="4.73107">
        <ele>172</ele>
        <time>2016-10-04T08:25:09Z</time>
      </trkpt>
      <trkpt lat="45.92883" lon="4.73099">
        <ele>172</ele>
        <time>2016-10-04T08:25:10Z</time>
      </trkpt>
      <trkpt lat="45.92886" lon="4.73091">
        <ele>172</ele>
        <time>2016-10-04T08:25:11Z</time>
      </trkpt>
      <trkpt lat="45.92889" lon="4.73083">
        <ele>172</ele>
        <time>2016-10-04T08:25:12Z</time>
      </trkpt>
      <trkpt lat="45.92892" lon="4.73076">
        <ele>172</ele>
        <time>2016-10-04T08:25:13Z</time>
      </trkpt>
      <trkpt lat="45.92895" lon="4.73069">
        <ele>172</ele>
        <time>2016-10-04T08:25:14Z</time>
      </trkpt>
      <trkpt lat="45.92899" lon="4.73063">
        <ele>172</ele>
        <time>2016-10-04T08:25:15Z</time>
      </trkpt>
      <trkpt lat="45.92903" lon="4.73056">
        <ele>172</ele>
        <time>2016-10-04T08:25:16Z</time>
      </trkpt>
      <trkpt lat="45.92907" lon="4.73049">
        <ele>172</ele>
        <time>2016-10-04T08:25:17Z</time>
      </trkpt>
      <trkpt lat="45.92912" lon="4.73042">
        <ele>172</ele>
        <time>2016-10-04T08:25:18Z</time>
      </trkpt>
      <trkpt lat="45.92916" lon="4.73034">
        <ele>172</ele>
        <time>2016-10-04T08:25:19Z</time>
      </trkpt>
      <trkpt lat="45.92922" lon="4.73024">
        <ele>171</ele>
        <time>2016-10-04T08:25:20Z</time>
      </trkpt>
      <trkpt lat="45.92927" lon="4.73017">
        <ele>171</ele>
        <time>2016-10-04T08:25:21Z</time>
      </trkpt>
      <trkpt lat="45.92932" lon="4.73011">
        <ele>171</ele>
        <time>2016-10-04T08:25:22Z</time>
      </trkpt>
      <trkpt lat="45.92938" lon="4.73005">
        <ele>171</ele>
        <time>2016-10-04T08:25:23Z</time>
      </trkpt>
      <trkpt lat="45.92943" lon="4.73">
        <ele>171</ele>
        <time>2016-10-04T08:25:24Z</time>
      </trkpt>
      <trkpt lat="45.92948" lon="4.72996">
        <ele>171</ele>
        <time>2016-10-04T08:25:25Z</time>
      </trkpt>
      <trkpt lat="45.92952" lon="4.72991">
        <ele>171</ele>
        <time>2016-10-04T08:25:26Z</time>
      </trkpt>
      <trkpt lat="45.92956" lon="4.72987">
        <ele>171</ele>
        <time>2016-10-04T08:25:27Z</time>
      </trkpt>
      <trkpt lat="45.9296" lon="4.72981">
        <ele>171</ele>
        <time>2016-10-04T08:25:28Z</time>
      </trkpt>
      <trkpt lat="45.92965" lon="4.72976">
        <ele>171</ele>
        <time>2016-10-04T08:25:29Z</time>
      </trkpt>
      <trkpt lat="45.92969" lon="4.72972">
        <ele>171</ele>
        <time>2016-10-04T08:25:30Z</time>
      </trkpt>
      <trkpt lat="45.92973" lon="4.72967">
        <ele>171</ele>
        <time>2016-10-04T08:25:31Z</time>
      </trkpt>
      <trkpt lat="45.92977" lon="4.72962">
        <ele>171</ele>
        <time>2016-10-04T08:25:32Z</time>
      </trkpt>
      <trkpt lat="45.92981" lon="4.72956">
        <ele>171</ele>
        <time>2016-10-04T08:25:33Z</time>
      </trkpt>
      <trkpt lat="45.92981" lon="4.72953">
        <ele>171</ele>
        <time>2016-10-04T08:25:34Z</time>
      </trkpt>
      <trkpt lat="45.92983" lon="4.72952">
        <ele>171</ele>
        <time>2016-10-04T08:25:35Z</time>
      </trkpt>
      <trkpt lat="45.92988" lon="4.72946">
        <ele>171</ele>
        <time>2016-10-04T08:25:36Z</time>
      </trkpt>
      <trkpt lat="45.92993" lon="4.72939">
        <ele>171</ele>
        <time>2016-10-04T08:25:37Z</time>
      </trkpt>
      <trkpt lat="45.92999" lon="4.72932">
        <ele>171</ele>
        <time>2016-10-04T08:25:38Z</time>
      </trkpt>
      <trkpt lat="45.93004" lon="4.72924">
        <ele>170</ele>
        <time>2016-10-04T08:25:39Z</time>
      </trkpt>
      <trkpt lat="45.93009" lon="4.72917">
        <ele>170</ele>
        <time>2016-10-04T08:25:40Z</time>
      </trkpt>
      <trkpt lat="45.93014" lon="4.7291">
        <ele>171</ele>
        <time>2016-10-04T08:25:41Z</time>
      </trkpt>
      <trkpt lat="45.93019" lon="4.72903">
        <ele>172</ele>
        <time>2016-10-04T08:25:42Z</time>
      </trkpt>
      <trkpt lat="45.93025" lon="4.72897">
        <ele>172</ele>
        <time>2016-10-04T08:25:43Z</time>
      </trkpt>
      <trkpt lat="45.93031" lon="4.72889">
        <ele>172</ele>
        <time>2016-10-04T08:25:44Z</time>
      </trkpt>
      <trkpt lat="45.93036" lon="4.72882">
        <ele>172</ele>
        <time>2016-10-04T08:25:45Z</time>
      </trkpt>
      <trkpt lat="45.93041" lon="4.72875">
        <ele>172</ele>
        <time>2016-10-04T08:25:46Z</time>
      </trkpt>
      <trkpt lat="45.93047" lon="4.72868">
        <ele>172</ele>
        <time>2016-10-04T08:25:47Z</time>
      </trkpt>
      <trkpt lat="45.93052" lon="4.72861">
        <ele>172</ele>
        <time>2016-10-04T08:25:48Z</time>
      </trkpt>
      <trkpt lat="45.93057" lon="4.72855">
        <ele>172</ele>
        <time>2016-10-04T08:25:49Z</time>
      </trkpt>
      <trkpt lat="45.93063" lon="4.72849">
        <ele>172</ele>
        <time>2016-10-04T08:25:50Z</time>
      </trkpt>
      <trkpt lat="45.93068" lon="4.72842">
        <ele>173</ele>
        <time>2016-10-04T08:25:51Z</time>
      </trkpt>
      <trkpt lat="45.93074" lon="4.72836">
        <ele>173</ele>
        <time>2016-10-04T08:25:52Z</time>
      </trkpt>
      <trkpt lat="45.9308" lon="4.72829">
        <ele>173</ele>
        <time>2016-10-04T08:25:53Z</time>
      </trkpt>
      <trkpt lat="45.93086" lon="4.72822">
        <ele>172</ele>
        <time>2016-10-04T08:25:54Z</time>
      </trkpt>
      <trkpt lat="45.93091" lon="4.72816">
        <ele>172</ele>
        <time>2016-10-04T08:25:55Z</time>
      </trkpt>
      <trkpt lat="45.93093" lon="4.72815">
        <ele>172</ele>
        <time>2016-10-04T08:25:56Z</time>
      </trkpt>
      <trkpt lat="45.93099" lon="4.72809">
        <ele>172</ele>
        <time>2016-10-04T08:25:57Z</time>
      </trkpt>
      <trkpt lat="45.93103" lon="4.72801">
        <ele>171</ele>
        <time>2016-10-04T08:25:58Z</time>
      </trkpt>
      <trkpt lat="45.93108" lon="4.72796">
        <ele>171</ele>
        <time>2016-10-04T08:25:59Z</time>
      </trkpt>
      <trkpt lat="45.93114" lon="4.72792">
        <ele>171</ele>
        <time>2016-10-04T08:26:00Z</time>
      </trkpt>
      <trkpt lat="45.93119" lon="4.72788">
        <ele>171</ele>
        <time>2016-10-04T08:26:01Z</time>
      </trkpt>
      <trkpt lat="45.93125" lon="4.72784">
        <ele>171</ele>
        <time>2016-10-04T08:26:02Z</time>
      </trkpt>
      <trkpt lat="45.9313" lon="4.72779">
        <ele>171</ele>
        <time>2016-10-04T08:26:03Z</time>
      </trkpt>
      <trkpt lat="45.93135" lon="4.72774">
        <ele>171</ele>
        <time>2016-10-04T08:26:04Z</time>
      </trkpt>
      <trkpt lat="45.9314" lon="4.72769">
        <ele>171</ele>
        <time>2016-10-04T08:26:05Z</time>
      </trkpt>
      <trkpt lat="45.93144" lon="4.72764">
        <ele>171</ele>
        <time>2016-10-04T08:26:06Z</time>
      </trkpt>
      <trkpt lat="45.93149" lon="4.72758">
        <ele>170</ele>
        <time>2016-10-04T08:26:07Z</time>
      </trkpt>
      <trkpt lat="45.93154" lon="4.72752">
        <ele>170</ele>
        <time>2016-10-04T08:26:08Z</time>
      </trkpt>
      <trkpt lat="45.93159" lon="4.72746">
        <ele>170</ele>
        <time>2016-10-04T08:26:09Z</time>
      </trkpt>
      <trkpt lat="45.93164" lon="4.72739">
        <ele>170</ele>
        <time>2016-10-04T08:26:10Z</time>
      </trkpt>
      <trkpt lat="45.93169" lon="4.72733">
        <ele>170</ele>
        <time>2016-10-04T08:26:11Z</time>
      </trkpt>
      <trkpt lat="45.93174" lon="4.72728">
        <ele>170</ele>
        <time>2016-10-04T08:26:12Z</time>
      </trkpt>
      <trkpt lat="45.93179" lon="4.72722">
        <ele>170</ele>
        <time>2016-10-04T08:26:13Z</time>
      </trkpt>
      <trkpt lat="45.93183" lon="4.72717">
        <ele>169</ele>
        <time>2016-10-04T08:26:14Z</time>
      </trkpt>
      <trkpt lat="45.93188" lon="4.72712">
        <ele>169</ele>
        <time>2016-10-04T08:26:15Z</time>
      </trkpt>
      <trkpt lat="45.93192" lon="4.72707">
        <ele>169</ele>
        <time>2016-10-04T08:26:16Z</time>
      </trkpt>
      <trkpt lat="45.93197" lon="4.72702">
        <ele>169</ele>
        <time>2016-10-04T08:26:17Z</time>
      </trkpt>
      <trkpt lat="45.93201" lon="4.72697">
        <ele>169</ele>
        <time>2016-10-04T08:26:18Z</time>
      </trkpt>
      <trkpt lat="45.93206" lon="4.72691">
        <ele>169</ele>
        <time>2016-10-04T08:26:19Z</time>
      </trkpt>
      <trkpt lat="45.93209" lon="4.72684">
        <ele>169</ele>
        <time>2016-10-04T08:26:20Z</time>
      </trkpt>
      <trkpt lat="45.93214" lon="4.72679">
        <ele>169</ele>
        <time>2016-10-04T08:26:21Z</time>
      </trkpt>
      <trkpt lat="45.93219" lon="4.72675">
        <ele>169</ele>
        <time>2016-10-04T08:26:22Z</time>
      </trkpt>
      <trkpt lat="45.93224" lon="4.7267">
        <ele>169</ele>
        <time>2016-10-04T08:26:23Z</time>
      </trkpt>
      <trkpt lat="45.93229" lon="4.72665">
        <ele>169</ele>
        <time>2016-10-04T08:26:24Z</time>
      </trkpt>
      <trkpt lat="45.93234" lon="4.72659">
        <ele>169</ele>
        <time>2016-10-04T08:26:25Z</time>
      </trkpt>
      <trkpt lat="45.93239" lon="4.72653">
        <ele>169</ele>
        <time>2016-10-04T08:26:26Z</time>
      </trkpt>
      <trkpt lat="45.93244" lon="4.72648">
        <ele>169</ele>
        <time>2016-10-04T08:26:27Z</time>
      </trkpt>
      <trkpt lat="45.93249" lon="4.72643">
        <ele>170</ele>
        <time>2016-10-04T08:26:28Z</time>
      </trkpt>
      <trkpt lat="45.93254" lon="4.72638">
        <ele>169</ele>
        <time>2016-10-04T08:26:29Z</time>
      </trkpt>
      <trkpt lat="45.93259" lon="4.72632">
        <ele>170</ele>
        <time>2016-10-04T08:26:30Z</time>
      </trkpt>
      <trkpt lat="45.93263" lon="4.72627">
        <ele>170</ele>
        <time>2016-10-04T08:26:31Z</time>
      </trkpt>
      <trkpt lat="45.93268" lon="4.72622">
        <ele>170</ele>
        <time>2016-10-04T08:26:32Z</time>
      </trkpt>
      <trkpt lat="45.93271" lon="4.72617">
        <ele>170</ele>
        <time>2016-10-04T08:26:33Z</time>
      </trkpt>
      <trkpt lat="45.93276" lon="4.72612">
        <ele>170</ele>
        <time>2016-10-04T08:26:34Z</time>
      </trkpt>
      <trkpt lat="45.93281" lon="4.72607">
        <ele>170</ele>
        <time>2016-10-04T08:26:35Z</time>
      </trkpt>
      <trkpt lat="45.93285" lon="4.72602">
        <ele>170</ele>
        <time>2016-10-04T08:26:36Z</time>
      </trkpt>
      <trkpt lat="45.9329" lon="4.72597">
        <ele>170</ele>
        <time>2016-10-04T08:26:37Z</time>
      </trkpt>
      <trkpt lat="45.93295" lon="4.72591">
        <ele>170</ele>
        <time>2016-10-04T08:26:38Z</time>
      </trkpt>
      <trkpt lat="45.933" lon="4.72585">
        <ele>170</ele>
        <time>2016-10-04T08:26:39Z</time>
      </trkpt>
      <trkpt lat="45.93304" lon="4.72579">
        <ele>171</ele>
        <time>2016-10-04T08:26:40Z</time>
      </trkpt>
      <trkpt lat="45.93309" lon="4.72573">
        <ele>171</ele>
        <time>2016-10-04T08:26:41Z</time>
      </trkpt>
      <trkpt lat="45.93313" lon="4.72568">
        <ele>171</ele>
        <time>2016-10-04T08:26:42Z</time>
      </trkpt>
      <trkpt lat="45.93317" lon="4.72563">
        <ele>171</ele>
        <time>2016-10-04T08:26:43Z</time>
      </trkpt>
      <trkpt lat="45.93322" lon="4.72557">
        <ele>171</ele>
        <time>2016-10-04T08:26:44Z</time>
      </trkpt>
      <trkpt lat="45.93326" lon="4.72552">
        <ele>172</ele>
        <time>2016-10-04T08:26:45Z</time>
      </trkpt>
      <trkpt lat="45.93331" lon="4.72547">
        <ele>172</ele>
        <time>2016-10-04T08:26:46Z</time>
      </trkpt>
      <trkpt lat="45.93336" lon="4.72541">
        <ele>171</ele>
        <time>2016-10-04T08:26:47Z</time>
      </trkpt>
      <trkpt lat="45.9334" lon="4.72536">
        <ele>171</ele>
        <time>2016-10-04T08:26:48Z</time>
      </trkpt>
      <trkpt lat="45.93345" lon="4.72531">
        <ele>172</ele>
        <time>2016-10-04T08:26:49Z</time>
      </trkpt>
      <trkpt lat="45.9335" lon="4.72526">
        <ele>172</ele>
        <time>2016-10-04T08:26:50Z</time>
      </trkpt>
      <trkpt lat="45.93355" lon="4.72521">
        <ele>172</ele>
        <time>2016-10-04T08:26:51Z</time>
      </trkpt>
      <trkpt lat="45.93359" lon="4.72517">
        <ele>172</ele>
        <time>2016-10-04T08:26:52Z</time>
      </trkpt>
      <trkpt lat="45.93364" lon="4.72512">
        <ele>172</ele>
        <time>2016-10-04T08:26:53Z</time>
      </trkpt>
      <trkpt lat="45.93369" lon="4.72505">
        <ele>172</ele>
        <time>2016-10-04T08:26:54Z</time>
      </trkpt>
      <trkpt lat="45.93373" lon="4.72499">
        <ele>173</ele>
        <time>2016-10-04T08:26:55Z</time>
      </trkpt>
      <trkpt lat="45.93378" lon="4.72493">
        <ele>173</ele>
        <time>2016-10-04T08:26:56Z</time>
      </trkpt>
      <trkpt lat="45.93383" lon="4.72487">
        <ele>173</ele>
        <time>2016-10-04T08:26:57Z</time>
      </trkpt>
      <trkpt lat="45.93387" lon="4.72482">
        <ele>173</ele>
        <time>2016-10-04T08:26:58Z</time>
      </trkpt>
      <trkpt lat="45.93391" lon="4.72476">
        <ele>173</ele>
        <time>2016-10-04T08:26:59Z</time>
      </trkpt>
      <trkpt lat="45.93395" lon="4.7247">
        <ele>173</ele>
        <time>2016-10-04T08:27:00Z</time>
      </trkpt>
      <trkpt lat="45.93398" lon="4.72463">
        <ele>173</ele>
        <time>2016-10-04T08:27:01Z</time>
      </trkpt>
      <trkpt lat="45.93402" lon="4.72452">
        <ele>173</ele>
        <time>2016-10-04T08:27:03Z</time>
      </trkpt>
      <trkpt lat="45.93403" lon="4.72448">
        <ele>173</ele>
        <time>2016-10-04T08:27:04Z</time>
      </trkpt>
      <trkpt lat="45.93409" lon="4.72438">
        <ele>173</ele>
        <time>2016-10-04T08:27:07Z</time>
      </trkpt>
      <trkpt lat="45.9341" lon="4.72434">
        <ele>173</ele>
        <time>2016-10-04T08:27:08Z</time>
      </trkpt>
      <trkpt lat="45.93416" lon="4.72427">
        <ele>174</ele>
        <time>2016-10-04T08:27:10Z</time>
      </trkpt>
      <trkpt lat="45.93419" lon="4.72424">
        <ele>174</ele>
        <time>2016-10-04T08:27:11Z</time>
      </trkpt>
      <trkpt lat="45.93424" lon="4.72422">
        <ele>174</ele>
        <time>2016-10-04T08:27:12Z</time>
      </trkpt>
      <trkpt lat="45.93429" lon="4.72418">
        <ele>174</ele>
        <time>2016-10-04T08:27:13Z</time>
      </trkpt>
      <trkpt lat="45.93434" lon="4.72414">
        <ele>174</ele>
        <time>2016-10-04T08:27:14Z</time>
      </trkpt>
      <trkpt lat="45.93439" lon="4.7241">
        <ele>174</ele>
        <time>2016-10-04T08:27:15Z</time>
      </trkpt>
      <trkpt lat="45.93445" lon="4.72406">
        <ele>173</ele>
        <time>2016-10-04T08:27:16Z</time>
      </trkpt>
      <trkpt lat="45.9345" lon="4.72401">
        <ele>173</ele>
        <time>2016-10-04T08:27:17Z</time>
      </trkpt>
      <trkpt lat="45.93455" lon="4.72398">
        <ele>173</ele>
        <time>2016-10-04T08:27:18Z</time>
      </trkpt>
      <trkpt lat="45.9346" lon="4.72393">
        <ele>173</ele>
        <time>2016-10-04T08:27:19Z</time>
      </trkpt>
      <trkpt lat="45.93465" lon="4.72388">
        <ele>173</ele>
        <time>2016-10-04T08:27:20Z</time>
      </trkpt>
      <trkpt lat="45.93469" lon="4.72382">
        <ele>173</ele>
        <time>2016-10-04T08:27:21Z</time>
      </trkpt>
      <trkpt lat="45.93474" lon="4.72376">
        <ele>173</ele>
        <time>2016-10-04T08:27:22Z</time>
      </trkpt>
      <trkpt lat="45.93478" lon="4.7237">
        <ele>173</ele>
        <time>2016-10-04T08:27:23Z</time>
      </trkpt>
      <trkpt lat="45.93482" lon="4.72363">
        <ele>173</ele>
        <time>2016-10-04T08:27:24Z</time>
      </trkpt>
      <trkpt lat="45.93486" lon="4.72357">
        <ele>173</ele>
        <time>2016-10-04T08:27:25Z</time>
      </trkpt>
      <trkpt lat="45.93491" lon="4.72351">
        <ele>173</ele>
        <time>2016-10-04T08:27:26Z</time>
      </trkpt>
      <trkpt lat="45.93495" lon="4.72345">
        <ele>173</ele>
        <time>2016-10-04T08:27:27Z</time>
      </trkpt>
      <trkpt lat="45.935" lon="4.72339">
        <ele>173</ele>
        <time>2016-10-04T08:27:28Z</time>
      </trkpt>
      <trkpt lat="45.93504" lon="4.72333">
        <ele>173</ele>
        <time>2016-10-04T08:27:29Z</time>
      </trkpt>
      <trkpt lat="45.93508" lon="4.72327">
        <ele>173</ele>
        <time>2016-10-04T08:27:30Z</time>
      </trkpt>
      <trkpt lat="45.93511" lon="4.7232">
        <ele>173</ele>
        <time>2016-10-04T08:27:31Z</time>
      </trkpt>
      <trkpt lat="45.93514" lon="4.72315">
        <ele>173</ele>
        <time>2016-10-04T08:27:32Z</time>
      </trkpt>
      <trkpt lat="45.93518" lon="4.72309">
        <ele>173</ele>
        <time>2016-10-04T08:27:33Z</time>
      </trkpt>
      <trkpt lat="45.93521" lon="4.72303">
        <ele>173</ele>
        <time>2016-10-04T08:27:34Z</time>
      </trkpt>
      <trkpt lat="45.93524" lon="4.72296">
        <ele>172</ele>
        <time>2016-10-04T08:27:35Z</time>
      </trkpt>
      <trkpt lat="45.93527" lon="4.7229">
        <ele>172</ele>
        <time>2016-10-04T08:27:36Z</time>
      </trkpt>
      <trkpt lat="45.93529" lon="4.72283">
        <ele>172</ele>
        <time>2016-10-04T08:27:37Z</time>
      </trkpt>
      <trkpt lat="45.93532" lon="4.72276">
        <ele>172</ele>
        <time>2016-10-04T08:27:38Z</time>
      </trkpt>
      <trkpt lat="45.93535" lon="4.72269">
        <ele>172</ele>
        <time>2016-10-04T08:27:39Z</time>
      </trkpt>
      <trkpt lat="45.93537" lon="4.72263">
        <ele>172</ele>
        <time>2016-10-04T08:27:40Z</time>
      </trkpt>
      <trkpt lat="45.9354" lon="4.72257">
        <ele>172</ele>
        <time>2016-10-04T08:27:41Z</time>
      </trkpt>
      <trkpt lat="45.93542" lon="4.7225">
        <ele>172</ele>
        <time>2016-10-04T08:27:42Z</time>
      </trkpt>
      <trkpt lat="45.93544" lon="4.72243">
        <ele>172</ele>
        <time>2016-10-04T08:27:43Z</time>
      </trkpt>
      <trkpt lat="45.93547" lon="4.72237">
        <ele>172</ele>
        <time>2016-10-04T08:27:44Z</time>
      </trkpt>
      <trkpt lat="45.9355" lon="4.72231">
        <ele>172</ele>
        <time>2016-10-04T08:27:45Z</time>
      </trkpt>
      <trkpt lat="45.93555" lon="4.72228">
        <ele>173</ele>
        <time>2016-10-04T08:27:46Z</time>
      </trkpt>
      <trkpt lat="45.9356" lon="4.72227">
        <ele>173</ele>
        <time>2016-10-04T08:27:47Z</time>
      </trkpt>
      <trkpt lat="45.93566" lon="4.72229">
        <ele>173</ele>
        <time>2016-10-04T08:27:48Z</time>
      </trkpt>
      <trkpt lat="45.9357" lon="4.72233">
        <ele>173</ele>
        <time>2016-10-04T08:27:49Z</time>
      </trkpt>
      <trkpt lat="45.93574" lon="4.72237">
        <ele>173</ele>
        <time>2016-10-04T08:27:50Z</time>
      </trkpt>
      <trkpt lat="45.93578" lon="4.72241">
        <ele>173</ele>
        <time>2016-10-04T08:27:51Z</time>
      </trkpt>
      <trkpt lat="45.93582" lon="4.72246">
        <ele>173</ele>
        <time>2016-10-04T08:27:52Z</time>
      </trkpt>
      <trkpt lat="45.93586" lon="4.7225">
        <ele>173</ele>
        <time>2016-10-04T08:27:53Z</time>
      </trkpt>
      <trkpt lat="45.9359" lon="4.72254">
        <ele>173</ele>
        <time>2016-10-04T08:27:54Z</time>
      </trkpt>
      <trkpt lat="45.93595" lon="4.72257">
        <ele>173</ele>
        <time>2016-10-04T08:27:55Z</time>
      </trkpt>
      <trkpt lat="45.936" lon="4.72263">
        <ele>173</ele>
        <time>2016-10-04T08:27:56Z</time>
      </trkpt>
      <trkpt lat="45.93604" lon="4.72267">
        <ele>173</ele>
        <time>2016-10-04T08:27:57Z</time>
      </trkpt>
      <trkpt lat="45.93608" lon="4.7227">
        <ele>172</ele>
        <time>2016-10-04T08:27:58Z</time>
      </trkpt>
      <trkpt lat="45.93612" lon="4.72275">
        <ele>172</ele>
        <time>2016-10-04T08:27:59Z</time>
      </trkpt>
      <trkpt lat="45.93615" lon="4.72279">
        <ele>172</ele>
        <time>2016-10-04T08:28:00Z</time>
      </trkpt>
      <trkpt lat="45.93619" lon="4.72283">
        <ele>172</ele>
        <time>2016-10-04T08:28:01Z</time>
      </trkpt>
      <trkpt lat="45.93626" lon="4.7229">
        <ele>172</ele>
        <time>2016-10-04T08:28:03Z</time>
      </trkpt>
      <trkpt lat="45.93629" lon="4.72292">
        <ele>172</ele>
        <time>2016-10-04T08:28:04Z</time>
      </trkpt>
      <trkpt lat="45.93636" lon="4.72297">
        <ele>172</ele>
        <time>2016-10-04T08:28:06Z</time>
      </trkpt>
      <trkpt lat="45.93639" lon="4.72301">
        <ele>172</ele>
        <time>2016-10-04T08:28:07Z</time>
      </trkpt>
      <trkpt lat="45.93643" lon="4.72306">
        <ele>172</ele>
        <time>2016-10-04T08:28:08Z</time>
      </trkpt>
      <trkpt lat="45.9365" lon="4.72312">
        <ele>172</ele>
        <time>2016-10-04T08:28:09Z</time>
      </trkpt>
      <trkpt lat="45.93655" lon="4.72317">
        <ele>172</ele>
        <time>2016-10-04T08:28:10Z</time>
      </trkpt>
      <trkpt lat="45.9366" lon="4.72322">
        <ele>172</ele>
        <time>2016-10-04T08:28:11Z</time>
      </trkpt>
      <trkpt lat="45.93664" lon="4.72326">
        <ele>171</ele>
        <time>2016-10-04T08:28:12Z</time>
      </trkpt>
      <trkpt lat="45.93669" lon="4.72332">
        <ele>171</ele>
        <time>2016-10-04T08:28:13Z</time>
      </trkpt>
      <trkpt lat="45.93675" lon="4.72338">
        <ele>171</ele>
        <time>2016-10-04T08:28:14Z</time>
      </trkpt>
      <trkpt lat="45.93679" lon="4.72343">
        <ele>171</ele>
        <time>2016-10-04T08:28:15Z</time>
      </trkpt>
      <trkpt lat="45.93683" lon="4.72346">
        <ele>171</ele>
        <time>2016-10-04T08:28:16Z</time>
      </trkpt>
      <trkpt lat="45.93688" lon="4.72348">
        <ele>171</ele>
        <time>2016-10-04T08:28:17Z</time>
      </trkpt>
      <trkpt lat="45.93695" lon="4.72353">
        <ele>171</ele>
        <time>2016-10-04T08:28:19Z</time>
      </trkpt>
      <trkpt lat="45.93699" lon="4.72359">
        <ele>171</ele>
        <time>2016-10-04T08:28:20Z</time>
      </trkpt>
      <trkpt lat="45.93702" lon="4.72366">
        <ele>171</ele>
        <time>2016-10-04T08:28:21Z</time>
      </trkpt>
      <trkpt lat="45.93707" lon="4.72366">
        <ele>171</ele>
        <time>2016-10-04T08:28:22Z</time>
      </trkpt>
      <trkpt lat="45.93712" lon="4.72363">
        <ele>172</ele>
        <time>2016-10-04T08:28:23Z</time>
      </trkpt>
      <trkpt lat="45.93716" lon="4.72358">
        <ele>172</ele>
        <time>2016-10-04T08:28:24Z</time>
      </trkpt>
      <trkpt lat="45.9372" lon="4.72353">
        <ele>172</ele>
        <time>2016-10-04T08:28:25Z</time>
      </trkpt>
      <trkpt lat="45.93726" lon="4.72351">
        <ele>172</ele>
        <time>2016-10-04T08:28:26Z</time>
      </trkpt>
      <trkpt lat="45.93729" lon="4.72346">
        <ele>172</ele>
        <time>2016-10-04T08:28:27Z</time>
      </trkpt>
      <trkpt lat="45.93733" lon="4.7234">
        <ele>172</ele>
        <time>2016-10-04T08:28:28Z</time>
      </trkpt>
      <trkpt lat="45.93737" lon="4.72334">
        <ele>172</ele>
        <time>2016-10-04T08:28:29Z</time>
      </trkpt>
      <trkpt lat="45.93741" lon="4.72327">
        <ele>172</ele>
        <time>2016-10-04T08:28:30Z</time>
      </trkpt>
      <trkpt lat="45.93745" lon="4.72318">
        <ele>172</ele>
        <time>2016-10-04T08:28:31Z</time>
      </trkpt>
      <trkpt lat="45.93749" lon="4.7231">
        <ele>172</ele>
        <time>2016-10-04T08:28:32Z</time>
      </trkpt>
      <trkpt lat="45.93754" lon="4.72303">
        <ele>172</ele>
        <time>2016-10-04T08:28:33Z</time>
      </trkpt>
      <trkpt lat="45.93758" lon="4.72295">
        <ele>172</ele>
        <time>2016-10-04T08:28:34Z</time>
      </trkpt>
      <trkpt lat="45.93762" lon="4.72287">
        <ele>172</ele>
        <time>2016-10-04T08:28:35Z</time>
      </trkpt>
      <trkpt lat="45.93765" lon="4.72279">
        <ele>172</ele>
        <time>2016-10-04T08:28:36Z</time>
      </trkpt>
      <trkpt lat="45.93769" lon="4.72271">
        <ele>172</ele>
        <time>2016-10-04T08:28:37Z</time>
      </trkpt>
      <trkpt lat="45.93773" lon="4.72264">
        <ele>172</ele>
        <time>2016-10-04T08:28:38Z</time>
      </trkpt>
      <trkpt lat="45.93777" lon="4.72256">
        <ele>172</ele>
        <time>2016-10-04T08:28:39Z</time>
      </trkpt>
      <trkpt lat="45.93781" lon="4.7225">
        <ele>172</ele>
        <time>2016-10-04T08:28:40Z</time>
      </trkpt>
      <trkpt lat="45.93784" lon="4.72244">
        <ele>172</ele>
        <time>2016-10-04T08:28:41Z</time>
      </trkpt>
      <trkpt lat="45.93788" lon="4.72239">
        <ele>172</ele>
        <time>2016-10-04T08:28:42Z</time>
      </trkpt>
      <trkpt lat="45.93792" lon="4.72233">
        <ele>172</ele>
        <time>2016-10-04T08:28:43Z</time>
      </trkpt>
      <trkpt lat="45.93795" lon="4.72227">
        <ele>172</ele>
        <time>2016-10-04T08:28:44Z</time>
      </trkpt>
      <trkpt lat="45.93798" lon="4.72221">
        <ele>172</ele>
        <time>2016-10-04T08:28:45Z</time>
      </trkpt>
      <trkpt lat="45.93802" lon="4.72216">
        <ele>172</ele>
        <time>2016-10-04T08:28:46Z</time>
      </trkpt>
      <trkpt lat="45.93805" lon="4.7221">
        <ele>172</ele>
        <time>2016-10-04T08:28:47Z</time>
      </trkpt>
      <trkpt lat="45.93809" lon="4.72205">
        <ele>172</ele>
        <time>2016-10-04T08:28:48Z</time>
      </trkpt>
      <trkpt lat="45.93811" lon="4.72198">
        <ele>172</ele>
        <time>2016-10-04T08:28:49Z</time>
      </trkpt>
      <trkpt lat="45.93813" lon="4.7219">
        <ele>172</ele>
        <time>2016-10-04T08:28:50Z</time>
      </trkpt>
      <trkpt lat="45.93816" lon="4.72183">
        <ele>172</ele>
        <time>2016-10-04T08:28:51Z</time>
      </trkpt>
      <trkpt lat="45.93819" lon="4.72178">
        <ele>172</ele>
        <time>2016-10-04T08:28:52Z</time>
      </trkpt>
      <trkpt lat="45.93823" lon="4.72173">
        <ele>172</ele>
        <time>2016-10-04T08:28:53Z</time>
      </trkpt>
      <trkpt lat="45.93826" lon="4.72168">
        <ele>171</ele>
        <time>2016-10-04T08:28:54Z</time>
      </trkpt>
      <trkpt lat="45.93832" lon="4.72159">
        <ele>172</ele>
        <time>2016-10-04T08:28:56Z</time>
      </trkpt>
      <trkpt lat="45.93834" lon="4.72154">
        <ele>171</ele>
        <time>2016-10-04T08:28:57Z</time>
      </trkpt>
      <trkpt lat="45.93841" lon="4.72147">
        <ele>171</ele>
        <time>2016-10-04T08:29:01Z</time>
      </trkpt>
      <trkpt lat="45.93843" lon="4.72145">
        <ele>172</ele>
        <time>2016-10-04T08:29:02Z</time>
      </trkpt>
      <trkpt lat="45.93849" lon="4.72136">
        <ele>172</ele>
        <time>2016-10-04T08:29:05Z</time>
      </trkpt>
      <trkpt lat="45.93851" lon="4.72132">
        <ele>172</ele>
        <time>2016-10-04T08:29:06Z</time>
      </trkpt>
      <trkpt lat="45.93857" lon="4.72124">
        <ele>172</ele>
        <time>2016-10-04T08:29:08Z</time>
      </trkpt>
      <trkpt lat="45.9386" lon="4.72119">
        <ele>172</ele>
        <time>2016-10-04T08:29:09Z</time>
      </trkpt>
      <trkpt lat="45.93864" lon="4.72114">
        <ele>172</ele>
        <time>2016-10-04T08:29:10Z</time>
      </trkpt>
      <trkpt lat="45.93867" lon="4.72109">
        <ele>172</ele>
        <time>2016-10-04T08:29:11Z</time>
      </trkpt>
      <trkpt lat="45.93873" lon="4.72102">
        <ele>172</ele>
        <time>2016-10-04T08:29:13Z</time>
      </trkpt>
      <trkpt lat="45.93876" lon="4.72097">
        <ele>172</ele>
        <time>2016-10-04T08:29:14Z</time>
      </trkpt>
      <trkpt lat="45.93882" lon="4.7209">
        <ele>172</ele>
        <time>2016-10-04T08:29:16Z</time>
      </trkpt>
      <trkpt lat="45.93885" lon="4.72086">
        <ele>172</ele>
        <time>2016-10-04T08:29:17Z</time>
      </trkpt>
      <trkpt lat="45.93891" lon="4.72078">
        <ele>172</ele>
        <time>2016-10-04T08:29:19Z</time>
      </trkpt>
      <trkpt lat="45.93894" lon="4.72074">
        <ele>172</ele>
        <time>2016-10-04T08:29:20Z</time>
      </trkpt>
      <trkpt lat="45.93898" lon="4.7207">
        <ele>172</ele>
        <time>2016-10-04T08:29:21Z</time>
      </trkpt>
      <trkpt lat="45.93902" lon="4.72067">
        <ele>172</ele>
        <time>2016-10-04T08:29:22Z</time>
      </trkpt>
      <trkpt lat="45.93906" lon="4.72065">
        <ele>172</ele>
        <time>2016-10-04T08:29:23Z</time>
      </trkpt>
      <trkpt lat="45.93911" lon="4.7206">
        <ele>172</ele>
        <time>2016-10-04T08:29:24Z</time>
      </trkpt>
      <trkpt lat="45.93916" lon="4.72055">
        <ele>172</ele>
        <time>2016-10-04T08:29:25Z</time>
      </trkpt>
      <trkpt lat="45.9392" lon="4.72051">
        <ele>172</ele>
        <time>2016-10-04T08:29:26Z</time>
      </trkpt>
      <trkpt lat="45.93924" lon="4.72045">
        <ele>172</ele>
        <time>2016-10-04T08:29:27Z</time>
      </trkpt>
      <trkpt lat="45.93928" lon="4.72037">
        <ele>172</ele>
        <time>2016-10-04T08:29:28Z</time>
      </trkpt>
      <trkpt lat="45.93933" lon="4.72031">
        <ele>172</ele>
        <time>2016-10-04T08:29:29Z</time>
      </trkpt>
      <trkpt lat="45.93939" lon="4.72024">
        <ele>172</ele>
        <time>2016-10-04T08:29:30Z</time>
      </trkpt>
      <trkpt lat="45.93943" lon="4.72019">
        <ele>172</ele>
        <time>2016-10-04T08:29:31Z</time>
      </trkpt>
      <trkpt lat="45.93948" lon="4.72015">
        <ele>172</ele>
        <time>2016-10-04T08:29:32Z</time>
      </trkpt>
      <trkpt lat="45.93953" lon="4.72011">
        <ele>172</ele>
        <time>2016-10-04T08:29:33Z</time>
      </trkpt>
      <trkpt lat="45.93958" lon="4.72006">
        <ele>172</ele>
        <time>2016-10-04T08:29:34Z</time>
      </trkpt>
      <trkpt lat="45.93962" lon="4.72001">
        <ele>172</ele>
        <time>2016-10-04T08:29:35Z</time>
      </trkpt>
      <trkpt lat="45.93966" lon="4.71995">
        <ele>173</ele>
        <time>2016-10-04T08:29:36Z</time>
      </trkpt>
      <trkpt lat="45.9397" lon="4.71989">
        <ele>173</ele>
        <time>2016-10-04T08:29:37Z</time>
      </trkpt>
      <trkpt lat="45.93974" lon="4.71983">
        <ele>173</ele>
        <time>2016-10-04T08:29:38Z</time>
      </trkpt>
      <trkpt lat="45.93978" lon="4.71978">
        <ele>173</ele>
        <time>2016-10-04T08:29:39Z</time>
      </trkpt>
      <trkpt lat="45.93982" lon="4.71972">
        <ele>173</ele>
        <time>2016-10-04T08:29:40Z</time>
      </trkpt>
      <trkpt lat="45.93986" lon="4.71968">
        <ele>173</ele>
        <time>2016-10-04T08:29:41Z</time>
      </trkpt>
      <trkpt lat="45.93991" lon="4.71966">
        <ele>173</ele>
        <time>2016-10-04T08:29:42Z</time>
      </trkpt>
      <trkpt lat="45.93996" lon="4.71966">
        <ele>173</ele>
        <time>2016-10-04T08:29:43Z</time>
      </trkpt>
      <trkpt lat="45.94" lon="4.71969">
        <ele>174</ele>
        <time>2016-10-04T08:29:44Z</time>
      </trkpt>
      <trkpt lat="45.94004" lon="4.71973">
        <ele>174</ele>
        <time>2016-10-04T08:29:45Z</time>
      </trkpt>
      <trkpt lat="45.94009" lon="4.71978">
        <ele>174</ele>
        <time>2016-10-04T08:29:46Z</time>
      </trkpt>
      <trkpt lat="45.94012" lon="4.71982">
        <ele>174</ele>
        <time>2016-10-04T08:29:47Z</time>
      </trkpt>
      <trkpt lat="45.94016" lon="4.71988">
        <ele>174</ele>
        <time>2016-10-04T08:29:48Z</time>
      </trkpt>
      <trkpt lat="45.9402" lon="4.71993">
        <ele>174</ele>
        <time>2016-10-04T08:29:49Z</time>
      </trkpt>
      <trkpt lat="45.94023" lon="4.72">
        <ele>174</ele>
        <time>2016-10-04T08:29:50Z</time>
      </trkpt>
      <trkpt lat="45.94027" lon="4.72006">
        <ele>173</ele>
        <time>2016-10-04T08:29:51Z</time>
      </trkpt>
      <trkpt lat="45.9403" lon="4.72012">
        <ele>173</ele>
        <time>2016-10-04T08:29:52Z</time>
      </trkpt>
      <trkpt lat="45.94033" lon="4.72019">
        <ele>173</ele>
        <time>2016-10-04T08:29:53Z</time>
      </trkpt>
      <trkpt lat="45.94036" lon="4.72025">
        <ele>173</ele>
        <time>2016-10-04T08:29:54Z</time>
      </trkpt>
      <trkpt lat="45.94041" lon="4.72034">
        <ele>173</ele>
        <time>2016-10-04T08:29:56Z</time>
      </trkpt>
      <trkpt lat="45.94044" lon="4.72038">
        <ele>173</ele>
        <time>2016-10-04T08:29:57Z</time>
      </trkpt>
      <trkpt lat="45.9405" lon="4.72045">
        <ele>173</ele>
        <time>2016-10-04T08:29:59Z</time>
      </trkpt>
      <trkpt lat="45.94054" lon="4.72044">
        <ele>173</ele>
        <time>2016-10-04T08:30:00Z</time>
      </trkpt>
      <trkpt lat="45.94057" lon="4.7204">
        <ele>173</ele>
        <time>2016-10-04T08:30:01Z</time>
      </trkpt>
      <trkpt lat="45.94061" lon="4.72035">
        <ele>174</ele>
        <time>2016-10-04T08:30:02Z</time>
      </trkpt>
      <trkpt lat="45.94065" lon="4.72031">
        <ele>174</ele>
        <time>2016-10-04T08:30:03Z</time>
      </trkpt>
      <trkpt lat="45.94068" lon="4.72026">
        <ele>174</ele>
        <time>2016-10-04T08:30:04Z</time>
      </trkpt>
      <trkpt lat="45.94072" lon="4.72021">
        <ele>174</ele>
        <time>2016-10-04T08:30:05Z</time>
      </trkpt>
      <trkpt lat="45.94076" lon="4.72016">
        <ele>174</ele>
        <time>2016-10-04T08:30:06Z</time>
      </trkpt>
      <trkpt lat="45.94081" lon="4.72012">
        <ele>174</ele>
        <time>2016-10-04T08:30:07Z</time>
      </trkpt>
      <trkpt lat="45.94085" lon="4.72007">
        <ele>175</ele>
        <time>2016-10-04T08:30:08Z</time>
      </trkpt>
      <trkpt lat="45.9409" lon="4.72002">
        <ele>175</ele>
        <time>2016-10-04T08:30:09Z</time>
      </trkpt>
      <trkpt lat="45.94094" lon="4.71997">
        <ele>175</ele>
        <time>2016-10-04T08:30:10Z</time>
      </trkpt>
      <trkpt lat="45.94099" lon="4.71992">
        <ele>174</ele>
        <time>2016-10-04T08:30:11Z</time>
      </trkpt>
      <trkpt lat="45.94104" lon="4.71986">
        <ele>174</ele>
        <time>2016-10-04T08:30:12Z</time>
      </trkpt>
      <trkpt lat="45.94109" lon="4.7198">
        <ele>174</ele>
        <time>2016-10-04T08:30:13Z</time>
      </trkpt>
      <trkpt lat="45.94113" lon="4.71975">
        <ele>174</ele>
        <time>2016-10-04T08:30:14Z</time>
      </trkpt>
      <trkpt lat="45.94117" lon="4.71971">
        <ele>174</ele>
        <time>2016-10-04T08:30:15Z</time>
      </trkpt>
      <trkpt lat="45.94122" lon="4.71968">
        <ele>174</ele>
        <time>2016-10-04T08:30:16Z</time>
      </trkpt>
      <trkpt lat="45.94127" lon="4.71965">
        <ele>174</ele>
        <time>2016-10-04T08:30:17Z</time>
      </trkpt>
      <trkpt lat="45.94132" lon="4.71964">
        <ele>174</ele>
        <time>2016-10-04T08:30:18Z</time>
      </trkpt>
      <trkpt lat="45.94137" lon="4.71961">
        <ele>174</ele>
        <time>2016-10-04T08:30:19Z</time>
      </trkpt>
      <trkpt lat="45.94141" lon="4.71956">
        <ele>173</ele>
        <time>2016-10-04T08:30:20Z</time>
      </trkpt>
      <trkpt lat="45.94145" lon="4.71949">
        <ele>173</ele>
        <time>2016-10-04T08:30:21Z</time>
      </trkpt>
      <trkpt lat="45.94149" lon="4.71943">
        <ele>173</ele>
        <time>2016-10-04T08:30:22Z</time>
      </trkpt>
      <trkpt lat="45.94153" lon="4.71936">
        <ele>173</ele>
        <time>2016-10-04T08:30:23Z</time>
      </trkpt>
      <trkpt lat="45.94158" lon="4.7193">
        <ele>173</ele>
        <time>2016-10-04T08:30:24Z</time>
      </trkpt>
      <trkpt lat="45.94164" lon="4.71925">
        <ele>173</ele>
        <time>2016-10-04T08:30:25Z</time>
      </trkpt>
      <trkpt lat="45.94169" lon="4.7192">
        <ele>172</ele>
        <time>2016-10-04T08:30:26Z</time>
      </trkpt>
      <trkpt lat="45.94175" lon="4.71917">
        <ele>172</ele>
        <time>2016-10-04T08:30:27Z</time>
      </trkpt>
      <trkpt lat="45.94181" lon="4.71915">
        <ele>172</ele>
        <time>2016-10-04T08:30:28Z</time>
      </trkpt>
      <trkpt lat="45.94187" lon="4.71913">
        <ele>172</ele>
        <time>2016-10-04T08:30:29Z</time>
      </trkpt>
      <trkpt lat="45.94193" lon="4.71911">
        <ele>172</ele>
        <time>2016-10-04T08:30:30Z</time>
      </trkpt>
      <trkpt lat="45.94198" lon="4.7191">
        <ele>172</ele>
        <time>2016-10-04T08:30:31Z</time>
      </trkpt>
      <trkpt lat="45.94204" lon="4.7191">
        <ele>172</ele>
        <time>2016-10-04T08:30:32Z</time>
      </trkpt>
      <trkpt lat="45.94209" lon="4.71912">
        <ele>171</ele>
        <time>2016-10-04T08:30:33Z</time>
      </trkpt>
      <trkpt lat="45.94214" lon="4.71914">
        <ele>171</ele>
        <time>2016-10-04T08:30:34Z</time>
      </trkpt>
      <trkpt lat="45.94219" lon="4.71916">
        <ele>171</ele>
        <time>2016-10-04T08:30:35Z</time>
      </trkpt>
      <trkpt lat="45.94224" lon="4.71919">
        <ele>172</ele>
        <time>2016-10-04T08:30:36Z</time>
      </trkpt>
      <trkpt lat="45.9423" lon="4.71921">
        <ele>172</ele>
        <time>2016-10-04T08:30:37Z</time>
      </trkpt>
      <trkpt lat="45.94235" lon="4.71923">
        <ele>172</ele>
        <time>2016-10-04T08:30:38Z</time>
      </trkpt>
      <trkpt lat="45.9424" lon="4.71925">
        <ele>172</ele>
        <time>2016-10-04T08:30:39Z</time>
      </trkpt>
      <trkpt lat="45.94246" lon="4.71927">
        <ele>171</ele>
        <time>2016-10-04T08:30:40Z</time>
      </trkpt>
      <trkpt lat="45.94252" lon="4.71929">
        <ele>171</ele>
        <time>2016-10-04T08:30:41Z</time>
      </trkpt>
      <trkpt lat="45.94257" lon="4.7193">
        <ele>171</ele>
        <time>2016-10-04T08:30:42Z</time>
      </trkpt>
      <trkpt lat="45.94263" lon="4.7193">
        <ele>171</ele>
        <time>2016-10-04T08:30:43Z</time>
      </trkpt>
      <trkpt lat="45.94269" lon="4.71929">
        <ele>171</ele>
        <time>2016-10-04T08:30:44Z</time>
      </trkpt>
      <trkpt lat="45.94275" lon="4.71927">
        <ele>171</ele>
        <time>2016-10-04T08:30:45Z</time>
      </trkpt>
      <trkpt lat="45.9428" lon="4.71924">
        <ele>171</ele>
        <time>2016-10-04T08:30:46Z</time>
      </trkpt>
      <trkpt lat="45.94285" lon="4.7192">
        <ele>171</ele>
        <time>2016-10-04T08:30:47Z</time>
      </trkpt>
      <trkpt lat="45.9429" lon="4.71917">
        <ele>171</ele>
        <time>2016-10-04T08:30:48Z</time>
      </trkpt>
      <trkpt lat="45.94296" lon="4.71913">
        <ele>171</ele>
        <time>2016-10-04T08:30:49Z</time>
      </trkpt>
      <trkpt lat="45.94301" lon="4.71908">
        <ele>171</ele>
        <time>2016-10-04T08:30:50Z</time>
      </trkpt>
      <trkpt lat="45.94306" lon="4.71903">
        <ele>171</ele>
        <time>2016-10-04T08:30:51Z</time>
      </trkpt>
      <trkpt lat="45.94311" lon="4.71898">
        <ele>171</ele>
        <time>2016-10-04T08:30:52Z</time>
      </trkpt>
      <trkpt lat="45.94317" lon="4.71894">
        <ele>171</ele>
        <time>2016-10-04T08:30:53Z</time>
      </trkpt>
      <trkpt lat="45.94322" lon="4.71889">
        <ele>171</ele>
        <time>2016-10-04T08:30:54Z</time>
      </trkpt>
      <trkpt lat="45.94327" lon="4.71885">
        <ele>171</ele>
        <time>2016-10-04T08:30:55Z</time>
      </trkpt>
      <trkpt lat="45.94333" lon="4.71881">
        <ele>171</ele>
        <time>2016-10-04T08:30:56Z</time>
      </trkpt>
      <trkpt lat="45.94338" lon="4.71877">
        <ele>171</ele>
        <time>2016-10-04T08:30:57Z</time>
      </trkpt>
      <trkpt lat="45.94342" lon="4.71872">
        <ele>171</ele>
        <time>2016-10-04T08:30:58Z</time>
      </trkpt>
      <trkpt lat="45.94347" lon="4.71868">
        <ele>171</ele>
        <time>2016-10-04T08:30:59Z</time>
      </trkpt>
      <trkpt lat="45.94352" lon="4.71864">
        <ele>171</ele>
        <time>2016-10-04T08:31:00Z</time>
      </trkpt>
      <trkpt lat="45.94357" lon="4.7186">
        <ele>171</ele>
        <time>2016-10-04T08:31:01Z</time>
      </trkpt>
      <trkpt lat="45.94361" lon="4.71855">
        <ele>171</ele>
        <time>2016-10-04T08:31:02Z</time>
      </trkpt>
      <trkpt lat="45.94366" lon="4.71855">
        <ele>171</ele>
        <time>2016-10-04T08:31:03Z</time>
      </trkpt>
      <trkpt lat="45.94372" lon="4.71853">
        <ele>171</ele>
        <time>2016-10-04T08:31:04Z</time>
      </trkpt>
      <trkpt lat="45.94377" lon="4.71849">
        <ele>171</ele>
        <time>2016-10-04T08:31:05Z</time>
      </trkpt>
      <trkpt lat="45.94382" lon="4.71846">
        <ele>171</ele>
        <time>2016-10-04T08:31:06Z</time>
      </trkpt>
      <trkpt lat="45.94386" lon="4.71842">
        <ele>171</ele>
        <time>2016-10-04T08:31:07Z</time>
      </trkpt>
      <trkpt lat="45.94391" lon="4.71839">
        <ele>171</ele>
        <time>2016-10-04T08:31:08Z</time>
      </trkpt>
      <trkpt lat="45.94396" lon="4.71835">
        <ele>171</ele>
        <time>2016-10-04T08:31:09Z</time>
      </trkpt>
      <trkpt lat="45.94401" lon="4.71831">
        <ele>172</ele>
        <time>2016-10-04T08:31:10Z</time>
      </trkpt>
      <trkpt lat="45.94406" lon="4.71826">
        <ele>172</ele>
        <time>2016-10-04T08:31:11Z</time>
      </trkpt>
      <trkpt lat="45.9441" lon="4.71821">
        <ele>172</ele>
        <time>2016-10-04T08:31:12Z</time>
      </trkpt>
      <trkpt lat="45.94415" lon="4.71816">
        <ele>172</ele>
        <time>2016-10-04T08:31:13Z</time>
      </trkpt>
      <trkpt lat="45.9442" lon="4.71811">
        <ele>171</ele>
        <time>2016-10-04T08:31:14Z</time>
      </trkpt>
      <trkpt lat="45.94426" lon="4.71807">
        <ele>172</ele>
        <time>2016-10-04T08:31:15Z</time>
      </trkpt>
      <trkpt lat="45.94432" lon="4.71803">
        <ele>172</ele>
        <time>2016-10-04T08:31:16Z</time>
      </trkpt>
      <trkpt lat="45.94437" lon="4.718">
        <ele>172</ele>
        <time>2016-10-04T08:31:17Z</time>
      </trkpt>
      <trkpt lat="45.94443" lon="4.71796">
        <ele>172</ele>
        <time>2016-10-04T08:31:18Z</time>
      </trkpt>
      <trkpt lat="45.94448" lon="4.71791">
        <ele>172</ele>
        <time>2016-10-04T08:31:19Z</time>
      </trkpt>
      <trkpt lat="45.94454" lon="4.71786">
        <ele>172</ele>
        <time>2016-10-04T08:31:20Z</time>
      </trkpt>
      <trkpt lat="45.94461" lon="4.71782">
        <ele>172</ele>
        <time>2016-10-04T08:31:21Z</time>
      </trkpt>
      <trkpt lat="45.94467" lon="4.71778">
        <ele>172</ele>
        <time>2016-10-04T08:31:22Z</time>
      </trkpt>
      <trkpt lat="45.94473" lon="4.71774">
        <ele>172</ele>
        <time>2016-10-04T08:31:23Z</time>
      </trkpt>
      <trkpt lat="45.94478" lon="4.7177">
        <ele>172</ele>
        <time>2016-10-04T08:31:24Z</time>
      </trkpt>
      <trkpt lat="45.94484" lon="4.71767">
        <ele>172</ele>
        <time>2016-10-04T08:31:25Z</time>
      </trkpt>
      <trkpt lat="45.94488" lon="4.71763">
        <ele>172</ele>
        <time>2016-10-04T08:31:26Z</time>
      </trkpt>
      <trkpt lat="45.94493" lon="4.71759">
        <ele>173</ele>
        <time>2016-10-04T08:31:27Z</time>
      </trkpt>
      <trkpt lat="45.94499" lon="4.71755">
        <ele>173</ele>
        <time>2016-10-04T08:31:28Z</time>
      </trkpt>
      <trkpt lat="45.94504" lon="4.71751">
        <ele>173</ele>
        <time>2016-10-04T08:31:29Z</time>
      </trkpt>
      <trkpt lat="45.9451" lon="4.71747">
        <ele>173</ele>
        <time>2016-10-04T08:31:30Z</time>
      </trkpt>
      <trkpt lat="45.94515" lon="4.71744">
        <ele>173</ele>
        <time>2016-10-04T08:31:31Z</time>
      </trkpt>
      <trkpt lat="45.94521" lon="4.71742">
        <ele>173</ele>
        <time>2016-10-04T08:31:32Z</time>
      </trkpt>
      <trkpt lat="45.94527" lon="4.71738">
        <ele>173</ele>
        <time>2016-10-04T08:31:33Z</time>
      </trkpt>
      <trkpt lat="45.94532" lon="4.71735">
        <ele>173</ele>
        <time>2016-10-04T08:31:34Z</time>
      </trkpt>
      <trkpt lat="45.94538" lon="4.71731">
        <ele>173</ele>
        <time>2016-10-04T08:31:35Z</time>
      </trkpt>
      <trkpt lat="45.94543" lon="4.7173">
        <ele>173</ele>
        <time>2016-10-04T08:31:36Z</time>
      </trkpt>
      <trkpt lat="45.94549" lon="4.71727">
        <ele>173</ele>
        <time>2016-10-04T08:31:37Z</time>
      </trkpt>
      <trkpt lat="45.94554" lon="4.71725">
        <ele>173</ele>
        <time>2016-10-04T08:31:38Z</time>
      </trkpt>
      <trkpt lat="45.9456" lon="4.71723">
        <ele>173</ele>
        <time>2016-10-04T08:31:39Z</time>
      </trkpt>
      <trkpt lat="45.94565" lon="4.71721">
        <ele>173</ele>
        <time>2016-10-04T08:31:40Z</time>
      </trkpt>
      <trkpt lat="45.94571" lon="4.71718">
        <ele>173</ele>
        <time>2016-10-04T08:31:41Z</time>
      </trkpt>
      <trkpt lat="45.94576" lon="4.71715">
        <ele>173</ele>
        <time>2016-10-04T08:31:42Z</time>
      </trkpt>
      <trkpt lat="45.94581" lon="4.71712">
        <ele>173</ele>
        <time>2016-10-04T08:31:43Z</time>
      </trkpt>
      <trkpt lat="45.94587" lon="4.7171">
        <ele>173</ele>
        <time>2016-10-04T08:31:44Z</time>
      </trkpt>
      <trkpt lat="45.94592" lon="4.71707">
        <ele>173</ele>
        <time>2016-10-04T08:31:45Z</time>
      </trkpt>
      <trkpt lat="45.94597" lon="4.71704">
        <ele>173</ele>
        <time>2016-10-04T08:31:46Z</time>
      </trkpt>
      <trkpt lat="45.94602" lon="4.71702">
        <ele>173</ele>
        <time>2016-10-04T08:31:47Z</time>
      </trkpt>
      <trkpt lat="45.94607" lon="4.717">
        <ele>173</ele>
        <time>2016-10-04T08:31:48Z</time>
      </trkpt>
      <trkpt lat="45.94613" lon="4.71697">
        <ele>173</ele>
        <time>2016-10-04T08:31:49Z</time>
      </trkpt>
      <trkpt lat="45.94618" lon="4.71695">
        <ele>173</ele>
        <time>2016-10-04T08:31:50Z</time>
      </trkpt>
      <trkpt lat="45.94623" lon="4.71692">
        <ele>173</ele>
        <time>2016-10-04T08:31:51Z</time>
      </trkpt>
      <trkpt lat="45.94628" lon="4.7169">
        <ele>173</ele>
        <time>2016-10-04T08:31:52Z</time>
      </trkpt>
      <trkpt lat="45.94633" lon="4.71687">
        <ele>173</ele>
        <time>2016-10-04T08:31:53Z</time>
      </trkpt>
      <trkpt lat="45.94638" lon="4.71684">
        <ele>173</ele>
        <time>2016-10-04T08:31:54Z</time>
      </trkpt>
      <trkpt lat="45.94643" lon="4.71681">
        <ele>174</ele>
        <time>2016-10-04T08:31:55Z</time>
      </trkpt>
      <trkpt lat="45.94648" lon="4.71679">
        <ele>174</ele>
        <time>2016-10-04T08:31:56Z</time>
      </trkpt>
      <trkpt lat="45.94654" lon="4.71677">
        <ele>174</ele>
        <time>2016-10-04T08:31:57Z</time>
      </trkpt>
      <trkpt lat="45.94659" lon="4.71676">
        <ele>174</ele>
        <time>2016-10-04T08:31:58Z</time>
      </trkpt>
      <trkpt lat="45.94664" lon="4.71673">
        <ele>174</ele>
        <time>2016-10-04T08:31:59Z</time>
      </trkpt>
      <trkpt lat="45.9467" lon="4.71671">
        <ele>174</ele>
        <time>2016-10-04T08:32:00Z</time>
      </trkpt>
      <trkpt lat="45.94675" lon="4.71669">
        <ele>174</ele>
        <time>2016-10-04T08:32:01Z</time>
      </trkpt>
      <trkpt lat="45.9468" lon="4.71665">
        <ele>174</ele>
        <time>2016-10-04T08:32:02Z</time>
      </trkpt>
      <trkpt lat="45.94686" lon="4.71664">
        <ele>174</ele>
        <time>2016-10-04T08:32:03Z</time>
      </trkpt>
      <trkpt lat="45.94692" lon="4.71661">
        <ele>174</ele>
        <time>2016-10-04T08:32:04Z</time>
      </trkpt>
      <trkpt lat="45.94697" lon="4.71659">
        <ele>174</ele>
        <time>2016-10-04T08:32:05Z</time>
      </trkpt>
      <trkpt lat="45.94702" lon="4.71657">
        <ele>174</ele>
        <time>2016-10-04T08:32:06Z</time>
      </trkpt>
      <trkpt lat="45.94707" lon="4.71656">
        <ele>175</ele>
        <time>2016-10-04T08:32:07Z</time>
      </trkpt>
      <trkpt lat="45.94712" lon="4.71654">
        <ele>175</ele>
        <time>2016-10-04T08:32:08Z</time>
      </trkpt>
      <trkpt lat="45.94717" lon="4.71652">
        <ele>175</ele>
        <time>2016-10-04T08:32:09Z</time>
      </trkpt>
      <trkpt lat="45.94722" lon="4.71649">
        <ele>175</ele>
        <time>2016-10-04T08:32:10Z</time>
      </trkpt>
      <trkpt lat="45.94727" lon="4.71647">
        <ele>175</ele>
        <time>2016-10-04T08:32:11Z</time>
      </trkpt>
      <trkpt lat="45.94732" lon="4.71645">
        <ele>175</ele>
        <time>2016-10-04T08:32:12Z</time>
      </trkpt>
      <trkpt lat="45.94737" lon="4.71643">
        <ele>175</ele>
        <time>2016-10-04T08:32:13Z</time>
      </trkpt>
      <trkpt lat="45.94742" lon="4.71641">
        <ele>175</ele>
        <time>2016-10-04T08:32:14Z</time>
      </trkpt>
      <trkpt lat="45.94747" lon="4.71639">
        <ele>175</ele>
        <time>2016-10-04T08:32:15Z</time>
      </trkpt>
      <trkpt lat="45.94752" lon="4.71637">
        <ele>175</ele>
        <time>2016-10-04T08:32:16Z</time>
      </trkpt>
      <trkpt lat="45.94757" lon="4.71635">
        <ele>175</ele>
        <time>2016-10-04T08:32:17Z</time>
      </trkpt>
      <trkpt lat="45.94762" lon="4.71633">
        <ele>175</ele>
        <time>2016-10-04T08:32:18Z</time>
      </trkpt>
      <trkpt lat="45.94767" lon="4.71631">
        <ele>175</ele>
        <time>2016-10-04T08:32:19Z</time>
      </trkpt>
      <trkpt lat="45.94772" lon="4.71629">
        <ele>175</ele>
        <time>2016-10-04T08:32:20Z</time>
      </trkpt>
      <trkpt lat="45.94778" lon="4.71627">
        <ele>175</ele>
        <time>2016-10-04T08:32:21Z</time>
      </trkpt>
      <trkpt lat="45.94783" lon="4.71625">
        <ele>175</ele>
        <time>2016-10-04T08:32:22Z</time>
      </trkpt>
      <trkpt lat="45.94788" lon="4.71623">
        <ele>175</ele>
        <time>2016-10-04T08:32:23Z</time>
      </trkpt>
      <trkpt lat="45.94793" lon="4.71621">
        <ele>175</ele>
        <time>2016-10-04T08:32:24Z</time>
      </trkpt>
      <trkpt lat="45.94798" lon="4.71619">
        <ele>175</ele>
        <time>2016-10-04T08:32:25Z</time>
      </trkpt>
      <trkpt lat="45.94802" lon="4.71617">
        <ele>175</ele>
        <time>2016-10-04T08:32:26Z</time>
      </trkpt>
      <trkpt lat="45.94807" lon="4.71616">
        <ele>175</ele>
        <time>2016-10-04T08:32:27Z</time>
      </trkpt>
      <trkpt lat="45.94812" lon="4.71614">
        <ele>175</ele>
        <time>2016-10-04T08:32:28Z</time>
      </trkpt>
      <trkpt lat="45.94817" lon="4.71613">
        <ele>175</ele>
        <time>2016-10-04T08:32:29Z</time>
      </trkpt>
      <trkpt lat="45.94822" lon="4.71611">
        <ele>175</ele>
        <time>2016-10-04T08:32:30Z</time>
      </trkpt>
      <trkpt lat="45.94827" lon="4.7161">
        <ele>176</ele>
        <time>2016-10-04T08:32:31Z</time>
      </trkpt>
      <trkpt lat="45.94832" lon="4.71608">
        <ele>176</ele>
        <time>2016-10-04T08:32:32Z</time>
      </trkpt>
      <trkpt lat="45.94837" lon="4.71607">
        <ele>175</ele>
        <time>2016-10-04T08:32:33Z</time>
      </trkpt>
      <trkpt lat="45.94842" lon="4.71606">
        <ele>175</ele>
        <time>2016-10-04T08:32:34Z</time>
      </trkpt>
      <trkpt lat="45.94847" lon="4.71605">
        <ele>175</ele>
        <time>2016-10-04T08:32:35Z</time>
      </trkpt>
      <trkpt lat="45.94852" lon="4.71603">
        <ele>175</ele>
        <time>2016-10-04T08:32:36Z</time>
      </trkpt>
      <trkpt lat="45.94857" lon="4.71602">
        <ele>175</ele>
        <time>2016-10-04T08:32:37Z</time>
      </trkpt>
      <trkpt lat="45.94862" lon="4.71601">
        <ele>175</ele>
        <time>2016-10-04T08:32:38Z</time>
      </trkpt>
      <trkpt lat="45.94867" lon="4.71599">
        <ele>175</ele>
        <time>2016-10-04T08:32:39Z</time>
      </trkpt>
      <trkpt lat="45.94873" lon="4.71598">
        <ele>175</ele>
        <time>2016-10-04T08:32:40Z</time>
      </trkpt>
      <trkpt lat="45.94878" lon="4.71596">
        <ele>175</ele>
        <time>2016-10-04T08:32:41Z</time>
      </trkpt>
      <trkpt lat="45.94883" lon="4.71595">
        <ele>175</ele>
        <time>2016-10-04T08:32:42Z</time>
      </trkpt>
      <trkpt lat="45.94888" lon="4.71594">
        <ele>175</ele>
        <time>2016-10-04T08:32:43Z</time>
      </trkpt>
      <trkpt lat="45.94893" lon="4.71593">
        <ele>175</ele>
        <time>2016-10-04T08:32:44Z</time>
      </trkpt>
      <trkpt lat="45.94898" lon="4.71592">
        <ele>175</ele>
        <time>2016-10-04T08:32:45Z</time>
      </trkpt>
      <trkpt lat="45.94903" lon="4.7159">
        <ele>175</ele>
        <time>2016-10-04T08:32:46Z</time>
      </trkpt>
      <trkpt lat="45.94907" lon="4.71589">
        <ele>175</ele>
        <time>2016-10-04T08:32:47Z</time>
      </trkpt>
      <trkpt lat="45.94912" lon="4.71587">
        <ele>176</ele>
        <time>2016-10-04T08:32:48Z</time>
      </trkpt>
      <trkpt lat="45.94917" lon="4.71586">
        <ele>176</ele>
        <time>2016-10-04T08:32:49Z</time>
      </trkpt>
      <trkpt lat="45.94922" lon="4.71584">
        <ele>176</ele>
        <time>2016-10-04T08:32:50Z</time>
      </trkpt>
      <trkpt lat="45.94926" lon="4.71582">
        <ele>177</ele>
        <time>2016-10-04T08:32:51Z</time>
      </trkpt>
      <trkpt lat="45.94931" lon="4.7158">
        <ele>177</ele>
        <time>2016-10-04T08:32:52Z</time>
      </trkpt>
      <trkpt lat="45.94935" lon="4.71578">
        <ele>177</ele>
        <time>2016-10-04T08:32:53Z</time>
      </trkpt>
      <trkpt lat="45.94939" lon="4.71575">
        <ele>177</ele>
        <time>2016-10-04T08:32:54Z</time>
      </trkpt>
      <trkpt lat="45.94943" lon="4.71572">
        <ele>177</ele>
        <time>2016-10-04T08:32:55Z</time>
      </trkpt>
      <trkpt lat="45.94947" lon="4.71568">
        <ele>178</ele>
        <time>2016-10-04T08:32:56Z</time>
      </trkpt>
      <trkpt lat="45.94951" lon="4.71564">
        <ele>178</ele>
        <time>2016-10-04T08:32:57Z</time>
      </trkpt>
      <trkpt lat="45.94955" lon="4.7156">
        <ele>178</ele>
        <time>2016-10-04T08:32:58Z</time>
      </trkpt>
      <trkpt lat="45.94958" lon="4.71555">
        <ele>178</ele>
        <time>2016-10-04T08:32:59Z</time>
      </trkpt>
      <trkpt lat="45.94961" lon="4.71549">
        <ele>178</ele>
        <time>2016-10-04T08:33:00Z</time>
      </trkpt>
      <trkpt lat="45.94963" lon="4.71543">
        <ele>178</ele>
        <time>2016-10-04T08:33:01Z</time>
      </trkpt>
      <trkpt lat="45.94965" lon="4.71537">
        <ele>178</ele>
        <time>2016-10-04T08:33:02Z</time>
      </trkpt>
      <trkpt lat="45.94967" lon="4.71531">
        <ele>179</ele>
        <time>2016-10-04T08:33:03Z</time>
      </trkpt>
      <trkpt lat="45.94969" lon="4.71525">
        <ele>179</ele>
        <time>2016-10-04T08:33:04Z</time>
      </trkpt>
      <trkpt lat="45.94969" lon="4.71519">
        <ele>179</ele>
        <time>2016-10-04T08:33:05Z</time>
      </trkpt>
      <trkpt lat="45.94969" lon="4.71512">
        <ele>179</ele>
        <time>2016-10-04T08:33:06Z</time>
      </trkpt>
      <trkpt lat="45.94972" lon="4.71501">
        <ele>179</ele>
        <time>2016-10-04T08:33:08Z</time>
      </trkpt>
      <trkpt lat="45.94974" lon="4.71496">
        <ele>182</ele>
        <time>2016-10-04T08:33:09Z</time>
      </trkpt>
      <trkpt lat="45.94978" lon="4.71492">
        <ele>182</ele>
        <time>2016-10-04T08:33:10Z</time>
      </trkpt>
      <trkpt lat="45.94982" lon="4.71488">
        <ele>182</ele>
        <time>2016-10-04T08:33:11Z</time>
      </trkpt>
      <trkpt lat="45.94986" lon="4.71485">
        <ele>182</ele>
        <time>2016-10-04T08:33:12Z</time>
      </trkpt>
      <trkpt lat="45.94991" lon="4.71483">
        <ele>182</ele>
        <time>2016-10-04T08:33:13Z</time>
      </trkpt>
      <trkpt lat="45.94996" lon="4.71482">
        <ele>182</ele>
        <time>2016-10-04T08:33:14Z</time>
      </trkpt>
      <trkpt lat="45.95" lon="4.71481">
        <ele>181</ele>
        <time>2016-10-04T08:33:15Z</time>
      </trkpt>
      <trkpt lat="45.95006" lon="4.71481">
        <ele>181</ele>
        <time>2016-10-04T08:33:16Z</time>
      </trkpt>
      <trkpt lat="45.95011" lon="4.71481">
        <ele>181</ele>
        <time>2016-10-04T08:33:17Z</time>
      </trkpt>
      <trkpt lat="45.95018" lon="4.7148">
        <ele>181</ele>
        <time>2016-10-04T08:33:18Z</time>
      </trkpt>
      <trkpt lat="45.95024" lon="4.71481">
        <ele>181</ele>
        <time>2016-10-04T08:33:19Z</time>
      </trkpt>
      <trkpt lat="45.9503" lon="4.71482">
        <ele>181</ele>
        <time>2016-10-04T08:33:20Z</time>
      </trkpt>
      <trkpt lat="45.95037" lon="4.71482">
        <ele>181</ele>
        <time>2016-10-04T08:33:21Z</time>
      </trkpt>
      <trkpt lat="45.95044" lon="4.71482">
        <ele>181</ele>
        <time>2016-10-04T08:33:22Z</time>
      </trkpt>
      <trkpt lat="45.95051" lon="4.71482">
        <ele>181</ele>
        <time>2016-10-04T08:33:23Z</time>
      </trkpt>
      <trkpt lat="45.95058" lon="4.71483">
        <ele>181</ele>
        <time>2016-10-04T08:33:24Z</time>
      </trkpt>
      <trkpt lat="45.95066" lon="4.71484">
        <ele>181</ele>
        <time>2016-10-04T08:33:25Z</time>
      </trkpt>
      <trkpt lat="45.95073" lon="4.71484">
        <ele>180</ele>
        <time>2016-10-04T08:33:26Z</time>
      </trkpt>
      <trkpt lat="45.95081" lon="4.71484">
        <ele>180</ele>
        <time>2016-10-04T08:33:27Z</time>
      </trkpt>
      <trkpt lat="45.95089" lon="4.71484">
        <ele>179</ele>
        <time>2016-10-04T08:33:28Z</time>
      </trkpt>
      <trkpt lat="45.95097" lon="4.71483">
        <ele>179</ele>
        <time>2016-10-04T08:33:29Z</time>
      </trkpt>
      <trkpt lat="45.95106" lon="4.71483">
        <ele>179</ele>
        <time>2016-10-04T08:33:30Z</time>
      </trkpt>
      <trkpt lat="45.95114" lon="4.71483">
        <ele>179</ele>
        <time>2016-10-04T08:33:31Z</time>
      </trkpt>
      <trkpt lat="45.95122" lon="4.71485">
        <ele>178</ele>
        <time>2016-10-04T08:33:32Z</time>
      </trkpt>
      <trkpt lat="45.95131" lon="4.71485">
        <ele>178</ele>
        <time>2016-10-04T08:33:33Z</time>
      </trkpt>
      <trkpt lat="45.95139" lon="4.71486">
        <ele>178</ele>
        <time>2016-10-04T08:33:34Z</time>
      </trkpt>
      <trkpt lat="45.95147" lon="4.71488">
        <ele>178</ele>
        <time>2016-10-04T08:33:35Z</time>
      </trkpt>
      <trkpt lat="45.95156" lon="4.71488">
        <ele>178</ele>
        <time>2016-10-04T08:33:36Z</time>
      </trkpt>
      <trkpt lat="45.95164" lon="4.71488">
        <ele>178</ele>
        <time>2016-10-04T08:33:37Z</time>
      </trkpt>
      <trkpt lat="45.95172" lon="4.71489">
        <ele>177</ele>
        <time>2016-10-04T08:33:38Z</time>
      </trkpt>
      <trkpt lat="45.9518" lon="4.71489">
        <ele>177</ele>
        <time>2016-10-04T08:33:39Z</time>
      </trkpt>
      <trkpt lat="45.95188" lon="4.71489">
        <ele>177</ele>
        <time>2016-10-04T08:33:40Z</time>
      </trkpt>
      <trkpt lat="45.95195" lon="4.71488">
        <ele>177</ele>
        <time>2016-10-04T08:33:41Z</time>
      </trkpt>
      <trkpt lat="45.95203" lon="4.71487">
        <ele>177</ele>
        <time>2016-10-04T08:33:42Z</time>
      </trkpt>
      <trkpt lat="45.95211" lon="4.71487">
        <ele>177</ele>
        <time>2016-10-04T08:33:43Z</time>
      </trkpt>
      <trkpt lat="45.95218" lon="4.71487">
        <ele>177</ele>
        <time>2016-10-04T08:33:44Z</time>
      </trkpt>
      <trkpt lat="45.95226" lon="4.71488">
        <ele>177</ele>
        <time>2016-10-04T08:33:45Z</time>
      </trkpt>
      <trkpt lat="45.95233" lon="4.71489">
        <ele>177</ele>
        <time>2016-10-04T08:33:46Z</time>
      </trkpt>
      <trkpt lat="45.9524" lon="4.7149">
        <ele>177</ele>
        <time>2016-10-04T08:33:47Z</time>
      </trkpt>
      <trkpt lat="45.95247" lon="4.71491">
        <ele>177</ele>
        <time>2016-10-04T08:33:48Z</time>
      </trkpt>
      <trkpt lat="45.95254" lon="4.71492">
        <ele>177</ele>
        <time>2016-10-04T08:33:49Z</time>
      </trkpt>
      <trkpt lat="45.95261" lon="4.71492">
        <ele>176</ele>
        <time>2016-10-04T08:33:50Z</time>
      </trkpt>
      <trkpt lat="45.95268" lon="4.71492">
        <ele>176</ele>
        <time>2016-10-04T08:33:51Z</time>
      </trkpt>
      <trkpt lat="45.95275" lon="4.71493">
        <ele>176</ele>
        <time>2016-10-04T08:33:52Z</time>
      </trkpt>
      <trkpt lat="45.95282" lon="4.71494">
        <ele>176</ele>
        <time>2016-10-04T08:33:53Z</time>
      </trkpt>
      <trkpt lat="45.95289" lon="4.71496">
        <ele>176</ele>
        <time>2016-10-04T08:33:54Z</time>
      </trkpt>
      <trkpt lat="45.95296" lon="4.71498">
        <ele>176</ele>
        <time>2016-10-04T08:33:55Z</time>
      </trkpt>
      <trkpt lat="45.95304" lon="4.71499">
        <ele>175</ele>
        <time>2016-10-04T08:33:56Z</time>
      </trkpt>
      <trkpt lat="45.95311" lon="4.715">
        <ele>174</ele>
        <time>2016-10-04T08:33:57Z</time>
      </trkpt>
      <trkpt lat="45.95318" lon="4.71502">
        <ele>174</ele>
        <time>2016-10-04T08:33:58Z</time>
      </trkpt>
      <trkpt lat="45.95325" lon="4.71502">
        <ele>174</ele>
        <time>2016-10-04T08:33:59Z</time>
      </trkpt>
      <trkpt lat="45.95332" lon="4.71503">
        <ele>174</ele>
        <time>2016-10-04T08:34:00Z</time>
      </trkpt>
      <trkpt lat="45.95338" lon="4.71503">
        <ele>174</ele>
        <time>2016-10-04T08:34:01Z</time>
      </trkpt>
      <trkpt lat="45.95344" lon="4.71504">
        <ele>174</ele>
        <time>2016-10-04T08:34:02Z</time>
      </trkpt>
      <trkpt lat="45.95349" lon="4.71503">
        <ele>174</ele>
        <time>2016-10-04T08:34:03Z</time>
      </trkpt>
      <trkpt lat="45.95355" lon="4.71502">
        <ele>174</ele>
        <time>2016-10-04T08:34:04Z</time>
      </trkpt>
      <trkpt lat="45.95361" lon="4.71502">
        <ele>174</ele>
        <time>2016-10-04T08:34:05Z</time>
      </trkpt>
      <trkpt lat="45.95367" lon="4.71503">
        <ele>174</ele>
        <time>2016-10-04T08:34:06Z</time>
      </trkpt>
      <trkpt lat="45.95374" lon="4.71504">
        <ele>174</ele>
        <time>2016-10-04T08:34:07Z</time>
      </trkpt>
      <trkpt lat="45.95381" lon="4.71504">
        <ele>174</ele>
        <time>2016-10-04T08:34:08Z</time>
      </trkpt>
      <trkpt lat="45.95387" lon="4.71504">
        <ele>174</ele>
        <time>2016-10-04T08:34:09Z</time>
      </trkpt>
      <trkpt lat="45.95394" lon="4.71505">
        <ele>174</ele>
        <time>2016-10-04T08:34:10Z</time>
      </trkpt>
      <trkpt lat="45.954" lon="4.71505">
        <ele>174</ele>
        <time>2016-10-04T08:34:11Z</time>
      </trkpt>
      <trkpt lat="45.95407" lon="4.71505">
        <ele>174</ele>
        <time>2016-10-04T08:34:12Z</time>
      </trkpt>
      <trkpt lat="45.95414" lon="4.71504">
        <ele>174</ele>
        <time>2016-10-04T08:34:13Z</time>
      </trkpt>
      <trkpt lat="45.9542" lon="4.71504">
        <ele>174</ele>
        <time>2016-10-04T08:34:14Z</time>
      </trkpt>
      <trkpt lat="45.95425" lon="4.71503">
        <ele>174</ele>
        <time>2016-10-04T08:34:15Z</time>
      </trkpt>
      <trkpt lat="45.9543" lon="4.71503">
        <ele>174</ele>
        <time>2016-10-04T08:34:16Z</time>
      </trkpt>
      <trkpt lat="45.95435" lon="4.71504">
        <ele>175</ele>
        <time>2016-10-04T08:34:17Z</time>
      </trkpt>
      <trkpt lat="45.95441" lon="4.71505">
        <ele>175</ele>
        <time>2016-10-04T08:34:18Z</time>
      </trkpt>
      <trkpt lat="45.95447" lon="4.71507">
        <ele>175</ele>
        <time>2016-10-04T08:34:19Z</time>
      </trkpt>
      <trkpt lat="45.95452" lon="4.71509">
        <ele>175</ele>
        <time>2016-10-04T08:34:20Z</time>
      </trkpt>
      <trkpt lat="45.95457" lon="4.71509">
        <ele>175</ele>
        <time>2016-10-04T08:34:21Z</time>
      </trkpt>
      <trkpt lat="45.95463" lon="4.71509">
        <ele>175</ele>
        <time>2016-10-04T08:34:22Z</time>
      </trkpt>
      <trkpt lat="45.95469" lon="4.71509">
        <ele>175</ele>
        <time>2016-10-04T08:34:23Z</time>
      </trkpt>
      <trkpt lat="45.95475" lon="4.71509">
        <ele>176</ele>
        <time>2016-10-04T08:34:24Z</time>
      </trkpt>
      <trkpt lat="45.95481" lon="4.7151">
        <ele>176</ele>
        <time>2016-10-04T08:34:25Z</time>
      </trkpt>
      <trkpt lat="45.95487" lon="4.7151">
        <ele>176</ele>
        <time>2016-10-04T08:34:26Z</time>
      </trkpt>
      <trkpt lat="45.95493" lon="4.7151">
        <ele>176</ele>
        <time>2016-10-04T08:34:27Z</time>
      </trkpt>
      <trkpt lat="45.95498" lon="4.71511">
        <ele>176</ele>
        <time>2016-10-04T08:34:28Z</time>
      </trkpt>
      <trkpt lat="45.95503" lon="4.71511">
        <ele>177</ele>
        <time>2016-10-04T08:34:29Z</time>
      </trkpt>
      <trkpt lat="45.95508" lon="4.71512">
        <ele>177</ele>
        <time>2016-10-04T08:34:30Z</time>
      </trkpt>
      <trkpt lat="45.95513" lon="4.71512">
        <ele>177</ele>
        <time>2016-10-04T08:34:31Z</time>
      </trkpt>
      <trkpt lat="45.95518" lon="4.71512">
        <ele>177</ele>
        <time>2016-10-04T08:34:32Z</time>
      </trkpt>
      <trkpt lat="45.95523" lon="4.71513">
        <ele>177</ele>
        <time>2016-10-04T08:34:33Z</time>
      </trkpt>
      <trkpt lat="45.95528" lon="4.71513">
        <ele>177</ele>
        <time>2016-10-04T08:34:34Z</time>
      </trkpt>
      <trkpt lat="45.95533" lon="4.71513">
        <ele>177</ele>
        <time>2016-10-04T08:34:35Z</time>
      </trkpt>
      <trkpt lat="45.95538" lon="4.71514">
        <ele>177</ele>
        <time>2016-10-04T08:34:36Z</time>
      </trkpt>
      <trkpt lat="45.95543" lon="4.71514">
        <ele>177</ele>
        <time>2016-10-04T08:34:37Z</time>
      </trkpt>
      <trkpt lat="45.95548" lon="4.71514">
        <ele>178</ele>
        <time>2016-10-04T08:34:38Z</time>
      </trkpt>
      <trkpt lat="45.95553" lon="4.71516">
        <ele>178</ele>
        <time>2016-10-04T08:34:39Z</time>
      </trkpt>
      <trkpt lat="45.95558" lon="4.71516">
        <ele>178</ele>
        <time>2016-10-04T08:34:40Z</time>
      </trkpt>
      <trkpt lat="45.95563" lon="4.71516">
        <ele>178</ele>
        <time>2016-10-04T08:34:41Z</time>
      </trkpt>
      <trkpt lat="45.95568" lon="4.71516">
        <ele>178</ele>
        <time>2016-10-04T08:34:42Z</time>
      </trkpt>
      <trkpt lat="45.95573" lon="4.71516">
        <ele>178</ele>
        <time>2016-10-04T08:34:43Z</time>
      </trkpt>
      <trkpt lat="45.95578" lon="4.71516">
        <ele>178</ele>
        <time>2016-10-04T08:34:44Z</time>
      </trkpt>
      <trkpt lat="45.95583" lon="4.71517">
        <ele>179</ele>
        <time>2016-10-04T08:34:45Z</time>
      </trkpt>
      <trkpt lat="45.95588" lon="4.71517">
        <ele>179</ele>
        <time>2016-10-04T08:34:46Z</time>
      </trkpt>
      <trkpt lat="45.95593" lon="4.71517">
        <ele>179</ele>
        <time>2016-10-04T08:34:47Z</time>
      </trkpt>
      <trkpt lat="45.95598" lon="4.71518">
        <ele>179</ele>
        <time>2016-10-04T08:34:48Z</time>
      </trkpt>
      <trkpt lat="45.95604" lon="4.71516">
        <ele>179</ele>
        <time>2016-10-04T08:34:49Z</time>
      </trkpt>
      <trkpt lat="45.9561" lon="4.71517">
        <ele>179</ele>
        <time>2016-10-04T08:34:50Z</time>
      </trkpt>
      <trkpt lat="45.95615" lon="4.71515">
        <ele>179</ele>
        <time>2016-10-04T08:34:51Z</time>
      </trkpt>
      <trkpt lat="45.95621" lon="4.71516">
        <ele>179</ele>
        <time>2016-10-04T08:34:52Z</time>
      </trkpt>
      <trkpt lat="45.95627" lon="4.71517">
        <ele>179</ele>
        <time>2016-10-04T08:34:53Z</time>
      </trkpt>
      <trkpt lat="45.95632" lon="4.71518">
        <ele>179</ele>
        <time>2016-10-04T08:34:54Z</time>
      </trkpt>
      <trkpt lat="45.95637" lon="4.71519">
        <ele>180</ele>
        <time>2016-10-04T08:34:55Z</time>
      </trkpt>
      <trkpt lat="45.95642" lon="4.71519">
        <ele>180</ele>
        <time>2016-10-04T08:34:56Z</time>
      </trkpt>
      <trkpt lat="45.95646" lon="4.7152">
        <ele>180</ele>
        <time>2016-10-04T08:34:57Z</time>
      </trkpt>
      <trkpt lat="45.95651" lon="4.7152">
        <ele>180</ele>
        <time>2016-10-04T08:34:58Z</time>
      </trkpt>
      <trkpt lat="45.95656" lon="4.7152">
        <ele>180</ele>
        <time>2016-10-04T08:34:59Z</time>
      </trkpt>
      <trkpt lat="45.95661" lon="4.71519">
        <ele>180</ele>
        <time>2016-10-04T08:35:00Z</time>
      </trkpt>
      <trkpt lat="45.95666" lon="4.71519">
        <ele>180</ele>
        <time>2016-10-04T08:35:01Z</time>
      </trkpt>
      <trkpt lat="45.95671" lon="4.71519">
        <ele>181</ele>
        <time>2016-10-04T08:35:02Z</time>
      </trkpt>
      <trkpt lat="45.95676" lon="4.71519">
        <ele>180</ele>
        <time>2016-10-04T08:35:03Z</time>
      </trkpt>
      <trkpt lat="45.95681" lon="4.7152">
        <ele>180</ele>
        <time>2016-10-04T08:35:04Z</time>
      </trkpt>
      <trkpt lat="45.95686" lon="4.7152">
        <ele>180</ele>
        <time>2016-10-04T08:35:05Z</time>
      </trkpt>
      <trkpt lat="45.9569" lon="4.71521">
        <ele>180</ele>
        <time>2016-10-04T08:35:06Z</time>
      </trkpt>
      <trkpt lat="45.95695" lon="4.71522">
        <ele>180</ele>
        <time>2016-10-04T08:35:07Z</time>
      </trkpt>
      <trkpt lat="45.957" lon="4.71523">
        <ele>180</ele>
        <time>2016-10-04T08:35:08Z</time>
      </trkpt>
      <trkpt lat="45.95705" lon="4.71523">
        <ele>180</ele>
        <time>2016-10-04T08:35:09Z</time>
      </trkpt>
      <trkpt lat="45.9571" lon="4.71524">
        <ele>180</ele>
        <time>2016-10-04T08:35:10Z</time>
      </trkpt>
      <trkpt lat="45.95715" lon="4.71524">
        <ele>180</ele>
        <time>2016-10-04T08:35:11Z</time>
      </trkpt>
      <trkpt lat="45.95719" lon="4.71524">
        <ele>180</ele>
        <time>2016-10-04T08:35:12Z</time>
      </trkpt>
      <trkpt lat="45.95724" lon="4.71525">
        <ele>180</ele>
        <time>2016-10-04T08:35:13Z</time>
      </trkpt>
      <trkpt lat="45.95729" lon="4.71525">
        <ele>180</ele>
        <time>2016-10-04T08:35:14Z</time>
      </trkpt>
      <trkpt lat="45.95734" lon="4.71525">
        <ele>180</ele>
        <time>2016-10-04T08:35:15Z</time>
      </trkpt>
      <trkpt lat="45.95739" lon="4.71525">
        <ele>180</ele>
        <time>2016-10-04T08:35:16Z</time>
      </trkpt>
      <trkpt lat="45.95743" lon="4.71526">
        <ele>180</ele>
        <time>2016-10-04T08:35:17Z</time>
      </trkpt>
      <trkpt lat="45.95748" lon="4.71526">
        <ele>180</ele>
        <time>2016-10-04T08:35:18Z</time>
      </trkpt>
      <trkpt lat="45.95753" lon="4.71528">
        <ele>181</ele>
        <time>2016-10-04T08:35:19Z</time>
      </trkpt>
      <trkpt lat="45.95758" lon="4.71529">
        <ele>181</ele>
        <time>2016-10-04T08:35:20Z</time>
      </trkpt>
      <trkpt lat="45.95762" lon="4.71529">
        <ele>181</ele>
        <time>2016-10-04T08:35:21Z</time>
      </trkpt>
      <trkpt lat="45.95767" lon="4.71529">
        <ele>181</ele>
        <time>2016-10-04T08:35:22Z</time>
      </trkpt>
      <trkpt lat="45.95772" lon="4.71528">
        <ele>181</ele>
        <time>2016-10-04T08:35:23Z</time>
      </trkpt>
      <trkpt lat="45.95777" lon="4.71529">
        <ele>181</ele>
        <time>2016-10-04T08:35:24Z</time>
      </trkpt>
      <trkpt lat="45.95781" lon="4.7153">
        <ele>181</ele>
        <time>2016-10-04T08:35:25Z</time>
      </trkpt>
      <trkpt lat="45.95786" lon="4.71531">
        <ele>181</ele>
        <time>2016-10-04T08:35:26Z</time>
      </trkpt>
      <trkpt lat="45.95791" lon="4.71531">
        <ele>181</ele>
        <time>2016-10-04T08:35:27Z</time>
      </trkpt>
      <trkpt lat="45.95795" lon="4.71531">
        <ele>181</ele>
        <time>2016-10-04T08:35:28Z</time>
      </trkpt>
      <trkpt lat="45.958" lon="4.71531">
        <ele>181</ele>
        <time>2016-10-04T08:35:29Z</time>
      </trkpt>
      <trkpt lat="45.95805" lon="4.71531">
        <ele>181</ele>
        <time>2016-10-04T08:35:30Z</time>
      </trkpt>
      <trkpt lat="45.95809" lon="4.71532">
        <ele>181</ele>
        <time>2016-10-04T08:35:31Z</time>
      </trkpt>
      <trkpt lat="45.95814" lon="4.71532">
        <ele>181</ele>
        <time>2016-10-04T08:35:32Z</time>
      </trkpt>
      <trkpt lat="45.95819" lon="4.71531">
        <ele>181</ele>
        <time>2016-10-04T08:35:33Z</time>
      </trkpt>
      <trkpt lat="45.95823" lon="4.71533">
        <ele>181</ele>
        <time>2016-10-04T08:35:34Z</time>
      </trkpt>
      <trkpt lat="45.95828" lon="4.71533">
        <ele>181</ele>
        <time>2016-10-04T08:35:35Z</time>
      </trkpt>
      <trkpt lat="45.95833" lon="4.71533">
        <ele>181</ele>
        <time>2016-10-04T08:35:36Z</time>
      </trkpt>
      <trkpt lat="45.95837" lon="4.71534">
        <ele>182</ele>
        <time>2016-10-04T08:35:37Z</time>
      </trkpt>
      <trkpt lat="45.95842" lon="4.71535">
        <ele>182</ele>
        <time>2016-10-04T08:35:38Z</time>
      </trkpt>
      <trkpt lat="45.95846" lon="4.71535">
        <ele>182</ele>
        <time>2016-10-04T08:35:39Z</time>
      </trkpt>
      <trkpt lat="45.95851" lon="4.71536">
        <ele>181</ele>
        <time>2016-10-04T08:35:40Z</time>
      </trkpt>
      <trkpt lat="45.95856" lon="4.71536">
        <ele>181</ele>
        <time>2016-10-04T08:35:41Z</time>
      </trkpt>
      <trkpt lat="45.95861" lon="4.71537">
        <ele>181</ele>
        <time>2016-10-04T08:35:42Z</time>
      </trkpt>
      <trkpt lat="45.95866" lon="4.71537">
        <ele>181</ele>
        <time>2016-10-04T08:35:43Z</time>
      </trkpt>
      <trkpt lat="45.95871" lon="4.71538">
        <ele>181</ele>
        <time>2016-10-04T08:35:44Z</time>
      </trkpt>
      <trkpt lat="45.95876" lon="4.71538">
        <ele>181</ele>
        <time>2016-10-04T08:35:45Z</time>
      </trkpt>
      <trkpt lat="45.95881" lon="4.71539">
        <ele>181</ele>
        <time>2016-10-04T08:35:46Z</time>
      </trkpt>
      <trkpt lat="45.95886" lon="4.71539">
        <ele>181</ele>
        <time>2016-10-04T08:35:47Z</time>
      </trkpt>
      <trkpt lat="45.95891" lon="4.71538">
        <ele>181</ele>
        <time>2016-10-04T08:35:48Z</time>
      </trkpt>
      <trkpt lat="45.95896" lon="4.7154">
        <ele>181</ele>
        <time>2016-10-04T08:35:49Z</time>
      </trkpt>
      <trkpt lat="45.95901" lon="4.7154">
        <ele>181</ele>
        <time>2016-10-04T08:35:50Z</time>
      </trkpt>
      <trkpt lat="45.95906" lon="4.7154">
        <ele>181</ele>
        <time>2016-10-04T08:35:51Z</time>
      </trkpt>
      <trkpt lat="45.9591" lon="4.7154">
        <ele>181</ele>
        <time>2016-10-04T08:35:52Z</time>
      </trkpt>
      <trkpt lat="45.95915" lon="4.71541">
        <ele>181</ele>
        <time>2016-10-04T08:35:53Z</time>
      </trkpt>
      <trkpt lat="45.9592" lon="4.71541">
        <ele>183</ele>
        <time>2016-10-04T08:35:54Z</time>
      </trkpt>
      <trkpt lat="45.95924" lon="4.71541">
        <ele>183</ele>
        <time>2016-10-04T08:35:55Z</time>
      </trkpt>
      <trkpt lat="45.95929" lon="4.71541">
        <ele>183</ele>
        <time>2016-10-04T08:35:56Z</time>
      </trkpt>
      <trkpt lat="45.95933" lon="4.71541">
        <ele>183</ele>
        <time>2016-10-04T08:35:57Z</time>
      </trkpt>
      <trkpt lat="45.95938" lon="4.71541">
        <ele>183</ele>
        <time>2016-10-04T08:35:58Z</time>
      </trkpt>
      <trkpt lat="45.95943" lon="4.71541">
        <ele>183</ele>
        <time>2016-10-04T08:35:59Z</time>
      </trkpt>
      <trkpt lat="45.95947" lon="4.7154">
        <ele>183</ele>
        <time>2016-10-04T08:36:00Z</time>
      </trkpt>
      <trkpt lat="45.95952" lon="4.7154">
        <ele>183</ele>
        <time>2016-10-04T08:36:01Z</time>
      </trkpt>
      <trkpt lat="45.95957" lon="4.71541">
        <ele>183</ele>
        <time>2016-10-04T08:36:02Z</time>
      </trkpt>
      <trkpt lat="45.95962" lon="4.71542">
        <ele>183</ele>
        <time>2016-10-04T08:36:03Z</time>
      </trkpt>
      <trkpt lat="45.95966" lon="4.71544">
        <ele>183</ele>
        <time>2016-10-04T08:36:04Z</time>
      </trkpt>
      <trkpt lat="45.95971" lon="4.71548">
        <ele>183</ele>
        <time>2016-10-04T08:36:05Z</time>
      </trkpt>
      <trkpt lat="45.95976" lon="4.7155">
        <ele>183</ele>
        <time>2016-10-04T08:36:06Z</time>
      </trkpt>
      <trkpt lat="45.95981" lon="4.71552">
        <ele>183</ele>
        <time>2016-10-04T08:36:07Z</time>
      </trkpt>
      <trkpt lat="45.95985" lon="4.71552">
        <ele>183</ele>
        <time>2016-10-04T08:36:08Z</time>
      </trkpt>
      <trkpt lat="45.9599" lon="4.71551">
        <ele>183</ele>
        <time>2016-10-04T08:36:09Z</time>
      </trkpt>
      <trkpt lat="45.95994" lon="4.71549">
        <ele>183</ele>
        <time>2016-10-04T08:36:10Z</time>
      </trkpt>
      <trkpt lat="45.95999" lon="4.71547">
        <ele>184</ele>
        <time>2016-10-04T08:36:11Z</time>
      </trkpt>
      <trkpt lat="45.96004" lon="4.71546">
        <ele>185</ele>
        <time>2016-10-04T08:36:12Z</time>
      </trkpt>
      <trkpt lat="45.96009" lon="4.71545">
        <ele>185</ele>
        <time>2016-10-04T08:36:13Z</time>
      </trkpt>
      <trkpt lat="45.96014" lon="4.71544">
        <ele>185</ele>
        <time>2016-10-04T08:36:14Z</time>
      </trkpt>
      <trkpt lat="45.96019" lon="4.71545">
        <ele>185</ele>
        <time>2016-10-04T08:36:15Z</time>
      </trkpt>
      <trkpt lat="45.96024" lon="4.71545">
        <ele>185</ele>
        <time>2016-10-04T08:36:16Z</time>
      </trkpt>
      <trkpt lat="45.96029" lon="4.71546">
        <ele>185</ele>
        <time>2016-10-04T08:36:17Z</time>
      </trkpt>
      <trkpt lat="45.96034" lon="4.71547">
        <ele>185</ele>
        <time>2016-10-04T08:36:18Z</time>
      </trkpt>
      <trkpt lat="45.96038" lon="4.71547">
        <ele>185</ele>
        <time>2016-10-04T08:36:19Z</time>
      </trkpt>
      <trkpt lat="45.96043" lon="4.71549">
        <ele>185</ele>
        <time>2016-10-04T08:36:20Z</time>
      </trkpt>
      <trkpt lat="45.96048" lon="4.71551">
        <ele>185</ele>
        <time>2016-10-04T08:36:21Z</time>
      </trkpt>
      <trkpt lat="45.96054" lon="4.71552">
        <ele>185</ele>
        <time>2016-10-04T08:36:22Z</time>
      </trkpt>
      <trkpt lat="45.96059" lon="4.71553">
        <ele>185</ele>
        <time>2016-10-04T08:36:23Z</time>
      </trkpt>
      <trkpt lat="45.96065" lon="4.71556">
        <ele>185</ele>
        <time>2016-10-04T08:36:24Z</time>
      </trkpt>
      <trkpt lat="45.96071" lon="4.71558">
        <ele>185</ele>
        <time>2016-10-04T08:36:25Z</time>
      </trkpt>
      <trkpt lat="45.96076" lon="4.71559">
        <ele>185</ele>
        <time>2016-10-04T08:36:26Z</time>
      </trkpt>
      <trkpt lat="45.96082" lon="4.71559">
        <ele>185</ele>
        <time>2016-10-04T08:36:27Z</time>
      </trkpt>
      <trkpt lat="45.96088" lon="4.71561">
        <ele>184</ele>
        <time>2016-10-04T08:36:28Z</time>
      </trkpt>
      <trkpt lat="45.96093" lon="4.71561">
        <ele>184</ele>
        <time>2016-10-04T08:36:29Z</time>
      </trkpt>
      <trkpt lat="45.96099" lon="4.71562">
        <ele>184</ele>
        <time>2016-10-04T08:36:30Z</time>
      </trkpt>
      <trkpt lat="45.96105" lon="4.71563">
        <ele>184</ele>
        <time>2016-10-04T08:36:31Z</time>
      </trkpt>
      <trkpt lat="45.96111" lon="4.71564">
        <ele>184</ele>
        <time>2016-10-04T08:36:32Z</time>
      </trkpt>
      <trkpt lat="45.96116" lon="4.71565">
        <ele>184</ele>
        <time>2016-10-04T08:36:33Z</time>
      </trkpt>
      <trkpt lat="45.96123" lon="4.71566">
        <ele>184</ele>
        <time>2016-10-04T08:36:34Z</time>
      </trkpt>
      <trkpt lat="45.96128" lon="4.71568">
        <ele>184</ele>
        <time>2016-10-04T08:36:35Z</time>
      </trkpt>
      <trkpt lat="45.96134" lon="4.71569">
        <ele>184</ele>
        <time>2016-10-04T08:36:36Z</time>
      </trkpt>
      <trkpt lat="45.9614" lon="4.71569">
        <ele>183</ele>
        <time>2016-10-04T08:36:37Z</time>
      </trkpt>
      <trkpt lat="45.96147" lon="4.7157">
        <ele>183</ele>
        <time>2016-10-04T08:36:38Z</time>
      </trkpt>
      <trkpt lat="45.96153" lon="4.71571">
        <ele>183</ele>
        <time>2016-10-04T08:36:39Z</time>
      </trkpt>
      <trkpt lat="45.96159" lon="4.71572">
        <ele>182</ele>
        <time>2016-10-04T08:36:40Z</time>
      </trkpt>
      <trkpt lat="45.96165" lon="4.71572">
        <ele>182</ele>
        <time>2016-10-04T08:36:41Z</time>
      </trkpt>
      <trkpt lat="45.96171" lon="4.71573">
        <ele>182</ele>
        <time>2016-10-04T08:36:42Z</time>
      </trkpt>
      <trkpt lat="45.96178" lon="4.71574">
        <ele>182</ele>
        <time>2016-10-04T08:36:43Z</time>
      </trkpt>
      <trkpt lat="45.96184" lon="4.71575">
        <ele>182</ele>
        <time>2016-10-04T08:36:44Z</time>
      </trkpt>
      <trkpt lat="45.9619" lon="4.71576">
        <ele>182</ele>
        <time>2016-10-04T08:36:45Z</time>
      </trkpt>
      <trkpt lat="45.96196" lon="4.71577">
        <ele>183</ele>
        <time>2016-10-04T08:36:46Z</time>
      </trkpt>
      <trkpt lat="45.96202" lon="4.71578">
        <ele>183</ele>
        <time>2016-10-04T08:36:47Z</time>
      </trkpt>
      <trkpt lat="45.96209" lon="4.71579">
        <ele>183</ele>
        <time>2016-10-04T08:36:48Z</time>
      </trkpt>
      <trkpt lat="45.96214" lon="4.7158">
        <ele>183</ele>
        <time>2016-10-04T08:36:49Z</time>
      </trkpt>
      <trkpt lat="45.9622" lon="4.71582">
        <ele>183</ele>
        <time>2016-10-04T08:36:50Z</time>
      </trkpt>
      <trkpt lat="45.96226" lon="4.71583">
        <ele>183</ele>
        <time>2016-10-04T08:36:51Z</time>
      </trkpt>
      <trkpt lat="45.96232" lon="4.71583">
        <ele>182</ele>
        <time>2016-10-04T08:36:52Z</time>
      </trkpt>
      <trkpt lat="45.96238" lon="4.71584">
        <ele>180</ele>
        <time>2016-10-04T08:36:53Z</time>
      </trkpt>
      <trkpt lat="45.96244" lon="4.71585">
        <ele>180</ele>
        <time>2016-10-04T08:36:54Z</time>
      </trkpt>
      <trkpt lat="45.96251" lon="4.71585">
        <ele>181</ele>
        <time>2016-10-04T08:36:55Z</time>
      </trkpt>
      <trkpt lat="45.96256" lon="4.71584">
        <ele>181</ele>
        <time>2016-10-04T08:36:56Z</time>
      </trkpt>
      <trkpt lat="45.96262" lon="4.71585">
        <ele>181</ele>
        <time>2016-10-04T08:36:57Z</time>
      </trkpt>
      <trkpt lat="45.96268" lon="4.71586">
        <ele>180</ele>
        <time>2016-10-04T08:36:58Z</time>
      </trkpt>
      <trkpt lat="45.96275" lon="4.71586">
        <ele>180</ele>
        <time>2016-10-04T08:36:59Z</time>
      </trkpt>
      <trkpt lat="45.96281" lon="4.71587">
        <ele>180</ele>
        <time>2016-10-04T08:37:00Z</time>
      </trkpt>
      <trkpt lat="45.96287" lon="4.71588">
        <ele>180</ele>
        <time>2016-10-04T08:37:01Z</time>
      </trkpt>
      <trkpt lat="45.96292" lon="4.71588">
        <ele>181</ele>
        <time>2016-10-04T08:37:02Z</time>
      </trkpt>
      <trkpt lat="45.96298" lon="4.71589">
        <ele>181</ele>
        <time>2016-10-04T08:37:03Z</time>
      </trkpt>
      <trkpt lat="45.96304" lon="4.7159">
        <ele>181</ele>
        <time>2016-10-04T08:37:04Z</time>
      </trkpt>
      <trkpt lat="45.9631" lon="4.71592">
        <ele>181</ele>
        <time>2016-10-04T08:37:05Z</time>
      </trkpt>
      <trkpt lat="45.96316" lon="4.71594">
        <ele>181</ele>
        <time>2016-10-04T08:37:06Z</time>
      </trkpt>
      <trkpt lat="45.96321" lon="4.71594">
        <ele>181</ele>
        <time>2016-10-04T08:37:07Z</time>
      </trkpt>
      <trkpt lat="45.96327" lon="4.71595">
        <ele>182</ele>
        <time>2016-10-04T08:37:08Z</time>
      </trkpt>
      <trkpt lat="45.96332" lon="4.71596">
        <ele>182</ele>
        <time>2016-10-04T08:37:09Z</time>
      </trkpt>
      <trkpt lat="45.96338" lon="4.71598">
        <ele>182</ele>
        <time>2016-10-04T08:37:10Z</time>
      </trkpt>
      <trkpt lat="45.96344" lon="4.71598">
        <ele>182</ele>
        <time>2016-10-04T08:37:11Z</time>
      </trkpt>
      <trkpt lat="45.96349" lon="4.716">
        <ele>182</ele>
        <time>2016-10-04T08:37:12Z</time>
      </trkpt>
      <trkpt lat="45.96355" lon="4.71601">
        <ele>182</ele>
        <time>2016-10-04T08:37:13Z</time>
      </trkpt>
      <trkpt lat="45.96361" lon="4.71601">
        <ele>182</ele>
        <time>2016-10-04T08:37:14Z</time>
      </trkpt>
      <trkpt lat="45.96366" lon="4.71602">
        <ele>182</ele>
        <time>2016-10-04T08:37:15Z</time>
      </trkpt>
      <trkpt lat="45.96372" lon="4.71603">
        <ele>182</ele>
        <time>2016-10-04T08:37:16Z</time>
      </trkpt>
      <trkpt lat="45.96378" lon="4.71604">
        <ele>182</ele>
        <time>2016-10-04T08:37:17Z</time>
      </trkpt>
      <trkpt lat="45.96383" lon="4.71605">
        <ele>182</ele>
        <time>2016-10-04T08:37:18Z</time>
      </trkpt>
      <trkpt lat="45.96389" lon="4.71606">
        <ele>182</ele>
        <time>2016-10-04T08:37:19Z</time>
      </trkpt>
      <trkpt lat="45.96395" lon="4.71606">
        <ele>182</ele>
        <time>2016-10-04T08:37:20Z</time>
      </trkpt>
      <trkpt lat="45.964" lon="4.71608">
        <ele>182</ele>
        <time>2016-10-04T08:37:21Z</time>
      </trkpt>
      <trkpt lat="45.96406" lon="4.71609">
        <ele>183</ele>
        <time>2016-10-04T08:37:22Z</time>
      </trkpt>
      <trkpt lat="45.96412" lon="4.71611">
        <ele>183</ele>
        <time>2016-10-04T08:37:23Z</time>
      </trkpt>
      <trkpt lat="45.96418" lon="4.71612">
        <ele>183</ele>
        <time>2016-10-04T08:37:24Z</time>
      </trkpt>
      <trkpt lat="45.96424" lon="4.71612">
        <ele>183</ele>
        <time>2016-10-04T08:37:25Z</time>
      </trkpt>
      <trkpt lat="45.96429" lon="4.71611">
        <ele>183</ele>
        <time>2016-10-04T08:37:26Z</time>
      </trkpt>
      <trkpt lat="45.96435" lon="4.7161">
        <ele>183</ele>
        <time>2016-10-04T08:37:27Z</time>
      </trkpt>
      <trkpt lat="45.96441" lon="4.71611">
        <ele>183</ele>
        <time>2016-10-04T08:37:28Z</time>
      </trkpt>
      <trkpt lat="45.96446" lon="4.71611">
        <ele>183</ele>
        <time>2016-10-04T08:37:29Z</time>
      </trkpt>
      <trkpt lat="45.96451" lon="4.71612">
        <ele>183</ele>
        <time>2016-10-04T08:37:30Z</time>
      </trkpt>
      <trkpt lat="45.96456" lon="4.71612">
        <ele>183</ele>
        <time>2016-10-04T08:37:31Z</time>
      </trkpt>
      <trkpt lat="45.96461" lon="4.71613">
        <ele>183</ele>
        <time>2016-10-04T08:37:32Z</time>
      </trkpt>
      <trkpt lat="45.96466" lon="4.71614">
        <ele>183</ele>
        <time>2016-10-04T08:37:33Z</time>
      </trkpt>
      <trkpt lat="45.96471" lon="4.71616">
        <ele>183</ele>
        <time>2016-10-04T08:37:34Z</time>
      </trkpt>
      <trkpt lat="45.96477" lon="4.71616">
        <ele>183</ele>
        <time>2016-10-04T08:37:35Z</time>
      </trkpt>
      <trkpt lat="45.96481" lon="4.71619">
        <ele>183</ele>
        <time>2016-10-04T08:37:36Z</time>
      </trkpt>
      <trkpt lat="45.96487" lon="4.7162">
        <ele>183</ele>
        <time>2016-10-04T08:37:37Z</time>
      </trkpt>
      <trkpt lat="45.96493" lon="4.7162">
        <ele>183</ele>
        <time>2016-10-04T08:37:38Z</time>
      </trkpt>
      <trkpt lat="45.96498" lon="4.71621">
        <ele>183</ele>
        <time>2016-10-04T08:37:39Z</time>
      </trkpt>
      <trkpt lat="45.96503" lon="4.71622">
        <ele>184</ele>
        <time>2016-10-04T08:37:40Z</time>
      </trkpt>
      <trkpt lat="45.96508" lon="4.71624">
        <ele>184</ele>
        <time>2016-10-04T08:37:41Z</time>
      </trkpt>
      <trkpt lat="45.96512" lon="4.71628">
        <ele>184</ele>
        <time>2016-10-04T08:37:42Z</time>
      </trkpt>
      <trkpt lat="45.96515" lon="4.71633">
        <ele>183</ele>
        <time>2016-10-04T08:37:43Z</time>
      </trkpt>
      <trkpt lat="45.96518" lon="4.71638">
        <ele>183</ele>
        <time>2016-10-04T08:37:44Z</time>
      </trkpt>
      <trkpt lat="45.96522" lon="4.71642">
        <ele>183</ele>
        <time>2016-10-04T08:37:45Z</time>
      </trkpt>
      <trkpt lat="45.96527" lon="4.71644">
        <ele>183</ele>
        <time>2016-10-04T08:37:46Z</time>
      </trkpt>
      <trkpt lat="45.96532" lon="4.71645">
        <ele>183</ele>
        <time>2016-10-04T08:37:47Z</time>
      </trkpt>
      <trkpt lat="45.96536" lon="4.71645">
        <ele>184</ele>
        <time>2016-10-04T08:37:48Z</time>
      </trkpt>
      <trkpt lat="45.96541" lon="4.71642">
        <ele>184</ele>
        <time>2016-10-04T08:37:49Z</time>
      </trkpt>
      <trkpt lat="45.96546" lon="4.71639">
        <ele>184</ele>
        <time>2016-10-04T08:37:50Z</time>
      </trkpt>
      <trkpt lat="45.9655" lon="4.71638">
        <ele>184</ele>
        <time>2016-10-04T08:37:51Z</time>
      </trkpt>
      <trkpt lat="45.96555" lon="4.71636">
        <ele>184</ele>
        <time>2016-10-04T08:37:52Z</time>
      </trkpt>
      <trkpt lat="45.96561" lon="4.71635">
        <ele>184</ele>
        <time>2016-10-04T08:37:53Z</time>
      </trkpt>
      <trkpt lat="45.96566" lon="4.71636">
        <ele>184</ele>
        <time>2016-10-04T08:37:54Z</time>
      </trkpt>
      <trkpt lat="45.96571" lon="4.71637">
        <ele>184</ele>
        <time>2016-10-04T08:37:55Z</time>
      </trkpt>
      <trkpt lat="45.96577" lon="4.71638">
        <ele>184</ele>
        <time>2016-10-04T08:37:56Z</time>
      </trkpt>
      <trkpt lat="45.96582" lon="4.71639">
        <ele>184</ele>
        <time>2016-10-04T08:37:57Z</time>
      </trkpt>
      <trkpt lat="45.96588" lon="4.7164">
        <ele>186</ele>
        <time>2016-10-04T08:37:58Z</time>
      </trkpt>
      <trkpt lat="45.96593" lon="4.7164">
        <ele>186</ele>
        <time>2016-10-04T08:37:59Z</time>
      </trkpt>
      <trkpt lat="45.96598" lon="4.7164">
        <ele>186</ele>
        <time>2016-10-04T08:38:00Z</time>
      </trkpt>
      <trkpt lat="45.96603" lon="4.71641">
        <ele>187</ele>
        <time>2016-10-04T08:38:01Z</time>
      </trkpt>
      <trkpt lat="45.96608" lon="4.71641">
        <ele>187</ele>
        <time>2016-10-04T08:38:02Z</time>
      </trkpt>
      <trkpt lat="45.96612" lon="4.71641">
        <ele>187</ele>
        <time>2016-10-04T08:38:03Z</time>
      </trkpt>
      <trkpt lat="45.96617" lon="4.71642">
        <ele>187</ele>
        <time>2016-10-04T08:38:04Z</time>
      </trkpt>
      <trkpt lat="45.96622" lon="4.71642">
        <ele>187</ele>
        <time>2016-10-04T08:38:05Z</time>
      </trkpt>
      <trkpt lat="45.96627" lon="4.71644">
        <ele>187</ele>
        <time>2016-10-04T08:38:06Z</time>
      </trkpt>
      <trkpt lat="45.96632" lon="4.71645">
        <ele>187</ele>
        <time>2016-10-04T08:38:07Z</time>
      </trkpt>
      <trkpt lat="45.96637" lon="4.71645">
        <ele>187</ele>
        <time>2016-10-04T08:38:08Z</time>
      </trkpt>
      <trkpt lat="45.96642" lon="4.71645">
        <ele>187</ele>
        <time>2016-10-04T08:38:09Z</time>
      </trkpt>
      <trkpt lat="45.96647" lon="4.71646">
        <ele>188</ele>
        <time>2016-10-04T08:38:10Z</time>
      </trkpt>
      <trkpt lat="45.96652" lon="4.71646">
        <ele>188</ele>
        <time>2016-10-04T08:38:11Z</time>
      </trkpt>
      <trkpt lat="45.96657" lon="4.71647">
        <ele>188</ele>
        <time>2016-10-04T08:38:12Z</time>
      </trkpt>
      <trkpt lat="45.96662" lon="4.71648">
        <ele>188</ele>
        <time>2016-10-04T08:38:13Z</time>
      </trkpt>
      <trkpt lat="45.96667" lon="4.71648">
        <ele>189</ele>
        <time>2016-10-04T08:38:14Z</time>
      </trkpt>
      <trkpt lat="45.96672" lon="4.71649">
        <ele>189</ele>
        <time>2016-10-04T08:38:15Z</time>
      </trkpt>
      <trkpt lat="45.96678" lon="4.71649">
        <ele>189</ele>
        <time>2016-10-04T08:38:16Z</time>
      </trkpt>
      <trkpt lat="45.96683" lon="4.7165">
        <ele>189</ele>
        <time>2016-10-04T08:38:17Z</time>
      </trkpt>
      <trkpt lat="45.96688" lon="4.7165">
        <ele>189</ele>
        <time>2016-10-04T08:38:18Z</time>
      </trkpt>
      <trkpt lat="45.96692" lon="4.71651">
        <ele>189</ele>
        <time>2016-10-04T08:38:19Z</time>
      </trkpt>
      <trkpt lat="45.96697" lon="4.71651">
        <ele>190</ele>
        <time>2016-10-04T08:38:20Z</time>
      </trkpt>
      <trkpt lat="45.96702" lon="4.71652">
        <ele>190</ele>
        <time>2016-10-04T08:38:21Z</time>
      </trkpt>
      <trkpt lat="45.96707" lon="4.71654">
        <ele>190</ele>
        <time>2016-10-04T08:38:22Z</time>
      </trkpt>
      <trkpt lat="45.96711" lon="4.71654">
        <ele>190</ele>
        <time>2016-10-04T08:38:23Z</time>
      </trkpt>
      <trkpt lat="45.96716" lon="4.71655">
        <ele>190</ele>
        <time>2016-10-04T08:38:24Z</time>
      </trkpt>
      <trkpt lat="45.96721" lon="4.71656">
        <ele>190</ele>
        <time>2016-10-04T08:38:25Z</time>
      </trkpt>
      <trkpt lat="45.96726" lon="4.71657">
        <ele>190</ele>
        <time>2016-10-04T08:38:26Z</time>
      </trkpt>
      <trkpt lat="45.96732" lon="4.71658">
        <ele>190</ele>
        <time>2016-10-04T08:38:27Z</time>
      </trkpt>
      <trkpt lat="45.96737" lon="4.71659">
        <ele>190</ele>
        <time>2016-10-04T08:38:28Z</time>
      </trkpt>
      <trkpt lat="45.96743" lon="4.7166">
        <ele>189</ele>
        <time>2016-10-04T08:38:29Z</time>
      </trkpt>
      <trkpt lat="45.96748" lon="4.71661">
        <ele>189</ele>
        <time>2016-10-04T08:38:30Z</time>
      </trkpt>
      <trkpt lat="45.96754" lon="4.71661">
        <ele>190</ele>
        <time>2016-10-04T08:38:31Z</time>
      </trkpt>
      <trkpt lat="45.96759" lon="4.71662">
        <ele>190</ele>
        <time>2016-10-04T08:38:32Z</time>
      </trkpt>
      <trkpt lat="45.96764" lon="4.71662">
        <ele>191</ele>
        <time>2016-10-04T08:38:33Z</time>
      </trkpt>
      <trkpt lat="45.96769" lon="4.71662">
        <ele>191</ele>
        <time>2016-10-04T08:38:34Z</time>
      </trkpt>
      <trkpt lat="45.96773" lon="4.71663">
        <ele>191</ele>
        <time>2016-10-04T08:38:35Z</time>
      </trkpt>
      <trkpt lat="45.96778" lon="4.71664">
        <ele>192</ele>
        <time>2016-10-04T08:38:36Z</time>
      </trkpt>
      <trkpt lat="45.96783" lon="4.71666">
        <ele>192</ele>
        <time>2016-10-04T08:38:37Z</time>
      </trkpt>
      <trkpt lat="45.96788" lon="4.71666">
        <ele>192</ele>
        <time>2016-10-04T08:38:38Z</time>
      </trkpt>
      <trkpt lat="45.96793" lon="4.71666">
        <ele>192</ele>
        <time>2016-10-04T08:38:39Z</time>
      </trkpt>
      <trkpt lat="45.96797" lon="4.71667">
        <ele>188</ele>
        <time>2016-10-04T08:38:40Z</time>
      </trkpt>
      <trkpt lat="45.96802" lon="4.71668">
        <ele>189</ele>
        <time>2016-10-04T08:38:41Z</time>
      </trkpt>
      <trkpt lat="45.96807" lon="4.71669">
        <ele>189</ele>
        <time>2016-10-04T08:38:42Z</time>
      </trkpt>
      <trkpt lat="45.96812" lon="4.7167">
        <ele>189</ele>
        <time>2016-10-04T08:38:43Z</time>
      </trkpt>
      <trkpt lat="45.96817" lon="4.7167">
        <ele>189</ele>
        <time>2016-10-04T08:38:44Z</time>
      </trkpt>
      <trkpt lat="45.96821" lon="4.71671">
        <ele>190</ele>
        <time>2016-10-04T08:38:45Z</time>
      </trkpt>
      <trkpt lat="45.96826" lon="4.71672">
        <ele>190</ele>
        <time>2016-10-04T08:38:46Z</time>
      </trkpt>
      <trkpt lat="45.96831" lon="4.71673">
        <ele>191</ele>
        <time>2016-10-04T08:38:47Z</time>
      </trkpt>
      <trkpt lat="45.96836" lon="4.71674">
        <ele>191</ele>
        <time>2016-10-04T08:38:48Z</time>
      </trkpt>
      <trkpt lat="45.96841" lon="4.71675">
        <ele>191</ele>
        <time>2016-10-04T08:38:49Z</time>
      </trkpt>
      <trkpt lat="45.96845" lon="4.71675">
        <ele>191</ele>
        <time>2016-10-04T08:38:50Z</time>
      </trkpt>
      <trkpt lat="45.96851" lon="4.71675">
        <ele>190</ele>
        <time>2016-10-04T08:38:51Z</time>
      </trkpt>
      <trkpt lat="45.96855" lon="4.71676">
        <ele>190</ele>
        <time>2016-10-04T08:38:52Z</time>
      </trkpt>
      <trkpt lat="45.9686" lon="4.71677">
        <ele>190</ele>
        <time>2016-10-04T08:38:53Z</time>
      </trkpt>
      <trkpt lat="45.96865" lon="4.71677">
        <ele>190</ele>
        <time>2016-10-04T08:38:54Z</time>
      </trkpt>
      <trkpt lat="45.9687" lon="4.71678">
        <ele>190</ele>
        <time>2016-10-04T08:38:55Z</time>
      </trkpt>
      <trkpt lat="45.96875" lon="4.71679">
        <ele>190</ele>
        <time>2016-10-04T08:38:56Z</time>
      </trkpt>
      <trkpt lat="45.9688" lon="4.71679">
        <ele>190</ele>
        <time>2016-10-04T08:38:57Z</time>
      </trkpt>
      <trkpt lat="45.96885" lon="4.7168">
        <ele>190</ele>
        <time>2016-10-04T08:38:58Z</time>
      </trkpt>
      <trkpt lat="45.9689" lon="4.71681">
        <ele>191</ele>
        <time>2016-10-04T08:38:59Z</time>
      </trkpt>
      <trkpt lat="45.96895" lon="4.71682">
        <ele>191</ele>
        <time>2016-10-04T08:39:00Z</time>
      </trkpt>
      <trkpt lat="45.969" lon="4.71682">
        <ele>191</ele>
        <time>2016-10-04T08:39:01Z</time>
      </trkpt>
      <trkpt lat="45.96905" lon="4.71683">
        <ele>191</ele>
        <time>2016-10-04T08:39:02Z</time>
      </trkpt>
      <trkpt lat="45.9691" lon="4.71683">
        <ele>192</ele>
        <time>2016-10-04T08:39:03Z</time>
      </trkpt>
      <trkpt lat="45.96915" lon="4.71684">
        <ele>192</ele>
        <time>2016-10-04T08:39:04Z</time>
      </trkpt>
      <trkpt lat="45.9692" lon="4.71684">
        <ele>192</ele>
        <time>2016-10-04T08:39:05Z</time>
      </trkpt>
      <trkpt lat="45.96926" lon="4.71683">
        <ele>192</ele>
        <time>2016-10-04T08:39:06Z</time>
      </trkpt>
      <trkpt lat="45.96931" lon="4.71685">
        <ele>192</ele>
        <time>2016-10-04T08:39:07Z</time>
      </trkpt>
      <trkpt lat="45.96936" lon="4.71686">
        <ele>192</ele>
        <time>2016-10-04T08:39:08Z</time>
      </trkpt>
      <trkpt lat="45.96941" lon="4.71686">
        <ele>192</ele>
        <time>2016-10-04T08:39:09Z</time>
      </trkpt>
      <trkpt lat="45.96947" lon="4.71686">
        <ele>192</ele>
        <time>2016-10-04T08:39:10Z</time>
      </trkpt>
      <trkpt lat="45.96952" lon="4.71686">
        <ele>192</ele>
        <time>2016-10-04T08:39:11Z</time>
      </trkpt>
      <trkpt lat="45.96956" lon="4.71686">
        <ele>192</ele>
        <time>2016-10-04T08:39:12Z</time>
      </trkpt>
      <trkpt lat="45.96961" lon="4.71686">
        <ele>192</ele>
        <time>2016-10-04T08:39:13Z</time>
      </trkpt>
      <trkpt lat="45.96967" lon="4.71687">
        <ele>192</ele>
        <time>2016-10-04T08:39:14Z</time>
      </trkpt>
      <trkpt lat="45.96972" lon="4.71687">
        <ele>192</ele>
        <time>2016-10-04T08:39:15Z</time>
      </trkpt>
      <trkpt lat="45.96977" lon="4.71688">
        <ele>192</ele>
        <time>2016-10-04T08:39:16Z</time>
      </trkpt>
      <trkpt lat="45.96982" lon="4.71689">
        <ele>192</ele>
        <time>2016-10-04T08:39:17Z</time>
      </trkpt>
      <trkpt lat="45.96988" lon="4.71689">
        <ele>192</ele>
        <time>2016-10-04T08:39:18Z</time>
      </trkpt>
      <trkpt lat="45.96993" lon="4.7169">
        <ele>192</ele>
        <time>2016-10-04T08:39:19Z</time>
      </trkpt>
      <trkpt lat="45.96998" lon="4.7169">
        <ele>192</ele>
        <time>2016-10-04T08:39:20Z</time>
      </trkpt>
      <trkpt lat="45.97003" lon="4.71691">
        <ele>193</ele>
        <time>2016-10-04T08:39:21Z</time>
      </trkpt>
      <trkpt lat="45.97011" lon="4.71695">
        <ele>192</ele>
        <time>2016-10-04T08:39:23Z</time>
      </trkpt>
      <trkpt lat="45.97016" lon="4.71697">
        <ele>192</ele>
        <time>2016-10-04T08:39:24Z</time>
      </trkpt>
      <trkpt lat="45.97021" lon="4.71697">
        <ele>192</ele>
        <time>2016-10-04T08:39:25Z</time>
      </trkpt>
      <trkpt lat="45.97027" lon="4.71698">
        <ele>192</ele>
        <time>2016-10-04T08:39:26Z</time>
      </trkpt>
      <trkpt lat="45.97032" lon="4.71698">
        <ele>192</ele>
        <time>2016-10-04T08:39:27Z</time>
      </trkpt>
      <trkpt lat="45.97037" lon="4.71697">
        <ele>192</ele>
        <time>2016-10-04T08:39:28Z</time>
      </trkpt>
      <trkpt lat="45.97042" lon="4.71697">
        <ele>192</ele>
        <time>2016-10-04T08:39:29Z</time>
      </trkpt>
      <trkpt lat="45.97047" lon="4.71696">
        <ele>192</ele>
        <time>2016-10-04T08:39:30Z</time>
      </trkpt>
      <trkpt lat="45.97052" lon="4.71695">
        <ele>192</ele>
        <time>2016-10-04T08:39:31Z</time>
      </trkpt>
      <trkpt lat="45.97057" lon="4.71699">
        <ele>192</ele>
        <time>2016-10-04T08:39:32Z</time>
      </trkpt>
      <trkpt lat="45.97062" lon="4.717">
        <ele>192</ele>
        <time>2016-10-04T08:39:33Z</time>
      </trkpt>
      <trkpt lat="45.97067" lon="4.71701">
        <ele>192</ele>
        <time>2016-10-04T08:39:34Z</time>
      </trkpt>
      <trkpt lat="45.97072" lon="4.71701">
        <ele>192</ele>
        <time>2016-10-04T08:39:35Z</time>
      </trkpt>
      <trkpt lat="45.97077" lon="4.71701">
        <ele>193</ele>
        <time>2016-10-04T08:39:36Z</time>
      </trkpt>
      <trkpt lat="45.97081" lon="4.71701">
        <ele>193</ele>
        <time>2016-10-04T08:39:37Z</time>
      </trkpt>
      <trkpt lat="45.97086" lon="4.71699">
        <ele>194</ele>
        <time>2016-10-04T08:39:38Z</time>
      </trkpt>
      <trkpt lat="45.97091" lon="4.71698">
        <ele>194</ele>
        <time>2016-10-04T08:39:39Z</time>
      </trkpt>
      <trkpt lat="45.97096" lon="4.71696">
        <ele>194</ele>
        <time>2016-10-04T08:39:40Z</time>
      </trkpt>
      <trkpt lat="45.97102" lon="4.71699">
        <ele>194</ele>
        <time>2016-10-04T08:39:41Z</time>
      </trkpt>
      <trkpt lat="45.97107" lon="4.717">
        <ele>194</ele>
        <time>2016-10-04T08:39:42Z</time>
      </trkpt>
      <trkpt lat="45.97112" lon="4.71701">
        <ele>194</ele>
        <time>2016-10-04T08:39:43Z</time>
      </trkpt>
      <trkpt lat="45.97118" lon="4.71701">
        <ele>194</ele>
        <time>2016-10-04T08:39:44Z</time>
      </trkpt>
      <trkpt lat="45.97123" lon="4.71702">
        <ele>194</ele>
        <time>2016-10-04T08:39:45Z</time>
      </trkpt>
      <trkpt lat="45.97128" lon="4.71703">
        <ele>194</ele>
        <time>2016-10-04T08:39:46Z</time>
      </trkpt>
      <trkpt lat="45.97134" lon="4.71704">
        <ele>194</ele>
        <time>2016-10-04T08:39:47Z</time>
      </trkpt>
      <trkpt lat="45.97139" lon="4.71704">
        <ele>194</ele>
        <time>2016-10-04T08:39:48Z</time>
      </trkpt>
      <trkpt lat="45.97144" lon="4.71705">
        <ele>194</ele>
        <time>2016-10-04T08:39:49Z</time>
      </trkpt>
      <trkpt lat="45.97149" lon="4.71706">
        <ele>194</ele>
        <time>2016-10-04T08:39:50Z</time>
      </trkpt>
      <trkpt lat="45.97155" lon="4.71706">
        <ele>195</ele>
        <time>2016-10-04T08:39:51Z</time>
      </trkpt>
      <trkpt lat="45.9716" lon="4.71706">
        <ele>195</ele>
        <time>2016-10-04T08:39:52Z</time>
      </trkpt>
      <trkpt lat="45.97165" lon="4.71707">
        <ele>195</ele>
        <time>2016-10-04T08:39:53Z</time>
      </trkpt>
      <trkpt lat="45.97171" lon="4.71708">
        <ele>196</ele>
        <time>2016-10-04T08:39:54Z</time>
      </trkpt>
      <trkpt lat="45.97177" lon="4.71708">
        <ele>196</ele>
        <time>2016-10-04T08:39:55Z</time>
      </trkpt>
      <trkpt lat="45.97182" lon="4.71709">
        <ele>196</ele>
        <time>2016-10-04T08:39:56Z</time>
      </trkpt>
      <trkpt lat="45.97188" lon="4.71709">
        <ele>196</ele>
        <time>2016-10-04T08:39:57Z</time>
      </trkpt>
      <trkpt lat="45.97193" lon="4.71709">
        <ele>196</ele>
        <time>2016-10-04T08:39:58Z</time>
      </trkpt>
      <trkpt lat="45.97198" lon="4.7171">
        <ele>196</ele>
        <time>2016-10-04T08:39:59Z</time>
      </trkpt>
      <trkpt lat="45.97203" lon="4.71711">
        <ele>196</ele>
        <time>2016-10-04T08:40:00Z</time>
      </trkpt>
      <trkpt lat="45.97208" lon="4.71711">
        <ele>196</ele>
        <time>2016-10-04T08:40:01Z</time>
      </trkpt>
      <trkpt lat="45.97213" lon="4.71712">
        <ele>196</ele>
        <time>2016-10-04T08:40:02Z</time>
      </trkpt>
      <trkpt lat="45.97219" lon="4.71713">
        <ele>196</ele>
        <time>2016-10-04T08:40:03Z</time>
      </trkpt>
      <trkpt lat="45.97224" lon="4.71714">
        <ele>196</ele>
        <time>2016-10-04T08:40:04Z</time>
      </trkpt>
      <trkpt lat="45.9723" lon="4.71715">
        <ele>196</ele>
        <time>2016-10-04T08:40:05Z</time>
      </trkpt>
      <trkpt lat="45.97235" lon="4.71715">
        <ele>196</ele>
        <time>2016-10-04T08:40:06Z</time>
      </trkpt>
      <trkpt lat="45.9724" lon="4.71716">
        <ele>196</ele>
        <time>2016-10-04T08:40:07Z</time>
      </trkpt>
      <trkpt lat="45.97245" lon="4.71717">
        <ele>196</ele>
        <time>2016-10-04T08:40:08Z</time>
      </trkpt>
      <trkpt lat="45.9725" lon="4.71718">
        <ele>196</ele>
        <time>2016-10-04T08:40:09Z</time>
      </trkpt>
      <trkpt lat="45.97256" lon="4.71719">
        <ele>196</ele>
        <time>2016-10-04T08:40:10Z</time>
      </trkpt>
      <trkpt lat="45.97261" lon="4.7172">
        <ele>196</ele>
        <time>2016-10-04T08:40:11Z</time>
      </trkpt>
      <trkpt lat="45.97266" lon="4.71721">
        <ele>196</ele>
        <time>2016-10-04T08:40:12Z</time>
      </trkpt>
      <trkpt lat="45.97272" lon="4.71723">
        <ele>196</ele>
        <time>2016-10-04T08:40:13Z</time>
      </trkpt>
      <trkpt lat="45.97277" lon="4.71725">
        <ele>196</ele>
        <time>2016-10-04T08:40:14Z</time>
      </trkpt>
      <trkpt lat="45.97281" lon="4.71727">
        <ele>196</ele>
        <time>2016-10-04T08:40:15Z</time>
      </trkpt>
      <trkpt lat="45.97285" lon="4.71731">
        <ele>196</ele>
        <time>2016-10-04T08:40:16Z</time>
      </trkpt>
      <trkpt lat="45.97289" lon="4.71736">
        <ele>196</ele>
        <time>2016-10-04T08:40:17Z</time>
      </trkpt>
      <trkpt lat="45.97294" lon="4.7174">
        <ele>196</ele>
        <time>2016-10-04T08:40:18Z</time>
      </trkpt>
      <trkpt lat="45.97299" lon="4.71741">
        <ele>196</ele>
        <time>2016-10-04T08:40:19Z</time>
      </trkpt>
      <trkpt lat="45.97304" lon="4.71744">
        <ele>195</ele>
        <time>2016-10-04T08:40:20Z</time>
      </trkpt>
      <trkpt lat="45.9731" lon="4.71742">
        <ele>195</ele>
        <time>2016-10-04T08:40:21Z</time>
      </trkpt>
      <trkpt lat="45.97315" lon="4.71739">
        <ele>195</ele>
        <time>2016-10-04T08:40:22Z</time>
      </trkpt>
      <trkpt lat="45.9732" lon="4.71734">
        <ele>195</ele>
        <time>2016-10-04T08:40:23Z</time>
      </trkpt>
      <trkpt lat="45.97325" lon="4.7173">
        <ele>195</ele>
        <time>2016-10-04T08:40:24Z</time>
      </trkpt>
      <trkpt lat="45.97329" lon="4.71726">
        <ele>195</ele>
        <time>2016-10-04T08:40:25Z</time>
      </trkpt>
      <trkpt lat="45.97334" lon="4.71725">
        <ele>195</ele>
        <time>2016-10-04T08:40:26Z</time>
      </trkpt>
      <trkpt lat="45.97339" lon="4.71725">
        <ele>195</ele>
        <time>2016-10-04T08:40:27Z</time>
      </trkpt>
      <trkpt lat="45.97345" lon="4.71726">
        <ele>195</ele>
        <time>2016-10-04T08:40:28Z</time>
      </trkpt>
      <trkpt lat="45.9735" lon="4.71727">
        <ele>195</ele>
        <time>2016-10-04T08:40:29Z</time>
      </trkpt>
      <trkpt lat="45.97355" lon="4.71727">
        <ele>195</ele>
        <time>2016-10-04T08:40:30Z</time>
      </trkpt>
      <trkpt lat="45.97361" lon="4.71727">
        <ele>195</ele>
        <time>2016-10-04T08:40:31Z</time>
      </trkpt>
      <trkpt lat="45.97366" lon="4.71727">
        <ele>195</ele>
        <time>2016-10-04T08:40:32Z</time>
      </trkpt>
      <trkpt lat="45.97372" lon="4.71728">
        <ele>195</ele>
        <time>2016-10-04T08:40:33Z</time>
      </trkpt>
      <trkpt lat="45.97377" lon="4.71728">
        <ele>195</ele>
        <time>2016-10-04T08:40:34Z</time>
      </trkpt>
      <trkpt lat="45.97382" lon="4.7173">
        <ele>195</ele>
        <time>2016-10-04T08:40:35Z</time>
      </trkpt>
      <trkpt lat="45.97387" lon="4.71732">
        <ele>195</ele>
        <time>2016-10-04T08:40:36Z</time>
      </trkpt>
      <trkpt lat="45.97393" lon="4.71732">
        <ele>195</ele>
        <time>2016-10-04T08:40:37Z</time>
      </trkpt>
      <trkpt lat="45.97398" lon="4.71733">
        <ele>194</ele>
        <time>2016-10-04T08:40:38Z</time>
      </trkpt>
      <trkpt lat="45.97403" lon="4.71732">
        <ele>194</ele>
        <time>2016-10-04T08:40:39Z</time>
      </trkpt>
      <trkpt lat="45.97408" lon="4.71731">
        <ele>194</ele>
        <time>2016-10-04T08:40:40Z</time>
      </trkpt>
      <trkpt lat="45.97413" lon="4.71734">
        <ele>194</ele>
        <time>2016-10-04T08:40:41Z</time>
      </trkpt>
      <trkpt lat="45.97418" lon="4.71735">
        <ele>195</ele>
        <time>2016-10-04T08:40:42Z</time>
      </trkpt>
      <trkpt lat="45.97424" lon="4.71735">
        <ele>195</ele>
        <time>2016-10-04T08:40:43Z</time>
      </trkpt>
      <trkpt lat="45.97429" lon="4.71735">
        <ele>195</ele>
        <time>2016-10-04T08:40:44Z</time>
      </trkpt>
      <trkpt lat="45.97434" lon="4.71736">
        <ele>195</ele>
        <time>2016-10-04T08:40:45Z</time>
      </trkpt>
      <trkpt lat="45.97439" lon="4.71737">
        <ele>196</ele>
        <time>2016-10-04T08:40:46Z</time>
      </trkpt>
      <trkpt lat="45.97444" lon="4.71736">
        <ele>196</ele>
        <time>2016-10-04T08:40:47Z</time>
      </trkpt>
      <trkpt lat="45.97449" lon="4.71736">
        <ele>196</ele>
        <time>2016-10-04T08:40:48Z</time>
      </trkpt>
      <trkpt lat="45.97454" lon="4.71736">
        <ele>196</ele>
        <time>2016-10-04T08:40:49Z</time>
      </trkpt>
      <trkpt lat="45.97459" lon="4.71736">
        <ele>196</ele>
        <time>2016-10-04T08:40:50Z</time>
      </trkpt>
      <trkpt lat="45.97464" lon="4.71737">
        <ele>197</ele>
        <time>2016-10-04T08:40:51Z</time>
      </trkpt>
      <trkpt lat="45.97469" lon="4.71737">
        <ele>197</ele>
        <time>2016-10-04T08:40:52Z</time>
      </trkpt>
      <trkpt lat="45.97474" lon="4.71737">
        <ele>197</ele>
        <time>2016-10-04T08:40:53Z</time>
      </trkpt>
      <trkpt lat="45.97479" lon="4.71737">
        <ele>197</ele>
        <time>2016-10-04T08:40:54Z</time>
      </trkpt>
      <trkpt lat="45.97484" lon="4.71738">
        <ele>197</ele>
        <time>2016-10-04T08:40:55Z</time>
      </trkpt>
      <trkpt lat="45.97489" lon="4.71738">
        <ele>197</ele>
        <time>2016-10-04T08:40:56Z</time>
      </trkpt>
      <trkpt lat="45.97495" lon="4.71739">
        <ele>197</ele>
        <time>2016-10-04T08:40:57Z</time>
      </trkpt>
      <trkpt lat="45.975" lon="4.71739">
        <ele>197</ele>
        <time>2016-10-04T08:40:58Z</time>
      </trkpt>
      <trkpt lat="45.97506" lon="4.71739">
        <ele>197</ele>
        <time>2016-10-04T08:40:59Z</time>
      </trkpt>
      <trkpt lat="45.97511" lon="4.7174">
        <ele>197</ele>
        <time>2016-10-04T08:41:00Z</time>
      </trkpt>
      <trkpt lat="45.97517" lon="4.7174">
        <ele>197</ele>
        <time>2016-10-04T08:41:01Z</time>
      </trkpt>
      <trkpt lat="45.97522" lon="4.71742">
        <ele>197</ele>
        <time>2016-10-04T08:41:02Z</time>
      </trkpt>
      <trkpt lat="45.97527" lon="4.71744">
        <ele>197</ele>
        <time>2016-10-04T08:41:03Z</time>
      </trkpt>
      <trkpt lat="45.97533" lon="4.71744">
        <ele>197</ele>
        <time>2016-10-04T08:41:04Z</time>
      </trkpt>
      <trkpt lat="45.97538" lon="4.71744">
        <ele>197</ele>
        <time>2016-10-04T08:41:05Z</time>
      </trkpt>
      <trkpt lat="45.97543" lon="4.71744">
        <ele>197</ele>
        <time>2016-10-04T08:41:06Z</time>
      </trkpt>
      <trkpt lat="45.97549" lon="4.71744">
        <ele>197</ele>
        <time>2016-10-04T08:41:07Z</time>
      </trkpt>
      <trkpt lat="45.97554" lon="4.71743">
        <ele>197</ele>
        <time>2016-10-04T08:41:08Z</time>
      </trkpt>
      <trkpt lat="45.97559" lon="4.71744">
        <ele>197</ele>
        <time>2016-10-04T08:41:09Z</time>
      </trkpt>
      <trkpt lat="45.97564" lon="4.71743">
        <ele>197</ele>
        <time>2016-10-04T08:41:10Z</time>
      </trkpt>
      <trkpt lat="45.97569" lon="4.71744">
        <ele>197</ele>
        <time>2016-10-04T08:41:11Z</time>
      </trkpt>
      <trkpt lat="45.97574" lon="4.71744">
        <ele>196</ele>
        <time>2016-10-04T08:41:12Z</time>
      </trkpt>
      <trkpt lat="45.97579" lon="4.71743">
        <ele>196</ele>
        <time>2016-10-04T08:41:13Z</time>
      </trkpt>
      <trkpt lat="45.97584" lon="4.71744">
        <ele>195</ele>
        <time>2016-10-04T08:41:14Z</time>
      </trkpt>
      <trkpt lat="45.9759" lon="4.71745">
        <ele>196</ele>
        <time>2016-10-04T08:41:15Z</time>
      </trkpt>
      <trkpt lat="45.97595" lon="4.71747">
        <ele>196</ele>
        <time>2016-10-04T08:41:16Z</time>
      </trkpt>
      <trkpt lat="45.976" lon="4.7175">
        <ele>196</ele>
        <time>2016-10-04T08:41:17Z</time>
      </trkpt>
      <trkpt lat="45.97604" lon="4.71757">
        <ele>194</ele>
        <time>2016-10-04T08:41:18Z</time>
      </trkpt>
      <trkpt lat="45.97608" lon="4.71761">
        <ele>194</ele>
        <time>2016-10-04T08:41:19Z</time>
      </trkpt>
      <trkpt lat="45.97614" lon="4.71764">
        <ele>194</ele>
        <time>2016-10-04T08:41:20Z</time>
      </trkpt>
      <trkpt lat="45.97619" lon="4.71764">
        <ele>194</ele>
        <time>2016-10-04T08:41:21Z</time>
      </trkpt>
      <trkpt lat="45.97624" lon="4.71764">
        <ele>194</ele>
        <time>2016-10-04T08:41:22Z</time>
      </trkpt>
      <trkpt lat="45.97629" lon="4.71762">
        <ele>194</ele>
        <time>2016-10-04T08:41:23Z</time>
      </trkpt>
      <trkpt lat="45.97634" lon="4.71758">
        <ele>194</ele>
        <time>2016-10-04T08:41:24Z</time>
      </trkpt>
      <trkpt lat="45.97638" lon="4.71755">
        <ele>194</ele>
        <time>2016-10-04T08:41:25Z</time>
      </trkpt>
      <trkpt lat="45.97643" lon="4.71753">
        <ele>194</ele>
        <time>2016-10-04T08:41:26Z</time>
      </trkpt>
      <trkpt lat="45.97648" lon="4.71753">
        <ele>194</ele>
        <time>2016-10-04T08:41:27Z</time>
      </trkpt>
      <trkpt lat="45.97653" lon="4.71753">
        <ele>194</ele>
        <time>2016-10-04T08:41:28Z</time>
      </trkpt>
      <trkpt lat="45.97659" lon="4.71753">
        <ele>194</ele>
        <time>2016-10-04T08:41:29Z</time>
      </trkpt>
      <trkpt lat="45.97664" lon="4.71753">
        <ele>194</ele>
        <time>2016-10-04T08:41:30Z</time>
      </trkpt>
      <trkpt lat="45.9767" lon="4.71753">
        <ele>194</ele>
        <time>2016-10-04T08:41:31Z</time>
      </trkpt>
      <trkpt lat="45.97676" lon="4.71753">
        <ele>194</ele>
        <time>2016-10-04T08:41:32Z</time>
      </trkpt>
      <trkpt lat="45.97682" lon="4.71756">
        <ele>194</ele>
        <time>2016-10-04T08:41:33Z</time>
      </trkpt>
      <trkpt lat="45.97688" lon="4.71757">
        <ele>195</ele>
        <time>2016-10-04T08:41:34Z</time>
      </trkpt>
      <trkpt lat="45.97694" lon="4.71759">
        <ele>195</ele>
        <time>2016-10-04T08:41:35Z</time>
      </trkpt>
      <trkpt lat="45.97699" lon="4.71759">
        <ele>195</ele>
        <time>2016-10-04T08:41:36Z</time>
      </trkpt>
      <trkpt lat="45.97704" lon="4.71761">
        <ele>195</ele>
        <time>2016-10-04T08:41:37Z</time>
      </trkpt>
      <trkpt lat="45.9771" lon="4.71762">
        <ele>195</ele>
        <time>2016-10-04T08:41:38Z</time>
      </trkpt>
      <trkpt lat="45.97715" lon="4.71761">
        <ele>195</ele>
        <time>2016-10-04T08:41:39Z</time>
      </trkpt>
      <trkpt lat="45.97721" lon="4.7176">
        <ele>195</ele>
        <time>2016-10-04T08:41:40Z</time>
      </trkpt>
      <trkpt lat="45.97727" lon="4.71759">
        <ele>195</ele>
        <time>2016-10-04T08:41:41Z</time>
      </trkpt>
      <trkpt lat="45.97733" lon="4.71761">
        <ele>195</ele>
        <time>2016-10-04T08:41:42Z</time>
      </trkpt>
      <trkpt lat="45.97739" lon="4.7176">
        <ele>195</ele>
        <time>2016-10-04T08:41:43Z</time>
      </trkpt>
      <trkpt lat="45.97746" lon="4.7176">
        <ele>196</ele>
        <time>2016-10-04T08:41:44Z</time>
      </trkpt>
      <trkpt lat="45.97751" lon="4.71761">
        <ele>196</ele>
        <time>2016-10-04T08:41:45Z</time>
      </trkpt>
      <trkpt lat="45.97756" lon="4.71761">
        <ele>196</ele>
        <time>2016-10-04T08:41:46Z</time>
      </trkpt>
      <trkpt lat="45.97761" lon="4.71761">
        <ele>196</ele>
        <time>2016-10-04T08:41:47Z</time>
      </trkpt>
      <trkpt lat="45.97766" lon="4.71762">
        <ele>195</ele>
        <time>2016-10-04T08:41:48Z</time>
      </trkpt>
      <trkpt lat="45.97771" lon="4.71763">
        <ele>195</ele>
        <time>2016-10-04T08:41:49Z</time>
      </trkpt>
      <trkpt lat="45.97777" lon="4.71763">
        <ele>195</ele>
        <time>2016-10-04T08:41:50Z</time>
      </trkpt>
      <trkpt lat="45.97782" lon="4.71765">
        <ele>195</ele>
        <time>2016-10-04T08:41:51Z</time>
      </trkpt>
      <trkpt lat="45.97788" lon="4.71766">
        <ele>195</ele>
        <time>2016-10-04T08:41:52Z</time>
      </trkpt>
      <trkpt lat="45.97793" lon="4.71767">
        <ele>195</ele>
        <time>2016-10-04T08:41:53Z</time>
      </trkpt>
      <trkpt lat="45.97798" lon="4.71768">
        <ele>195</ele>
        <time>2016-10-04T08:41:54Z</time>
      </trkpt>
      <trkpt lat="45.97804" lon="4.71768">
        <ele>195</ele>
        <time>2016-10-04T08:41:55Z</time>
      </trkpt>
      <trkpt lat="45.97811" lon="4.71769">
        <ele>195</ele>
        <time>2016-10-04T08:41:56Z</time>
      </trkpt>
      <trkpt lat="45.97817" lon="4.71769">
        <ele>195</ele>
        <time>2016-10-04T08:41:57Z</time>
      </trkpt>
      <trkpt lat="45.97823" lon="4.71768">
        <ele>195</ele>
        <time>2016-10-04T08:41:58Z</time>
      </trkpt>
      <trkpt lat="45.97828" lon="4.71768">
        <ele>195</ele>
        <time>2016-10-04T08:41:59Z</time>
      </trkpt>
      <trkpt lat="45.97833" lon="4.71771">
        <ele>195</ele>
        <time>2016-10-04T08:42:00Z</time>
      </trkpt>
      <trkpt lat="45.97838" lon="4.71773">
        <ele>195</ele>
        <time>2016-10-04T08:42:01Z</time>
      </trkpt>
      <trkpt lat="45.97843" lon="4.71773">
        <ele>195</ele>
        <time>2016-10-04T08:42:02Z</time>
      </trkpt>
      <trkpt lat="45.97848" lon="4.71775">
        <ele>194</ele>
        <time>2016-10-04T08:42:03Z</time>
      </trkpt>
      <trkpt lat="45.97852" lon="4.71778">
        <ele>194</ele>
        <time>2016-10-04T08:42:04Z</time>
      </trkpt>
      <trkpt lat="45.97857" lon="4.71779">
        <ele>194</ele>
        <time>2016-10-04T08:42:05Z</time>
      </trkpt>
      <trkpt lat="45.97862" lon="4.7178">
        <ele>194</ele>
        <time>2016-10-04T08:42:06Z</time>
      </trkpt>
      <trkpt lat="45.97867" lon="4.71784">
        <ele>194</ele>
        <time>2016-10-04T08:42:07Z</time>
      </trkpt>
      <trkpt lat="45.97872" lon="4.7179">
        <ele>194</ele>
        <time>2016-10-04T08:42:08Z</time>
      </trkpt>
      <trkpt lat="45.97878" lon="4.7179">
        <ele>194</ele>
        <time>2016-10-04T08:42:09Z</time>
      </trkpt>
      <trkpt lat="45.97883" lon="4.71788">
        <ele>194</ele>
        <time>2016-10-04T08:42:10Z</time>
      </trkpt>
      <trkpt lat="45.97888" lon="4.71782">
        <ele>194</ele>
        <time>2016-10-04T08:42:11Z</time>
      </trkpt>
      <trkpt lat="45.97893" lon="4.71777">
        <ele>194</ele>
        <time>2016-10-04T08:42:12Z</time>
      </trkpt>
      <trkpt lat="45.97896" lon="4.7177">
        <ele>194</ele>
        <time>2016-10-04T08:42:13Z</time>
      </trkpt>
      <trkpt lat="45.97899" lon="4.71761">
        <ele>195</ele>
        <time>2016-10-04T08:42:14Z</time>
      </trkpt>
      <trkpt lat="45.979" lon="4.71752">
        <ele>195</ele>
        <time>2016-10-04T08:42:15Z</time>
      </trkpt>
      <trkpt lat="45.979" lon="4.71744">
        <ele>195</ele>
        <time>2016-10-04T08:42:16Z</time>
      </trkpt>
      <trkpt lat="45.97901" lon="4.71736">
        <ele>196</ele>
        <time>2016-10-04T08:42:17Z</time>
      </trkpt>
      <trkpt lat="45.97902" lon="4.71727">
        <ele>196</ele>
        <time>2016-10-04T08:42:18Z</time>
      </trkpt>
      <trkpt lat="45.97904" lon="4.71719">
        <ele>196</ele>
        <time>2016-10-04T08:42:19Z</time>
      </trkpt>
      <trkpt lat="45.97906" lon="4.71712">
        <ele>196</ele>
        <time>2016-10-04T08:42:20Z</time>
      </trkpt>
      <trkpt lat="45.9791" lon="4.71705">
        <ele>196</ele>
        <time>2016-10-04T08:42:21Z</time>
      </trkpt>
      <trkpt lat="45.97913" lon="4.71698">
        <ele>196</ele>
        <time>2016-10-04T08:42:22Z</time>
      </trkpt>
      <trkpt lat="45.97917" lon="4.71693">
        <ele>196</ele>
        <time>2016-10-04T08:42:23Z</time>
      </trkpt>
      <trkpt lat="45.97923" lon="4.71689">
        <ele>196</ele>
        <time>2016-10-04T08:42:24Z</time>
      </trkpt>
      <trkpt lat="45.97927" lon="4.71685">
        <ele>196</ele>
        <time>2016-10-04T08:42:25Z</time>
      </trkpt>
      <trkpt lat="45.97931" lon="4.71681">
        <ele>196</ele>
        <time>2016-10-04T08:42:26Z</time>
      </trkpt>
      <trkpt lat="45.97938" lon="4.71674">
        <ele>197</ele>
        <time>2016-10-04T08:42:28Z</time>
      </trkpt>
      <trkpt lat="45.97942" lon="4.7167">
        <ele>197</ele>
        <time>2016-10-04T08:42:29Z</time>
      </trkpt>
      <trkpt lat="45.97948" lon="4.71667">
        <ele>197</ele>
        <time>2016-10-04T08:42:30Z</time>
      </trkpt>
      <trkpt lat="45.97954" lon="4.71664">
        <ele>197</ele>
        <time>2016-10-04T08:42:31Z</time>
      </trkpt>
      <trkpt lat="45.9796" lon="4.7166">
        <ele>197</ele>
        <time>2016-10-04T08:42:32Z</time>
      </trkpt>
      <trkpt lat="45.97966" lon="4.71655">
        <ele>197</ele>
        <time>2016-10-04T08:42:33Z</time>
      </trkpt>
      <trkpt lat="45.97971" lon="4.7165">
        <ele>197</ele>
        <time>2016-10-04T08:42:34Z</time>
      </trkpt>
      <trkpt lat="45.97976" lon="4.71646">
        <ele>197</ele>
        <time>2016-10-04T08:42:35Z</time>
      </trkpt>
      <trkpt lat="45.9798" lon="4.71641">
        <ele>197</ele>
        <time>2016-10-04T08:42:36Z</time>
      </trkpt>
      <trkpt lat="45.97984" lon="4.71637">
        <ele>197</ele>
        <time>2016-10-04T08:42:37Z</time>
      </trkpt>
      <trkpt lat="45.97989" lon="4.71634">
        <ele>198</ele>
        <time>2016-10-04T08:42:38Z</time>
      </trkpt>
      <trkpt lat="45.97994" lon="4.7163">
        <ele>198</ele>
        <time>2016-10-04T08:42:39Z</time>
      </trkpt>
      <trkpt lat="45.97999" lon="4.71627">
        <ele>198</ele>
        <time>2016-10-04T08:42:40Z</time>
      </trkpt>
      <trkpt lat="45.98004" lon="4.71624">
        <ele>198</ele>
        <time>2016-10-04T08:42:41Z</time>
      </trkpt>
      <trkpt lat="45.98008" lon="4.7162">
        <ele>198</ele>
        <time>2016-10-04T08:42:42Z</time>
      </trkpt>
      <trkpt lat="45.98013" lon="4.71616">
        <ele>198</ele>
        <time>2016-10-04T08:42:43Z</time>
      </trkpt>
      <trkpt lat="45.98016" lon="4.71612">
        <ele>198</ele>
        <time>2016-10-04T08:42:44Z</time>
      </trkpt>
      <trkpt lat="45.9802" lon="4.71609">
        <ele>198</ele>
        <time>2016-10-04T08:42:45Z</time>
      </trkpt>
      <trkpt lat="45.98025" lon="4.71607">
        <ele>198</ele>
        <time>2016-10-04T08:42:46Z</time>
      </trkpt>
      <trkpt lat="45.9803" lon="4.71604">
        <ele>198</ele>
        <time>2016-10-04T08:42:47Z</time>
      </trkpt>
      <trkpt lat="45.98035" lon="4.71599">
        <ele>198</ele>
        <time>2016-10-04T08:42:48Z</time>
      </trkpt>
      <trkpt lat="45.9804" lon="4.71595">
        <ele>198</ele>
        <time>2016-10-04T08:42:49Z</time>
      </trkpt>
      <trkpt lat="45.98045" lon="4.71592">
        <ele>198</ele>
        <time>2016-10-04T08:42:50Z</time>
      </trkpt>
      <trkpt lat="45.98048" lon="4.71588">
        <ele>198</ele>
        <time>2016-10-04T08:42:51Z</time>
      </trkpt>
      <trkpt lat="45.98053" lon="4.71585">
        <ele>198</ele>
        <time>2016-10-04T08:42:52Z</time>
      </trkpt>
      <trkpt lat="45.98058" lon="4.71582">
        <ele>198</ele>
        <time>2016-10-04T08:42:53Z</time>
      </trkpt>
      <trkpt lat="45.98063" lon="4.71576">
        <ele>198</ele>
        <time>2016-10-04T08:42:54Z</time>
      </trkpt>
      <trkpt lat="45.98067" lon="4.71572">
        <ele>198</ele>
        <time>2016-10-04T08:42:55Z</time>
      </trkpt>
      <trkpt lat="45.98071" lon="4.71569">
        <ele>198</ele>
        <time>2016-10-04T08:42:56Z</time>
      </trkpt>
      <trkpt lat="45.98076" lon="4.71564">
        <ele>198</ele>
        <time>2016-10-04T08:42:57Z</time>
      </trkpt>
      <trkpt lat="45.98081" lon="4.7156">
        <ele>198</ele>
        <time>2016-10-04T08:42:58Z</time>
      </trkpt>
      <trkpt lat="45.98086" lon="4.71555">
        <ele>198</ele>
        <time>2016-10-04T08:42:59Z</time>
      </trkpt>
      <trkpt lat="45.98091" lon="4.71553">
        <ele>198</ele>
        <time>2016-10-04T08:43:00Z</time>
      </trkpt>
      <trkpt lat="45.98096" lon="4.7155">
        <ele>197</ele>
        <time>2016-10-04T08:43:01Z</time>
      </trkpt>
      <trkpt lat="45.98101" lon="4.71547">
        <ele>197</ele>
        <time>2016-10-04T08:43:02Z</time>
      </trkpt>
      <trkpt lat="45.98106" lon="4.71544">
        <ele>197</ele>
        <time>2016-10-04T08:43:03Z</time>
      </trkpt>
      <trkpt lat="45.9811" lon="4.71541">
        <ele>197</ele>
        <time>2016-10-04T08:43:04Z</time>
      </trkpt>
      <trkpt lat="45.98116" lon="4.71538">
        <ele>197</ele>
        <time>2016-10-04T08:43:05Z</time>
      </trkpt>
      <trkpt lat="45.9812" lon="4.71536">
        <ele>197</ele>
        <time>2016-10-04T08:43:06Z</time>
      </trkpt>
      <trkpt lat="45.98125" lon="4.71532">
        <ele>197</ele>
        <time>2016-10-04T08:43:07Z</time>
      </trkpt>
      <trkpt lat="45.98131" lon="4.71529">
        <ele>197</ele>
        <time>2016-10-04T08:43:08Z</time>
      </trkpt>
      <trkpt lat="45.98137" lon="4.71527">
        <ele>197</ele>
        <time>2016-10-04T08:43:09Z</time>
      </trkpt>
      <trkpt lat="45.98142" lon="4.71524">
        <ele>197</ele>
        <time>2016-10-04T08:43:10Z</time>
      </trkpt>
      <trkpt lat="45.98146" lon="4.71522">
        <ele>197</ele>
        <time>2016-10-04T08:43:11Z</time>
      </trkpt>
      <trkpt lat="45.98153" lon="4.71519">
        <ele>197</ele>
        <time>2016-10-04T08:43:13Z</time>
      </trkpt>
      <trkpt lat="45.98157" lon="4.71518">
        <ele>197</ele>
        <time>2016-10-04T08:43:14Z</time>
      </trkpt>
      <trkpt lat="45.98165" lon="4.71513">
        <ele>197</ele>
        <time>2016-10-04T08:43:17Z</time>
      </trkpt>
      <trkpt lat="45.98167" lon="4.71512">
        <ele>197</ele>
        <time>2016-10-04T08:43:18Z</time>
      </trkpt>
      <trkpt lat="45.98173" lon="4.71508">
        <ele>197</ele>
        <time>2016-10-04T08:43:21Z</time>
      </trkpt>
      <trkpt lat="45.98176" lon="4.71506">
        <ele>197</ele>
        <time>2016-10-04T08:43:22Z</time>
      </trkpt>
      <trkpt lat="45.98183" lon="4.71505">
        <ele>197</ele>
        <time>2016-10-04T08:43:24Z</time>
      </trkpt>
      <trkpt lat="45.98186" lon="4.71505">
        <ele>197</ele>
        <time>2016-10-04T08:43:25Z</time>
      </trkpt>
      <trkpt lat="45.98191" lon="4.71506">
        <ele>197</ele>
        <time>2016-10-04T08:43:26Z</time>
      </trkpt>
      <trkpt lat="45.98196" lon="4.71506">
        <ele>197</ele>
        <time>2016-10-04T08:43:27Z</time>
      </trkpt>
      <trkpt lat="45.98201" lon="4.71506">
        <ele>197</ele>
        <time>2016-10-04T08:43:28Z</time>
      </trkpt>
      <trkpt lat="45.98205" lon="4.71507">
        <ele>197</ele>
        <time>2016-10-04T08:43:29Z</time>
      </trkpt>
      <trkpt lat="45.9821" lon="4.71509">
        <ele>196</ele>
        <time>2016-10-04T08:43:30Z</time>
      </trkpt>
      <trkpt lat="45.98215" lon="4.71511">
        <ele>196</ele>
        <time>2016-10-04T08:43:31Z</time>
      </trkpt>
      <trkpt lat="45.9822" lon="4.71513">
        <ele>196</ele>
        <time>2016-10-04T08:43:32Z</time>
      </trkpt>
      <trkpt lat="45.98225" lon="4.71517">
        <ele>196</ele>
        <time>2016-10-04T08:43:33Z</time>
      </trkpt>
      <trkpt lat="45.9823" lon="4.71521">
        <ele>196</ele>
        <time>2016-10-04T08:43:34Z</time>
      </trkpt>
      <trkpt lat="45.98236" lon="4.71524">
        <ele>196</ele>
        <time>2016-10-04T08:43:35Z</time>
      </trkpt>
      <trkpt lat="45.98241" lon="4.71527">
        <ele>196</ele>
        <time>2016-10-04T08:43:36Z</time>
      </trkpt>
      <trkpt lat="45.98245" lon="4.71529">
        <ele>196</ele>
        <time>2016-10-04T08:43:37Z</time>
      </trkpt>
      <trkpt lat="45.9825" lon="4.7153">
        <ele>197</ele>
        <time>2016-10-04T08:43:38Z</time>
      </trkpt>
      <trkpt lat="45.98257" lon="4.71535">
        <ele>197</ele>
        <time>2016-10-04T08:43:39Z</time>
      </trkpt>
      <trkpt lat="45.98263" lon="4.7154">
        <ele>197</ele>
        <time>2016-10-04T08:43:40Z</time>
      </trkpt>
      <trkpt lat="45.98268" lon="4.71544">
        <ele>197</ele>
        <time>2016-10-04T08:43:41Z</time>
      </trkpt>
      <trkpt lat="45.98274" lon="4.71548">
        <ele>198</ele>
        <time>2016-10-04T08:43:42Z</time>
      </trkpt>
      <trkpt lat="45.98279" lon="4.71551">
        <ele>198</ele>
        <time>2016-10-04T08:43:43Z</time>
      </trkpt>
      <trkpt lat="45.98284" lon="4.71555">
        <ele>198</ele>
        <time>2016-10-04T08:43:44Z</time>
      </trkpt>
      <trkpt lat="45.98289" lon="4.71558">
        <ele>198</ele>
        <time>2016-10-04T08:43:45Z</time>
      </trkpt>
      <trkpt lat="45.98294" lon="4.71563">
        <ele>198</ele>
        <time>2016-10-04T08:43:46Z</time>
      </trkpt>
      <trkpt lat="45.98299" lon="4.71568">
        <ele>198</ele>
        <time>2016-10-04T08:43:47Z</time>
      </trkpt>
      <trkpt lat="45.98304" lon="4.71571">
        <ele>198</ele>
        <time>2016-10-04T08:43:48Z</time>
      </trkpt>
      <trkpt lat="45.98309" lon="4.71575">
        <ele>198</ele>
        <time>2016-10-04T08:43:49Z</time>
      </trkpt>
      <trkpt lat="45.98316" lon="4.71578">
        <ele>198</ele>
        <time>2016-10-04T08:43:50Z</time>
      </trkpt>
      <trkpt lat="45.98322" lon="4.71579">
        <ele>199</ele>
        <time>2016-10-04T08:43:51Z</time>
      </trkpt>
      <trkpt lat="45.98328" lon="4.71582">
        <ele>199</ele>
        <time>2016-10-04T08:43:52Z</time>
      </trkpt>
      <trkpt lat="45.98335" lon="4.71584">
        <ele>199</ele>
        <time>2016-10-04T08:43:53Z</time>
      </trkpt>
      <trkpt lat="45.98341" lon="4.71587">
        <ele>199</ele>
        <time>2016-10-04T08:43:54Z</time>
      </trkpt>
      <trkpt lat="45.98347" lon="4.7159">
        <ele>198</ele>
        <time>2016-10-04T08:43:55Z</time>
      </trkpt>
      <trkpt lat="45.98352" lon="4.71594">
        <ele>198</ele>
        <time>2016-10-04T08:43:56Z</time>
      </trkpt>
      <trkpt lat="45.98357" lon="4.71598">
        <ele>198</ele>
        <time>2016-10-04T08:43:57Z</time>
      </trkpt>
      <trkpt lat="45.98362" lon="4.71601">
        <ele>198</ele>
        <time>2016-10-04T08:43:58Z</time>
      </trkpt>
      <trkpt lat="45.98367" lon="4.71605">
        <ele>198</ele>
        <time>2016-10-04T08:43:59Z</time>
      </trkpt>
      <trkpt lat="45.98375" lon="4.7161">
        <ele>198</ele>
        <time>2016-10-04T08:44:01Z</time>
      </trkpt>
      <trkpt lat="45.98378" lon="4.7161">
        <ele>198</ele>
        <time>2016-10-04T08:44:02Z</time>
      </trkpt>
      <trkpt lat="45.98384" lon="4.71614">
        <ele>198</ele>
        <time>2016-10-04T08:44:06Z</time>
      </trkpt>
      <trkpt lat="45.98383" lon="4.71613">
        <ele>198</ele>
        <time>2016-10-04T08:44:07Z</time>
      </trkpt>
      <trkpt lat="45.98385" lon="4.71608">
        <ele>198</ele>
        <time>2016-10-04T08:44:16Z</time>
      </trkpt>
      <trkpt lat="45.98387" lon="4.71607">
        <ele>198</ele>
        <time>2016-10-04T08:44:17Z</time>
      </trkpt>
      <trkpt lat="45.98393" lon="4.71602">
        <ele>198</ele>
        <time>2016-10-04T08:44:19Z</time>
      </trkpt>
      <trkpt lat="45.98396" lon="4.71599">
        <ele>198</ele>
        <time>2016-10-04T08:44:20Z</time>
      </trkpt>
      <trkpt lat="45.98399" lon="4.71595">
        <ele>197</ele>
        <time>2016-10-04T08:44:21Z</time>
      </trkpt>
      <trkpt lat="45.98403" lon="4.7159">
        <ele>197</ele>
        <time>2016-10-04T08:44:22Z</time>
      </trkpt>
      <trkpt lat="45.98407" lon="4.71586">
        <ele>197</ele>
        <time>2016-10-04T08:44:23Z</time>
      </trkpt>
      <trkpt lat="45.98412" lon="4.71581">
        <ele>197</ele>
        <time>2016-10-04T08:44:24Z</time>
      </trkpt>
      <trkpt lat="45.98417" lon="4.71576">
        <ele>197</ele>
        <time>2016-10-04T08:44:25Z</time>
      </trkpt>
      <trkpt lat="45.98421" lon="4.7157">
        <ele>197</ele>
        <time>2016-10-04T08:44:26Z</time>
      </trkpt>
      <trkpt lat="45.98425" lon="4.71565">
        <ele>197</ele>
        <time>2016-10-04T08:44:27Z</time>
      </trkpt>
      <trkpt lat="45.98429" lon="4.7156">
        <ele>197</ele>
        <time>2016-10-04T08:44:28Z</time>
      </trkpt>
      <trkpt lat="45.98434" lon="4.71555">
        <ele>197</ele>
        <time>2016-10-04T08:44:29Z</time>
      </trkpt>
      <trkpt lat="45.98439" lon="4.7155">
        <ele>197</ele>
        <time>2016-10-04T08:44:30Z</time>
      </trkpt>
      <trkpt lat="45.98444" lon="4.71546">
        <ele>197</ele>
        <time>2016-10-04T08:44:31Z</time>
      </trkpt>
      <trkpt lat="45.98449" lon="4.71542">
        <ele>197</ele>
        <time>2016-10-04T08:44:32Z</time>
      </trkpt>
      <trkpt lat="45.98454" lon="4.7154">
        <ele>197</ele>
        <time>2016-10-04T08:44:33Z</time>
      </trkpt>
      <trkpt lat="45.98459" lon="4.71538">
        <ele>197</ele>
        <time>2016-10-04T08:44:34Z</time>
      </trkpt>
      <trkpt lat="45.98463" lon="4.71536">
        <ele>197</ele>
        <time>2016-10-04T08:44:35Z</time>
      </trkpt>
      <trkpt lat="45.98468" lon="4.71534">
        <ele>197</ele>
        <time>2016-10-04T08:44:36Z</time>
      </trkpt>
      <trkpt lat="45.98473" lon="4.71533">
        <ele>197</ele>
        <time>2016-10-04T08:44:37Z</time>
      </trkpt>
      <trkpt lat="45.98478" lon="4.71532">
        <ele>196</ele>
        <time>2016-10-04T08:44:38Z</time>
      </trkpt>
      <trkpt lat="45.98485" lon="4.71531">
        <ele>196</ele>
        <time>2016-10-04T08:44:40Z</time>
      </trkpt>
      <trkpt lat="45.98487" lon="4.71531">
        <ele>196</ele>
        <time>2016-10-04T08:44:41Z</time>
      </trkpt>
      <trkpt lat="45.98489" lon="4.71536">
        <ele>196</ele>
        <time>2016-10-04T08:44:44Z</time>
      </trkpt>
      <trkpt lat="45.98489" lon="4.71536">
        <ele>196</ele>
        <time>2016-10-04T08:44:45Z</time>
      </trkpt>
      <trkpt lat="45.98488" lon="4.71537">
        <ele>196</ele>
        <time>2016-10-04T08:44:55Z</time>
      </trkpt>
      <trkpt lat="45.98489" lon="4.71537">
        <ele>196</ele>
        <time>2016-10-04T08:44:56Z</time>
      </trkpt>
      <trkpt lat="45.98497" lon="4.71537">
        <ele>196</ele>
        <time>2016-10-04T08:44:58Z</time>
      </trkpt>
      <trkpt lat="45.98504" lon="4.71532">
        <ele>195</ele>
        <time>2016-10-04T08:44:59Z</time>
      </trkpt>
      <trkpt lat="45.9851" lon="4.71531">
        <ele>195</ele>
        <time>2016-10-04T08:45:00Z</time>
      </trkpt>
      <trkpt lat="45.98516" lon="4.7153">
        <ele>195</ele>
        <time>2016-10-04T08:45:01Z</time>
      </trkpt>
      <trkpt lat="45.98522" lon="4.71527">
        <ele>194</ele>
        <time>2016-10-04T08:45:02Z</time>
      </trkpt>
      <trkpt lat="45.98528" lon="4.71526">
        <ele>194</ele>
        <time>2016-10-04T08:45:03Z</time>
      </trkpt>
      <trkpt lat="45.98535" lon="4.71524">
        <ele>194</ele>
        <time>2016-10-04T08:45:04Z</time>
      </trkpt>
      <trkpt lat="45.98541" lon="4.71523">
        <ele>194</ele>
        <time>2016-10-04T08:45:05Z</time>
      </trkpt>
      <trkpt lat="45.98548" lon="4.71522">
        <ele>194</ele>
        <time>2016-10-04T08:45:06Z</time>
      </trkpt>
      <trkpt lat="45.98555" lon="4.7152">
        <ele>194</ele>
        <time>2016-10-04T08:45:07Z</time>
      </trkpt>
      <trkpt lat="45.98562" lon="4.71518">
        <ele>194</ele>
        <time>2016-10-04T08:45:08Z</time>
      </trkpt>
      <trkpt lat="45.98569" lon="4.71516">
        <ele>193</ele>
        <time>2016-10-04T08:45:09Z</time>
      </trkpt>
      <trkpt lat="45.98576" lon="4.71515">
        <ele>193</ele>
        <time>2016-10-04T08:45:10Z</time>
      </trkpt>
      <trkpt lat="45.98584" lon="4.71513">
        <ele>192</ele>
        <time>2016-10-04T08:45:11Z</time>
      </trkpt>
      <trkpt lat="45.98591" lon="4.71513">
        <ele>192</ele>
        <time>2016-10-04T08:45:12Z</time>
      </trkpt>
      <trkpt lat="45.98598" lon="4.71513">
        <ele>192</ele>
        <time>2016-10-04T08:45:13Z</time>
      </trkpt>
      <trkpt lat="45.98605" lon="4.71513">
        <ele>191</ele>
        <time>2016-10-04T08:45:14Z</time>
      </trkpt>
      <trkpt lat="45.9861" lon="4.71511">
        <ele>191</ele>
        <time>2016-10-04T08:45:15Z</time>
      </trkpt>
      <trkpt lat="45.98616" lon="4.71509">
        <ele>191</ele>
        <time>2016-10-04T08:45:16Z</time>
      </trkpt>
      <trkpt lat="45.98622" lon="4.71504">
        <ele>191</ele>
        <time>2016-10-04T08:45:17Z</time>
      </trkpt>
      <trkpt lat="45.98627" lon="4.71503">
        <ele>191</ele>
        <time>2016-10-04T08:45:18Z</time>
      </trkpt>
      <trkpt lat="45.98635" lon="4.71504">
        <ele>191</ele>
        <time>2016-10-04T08:45:19Z</time>
      </trkpt>
      <trkpt lat="45.98643" lon="4.71501">
        <ele>190</ele>
        <time>2016-10-04T08:45:21Z</time>
      </trkpt>
      <trkpt lat="45.98648" lon="4.71499">
        <ele>190</ele>
        <time>2016-10-04T08:45:22Z</time>
      </trkpt>
      <trkpt lat="45.98655" lon="4.71493">
        <ele>190</ele>
        <time>2016-10-04T08:45:26Z</time>
      </trkpt>
      <trkpt lat="45.98658" lon="4.71493">
        <ele>189</ele>
        <time>2016-10-04T08:45:27Z</time>
      </trkpt>
      <trkpt lat="45.98666" lon="4.71493">
        <ele>189</ele>
        <time>2016-10-04T08:46:00Z</time>
      </trkpt>
      <trkpt lat="45.98669" lon="4.71495">
        <ele>188</ele>
        <time>2016-10-04T08:46:01Z</time>
      </trkpt>
      <trkpt lat="45.98675" lon="4.71498">
        <ele>188</ele>
        <time>2016-10-04T08:46:03Z</time>
      </trkpt>
      <trkpt lat="45.98681" lon="4.71498">
        <ele>188</ele>
        <time>2016-10-04T08:46:04Z</time>
      </trkpt>
      <trkpt lat="45.98685" lon="4.71499">
        <ele>188</ele>
        <time>2016-10-04T08:46:05Z</time>
      </trkpt>
      <trkpt lat="45.98692" lon="4.71501">
        <ele>188</ele>
        <time>2016-10-04T08:46:06Z</time>
      </trkpt>
      <trkpt lat="45.98704" lon="4.71504">
        <ele>187</ele>
        <time>2016-10-04T08:46:07Z</time>
      </trkpt>
      <trkpt lat="45.98711" lon="4.71505">
        <ele>187</ele>
        <time>2016-10-04T08:46:08Z</time>
      </trkpt>
      <trkpt lat="45.98717" lon="4.71507">
        <ele>187</ele>
        <time>2016-10-04T08:46:09Z</time>
      </trkpt>
      <trkpt lat="45.98724" lon="4.71508">
        <ele>186</ele>
        <time>2016-10-04T08:46:10Z</time>
      </trkpt>
      <trkpt lat="45.9873" lon="4.7151">
        <ele>186</ele>
        <time>2016-10-04T08:46:11Z</time>
      </trkpt>
      <trkpt lat="45.98736" lon="4.7151">
        <ele>186</ele>
        <time>2016-10-04T08:46:12Z</time>
      </trkpt>
      <trkpt lat="45.98743" lon="4.71511">
        <ele>185</ele>
        <time>2016-10-04T08:46:13Z</time>
      </trkpt>
      <trkpt lat="45.9875" lon="4.71512">
        <ele>185</ele>
        <time>2016-10-04T08:46:14Z</time>
      </trkpt>
      <trkpt lat="45.98756" lon="4.71512">
        <ele>184</ele>
        <time>2016-10-04T08:46:15Z</time>
      </trkpt>
      <trkpt lat="45.98763" lon="4.71512">
        <ele>184</ele>
        <time>2016-10-04T08:46:16Z</time>
      </trkpt>
      <trkpt lat="45.98769" lon="4.71513">
        <ele>184</ele>
        <time>2016-10-04T08:46:17Z</time>
      </trkpt>
      <trkpt lat="45.98776" lon="4.71513">
        <ele>184</ele>
        <time>2016-10-04T08:46:18Z</time>
      </trkpt>
      <trkpt lat="45.98783" lon="4.71512">
        <ele>185</ele>
        <time>2016-10-04T08:46:19Z</time>
      </trkpt>
      <trkpt lat="45.9879" lon="4.71511">
        <ele>185</ele>
        <time>2016-10-04T08:46:20Z</time>
      </trkpt>
      <trkpt lat="45.98796" lon="4.71511">
        <ele>185</ele>
        <time>2016-10-04T08:46:21Z</time>
      </trkpt>
      <trkpt lat="45.98803" lon="4.71511">
        <ele>184</ele>
        <time>2016-10-04T08:46:22Z</time>
      </trkpt>
      <trkpt lat="45.98808" lon="4.71511">
        <ele>184</ele>
        <time>2016-10-04T08:46:23Z</time>
      </trkpt>
      <trkpt lat="45.98815" lon="4.71511">
        <ele>184</ele>
        <time>2016-10-04T08:46:25Z</time>
      </trkpt>
      <trkpt lat="45.98819" lon="4.71512">
        <ele>184</ele>
        <time>2016-10-04T08:46:26Z</time>
      </trkpt>
      <trkpt lat="45.98825" lon="4.71513">
        <ele>184</ele>
        <time>2016-10-04T08:46:28Z</time>
      </trkpt>
      <trkpt lat="45.9883" lon="4.71514">
        <ele>184</ele>
        <time>2016-10-04T08:46:29Z</time>
      </trkpt>
      <trkpt lat="45.98834" lon="4.71516">
        <ele>184</ele>
        <time>2016-10-04T08:46:30Z</time>
      </trkpt>
      <trkpt lat="45.98839" lon="4.71518">
        <ele>185</ele>
        <time>2016-10-04T08:46:31Z</time>
      </trkpt>
      <trkpt lat="45.98847" lon="4.71518">
        <ele>185</ele>
        <time>2016-10-04T08:46:33Z</time>
      </trkpt>
      <trkpt lat="45.98852" lon="4.71518">
        <ele>185</ele>
        <time>2016-10-04T08:46:34Z</time>
      </trkpt>
      <trkpt lat="45.98858" lon="4.71517">
        <ele>185</ele>
        <time>2016-10-04T08:46:35Z</time>
      </trkpt>
      <trkpt lat="45.98865" lon="4.71518">
        <ele>185</ele>
        <time>2016-10-04T08:46:36Z</time>
      </trkpt>
      <trkpt lat="45.9887" lon="4.71516">
        <ele>185</ele>
        <time>2016-10-04T08:46:37Z</time>
      </trkpt>
      <trkpt lat="45.98876" lon="4.71515">
        <ele>185</ele>
        <time>2016-10-04T08:46:38Z</time>
      </trkpt>
      <trkpt lat="45.98883" lon="4.71516">
        <ele>185</ele>
        <time>2016-10-04T08:46:39Z</time>
      </trkpt>
      <trkpt lat="45.98889" lon="4.71518">
        <ele>185</ele>
        <time>2016-10-04T08:46:40Z</time>
      </trkpt>
      <trkpt lat="45.98895" lon="4.71519">
        <ele>185</ele>
        <time>2016-10-04T08:46:41Z</time>
      </trkpt>
      <trkpt lat="45.98898" lon="4.71515">
        <ele>185</ele>
        <time>2016-10-04T08:46:42Z</time>
      </trkpt>
      <trkpt lat="45.98904" lon="4.71516">
        <ele>185</ele>
        <time>2016-10-04T08:46:43Z</time>
      </trkpt>
      <trkpt lat="45.9891" lon="4.71518">
        <ele>185</ele>
        <time>2016-10-04T08:46:44Z</time>
      </trkpt>
      <trkpt lat="45.98915" lon="4.71519">
        <ele>185</ele>
        <time>2016-10-04T08:46:45Z</time>
      </trkpt>
      <trkpt lat="45.98921" lon="4.71519">
        <ele>186</ele>
        <time>2016-10-04T08:46:46Z</time>
      </trkpt>
      <trkpt lat="45.98927" lon="4.71519">
        <ele>186</ele>
        <time>2016-10-04T08:46:47Z</time>
      </trkpt>
      <trkpt lat="45.98931" lon="4.7152">
        <ele>186</ele>
        <time>2016-10-04T08:46:48Z</time>
      </trkpt>
      <trkpt lat="45.9894" lon="4.71519">
        <ele>186</ele>
        <time>2016-10-04T08:46:52Z</time>
      </trkpt>
      <trkpt lat="45.98939" lon="4.71519">
        <ele>186</ele>
        <time>2016-10-04T08:46:53Z</time>
      </trkpt>
      <trkpt lat="45.98939" lon="4.71518">
        <ele>186</ele>
        <time>2016-10-04T08:47:30Z</time>
      </trkpt>
      <trkpt lat="45.98939" lon="4.71517">
        <ele>186</ele>
        <time>2016-10-04T08:47:31Z</time>
      </trkpt>
      <trkpt lat="45.98945" lon="4.71518">
        <ele>186</ele>
        <time>2016-10-04T08:47:34Z</time>
      </trkpt>
      <trkpt lat="45.9895" lon="4.71518">
        <ele>186</ele>
        <time>2016-10-04T08:47:35Z</time>
      </trkpt>
      <trkpt lat="45.98955" lon="4.71518">
        <ele>186</ele>
        <time>2016-10-04T08:47:36Z</time>
      </trkpt>
      <trkpt lat="45.9896" lon="4.71518">
        <ele>186</ele>
        <time>2016-10-04T08:47:37Z</time>
      </trkpt>
      <trkpt lat="45.98966" lon="4.71519">
        <ele>186</ele>
        <time>2016-10-04T08:47:38Z</time>
      </trkpt>
      <trkpt lat="45.98973" lon="4.71518">
        <ele>186</ele>
        <time>2016-10-04T08:47:39Z</time>
      </trkpt>
      <trkpt lat="45.98978" lon="4.71517">
        <ele>186</ele>
        <time>2016-10-04T08:47:40Z</time>
      </trkpt>
      <trkpt lat="45.98983" lon="4.71513">
        <ele>186</ele>
        <time>2016-10-04T08:47:41Z</time>
      </trkpt>
      <trkpt lat="45.98988" lon="4.71506">
        <ele>187</ele>
        <time>2016-10-04T08:47:43Z</time>
      </trkpt>
      <trkpt lat="45.98992" lon="4.71504">
        <ele>187</ele>
        <time>2016-10-04T08:47:44Z</time>
      </trkpt>
      <trkpt lat="45.98998" lon="4.71499">
        <ele>187</ele>
        <time>2016-10-04T08:47:46Z</time>
      </trkpt>
      <trkpt lat="45.99001" lon="4.71496">
        <ele>187</ele>
        <time>2016-10-04T08:47:47Z</time>
      </trkpt>
      <trkpt lat="45.99004" lon="4.71494">
        <ele>187</ele>
        <time>2016-10-04T08:47:48Z</time>
      </trkpt>
      <trkpt lat="45.9901" lon="4.71495">
        <ele>187</ele>
        <time>2016-10-04T08:47:49Z</time>
      </trkpt>
      <trkpt lat="45.99015" lon="4.71494">
        <ele>188</ele>
        <time>2016-10-04T08:47:50Z</time>
      </trkpt>
      <trkpt lat="45.9902" lon="4.71493">
        <ele>188</ele>
        <time>2016-10-04T08:47:51Z</time>
      </trkpt>
      <trkpt lat="45.99027" lon="4.71493">
        <ele>188</ele>
        <time>2016-10-04T08:47:52Z</time>
      </trkpt>
      <trkpt lat="45.99031" lon="4.71493">
        <ele>188</ele>
        <time>2016-10-04T08:47:53Z</time>
      </trkpt>
      <trkpt lat="45.99036" lon="4.71492">
        <ele>188</ele>
        <time>2016-10-04T08:47:54Z</time>
      </trkpt>
      <trkpt lat="45.99042" lon="4.71493">
        <ele>188</ele>
        <time>2016-10-04T08:47:55Z</time>
      </trkpt>
      <trkpt lat="45.99047" lon="4.71493">
        <ele>188</ele>
        <time>2016-10-04T08:47:56Z</time>
      </trkpt>
      <trkpt lat="45.99052" lon="4.71493">
        <ele>189</ele>
        <time>2016-10-04T08:47:57Z</time>
      </trkpt>
      <trkpt lat="45.99058" lon="4.71491">
        <ele>189</ele>
        <time>2016-10-04T08:48:00Z</time>
      </trkpt>
      <trkpt lat="45.99063" lon="4.7149">
        <ele>189</ele>
        <time>2016-10-04T08:48:01Z</time>
      </trkpt>
      <trkpt lat="45.99071" lon="4.7149">
        <ele>189</ele>
        <time>2016-10-04T08:48:06Z</time>
      </trkpt>
      <trkpt lat="45.99072" lon="4.7149">
        <ele>189</ele>
        <time>2016-10-04T08:48:07Z</time>
      </trkpt>
      <trkpt lat="45.99081" lon="4.71491">
        <ele>189</ele>
        <time>2016-10-04T08:48:10Z</time>
      </trkpt>
      <trkpt lat="45.99085" lon="4.7149">
        <ele>190</ele>
        <time>2016-10-04T08:48:11Z</time>
      </trkpt>
      <trkpt lat="45.99091" lon="4.71488">
        <ele>190</ele>
        <time>2016-10-04T08:48:13Z</time>
      </trkpt>
      <trkpt lat="45.99096" lon="4.71488">
        <ele>190</ele>
        <time>2016-10-04T08:48:14Z</time>
      </trkpt>
      <trkpt lat="45.99102" lon="4.71485">
        <ele>191</ele>
        <time>2016-10-04T08:48:16Z</time>
      </trkpt>
      <trkpt lat="45.99106" lon="4.71484">
        <ele>191</ele>
        <time>2016-10-04T08:48:17Z</time>
      </trkpt>
      <trkpt lat="45.99115" lon="4.71483">
        <ele>191</ele>
        <time>2016-10-04T08:48:19Z</time>
      </trkpt>
      <trkpt lat="45.99119" lon="4.71482">
        <ele>191</ele>
        <time>2016-10-04T08:48:20Z</time>
      </trkpt>
      <trkpt lat="45.99127" lon="4.71479">
        <ele>191</ele>
        <time>2016-10-04T08:48:22Z</time>
      </trkpt>
      <trkpt lat="45.9913" lon="4.71477">
        <ele>191</ele>
        <time>2016-10-04T08:48:23Z</time>
      </trkpt>
      <trkpt lat="45.99138" lon="4.71482">
        <ele>191</ele>
        <time>2016-10-04T08:48:24Z</time>
      </trkpt>
      <trkpt lat="45.99153" lon="4.71496">
        <ele>192</ele>
        <time>2016-10-04T08:48:25Z</time>
      </trkpt>
      <trkpt lat="45.99159" lon="4.71498">
        <ele>192</ele>
        <time>2016-10-04T08:48:27Z</time>
      </trkpt>
      <trkpt lat="45.99165" lon="4.71497">
        <ele>193</ele>
        <time>2016-10-04T08:48:28Z</time>
      </trkpt>
      <trkpt lat="45.99176" lon="4.71504">
        <ele>194</ele>
        <time>2016-10-04T08:48:29Z</time>
      </trkpt>
      <trkpt lat="45.99184" lon="4.71507">
        <ele>194</ele>
        <time>2016-10-04T08:48:30Z</time>
      </trkpt>
      <trkpt lat="45.9919" lon="4.71509">
        <ele>194</ele>
        <time>2016-10-04T08:48:31Z</time>
      </trkpt>
      <trkpt lat="45.99195" lon="4.71511">
        <ele>195</ele>
        <time>2016-10-04T08:48:32Z</time>
      </trkpt>
      <trkpt lat="45.99202" lon="4.71515">
        <ele>195</ele>
        <time>2016-10-04T08:48:33Z</time>
      </trkpt>
      <trkpt lat="45.99208" lon="4.71515">
        <ele>195</ele>
        <time>2016-10-04T08:48:36Z</time>
      </trkpt>
      <trkpt lat="45.99212" lon="4.71515">
        <ele>195</ele>
        <time>2016-10-04T08:48:37Z</time>
      </trkpt>
      <trkpt lat="45.9922" lon="4.71514">
        <ele>195</ele>
        <time>2016-10-04T08:48:39Z</time>
      </trkpt>
      <trkpt lat="45.99224" lon="4.71513">
        <ele>195</ele>
        <time>2016-10-04T08:48:40Z</time>
      </trkpt>
      <trkpt lat="45.99232" lon="4.71511">
        <ele>196</ele>
        <time>2016-10-04T08:48:42Z</time>
      </trkpt>
      <trkpt lat="45.99237" lon="4.7151">
        <ele>196</ele>
        <time>2016-10-04T08:48:43Z</time>
      </trkpt>
      <trkpt lat="45.99246" lon="4.71509">
        <ele>196</ele>
        <time>2016-10-04T08:48:45Z</time>
      </trkpt>
      <trkpt lat="45.99249" lon="4.71508">
        <ele>196</ele>
        <time>2016-10-04T08:48:46Z</time>
      </trkpt>
      <trkpt lat="45.99254" lon="4.71509">
        <ele>197</ele>
        <time>2016-10-04T08:48:47Z</time>
      </trkpt>
      <trkpt lat="45.99267" lon="4.7152">
        <ele>198</ele>
        <time>2016-10-04T08:48:48Z</time>
      </trkpt>
      <trkpt lat="45.99273" lon="4.71521">
        <ele>198</ele>
        <time>2016-10-04T08:48:49Z</time>
      </trkpt>
      <trkpt lat="45.99278" lon="4.71523">
        <ele>199</ele>
        <time>2016-10-04T08:48:50Z</time>
      </trkpt>
      <trkpt lat="45.99284" lon="4.71522">
        <ele>199</ele>
        <time>2016-10-04T08:48:51Z</time>
      </trkpt>
      <trkpt lat="45.99289" lon="4.71522">
        <ele>199</ele>
        <time>2016-10-04T08:48:52Z</time>
      </trkpt>
      <trkpt lat="45.99294" lon="4.71522">
        <ele>199</ele>
        <time>2016-10-04T08:48:53Z</time>
      </trkpt>
      <trkpt lat="45.99298" lon="4.71522">
        <ele>199</ele>
        <time>2016-10-04T08:48:54Z</time>
      </trkpt>
      <trkpt lat="45.99303" lon="4.71521">
        <ele>199</ele>
        <time>2016-10-04T08:48:55Z</time>
      </trkpt>
      <trkpt lat="45.99308" lon="4.71521">
        <ele>199</ele>
        <time>2016-10-04T08:48:56Z</time>
      </trkpt>
      <trkpt lat="45.99313" lon="4.71521">
        <ele>199</ele>
        <time>2016-10-04T08:48:57Z</time>
      </trkpt>
      <trkpt lat="45.99317" lon="4.71521">
        <ele>200</ele>
        <time>2016-10-04T08:48:58Z</time>
      </trkpt>
      <trkpt lat="45.99322" lon="4.71521">
        <ele>200</ele>
        <time>2016-10-04T08:48:59Z</time>
      </trkpt>
      <trkpt lat="45.99326" lon="4.7152">
        <ele>200</ele>
        <time>2016-10-04T08:49:00Z</time>
      </trkpt>
      <trkpt lat="45.99335" lon="4.71519">
        <ele>200</ele>
        <time>2016-10-04T08:49:02Z</time>
      </trkpt>
      <trkpt lat="45.9934" lon="4.71518">
        <ele>200</ele>
        <time>2016-10-04T08:49:03Z</time>
      </trkpt>
      <trkpt lat="45.99348" lon="4.71515">
        <ele>200</ele>
        <time>2016-10-04T08:49:05Z</time>
      </trkpt>
      <trkpt lat="45.99352" lon="4.71516">
        <ele>200</ele>
        <time>2016-10-04T08:49:06Z</time>
      </trkpt>
      <trkpt lat="45.9936" lon="4.71517">
        <ele>200</ele>
        <time>2016-10-04T08:49:08Z</time>
      </trkpt>
      <trkpt lat="45.99364" lon="4.71518">
        <ele>200</ele>
        <time>2016-10-04T08:49:09Z</time>
      </trkpt>
      <trkpt lat="45.99369" lon="4.71519">
        <ele>200</ele>
        <time>2016-10-04T08:49:10Z</time>
      </trkpt>
      <trkpt lat="45.99374" lon="4.7152">
        <ele>200</ele>
        <time>2016-10-04T08:49:11Z</time>
      </trkpt>
      <trkpt lat="45.99379" lon="4.7152">
        <ele>200</ele>
        <time>2016-10-04T08:49:12Z</time>
      </trkpt>
      <trkpt lat="45.99384" lon="4.71519">
        <ele>200</ele>
        <time>2016-10-04T08:49:13Z</time>
      </trkpt>
      <trkpt lat="45.99388" lon="4.71518">
        <ele>200</ele>
        <time>2016-10-04T08:49:14Z</time>
      </trkpt>
      <trkpt lat="45.99393" lon="4.71519">
        <ele>200</ele>
        <time>2016-10-04T08:49:15Z</time>
      </trkpt>
      <trkpt lat="45.99397" lon="4.71519">
        <ele>200</ele>
        <time>2016-10-04T08:49:16Z</time>
      </trkpt>
      <trkpt lat="45.99402" lon="4.71519">
        <ele>200</ele>
        <time>2016-10-04T08:49:17Z</time>
      </trkpt>
      <trkpt lat="45.99411" lon="4.7152">
        <ele>200</ele>
        <time>2016-10-04T08:49:19Z</time>
      </trkpt>
      <trkpt lat="45.99416" lon="4.7152">
        <ele>200</ele>
        <time>2016-10-04T08:49:20Z</time>
      </trkpt>
      <trkpt lat="45.9942" lon="4.71519">
        <ele>199</ele>
        <time>2016-10-04T08:49:21Z</time>
      </trkpt>
      <trkpt lat="45.99425" lon="4.71519">
        <ele>199</ele>
        <time>2016-10-04T08:49:22Z</time>
      </trkpt>
      <trkpt lat="45.99431" lon="4.71519">
        <ele>199</ele>
        <time>2016-10-04T08:49:23Z</time>
      </trkpt>
      <trkpt lat="45.99436" lon="4.71518">
        <ele>199</ele>
        <time>2016-10-04T08:49:24Z</time>
      </trkpt>
      <trkpt lat="45.99441" lon="4.71516">
        <ele>199</ele>
        <time>2016-10-04T08:49:25Z</time>
      </trkpt>
      <trkpt lat="45.99446" lon="4.71515">
        <ele>199</ele>
        <time>2016-10-04T08:49:26Z</time>
      </trkpt>
      <trkpt lat="45.9945" lon="4.71514">
        <ele>199</ele>
        <time>2016-10-04T08:49:27Z</time>
      </trkpt>
      <trkpt lat="45.99455" lon="4.71513">
        <ele>199</ele>
        <time>2016-10-04T08:49:28Z</time>
      </trkpt>
      <trkpt lat="45.9946" lon="4.71512">
        <ele>199</ele>
        <time>2016-10-04T08:49:29Z</time>
      </trkpt>
      <trkpt lat="45.99465" lon="4.71513">
        <ele>199</ele>
        <time>2016-10-04T08:49:30Z</time>
      </trkpt>
      <trkpt lat="45.9947" lon="4.71512">
        <ele>199</ele>
        <time>2016-10-04T08:49:31Z</time>
      </trkpt>
      <trkpt lat="45.99474" lon="4.71513">
        <ele>199</ele>
        <time>2016-10-04T08:49:32Z</time>
      </trkpt>
      <trkpt lat="45.99479" lon="4.71513">
        <ele>199</ele>
        <time>2016-10-04T08:49:33Z</time>
      </trkpt>
      <trkpt lat="45.99484" lon="4.71513">
        <ele>199</ele>
        <time>2016-10-04T08:49:34Z</time>
      </trkpt>
      <trkpt lat="45.99489" lon="4.71512">
        <ele>199</ele>
        <time>2016-10-04T08:49:35Z</time>
      </trkpt>
      <trkpt lat="45.99495" lon="4.71513">
        <ele>199</ele>
        <time>2016-10-04T08:49:36Z</time>
      </trkpt>
      <trkpt lat="45.995" lon="4.71513">
        <ele>199</ele>
        <time>2016-10-04T08:49:37Z</time>
      </trkpt>
      <trkpt lat="45.99505" lon="4.71513">
        <ele>199</ele>
        <time>2016-10-04T08:49:38Z</time>
      </trkpt>
      <trkpt lat="45.9951" lon="4.71513">
        <ele>199</ele>
        <time>2016-10-04T08:49:39Z</time>
      </trkpt>
      <trkpt lat="45.99515" lon="4.71513">
        <ele>199</ele>
        <time>2016-10-04T08:49:40Z</time>
      </trkpt>
      <trkpt lat="45.99519" lon="4.71514">
        <ele>198</ele>
        <time>2016-10-04T08:49:41Z</time>
      </trkpt>
      <trkpt lat="45.99524" lon="4.71514">
        <ele>198</ele>
        <time>2016-10-04T08:49:42Z</time>
      </trkpt>
      <trkpt lat="45.99532" lon="4.71515">
        <ele>198</ele>
        <time>2016-10-04T08:49:44Z</time>
      </trkpt>
      <trkpt lat="45.99536" lon="4.71514">
        <ele>198</ele>
        <time>2016-10-04T08:49:45Z</time>
      </trkpt>
      <trkpt lat="45.99544" lon="4.71514">
        <ele>198</ele>
        <time>2016-10-04T08:49:47Z</time>
      </trkpt>
      <trkpt lat="45.99548" lon="4.71514">
        <ele>198</ele>
        <time>2016-10-04T08:49:48Z</time>
      </trkpt>
      <trkpt lat="45.99557" lon="4.71514">
        <ele>198</ele>
        <time>2016-10-04T08:49:50Z</time>
      </trkpt>
      <trkpt lat="45.99561" lon="4.71513">
        <ele>198</ele>
        <time>2016-10-04T08:49:51Z</time>
      </trkpt>
      <trkpt lat="45.9957" lon="4.71512">
        <ele>197</ele>
        <time>2016-10-04T08:49:53Z</time>
      </trkpt>
      <trkpt lat="45.99573" lon="4.71513">
        <ele>197</ele>
        <time>2016-10-04T08:49:54Z</time>
      </trkpt>
      <trkpt lat="45.9958" lon="4.71517">
        <ele>197</ele>
        <time>2016-10-04T08:49:56Z</time>
      </trkpt>
      <trkpt lat="45.99583" lon="4.7152">
        <ele>197</ele>
        <time>2016-10-04T08:49:57Z</time>
      </trkpt>
      <trkpt lat="45.99588" lon="4.71529">
        <ele>197</ele>
        <time>2016-10-04T08:49:59Z</time>
      </trkpt>
      <trkpt lat="45.99591" lon="4.71534">
        <ele>197</ele>
        <time>2016-10-04T08:50:00Z</time>
      </trkpt>
      <trkpt lat="45.99594" lon="4.71539">
        <ele>198</ele>
        <time>2016-10-04T08:50:01Z</time>
      </trkpt>
      <trkpt lat="45.99598" lon="4.71543">
        <ele>198</ele>
        <time>2016-10-04T08:50:02Z</time>
      </trkpt>
      <trkpt lat="45.99603" lon="4.71544">
        <ele>198</ele>
        <time>2016-10-04T08:50:03Z</time>
      </trkpt>
      <trkpt lat="45.99607" lon="4.71541">
        <ele>198</ele>
        <time>2016-10-04T08:50:04Z</time>
      </trkpt>
      <trkpt lat="45.99612" lon="4.71537">
        <ele>198</ele>
        <time>2016-10-04T08:50:05Z</time>
      </trkpt>
      <trkpt lat="45.99614" lon="4.71531">
        <ele>198</ele>
        <time>2016-10-04T08:50:06Z</time>
      </trkpt>
      <trkpt lat="45.99615" lon="4.71523">
        <ele>197</ele>
        <time>2016-10-04T08:50:07Z</time>
      </trkpt>
      <trkpt lat="45.99614" lon="4.71515">
        <ele>197</ele>
        <time>2016-10-04T08:50:08Z</time>
      </trkpt>
      <trkpt lat="45.99613" lon="4.71508">
        <ele>197</ele>
        <time>2016-10-04T08:50:09Z</time>
      </trkpt>
      <trkpt lat="45.99613" lon="4.715">
        <ele>197</ele>
        <time>2016-10-04T08:50:10Z</time>
      </trkpt>
      <trkpt lat="45.99612" lon="4.71493">
        <ele>197</ele>
        <time>2016-10-04T08:50:11Z</time>
      </trkpt>
      <trkpt lat="45.99613" lon="4.71485">
        <ele>197</ele>
        <time>2016-10-04T08:50:12Z</time>
      </trkpt>
      <trkpt lat="45.99615" lon="4.71479">
        <ele>197</ele>
        <time>2016-10-04T08:50:13Z</time>
      </trkpt>
      <trkpt lat="45.99617" lon="4.71472">
        <ele>197</ele>
        <time>2016-10-04T08:50:14Z</time>
      </trkpt>
      <trkpt lat="45.99622" lon="4.71463">
        <ele>197</ele>
        <time>2016-10-04T08:50:16Z</time>
      </trkpt>
      <trkpt lat="45.99625" lon="4.71457">
        <ele>197</ele>
        <time>2016-10-04T08:50:17Z</time>
      </trkpt>
      <trkpt lat="45.99628" lon="4.71447">
        <ele>197</ele>
        <time>2016-10-04T08:50:19Z</time>
      </trkpt>
      <trkpt lat="45.99631" lon="4.7144">
        <ele>197</ele>
        <time>2016-10-04T08:50:20Z</time>
      </trkpt>
      <trkpt lat="45.99634" lon="4.71432">
        <ele>197</ele>
        <time>2016-10-04T08:50:21Z</time>
      </trkpt>
      <trkpt lat="45.99635" lon="4.71426">
        <ele>197</ele>
        <time>2016-10-04T08:50:22Z</time>
      </trkpt>
      <trkpt lat="45.99638" lon="4.7142">
        <ele>197</ele>
        <time>2016-10-04T08:50:23Z</time>
      </trkpt>
      <trkpt lat="45.99641" lon="4.71414">
        <ele>198</ele>
        <time>2016-10-04T08:50:24Z</time>
      </trkpt>
      <trkpt lat="45.99645" lon="4.71407">
        <ele>198</ele>
        <time>2016-10-04T08:50:25Z</time>
      </trkpt>
      <trkpt lat="45.99648" lon="4.71401">
        <ele>198</ele>
        <time>2016-10-04T08:50:26Z</time>
      </trkpt>
      <trkpt lat="45.99652" lon="4.71395">
        <ele>198</ele>
        <time>2016-10-04T08:50:27Z</time>
      </trkpt>
      <trkpt lat="45.99655" lon="4.71389">
        <ele>198</ele>
        <time>2016-10-04T08:50:28Z</time>
      </trkpt>
      <trkpt lat="45.99658" lon="4.71384">
        <ele>198</ele>
        <time>2016-10-04T08:50:30Z</time>
      </trkpt>
      <trkpt lat="45.99662" lon="4.71377">
        <ele>198</ele>
        <time>2016-10-04T08:50:31Z</time>
      </trkpt>
      <trkpt lat="45.99666" lon="4.7137">
        <ele>197</ele>
        <time>2016-10-04T08:50:32Z</time>
      </trkpt>
      <trkpt lat="45.99669" lon="4.71364">
        <ele>197</ele>
        <time>2016-10-04T08:50:33Z</time>
      </trkpt>
      <trkpt lat="45.99672" lon="4.71357">
        <ele>197</ele>
        <time>2016-10-04T08:50:34Z</time>
      </trkpt>
      <trkpt lat="45.99675" lon="4.71351">
        <ele>197</ele>
        <time>2016-10-04T08:50:35Z</time>
      </trkpt>
      <trkpt lat="45.99678" lon="4.71344">
        <ele>197</ele>
        <time>2016-10-04T08:50:36Z</time>
      </trkpt>
      <trkpt lat="45.99682" lon="4.71338">
        <ele>197</ele>
        <time>2016-10-04T08:50:37Z</time>
      </trkpt>
      <trkpt lat="45.99686" lon="4.71331">
        <ele>197</ele>
        <time>2016-10-04T08:50:38Z</time>
      </trkpt>
      <trkpt lat="45.9969" lon="4.71324">
        <ele>197</ele>
        <time>2016-10-04T08:50:39Z</time>
      </trkpt>
      <trkpt lat="45.99693" lon="4.71317">
        <ele>198</ele>
        <time>2016-10-04T08:50:40Z</time>
      </trkpt>
      <trkpt lat="45.99698" lon="4.71304">
        <ele>198</ele>
        <time>2016-10-04T08:50:41Z</time>
      </trkpt>
      <trkpt lat="45.99703" lon="4.71294">
        <ele>198</ele>
        <time>2016-10-04T08:50:42Z</time>
      </trkpt>
      <trkpt lat="45.99707" lon="4.71286">
        <ele>198</ele>
        <time>2016-10-04T08:50:43Z</time>
      </trkpt>
      <trkpt lat="45.9971" lon="4.7128">
        <ele>198</ele>
        <time>2016-10-04T08:50:44Z</time>
      </trkpt>
      <trkpt lat="45.99714" lon="4.71275">
        <ele>198</ele>
        <time>2016-10-04T08:50:45Z</time>
      </trkpt>
      <trkpt lat="45.9972" lon="4.71265">
        <ele>198</ele>
        <time>2016-10-04T08:50:47Z</time>
      </trkpt>
      <trkpt lat="45.99723" lon="4.71261">
        <ele>198</ele>
        <time>2016-10-04T08:50:48Z</time>
      </trkpt>
      <trkpt lat="45.99727" lon="4.71257">
        <ele>198</ele>
        <time>2016-10-04T08:50:49Z</time>
      </trkpt>
      <trkpt lat="45.99729" lon="4.7125">
        <ele>198</ele>
        <time>2016-10-04T08:50:50Z</time>
      </trkpt>
      <trkpt lat="45.99733" lon="4.71245">
        <ele>198</ele>
        <time>2016-10-04T08:50:51Z</time>
      </trkpt>
      <trkpt lat="45.99736" lon="4.71239">
        <ele>198</ele>
        <time>2016-10-04T08:50:52Z</time>
      </trkpt>
      <trkpt lat="45.99739" lon="4.71233">
        <ele>198</ele>
        <time>2016-10-04T08:50:53Z</time>
      </trkpt>
      <trkpt lat="45.99742" lon="4.71227">
        <ele>198</ele>
        <time>2016-10-04T08:50:54Z</time>
      </trkpt>
      <trkpt lat="45.99745" lon="4.7122">
        <ele>198</ele>
        <time>2016-10-04T08:50:55Z</time>
      </trkpt>
      <trkpt lat="45.99749" lon="4.71215">
        <ele>198</ele>
        <time>2016-10-04T08:50:56Z</time>
      </trkpt>
      <trkpt lat="45.99753" lon="4.7121">
        <ele>199</ele>
        <time>2016-10-04T08:50:57Z</time>
      </trkpt>
      <trkpt lat="45.99757" lon="4.71203">
        <ele>198</ele>
        <time>2016-10-04T08:50:58Z</time>
      </trkpt>
      <trkpt lat="45.99761" lon="4.71197">
        <ele>198</ele>
        <time>2016-10-04T08:50:59Z</time>
      </trkpt>
      <trkpt lat="45.99764" lon="4.71191">
        <ele>198</ele>
        <time>2016-10-04T08:51:00Z</time>
      </trkpt>
      <trkpt lat="45.99767" lon="4.71185">
        <ele>198</ele>
        <time>2016-10-04T08:51:01Z</time>
      </trkpt>
      <trkpt lat="45.99771" lon="4.71178">
        <ele>198</ele>
        <time>2016-10-04T08:51:02Z</time>
      </trkpt>
      <trkpt lat="45.99774" lon="4.7117">
        <ele>198</ele>
        <time>2016-10-04T08:51:03Z</time>
      </trkpt>
      <trkpt lat="45.99778" lon="4.71162">
        <ele>198</ele>
        <time>2016-10-04T08:51:04Z</time>
      </trkpt>
      <trkpt lat="45.99782" lon="4.71155">
        <ele>198</ele>
        <time>2016-10-04T08:51:05Z</time>
      </trkpt>
      <trkpt lat="45.99785" lon="4.71147">
        <ele>198</ele>
        <time>2016-10-04T08:51:06Z</time>
      </trkpt>
      <trkpt lat="45.9979" lon="4.71139">
        <ele>198</ele>
        <time>2016-10-04T08:51:07Z</time>
      </trkpt>
      <trkpt lat="45.99793" lon="4.71132">
        <ele>198</ele>
        <time>2016-10-04T08:51:08Z</time>
      </trkpt>
      <trkpt lat="45.99795" lon="4.71125">
        <ele>198</ele>
        <time>2016-10-04T08:51:09Z</time>
      </trkpt>
      <trkpt lat="45.99797" lon="4.71117">
        <ele>198</ele>
        <time>2016-10-04T08:51:10Z</time>
      </trkpt>
      <trkpt lat="45.99799" lon="4.71109">
        <ele>198</ele>
        <time>2016-10-04T08:51:11Z</time>
      </trkpt>
      <trkpt lat="45.998" lon="4.71103">
        <ele>198</ele>
        <time>2016-10-04T08:51:12Z</time>
      </trkpt>
      <trkpt lat="45.99802" lon="4.71095">
        <ele>198</ele>
        <time>2016-10-04T08:51:13Z</time>
      </trkpt>
      <trkpt lat="45.99803" lon="4.71086">
        <ele>198</ele>
        <time>2016-10-04T08:51:14Z</time>
      </trkpt>
      <trkpt lat="45.99805" lon="4.71078">
        <ele>199</ele>
        <time>2016-10-04T08:51:15Z</time>
      </trkpt>
      <trkpt lat="45.99806" lon="4.71069">
        <ele>199</ele>
        <time>2016-10-04T08:51:16Z</time>
      </trkpt>
      <trkpt lat="45.99808" lon="4.71061">
        <ele>199</ele>
        <time>2016-10-04T08:51:17Z</time>
      </trkpt>
      <trkpt lat="45.99809" lon="4.71052">
        <ele>199</ele>
        <time>2016-10-04T08:51:18Z</time>
      </trkpt>
      <trkpt lat="45.99811" lon="4.71045">
        <ele>199</ele>
        <time>2016-10-04T08:51:19Z</time>
      </trkpt>
      <trkpt lat="45.99813" lon="4.71038">
        <ele>199</ele>
        <time>2016-10-04T08:51:20Z</time>
      </trkpt>
      <trkpt lat="45.99814" lon="4.71031">
        <ele>199</ele>
        <time>2016-10-04T08:51:21Z</time>
      </trkpt>
      <trkpt lat="45.99815" lon="4.71024">
        <ele>199</ele>
        <time>2016-10-04T08:51:22Z</time>
      </trkpt>
      <trkpt lat="45.99816" lon="4.71018">
        <ele>200</ele>
        <time>2016-10-04T08:51:23Z</time>
      </trkpt>
      <trkpt lat="45.99817" lon="4.7101">
        <ele>200</ele>
        <time>2016-10-04T08:51:24Z</time>
      </trkpt>
      <trkpt lat="45.99819" lon="4.71002">
        <ele>200</ele>
        <time>2016-10-04T08:51:25Z</time>
      </trkpt>
      <trkpt lat="45.9982" lon="4.70994">
        <ele>200</ele>
        <time>2016-10-04T08:51:26Z</time>
      </trkpt>
      <trkpt lat="45.99821" lon="4.70987">
        <ele>200</ele>
        <time>2016-10-04T08:51:27Z</time>
      </trkpt>
      <trkpt lat="45.99822" lon="4.7098">
        <ele>200</ele>
        <time>2016-10-04T08:51:28Z</time>
      </trkpt>
      <trkpt lat="45.99823" lon="4.70971">
        <ele>200</ele>
        <time>2016-10-04T08:51:29Z</time>
      </trkpt>
      <trkpt lat="45.99824" lon="4.70963">
        <ele>200</ele>
        <time>2016-10-04T08:51:30Z</time>
      </trkpt>
      <trkpt lat="45.99825" lon="4.70955">
        <ele>199</ele>
        <time>2016-10-04T08:51:31Z</time>
      </trkpt>
      <trkpt lat="45.99827" lon="4.70948">
        <ele>199</ele>
        <time>2016-10-04T08:51:32Z</time>
      </trkpt>
      <trkpt lat="45.99829" lon="4.7094">
        <ele>199</ele>
        <time>2016-10-04T08:51:33Z</time>
      </trkpt>
      <trkpt lat="45.99831" lon="4.70932">
        <ele>199</ele>
        <time>2016-10-04T08:51:34Z</time>
      </trkpt>
      <trkpt lat="45.99833" lon="4.70924">
        <ele>199</ele>
        <time>2016-10-04T08:51:35Z</time>
      </trkpt>
      <trkpt lat="45.99834" lon="4.70917">
        <ele>199</ele>
        <time>2016-10-04T08:51:36Z</time>
      </trkpt>
      <trkpt lat="45.99835" lon="4.70909">
        <ele>199</ele>
        <time>2016-10-04T08:51:37Z</time>
      </trkpt>
      <trkpt lat="45.99836" lon="4.70902">
        <ele>199</ele>
        <time>2016-10-04T08:51:38Z</time>
      </trkpt>
      <trkpt lat="45.99837" lon="4.70895">
        <ele>199</ele>
        <time>2016-10-04T08:51:39Z</time>
      </trkpt>
      <trkpt lat="45.99838" lon="4.70888">
        <ele>199</ele>
        <time>2016-10-04T08:51:40Z</time>
      </trkpt>
      <trkpt lat="45.99839" lon="4.70881">
        <ele>200</ele>
        <time>2016-10-04T08:51:41Z</time>
      </trkpt>
      <trkpt lat="45.99839" lon="4.70873">
        <ele>200</ele>
        <time>2016-10-04T08:51:42Z</time>
      </trkpt>
      <trkpt lat="45.99842" lon="4.70866">
        <ele>200</ele>
        <time>2016-10-04T08:51:43Z</time>
      </trkpt>
      <trkpt lat="45.99845" lon="4.7086">
        <ele>200</ele>
        <time>2016-10-04T08:51:44Z</time>
      </trkpt>
      <trkpt lat="45.99847" lon="4.70853">
        <ele>200</ele>
        <time>2016-10-04T08:51:45Z</time>
      </trkpt>
      <trkpt lat="45.99848" lon="4.70846">
        <ele>201</ele>
        <time>2016-10-04T08:51:46Z</time>
      </trkpt>
      <trkpt lat="45.99849" lon="4.70838">
        <ele>201</ele>
        <time>2016-10-04T08:51:47Z</time>
      </trkpt>
      <trkpt lat="45.99851" lon="4.70832">
        <ele>201</ele>
        <time>2016-10-04T08:51:48Z</time>
      </trkpt>
      <trkpt lat="45.99853" lon="4.70824">
        <ele>201</ele>
        <time>2016-10-04T08:51:49Z</time>
      </trkpt>
      <trkpt lat="45.99855" lon="4.70816">
        <ele>201</ele>
        <time>2016-10-04T08:51:50Z</time>
      </trkpt>
      <trkpt lat="45.99856" lon="4.70807">
        <ele>201</ele>
        <time>2016-10-04T08:51:51Z</time>
      </trkpt>
      <trkpt lat="45.99858" lon="4.70799">
        <ele>201</ele>
        <time>2016-10-04T08:51:52Z</time>
      </trkpt>
      <trkpt lat="45.9986" lon="4.70791">
        <ele>200</ele>
        <time>2016-10-04T08:51:53Z</time>
      </trkpt>
      <trkpt lat="45.99861" lon="4.70783">
        <ele>200</ele>
        <time>2016-10-04T08:51:54Z</time>
      </trkpt>
      <trkpt lat="45.99863" lon="4.70775">
        <ele>200</ele>
        <time>2016-10-04T08:51:55Z</time>
      </trkpt>
      <trkpt lat="45.99865" lon="4.70768">
        <ele>200</ele>
        <time>2016-10-04T08:51:56Z</time>
      </trkpt>
      <trkpt lat="45.99868" lon="4.7076">
        <ele>200</ele>
        <time>2016-10-04T08:51:57Z</time>
      </trkpt>
      <trkpt lat="45.9987" lon="4.70752">
        <ele>200</ele>
        <time>2016-10-04T08:51:58Z</time>
      </trkpt>
      <trkpt lat="45.99871" lon="4.70745">
        <ele>200</ele>
        <time>2016-10-04T08:51:59Z</time>
      </trkpt>
      <trkpt lat="45.99872" lon="4.70737">
        <ele>200</ele>
        <time>2016-10-04T08:52:00Z</time>
      </trkpt>
      <trkpt lat="45.99873" lon="4.70731">
        <ele>200</ele>
        <time>2016-10-04T08:52:01Z</time>
      </trkpt>
      <trkpt lat="45.99875" lon="4.70724">
        <ele>200</ele>
        <time>2016-10-04T08:52:02Z</time>
      </trkpt>
      <trkpt lat="45.99875" lon="4.70718">
        <ele>200</ele>
        <time>2016-10-04T08:52:03Z</time>
      </trkpt>
      <trkpt lat="45.99876" lon="4.70711">
        <ele>200</ele>
        <time>2016-10-04T08:52:04Z</time>
      </trkpt>
      <trkpt lat="45.99878" lon="4.707">
        <ele>200</ele>
        <time>2016-10-04T08:52:06Z</time>
      </trkpt>
      <trkpt lat="45.99879" lon="4.70694">
        <ele>200</ele>
        <time>2016-10-04T08:52:07Z</time>
      </trkpt>
      <trkpt lat="45.9988" lon="4.70688">
        <ele>200</ele>
        <time>2016-10-04T08:52:08Z</time>
      </trkpt>
      <trkpt lat="45.99882" lon="4.70681">
        <ele>200</ele>
        <time>2016-10-04T08:52:09Z</time>
      </trkpt>
      <trkpt lat="45.99883" lon="4.70675">
        <ele>200</ele>
        <time>2016-10-04T08:52:10Z</time>
      </trkpt>
      <trkpt lat="45.99885" lon="4.70668">
        <ele>200</ele>
        <time>2016-10-04T08:52:11Z</time>
      </trkpt>
      <trkpt lat="45.99889" lon="4.7066">
        <ele>200</ele>
        <time>2016-10-04T08:52:13Z</time>
      </trkpt>
      <trkpt lat="45.99894" lon="4.70657">
        <ele>200</ele>
        <time>2016-10-04T08:52:14Z</time>
      </trkpt>
      <trkpt lat="45.99899" lon="4.70655">
        <ele>200</ele>
        <time>2016-10-04T08:52:15Z</time>
      </trkpt>
      <trkpt lat="45.99904" lon="4.70654">
        <ele>200</ele>
        <time>2016-10-04T08:52:16Z</time>
      </trkpt>
      <trkpt lat="45.9991" lon="4.70652">
        <ele>200</ele>
        <time>2016-10-04T08:52:17Z</time>
      </trkpt>
      <trkpt lat="45.99915" lon="4.70651">
        <ele>200</ele>
        <time>2016-10-04T08:52:18Z</time>
      </trkpt>
      <trkpt lat="45.99921" lon="4.7065">
        <ele>199</ele>
        <time>2016-10-04T08:52:19Z</time>
      </trkpt>
      <trkpt lat="45.99926" lon="4.70649">
        <ele>199</ele>
        <time>2016-10-04T08:52:20Z</time>
      </trkpt>
      <trkpt lat="45.99931" lon="4.70647">
        <ele>199</ele>
        <time>2016-10-04T08:52:21Z</time>
      </trkpt>
      <trkpt lat="45.99937" lon="4.70646">
        <ele>199</ele>
        <time>2016-10-04T08:52:22Z</time>
      </trkpt>
      <trkpt lat="45.99942" lon="4.70645">
        <ele>199</ele>
        <time>2016-10-04T08:52:23Z</time>
      </trkpt>
      <trkpt lat="45.99948" lon="4.70643">
        <ele>199</ele>
        <time>2016-10-04T08:52:24Z</time>
      </trkpt>
      <trkpt lat="45.99953" lon="4.70642">
        <ele>199</ele>
        <time>2016-10-04T08:52:25Z</time>
      </trkpt>
      <trkpt lat="45.99959" lon="4.7064">
        <ele>199</ele>
        <time>2016-10-04T08:52:26Z</time>
      </trkpt>
      <trkpt lat="45.99964" lon="4.70639">
        <ele>199</ele>
        <time>2016-10-04T08:52:27Z</time>
      </trkpt>
      <trkpt lat="45.9997" lon="4.70639">
        <ele>199</ele>
        <time>2016-10-04T08:52:28Z</time>
      </trkpt>
      <trkpt lat="45.99975" lon="4.70639">
        <ele>199</ele>
        <time>2016-10-04T08:52:29Z</time>
      </trkpt>
      <trkpt lat="45.9998" lon="4.70637">
        <ele>199</ele>
        <time>2016-10-04T08:52:30Z</time>
      </trkpt>
      <trkpt lat="45.99985" lon="4.70634">
        <ele>199</ele>
        <time>2016-10-04T08:52:31Z</time>
      </trkpt>
      <trkpt lat="45.9999" lon="4.70633">
        <ele>199</ele>
        <time>2016-10-04T08:52:32Z</time>
      </trkpt>
      <trkpt lat="45.99996" lon="4.70633">
        <ele>199</ele>
        <time>2016-10-04T08:52:33Z</time>
      </trkpt>
      <trkpt lat="46.00002" lon="4.70631">
        <ele>198</ele>
        <time>2016-10-04T08:52:34Z</time>
      </trkpt>
      <trkpt lat="46.00007" lon="4.70629">
        <ele>198</ele>
        <time>2016-10-04T08:52:35Z</time>
      </trkpt>
      <trkpt lat="46.00013" lon="4.70629">
        <ele>198</ele>
        <time>2016-10-04T08:52:36Z</time>
      </trkpt>
      <trkpt lat="46.00018" lon="4.70627">
        <ele>198</ele>
        <time>2016-10-04T08:52:37Z</time>
      </trkpt>
      <trkpt lat="46.00023" lon="4.70624">
        <ele>199</ele>
        <time>2016-10-04T08:52:38Z</time>
      </trkpt>
      <trkpt lat="46.00028" lon="4.70621">
        <ele>199</ele>
        <time>2016-10-04T08:52:39Z</time>
      </trkpt>
      <trkpt lat="46.00033" lon="4.7062">
        <ele>199</ele>
        <time>2016-10-04T08:52:40Z</time>
      </trkpt>
      <trkpt lat="46.00038" lon="4.70619">
        <ele>199</ele>
        <time>2016-10-04T08:52:41Z</time>
      </trkpt>
      <trkpt lat="46.00044" lon="4.70618">
        <ele>198</ele>
        <time>2016-10-04T08:52:42Z</time>
      </trkpt>
      <trkpt lat="46.00048" lon="4.70617">
        <ele>198</ele>
        <time>2016-10-04T08:52:43Z</time>
      </trkpt>
      <trkpt lat="46.00053" lon="4.70617">
        <ele>198</ele>
        <time>2016-10-04T08:52:44Z</time>
      </trkpt>
      <trkpt lat="46.00058" lon="4.70615">
        <ele>198</ele>
        <time>2016-10-04T08:52:45Z</time>
      </trkpt>
      <trkpt lat="46.00062" lon="4.70613">
        <ele>198</ele>
        <time>2016-10-04T08:52:46Z</time>
      </trkpt>
      <trkpt lat="46.00067" lon="4.70611">
        <ele>198</ele>
        <time>2016-10-04T08:52:47Z</time>
      </trkpt>
      <trkpt lat="46.00072" lon="4.7061">
        <ele>198</ele>
        <time>2016-10-04T08:52:48Z</time>
      </trkpt>
      <trkpt lat="46.00077" lon="4.70607">
        <ele>198</ele>
        <time>2016-10-04T08:52:49Z</time>
      </trkpt>
      <trkpt lat="46.00082" lon="4.70604">
        <ele>198</ele>
        <time>2016-10-04T08:52:50Z</time>
      </trkpt>
      <trkpt lat="46.00087" lon="4.70599">
        <ele>198</ele>
        <time>2016-10-04T08:52:51Z</time>
      </trkpt>
      <trkpt lat="46.00093" lon="4.70596">
        <ele>198</ele>
        <time>2016-10-04T08:52:52Z</time>
      </trkpt>
      <trkpt lat="46.00098" lon="4.70592">
        <ele>198</ele>
        <time>2016-10-04T08:52:53Z</time>
      </trkpt>
      <trkpt lat="46.00103" lon="4.70589">
        <ele>198</ele>
        <time>2016-10-04T08:52:54Z</time>
      </trkpt>
      <trkpt lat="46.00109" lon="4.70587">
        <ele>198</ele>
        <time>2016-10-04T08:52:55Z</time>
      </trkpt>
      <trkpt lat="46.00113" lon="4.70584">
        <ele>198</ele>
        <time>2016-10-04T08:52:56Z</time>
      </trkpt>
      <trkpt lat="46.00118" lon="4.70581">
        <ele>198</ele>
        <time>2016-10-04T08:52:57Z</time>
      </trkpt>
      <trkpt lat="46.00123" lon="4.70577">
        <ele>198</ele>
        <time>2016-10-04T08:52:58Z</time>
      </trkpt>
      <trkpt lat="46.00127" lon="4.70573">
        <ele>198</ele>
        <time>2016-10-04T08:52:59Z</time>
      </trkpt>
      <trkpt lat="46.00132" lon="4.70569">
        <ele>198</ele>
        <time>2016-10-04T08:53:00Z</time>
      </trkpt>
      <trkpt lat="46.00137" lon="4.70567">
        <ele>198</ele>
        <time>2016-10-04T08:53:01Z</time>
      </trkpt>
      <trkpt lat="46.00142" lon="4.70564">
        <ele>198</ele>
        <time>2016-10-04T08:53:02Z</time>
      </trkpt>
      <trkpt lat="46.00147" lon="4.70562">
        <ele>198</ele>
        <time>2016-10-04T08:53:03Z</time>
      </trkpt>
      <trkpt lat="46.00152" lon="4.7056">
        <ele>198</ele>
        <time>2016-10-04T08:53:04Z</time>
      </trkpt>
      <trkpt lat="46.00157" lon="4.70557">
        <ele>198</ele>
        <time>2016-10-04T08:53:05Z</time>
      </trkpt>
      <trkpt lat="46.00163" lon="4.70552">
        <ele>198</ele>
        <time>2016-10-04T08:53:06Z</time>
      </trkpt>
      <trkpt lat="46.00168" lon="4.70549">
        <ele>198</ele>
        <time>2016-10-04T08:53:07Z</time>
      </trkpt>
      <trkpt lat="46.00174" lon="4.70546">
        <ele>198</ele>
        <time>2016-10-04T08:53:08Z</time>
      </trkpt>
      <trkpt lat="46.00179" lon="4.70543">
        <ele>198</ele>
        <time>2016-10-04T08:53:09Z</time>
      </trkpt>
      <trkpt lat="46.00185" lon="4.70542">
        <ele>198</ele>
        <time>2016-10-04T08:53:10Z</time>
      </trkpt>
      <trkpt lat="46.0019" lon="4.70542">
        <ele>198</ele>
        <time>2016-10-04T08:53:11Z</time>
      </trkpt>
      <trkpt lat="46.00195" lon="4.70542">
        <ele>198</ele>
        <time>2016-10-04T08:53:12Z</time>
      </trkpt>
      <trkpt lat="46.00201" lon="4.70542">
        <ele>198</ele>
        <time>2016-10-04T08:53:13Z</time>
      </trkpt>
      <trkpt lat="46.00206" lon="4.70541">
        <ele>198</ele>
        <time>2016-10-04T08:53:14Z</time>
      </trkpt>
      <trkpt lat="46.00211" lon="4.7054">
        <ele>198</ele>
        <time>2016-10-04T08:53:15Z</time>
      </trkpt>
      <trkpt lat="46.00216" lon="4.70539">
        <ele>197</ele>
        <time>2016-10-04T08:53:16Z</time>
      </trkpt>
      <trkpt lat="46.00221" lon="4.70538">
        <ele>197</ele>
        <time>2016-10-04T08:53:17Z</time>
      </trkpt>
      <trkpt lat="46.00227" lon="4.70536">
        <ele>197</ele>
        <time>2016-10-04T08:53:18Z</time>
      </trkpt>
      <trkpt lat="46.00232" lon="4.70535">
        <ele>197</ele>
        <time>2016-10-04T08:53:19Z</time>
      </trkpt>
      <trkpt lat="46.00237" lon="4.70533">
        <ele>197</ele>
        <time>2016-10-04T08:53:20Z</time>
      </trkpt>
      <trkpt lat="46.00242" lon="4.70531">
        <ele>198</ele>
        <time>2016-10-04T08:53:21Z</time>
      </trkpt>
      <trkpt lat="46.00247" lon="4.70531">
        <ele>197</ele>
        <time>2016-10-04T08:53:22Z</time>
      </trkpt>
      <trkpt lat="46.00251" lon="4.70529">
        <ele>197</ele>
        <time>2016-10-04T08:53:23Z</time>
      </trkpt>
      <trkpt lat="46.00256" lon="4.70527">
        <ele>197</ele>
        <time>2016-10-04T08:53:24Z</time>
      </trkpt>
      <trkpt lat="46.00261" lon="4.70525">
        <ele>197</ele>
        <time>2016-10-04T08:53:25Z</time>
      </trkpt>
      <trkpt lat="46.00266" lon="4.70524">
        <ele>197</ele>
        <time>2016-10-04T08:53:26Z</time>
      </trkpt>
      <trkpt lat="46.00271" lon="4.70522">
        <ele>197</ele>
        <time>2016-10-04T08:53:27Z</time>
      </trkpt>
      <trkpt lat="46.00277" lon="4.70522">
        <ele>197</ele>
        <time>2016-10-04T08:53:28Z</time>
      </trkpt>
      <trkpt lat="46.00282" lon="4.70521">
        <ele>197</ele>
        <time>2016-10-04T08:53:29Z</time>
      </trkpt>
      <trkpt lat="46.00287" lon="4.7052">
        <ele>197</ele>
        <time>2016-10-04T08:53:30Z</time>
      </trkpt>
      <trkpt lat="46.00292" lon="4.70519">
        <ele>197</ele>
        <time>2016-10-04T08:53:31Z</time>
      </trkpt>
      <trkpt lat="46.00297" lon="4.70518">
        <ele>197</ele>
        <time>2016-10-04T08:53:32Z</time>
      </trkpt>
      <trkpt lat="46.00302" lon="4.70517">
        <ele>197</ele>
        <time>2016-10-04T08:53:33Z</time>
      </trkpt>
      <trkpt lat="46.00307" lon="4.70516">
        <ele>197</ele>
        <time>2016-10-04T08:53:34Z</time>
      </trkpt>
      <trkpt lat="46.00312" lon="4.70514">
        <ele>197</ele>
        <time>2016-10-04T08:53:35Z</time>
      </trkpt>
      <trkpt lat="46.00317" lon="4.70511">
        <ele>197</ele>
        <time>2016-10-04T08:53:36Z</time>
      </trkpt>
      <trkpt lat="46.00322" lon="4.7051">
        <ele>198</ele>
        <time>2016-10-04T08:53:37Z</time>
      </trkpt>
      <trkpt lat="46.00327" lon="4.70509">
        <ele>198</ele>
        <time>2016-10-04T08:53:38Z</time>
      </trkpt>
      <trkpt lat="46.00332" lon="4.70507">
        <ele>198</ele>
        <time>2016-10-04T08:53:39Z</time>
      </trkpt>
      <trkpt lat="46.00337" lon="4.70505">
        <ele>198</ele>
        <time>2016-10-04T08:53:40Z</time>
      </trkpt>
      <trkpt lat="46.00342" lon="4.70504">
        <ele>198</ele>
        <time>2016-10-04T08:53:41Z</time>
      </trkpt>
      <trkpt lat="46.00347" lon="4.70504">
        <ele>198</ele>
        <time>2016-10-04T08:53:42Z</time>
      </trkpt>
      <trkpt lat="46.00352" lon="4.70504">
        <ele>198</ele>
        <time>2016-10-04T08:53:43Z</time>
      </trkpt>
      <trkpt lat="46.00356" lon="4.70503">
        <ele>198</ele>
        <time>2016-10-04T08:53:44Z</time>
      </trkpt>
      <trkpt lat="46.00361" lon="4.70502">
        <ele>198</ele>
        <time>2016-10-04T08:53:45Z</time>
      </trkpt>
      <trkpt lat="46.00366" lon="4.70501">
        <ele>198</ele>
        <time>2016-10-04T08:53:46Z</time>
      </trkpt>
      <trkpt lat="46.00371" lon="4.705">
        <ele>198</ele>
        <time>2016-10-04T08:53:47Z</time>
      </trkpt>
      <trkpt lat="46.00375" lon="4.705">
        <ele>200</ele>
        <time>2016-10-04T08:53:48Z</time>
      </trkpt>
      <trkpt lat="46.0038" lon="4.705">
        <ele>200</ele>
        <time>2016-10-04T08:53:49Z</time>
      </trkpt>
      <trkpt lat="46.00385" lon="4.70499">
        <ele>200</ele>
        <time>2016-10-04T08:53:50Z</time>
      </trkpt>
      <trkpt lat="46.0039" lon="4.70498">
        <ele>200</ele>
        <time>2016-10-04T08:53:51Z</time>
      </trkpt>
      <trkpt lat="46.00395" lon="4.70499">
        <ele>200</ele>
        <time>2016-10-04T08:53:52Z</time>
      </trkpt>
      <trkpt lat="46.004" lon="4.70501">
        <ele>199</ele>
        <time>2016-10-04T08:53:53Z</time>
      </trkpt>
      <trkpt lat="46.00405" lon="4.70501">
        <ele>199</ele>
        <time>2016-10-04T08:53:54Z</time>
      </trkpt>
      <trkpt lat="46.0041" lon="4.70502">
        <ele>199</ele>
        <time>2016-10-04T08:53:55Z</time>
      </trkpt>
      <trkpt lat="46.00415" lon="4.70502">
        <ele>200</ele>
        <time>2016-10-04T08:53:56Z</time>
      </trkpt>
      <trkpt lat="46.0042" lon="4.70502">
        <ele>200</ele>
        <time>2016-10-04T08:53:57Z</time>
      </trkpt>
      <trkpt lat="46.00424" lon="4.70503">
        <ele>200</ele>
        <time>2016-10-04T08:53:58Z</time>
      </trkpt>
      <trkpt lat="46.00429" lon="4.70504">
        <ele>200</ele>
        <time>2016-10-04T08:53:59Z</time>
      </trkpt>
      <trkpt lat="46.00433" lon="4.70505">
        <ele>200</ele>
        <time>2016-10-04T08:54:00Z</time>
      </trkpt>
      <trkpt lat="46.00438" lon="4.70506">
        <ele>200</ele>
        <time>2016-10-04T08:54:01Z</time>
      </trkpt>
      <trkpt lat="46.00442" lon="4.70506">
        <ele>200</ele>
        <time>2016-10-04T08:54:02Z</time>
      </trkpt>
      <trkpt lat="46.00451" lon="4.70508">
        <ele>201</ele>
        <time>2016-10-04T08:54:04Z</time>
      </trkpt>
      <trkpt lat="46.00455" lon="4.70511">
        <ele>201</ele>
        <time>2016-10-04T08:54:05Z</time>
      </trkpt>
      <trkpt lat="46.00459" lon="4.70515">
        <ele>201</ele>
        <time>2016-10-04T08:54:06Z</time>
      </trkpt>
      <trkpt lat="46.00462" lon="4.70521">
        <ele>201</ele>
        <time>2016-10-04T08:54:07Z</time>
      </trkpt>
      <trkpt lat="46.00465" lon="4.70529">
        <ele>201</ele>
        <time>2016-10-04T08:54:08Z</time>
      </trkpt>
      <trkpt lat="46.00468" lon="4.70536">
        <ele>201</ele>
        <time>2016-10-04T08:54:09Z</time>
      </trkpt>
      <trkpt lat="46.00472" lon="4.70546">
        <ele>200</ele>
        <time>2016-10-04T08:54:11Z</time>
      </trkpt>
      <trkpt lat="46.00474" lon="4.70552">
        <ele>200</ele>
        <time>2016-10-04T08:54:12Z</time>
      </trkpt>
      <trkpt lat="46.00478" lon="4.70556">
        <ele>200</ele>
        <time>2016-10-04T08:54:13Z</time>
      </trkpt>
      <trkpt lat="46.00482" lon="4.70559">
        <ele>200</ele>
        <time>2016-10-04T08:54:14Z</time>
      </trkpt>
      <trkpt lat="46.00487" lon="4.7056">
        <ele>200</ele>
        <time>2016-10-04T08:54:15Z</time>
      </trkpt>
      <trkpt lat="46.00492" lon="4.70557">
        <ele>200</ele>
        <time>2016-10-04T08:54:16Z</time>
      </trkpt>
      <trkpt lat="46.00496" lon="4.70552">
        <ele>201</ele>
        <time>2016-10-04T08:54:17Z</time>
      </trkpt>
      <trkpt lat="46.00499" lon="4.70548">
        <ele>201</ele>
        <time>2016-10-04T08:54:18Z</time>
      </trkpt>
      <trkpt lat="46.00502" lon="4.70541">
        <ele>203</ele>
        <time>2016-10-04T08:54:19Z</time>
      </trkpt>
      <trkpt lat="46.00504" lon="4.70536">
        <ele>203</ele>
        <time>2016-10-04T08:54:20Z</time>
      </trkpt>
      <trkpt lat="46.00507" lon="4.70531">
        <ele>203</ele>
        <time>2016-10-04T08:54:21Z</time>
      </trkpt>
      <trkpt lat="46.00512" lon="4.70526">
        <ele>203</ele>
        <time>2016-10-04T08:54:22Z</time>
      </trkpt>
      <trkpt lat="46.00516" lon="4.70525">
        <ele>203</ele>
        <time>2016-10-04T08:54:23Z</time>
      </trkpt>
      <trkpt lat="46.00521" lon="4.70524">
        <ele>203</ele>
        <time>2016-10-04T08:54:24Z</time>
      </trkpt>
      <trkpt lat="46.00526" lon="4.70522">
        <ele>204</ele>
        <time>2016-10-04T08:54:25Z</time>
      </trkpt>
      <trkpt lat="46.00531" lon="4.70522">
        <ele>204</ele>
        <time>2016-10-04T08:54:26Z</time>
      </trkpt>
      <trkpt lat="46.00536" lon="4.70522">
        <ele>204</ele>
        <time>2016-10-04T08:54:27Z</time>
      </trkpt>
      <trkpt lat="46.00541" lon="4.70522">
        <ele>204</ele>
        <time>2016-10-04T08:54:28Z</time>
      </trkpt>
      <trkpt lat="46.00546" lon="4.70522">
        <ele>204</ele>
        <time>2016-10-04T08:54:29Z</time>
      </trkpt>
      <trkpt lat="46.0055" lon="4.70522">
        <ele>204</ele>
        <time>2016-10-04T08:54:30Z</time>
      </trkpt>
      <trkpt lat="46.00559" lon="4.70522">
        <ele>204</ele>
        <time>2016-10-04T08:54:32Z</time>
      </trkpt>
      <trkpt lat="46.00563" lon="4.70522">
        <ele>204</ele>
        <time>2016-10-04T08:54:33Z</time>
      </trkpt>
      <trkpt lat="46.00568" lon="4.70521">
        <ele>205</ele>
        <time>2016-10-04T08:54:34Z</time>
      </trkpt>
      <trkpt lat="46.00573" lon="4.7052">
        <ele>205</ele>
        <time>2016-10-04T08:54:35Z</time>
      </trkpt>
      <trkpt lat="46.00581" lon="4.70519">
        <ele>205</ele>
        <time>2016-10-04T08:54:37Z</time>
      </trkpt>
      <trkpt lat="46.00586" lon="4.70519">
        <ele>206</ele>
        <time>2016-10-04T08:54:38Z</time>
      </trkpt>
      <trkpt lat="46.00591" lon="4.70519">
        <ele>206</ele>
        <time>2016-10-04T08:54:39Z</time>
      </trkpt>
      <trkpt lat="46.00596" lon="4.70518">
        <ele>206</ele>
        <time>2016-10-04T08:54:40Z</time>
      </trkpt>
      <trkpt lat="46.00601" lon="4.70518">
        <ele>206</ele>
        <time>2016-10-04T08:54:41Z</time>
      </trkpt>
      <trkpt lat="46.00605" lon="4.70516">
        <ele>207</ele>
        <time>2016-10-04T08:54:42Z</time>
      </trkpt>
      <trkpt lat="46.0061" lon="4.70515">
        <ele>207</ele>
        <time>2016-10-04T08:54:43Z</time>
      </trkpt>
      <trkpt lat="46.00615" lon="4.70515">
        <ele>207</ele>
        <time>2016-10-04T08:54:44Z</time>
      </trkpt>
      <trkpt lat="46.00623" lon="4.70511">
        <ele>207</ele>
        <time>2016-10-04T08:54:46Z</time>
      </trkpt>
      <trkpt lat="46.00627" lon="4.7051">
        <ele>207</ele>
        <time>2016-10-04T08:54:47Z</time>
      </trkpt>
      <trkpt lat="46.00635" lon="4.70507">
        <ele>208</ele>
        <time>2016-10-04T08:54:49Z</time>
      </trkpt>
      <trkpt lat="46.0064" lon="4.70505">
        <ele>208</ele>
        <time>2016-10-04T08:54:50Z</time>
      </trkpt>
      <trkpt lat="46.00644" lon="4.70504">
        <ele>208</ele>
        <time>2016-10-04T08:54:51Z</time>
      </trkpt>
      <trkpt lat="46.0065" lon="4.70504">
        <ele>209</ele>
        <time>2016-10-04T08:54:52Z</time>
      </trkpt>
      <trkpt lat="46.00655" lon="4.70505">
        <ele>210</ele>
        <time>2016-10-04T08:54:53Z</time>
      </trkpt>
      <trkpt lat="46.0066" lon="4.70505">
        <ele>210</ele>
        <time>2016-10-04T08:54:54Z</time>
      </trkpt>
      <trkpt lat="46.00668" lon="4.70504">
        <ele>211</ele>
        <time>2016-10-04T08:54:56Z</time>
      </trkpt>
      <trkpt lat="46.00672" lon="4.70504">
        <ele>211</ele>
        <time>2016-10-04T08:54:57Z</time>
      </trkpt>
      <trkpt lat="46.00677" lon="4.70504">
        <ele>210</ele>
        <time>2016-10-04T08:54:58Z</time>
      </trkpt>
      <trkpt lat="46.00682" lon="4.70504">
        <ele>209</ele>
        <time>2016-10-04T08:54:59Z</time>
      </trkpt>
      <trkpt lat="46.00687" lon="4.70505">
        <ele>209</ele>
        <time>2016-10-04T08:55:00Z</time>
      </trkpt>
      <trkpt lat="46.00692" lon="4.70506">
        <ele>208</ele>
        <time>2016-10-04T08:55:01Z</time>
      </trkpt>
      <trkpt lat="46.00697" lon="4.70506">
        <ele>208</ele>
        <time>2016-10-04T08:55:02Z</time>
      </trkpt>
      <trkpt lat="46.00702" lon="4.70507">
        <ele>208</ele>
        <time>2016-10-04T08:55:03Z</time>
      </trkpt>
      <trkpt lat="46.00707" lon="4.70508">
        <ele>207</ele>
        <time>2016-10-04T08:55:04Z</time>
      </trkpt>
      <trkpt lat="46.00712" lon="4.70509">
        <ele>207</ele>
        <time>2016-10-04T08:55:05Z</time>
      </trkpt>
      <trkpt lat="46.00718" lon="4.70511">
        <ele>207</ele>
        <time>2016-10-04T08:55:06Z</time>
      </trkpt>
      <trkpt lat="46.00723" lon="4.70512">
        <ele>207</ele>
        <time>2016-10-04T08:55:07Z</time>
      </trkpt>
      <trkpt lat="46.00729" lon="4.70512">
        <ele>207</ele>
        <time>2016-10-04T08:55:08Z</time>
      </trkpt>
      <trkpt lat="46.00734" lon="4.70516">
        <ele>207</ele>
        <time>2016-10-04T08:55:09Z</time>
      </trkpt>
      <trkpt lat="46.0074" lon="4.7052">
        <ele>207</ele>
        <time>2016-10-04T08:55:10Z</time>
      </trkpt>
      <trkpt lat="46.00746" lon="4.70521">
        <ele>207</ele>
        <time>2016-10-04T08:55:11Z</time>
      </trkpt>
      <trkpt lat="46.00752" lon="4.70523">
        <ele>205</ele>
        <time>2016-10-04T08:55:12Z</time>
      </trkpt>
      <trkpt lat="46.00757" lon="4.70525">
        <ele>205</ele>
        <time>2016-10-04T08:55:13Z</time>
      </trkpt>
      <trkpt lat="46.00763" lon="4.70528">
        <ele>205</ele>
        <time>2016-10-04T08:55:14Z</time>
      </trkpt>
      <trkpt lat="46.00769" lon="4.70529">
        <ele>204</ele>
        <time>2016-10-04T08:55:15Z</time>
      </trkpt>
      <trkpt lat="46.00775" lon="4.7053">
        <ele>204</ele>
        <time>2016-10-04T08:55:16Z</time>
      </trkpt>
      <trkpt lat="46.00781" lon="4.70531">
        <ele>204</ele>
        <time>2016-10-04T08:55:17Z</time>
      </trkpt>
      <trkpt lat="46.00786" lon="4.70533">
        <ele>204</ele>
        <time>2016-10-04T08:55:18Z</time>
      </trkpt>
      <trkpt lat="46.00792" lon="4.70535">
        <ele>204</ele>
        <time>2016-10-04T08:55:19Z</time>
      </trkpt>
      <trkpt lat="46.00798" lon="4.70537">
        <ele>204</ele>
        <time>2016-10-04T08:55:20Z</time>
      </trkpt>
      <trkpt lat="46.00803" lon="4.70541">
        <ele>203</ele>
        <time>2016-10-04T08:55:21Z</time>
      </trkpt>
      <trkpt lat="46.00809" lon="4.70542">
        <ele>203</ele>
        <time>2016-10-04T08:55:22Z</time>
      </trkpt>
      <trkpt lat="46.00815" lon="4.70545">
        <ele>203</ele>
        <time>2016-10-04T08:55:23Z</time>
      </trkpt>
      <trkpt lat="46.00821" lon="4.70547">
        <ele>203</ele>
        <time>2016-10-04T08:55:24Z</time>
      </trkpt>
      <trkpt lat="46.00827" lon="4.70549">
        <ele>203</ele>
        <time>2016-10-04T08:55:25Z</time>
      </trkpt>
      <trkpt lat="46.00833" lon="4.70553">
        <ele>203</ele>
        <time>2016-10-04T08:55:26Z</time>
      </trkpt>
      <trkpt lat="46.00839" lon="4.70554">
        <ele>201</ele>
        <time>2016-10-04T08:55:27Z</time>
      </trkpt>
      <trkpt lat="46.00845" lon="4.70556">
        <ele>201</ele>
        <time>2016-10-04T08:55:28Z</time>
      </trkpt>
      <trkpt lat="46.00852" lon="4.70557">
        <ele>201</ele>
        <time>2016-10-04T08:55:29Z</time>
      </trkpt>
      <trkpt lat="46.00858" lon="4.70559">
        <ele>201</ele>
        <time>2016-10-04T08:55:30Z</time>
      </trkpt>
      <trkpt lat="46.00865" lon="4.70561">
        <ele>201</ele>
        <time>2016-10-04T08:55:31Z</time>
      </trkpt>
      <trkpt lat="46.00871" lon="4.70564">
        <ele>201</ele>
        <time>2016-10-04T08:55:32Z</time>
      </trkpt>
      <trkpt lat="46.00878" lon="4.70568">
        <ele>200</ele>
        <time>2016-10-04T08:55:33Z</time>
      </trkpt>
      <trkpt lat="46.00884" lon="4.70572">
        <ele>200</ele>
        <time>2016-10-04T08:55:34Z</time>
      </trkpt>
      <trkpt lat="46.0089" lon="4.70576">
        <ele>200</ele>
        <time>2016-10-04T08:55:35Z</time>
      </trkpt>
      <trkpt lat="46.00896" lon="4.7058">
        <ele>200</ele>
        <time>2016-10-04T08:55:36Z</time>
      </trkpt>
      <trkpt lat="46.00903" lon="4.70583">
        <ele>199</ele>
        <time>2016-10-04T08:55:37Z</time>
      </trkpt>
      <trkpt lat="46.00909" lon="4.70586">
        <ele>198</ele>
        <time>2016-10-04T08:55:38Z</time>
      </trkpt>
      <trkpt lat="46.00915" lon="4.70588">
        <ele>198</ele>
        <time>2016-10-04T08:55:39Z</time>
      </trkpt>
      <trkpt lat="46.00922" lon="4.70591">
        <ele>198</ele>
        <time>2016-10-04T08:55:40Z</time>
      </trkpt>
      <trkpt lat="46.00928" lon="4.70592">
        <ele>198</ele>
        <time>2016-10-04T08:55:41Z</time>
      </trkpt>
      <trkpt lat="46.00934" lon="4.70595">
        <ele>198</ele>
        <time>2016-10-04T08:55:42Z</time>
      </trkpt>
      <trkpt lat="46.00941" lon="4.70599">
        <ele>197</ele>
        <time>2016-10-04T08:55:43Z</time>
      </trkpt>
      <trkpt lat="46.00947" lon="4.70602">
        <ele>197</ele>
        <time>2016-10-04T08:55:44Z</time>
      </trkpt>
      <trkpt lat="46.00953" lon="4.70605">
        <ele>197</ele>
        <time>2016-10-04T08:55:45Z</time>
      </trkpt>
      <trkpt lat="46.00959" lon="4.70609">
        <ele>197</ele>
        <time>2016-10-04T08:55:46Z</time>
      </trkpt>
      <trkpt lat="46.00965" lon="4.70612">
        <ele>197</ele>
        <time>2016-10-04T08:55:47Z</time>
      </trkpt>
      <trkpt lat="46.00971" lon="4.70615">
        <ele>197</ele>
        <time>2016-10-04T08:55:48Z</time>
      </trkpt>
      <trkpt lat="46.00977" lon="4.70617">
        <ele>197</ele>
        <time>2016-10-04T08:55:49Z</time>
      </trkpt>
      <trkpt lat="46.00983" lon="4.7062">
        <ele>197</ele>
        <time>2016-10-04T08:55:50Z</time>
      </trkpt>
      <trkpt lat="46.00989" lon="4.70623">
        <ele>197</ele>
        <time>2016-10-04T08:55:51Z</time>
      </trkpt>
      <trkpt lat="46.00996" lon="4.70626">
        <ele>197</ele>
        <time>2016-10-04T08:55:52Z</time>
      </trkpt>
      <trkpt lat="46.01002" lon="4.70629">
        <ele>196</ele>
        <time>2016-10-04T08:55:53Z</time>
      </trkpt>
      <trkpt lat="46.01009" lon="4.70633">
        <ele>196</ele>
        <time>2016-10-04T08:55:54Z</time>
      </trkpt>
      <trkpt lat="46.01015" lon="4.70636">
        <ele>196</ele>
        <time>2016-10-04T08:55:55Z</time>
      </trkpt>
      <trkpt lat="46.01021" lon="4.70639">
        <ele>196</ele>
        <time>2016-10-04T08:55:56Z</time>
      </trkpt>
      <trkpt lat="46.01027" lon="4.70642">
        <ele>196</ele>
        <time>2016-10-04T08:55:57Z</time>
      </trkpt>
      <trkpt lat="46.01033" lon="4.70646">
        <ele>196</ele>
        <time>2016-10-04T08:55:58Z</time>
      </trkpt>
      <trkpt lat="46.01039" lon="4.7065">
        <ele>196</ele>
        <time>2016-10-04T08:55:59Z</time>
      </trkpt>
      <trkpt lat="46.01045" lon="4.70652">
        <ele>195</ele>
        <time>2016-10-04T08:56:00Z</time>
      </trkpt>
      <trkpt lat="46.01051" lon="4.70654">
        <ele>195</ele>
        <time>2016-10-04T08:56:01Z</time>
      </trkpt>
      <trkpt lat="46.01056" lon="4.70657">
        <ele>195</ele>
        <time>2016-10-04T08:56:02Z</time>
      </trkpt>
      <trkpt lat="46.01062" lon="4.70659">
        <ele>195</ele>
        <time>2016-10-04T08:56:03Z</time>
      </trkpt>
      <trkpt lat="46.01067" lon="4.70662">
        <ele>195</ele>
        <time>2016-10-04T08:56:04Z</time>
      </trkpt>
      <trkpt lat="46.01073" lon="4.70664">
        <ele>195</ele>
        <time>2016-10-04T08:56:05Z</time>
      </trkpt>
      <trkpt lat="46.01078" lon="4.70667">
        <ele>195</ele>
        <time>2016-10-04T08:56:06Z</time>
      </trkpt>
      <trkpt lat="46.01084" lon="4.70669">
        <ele>195</ele>
        <time>2016-10-04T08:56:07Z</time>
      </trkpt>
      <trkpt lat="46.0109" lon="4.70671">
        <ele>195</ele>
        <time>2016-10-04T08:56:08Z</time>
      </trkpt>
      <trkpt lat="46.01096" lon="4.70673">
        <ele>195</ele>
        <time>2016-10-04T08:56:09Z</time>
      </trkpt>
      <trkpt lat="46.01102" lon="4.70676">
        <ele>195</ele>
        <time>2016-10-04T08:56:10Z</time>
      </trkpt>
      <trkpt lat="46.01108" lon="4.70678">
        <ele>195</ele>
        <time>2016-10-04T08:56:11Z</time>
      </trkpt>
      <trkpt lat="46.01114" lon="4.70681">
        <ele>195</ele>
        <time>2016-10-04T08:56:12Z</time>
      </trkpt>
      <trkpt lat="46.0112" lon="4.70683">
        <ele>195</ele>
        <time>2016-10-04T08:56:13Z</time>
      </trkpt>
      <trkpt lat="46.01124" lon="4.70687">
        <ele>195</ele>
        <time>2016-10-04T08:56:14Z</time>
      </trkpt>
      <trkpt lat="46.01129" lon="4.70689">
        <ele>194</ele>
        <time>2016-10-04T08:56:15Z</time>
      </trkpt>
      <trkpt lat="46.01134" lon="4.70692">
        <ele>194</ele>
        <time>2016-10-04T08:56:16Z</time>
      </trkpt>
      <trkpt lat="46.01139" lon="4.70694">
        <ele>194</ele>
        <time>2016-10-04T08:56:17Z</time>
      </trkpt>
      <trkpt lat="46.01145" lon="4.70697">
        <ele>194</ele>
        <time>2016-10-04T08:56:18Z</time>
      </trkpt>
      <trkpt lat="46.0115" lon="4.707">
        <ele>194</ele>
        <time>2016-10-04T08:56:19Z</time>
      </trkpt>
      <trkpt lat="46.01156" lon="4.70702">
        <ele>194</ele>
        <time>2016-10-04T08:56:20Z</time>
      </trkpt>
      <trkpt lat="46.01161" lon="4.70705">
        <ele>194</ele>
        <time>2016-10-04T08:56:21Z</time>
      </trkpt>
      <trkpt lat="46.01167" lon="4.70708">
        <ele>194</ele>
        <time>2016-10-04T08:56:22Z</time>
      </trkpt>
      <trkpt lat="46.01173" lon="4.7071">
        <ele>194</ele>
        <time>2016-10-04T08:56:23Z</time>
      </trkpt>
      <trkpt lat="46.0118" lon="4.70713">
        <ele>194</ele>
        <time>2016-10-04T08:56:24Z</time>
      </trkpt>
      <trkpt lat="46.01185" lon="4.70716">
        <ele>194</ele>
        <time>2016-10-04T08:56:25Z</time>
      </trkpt>
      <trkpt lat="46.01191" lon="4.70718">
        <ele>194</ele>
        <time>2016-10-04T08:56:26Z</time>
      </trkpt>
      <trkpt lat="46.01197" lon="4.70719">
        <ele>194</ele>
        <time>2016-10-04T08:56:27Z</time>
      </trkpt>
      <trkpt lat="46.01203" lon="4.7072">
        <ele>194</ele>
        <time>2016-10-04T08:56:28Z</time>
      </trkpt>
      <trkpt lat="46.01208" lon="4.70724">
        <ele>194</ele>
        <time>2016-10-04T08:56:29Z</time>
      </trkpt>
      <trkpt lat="46.01214" lon="4.70726">
        <ele>194</ele>
        <time>2016-10-04T08:56:30Z</time>
      </trkpt>
      <trkpt lat="46.01219" lon="4.70728">
        <ele>194</ele>
        <time>2016-10-04T08:56:31Z</time>
      </trkpt>
      <trkpt lat="46.01224" lon="4.7073">
        <ele>194</ele>
        <time>2016-10-04T08:56:32Z</time>
      </trkpt>
      <trkpt lat="46.0123" lon="4.70732">
        <ele>194</ele>
        <time>2016-10-04T08:56:33Z</time>
      </trkpt>
      <trkpt lat="46.01236" lon="4.70734">
        <ele>193</ele>
        <time>2016-10-04T08:56:34Z</time>
      </trkpt>
      <trkpt lat="46.01242" lon="4.70736">
        <ele>193</ele>
        <time>2016-10-04T08:56:35Z</time>
      </trkpt>
      <trkpt lat="46.01248" lon="4.70738">
        <ele>193</ele>
        <time>2016-10-04T08:56:36Z</time>
      </trkpt>
      <trkpt lat="46.01254" lon="4.7074">
        <ele>192</ele>
        <time>2016-10-04T08:56:37Z</time>
      </trkpt>
      <trkpt lat="46.01261" lon="4.70741">
        <ele>192</ele>
        <time>2016-10-04T08:56:38Z</time>
      </trkpt>
      <trkpt lat="46.01267" lon="4.70742">
        <ele>192</ele>
        <time>2016-10-04T08:56:39Z</time>
      </trkpt>
      <trkpt lat="46.01273" lon="4.70743">
        <ele>192</ele>
        <time>2016-10-04T08:56:40Z</time>
      </trkpt>
      <trkpt lat="46.01279" lon="4.70744">
        <ele>192</ele>
        <time>2016-10-04T08:56:41Z</time>
      </trkpt>
      <trkpt lat="46.01285" lon="4.70746">
        <ele>191</ele>
        <time>2016-10-04T08:56:42Z</time>
      </trkpt>
      <trkpt lat="46.01291" lon="4.70748">
        <ele>191</ele>
        <time>2016-10-04T08:56:43Z</time>
      </trkpt>
      <trkpt lat="46.01297" lon="4.7075">
        <ele>191</ele>
        <time>2016-10-04T08:56:44Z</time>
      </trkpt>
      <trkpt lat="46.01302" lon="4.70753">
        <ele>191</ele>
        <time>2016-10-04T08:56:45Z</time>
      </trkpt>
      <trkpt lat="46.01308" lon="4.70754">
        <ele>191</ele>
        <time>2016-10-04T08:56:46Z</time>
      </trkpt>
      <trkpt lat="46.01314" lon="4.70753">
        <ele>190</ele>
        <time>2016-10-04T08:56:47Z</time>
      </trkpt>
      <trkpt lat="46.0132" lon="4.70753">
        <ele>190</ele>
        <time>2016-10-04T08:56:48Z</time>
      </trkpt>
      <trkpt lat="46.01327" lon="4.70753">
        <ele>190</ele>
        <time>2016-10-04T08:56:49Z</time>
      </trkpt>
      <trkpt lat="46.01333" lon="4.70754">
        <ele>189</ele>
        <time>2016-10-04T08:56:50Z</time>
      </trkpt>
      <trkpt lat="46.0134" lon="4.70754">
        <ele>189</ele>
        <time>2016-10-04T08:56:51Z</time>
      </trkpt>
      <trkpt lat="46.01346" lon="4.70755">
        <ele>189</ele>
        <time>2016-10-04T08:56:52Z</time>
      </trkpt>
      <trkpt lat="46.01352" lon="4.70755">
        <ele>189</ele>
        <time>2016-10-04T08:56:53Z</time>
      </trkpt>
      <trkpt lat="46.01358" lon="4.70756">
        <ele>189</ele>
        <time>2016-10-04T08:56:54Z</time>
      </trkpt>
      <trkpt lat="46.01364" lon="4.70755">
        <ele>189</ele>
        <time>2016-10-04T08:56:55Z</time>
      </trkpt>
      <trkpt lat="46.0137" lon="4.70755">
        <ele>189</ele>
        <time>2016-10-04T08:56:56Z</time>
      </trkpt>
      <trkpt lat="46.01375" lon="4.70754">
        <ele>189</ele>
        <time>2016-10-04T08:56:57Z</time>
      </trkpt>
      <trkpt lat="46.01381" lon="4.70754">
        <ele>189</ele>
        <time>2016-10-04T08:56:58Z</time>
      </trkpt>
      <trkpt lat="46.01387" lon="4.70753">
        <ele>189</ele>
        <time>2016-10-04T08:56:59Z</time>
      </trkpt>
      <trkpt lat="46.01392" lon="4.70752">
        <ele>189</ele>
        <time>2016-10-04T08:57:00Z</time>
      </trkpt>
      <trkpt lat="46.01397" lon="4.70746">
        <ele>189</ele>
        <time>2016-10-04T08:57:01Z</time>
      </trkpt>
      <trkpt lat="46.01402" lon="4.70745">
        <ele>189</ele>
        <time>2016-10-04T08:57:02Z</time>
      </trkpt>
      <trkpt lat="46.01408" lon="4.70743">
        <ele>189</ele>
        <time>2016-10-04T08:57:03Z</time>
      </trkpt>
      <trkpt lat="46.01414" lon="4.70742">
        <ele>189</ele>
        <time>2016-10-04T08:57:04Z</time>
      </trkpt>
      <trkpt lat="46.0142" lon="4.70741">
        <ele>189</ele>
        <time>2016-10-04T08:57:05Z</time>
      </trkpt>
      <trkpt lat="46.01427" lon="4.70741">
        <ele>189</ele>
        <time>2016-10-04T08:57:06Z</time>
      </trkpt>
      <trkpt lat="46.01434" lon="4.70741">
        <ele>189</ele>
        <time>2016-10-04T08:57:07Z</time>
      </trkpt>
      <trkpt lat="46.0144" lon="4.70741">
        <ele>189</ele>
        <time>2016-10-04T08:57:08Z</time>
      </trkpt>
      <trkpt lat="46.01447" lon="4.70741">
        <ele>189</ele>
        <time>2016-10-04T08:57:09Z</time>
      </trkpt>
      <trkpt lat="46.01453" lon="4.70741">
        <ele>189</ele>
        <time>2016-10-04T08:57:10Z</time>
      </trkpt>
      <trkpt lat="46.0146" lon="4.70741">
        <ele>190</ele>
        <time>2016-10-04T08:57:11Z</time>
      </trkpt>
      <trkpt lat="46.01466" lon="4.70741">
        <ele>190</ele>
        <time>2016-10-04T08:57:12Z</time>
      </trkpt>
      <trkpt lat="46.01472" lon="4.70741">
        <ele>190</ele>
        <time>2016-10-04T08:57:13Z</time>
      </trkpt>
      <trkpt lat="46.01478" lon="4.7074">
        <ele>190</ele>
        <time>2016-10-04T08:57:14Z</time>
      </trkpt>
      <trkpt lat="46.01484" lon="4.7074">
        <ele>190</ele>
        <time>2016-10-04T08:57:15Z</time>
      </trkpt>
      <trkpt lat="46.0149" lon="4.70741">
        <ele>190</ele>
        <time>2016-10-04T08:57:16Z</time>
      </trkpt>
      <trkpt lat="46.01495" lon="4.70742">
        <ele>190</ele>
        <time>2016-10-04T08:57:17Z</time>
      </trkpt>
      <trkpt lat="46.01501" lon="4.70742">
        <ele>191</ele>
        <time>2016-10-04T08:57:18Z</time>
      </trkpt>
      <trkpt lat="46.01508" lon="4.70741">
        <ele>190</ele>
        <time>2016-10-04T08:57:19Z</time>
      </trkpt>
      <trkpt lat="46.01514" lon="4.7074">
        <ele>190</ele>
        <time>2016-10-04T08:57:20Z</time>
      </trkpt>
      <trkpt lat="46.0152" lon="4.70738">
        <ele>190</ele>
        <time>2016-10-04T08:57:21Z</time>
      </trkpt>
      <trkpt lat="46.01526" lon="4.70739">
        <ele>190</ele>
        <time>2016-10-04T08:57:22Z</time>
      </trkpt>
      <trkpt lat="46.01532" lon="4.70738">
        <ele>190</ele>
        <time>2016-10-04T08:57:23Z</time>
      </trkpt>
      <trkpt lat="46.01539" lon="4.70737">
        <ele>190</ele>
        <time>2016-10-04T08:57:24Z</time>
      </trkpt>
      <trkpt lat="46.01545" lon="4.70737">
        <ele>190</ele>
        <time>2016-10-04T08:57:25Z</time>
      </trkpt>
      <trkpt lat="46.01551" lon="4.70736">
        <ele>190</ele>
        <time>2016-10-04T08:57:26Z</time>
      </trkpt>
      <trkpt lat="46.01558" lon="4.70734">
        <ele>190</ele>
        <time>2016-10-04T08:57:27Z</time>
      </trkpt>
      <trkpt lat="46.01564" lon="4.70735">
        <ele>190</ele>
        <time>2016-10-04T08:57:28Z</time>
      </trkpt>
      <trkpt lat="46.01571" lon="4.70735">
        <ele>190</ele>
        <time>2016-10-04T08:57:29Z</time>
      </trkpt>
      <trkpt lat="46.01577" lon="4.70734">
        <ele>190</ele>
        <time>2016-10-04T08:57:30Z</time>
      </trkpt>
      <trkpt lat="46.01583" lon="4.70733">
        <ele>190</ele>
        <time>2016-10-04T08:57:31Z</time>
      </trkpt>
      <trkpt lat="46.0159" lon="4.70731">
        <ele>190</ele>
        <time>2016-10-04T08:57:32Z</time>
      </trkpt>
      <trkpt lat="46.01597" lon="4.70729">
        <ele>190</ele>
        <time>2016-10-04T08:57:33Z</time>
      </trkpt>
      <trkpt lat="46.01604" lon="4.70728">
        <ele>190</ele>
        <time>2016-10-04T08:57:34Z</time>
      </trkpt>
      <trkpt lat="46.01611" lon="4.70727">
        <ele>190</ele>
        <time>2016-10-04T08:57:35Z</time>
      </trkpt>
      <trkpt lat="46.01618" lon="4.70726">
        <ele>190</ele>
        <time>2016-10-04T08:57:36Z</time>
      </trkpt>
      <trkpt lat="46.01625" lon="4.70725">
        <ele>190</ele>
        <time>2016-10-04T08:57:37Z</time>
      </trkpt>
      <trkpt lat="46.01632" lon="4.70721">
        <ele>190</ele>
        <time>2016-10-04T08:57:38Z</time>
      </trkpt>
      <trkpt lat="46.01638" lon="4.7072">
        <ele>190</ele>
        <time>2016-10-04T08:57:39Z</time>
      </trkpt>
      <trkpt lat="46.01645" lon="4.70719">
        <ele>190</ele>
        <time>2016-10-04T08:57:40Z</time>
      </trkpt>
      <trkpt lat="46.01651" lon="4.70718">
        <ele>190</ele>
        <time>2016-10-04T08:57:41Z</time>
      </trkpt>
      <trkpt lat="46.01657" lon="4.70717">
        <ele>190</ele>
        <time>2016-10-04T08:57:42Z</time>
      </trkpt>
      <trkpt lat="46.01663" lon="4.70717">
        <ele>190</ele>
        <time>2016-10-04T08:57:43Z</time>
      </trkpt>
      <trkpt lat="46.01669" lon="4.70716">
        <ele>189</ele>
        <time>2016-10-04T08:57:44Z</time>
      </trkpt>
      <trkpt lat="46.01675" lon="4.70715">
        <ele>189</ele>
        <time>2016-10-04T08:57:45Z</time>
      </trkpt>
      <trkpt lat="46.01681" lon="4.70715">
        <ele>189</ele>
        <time>2016-10-04T08:57:46Z</time>
      </trkpt>
      <trkpt lat="46.01688" lon="4.70716">
        <ele>189</ele>
        <time>2016-10-04T08:57:47Z</time>
      </trkpt>
      <trkpt lat="46.01694" lon="4.70717">
        <ele>189</ele>
        <time>2016-10-04T08:57:48Z</time>
      </trkpt>
      <trkpt lat="46.017" lon="4.70717">
        <ele>189</ele>
        <time>2016-10-04T08:57:49Z</time>
      </trkpt>
      <trkpt lat="46.01707" lon="4.70717">
        <ele>189</ele>
        <time>2016-10-04T08:57:50Z</time>
      </trkpt>
      <trkpt lat="46.01713" lon="4.70716">
        <ele>188</ele>
        <time>2016-10-04T08:57:51Z</time>
      </trkpt>
      <trkpt lat="46.01719" lon="4.70716">
        <ele>188</ele>
        <time>2016-10-04T08:57:52Z</time>
      </trkpt>
      <trkpt lat="46.01725" lon="4.70719">
        <ele>188</ele>
        <time>2016-10-04T08:57:53Z</time>
      </trkpt>
      <trkpt lat="46.01732" lon="4.70723">
        <ele>188</ele>
        <time>2016-10-04T08:57:54Z</time>
      </trkpt>
      <trkpt lat="46.01739" lon="4.70725">
        <ele>188</ele>
        <time>2016-10-04T08:57:55Z</time>
      </trkpt>
      <trkpt lat="46.01746" lon="4.70725">
        <ele>188</ele>
        <time>2016-10-04T08:57:56Z</time>
      </trkpt>
      <trkpt lat="46.01751" lon="4.70725">
        <ele>187</ele>
        <time>2016-10-04T08:57:57Z</time>
      </trkpt>
      <trkpt lat="46.01757" lon="4.70724">
        <ele>187</ele>
        <time>2016-10-04T08:57:58Z</time>
      </trkpt>
      <trkpt lat="46.01764" lon="4.70723">
        <ele>187</ele>
        <time>2016-10-04T08:57:59Z</time>
      </trkpt>
      <trkpt lat="46.01771" lon="4.70722">
        <ele>187</ele>
        <time>2016-10-04T08:58:00Z</time>
      </trkpt>
      <trkpt lat="46.01777" lon="4.7072">
        <ele>187</ele>
        <time>2016-10-04T08:58:01Z</time>
      </trkpt>
      <trkpt lat="46.01784" lon="4.70718">
        <ele>187</ele>
        <time>2016-10-04T08:58:02Z</time>
      </trkpt>
      <trkpt lat="46.0179" lon="4.70716">
        <ele>187</ele>
        <time>2016-10-04T08:58:03Z</time>
      </trkpt>
      <trkpt lat="46.01797" lon="4.70714">
        <ele>187</ele>
        <time>2016-10-04T08:58:04Z</time>
      </trkpt>
      <trkpt lat="46.01804" lon="4.70713">
        <ele>187</ele>
        <time>2016-10-04T08:58:05Z</time>
      </trkpt>
      <trkpt lat="46.01811" lon="4.70712">
        <ele>187</ele>
        <time>2016-10-04T08:58:06Z</time>
      </trkpt>
      <trkpt lat="46.01817" lon="4.70711">
        <ele>187</ele>
        <time>2016-10-04T08:58:07Z</time>
      </trkpt>
      <trkpt lat="46.01823" lon="4.7071">
        <ele>186</ele>
        <time>2016-10-04T08:58:08Z</time>
      </trkpt>
      <trkpt lat="46.0183" lon="4.70708">
        <ele>186</ele>
        <time>2016-10-04T08:58:09Z</time>
      </trkpt>
      <trkpt lat="46.01836" lon="4.70707">
        <ele>185</ele>
        <time>2016-10-04T08:58:10Z</time>
      </trkpt>
      <trkpt lat="46.01842" lon="4.70706">
        <ele>185</ele>
        <time>2016-10-04T08:58:11Z</time>
      </trkpt>
      <trkpt lat="46.01848" lon="4.70705">
        <ele>185</ele>
        <time>2016-10-04T08:58:12Z</time>
      </trkpt>
      <trkpt lat="46.01854" lon="4.70704">
        <ele>185</ele>
        <time>2016-10-04T08:58:13Z</time>
      </trkpt>
      <trkpt lat="46.0186" lon="4.70704">
        <ele>185</ele>
        <time>2016-10-04T08:58:14Z</time>
      </trkpt>
      <trkpt lat="46.01866" lon="4.70704">
        <ele>185</ele>
        <time>2016-10-04T08:58:15Z</time>
      </trkpt>
      <trkpt lat="46.01872" lon="4.70703">
        <ele>185</ele>
        <time>2016-10-04T08:58:16Z</time>
      </trkpt>
      <trkpt lat="46.01878" lon="4.70703">
        <ele>185</ele>
        <time>2016-10-04T08:58:17Z</time>
      </trkpt>
      <trkpt lat="46.01884" lon="4.70703">
        <ele>184</ele>
        <time>2016-10-04T08:58:18Z</time>
      </trkpt>
      <trkpt lat="46.01891" lon="4.70703">
        <ele>184</ele>
        <time>2016-10-04T08:58:19Z</time>
      </trkpt>
      <trkpt lat="46.01898" lon="4.70703">
        <ele>184</ele>
        <time>2016-10-04T08:58:20Z</time>
      </trkpt>
      <trkpt lat="46.01905" lon="4.70703">
        <ele>184</ele>
        <time>2016-10-04T08:58:21Z</time>
      </trkpt>
      <trkpt lat="46.01912" lon="4.70704">
        <ele>184</ele>
        <time>2016-10-04T08:58:22Z</time>
      </trkpt>
      <trkpt lat="46.01919" lon="4.70704">
        <ele>182</ele>
        <time>2016-10-04T08:58:23Z</time>
      </trkpt>
      <trkpt lat="46.01926" lon="4.70705">
        <ele>182</ele>
        <time>2016-10-04T08:58:24Z</time>
      </trkpt>
      <trkpt lat="46.01933" lon="4.70706">
        <ele>182</ele>
        <time>2016-10-04T08:58:25Z</time>
      </trkpt>
      <trkpt lat="46.0194" lon="4.70706">
        <ele>182</ele>
        <time>2016-10-04T08:58:26Z</time>
      </trkpt>
      <trkpt lat="46.01947" lon="4.70708">
        <ele>181</ele>
        <time>2016-10-04T08:58:27Z</time>
      </trkpt>
      <trkpt lat="46.01954" lon="4.70709">
        <ele>181</ele>
        <time>2016-10-04T08:58:28Z</time>
      </trkpt>
      <trkpt lat="46.0196" lon="4.7071">
        <ele>181</ele>
        <time>2016-10-04T08:58:29Z</time>
      </trkpt>
      <trkpt lat="46.01967" lon="4.70712">
        <ele>181</ele>
        <time>2016-10-04T08:58:30Z</time>
      </trkpt>
      <trkpt lat="46.01973" lon="4.70715">
        <ele>181</ele>
        <time>2016-10-04T08:58:31Z</time>
      </trkpt>
      <trkpt lat="46.01979" lon="4.70718">
        <ele>181</ele>
        <time>2016-10-04T08:58:32Z</time>
      </trkpt>
      <trkpt lat="46.01985" lon="4.70721">
        <ele>181</ele>
        <time>2016-10-04T08:58:33Z</time>
      </trkpt>
      <trkpt lat="46.01991" lon="4.70722">
        <ele>181</ele>
        <time>2016-10-04T08:58:34Z</time>
      </trkpt>
      <trkpt lat="46.01997" lon="4.70724">
        <ele>181</ele>
        <time>2016-10-04T08:58:35Z</time>
      </trkpt>
      <trkpt lat="46.02003" lon="4.70725">
        <ele>179</ele>
        <time>2016-10-04T08:58:36Z</time>
      </trkpt>
      <trkpt lat="46.02009" lon="4.70726">
        <ele>179</ele>
        <time>2016-10-04T08:58:37Z</time>
      </trkpt>
      <trkpt lat="46.02016" lon="4.70726">
        <ele>179</ele>
        <time>2016-10-04T08:58:38Z</time>
      </trkpt>
      <trkpt lat="46.02022" lon="4.70728">
        <ele>179</ele>
        <time>2016-10-04T08:58:39Z</time>
      </trkpt>
      <trkpt lat="46.02028" lon="4.7073">
        <ele>179</ele>
        <time>2016-10-04T08:58:40Z</time>
      </trkpt>
      <trkpt lat="46.02034" lon="4.70733">
        <ele>179</ele>
        <time>2016-10-04T08:58:41Z</time>
      </trkpt>
      <trkpt lat="46.02041" lon="4.70734">
        <ele>179</ele>
        <time>2016-10-04T08:58:42Z</time>
      </trkpt>
      <trkpt lat="46.02048" lon="4.70734">
        <ele>179</ele>
        <time>2016-10-04T08:58:43Z</time>
      </trkpt>
      <trkpt lat="46.02055" lon="4.70734">
        <ele>179</ele>
        <time>2016-10-04T08:58:44Z</time>
      </trkpt>
      <trkpt lat="46.02061" lon="4.70735">
        <ele>178</ele>
        <time>2016-10-04T08:58:45Z</time>
      </trkpt>
      <trkpt lat="46.02068" lon="4.70736">
        <ele>178</ele>
        <time>2016-10-04T08:58:46Z</time>
      </trkpt>
      <trkpt lat="46.02074" lon="4.70736">
        <ele>178</ele>
        <time>2016-10-04T08:58:47Z</time>
      </trkpt>
      <trkpt lat="46.02081" lon="4.70737">
        <ele>178</ele>
        <time>2016-10-04T08:58:48Z</time>
      </trkpt>
      <trkpt lat="46.02087" lon="4.70738">
        <ele>178</ele>
        <time>2016-10-04T08:58:49Z</time>
      </trkpt>
      <trkpt lat="46.02093" lon="4.70739">
        <ele>178</ele>
        <time>2016-10-04T08:58:50Z</time>
      </trkpt>
      <trkpt lat="46.02099" lon="4.70741">
        <ele>178</ele>
        <time>2016-10-04T08:58:51Z</time>
      </trkpt>
      <trkpt lat="46.02105" lon="4.70742">
        <ele>178</ele>
        <time>2016-10-04T08:58:52Z</time>
      </trkpt>
      <trkpt lat="46.02111" lon="4.70743">
        <ele>178</ele>
        <time>2016-10-04T08:58:53Z</time>
      </trkpt>
      <trkpt lat="46.02117" lon="4.70743">
        <ele>179</ele>
        <time>2016-10-04T08:58:54Z</time>
      </trkpt>
      <trkpt lat="46.02123" lon="4.70744">
        <ele>179</ele>
        <time>2016-10-04T08:58:55Z</time>
      </trkpt>
      <trkpt lat="46.02128" lon="4.70746">
        <ele>179</ele>
        <time>2016-10-04T08:58:56Z</time>
      </trkpt>
      <trkpt lat="46.02134" lon="4.70746">
        <ele>179</ele>
        <time>2016-10-04T08:58:57Z</time>
      </trkpt>
      <trkpt lat="46.0214" lon="4.70747">
        <ele>179</ele>
        <time>2016-10-04T08:58:58Z</time>
      </trkpt>
      <trkpt lat="46.02146" lon="4.70748">
        <ele>179</ele>
        <time>2016-10-04T08:58:59Z</time>
      </trkpt>
      <trkpt lat="46.02153" lon="4.7075">
        <ele>179</ele>
        <time>2016-10-04T08:59:00Z</time>
      </trkpt>
      <trkpt lat="46.02159" lon="4.70751">
        <ele>179</ele>
        <time>2016-10-04T08:59:01Z</time>
      </trkpt>
      <trkpt lat="46.02166" lon="4.70751">
        <ele>179</ele>
        <time>2016-10-04T08:59:02Z</time>
      </trkpt>
      <trkpt lat="46.02172" lon="4.70751">
        <ele>179</ele>
        <time>2016-10-04T08:59:03Z</time>
      </trkpt>
      <trkpt lat="46.02179" lon="4.70751">
        <ele>179</ele>
        <time>2016-10-04T08:59:04Z</time>
      </trkpt>
      <trkpt lat="46.02185" lon="4.70752">
        <ele>179</ele>
        <time>2016-10-04T08:59:05Z</time>
      </trkpt>
      <trkpt lat="46.0219" lon="4.70753">
        <ele>179</ele>
        <time>2016-10-04T08:59:06Z</time>
      </trkpt>
      <trkpt lat="46.02196" lon="4.70755">
        <ele>179</ele>
        <time>2016-10-04T08:59:07Z</time>
      </trkpt>
      <trkpt lat="46.02201" lon="4.70756">
        <ele>179</ele>
        <time>2016-10-04T08:59:08Z</time>
      </trkpt>
      <trkpt lat="46.02207" lon="4.70756">
        <ele>179</ele>
        <time>2016-10-04T08:59:09Z</time>
      </trkpt>
      <trkpt lat="46.02213" lon="4.7076">
        <ele>180</ele>
        <time>2016-10-04T08:59:10Z</time>
      </trkpt>
      <trkpt lat="46.02218" lon="4.70763">
        <ele>180</ele>
        <time>2016-10-04T08:59:11Z</time>
      </trkpt>
      <trkpt lat="46.02224" lon="4.70765">
        <ele>180</ele>
        <time>2016-10-04T08:59:12Z</time>
      </trkpt>
      <trkpt lat="46.0223" lon="4.70766">
        <ele>180</ele>
        <time>2016-10-04T08:59:13Z</time>
      </trkpt>
      <trkpt lat="46.02235" lon="4.70767">
        <ele>180</ele>
        <time>2016-10-04T08:59:14Z</time>
      </trkpt>
      <trkpt lat="46.02241" lon="4.70767">
        <ele>180</ele>
        <time>2016-10-04T08:59:15Z</time>
      </trkpt>
      <trkpt lat="46.02247" lon="4.70768">
        <ele>180</ele>
        <time>2016-10-04T08:59:16Z</time>
      </trkpt>
      <trkpt lat="46.02253" lon="4.70767">
        <ele>181</ele>
        <time>2016-10-04T08:59:17Z</time>
      </trkpt>
      <trkpt lat="46.02259" lon="4.70765">
        <ele>181</ele>
        <time>2016-10-04T08:59:18Z</time>
      </trkpt>
      <trkpt lat="46.02265" lon="4.70768">
        <ele>181</ele>
        <time>2016-10-04T08:59:19Z</time>
      </trkpt>
      <trkpt lat="46.02271" lon="4.70768">
        <ele>181</ele>
        <time>2016-10-04T08:59:20Z</time>
      </trkpt>
      <trkpt lat="46.02278" lon="4.70769">
        <ele>181</ele>
        <time>2016-10-04T08:59:21Z</time>
      </trkpt>
      <trkpt lat="46.02284" lon="4.70771">
        <ele>181</ele>
        <time>2016-10-04T08:59:22Z</time>
      </trkpt>
      <trkpt lat="46.02289" lon="4.70772">
        <ele>181</ele>
        <time>2016-10-04T08:59:23Z</time>
      </trkpt>
      <trkpt lat="46.02295" lon="4.70774">
        <ele>180</ele>
        <time>2016-10-04T08:59:24Z</time>
      </trkpt>
      <trkpt lat="46.02299" lon="4.70775">
        <ele>180</ele>
        <time>2016-10-04T08:59:25Z</time>
      </trkpt>
      <trkpt lat="46.02304" lon="4.70776">
        <ele>180</ele>
        <time>2016-10-04T08:59:26Z</time>
      </trkpt>
      <trkpt lat="46.02309" lon="4.70777">
        <ele>180</ele>
        <time>2016-10-04T08:59:27Z</time>
      </trkpt>
      <trkpt lat="46.02314" lon="4.70778">
        <ele>180</ele>
        <time>2016-10-04T08:59:28Z</time>
      </trkpt>
      <trkpt lat="46.02319" lon="4.70778">
        <ele>180</ele>
        <time>2016-10-04T08:59:29Z</time>
      </trkpt>
      <trkpt lat="46.02324" lon="4.70779">
        <ele>180</ele>
        <time>2016-10-04T08:59:30Z</time>
      </trkpt>
      <trkpt lat="46.02329" lon="4.7078">
        <ele>180</ele>
        <time>2016-10-04T08:59:31Z</time>
      </trkpt>
      <trkpt lat="46.02334" lon="4.7078">
        <ele>182</ele>
        <time>2016-10-04T08:59:32Z</time>
      </trkpt>
      <trkpt lat="46.02339" lon="4.70782">
        <ele>182</ele>
        <time>2016-10-04T08:59:33Z</time>
      </trkpt>
      <trkpt lat="46.02344" lon="4.70783">
        <ele>183</ele>
        <time>2016-10-04T08:59:34Z</time>
      </trkpt>
      <trkpt lat="46.02349" lon="4.70783">
        <ele>183</ele>
        <time>2016-10-04T08:59:35Z</time>
      </trkpt>
      <trkpt lat="46.02355" lon="4.70784">
        <ele>183</ele>
        <time>2016-10-04T08:59:36Z</time>
      </trkpt>
      <trkpt lat="46.0236" lon="4.70785">
        <ele>183</ele>
        <time>2016-10-04T08:59:37Z</time>
      </trkpt>
      <trkpt lat="46.02365" lon="4.70786">
        <ele>183</ele>
        <time>2016-10-04T08:59:38Z</time>
      </trkpt>
      <trkpt lat="46.0237" lon="4.70786">
        <ele>184</ele>
        <time>2016-10-04T08:59:39Z</time>
      </trkpt>
      <trkpt lat="46.02376" lon="4.70787">
        <ele>184</ele>
        <time>2016-10-04T08:59:40Z</time>
      </trkpt>
      <trkpt lat="46.02381" lon="4.70788">
        <ele>184</ele>
        <time>2016-10-04T08:59:41Z</time>
      </trkpt>
      <trkpt lat="46.02386" lon="4.7079">
        <ele>184</ele>
        <time>2016-10-04T08:59:42Z</time>
      </trkpt>
      <trkpt lat="46.02391" lon="4.7079">
        <ele>184</ele>
        <time>2016-10-04T08:59:43Z</time>
      </trkpt>
      <trkpt lat="46.02396" lon="4.70789">
        <ele>185</ele>
        <time>2016-10-04T08:59:44Z</time>
      </trkpt>
      <trkpt lat="46.02401" lon="4.70788">
        <ele>185</ele>
        <time>2016-10-04T08:59:45Z</time>
      </trkpt>
      <trkpt lat="46.02406" lon="4.70788">
        <ele>185</ele>
        <time>2016-10-04T08:59:46Z</time>
      </trkpt>
      <trkpt lat="46.02411" lon="4.70787">
        <ele>185</ele>
        <time>2016-10-04T08:59:47Z</time>
      </trkpt>
      <trkpt lat="46.02416" lon="4.70785">
        <ele>185</ele>
        <time>2016-10-04T08:59:48Z</time>
      </trkpt>
      <trkpt lat="46.02421" lon="4.70785">
        <ele>189</ele>
        <time>2016-10-04T08:59:49Z</time>
      </trkpt>
      <trkpt lat="46.0243" lon="4.70786">
        <ele>189</ele>
        <time>2016-10-04T08:59:51Z</time>
      </trkpt>
      <trkpt lat="46.02433" lon="4.70783">
        <ele>189</ele>
        <time>2016-10-04T08:59:52Z</time>
      </trkpt>
      <trkpt lat="46.02437" lon="4.70776">
        <ele>189</ele>
        <time>2016-10-04T08:59:53Z</time>
      </trkpt>
      <trkpt lat="46.02439" lon="4.70771">
        <ele>189</ele>
        <time>2016-10-04T08:59:54Z</time>
      </trkpt>
      <trkpt lat="46.02442" lon="4.70764">
        <ele>189</ele>
        <time>2016-10-04T08:59:55Z</time>
      </trkpt>
      <trkpt lat="46.02444" lon="4.70759">
        <ele>190</ele>
        <time>2016-10-04T08:59:56Z</time>
      </trkpt>
      <trkpt lat="46.02447" lon="4.70749">
        <ele>190</ele>
        <time>2016-10-04T08:59:58Z</time>
      </trkpt>
      <trkpt lat="46.02449" lon="4.70743">
        <ele>190</ele>
        <time>2016-10-04T08:59:59Z</time>
      </trkpt>
      <trkpt lat="46.02452" lon="4.70736">
        <ele>190</ele>
        <time>2016-10-04T09:00:00Z</time>
      </trkpt>
      <trkpt lat="46.02454" lon="4.70729">
        <ele>190</ele>
        <time>2016-10-04T09:00:01Z</time>
      </trkpt>
      <trkpt lat="46.02456" lon="4.70721">
        <ele>190</ele>
        <time>2016-10-04T09:00:02Z</time>
      </trkpt>
      <trkpt lat="46.02457" lon="4.70715">
        <ele>190</ele>
        <time>2016-10-04T09:00:03Z</time>
      </trkpt>
      <trkpt lat="46.02455" lon="4.70703">
        <ele>190</ele>
        <time>2016-10-04T09:00:05Z</time>
      </trkpt>
      <trkpt lat="46.02455" lon="4.70696">
        <ele>190</ele>
        <time>2016-10-04T09:00:06Z</time>
      </trkpt>
      <trkpt lat="46.02459" lon="4.70688">
        <ele>190</ele>
        <time>2016-10-04T09:00:07Z</time>
      </trkpt>
      <trkpt lat="46.02462" lon="4.7068">
        <ele>190</ele>
        <time>2016-10-04T09:00:08Z</time>
      </trkpt>
      <trkpt lat="46.02464" lon="4.70673">
        <ele>190</ele>
        <time>2016-10-04T09:00:09Z</time>
      </trkpt>
      <trkpt lat="46.02466" lon="4.70666">
        <ele>189</ele>
        <time>2016-10-04T09:00:10Z</time>
      </trkpt>
      <trkpt lat="46.02469" lon="4.70658">
        <ele>189</ele>
        <time>2016-10-04T09:00:12Z</time>
      </trkpt>
      <trkpt lat="46.0247" lon="4.70654">
        <ele>189</ele>
        <time>2016-10-04T09:00:13Z</time>
      </trkpt>
      <trkpt lat="46.02474" lon="4.70643">
        <ele>189</ele>
        <time>2016-10-04T09:00:15Z</time>
      </trkpt>
      <trkpt lat="46.02476" lon="4.70637">
        <ele>188</ele>
        <time>2016-10-04T09:00:16Z</time>
      </trkpt>
      <trkpt lat="46.02478" lon="4.7063">
        <ele>188</ele>
        <time>2016-10-04T09:00:17Z</time>
      </trkpt>
      <trkpt lat="46.0248" lon="4.70623">
        <ele>188</ele>
        <time>2016-10-04T09:00:18Z</time>
      </trkpt>
      <trkpt lat="46.02481" lon="4.70615">
        <ele>188</ele>
        <time>2016-10-04T09:00:19Z</time>
      </trkpt>
      <trkpt lat="46.02482" lon="4.70607">
        <ele>188</ele>
        <time>2016-10-04T09:00:20Z</time>
      </trkpt>
      <trkpt lat="46.02484" lon="4.70599">
        <ele>188</ele>
        <time>2016-10-04T09:00:21Z</time>
      </trkpt>
      <trkpt lat="46.02485" lon="4.70591">
        <ele>188</ele>
        <time>2016-10-04T09:00:22Z</time>
      </trkpt>
      <trkpt lat="46.02487" lon="4.70583">
        <ele>187</ele>
        <time>2016-10-04T09:00:23Z</time>
      </trkpt>
      <trkpt lat="46.02487" lon="4.70573">
        <ele>187</ele>
        <time>2016-10-04T09:00:24Z</time>
      </trkpt>
      <trkpt lat="46.02487" lon="4.70564">
        <ele>187</ele>
        <time>2016-10-04T09:00:25Z</time>
      </trkpt>
      <trkpt lat="46.02489" lon="4.70556">
        <ele>187</ele>
        <time>2016-10-04T09:00:26Z</time>
      </trkpt>
      <trkpt lat="46.0249" lon="4.70549">
        <ele>186</ele>
        <time>2016-10-04T09:00:27Z</time>
      </trkpt>
      <trkpt lat="46.02491" lon="4.70541">
        <ele>186</ele>
        <time>2016-10-04T09:00:28Z</time>
      </trkpt>
      <trkpt lat="46.02496" lon="4.70537">
        <ele>186</ele>
        <time>2016-10-04T09:00:29Z</time>
      </trkpt>
      <trkpt lat="46.02499" lon="4.70531">
        <ele>186</ele>
        <time>2016-10-04T09:00:30Z</time>
      </trkpt>
      <trkpt lat="46.02502" lon="4.70524">
        <ele>188</ele>
        <time>2016-10-04T09:00:31Z</time>
      </trkpt>
      <trkpt lat="46.02504" lon="4.70517">
        <ele>187</ele>
        <time>2016-10-04T09:00:32Z</time>
      </trkpt>
      <trkpt lat="46.02506" lon="4.7051">
        <ele>187</ele>
        <time>2016-10-04T09:00:33Z</time>
      </trkpt>
      <trkpt lat="46.02509" lon="4.70502">
        <ele>187</ele>
        <time>2016-10-04T09:00:34Z</time>
      </trkpt>
      <trkpt lat="46.02511" lon="4.70494">
        <ele>187</ele>
        <time>2016-10-04T09:00:35Z</time>
      </trkpt>
      <trkpt lat="46.02513" lon="4.70486">
        <ele>187</ele>
        <time>2016-10-04T09:00:36Z</time>
      </trkpt>
      <trkpt lat="46.02515" lon="4.70478">
        <ele>187</ele>
        <time>2016-10-04T09:00:37Z</time>
      </trkpt>
      <trkpt lat="46.02517" lon="4.70471">
        <ele>187</ele>
        <time>2016-10-04T09:00:38Z</time>
      </trkpt>
      <trkpt lat="46.0252" lon="4.70464">
        <ele>187</ele>
        <time>2016-10-04T09:00:39Z</time>
      </trkpt>
      <trkpt lat="46.02523" lon="4.70458">
        <ele>187</ele>
        <time>2016-10-04T09:00:40Z</time>
      </trkpt>
      <trkpt lat="46.02525" lon="4.70452">
        <ele>187</ele>
        <time>2016-10-04T09:00:41Z</time>
      </trkpt>
      <trkpt lat="46.02527" lon="4.70446">
        <ele>187</ele>
        <time>2016-10-04T09:00:42Z</time>
      </trkpt>
      <trkpt lat="46.02529" lon="4.70439">
        <ele>187</ele>
        <time>2016-10-04T09:00:43Z</time>
      </trkpt>
      <trkpt lat="46.02531" lon="4.70432">
        <ele>187</ele>
        <time>2016-10-04T09:00:44Z</time>
      </trkpt>
      <trkpt lat="46.02534" lon="4.70424">
        <ele>187</ele>
        <time>2016-10-04T09:00:45Z</time>
      </trkpt>
      <trkpt lat="46.02536" lon="4.70416">
        <ele>186</ele>
        <time>2016-10-04T09:00:46Z</time>
      </trkpt>
      <trkpt lat="46.02538" lon="4.70407">
        <ele>186</ele>
        <time>2016-10-04T09:00:47Z</time>
      </trkpt>
      <trkpt lat="46.0254" lon="4.70398">
        <ele>186</ele>
        <time>2016-10-04T09:00:48Z</time>
      </trkpt>
      <trkpt lat="46.02543" lon="4.7039">
        <ele>187</ele>
        <time>2016-10-04T09:00:49Z</time>
      </trkpt>
      <trkpt lat="46.02545" lon="4.70382">
        <ele>187</ele>
        <time>2016-10-04T09:00:50Z</time>
      </trkpt>
      <trkpt lat="46.02547" lon="4.70374">
        <ele>187</ele>
        <time>2016-10-04T09:00:51Z</time>
      </trkpt>
      <trkpt lat="46.0255" lon="4.70366">
        <ele>187</ele>
        <time>2016-10-04T09:00:52Z</time>
      </trkpt>
      <trkpt lat="46.02552" lon="4.70358">
        <ele>187</ele>
        <time>2016-10-04T09:00:53Z</time>
      </trkpt>
      <trkpt lat="46.02555" lon="4.70349">
        <ele>187</ele>
        <time>2016-10-04T09:00:54Z</time>
      </trkpt>
      <trkpt lat="46.02558" lon="4.70343">
        <ele>187</ele>
        <time>2016-10-04T09:00:55Z</time>
      </trkpt>
      <trkpt lat="46.02561" lon="4.70334">
        <ele>187</ele>
        <time>2016-10-04T09:00:56Z</time>
      </trkpt>
      <trkpt lat="46.02563" lon="4.70326">
        <ele>187</ele>
        <time>2016-10-04T09:00:57Z</time>
      </trkpt>
      <trkpt lat="46.02565" lon="4.70318">
        <ele>187</ele>
        <time>2016-10-04T09:00:58Z</time>
      </trkpt>
      <trkpt lat="46.02567" lon="4.7031">
        <ele>187</ele>
        <time>2016-10-04T09:00:59Z</time>
      </trkpt>
      <trkpt lat="46.0257" lon="4.70301">
        <ele>187</ele>
        <time>2016-10-04T09:01:00Z</time>
      </trkpt>
      <trkpt lat="46.02573" lon="4.70294">
        <ele>187</ele>
        <time>2016-10-04T09:01:01Z</time>
      </trkpt>
      <trkpt lat="46.02575" lon="4.70287">
        <ele>187</ele>
        <time>2016-10-04T09:01:02Z</time>
      </trkpt>
      <trkpt lat="46.02578" lon="4.70279">
        <ele>187</ele>
        <time>2016-10-04T09:01:03Z</time>
      </trkpt>
      <trkpt lat="46.02581" lon="4.70272">
        <ele>187</ele>
        <time>2016-10-04T09:01:04Z</time>
      </trkpt>
      <trkpt lat="46.02583" lon="4.70265">
        <ele>187</ele>
        <time>2016-10-04T09:01:05Z</time>
      </trkpt>
      <trkpt lat="46.02586" lon="4.70258">
        <ele>188</ele>
        <time>2016-10-04T09:01:06Z</time>
      </trkpt>
      <trkpt lat="46.02589" lon="4.70251">
        <ele>188</ele>
        <time>2016-10-04T09:01:07Z</time>
      </trkpt>
      <trkpt lat="46.02592" lon="4.70244">
        <ele>188</ele>
        <time>2016-10-04T09:01:08Z</time>
      </trkpt>
      <trkpt lat="46.02595" lon="4.70238">
        <ele>188</ele>
        <time>2016-10-04T09:01:09Z</time>
      </trkpt>
      <trkpt lat="46.02598" lon="4.70231">
        <ele>188</ele>
        <time>2016-10-04T09:01:10Z</time>
      </trkpt>
      <trkpt lat="46.02601" lon="4.70223">
        <ele>188</ele>
        <time>2016-10-04T09:01:11Z</time>
      </trkpt>
      <trkpt lat="46.02604" lon="4.70215">
        <ele>188</ele>
        <time>2016-10-04T09:01:12Z</time>
      </trkpt>
      <trkpt lat="46.02607" lon="4.70208">
        <ele>188</ele>
        <time>2016-10-04T09:01:13Z</time>
      </trkpt>
      <trkpt lat="46.0261" lon="4.70202">
        <ele>188</ele>
        <time>2016-10-04T09:01:14Z</time>
      </trkpt>
      <trkpt lat="46.02613" lon="4.70194">
        <ele>188</ele>
        <time>2016-10-04T09:01:15Z</time>
      </trkpt>
      <trkpt lat="46.02616" lon="4.70187">
        <ele>188</ele>
        <time>2016-10-04T09:01:16Z</time>
      </trkpt>
      <trkpt lat="46.02619" lon="4.7018">
        <ele>188</ele>
        <time>2016-10-04T09:01:17Z</time>
      </trkpt>
      <trkpt lat="46.02622" lon="4.70173">
        <ele>188</ele>
        <time>2016-10-04T09:01:18Z</time>
      </trkpt>
      <trkpt lat="46.02625" lon="4.70166">
        <ele>187</ele>
        <time>2016-10-04T09:01:19Z</time>
      </trkpt>
      <trkpt lat="46.02628" lon="4.7016">
        <ele>188</ele>
        <time>2016-10-04T09:01:20Z</time>
      </trkpt>
      <trkpt lat="46.0263" lon="4.70154">
        <ele>188</ele>
        <time>2016-10-04T09:01:21Z</time>
      </trkpt>
      <trkpt lat="46.02633" lon="4.70147">
        <ele>188</ele>
        <time>2016-10-04T09:01:22Z</time>
      </trkpt>
      <trkpt lat="46.02636" lon="4.70141">
        <ele>188</ele>
        <time>2016-10-04T09:01:23Z</time>
      </trkpt>
      <trkpt lat="46.02639" lon="4.70134">
        <ele>188</ele>
        <time>2016-10-04T09:01:24Z</time>
      </trkpt>
      <trkpt lat="46.02642" lon="4.70126">
        <ele>188</ele>
        <time>2016-10-04T09:01:25Z</time>
      </trkpt>
      <trkpt lat="46.02645" lon="4.70119">
        <ele>188</ele>
        <time>2016-10-04T09:01:26Z</time>
      </trkpt>
      <trkpt lat="46.02647" lon="4.70113">
        <ele>188</ele>
        <time>2016-10-04T09:01:27Z</time>
      </trkpt>
      <trkpt lat="46.0265" lon="4.70106">
        <ele>188</ele>
        <time>2016-10-04T09:01:28Z</time>
      </trkpt>
      <trkpt lat="46.02652" lon="4.701">
        <ele>188</ele>
        <time>2016-10-04T09:01:29Z</time>
      </trkpt>
      <trkpt lat="46.02655" lon="4.70095">
        <ele>188</ele>
        <time>2016-10-04T09:01:30Z</time>
      </trkpt>
      <trkpt lat="46.02658" lon="4.70089">
        <ele>188</ele>
        <time>2016-10-04T09:01:31Z</time>
      </trkpt>
      <trkpt lat="46.0266" lon="4.70081">
        <ele>188</ele>
        <time>2016-10-04T09:01:32Z</time>
      </trkpt>
      <trkpt lat="46.02665" lon="4.70071">
        <ele>188</ele>
        <time>2016-10-04T09:01:34Z</time>
      </trkpt>
      <trkpt lat="46.02667" lon="4.70065">
        <ele>188</ele>
        <time>2016-10-04T09:01:35Z</time>
      </trkpt>
      <trkpt lat="46.02669" lon="4.70059">
        <ele>189</ele>
        <time>2016-10-04T09:01:36Z</time>
      </trkpt>
      <trkpt lat="46.02672" lon="4.70054">
        <ele>189</ele>
        <time>2016-10-04T09:01:37Z</time>
      </trkpt>
      <trkpt lat="46.02675" lon="4.70049">
        <ele>189</ele>
        <time>2016-10-04T09:01:38Z</time>
      </trkpt>
      <trkpt lat="46.02678" lon="4.70044">
        <ele>189</ele>
        <time>2016-10-04T09:01:39Z</time>
      </trkpt>
      <trkpt lat="46.02681" lon="4.70036">
        <ele>189</ele>
        <time>2016-10-04T09:01:40Z</time>
      </trkpt>
      <trkpt lat="46.02683" lon="4.7003">
        <ele>189</ele>
        <time>2016-10-04T09:01:41Z</time>
      </trkpt>
      <trkpt lat="46.02686" lon="4.70024">
        <ele>189</ele>
        <time>2016-10-04T09:01:42Z</time>
      </trkpt>
      <trkpt lat="46.02689" lon="4.70018">
        <ele>189</ele>
        <time>2016-10-04T09:01:43Z</time>
      </trkpt>
      <trkpt lat="46.02692" lon="4.7001">
        <ele>189</ele>
        <time>2016-10-04T09:01:44Z</time>
      </trkpt>
      <trkpt lat="46.02695" lon="4.70004">
        <ele>189</ele>
        <time>2016-10-04T09:01:45Z</time>
      </trkpt>
      <trkpt lat="46.02698" lon="4.69998">
        <ele>189</ele>
        <time>2016-10-04T09:01:46Z</time>
      </trkpt>
      <trkpt lat="46.02701" lon="4.69992">
        <ele>189</ele>
        <time>2016-10-04T09:01:47Z</time>
      </trkpt>
      <trkpt lat="46.02704" lon="4.69985">
        <ele>189</ele>
        <time>2016-10-04T09:01:48Z</time>
      </trkpt>
      <trkpt lat="46.02707" lon="4.69979">
        <ele>189</ele>
        <time>2016-10-04T09:01:49Z</time>
      </trkpt>
      <trkpt lat="46.02709" lon="4.69973">
        <ele>189</ele>
        <time>2016-10-04T09:01:50Z</time>
      </trkpt>
      <trkpt lat="46.02712" lon="4.69967">
        <ele>189</ele>
        <time>2016-10-04T09:01:51Z</time>
      </trkpt>
      <trkpt lat="46.02714" lon="4.69961">
        <ele>189</ele>
        <time>2016-10-04T09:01:52Z</time>
      </trkpt>
      <trkpt lat="46.02716" lon="4.69955">
        <ele>189</ele>
        <time>2016-10-04T09:01:53Z</time>
      </trkpt>
      <trkpt lat="46.02719" lon="4.69949">
        <ele>190</ele>
        <time>2016-10-04T09:01:54Z</time>
      </trkpt>
      <trkpt lat="46.02721" lon="4.69943">
        <ele>190</ele>
        <time>2016-10-04T09:01:55Z</time>
      </trkpt>
      <trkpt lat="46.02724" lon="4.69937">
        <ele>190</ele>
        <time>2016-10-04T09:01:56Z</time>
      </trkpt>
      <trkpt lat="46.02727" lon="4.6993">
        <ele>190</ele>
        <time>2016-10-04T09:01:57Z</time>
      </trkpt>
      <trkpt lat="46.0273" lon="4.69923">
        <ele>190</ele>
        <time>2016-10-04T09:01:58Z</time>
      </trkpt>
      <trkpt lat="46.02733" lon="4.69916">
        <ele>190</ele>
        <time>2016-10-04T09:01:59Z</time>
      </trkpt>
      <trkpt lat="46.02735" lon="4.69908">
        <ele>190</ele>
        <time>2016-10-04T09:02:00Z</time>
      </trkpt>
      <trkpt lat="46.02739" lon="4.69902">
        <ele>190</ele>
        <time>2016-10-04T09:02:01Z</time>
      </trkpt>
      <trkpt lat="46.02742" lon="4.69895">
        <ele>190</ele>
        <time>2016-10-04T09:02:02Z</time>
      </trkpt>
      <trkpt lat="46.02745" lon="4.69888">
        <ele>190</ele>
        <time>2016-10-04T09:02:03Z</time>
      </trkpt>
      <trkpt lat="46.02748" lon="4.69882">
        <ele>190</ele>
        <time>2016-10-04T09:02:04Z</time>
      </trkpt>
      <trkpt lat="46.0275" lon="4.69876">
        <ele>191</ele>
        <time>2016-10-04T09:02:05Z</time>
      </trkpt>
      <trkpt lat="46.02753" lon="4.6987">
        <ele>191</ele>
        <time>2016-10-04T09:02:06Z</time>
      </trkpt>
      <trkpt lat="46.02756" lon="4.69864">
        <ele>191</ele>
        <time>2016-10-04T09:02:07Z</time>
      </trkpt>
      <trkpt lat="46.02759" lon="4.69858">
        <ele>191</ele>
        <time>2016-10-04T09:02:08Z</time>
      </trkpt>
      <trkpt lat="46.02761" lon="4.69851">
        <ele>191</ele>
        <time>2016-10-04T09:02:09Z</time>
      </trkpt>
      <trkpt lat="46.02765" lon="4.69844">
        <ele>191</ele>
        <time>2016-10-04T09:02:10Z</time>
      </trkpt>
      <trkpt lat="46.02768" lon="4.69838">
        <ele>191</ele>
        <time>2016-10-04T09:02:11Z</time>
      </trkpt>
      <trkpt lat="46.02771" lon="4.69832">
        <ele>190</ele>
        <time>2016-10-04T09:02:12Z</time>
      </trkpt>
      <trkpt lat="46.02774" lon="4.69825">
        <ele>190</ele>
        <time>2016-10-04T09:02:13Z</time>
      </trkpt>
      <trkpt lat="46.02776" lon="4.69818">
        <ele>190</ele>
        <time>2016-10-04T09:02:14Z</time>
      </trkpt>
      <trkpt lat="46.02779" lon="4.69812">
        <ele>190</ele>
        <time>2016-10-04T09:02:15Z</time>
      </trkpt>
      <trkpt lat="46.02783" lon="4.69805">
        <ele>190</ele>
        <time>2016-10-04T09:02:16Z</time>
      </trkpt>
      <trkpt lat="46.02786" lon="4.69799">
        <ele>190</ele>
        <time>2016-10-04T09:02:17Z</time>
      </trkpt>
      <trkpt lat="46.02788" lon="4.69793">
        <ele>190</ele>
        <time>2016-10-04T09:02:18Z</time>
      </trkpt>
      <trkpt lat="46.02791" lon="4.69787">
        <ele>190</ele>
        <time>2016-10-04T09:02:19Z</time>
      </trkpt>
      <trkpt lat="46.02793" lon="4.69781">
        <ele>190</ele>
        <time>2016-10-04T09:02:20Z</time>
      </trkpt>
      <trkpt lat="46.02796" lon="4.69775">
        <ele>190</ele>
        <time>2016-10-04T09:02:21Z</time>
      </trkpt>
      <trkpt lat="46.02799" lon="4.69769">
        <ele>190</ele>
        <time>2016-10-04T09:02:22Z</time>
      </trkpt>
      <trkpt lat="46.02802" lon="4.69762">
        <ele>189</ele>
        <time>2016-10-04T09:02:23Z</time>
      </trkpt>
      <trkpt lat="46.02805" lon="4.69755">
        <ele>189</ele>
        <time>2016-10-04T09:02:24Z</time>
      </trkpt>
      <trkpt lat="46.02808" lon="4.69748">
        <ele>189</ele>
        <time>2016-10-04T09:02:25Z</time>
      </trkpt>
      <trkpt lat="46.02811" lon="4.69741">
        <ele>189</ele>
        <time>2016-10-04T09:02:26Z</time>
      </trkpt>
      <trkpt lat="46.02814" lon="4.69733">
        <ele>189</ele>
        <time>2016-10-04T09:02:27Z</time>
      </trkpt>
      <trkpt lat="46.02816" lon="4.69726">
        <ele>189</ele>
        <time>2016-10-04T09:02:28Z</time>
      </trkpt>
      <trkpt lat="46.02819" lon="4.69719">
        <ele>190</ele>
        <time>2016-10-04T09:02:29Z</time>
      </trkpt>
      <trkpt lat="46.02823" lon="4.69713">
        <ele>190</ele>
        <time>2016-10-04T09:02:30Z</time>
      </trkpt>
      <trkpt lat="46.02826" lon="4.69706">
        <ele>190</ele>
        <time>2016-10-04T09:02:31Z</time>
      </trkpt>
      <trkpt lat="46.0283" lon="4.69701">
        <ele>190</ele>
        <time>2016-10-04T09:02:32Z</time>
      </trkpt>
      <trkpt lat="46.02832" lon="4.69694">
        <ele>190</ele>
        <time>2016-10-04T09:02:33Z</time>
      </trkpt>
      <trkpt lat="46.02835" lon="4.69688">
        <ele>191</ele>
        <time>2016-10-04T09:02:34Z</time>
      </trkpt>
      <trkpt lat="46.02837" lon="4.69682">
        <ele>191</ele>
        <time>2016-10-04T09:02:35Z</time>
      </trkpt>
      <trkpt lat="46.0284" lon="4.69675">
        <ele>191</ele>
        <time>2016-10-04T09:02:36Z</time>
      </trkpt>
      <trkpt lat="46.02842" lon="4.69668">
        <ele>191</ele>
        <time>2016-10-04T09:02:37Z</time>
      </trkpt>
      <trkpt lat="46.02845" lon="4.69662">
        <ele>191</ele>
        <time>2016-10-04T09:02:38Z</time>
      </trkpt>
      <trkpt lat="46.02847" lon="4.69655">
        <ele>191</ele>
        <time>2016-10-04T09:02:39Z</time>
      </trkpt>
      <trkpt lat="46.02849" lon="4.69648">
        <ele>191</ele>
        <time>2016-10-04T09:02:40Z</time>
      </trkpt>
      <trkpt lat="46.02852" lon="4.69641">
        <ele>192</ele>
        <time>2016-10-04T09:02:41Z</time>
      </trkpt>
      <trkpt lat="46.02855" lon="4.69634">
        <ele>192</ele>
        <time>2016-10-04T09:02:42Z</time>
      </trkpt>
      <trkpt lat="46.02858" lon="4.69627">
        <ele>192</ele>
        <time>2016-10-04T09:02:43Z</time>
      </trkpt>
      <trkpt lat="46.0286" lon="4.69621">
        <ele>192</ele>
        <time>2016-10-04T09:02:44Z</time>
      </trkpt>
      <trkpt lat="46.02863" lon="4.69615">
        <ele>192</ele>
        <time>2016-10-04T09:02:45Z</time>
      </trkpt>
      <trkpt lat="46.02866" lon="4.69608">
        <ele>192</ele>
        <time>2016-10-04T09:02:46Z</time>
      </trkpt>
      <trkpt lat="46.02869" lon="4.69603">
        <ele>192</ele>
        <time>2016-10-04T09:02:47Z</time>
      </trkpt>
      <trkpt lat="46.02872" lon="4.69598">
        <ele>192</ele>
        <time>2016-10-04T09:02:48Z</time>
      </trkpt>
      <trkpt lat="46.02875" lon="4.69592">
        <ele>192</ele>
        <time>2016-10-04T09:02:49Z</time>
      </trkpt>
      <trkpt lat="46.02878" lon="4.69586">
        <ele>192</ele>
        <time>2016-10-04T09:02:50Z</time>
      </trkpt>
      <trkpt lat="46.02881" lon="4.69579">
        <ele>192</ele>
        <time>2016-10-04T09:02:51Z</time>
      </trkpt>
      <trkpt lat="46.02883" lon="4.69573">
        <ele>192</ele>
        <time>2016-10-04T09:02:52Z</time>
      </trkpt>
      <trkpt lat="46.02886" lon="4.69566">
        <ele>192</ele>
        <time>2016-10-04T09:02:53Z</time>
      </trkpt>
      <trkpt lat="46.02889" lon="4.6956">
        <ele>192</ele>
        <time>2016-10-04T09:02:54Z</time>
      </trkpt>
      <trkpt lat="46.02892" lon="4.69553">
        <ele>192</ele>
        <time>2016-10-04T09:02:55Z</time>
      </trkpt>
      <trkpt lat="46.02894" lon="4.69547">
        <ele>192</ele>
        <time>2016-10-04T09:02:56Z</time>
      </trkpt>
      <trkpt lat="46.02896" lon="4.69541">
        <ele>192</ele>
        <time>2016-10-04T09:02:57Z</time>
      </trkpt>
      <trkpt lat="46.02899" lon="4.69535">
        <ele>192</ele>
        <time>2016-10-04T09:02:58Z</time>
      </trkpt>
      <trkpt lat="46.02902" lon="4.6953">
        <ele>192</ele>
        <time>2016-10-04T09:02:59Z</time>
      </trkpt>
      <trkpt lat="46.02904" lon="4.69524">
        <ele>192</ele>
        <time>2016-10-04T09:03:00Z</time>
      </trkpt>
      <trkpt lat="46.02907" lon="4.69519">
        <ele>192</ele>
        <time>2016-10-04T09:03:01Z</time>
      </trkpt>
      <trkpt lat="46.0291" lon="4.69514">
        <ele>192</ele>
        <time>2016-10-04T09:03:02Z</time>
      </trkpt>
      <trkpt lat="46.02913" lon="4.69508">
        <ele>192</ele>
        <time>2016-10-04T09:03:03Z</time>
      </trkpt>
      <trkpt lat="46.02916" lon="4.69501">
        <ele>192</ele>
        <time>2016-10-04T09:03:04Z</time>
      </trkpt>
      <trkpt lat="46.02918" lon="4.69495">
        <ele>192</ele>
        <time>2016-10-04T09:03:05Z</time>
      </trkpt>
      <trkpt lat="46.02921" lon="4.69489">
        <ele>193</ele>
        <time>2016-10-04T09:03:06Z</time>
      </trkpt>
      <trkpt lat="46.02924" lon="4.69483">
        <ele>193</ele>
        <time>2016-10-04T09:03:07Z</time>
      </trkpt>
      <trkpt lat="46.02927" lon="4.69477">
        <ele>193</ele>
        <time>2016-10-04T09:03:08Z</time>
      </trkpt>
      <trkpt lat="46.02929" lon="4.6947">
        <ele>193</ele>
        <time>2016-10-04T09:03:09Z</time>
      </trkpt>
      <trkpt lat="46.02932" lon="4.69464">
        <ele>194</ele>
        <time>2016-10-04T09:03:10Z</time>
      </trkpt>
      <trkpt lat="46.02934" lon="4.69458">
        <ele>194</ele>
        <time>2016-10-04T09:03:11Z</time>
      </trkpt>
      <trkpt lat="46.02937" lon="4.69451">
        <ele>194</ele>
        <time>2016-10-04T09:03:12Z</time>
      </trkpt>
      <trkpt lat="46.0294" lon="4.69444">
        <ele>194</ele>
        <time>2016-10-04T09:03:13Z</time>
      </trkpt>
      <trkpt lat="46.02942" lon="4.69438">
        <ele>194</ele>
        <time>2016-10-04T09:03:14Z</time>
      </trkpt>
      <trkpt lat="46.02944" lon="4.69432">
        <ele>194</ele>
        <time>2016-10-04T09:03:15Z</time>
      </trkpt>
      <trkpt lat="46.02946" lon="4.69426">
        <ele>194</ele>
        <time>2016-10-04T09:03:16Z</time>
      </trkpt>
      <trkpt lat="46.02948" lon="4.6942">
        <ele>194</ele>
        <time>2016-10-04T09:03:17Z</time>
      </trkpt>
      <trkpt lat="46.0295" lon="4.69413">
        <ele>194</ele>
        <time>2016-10-04T09:03:18Z</time>
      </trkpt>
      <trkpt lat="46.02952" lon="4.69406">
        <ele>194</ele>
        <time>2016-10-04T09:03:19Z</time>
      </trkpt>
      <trkpt lat="46.02954" lon="4.69398">
        <ele>194</ele>
        <time>2016-10-04T09:03:20Z</time>
      </trkpt>
      <trkpt lat="46.02956" lon="4.69391">
        <ele>194</ele>
        <time>2016-10-04T09:03:21Z</time>
      </trkpt>
      <trkpt lat="46.02957" lon="4.69384">
        <ele>194</ele>
        <time>2016-10-04T09:03:22Z</time>
      </trkpt>
      <trkpt lat="46.0296" lon="4.69377">
        <ele>194</ele>
        <time>2016-10-04T09:03:23Z</time>
      </trkpt>
      <trkpt lat="46.02962" lon="4.6937">
        <ele>194</ele>
        <time>2016-10-04T09:03:24Z</time>
      </trkpt>
      <trkpt lat="46.02963" lon="4.69363">
        <ele>194</ele>
        <time>2016-10-04T09:03:25Z</time>
      </trkpt>
      <trkpt lat="46.02965" lon="4.69357">
        <ele>194</ele>
        <time>2016-10-04T09:03:26Z</time>
      </trkpt>
      <trkpt lat="46.02967" lon="4.6935">
        <ele>194</ele>
        <time>2016-10-04T09:03:27Z</time>
      </trkpt>
      <trkpt lat="46.02968" lon="4.69344">
        <ele>194</ele>
        <time>2016-10-04T09:03:28Z</time>
      </trkpt>
      <trkpt lat="46.0297" lon="4.69337">
        <ele>194</ele>
        <time>2016-10-04T09:03:29Z</time>
      </trkpt>
      <trkpt lat="46.02971" lon="4.69329">
        <ele>194</ele>
        <time>2016-10-04T09:03:30Z</time>
      </trkpt>
      <trkpt lat="46.02973" lon="4.69321">
        <ele>194</ele>
        <time>2016-10-04T09:03:31Z</time>
      </trkpt>
      <trkpt lat="46.02976" lon="4.69314">
        <ele>194</ele>
        <time>2016-10-04T09:03:32Z</time>
      </trkpt>
      <trkpt lat="46.02978" lon="4.69307">
        <ele>194</ele>
        <time>2016-10-04T09:03:33Z</time>
      </trkpt>
      <trkpt lat="46.02979" lon="4.693">
        <ele>194</ele>
        <time>2016-10-04T09:03:34Z</time>
      </trkpt>
      <trkpt lat="46.02981" lon="4.69293">
        <ele>194</ele>
        <time>2016-10-04T09:03:35Z</time>
      </trkpt>
      <trkpt lat="46.02982" lon="4.69286">
        <ele>194</ele>
        <time>2016-10-04T09:03:36Z</time>
      </trkpt>
      <trkpt lat="46.02983" lon="4.69278">
        <ele>194</ele>
        <time>2016-10-04T09:03:37Z</time>
      </trkpt>
      <trkpt lat="46.02984" lon="4.69271">
        <ele>194</ele>
        <time>2016-10-04T09:03:38Z</time>
      </trkpt>
      <trkpt lat="46.02985" lon="4.69264">
        <ele>194</ele>
        <time>2016-10-04T09:03:39Z</time>
      </trkpt>
      <trkpt lat="46.02986" lon="4.69257">
        <ele>195</ele>
        <time>2016-10-04T09:03:40Z</time>
      </trkpt>
      <trkpt lat="46.02987" lon="4.69249">
        <ele>195</ele>
        <time>2016-10-04T09:03:41Z</time>
      </trkpt>
      <trkpt lat="46.02988" lon="4.69242">
        <ele>195</ele>
        <time>2016-10-04T09:03:42Z</time>
      </trkpt>
      <trkpt lat="46.02989" lon="4.69234">
        <ele>195</ele>
        <time>2016-10-04T09:03:43Z</time>
      </trkpt>
      <trkpt lat="46.0299" lon="4.69227">
        <ele>195</ele>
        <time>2016-10-04T09:03:44Z</time>
      </trkpt>
      <trkpt lat="46.02992" lon="4.6922">
        <ele>195</ele>
        <time>2016-10-04T09:03:45Z</time>
      </trkpt>
      <trkpt lat="46.02993" lon="4.69213">
        <ele>195</ele>
        <time>2016-10-04T09:03:46Z</time>
      </trkpt>
      <trkpt lat="46.02994" lon="4.69205">
        <ele>195</ele>
        <time>2016-10-04T09:03:47Z</time>
      </trkpt>
      <trkpt lat="46.02996" lon="4.69198">
        <ele>195</ele>
        <time>2016-10-04T09:03:48Z</time>
      </trkpt>
      <trkpt lat="46.02997" lon="4.69191">
        <ele>195</ele>
        <time>2016-10-04T09:03:49Z</time>
      </trkpt>
      <trkpt lat="46.02998" lon="4.69184">
        <ele>195</ele>
        <time>2016-10-04T09:03:50Z</time>
      </trkpt>
      <trkpt lat="46.02999" lon="4.69176">
        <ele>195</ele>
        <time>2016-10-04T09:03:51Z</time>
      </trkpt>
      <trkpt lat="46.03" lon="4.69168">
        <ele>195</ele>
        <time>2016-10-04T09:03:52Z</time>
      </trkpt>
      <trkpt lat="46.03001" lon="4.69161">
        <ele>196</ele>
        <time>2016-10-04T09:03:53Z</time>
      </trkpt>
      <trkpt lat="46.03002" lon="4.69153">
        <ele>196</ele>
        <time>2016-10-04T09:03:54Z</time>
      </trkpt>
      <trkpt lat="46.03003" lon="4.69145">
        <ele>197</ele>
        <time>2016-10-04T09:03:55Z</time>
      </trkpt>
      <trkpt lat="46.03004" lon="4.69138">
        <ele>197</ele>
        <time>2016-10-04T09:03:56Z</time>
      </trkpt>
      <trkpt lat="46.03005" lon="4.69132">
        <ele>197</ele>
        <time>2016-10-04T09:03:57Z</time>
      </trkpt>
      <trkpt lat="46.03006" lon="4.69125">
        <ele>197</ele>
        <time>2016-10-04T09:03:58Z</time>
      </trkpt>
      <trkpt lat="46.03006" lon="4.69119">
        <ele>197</ele>
        <time>2016-10-04T09:03:59Z</time>
      </trkpt>
      <trkpt lat="46.03007" lon="4.69112">
        <ele>198</ele>
        <time>2016-10-04T09:04:00Z</time>
      </trkpt>
      <trkpt lat="46.03008" lon="4.69105">
        <ele>198</ele>
        <time>2016-10-04T09:04:01Z</time>
      </trkpt>
      <trkpt lat="46.03008" lon="4.69098">
        <ele>198</ele>
        <time>2016-10-04T09:04:02Z</time>
      </trkpt>
      <trkpt lat="46.03008" lon="4.69092">
        <ele>198</ele>
        <time>2016-10-04T09:04:03Z</time>
      </trkpt>
      <trkpt lat="46.03009" lon="4.69085">
        <ele>198</ele>
        <time>2016-10-04T09:04:04Z</time>
      </trkpt>
      <trkpt lat="46.0301" lon="4.69078">
        <ele>198</ele>
        <time>2016-10-04T09:04:05Z</time>
      </trkpt>
      <trkpt lat="46.03012" lon="4.69072">
        <ele>199</ele>
        <time>2016-10-04T09:04:06Z</time>
      </trkpt>
      <trkpt lat="46.03013" lon="4.69066">
        <ele>199</ele>
        <time>2016-10-04T09:04:07Z</time>
      </trkpt>
      <trkpt lat="46.03014" lon="4.69059">
        <ele>199</ele>
        <time>2016-10-04T09:04:08Z</time>
      </trkpt>
      <trkpt lat="46.03016" lon="4.69053">
        <ele>199</ele>
        <time>2016-10-04T09:04:09Z</time>
      </trkpt>
      <trkpt lat="46.03017" lon="4.69046">
        <ele>199</ele>
        <time>2016-10-04T09:04:10Z</time>
      </trkpt>
      <trkpt lat="46.03019" lon="4.6904">
        <ele>199</ele>
        <time>2016-10-04T09:04:11Z</time>
      </trkpt>
      <trkpt lat="46.0302" lon="4.69033">
        <ele>199</ele>
        <time>2016-10-04T09:04:12Z</time>
      </trkpt>
      <trkpt lat="46.03021" lon="4.69027">
        <ele>199</ele>
        <time>2016-10-04T09:04:13Z</time>
      </trkpt>
      <trkpt lat="46.03023" lon="4.6902">
        <ele>199</ele>
        <time>2016-10-04T09:04:14Z</time>
      </trkpt>
      <trkpt lat="46.03024" lon="4.69014">
        <ele>199</ele>
        <time>2016-10-04T09:04:15Z</time>
      </trkpt>
      <trkpt lat="46.03024" lon="4.69007">
        <ele>199</ele>
        <time>2016-10-04T09:04:16Z</time>
      </trkpt>
      <trkpt lat="46.03025" lon="4.69">
        <ele>200</ele>
        <time>2016-10-04T09:04:17Z</time>
      </trkpt>
      <trkpt lat="46.03027" lon="4.68987">
        <ele>201</ele>
        <time>2016-10-04T09:04:19Z</time>
      </trkpt>
      <trkpt lat="46.03027" lon="4.68981">
        <ele>201</ele>
        <time>2016-10-04T09:04:20Z</time>
      </trkpt>
      <trkpt lat="46.03029" lon="4.68969">
        <ele>201</ele>
        <time>2016-10-04T09:04:22Z</time>
      </trkpt>
      <trkpt lat="46.0303" lon="4.68963">
        <ele>201</ele>
        <time>2016-10-04T09:04:23Z</time>
      </trkpt>
      <trkpt lat="46.03031" lon="4.68957">
        <ele>201</ele>
        <time>2016-10-04T09:04:24Z</time>
      </trkpt>
      <trkpt lat="46.03032" lon="4.6895">
        <ele>201</ele>
        <time>2016-10-04T09:04:25Z</time>
      </trkpt>
      <trkpt lat="46.03032" lon="4.68943">
        <ele>201</ele>
        <time>2016-10-04T09:04:26Z</time>
      </trkpt>
      <trkpt lat="46.03033" lon="4.68937">
        <ele>201</ele>
        <time>2016-10-04T09:04:27Z</time>
      </trkpt>
      <trkpt lat="46.03036" lon="4.68924">
        <ele>201</ele>
        <time>2016-10-04T09:04:29Z</time>
      </trkpt>
      <trkpt lat="46.03037" lon="4.68917">
        <ele>202</ele>
        <time>2016-10-04T09:04:30Z</time>
      </trkpt>
      <trkpt lat="46.03039" lon="4.68905">
        <ele>203</ele>
        <time>2016-10-04T09:04:32Z</time>
      </trkpt>
      <trkpt lat="46.0304" lon="4.68898">
        <ele>203</ele>
        <time>2016-10-04T09:04:33Z</time>
      </trkpt>
      <trkpt lat="46.03043" lon="4.68886">
        <ele>203</ele>
        <time>2016-10-04T09:04:35Z</time>
      </trkpt>
      <trkpt lat="46.03044" lon="4.6888">
        <ele>203</ele>
        <time>2016-10-04T09:04:36Z</time>
      </trkpt>
      <trkpt lat="46.03045" lon="4.68874">
        <ele>203</ele>
        <time>2016-10-04T09:04:37Z</time>
      </trkpt>
      <trkpt lat="46.03046" lon="4.68868">
        <ele>203</ele>
        <time>2016-10-04T09:04:38Z</time>
      </trkpt>
      <trkpt lat="46.03048" lon="4.68856">
        <ele>203</ele>
        <time>2016-10-04T09:04:40Z</time>
      </trkpt>
      <trkpt lat="46.03049" lon="4.68849">
        <ele>203</ele>
        <time>2016-10-04T09:04:41Z</time>
      </trkpt>
      <trkpt lat="46.0305" lon="4.68843">
        <ele>203</ele>
        <time>2016-10-04T09:04:42Z</time>
      </trkpt>
      <trkpt lat="46.03052" lon="4.68837">
        <ele>203</ele>
        <time>2016-10-04T09:04:43Z</time>
      </trkpt>
      <trkpt lat="46.03053" lon="4.6883">
        <ele>204</ele>
        <time>2016-10-04T09:04:44Z</time>
      </trkpt>
      <trkpt lat="46.03054" lon="4.68823">
        <ele>203</ele>
        <time>2016-10-04T09:04:45Z</time>
      </trkpt>
      <trkpt lat="46.03055" lon="4.68817">
        <ele>203</ele>
        <time>2016-10-04T09:04:46Z</time>
      </trkpt>
      <trkpt lat="46.03056" lon="4.68811">
        <ele>203</ele>
        <time>2016-10-04T09:04:47Z</time>
      </trkpt>
      <trkpt lat="46.03058" lon="4.68804">
        <ele>203</ele>
        <time>2016-10-04T09:04:48Z</time>
      </trkpt>
      <trkpt lat="46.03058" lon="4.68795">
        <ele>203</ele>
        <time>2016-10-04T09:04:49Z</time>
      </trkpt>
      <trkpt lat="46.03059" lon="4.68788">
        <ele>203</ele>
        <time>2016-10-04T09:04:50Z</time>
      </trkpt>
      <trkpt lat="46.0306" lon="4.68781">
        <ele>203</ele>
        <time>2016-10-04T09:04:51Z</time>
      </trkpt>
      <trkpt lat="46.03062" lon="4.68769">
        <ele>203</ele>
        <time>2016-10-04T09:04:53Z</time>
      </trkpt>
      <trkpt lat="46.03063" lon="4.68763">
        <ele>203</ele>
        <time>2016-10-04T09:04:54Z</time>
      </trkpt>
      <trkpt lat="46.03064" lon="4.68757">
        <ele>203</ele>
        <time>2016-10-04T09:04:55Z</time>
      </trkpt>
      <trkpt lat="46.03065" lon="4.6875">
        <ele>203</ele>
        <time>2016-10-04T09:04:56Z</time>
      </trkpt>
      <trkpt lat="46.03066" lon="4.68743">
        <ele>203</ele>
        <time>2016-10-04T09:04:57Z</time>
      </trkpt>
      <trkpt lat="46.03067" lon="4.68737">
        <ele>203</ele>
        <time>2016-10-04T09:04:58Z</time>
      </trkpt>
      <trkpt lat="46.03069" lon="4.68724">
        <ele>203</ele>
        <time>2016-10-04T09:05:00Z</time>
      </trkpt>
      <trkpt lat="46.0307" lon="4.68719">
        <ele>203</ele>
        <time>2016-10-04T09:05:01Z</time>
      </trkpt>
      <trkpt lat="46.03071" lon="4.68712">
        <ele>203</ele>
        <time>2016-10-04T09:05:02Z</time>
      </trkpt>
      <trkpt lat="46.03071" lon="4.68705">
        <ele>203</ele>
        <time>2016-10-04T09:05:03Z</time>
      </trkpt>
      <trkpt lat="46.03073" lon="4.68698">
        <ele>204</ele>
        <time>2016-10-04T09:05:04Z</time>
      </trkpt>
      <trkpt lat="46.03074" lon="4.6869">
        <ele>204</ele>
        <time>2016-10-04T09:05:05Z</time>
      </trkpt>
      <trkpt lat="46.03075" lon="4.68683">
        <ele>204</ele>
        <time>2016-10-04T09:05:06Z</time>
      </trkpt>
      <trkpt lat="46.03076" lon="4.68677">
        <ele>204</ele>
        <time>2016-10-04T09:05:07Z</time>
      </trkpt>
      <trkpt lat="46.03078" lon="4.68664">
        <ele>205</ele>
        <time>2016-10-04T09:05:09Z</time>
      </trkpt>
      <trkpt lat="46.03079" lon="4.68658">
        <ele>205</ele>
        <time>2016-10-04T09:05:10Z</time>
      </trkpt>
      <trkpt lat="46.03081" lon="4.68646">
        <ele>204</ele>
        <time>2016-10-04T09:05:12Z</time>
      </trkpt>
      <trkpt lat="46.03082" lon="4.6864">
        <ele>204</ele>
        <time>2016-10-04T09:05:13Z</time>
      </trkpt>
      <trkpt lat="46.03084" lon="4.68633">
        <ele>205</ele>
        <time>2016-10-04T09:05:14Z</time>
      </trkpt>
      <trkpt lat="46.03085" lon="4.68627">
        <ele>205</ele>
        <time>2016-10-04T09:05:15Z</time>
      </trkpt>
      <trkpt lat="46.03086" lon="4.6862">
        <ele>205</ele>
        <time>2016-10-04T09:05:16Z</time>
      </trkpt>
      <trkpt lat="46.03087" lon="4.68614">
        <ele>205</ele>
        <time>2016-10-04T09:05:17Z</time>
      </trkpt>
      <trkpt lat="46.03089" lon="4.68607">
        <ele>205</ele>
        <time>2016-10-04T09:05:18Z</time>
      </trkpt>
      <trkpt lat="46.03091" lon="4.68601">
        <ele>205</ele>
        <time>2016-10-04T09:05:19Z</time>
      </trkpt>
      <trkpt lat="46.03095" lon="4.68589">
        <ele>205</ele>
        <time>2016-10-04T09:05:21Z</time>
      </trkpt>
      <trkpt lat="46.03097" lon="4.68583">
        <ele>206</ele>
        <time>2016-10-04T09:05:22Z</time>
      </trkpt>
      <trkpt lat="46.03099" lon="4.68578">
        <ele>206</ele>
        <time>2016-10-04T09:05:23Z</time>
      </trkpt>
      <trkpt lat="46.03102" lon="4.68572">
        <ele>206</ele>
        <time>2016-10-04T09:05:24Z</time>
      </trkpt>
      <trkpt lat="46.03104" lon="4.68566">
        <ele>206</ele>
        <time>2016-10-04T09:05:25Z</time>
      </trkpt>
      <trkpt lat="46.03107" lon="4.6856">
        <ele>206</ele>
        <time>2016-10-04T09:05:26Z</time>
      </trkpt>
      <trkpt lat="46.0311" lon="4.68555">
        <ele>206</ele>
        <time>2016-10-04T09:05:27Z</time>
      </trkpt>
      <trkpt lat="46.03113" lon="4.6855">
        <ele>207</ele>
        <time>2016-10-04T09:05:28Z</time>
      </trkpt>
      <trkpt lat="46.03116" lon="4.68545">
        <ele>207</ele>
        <time>2016-10-04T09:05:29Z</time>
      </trkpt>
      <trkpt lat="46.0312" lon="4.68541">
        <ele>207</ele>
        <time>2016-10-04T09:05:30Z</time>
      </trkpt>
      <trkpt lat="46.03124" lon="4.68537">
        <ele>207</ele>
        <time>2016-10-04T09:05:31Z</time>
      </trkpt>
      <trkpt lat="46.03128" lon="4.68532">
        <ele>207</ele>
        <time>2016-10-04T09:05:32Z</time>
      </trkpt>
      <trkpt lat="46.03134" lon="4.68525">
        <ele>207</ele>
        <time>2016-10-04T09:05:34Z</time>
      </trkpt>
      <trkpt lat="46.03137" lon="4.68521">
        <ele>207</ele>
        <time>2016-10-04T09:05:35Z</time>
      </trkpt>
      <trkpt lat="46.03143" lon="4.68514">
        <ele>207</ele>
        <time>2016-10-04T09:05:37Z</time>
      </trkpt>
      <trkpt lat="46.03147" lon="4.68511">
        <ele>207</ele>
        <time>2016-10-04T09:05:38Z</time>
      </trkpt>
      <trkpt lat="46.03154" lon="4.68505">
        <ele>208</ele>
        <time>2016-10-04T09:05:40Z</time>
      </trkpt>
      <trkpt lat="46.03157" lon="4.68502">
        <ele>208</ele>
        <time>2016-10-04T09:05:41Z</time>
      </trkpt>
      <trkpt lat="46.03164" lon="4.68496">
        <ele>208</ele>
        <time>2016-10-04T09:05:43Z</time>
      </trkpt>
      <trkpt lat="46.03168" lon="4.68493">
        <ele>209</ele>
        <time>2016-10-04T09:05:44Z</time>
      </trkpt>
      <trkpt lat="46.03176" lon="4.68486">
        <ele>210</ele>
        <time>2016-10-04T09:05:46Z</time>
      </trkpt>
      <trkpt lat="46.0318" lon="4.68483">
        <ele>210</ele>
        <time>2016-10-04T09:05:47Z</time>
      </trkpt>
      <trkpt lat="46.03184" lon="4.68479">
        <ele>210</ele>
        <time>2016-10-04T09:05:48Z</time>
      </trkpt>
      <trkpt lat="46.03188" lon="4.68475">
        <ele>210</ele>
        <time>2016-10-04T09:05:49Z</time>
      </trkpt>
      <trkpt lat="46.03192" lon="4.68471">
        <ele>211</ele>
        <time>2016-10-04T09:05:50Z</time>
      </trkpt>
      <trkpt lat="46.03196" lon="4.68467">
        <ele>211</ele>
        <time>2016-10-04T09:05:51Z</time>
      </trkpt>
      <trkpt lat="46.032" lon="4.68463">
        <ele>211</ele>
        <time>2016-10-04T09:05:52Z</time>
      </trkpt>
      <trkpt lat="46.03204" lon="4.68459">
        <ele>211</ele>
        <time>2016-10-04T09:05:53Z</time>
      </trkpt>
      <trkpt lat="46.0321" lon="4.68453">
        <ele>211</ele>
        <time>2016-10-04T09:05:55Z</time>
      </trkpt>
      <trkpt lat="46.03213" lon="4.6845">
        <ele>211</ele>
        <time>2016-10-04T09:05:56Z</time>
      </trkpt>
      <trkpt lat="46.0322" lon="4.68444">
        <ele>212</ele>
        <time>2016-10-04T09:05:58Z</time>
      </trkpt>
      <trkpt lat="46.03224" lon="4.68441">
        <ele>212</ele>
        <time>2016-10-04T09:05:59Z</time>
      </trkpt>
      <trkpt lat="46.03228" lon="4.68436">
        <ele>212</ele>
        <time>2016-10-04T09:06:00Z</time>
      </trkpt>
      <trkpt lat="46.03232" lon="4.68432">
        <ele>212</ele>
        <time>2016-10-04T09:06:01Z</time>
      </trkpt>
      <trkpt lat="46.03236" lon="4.68428">
        <ele>213</ele>
        <time>2016-10-04T09:06:02Z</time>
      </trkpt>
      <trkpt lat="46.0324" lon="4.68424">
        <ele>213</ele>
        <time>2016-10-04T09:06:03Z</time>
      </trkpt>
      <trkpt lat="46.03245" lon="4.6842">
        <ele>213</ele>
        <time>2016-10-04T09:06:04Z</time>
      </trkpt>
      <trkpt lat="46.03249" lon="4.68416">
        <ele>214</ele>
        <time>2016-10-04T09:06:05Z</time>
      </trkpt>
      <trkpt lat="46.03253" lon="4.68413">
        <ele>215</ele>
        <time>2016-10-04T09:06:06Z</time>
      </trkpt>
      <trkpt lat="46.03257" lon="4.68409">
        <ele>215</ele>
        <time>2016-10-04T09:06:07Z</time>
      </trkpt>
      <trkpt lat="46.03263" lon="4.68403">
        <ele>216</ele>
        <time>2016-10-04T09:06:09Z</time>
      </trkpt>
      <trkpt lat="46.03266" lon="4.684">
        <ele>216</ele>
        <time>2016-10-04T09:06:10Z</time>
      </trkpt>
      <trkpt lat="46.03271" lon="4.68394">
        <ele>216</ele>
        <time>2016-10-04T09:06:12Z</time>
      </trkpt>
      <trkpt lat="46.03275" lon="4.68391">
        <ele>216</ele>
        <time>2016-10-04T09:06:13Z</time>
      </trkpt>
      <trkpt lat="46.03281" lon="4.68384">
        <ele>217</ele>
        <time>2016-10-04T09:06:15Z</time>
      </trkpt>
      <trkpt lat="46.03285" lon="4.6838">
        <ele>217</ele>
        <time>2016-10-04T09:06:16Z</time>
      </trkpt>
      <trkpt lat="46.03293" lon="4.68374">
        <ele>217</ele>
        <time>2016-10-04T09:06:18Z</time>
      </trkpt>
      <trkpt lat="46.03297" lon="4.68371">
        <ele>217</ele>
        <time>2016-10-04T09:06:19Z</time>
      </trkpt>
      <trkpt lat="46.03305" lon="4.68366">
        <ele>217</ele>
        <time>2016-10-04T09:06:21Z</time>
      </trkpt>
      <trkpt lat="46.03309" lon="4.68363">
        <ele>217</ele>
        <time>2016-10-04T09:06:22Z</time>
      </trkpt>
      <trkpt lat="46.03313" lon="4.6836">
        <ele>217</ele>
        <time>2016-10-04T09:06:23Z</time>
      </trkpt>
      <trkpt lat="46.03316" lon="4.68356">
        <ele>217</ele>
        <time>2016-10-04T09:06:24Z</time>
      </trkpt>
      <trkpt lat="46.0332" lon="4.68351">
        <ele>218</ele>
        <time>2016-10-04T09:06:25Z</time>
      </trkpt>
      <trkpt lat="46.03324" lon="4.68347">
        <ele>218</ele>
        <time>2016-10-04T09:06:26Z</time>
      </trkpt>
      <trkpt lat="46.03329" lon="4.68344">
        <ele>218</ele>
        <time>2016-10-04T09:06:27Z</time>
      </trkpt>
      <trkpt lat="46.03333" lon="4.6834">
        <ele>218</ele>
        <time>2016-10-04T09:06:28Z</time>
      </trkpt>
      <trkpt lat="46.03337" lon="4.68336">
        <ele>218</ele>
        <time>2016-10-04T09:06:29Z</time>
      </trkpt>
      <trkpt lat="46.03341" lon="4.68333">
        <ele>218</ele>
        <time>2016-10-04T09:06:30Z</time>
      </trkpt>
      <trkpt lat="46.03349" lon="4.68327">
        <ele>218</ele>
        <time>2016-10-04T09:06:32Z</time>
      </trkpt>
      <trkpt lat="46.03353" lon="4.68323">
        <ele>218</ele>
        <time>2016-10-04T09:06:33Z</time>
      </trkpt>
      <trkpt lat="46.03359" lon="4.68316">
        <ele>218</ele>
        <time>2016-10-04T09:06:35Z</time>
      </trkpt>
      <trkpt lat="46.03363" lon="4.68313">
        <ele>219</ele>
        <time>2016-10-04T09:06:36Z</time>
      </trkpt>
      <trkpt lat="46.03368" lon="4.68308">
        <ele>219</ele>
        <time>2016-10-04T09:06:37Z</time>
      </trkpt>
      <trkpt lat="46.03372" lon="4.68304">
        <ele>219</ele>
        <time>2016-10-04T09:06:38Z</time>
      </trkpt>
      <trkpt lat="46.03376" lon="4.683">
        <ele>219</ele>
        <time>2016-10-04T09:06:39Z</time>
      </trkpt>
      <trkpt lat="46.03381" lon="4.68297">
        <ele>219</ele>
        <time>2016-10-04T09:06:40Z</time>
      </trkpt>
      <trkpt lat="46.03386" lon="4.68293">
        <ele>219</ele>
        <time>2016-10-04T09:06:41Z</time>
      </trkpt>
      <trkpt lat="46.0339" lon="4.6829">
        <ele>219</ele>
        <time>2016-10-04T09:06:42Z</time>
      </trkpt>
      <trkpt lat="46.03397" lon="4.68284">
        <ele>219</ele>
        <time>2016-10-04T09:06:44Z</time>
      </trkpt>
      <trkpt lat="46.034" lon="4.6828">
        <ele>219</ele>
        <time>2016-10-04T09:06:45Z</time>
      </trkpt>
      <trkpt lat="46.03407" lon="4.68273">
        <ele>219</ele>
        <time>2016-10-04T09:06:47Z</time>
      </trkpt>
      <trkpt lat="46.03411" lon="4.68269">
        <ele>219</ele>
        <time>2016-10-04T09:06:48Z</time>
      </trkpt>
      <trkpt lat="46.03418" lon="4.68262">
        <ele>220</ele>
        <time>2016-10-04T09:06:50Z</time>
      </trkpt>
      <trkpt lat="46.03422" lon="4.68259">
        <ele>220</ele>
        <time>2016-10-04T09:06:51Z</time>
      </trkpt>
      <trkpt lat="46.03428" lon="4.68251">
        <ele>220</ele>
        <time>2016-10-04T09:06:53Z</time>
      </trkpt>
      <trkpt lat="46.03432" lon="4.68248">
        <ele>220</ele>
        <time>2016-10-04T09:06:54Z</time>
      </trkpt>
      <trkpt lat="46.03436" lon="4.68244">
        <ele>220</ele>
        <time>2016-10-04T09:06:55Z</time>
      </trkpt>
      <trkpt lat="46.0344" lon="4.6824">
        <ele>220</ele>
        <time>2016-10-04T09:06:56Z</time>
      </trkpt>
      <trkpt lat="46.03448" lon="4.68234">
        <ele>220</ele>
        <time>2016-10-04T09:06:58Z</time>
      </trkpt>
      <trkpt lat="46.03451" lon="4.68231">
        <ele>220</ele>
        <time>2016-10-04T09:06:59Z</time>
      </trkpt>
      <trkpt lat="46.03459" lon="4.68224">
        <ele>220</ele>
        <time>2016-10-04T09:07:01Z</time>
      </trkpt>
      <trkpt lat="46.03463" lon="4.6822">
        <ele>220</ele>
        <time>2016-10-04T09:07:02Z</time>
      </trkpt>
      <trkpt lat="46.03467" lon="4.68217">
        <ele>220</ele>
        <time>2016-10-04T09:07:03Z</time>
      </trkpt>
      <trkpt lat="46.0347" lon="4.68213">
        <ele>220</ele>
        <time>2016-10-04T09:07:04Z</time>
      </trkpt>
      <trkpt lat="46.03474" lon="4.6821">
        <ele>220</ele>
        <time>2016-10-04T09:07:05Z</time>
      </trkpt>
      <trkpt lat="46.03478" lon="4.68206">
        <ele>220</ele>
        <time>2016-10-04T09:07:06Z</time>
      </trkpt>
      <trkpt lat="46.03482" lon="4.68202">
        <ele>220</ele>
        <time>2016-10-04T09:07:07Z</time>
      </trkpt>
      <trkpt lat="46.03486" lon="4.68198">
        <ele>220</ele>
        <time>2016-10-04T09:07:08Z</time>
      </trkpt>
      <trkpt lat="46.03491" lon="4.68194">
        <ele>220</ele>
        <time>2016-10-04T09:07:09Z</time>
      </trkpt>
      <trkpt lat="46.03495" lon="4.68191">
        <ele>221</ele>
        <time>2016-10-04T09:07:10Z</time>
      </trkpt>
      <trkpt lat="46.03498" lon="4.68187">
        <ele>221</ele>
        <time>2016-10-04T09:07:11Z</time>
      </trkpt>
      <trkpt lat="46.03502" lon="4.68183">
        <ele>220</ele>
        <time>2016-10-04T09:07:12Z</time>
      </trkpt>
      <trkpt lat="46.03506" lon="4.68178">
        <ele>220</ele>
        <time>2016-10-04T09:07:13Z</time>
      </trkpt>
      <trkpt lat="46.0351" lon="4.68175">
        <ele>220</ele>
        <time>2016-10-04T09:07:14Z</time>
      </trkpt>
      <trkpt lat="46.03517" lon="4.68168">
        <ele>220</ele>
        <time>2016-10-04T09:07:16Z</time>
      </trkpt>
      <trkpt lat="46.03521" lon="4.68164">
        <ele>220</ele>
        <time>2016-10-04T09:07:17Z</time>
      </trkpt>
      <trkpt lat="46.03525" lon="4.6816">
        <ele>219</ele>
        <time>2016-10-04T09:07:18Z</time>
      </trkpt>
      <trkpt lat="46.03529" lon="4.68157">
        <ele>219</ele>
        <time>2016-10-04T09:07:19Z</time>
      </trkpt>
      <trkpt lat="46.03534" lon="4.68153">
        <ele>219</ele>
        <time>2016-10-04T09:07:20Z</time>
      </trkpt>
      <trkpt lat="46.03539" lon="4.6815">
        <ele>219</ele>
        <time>2016-10-04T09:07:21Z</time>
      </trkpt>
      <trkpt lat="46.03543" lon="4.68146">
        <ele>219</ele>
        <time>2016-10-04T09:07:22Z</time>
      </trkpt>
      <trkpt lat="46.03547" lon="4.68143">
        <ele>219</ele>
        <time>2016-10-04T09:07:23Z</time>
      </trkpt>
      <trkpt lat="46.03551" lon="4.6814">
        <ele>219</ele>
        <time>2016-10-04T09:07:24Z</time>
      </trkpt>
      <trkpt lat="46.03555" lon="4.68136">
        <ele>219</ele>
        <time>2016-10-04T09:07:25Z</time>
      </trkpt>
      <trkpt lat="46.03561" lon="4.68128">
        <ele>219</ele>
        <time>2016-10-04T09:07:27Z</time>
      </trkpt>
      <trkpt lat="46.03565" lon="4.68124">
        <ele>219</ele>
        <time>2016-10-04T09:07:28Z</time>
      </trkpt>
      <trkpt lat="46.03572" lon="4.68117">
        <ele>218</ele>
        <time>2016-10-04T09:07:30Z</time>
      </trkpt>
      <trkpt lat="46.03576" lon="4.68114">
        <ele>218</ele>
        <time>2016-10-04T09:07:31Z</time>
      </trkpt>
      <trkpt lat="46.0358" lon="4.6811">
        <ele>218</ele>
        <time>2016-10-04T09:07:32Z</time>
      </trkpt>
      <trkpt lat="46.03583" lon="4.68106">
        <ele>218</ele>
        <time>2016-10-04T09:07:33Z</time>
      </trkpt>
      <trkpt lat="46.03587" lon="4.68102">
        <ele>218</ele>
        <time>2016-10-04T09:07:34Z</time>
      </trkpt>
      <trkpt lat="46.03591" lon="4.68099">
        <ele>218</ele>
        <time>2016-10-04T09:07:35Z</time>
      </trkpt>
      <trkpt lat="46.03595" lon="4.68096">
        <ele>218</ele>
        <time>2016-10-04T09:07:36Z</time>
      </trkpt>
      <trkpt lat="46.03599" lon="4.68092">
        <ele>219</ele>
        <time>2016-10-04T09:07:37Z</time>
      </trkpt>
      <trkpt lat="46.03603" lon="4.68087">
        <ele>219</ele>
        <time>2016-10-04T09:07:38Z</time>
      </trkpt>
      <trkpt lat="46.03608" lon="4.68082">
        <ele>219</ele>
        <time>2016-10-04T09:07:39Z</time>
      </trkpt>
      <trkpt lat="46.03612" lon="4.68078">
        <ele>219</ele>
        <time>2016-10-04T09:07:40Z</time>
      </trkpt>
      <trkpt lat="46.03616" lon="4.68073">
        <ele>219</ele>
        <time>2016-10-04T09:07:41Z</time>
      </trkpt>
      <trkpt lat="46.03619" lon="4.68069">
        <ele>219</ele>
        <time>2016-10-04T09:07:42Z</time>
      </trkpt>
      <trkpt lat="46.03623" lon="4.68065">
        <ele>220</ele>
        <time>2016-10-04T09:07:43Z</time>
      </trkpt>
      <trkpt lat="46.03631" lon="4.68058">
        <ele>220</ele>
        <time>2016-10-04T09:07:45Z</time>
      </trkpt>
      <trkpt lat="46.03635" lon="4.68054">
        <ele>220</ele>
        <time>2016-10-04T09:07:46Z</time>
      </trkpt>
      <trkpt lat="46.03638" lon="4.68051">
        <ele>220</ele>
        <time>2016-10-04T09:07:47Z</time>
      </trkpt>
      <trkpt lat="46.03643" lon="4.68047">
        <ele>220</ele>
        <time>2016-10-04T09:07:48Z</time>
      </trkpt>
      <trkpt lat="46.03646" lon="4.68043">
        <ele>220</ele>
        <time>2016-10-04T09:07:49Z</time>
      </trkpt>
      <trkpt lat="46.0365" lon="4.68039">
        <ele>220</ele>
        <time>2016-10-04T09:07:50Z</time>
      </trkpt>
      <trkpt lat="46.03654" lon="4.68035">
        <ele>220</ele>
        <time>2016-10-04T09:07:51Z</time>
      </trkpt>
      <trkpt lat="46.03658" lon="4.6803">
        <ele>220</ele>
        <time>2016-10-04T09:07:52Z</time>
      </trkpt>
      <trkpt lat="46.03662" lon="4.68026">
        <ele>220</ele>
        <time>2016-10-04T09:07:53Z</time>
      </trkpt>
      <trkpt lat="46.03666" lon="4.68022">
        <ele>220</ele>
        <time>2016-10-04T09:07:54Z</time>
      </trkpt>
      <trkpt lat="46.0367" lon="4.68018">
        <ele>220</ele>
        <time>2016-10-04T09:07:55Z</time>
      </trkpt>
      <trkpt lat="46.03673" lon="4.68014">
        <ele>221</ele>
        <time>2016-10-04T09:07:56Z</time>
      </trkpt>
      <trkpt lat="46.03678" lon="4.68011">
        <ele>221</ele>
        <time>2016-10-04T09:07:57Z</time>
      </trkpt>
      <trkpt lat="46.03682" lon="4.68007">
        <ele>221</ele>
        <time>2016-10-04T09:07:58Z</time>
      </trkpt>
      <trkpt lat="46.03689" lon="4.67999">
        <ele>221</ele>
        <time>2016-10-04T09:08:00Z</time>
      </trkpt>
      <trkpt lat="46.03692" lon="4.67995">
        <ele>221</ele>
        <time>2016-10-04T09:08:01Z</time>
      </trkpt>
      <trkpt lat="46.03696" lon="4.67992">
        <ele>221</ele>
        <time>2016-10-04T09:08:02Z</time>
      </trkpt>
      <trkpt lat="46.03701" lon="4.67988">
        <ele>221</ele>
        <time>2016-10-04T09:08:03Z</time>
      </trkpt>
      <trkpt lat="46.03705" lon="4.67985">
        <ele>221</ele>
        <time>2016-10-04T09:08:04Z</time>
      </trkpt>
      <trkpt lat="46.03708" lon="4.6798">
        <ele>221</ele>
        <time>2016-10-04T09:08:05Z</time>
      </trkpt>
      <trkpt lat="46.03714" lon="4.67973">
        <ele>221</ele>
        <time>2016-10-04T09:08:07Z</time>
      </trkpt>
      <trkpt lat="46.03719" lon="4.6797">
        <ele>221</ele>
        <time>2016-10-04T09:08:08Z</time>
      </trkpt>
      <trkpt lat="46.03723" lon="4.67966">
        <ele>221</ele>
        <time>2016-10-04T09:08:09Z</time>
      </trkpt>
      <trkpt lat="46.03727" lon="4.67963">
        <ele>221</ele>
        <time>2016-10-04T09:08:10Z</time>
      </trkpt>
      <trkpt lat="46.0373" lon="4.67959">
        <ele>221</ele>
        <time>2016-10-04T09:08:11Z</time>
      </trkpt>
      <trkpt lat="46.03734" lon="4.67955">
        <ele>221</ele>
        <time>2016-10-04T09:08:12Z</time>
      </trkpt>
      <trkpt lat="46.0374" lon="4.67952">
        <ele>221</ele>
        <time>2016-10-04T09:08:13Z</time>
      </trkpt>
      <trkpt lat="46.03744" lon="4.67949">
        <ele>221</ele>
        <time>2016-10-04T09:08:14Z</time>
      </trkpt>
      <trkpt lat="46.03748" lon="4.67945">
        <ele>221</ele>
        <time>2016-10-04T09:08:15Z</time>
      </trkpt>
      <trkpt lat="46.03752" lon="4.67941">
        <ele>221</ele>
        <time>2016-10-04T09:08:16Z</time>
      </trkpt>
      <trkpt lat="46.03755" lon="4.67938">
        <ele>221</ele>
        <time>2016-10-04T09:08:17Z</time>
      </trkpt>
      <trkpt lat="46.0376" lon="4.67935">
        <ele>221</ele>
        <time>2016-10-04T09:08:18Z</time>
      </trkpt>
      <trkpt lat="46.03764" lon="4.67931">
        <ele>221</ele>
        <time>2016-10-04T09:08:19Z</time>
      </trkpt>
      <trkpt lat="46.03768" lon="4.67928">
        <ele>221</ele>
        <time>2016-10-04T09:08:20Z</time>
      </trkpt>
      <trkpt lat="46.03772" lon="4.67924">
        <ele>221</ele>
        <time>2016-10-04T09:08:21Z</time>
      </trkpt>
      <trkpt lat="46.03776" lon="4.6792">
        <ele>221</ele>
        <time>2016-10-04T09:08:22Z</time>
      </trkpt>
      <trkpt lat="46.0378" lon="4.67915">
        <ele>223</ele>
        <time>2016-10-04T09:08:23Z</time>
      </trkpt>
      <trkpt lat="46.03784" lon="4.67911">
        <ele>223</ele>
        <time>2016-10-04T09:08:24Z</time>
      </trkpt>
      <trkpt lat="46.03789" lon="4.67906">
        <ele>223</ele>
        <time>2016-10-04T09:08:25Z</time>
      </trkpt>
      <trkpt lat="46.03793" lon="4.67901">
        <ele>223</ele>
        <time>2016-10-04T09:08:26Z</time>
      </trkpt>
      <trkpt lat="46.03798" lon="4.67896">
        <ele>223</ele>
        <time>2016-10-04T09:08:27Z</time>
      </trkpt>
      <trkpt lat="46.03802" lon="4.67892">
        <ele>223</ele>
        <time>2016-10-04T09:08:28Z</time>
      </trkpt>
      <trkpt lat="46.03806" lon="4.67888">
        <ele>223</ele>
        <time>2016-10-04T09:08:29Z</time>
      </trkpt>
      <trkpt lat="46.0381" lon="4.67884">
        <ele>223</ele>
        <time>2016-10-04T09:08:30Z</time>
      </trkpt>
      <trkpt lat="46.03814" lon="4.6788">
        <ele>223</ele>
        <time>2016-10-04T09:08:31Z</time>
      </trkpt>
      <trkpt lat="46.03818" lon="4.67877">
        <ele>223</ele>
        <time>2016-10-04T09:08:32Z</time>
      </trkpt>
      <trkpt lat="46.03822" lon="4.67873">
        <ele>223</ele>
        <time>2016-10-04T09:08:33Z</time>
      </trkpt>
      <trkpt lat="46.03826" lon="4.6787">
        <ele>223</ele>
        <time>2016-10-04T09:08:34Z</time>
      </trkpt>
      <trkpt lat="46.0383" lon="4.67866">
        <ele>223</ele>
        <time>2016-10-04T09:08:35Z</time>
      </trkpt>
      <trkpt lat="46.03834" lon="4.67861">
        <ele>223</ele>
        <time>2016-10-04T09:08:36Z</time>
      </trkpt>
      <trkpt lat="46.03838" lon="4.67858">
        <ele>223</ele>
        <time>2016-10-04T09:08:37Z</time>
      </trkpt>
      <trkpt lat="46.03842" lon="4.67853">
        <ele>223</ele>
        <time>2016-10-04T09:08:38Z</time>
      </trkpt>
      <trkpt lat="46.03847" lon="4.67849">
        <ele>223</ele>
        <time>2016-10-04T09:08:39Z</time>
      </trkpt>
      <trkpt lat="46.03851" lon="4.67844">
        <ele>223</ele>
        <time>2016-10-04T09:08:40Z</time>
      </trkpt>
      <trkpt lat="46.03855" lon="4.67839">
        <ele>223</ele>
        <time>2016-10-04T09:08:41Z</time>
      </trkpt>
      <trkpt lat="46.0386" lon="4.67833">
        <ele>223</ele>
        <time>2016-10-04T09:08:42Z</time>
      </trkpt>
      <trkpt lat="46.03864" lon="4.67828">
        <ele>223</ele>
        <time>2016-10-04T09:08:43Z</time>
      </trkpt>
      <trkpt lat="46.03868" lon="4.67823">
        <ele>223</ele>
        <time>2016-10-04T09:08:44Z</time>
      </trkpt>
      <trkpt lat="46.03872" lon="4.67818">
        <ele>223</ele>
        <time>2016-10-04T09:08:45Z</time>
      </trkpt>
      <trkpt lat="46.03876" lon="4.67813">
        <ele>223</ele>
        <time>2016-10-04T09:08:46Z</time>
      </trkpt>
      <trkpt lat="46.03881" lon="4.67807">
        <ele>222</ele>
        <time>2016-10-04T09:08:47Z</time>
      </trkpt>
      <trkpt lat="46.03885" lon="4.67802">
        <ele>222</ele>
        <time>2016-10-04T09:08:48Z</time>
      </trkpt>
      <trkpt lat="46.03889" lon="4.67796">
        <ele>222</ele>
        <time>2016-10-04T09:08:49Z</time>
      </trkpt>
      <trkpt lat="46.03893" lon="4.6779">
        <ele>222</ele>
        <time>2016-10-04T09:08:50Z</time>
      </trkpt>
      <trkpt lat="46.039" lon="4.67782">
        <ele>222</ele>
        <time>2016-10-04T09:08:52Z</time>
      </trkpt>
      <trkpt lat="46.03904" lon="4.67775">
        <ele>222</ele>
        <time>2016-10-04T09:08:53Z</time>
      </trkpt>
      <trkpt lat="46.03908" lon="4.67769">
        <ele>221</ele>
        <time>2016-10-04T09:08:54Z</time>
      </trkpt>
      <trkpt lat="46.03914" lon="4.67763">
        <ele>221</ele>
        <time>2016-10-04T09:08:55Z</time>
      </trkpt>
      <trkpt lat="46.03921" lon="4.67758">
        <ele>219</ele>
        <time>2016-10-04T09:08:56Z</time>
      </trkpt>
      <trkpt lat="46.03927" lon="4.67753">
        <ele>219</ele>
        <time>2016-10-04T09:08:57Z</time>
      </trkpt>
      <trkpt lat="46.03935" lon="4.67747">
        <ele>218</ele>
        <time>2016-10-04T09:08:58Z</time>
      </trkpt>
      <trkpt lat="46.03944" lon="4.67739">
        <ele>218</ele>
        <time>2016-10-04T09:08:59Z</time>
      </trkpt>
      <trkpt lat="46.03951" lon="4.67735">
        <ele>217</ele>
        <time>2016-10-04T09:09:00Z</time>
      </trkpt>
      <trkpt lat="46.0396" lon="4.67727">
        <ele>217</ele>
        <time>2016-10-04T09:09:01Z</time>
      </trkpt>
      <trkpt lat="46.03969" lon="4.67718">
        <ele>217</ele>
        <time>2016-10-04T09:09:02Z</time>
      </trkpt>
      <trkpt lat="46.03978" lon="4.67708">
        <ele>216</ele>
        <time>2016-10-04T09:09:03Z</time>
      </trkpt>
      <trkpt lat="46.03986" lon="4.67706">
        <ele>216</ele>
        <time>2016-10-04T09:09:04Z</time>
      </trkpt>
      <trkpt lat="46.03993" lon="4.6771">
        <ele>216</ele>
        <time>2016-10-04T09:09:05Z</time>
      </trkpt>
      <trkpt lat="46.03999" lon="4.67716">
        <ele>216</ele>
        <time>2016-10-04T09:09:06Z</time>
      </trkpt>
      <trkpt lat="46.04005" lon="4.67721">
        <ele>216</ele>
        <time>2016-10-04T09:09:07Z</time>
      </trkpt>
      <trkpt lat="46.04012" lon="4.67718">
        <ele>217</ele>
        <time>2016-10-04T09:09:08Z</time>
      </trkpt>
      <trkpt lat="46.04021" lon="4.67717">
        <ele>217</ele>
        <time>2016-10-04T09:09:09Z</time>
      </trkpt>
      <trkpt lat="46.04027" lon="4.67716">
        <ele>217</ele>
        <time>2016-10-04T09:09:10Z</time>
      </trkpt>
      <trkpt lat="46.04031" lon="4.67716">
        <ele>217</ele>
        <time>2016-10-04T09:09:11Z</time>
      </trkpt>
      <trkpt lat="46.04036" lon="4.67718">
        <ele>217</ele>
        <time>2016-10-04T09:09:12Z</time>
      </trkpt>
      <trkpt lat="46.04041" lon="4.67718">
        <ele>218</ele>
        <time>2016-10-04T09:09:13Z</time>
      </trkpt>
      <trkpt lat="46.04046" lon="4.67719">
        <ele>218</ele>
        <time>2016-10-04T09:09:14Z</time>
      </trkpt>
      <trkpt lat="46.04051" lon="4.6772">
        <ele>218</ele>
        <time>2016-10-04T09:09:15Z</time>
      </trkpt>
      <trkpt lat="46.04056" lon="4.67721">
        <ele>218</ele>
        <time>2016-10-04T09:09:16Z</time>
      </trkpt>
      <trkpt lat="46.0406" lon="4.67722">
        <ele>219</ele>
        <time>2016-10-04T09:09:17Z</time>
      </trkpt>
      <trkpt lat="46.04065" lon="4.67722">
        <ele>219</ele>
        <time>2016-10-04T09:09:18Z</time>
      </trkpt>
      <trkpt lat="46.0407" lon="4.67722">
        <ele>219</ele>
        <time>2016-10-04T09:09:19Z</time>
      </trkpt>
      <trkpt lat="46.04075" lon="4.67723">
        <ele>219</ele>
        <time>2016-10-04T09:09:20Z</time>
      </trkpt>
      <trkpt lat="46.0408" lon="4.67724">
        <ele>219</ele>
        <time>2016-10-04T09:09:21Z</time>
      </trkpt>
      <trkpt lat="46.04085" lon="4.67725">
        <ele>222</ele>
        <time>2016-10-04T09:09:22Z</time>
      </trkpt>
      <trkpt lat="46.0409" lon="4.67725">
        <ele>223</ele>
        <time>2016-10-04T09:09:23Z</time>
      </trkpt>
      <trkpt lat="46.04094" lon="4.67724">
        <ele>223</ele>
        <time>2016-10-04T09:09:24Z</time>
      </trkpt>
      <trkpt lat="46.04099" lon="4.67723">
        <ele>223</ele>
        <time>2016-10-04T09:09:25Z</time>
      </trkpt>
      <trkpt lat="46.04108" lon="4.67722">
        <ele>223</ele>
        <time>2016-10-04T09:09:27Z</time>
      </trkpt>
      <trkpt lat="46.04112" lon="4.67721">
        <ele>223</ele>
        <time>2016-10-04T09:09:28Z</time>
      </trkpt>
      <trkpt lat="46.04117" lon="4.6772">
        <ele>223</ele>
        <time>2016-10-04T09:09:29Z</time>
      </trkpt>
      <trkpt lat="46.04121" lon="4.67719">
        <ele>223</ele>
        <time>2016-10-04T09:09:30Z</time>
      </trkpt>
      <trkpt lat="46.04129" lon="4.67717">
        <ele>224</ele>
        <time>2016-10-04T09:09:32Z</time>
      </trkpt>
      <trkpt lat="46.04133" lon="4.67715">
        <ele>224</ele>
        <time>2016-10-04T09:09:33Z</time>
      </trkpt>
      <trkpt lat="46.04142" lon="4.67712">
        <ele>224</ele>
        <time>2016-10-04T09:09:35Z</time>
      </trkpt>
      <trkpt lat="46.04146" lon="4.67709">
        <ele>224</ele>
        <time>2016-10-04T09:09:36Z</time>
      </trkpt>
      <trkpt lat="46.04154" lon="4.67707">
        <ele>224</ele>
        <time>2016-10-04T09:09:38Z</time>
      </trkpt>
      <trkpt lat="46.04158" lon="4.67705">
        <ele>224</ele>
        <time>2016-10-04T09:09:39Z</time>
      </trkpt>
      <trkpt lat="46.04165" lon="4.67701">
        <ele>224</ele>
        <time>2016-10-04T09:09:41Z</time>
      </trkpt>
      <trkpt lat="46.04169" lon="4.67697">
        <ele>226</ele>
        <time>2016-10-04T09:09:42Z</time>
      </trkpt>
      <trkpt lat="46.04175" lon="4.6769">
        <ele>226</ele>
        <time>2016-10-04T09:09:44Z</time>
      </trkpt>
      <trkpt lat="46.04178" lon="4.67686">
        <ele>226</ele>
        <time>2016-10-04T09:09:45Z</time>
      </trkpt>
      <trkpt lat="46.04184" lon="4.67678">
        <ele>226</ele>
        <time>2016-10-04T09:09:47Z</time>
      </trkpt>
      <trkpt lat="46.04187" lon="4.67673">
        <ele>226</ele>
        <time>2016-10-04T09:09:48Z</time>
      </trkpt>
      <trkpt lat="46.04192" lon="4.67663">
        <ele>226</ele>
        <time>2016-10-04T09:09:50Z</time>
      </trkpt>
      <trkpt lat="46.04194" lon="4.67659">
        <ele>227</ele>
        <time>2016-10-04T09:09:51Z</time>
      </trkpt>
      <trkpt lat="46.04199" lon="4.67651">
        <ele>227</ele>
        <time>2016-10-04T09:09:53Z</time>
      </trkpt>
      <trkpt lat="46.04201" lon="4.67646">
        <ele>227</ele>
        <time>2016-10-04T09:09:54Z</time>
      </trkpt>
      <trkpt lat="46.04206" lon="4.67637">
        <ele>227</ele>
        <time>2016-10-04T09:09:56Z</time>
      </trkpt>
      <trkpt lat="46.04208" lon="4.67632">
        <ele>227</ele>
        <time>2016-10-04T09:09:57Z</time>
      </trkpt>
      <trkpt lat="46.04213" lon="4.67624">
        <ele>227</ele>
        <time>2016-10-04T09:09:59Z</time>
      </trkpt>
      <trkpt lat="46.04215" lon="4.67619">
        <ele>227</ele>
        <time>2016-10-04T09:10:00Z</time>
      </trkpt>
      <trkpt lat="46.04219" lon="4.67611">
        <ele>227</ele>
        <time>2016-10-04T09:10:02Z</time>
      </trkpt>
      <trkpt lat="46.04221" lon="4.67606">
        <ele>227</ele>
        <time>2016-10-04T09:10:03Z</time>
      </trkpt>
      <trkpt lat="46.04225" lon="4.67598">
        <ele>227</ele>
        <time>2016-10-04T09:10:05Z</time>
      </trkpt>
      <trkpt lat="46.04227" lon="4.67594">
        <ele>227</ele>
        <time>2016-10-04T09:10:06Z</time>
      </trkpt>
      <trkpt lat="46.04231" lon="4.67585">
        <ele>227</ele>
        <time>2016-10-04T09:10:08Z</time>
      </trkpt>
      <trkpt lat="46.04233" lon="4.6758">
        <ele>227</ele>
        <time>2016-10-04T09:10:09Z</time>
      </trkpt>
      <trkpt lat="46.04237" lon="4.67571">
        <ele>227</ele>
        <time>2016-10-04T09:10:11Z</time>
      </trkpt>
      <trkpt lat="46.04239" lon="4.67566">
        <ele>227</ele>
        <time>2016-10-04T09:10:12Z</time>
      </trkpt>
      <trkpt lat="46.04243" lon="4.67556">
        <ele>227</ele>
        <time>2016-10-04T09:10:14Z</time>
      </trkpt>
      <trkpt lat="46.04246" lon="4.67552">
        <ele>227</ele>
        <time>2016-10-04T09:10:15Z</time>
      </trkpt>
      <trkpt lat="46.04253" lon="4.67547">
        <ele>229</ele>
        <time>2016-10-04T09:10:17Z</time>
      </trkpt>
      <trkpt lat="46.04258" lon="4.67545">
        <ele>229</ele>
        <time>2016-10-04T09:10:18Z</time>
      </trkpt>
      <trkpt lat="46.04266" lon="4.6754">
        <ele>229</ele>
        <time>2016-10-04T09:10:20Z</time>
      </trkpt>
      <trkpt lat="46.04269" lon="4.67537">
        <ele>229</ele>
        <time>2016-10-04T09:10:21Z</time>
      </trkpt>
      <trkpt lat="46.04277" lon="4.67532">
        <ele>229</ele>
        <time>2016-10-04T09:10:23Z</time>
      </trkpt>
      <trkpt lat="46.0428" lon="4.6753">
        <ele>229</ele>
        <time>2016-10-04T09:10:24Z</time>
      </trkpt>
      <trkpt lat="46.04287" lon="4.67524">
        <ele>229</ele>
        <time>2016-10-04T09:10:26Z</time>
      </trkpt>
      <trkpt lat="46.0429" lon="4.67521">
        <ele>229</ele>
        <time>2016-10-04T09:10:27Z</time>
      </trkpt>
      <trkpt lat="46.04297" lon="4.67515">
        <ele>229</ele>
        <time>2016-10-04T09:10:29Z</time>
      </trkpt>
      <trkpt lat="46.043" lon="4.67512">
        <ele>229</ele>
        <time>2016-10-04T09:10:30Z</time>
      </trkpt>
      <trkpt lat="46.04307" lon="4.67506">
        <ele>230</ele>
        <time>2016-10-04T09:10:32Z</time>
      </trkpt>
      <trkpt lat="46.0431" lon="4.67502">
        <ele>230</ele>
        <time>2016-10-04T09:10:33Z</time>
      </trkpt>
      <trkpt lat="46.04317" lon="4.67495">
        <ele>231</ele>
        <time>2016-10-04T09:10:35Z</time>
      </trkpt>
      <trkpt lat="46.0432" lon="4.67492">
        <ele>231</ele>
        <time>2016-10-04T09:10:36Z</time>
      </trkpt>
      <trkpt lat="46.04327" lon="4.67486">
        <ele>231</ele>
        <time>2016-10-04T09:10:38Z</time>
      </trkpt>
      <trkpt lat="46.04331" lon="4.67482">
        <ele>231</ele>
        <time>2016-10-04T09:10:39Z</time>
      </trkpt>
      <trkpt lat="46.04335" lon="4.67477">
        <ele>231</ele>
        <time>2016-10-04T09:10:40Z</time>
      </trkpt>
      <trkpt lat="46.04338" lon="4.67473">
        <ele>232</ele>
        <time>2016-10-04T09:10:41Z</time>
      </trkpt>
      <trkpt lat="46.04344" lon="4.67466">
        <ele>232</ele>
        <time>2016-10-04T09:10:43Z</time>
      </trkpt>
      <trkpt lat="46.04347" lon="4.67463">
        <ele>232</ele>
        <time>2016-10-04T09:10:44Z</time>
      </trkpt>
      <trkpt lat="46.04352" lon="4.67456">
        <ele>232</ele>
        <time>2016-10-04T09:10:46Z</time>
      </trkpt>
      <trkpt lat="46.04355" lon="4.67453">
        <ele>232</ele>
        <time>2016-10-04T09:10:47Z</time>
      </trkpt>
      <trkpt lat="46.04361" lon="4.67445">
        <ele>232</ele>
        <time>2016-10-04T09:10:49Z</time>
      </trkpt>
      <trkpt lat="46.04363" lon="4.67441">
        <ele>232</ele>
        <time>2016-10-04T09:10:50Z</time>
      </trkpt>
      <trkpt lat="46.04369" lon="4.67434">
        <ele>232</ele>
        <time>2016-10-04T09:10:52Z</time>
      </trkpt>
      <trkpt lat="46.04371" lon="4.6743">
        <ele>232</ele>
        <time>2016-10-04T09:10:53Z</time>
      </trkpt>
      <trkpt lat="46.04377" lon="4.6742">
        <ele>232</ele>
        <time>2016-10-04T09:10:55Z</time>
      </trkpt>
      <trkpt lat="46.0438" lon="4.67416">
        <ele>234</ele>
        <time>2016-10-04T09:10:56Z</time>
      </trkpt>
      <trkpt lat="46.04385" lon="4.67407">
        <ele>234</ele>
        <time>2016-10-04T09:10:58Z</time>
      </trkpt>
      <trkpt lat="46.04388" lon="4.67402">
        <ele>234</ele>
        <time>2016-10-04T09:10:59Z</time>
      </trkpt>
      <trkpt lat="46.04393" lon="4.67393">
        <ele>234</ele>
        <time>2016-10-04T09:11:01Z</time>
      </trkpt>
      <trkpt lat="46.04396" lon="4.67389">
        <ele>234</ele>
        <time>2016-10-04T09:11:02Z</time>
      </trkpt>
      <trkpt lat="46.04402" lon="4.67379">
        <ele>234</ele>
        <time>2016-10-04T09:11:04Z</time>
      </trkpt>
      <trkpt lat="46.04404" lon="4.67375">
        <ele>234</ele>
        <time>2016-10-04T09:11:05Z</time>
      </trkpt>
      <trkpt lat="46.04409" lon="4.67366">
        <ele>234</ele>
        <time>2016-10-04T09:11:07Z</time>
      </trkpt>
      <trkpt lat="46.04411" lon="4.67361">
        <ele>235</ele>
        <time>2016-10-04T09:11:08Z</time>
      </trkpt>
      <trkpt lat="46.04415" lon="4.67354">
        <ele>235</ele>
        <time>2016-10-04T09:11:10Z</time>
      </trkpt>
      <trkpt lat="46.04418" lon="4.6735">
        <ele>235</ele>
        <time>2016-10-04T09:11:11Z</time>
      </trkpt>
      <trkpt lat="46.04425" lon="4.67342">
        <ele>236</ele>
        <time>2016-10-04T09:11:13Z</time>
      </trkpt>
      <trkpt lat="46.04427" lon="4.67338">
        <ele>236</ele>
        <time>2016-10-04T09:11:14Z</time>
      </trkpt>
      <trkpt lat="46.04432" lon="4.67329">
        <ele>237</ele>
        <time>2016-10-04T09:11:16Z</time>
      </trkpt>
      <trkpt lat="46.04434" lon="4.67325">
        <ele>237</ele>
        <time>2016-10-04T09:11:17Z</time>
      </trkpt>
      <trkpt lat="46.04439" lon="4.67316">
        <ele>237</ele>
        <time>2016-10-04T09:11:19Z</time>
      </trkpt>
      <trkpt lat="46.04442" lon="4.67312">
        <ele>237</ele>
        <time>2016-10-04T09:11:20Z</time>
      </trkpt>
      <trkpt lat="46.04447" lon="4.67303">
        <ele>238</ele>
        <time>2016-10-04T09:11:22Z</time>
      </trkpt>
      <trkpt lat="46.04449" lon="4.67298">
        <ele>238</ele>
        <time>2016-10-04T09:11:23Z</time>
      </trkpt>
      <trkpt lat="46.04455" lon="4.6729">
        <ele>238</ele>
        <time>2016-10-04T09:11:25Z</time>
      </trkpt>
      <trkpt lat="46.04457" lon="4.67285">
        <ele>238</ele>
        <time>2016-10-04T09:11:26Z</time>
      </trkpt>
      <trkpt lat="46.04461" lon="4.67277">
        <ele>238</ele>
        <time>2016-10-04T09:11:28Z</time>
      </trkpt>
      <trkpt lat="46.04463" lon="4.67273">
        <ele>238</ele>
        <time>2016-10-04T09:11:29Z</time>
      </trkpt>
      <trkpt lat="46.04468" lon="4.67264">
        <ele>238</ele>
        <time>2016-10-04T09:11:31Z</time>
      </trkpt>
      <trkpt lat="46.04471" lon="4.67261">
        <ele>238</ele>
        <time>2016-10-04T09:11:32Z</time>
      </trkpt>
      <trkpt lat="46.04475" lon="4.67253">
        <ele>238</ele>
        <time>2016-10-04T09:11:34Z</time>
      </trkpt>
      <trkpt lat="46.04478" lon="4.67249">
        <ele>239</ele>
        <time>2016-10-04T09:11:35Z</time>
      </trkpt>
      <trkpt lat="46.04483" lon="4.67242">
        <ele>239</ele>
        <time>2016-10-04T09:11:37Z</time>
      </trkpt>
      <trkpt lat="46.04484" lon="4.67236">
        <ele>239</ele>
        <time>2016-10-04T09:11:38Z</time>
      </trkpt>
      <trkpt lat="46.04488" lon="4.67228">
        <ele>239</ele>
        <time>2016-10-04T09:11:40Z</time>
      </trkpt>
      <trkpt lat="46.0449" lon="4.67224">
        <ele>239</ele>
        <time>2016-10-04T09:11:41Z</time>
      </trkpt>
      <trkpt lat="46.04496" lon="4.67216">
        <ele>239</ele>
        <time>2016-10-04T09:11:43Z</time>
      </trkpt>
      <trkpt lat="46.04498" lon="4.67213">
        <ele>239</ele>
        <time>2016-10-04T09:11:44Z</time>
      </trkpt>
      <trkpt lat="46.04503" lon="4.67205">
        <ele>239</ele>
        <time>2016-10-04T09:11:46Z</time>
      </trkpt>
      <trkpt lat="46.04506" lon="4.67202">
        <ele>239</ele>
        <time>2016-10-04T09:11:47Z</time>
      </trkpt>
      <trkpt lat="46.04511" lon="4.67195">
        <ele>239</ele>
        <time>2016-10-04T09:11:49Z</time>
      </trkpt>
      <trkpt lat="46.04513" lon="4.67192">
        <ele>239</ele>
        <time>2016-10-04T09:11:50Z</time>
      </trkpt>
      <trkpt lat="46.04518" lon="4.67184">
        <ele>239</ele>
        <time>2016-10-04T09:11:52Z</time>
      </trkpt>
      <trkpt lat="46.0452" lon="4.67179">
        <ele>239</ele>
        <time>2016-10-04T09:11:53Z</time>
      </trkpt>
      <trkpt lat="46.04526" lon="4.67171">
        <ele>240</ele>
        <time>2016-10-04T09:11:55Z</time>
      </trkpt>
      <trkpt lat="46.04528" lon="4.67167">
        <ele>240</ele>
        <time>2016-10-04T09:11:56Z</time>
      </trkpt>
      <trkpt lat="46.04533" lon="4.67159">
        <ele>241</ele>
        <time>2016-10-04T09:11:58Z</time>
      </trkpt>
      <trkpt lat="46.04535" lon="4.67154">
        <ele>241</ele>
        <time>2016-10-04T09:11:59Z</time>
      </trkpt>
      <trkpt lat="46.04539" lon="4.67146">
        <ele>241</ele>
        <time>2016-10-04T09:12:01Z</time>
      </trkpt>
      <trkpt lat="46.04542" lon="4.67142">
        <ele>241</ele>
        <time>2016-10-04T09:12:02Z</time>
      </trkpt>
      <trkpt lat="46.04546" lon="4.67133">
        <ele>242</ele>
        <time>2016-10-04T09:12:04Z</time>
      </trkpt>
      <trkpt lat="46.04549" lon="4.67129">
        <ele>242</ele>
        <time>2016-10-04T09:12:05Z</time>
      </trkpt>
      <trkpt lat="46.04553" lon="4.67122">
        <ele>242</ele>
        <time>2016-10-04T09:12:07Z</time>
      </trkpt>
      <trkpt lat="46.04556" lon="4.67117">
        <ele>242</ele>
        <time>2016-10-04T09:12:08Z</time>
      </trkpt>
      <trkpt lat="46.04561" lon="4.67109">
        <ele>242</ele>
        <time>2016-10-04T09:12:10Z</time>
      </trkpt>
      <trkpt lat="46.04564" lon="4.67105">
        <ele>242</ele>
        <time>2016-10-04T09:12:11Z</time>
      </trkpt>
      <trkpt lat="46.04569" lon="4.67096">
        <ele>243</ele>
        <time>2016-10-04T09:12:13Z</time>
      </trkpt>
      <trkpt lat="46.04572" lon="4.67092">
        <ele>243</ele>
        <time>2016-10-04T09:12:14Z</time>
      </trkpt>
      <trkpt lat="46.04577" lon="4.67084">
        <ele>243</ele>
        <time>2016-10-04T09:12:16Z</time>
      </trkpt>
      <trkpt lat="46.04579" lon="4.6708">
        <ele>244</ele>
        <time>2016-10-04T09:12:17Z</time>
      </trkpt>
      <trkpt lat="46.04584" lon="4.67072">
        <ele>245</ele>
        <time>2016-10-04T09:12:19Z</time>
      </trkpt>
      <trkpt lat="46.04587" lon="4.67067">
        <ele>245</ele>
        <time>2016-10-04T09:12:20Z</time>
      </trkpt>
      <trkpt lat="46.04591" lon="4.67057">
        <ele>246</ele>
        <time>2016-10-04T09:12:22Z</time>
      </trkpt>
      <trkpt lat="46.04594" lon="4.67054">
        <ele>246</ele>
        <time>2016-10-04T09:12:23Z</time>
      </trkpt>
      <trkpt lat="46.04599" lon="4.67046">
        <ele>246</ele>
        <time>2016-10-04T09:12:25Z</time>
      </trkpt>
      <trkpt lat="46.04602" lon="4.67042">
        <ele>246</ele>
        <time>2016-10-04T09:12:26Z</time>
      </trkpt>
      <trkpt lat="46.04606" lon="4.67033">
        <ele>247</ele>
        <time>2016-10-04T09:12:28Z</time>
      </trkpt>
      <trkpt lat="46.04609" lon="4.67029">
        <ele>247</ele>
        <time>2016-10-04T09:12:29Z</time>
      </trkpt>
      <trkpt lat="46.04615" lon="4.67021">
        <ele>247</ele>
        <time>2016-10-04T09:12:31Z</time>
      </trkpt>
      <trkpt lat="46.04617" lon="4.67017">
        <ele>247</ele>
        <time>2016-10-04T09:12:32Z</time>
      </trkpt>
      <trkpt lat="46.04622" lon="4.67009">
        <ele>247</ele>
        <time>2016-10-04T09:12:34Z</time>
      </trkpt>
      <trkpt lat="46.04625" lon="4.67005">
        <ele>247</ele>
        <time>2016-10-04T09:12:35Z</time>
      </trkpt>
      <trkpt lat="46.0463" lon="4.66996">
        <ele>248</ele>
        <time>2016-10-04T09:12:37Z</time>
      </trkpt>
      <trkpt lat="46.04633" lon="4.66991">
        <ele>248</ele>
        <time>2016-10-04T09:12:38Z</time>
      </trkpt>
      <trkpt lat="46.04637" lon="4.66982">
        <ele>249</ele>
        <time>2016-10-04T09:12:40Z</time>
      </trkpt>
      <trkpt lat="46.04639" lon="4.66978">
        <ele>249</ele>
        <time>2016-10-04T09:12:41Z</time>
      </trkpt>
      <trkpt lat="46.04645" lon="4.66969">
        <ele>249</ele>
        <time>2016-10-04T09:12:43Z</time>
      </trkpt>
      <trkpt lat="46.04647" lon="4.66964">
        <ele>249</ele>
        <time>2016-10-04T09:12:44Z</time>
      </trkpt>
      <trkpt lat="46.04651" lon="4.66955">
        <ele>249</ele>
        <time>2016-10-04T09:12:46Z</time>
      </trkpt>
      <trkpt lat="46.04653" lon="4.66951">
        <ele>249</ele>
        <time>2016-10-04T09:12:47Z</time>
      </trkpt>
      <trkpt lat="46.04659" lon="4.66943">
        <ele>249</ele>
        <time>2016-10-04T09:12:49Z</time>
      </trkpt>
      <trkpt lat="46.04662" lon="4.6694">
        <ele>249</ele>
        <time>2016-10-04T09:12:50Z</time>
      </trkpt>
      <trkpt lat="46.04666" lon="4.66932">
        <ele>249</ele>
        <time>2016-10-04T09:12:52Z</time>
      </trkpt>
      <trkpt lat="46.04668" lon="4.66929">
        <ele>250</ele>
        <time>2016-10-04T09:12:53Z</time>
      </trkpt>
      <trkpt lat="46.04673" lon="4.66923">
        <ele>250</ele>
        <time>2016-10-04T09:12:55Z</time>
      </trkpt>
      <trkpt lat="46.04676" lon="4.66918">
        <ele>250</ele>
        <time>2016-10-04T09:12:56Z</time>
      </trkpt>
      <trkpt lat="46.0468" lon="4.66908">
        <ele>250</ele>
        <time>2016-10-04T09:12:58Z</time>
      </trkpt>
      <trkpt lat="46.04682" lon="4.66904">
        <ele>250</ele>
        <time>2016-10-04T09:12:59Z</time>
      </trkpt>
      <trkpt lat="46.04687" lon="4.66896">
        <ele>250</ele>
        <time>2016-10-04T09:13:01Z</time>
      </trkpt>
      <trkpt lat="46.04689" lon="4.66892">
        <ele>250</ele>
        <time>2016-10-04T09:13:02Z</time>
      </trkpt>
      <trkpt lat="46.04693" lon="4.66885">
        <ele>250</ele>
        <time>2016-10-04T09:13:04Z</time>
      </trkpt>
      <trkpt lat="46.04695" lon="4.66881">
        <ele>250</ele>
        <time>2016-10-04T09:13:05Z</time>
      </trkpt>
      <trkpt lat="46.047" lon="4.66874">
        <ele>251</ele>
        <time>2016-10-04T09:13:07Z</time>
      </trkpt>
      <trkpt lat="46.04702" lon="4.6687">
        <ele>251</ele>
        <time>2016-10-04T09:13:08Z</time>
      </trkpt>
      <trkpt lat="46.04708" lon="4.6686">
        <ele>251</ele>
        <time>2016-10-04T09:13:11Z</time>
      </trkpt>
      <trkpt lat="46.04709" lon="4.66855">
        <ele>251</ele>
        <time>2016-10-04T09:13:12Z</time>
      </trkpt>
      <trkpt lat="46.04712" lon="4.66845">
        <ele>251</ele>
        <time>2016-10-04T09:13:14Z</time>
      </trkpt>
      <trkpt lat="46.04716" lon="4.66839">
        <ele>251</ele>
        <time>2016-10-04T09:13:15Z</time>
      </trkpt>
      <trkpt lat="46.04722" lon="4.6683">
        <ele>252</ele>
        <time>2016-10-04T09:13:17Z</time>
      </trkpt>
      <trkpt lat="46.04726" lon="4.66827">
        <ele>252</ele>
        <time>2016-10-04T09:13:18Z</time>
      </trkpt>
      <trkpt lat="46.04732" lon="4.66819">
        <ele>252</ele>
        <time>2016-10-04T09:13:20Z</time>
      </trkpt>
      <trkpt lat="46.04735" lon="4.66816">
        <ele>252</ele>
        <time>2016-10-04T09:13:21Z</time>
      </trkpt>
      <trkpt lat="46.0474" lon="4.66808">
        <ele>252</ele>
        <time>2016-10-04T09:13:23Z</time>
      </trkpt>
      <trkpt lat="46.04743" lon="4.66806">
        <ele>252</ele>
        <time>2016-10-04T09:13:24Z</time>
      </trkpt>
      <trkpt lat="46.04746" lon="4.66796">
        <ele>252</ele>
        <time>2016-10-04T09:13:27Z</time>
      </trkpt>
      <trkpt lat="46.04748" lon="4.66793">
        <ele>252</ele>
        <time>2016-10-04T09:13:28Z</time>
      </trkpt>
      <trkpt lat="46.04754" lon="4.66787">
        <ele>252</ele>
        <time>2016-10-04T09:13:30Z</time>
      </trkpt>
      <trkpt lat="46.04757" lon="4.66783">
        <ele>252</ele>
        <time>2016-10-04T09:13:31Z</time>
      </trkpt>
      <trkpt lat="46.04763" lon="4.66776">
        <ele>252</ele>
        <time>2016-10-04T09:13:33Z</time>
      </trkpt>
      <trkpt lat="46.04766" lon="4.66772">
        <ele>252</ele>
        <time>2016-10-04T09:13:34Z</time>
      </trkpt>
      <trkpt lat="46.0477" lon="4.66761">
        <ele>252</ele>
        <time>2016-10-04T09:13:36Z</time>
      </trkpt>
      <trkpt lat="46.04772" lon="4.66756">
        <ele>252</ele>
        <time>2016-10-04T09:13:37Z</time>
      </trkpt>
      <trkpt lat="46.04778" lon="4.66748">
        <ele>253</ele>
        <time>2016-10-04T09:13:39Z</time>
      </trkpt>
      <trkpt lat="46.04781" lon="4.66744">
        <ele>253</ele>
        <time>2016-10-04T09:13:40Z</time>
      </trkpt>
      <trkpt lat="46.04787" lon="4.66735">
        <ele>253</ele>
        <time>2016-10-04T09:13:42Z</time>
      </trkpt>
      <trkpt lat="46.0479" lon="4.66731">
        <ele>253</ele>
        <time>2016-10-04T09:13:43Z</time>
      </trkpt>
      <trkpt lat="46.04795" lon="4.66722">
        <ele>253</ele>
        <time>2016-10-04T09:13:45Z</time>
      </trkpt>
      <trkpt lat="46.04798" lon="4.66717">
        <ele>253</ele>
        <time>2016-10-04T09:13:46Z</time>
      </trkpt>
      <trkpt lat="46.048" lon="4.66711">
        <ele>253</ele>
        <time>2016-10-04T09:13:47Z</time>
      </trkpt>
      <trkpt lat="46.04803" lon="4.66705">
        <ele>253</ele>
        <time>2016-10-04T09:13:48Z</time>
      </trkpt>
      <trkpt lat="46.04807" lon="4.667">
        <ele>253</ele>
        <time>2016-10-04T09:13:49Z</time>
      </trkpt>
      <trkpt lat="46.04812" lon="4.66695">
        <ele>253</ele>
        <time>2016-10-04T09:13:50Z</time>
      </trkpt>
      <trkpt lat="46.04818" lon="4.66687">
        <ele>253</ele>
        <time>2016-10-04T09:13:52Z</time>
      </trkpt>
      <trkpt lat="46.04821" lon="4.66682">
        <ele>254</ele>
        <time>2016-10-04T09:13:53Z</time>
      </trkpt>
      <trkpt lat="46.04826" lon="4.66672">
        <ele>254</ele>
        <time>2016-10-04T09:13:55Z</time>
      </trkpt>
      <trkpt lat="46.0483" lon="4.66667">
        <ele>254</ele>
        <time>2016-10-04T09:13:56Z</time>
      </trkpt>
      <trkpt lat="46.04835" lon="4.66657">
        <ele>254</ele>
        <time>2016-10-04T09:13:58Z</time>
      </trkpt>
      <trkpt lat="46.04837" lon="4.66653">
        <ele>254</ele>
        <time>2016-10-04T09:13:59Z</time>
      </trkpt>
      <trkpt lat="46.04843" lon="4.66644">
        <ele>254</ele>
        <time>2016-10-04T09:14:01Z</time>
      </trkpt>
      <trkpt lat="46.04846" lon="4.66639">
        <ele>254</ele>
        <time>2016-10-04T09:14:02Z</time>
      </trkpt>
      <trkpt lat="46.04851" lon="4.66629">
        <ele>254</ele>
        <time>2016-10-04T09:14:04Z</time>
      </trkpt>
      <trkpt lat="46.04854" lon="4.66624">
        <ele>254</ele>
        <time>2016-10-04T09:14:05Z</time>
      </trkpt>
      <trkpt lat="46.04859" lon="4.66613">
        <ele>254</ele>
        <time>2016-10-04T09:14:07Z</time>
      </trkpt>
      <trkpt lat="46.04862" lon="4.66609">
        <ele>254</ele>
        <time>2016-10-04T09:14:08Z</time>
      </trkpt>
      <trkpt lat="46.04867" lon="4.666">
        <ele>254</ele>
        <time>2016-10-04T09:14:10Z</time>
      </trkpt>
      <trkpt lat="46.04869" lon="4.66595">
        <ele>254</ele>
        <time>2016-10-04T09:14:11Z</time>
      </trkpt>
      <trkpt lat="46.04875" lon="4.66586">
        <ele>254</ele>
        <time>2016-10-04T09:14:13Z</time>
      </trkpt>
      <trkpt lat="46.04878" lon="4.66582">
        <ele>254</ele>
        <time>2016-10-04T09:14:14Z</time>
      </trkpt>
      <trkpt lat="46.04881" lon="4.66578">
        <ele>254</ele>
        <time>2016-10-04T09:14:15Z</time>
      </trkpt>
      <trkpt lat="46.04885" lon="4.66573">
        <ele>254</ele>
        <time>2016-10-04T09:14:16Z</time>
      </trkpt>
      <trkpt lat="46.04887" lon="4.66567">
        <ele>254</ele>
        <time>2016-10-04T09:14:17Z</time>
      </trkpt>
      <trkpt lat="46.0489" lon="4.66561">
        <ele>254</ele>
        <time>2016-10-04T09:14:18Z</time>
      </trkpt>
      <trkpt lat="46.04892" lon="4.66556">
        <ele>254</ele>
        <time>2016-10-04T09:14:19Z</time>
      </trkpt>
      <trkpt lat="46.04895" lon="4.6655">
        <ele>254</ele>
        <time>2016-10-04T09:14:20Z</time>
      </trkpt>
      <trkpt lat="46.04902" lon="4.66542">
        <ele>254</ele>
        <time>2016-10-04T09:14:22Z</time>
      </trkpt>
      <trkpt lat="46.04904" lon="4.66537">
        <ele>254</ele>
        <time>2016-10-04T09:14:23Z</time>
      </trkpt>
      <trkpt lat="46.04907" lon="4.66531">
        <ele>254</ele>
        <time>2016-10-04T09:14:24Z</time>
      </trkpt>
      <trkpt lat="46.0491" lon="4.66525">
        <ele>254</ele>
        <time>2016-10-04T09:14:25Z</time>
      </trkpt>
      <trkpt lat="46.04914" lon="4.6652">
        <ele>253</ele>
        <time>2016-10-04T09:14:26Z</time>
      </trkpt>
      <trkpt lat="46.04917" lon="4.66515">
        <ele>252</ele>
        <time>2016-10-04T09:14:27Z</time>
      </trkpt>
      <trkpt lat="46.04921" lon="4.66509">
        <ele>253</ele>
        <time>2016-10-04T09:14:28Z</time>
      </trkpt>
      <trkpt lat="46.04925" lon="4.66504">
        <ele>253</ele>
        <time>2016-10-04T09:14:29Z</time>
      </trkpt>
      <trkpt lat="46.04929" lon="4.66499">
        <ele>253</ele>
        <time>2016-10-04T09:14:30Z</time>
      </trkpt>
      <trkpt lat="46.04932" lon="4.66493">
        <ele>252</ele>
        <time>2016-10-04T09:14:31Z</time>
      </trkpt>
      <trkpt lat="46.04936" lon="4.66488">
        <ele>252</ele>
        <time>2016-10-04T09:14:32Z</time>
      </trkpt>
      <trkpt lat="46.04939" lon="4.66483">
        <ele>252</ele>
        <time>2016-10-04T09:14:33Z</time>
      </trkpt>
      <trkpt lat="46.04942" lon="4.66478">
        <ele>252</ele>
        <time>2016-10-04T09:14:34Z</time>
      </trkpt>
      <trkpt lat="46.04945" lon="4.66473">
        <ele>252</ele>
        <time>2016-10-04T09:14:35Z</time>
      </trkpt>
      <trkpt lat="46.04948" lon="4.66468">
        <ele>252</ele>
        <time>2016-10-04T09:14:36Z</time>
      </trkpt>
      <trkpt lat="46.04952" lon="4.66463">
        <ele>252</ele>
        <time>2016-10-04T09:14:37Z</time>
      </trkpt>
      <trkpt lat="46.04954" lon="4.66459">
        <ele>252</ele>
        <time>2016-10-04T09:14:38Z</time>
      </trkpt>
      <trkpt lat="46.04958" lon="4.6645">
        <ele>252</ele>
        <time>2016-10-04T09:14:39Z</time>
      </trkpt>
      <trkpt lat="46.04963" lon="4.66438">
        <ele>252</ele>
        <time>2016-10-04T09:14:40Z</time>
      </trkpt>
      <trkpt lat="46.04966" lon="4.66435">
        <ele>252</ele>
        <time>2016-10-04T09:14:41Z</time>
      </trkpt>
      <trkpt lat="46.0497" lon="4.66432">
        <ele>251</ele>
        <time>2016-10-04T09:14:42Z</time>
      </trkpt>
      <trkpt lat="46.04975" lon="4.66429">
        <ele>251</ele>
        <time>2016-10-04T09:14:43Z</time>
      </trkpt>
      <trkpt lat="46.04981" lon="4.66427">
        <ele>251</ele>
        <time>2016-10-04T09:14:44Z</time>
      </trkpt>
      <trkpt lat="46.04986" lon="4.66426">
        <ele>251</ele>
        <time>2016-10-04T09:14:45Z</time>
      </trkpt>
      <trkpt lat="46.04992" lon="4.66425">
        <ele>251</ele>
        <time>2016-10-04T09:14:46Z</time>
      </trkpt>
      <trkpt lat="46.04998" lon="4.66425">
        <ele>250</ele>
        <time>2016-10-04T09:14:47Z</time>
      </trkpt>
      <trkpt lat="46.05002" lon="4.66424">
        <ele>250</ele>
        <time>2016-10-04T09:14:48Z</time>
      </trkpt>
      <trkpt lat="46.05007" lon="4.66422">
        <ele>250</ele>
        <time>2016-10-04T09:14:49Z</time>
      </trkpt>
      <trkpt lat="46.05015" lon="4.66426">
        <ele>250</ele>
        <time>2016-10-04T09:14:50Z</time>
      </trkpt>
      <trkpt lat="46.0502" lon="4.66428">
        <ele>250</ele>
        <time>2016-10-04T09:14:51Z</time>
      </trkpt>
      <trkpt lat="46.05026" lon="4.66429">
        <ele>250</ele>
        <time>2016-10-04T09:14:52Z</time>
      </trkpt>
      <trkpt lat="46.05032" lon="4.66429">
        <ele>250</ele>
        <time>2016-10-04T09:14:53Z</time>
      </trkpt>
      <trkpt lat="46.05037" lon="4.66429">
        <ele>250</ele>
        <time>2016-10-04T09:14:54Z</time>
      </trkpt>
      <trkpt lat="46.05043" lon="4.66431">
        <ele>249</ele>
        <time>2016-10-04T09:14:55Z</time>
      </trkpt>
      <trkpt lat="46.05049" lon="4.66432">
        <ele>249</ele>
        <time>2016-10-04T09:14:56Z</time>
      </trkpt>
      <trkpt lat="46.05054" lon="4.66433">
        <ele>249</ele>
        <time>2016-10-04T09:14:57Z</time>
      </trkpt>
      <trkpt lat="46.0506" lon="4.66433">
        <ele>249</ele>
        <time>2016-10-04T09:14:58Z</time>
      </trkpt>
      <trkpt lat="46.05065" lon="4.66434">
        <ele>249</ele>
        <time>2016-10-04T09:14:59Z</time>
      </trkpt>
      <trkpt lat="46.05071" lon="4.66435">
        <ele>249</ele>
        <time>2016-10-04T09:15:00Z</time>
      </trkpt>
      <trkpt lat="46.05076" lon="4.66436">
        <ele>249</ele>
        <time>2016-10-04T09:15:01Z</time>
      </trkpt>
      <trkpt lat="46.05082" lon="4.66436">
        <ele>249</ele>
        <time>2016-10-04T09:15:02Z</time>
      </trkpt>
      <trkpt lat="46.05087" lon="4.66437">
        <ele>248</ele>
        <time>2016-10-04T09:15:03Z</time>
      </trkpt>
      <trkpt lat="46.05093" lon="4.66437">
        <ele>248</ele>
        <time>2016-10-04T09:15:04Z</time>
      </trkpt>
      <trkpt lat="46.05099" lon="4.66438">
        <ele>248</ele>
        <time>2016-10-04T09:15:05Z</time>
      </trkpt>
      <trkpt lat="46.05104" lon="4.66438">
        <ele>248</ele>
        <time>2016-10-04T09:15:06Z</time>
      </trkpt>
      <trkpt lat="46.0511" lon="4.66439">
        <ele>248</ele>
        <time>2016-10-04T09:15:07Z</time>
      </trkpt>
      <trkpt lat="46.05116" lon="4.6644">
        <ele>248</ele>
        <time>2016-10-04T09:15:08Z</time>
      </trkpt>
      <trkpt lat="46.05122" lon="4.66444">
        <ele>248</ele>
        <time>2016-10-04T09:15:09Z</time>
      </trkpt>
      <trkpt lat="46.05128" lon="4.66447">
        <ele>248</ele>
        <time>2016-10-04T09:15:10Z</time>
      </trkpt>
      <trkpt lat="46.05134" lon="4.66449">
        <ele>248</ele>
        <time>2016-10-04T09:15:11Z</time>
      </trkpt>
      <trkpt lat="46.0514" lon="4.6645">
        <ele>247</ele>
        <time>2016-10-04T09:15:12Z</time>
      </trkpt>
      <trkpt lat="46.05147" lon="4.66449">
        <ele>247</ele>
        <time>2016-10-04T09:15:13Z</time>
      </trkpt>
      <trkpt lat="46.05153" lon="4.66446">
        <ele>247</ele>
        <time>2016-10-04T09:15:14Z</time>
      </trkpt>
      <trkpt lat="46.0516" lon="4.66442">
        <ele>247</ele>
        <time>2016-10-04T09:15:15Z</time>
      </trkpt>
      <trkpt lat="46.05167" lon="4.66437">
        <ele>247</ele>
        <time>2016-10-04T09:15:16Z</time>
      </trkpt>
      <trkpt lat="46.05173" lon="4.6643">
        <ele>244</ele>
        <time>2016-10-04T09:15:17Z</time>
      </trkpt>
      <trkpt lat="46.05179" lon="4.66422">
        <ele>244</ele>
        <time>2016-10-04T09:15:18Z</time>
      </trkpt>
      <trkpt lat="46.05183" lon="4.66413">
        <ele>244</ele>
        <time>2016-10-04T09:15:19Z</time>
      </trkpt>
      <trkpt lat="46.05188" lon="4.66404">
        <ele>243</ele>
        <time>2016-10-04T09:15:20Z</time>
      </trkpt>
      <trkpt lat="46.05193" lon="4.66395">
        <ele>242</ele>
        <time>2016-10-04T09:15:21Z</time>
      </trkpt>
      <trkpt lat="46.05197" lon="4.66385">
        <ele>242</ele>
        <time>2016-10-04T09:15:22Z</time>
      </trkpt>
      <trkpt lat="46.05201" lon="4.66374">
        <ele>242</ele>
        <time>2016-10-04T09:15:23Z</time>
      </trkpt>
      <trkpt lat="46.05205" lon="4.66364">
        <ele>242</ele>
        <time>2016-10-04T09:15:24Z</time>
      </trkpt>
      <trkpt lat="46.05208" lon="4.66353">
        <ele>242</ele>
        <time>2016-10-04T09:15:25Z</time>
      </trkpt>
      <trkpt lat="46.05213" lon="4.66342">
        <ele>241</ele>
        <time>2016-10-04T09:15:26Z</time>
      </trkpt>
      <trkpt lat="46.05217" lon="4.66331">
        <ele>241</ele>
        <time>2016-10-04T09:15:27Z</time>
      </trkpt>
      <trkpt lat="46.05221" lon="4.6632">
        <ele>241</ele>
        <time>2016-10-04T09:15:28Z</time>
      </trkpt>
      <trkpt lat="46.05225" lon="4.66308">
        <ele>241</ele>
        <time>2016-10-04T09:15:29Z</time>
      </trkpt>
      <trkpt lat="46.05229" lon="4.66297">
        <ele>241</ele>
        <time>2016-10-04T09:15:30Z</time>
      </trkpt>
      <trkpt lat="46.05234" lon="4.66285">
        <ele>241</ele>
        <time>2016-10-04T09:15:31Z</time>
      </trkpt>
      <trkpt lat="46.05238" lon="4.66272">
        <ele>241</ele>
        <time>2016-10-04T09:15:32Z</time>
      </trkpt>
      <trkpt lat="46.05242" lon="4.66259">
        <ele>240</ele>
        <time>2016-10-04T09:15:33Z</time>
      </trkpt>
      <trkpt lat="46.05246" lon="4.66246">
        <ele>240</ele>
        <time>2016-10-04T09:15:34Z</time>
      </trkpt>
      <trkpt lat="46.05251" lon="4.66233">
        <ele>237</ele>
        <time>2016-10-04T09:15:35Z</time>
      </trkpt>
      <trkpt lat="46.05257" lon="4.66218">
        <ele>236</ele>
        <time>2016-10-04T09:15:36Z</time>
      </trkpt>
      <trkpt lat="46.05262" lon="4.66204">
        <ele>236</ele>
        <time>2016-10-04T09:15:37Z</time>
      </trkpt>
      <trkpt lat="46.05267" lon="4.6619">
        <ele>236</ele>
        <time>2016-10-04T09:15:38Z</time>
      </trkpt>
      <trkpt lat="46.05272" lon="4.66177">
        <ele>236</ele>
        <time>2016-10-04T09:15:39Z</time>
      </trkpt>
      <trkpt lat="46.05277" lon="4.66164">
        <ele>235</ele>
        <time>2016-10-04T09:15:40Z</time>
      </trkpt>
      <trkpt lat="46.05281" lon="4.66151">
        <ele>235</ele>
        <time>2016-10-04T09:15:41Z</time>
      </trkpt>
      <trkpt lat="46.05286" lon="4.66137">
        <ele>234</ele>
        <time>2016-10-04T09:15:42Z</time>
      </trkpt>
      <trkpt lat="46.0529" lon="4.66123">
        <ele>234</ele>
        <time>2016-10-04T09:15:43Z</time>
      </trkpt>
      <trkpt lat="46.05293" lon="4.66108">
        <ele>234</ele>
        <time>2016-10-04T09:15:44Z</time>
      </trkpt>
      <trkpt lat="46.05296" lon="4.66093">
        <ele>233</ele>
        <time>2016-10-04T09:15:45Z</time>
      </trkpt>
      <trkpt lat="46.05298" lon="4.66078">
        <ele>232</ele>
        <time>2016-10-04T09:15:46Z</time>
      </trkpt>
      <trkpt lat="46.05301" lon="4.66064">
        <ele>232</ele>
        <time>2016-10-04T09:15:47Z</time>
      </trkpt>
      <trkpt lat="46.05304" lon="4.6605">
        <ele>232</ele>
        <time>2016-10-04T09:15:48Z</time>
      </trkpt>
      <trkpt lat="46.05306" lon="4.66036">
        <ele>232</ele>
        <time>2016-10-04T09:15:49Z</time>
      </trkpt>
      <trkpt lat="46.05308" lon="4.66022">
        <ele>232</ele>
        <time>2016-10-04T09:15:50Z</time>
      </trkpt>
      <trkpt lat="46.0531" lon="4.66007">
        <ele>232</ele>
        <time>2016-10-04T09:15:51Z</time>
      </trkpt>
      <trkpt lat="46.05313" lon="4.65992">
        <ele>231</ele>
        <time>2016-10-04T09:15:52Z</time>
      </trkpt>
      <trkpt lat="46.05316" lon="4.65976">
        <ele>231</ele>
        <time>2016-10-04T09:15:53Z</time>
      </trkpt>
      <trkpt lat="46.05318" lon="4.65961">
        <ele>231</ele>
        <time>2016-10-04T09:15:54Z</time>
      </trkpt>
      <trkpt lat="46.05321" lon="4.65945">
        <ele>231</ele>
        <time>2016-10-04T09:15:55Z</time>
      </trkpt>
      <trkpt lat="46.05323" lon="4.6593">
        <ele>230</ele>
        <time>2016-10-04T09:15:56Z</time>
      </trkpt>
      <trkpt lat="46.05326" lon="4.65914">
        <ele>229</ele>
        <time>2016-10-04T09:15:57Z</time>
      </trkpt>
      <trkpt lat="46.05329" lon="4.65899">
        <ele>230</ele>
        <time>2016-10-04T09:15:58Z</time>
      </trkpt>
      <trkpt lat="46.05331" lon="4.65883">
        <ele>230</ele>
        <time>2016-10-04T09:15:59Z</time>
      </trkpt>
      <trkpt lat="46.05333" lon="4.65868">
        <ele>230</ele>
        <time>2016-10-04T09:16:00Z</time>
      </trkpt>
      <trkpt lat="46.05336" lon="4.65853">
        <ele>228</ele>
        <time>2016-10-04T09:16:01Z</time>
      </trkpt>
      <trkpt lat="46.05338" lon="4.65838">
        <ele>228</ele>
        <time>2016-10-04T09:16:02Z</time>
      </trkpt>
      <trkpt lat="46.05341" lon="4.65824">
        <ele>228</ele>
        <time>2016-10-04T09:16:03Z</time>
      </trkpt>
      <trkpt lat="46.05344" lon="4.6581">
        <ele>228</ele>
        <time>2016-10-04T09:16:04Z</time>
      </trkpt>
      <trkpt lat="46.05346" lon="4.65796">
        <ele>228</ele>
        <time>2016-10-04T09:16:05Z</time>
      </trkpt>
      <trkpt lat="46.05349" lon="4.65783">
        <ele>228</ele>
        <time>2016-10-04T09:16:06Z</time>
      </trkpt>
      <trkpt lat="46.05352" lon="4.65769">
        <ele>229</ele>
        <time>2016-10-04T09:16:07Z</time>
      </trkpt>
      <trkpt lat="46.05354" lon="4.65755">
        <ele>229</ele>
        <time>2016-10-04T09:16:08Z</time>
      </trkpt>
      <trkpt lat="46.05357" lon="4.65742">
        <ele>229</ele>
        <time>2016-10-04T09:16:09Z</time>
      </trkpt>
      <trkpt lat="46.0536" lon="4.65729">
        <ele>229</ele>
        <time>2016-10-04T09:16:10Z</time>
      </trkpt>
      <trkpt lat="46.05363" lon="4.65717">
        <ele>229</ele>
        <time>2016-10-04T09:16:11Z</time>
      </trkpt>
      <trkpt lat="46.05366" lon="4.65704">
        <ele>229</ele>
        <time>2016-10-04T09:16:12Z</time>
      </trkpt>
      <trkpt lat="46.0537" lon="4.65692">
        <ele>229</ele>
        <time>2016-10-04T09:16:13Z</time>
      </trkpt>
      <trkpt lat="46.05375" lon="4.65675">
        <ele>229</ele>
        <time>2016-10-04T09:16:14Z</time>
      </trkpt>
      <trkpt lat="46.05381" lon="4.65661">
        <ele>229</ele>
        <time>2016-10-04T09:16:15Z</time>
      </trkpt>
      <trkpt lat="46.05386" lon="4.65651">
        <ele>229</ele>
        <time>2016-10-04T09:16:16Z</time>
      </trkpt>
      <trkpt lat="46.05393" lon="4.65641">
        <ele>229</ele>
        <time>2016-10-04T09:16:17Z</time>
      </trkpt>
      <trkpt lat="46.05399" lon="4.65633">
        <ele>228</ele>
        <time>2016-10-04T09:16:18Z</time>
      </trkpt>
      <trkpt lat="46.05405" lon="4.65626">
        <ele>228</ele>
        <time>2016-10-04T09:16:19Z</time>
      </trkpt>
      <trkpt lat="46.05411" lon="4.65619">
        <ele>228</ele>
        <time>2016-10-04T09:16:20Z</time>
      </trkpt>
      <trkpt lat="46.05417" lon="4.65612">
        <ele>227</ele>
        <time>2016-10-04T09:16:21Z</time>
      </trkpt>
      <trkpt lat="46.05422" lon="4.65606">
        <ele>227</ele>
        <time>2016-10-04T09:16:22Z</time>
      </trkpt>
      <trkpt lat="46.05428" lon="4.656">
        <ele>227</ele>
        <time>2016-10-04T09:16:23Z</time>
      </trkpt>
      <trkpt lat="46.05432" lon="4.65593">
        <ele>227</ele>
        <time>2016-10-04T09:16:24Z</time>
      </trkpt>
      <trkpt lat="46.05437" lon="4.65587">
        <ele>227</ele>
        <time>2016-10-04T09:16:25Z</time>
      </trkpt>
      <trkpt lat="46.05442" lon="4.65581">
        <ele>227</ele>
        <time>2016-10-04T09:16:26Z</time>
      </trkpt>
      <trkpt lat="46.05447" lon="4.65575">
        <ele>227</ele>
        <time>2016-10-04T09:16:27Z</time>
      </trkpt>
      <trkpt lat="46.05451" lon="4.65571">
        <ele>227</ele>
        <time>2016-10-04T09:16:28Z</time>
      </trkpt>
      <trkpt lat="46.05456" lon="4.65564">
        <ele>227</ele>
        <time>2016-10-04T09:16:29Z</time>
      </trkpt>
      <trkpt lat="46.0546" lon="4.65559">
        <ele>227</ele>
        <time>2016-10-04T09:16:30Z</time>
      </trkpt>
      <trkpt lat="46.05465" lon="4.65553">
        <ele>227</ele>
        <time>2016-10-04T09:16:31Z</time>
      </trkpt>
      <trkpt lat="46.0547" lon="4.65548">
        <ele>227</ele>
        <time>2016-10-04T09:16:32Z</time>
      </trkpt>
      <trkpt lat="46.05474" lon="4.65543">
        <ele>227</ele>
        <time>2016-10-04T09:16:33Z</time>
      </trkpt>
      <trkpt lat="46.05479" lon="4.65539">
        <ele>228</ele>
        <time>2016-10-04T09:16:34Z</time>
      </trkpt>
      <trkpt lat="46.05483" lon="4.65534">
        <ele>228</ele>
        <time>2016-10-04T09:16:35Z</time>
      </trkpt>
      <trkpt lat="46.05488" lon="4.6553">
        <ele>228</ele>
        <time>2016-10-04T09:16:36Z</time>
      </trkpt>
      <trkpt lat="46.05493" lon="4.65525">
        <ele>228</ele>
        <time>2016-10-04T09:16:37Z</time>
      </trkpt>
      <trkpt lat="46.05498" lon="4.65521">
        <ele>228</ele>
        <time>2016-10-04T09:16:38Z</time>
      </trkpt>
      <trkpt lat="46.05503" lon="4.65517">
        <ele>228</ele>
        <time>2016-10-04T09:16:39Z</time>
      </trkpt>
      <trkpt lat="46.05507" lon="4.65513">
        <ele>228</ele>
        <time>2016-10-04T09:16:40Z</time>
      </trkpt>
      <trkpt lat="46.05513" lon="4.65509">
        <ele>228</ele>
        <time>2016-10-04T09:16:41Z</time>
      </trkpt>
      <trkpt lat="46.05518" lon="4.65506">
        <ele>228</ele>
        <time>2016-10-04T09:16:42Z</time>
      </trkpt>
      <trkpt lat="46.05523" lon="4.65502">
        <ele>228</ele>
        <time>2016-10-04T09:16:43Z</time>
      </trkpt>
      <trkpt lat="46.05529" lon="4.65499">
        <ele>229</ele>
        <time>2016-10-04T09:16:44Z</time>
      </trkpt>
      <trkpt lat="46.05534" lon="4.65497">
        <ele>229</ele>
        <time>2016-10-04T09:16:45Z</time>
      </trkpt>
      <trkpt lat="46.05538" lon="4.65494">
        <ele>229</ele>
        <time>2016-10-04T09:16:46Z</time>
      </trkpt>
      <trkpt lat="46.05543" lon="4.65491">
        <ele>229</ele>
        <time>2016-10-04T09:16:47Z</time>
      </trkpt>
      <trkpt lat="46.05548" lon="4.65488">
        <ele>229</ele>
        <time>2016-10-04T09:16:48Z</time>
      </trkpt>
      <trkpt lat="46.05553" lon="4.65485">
        <ele>229</ele>
        <time>2016-10-04T09:16:49Z</time>
      </trkpt>
      <trkpt lat="46.05558" lon="4.65482">
        <ele>229</ele>
        <time>2016-10-04T09:16:50Z</time>
      </trkpt>
      <trkpt lat="46.05564" lon="4.65479">
        <ele>229</ele>
        <time>2016-10-04T09:16:51Z</time>
      </trkpt>
      <trkpt lat="46.0557" lon="4.65476">
        <ele>229</ele>
        <time>2016-10-04T09:16:52Z</time>
      </trkpt>
      <trkpt lat="46.05575" lon="4.65472">
        <ele>229</ele>
        <time>2016-10-04T09:16:53Z</time>
      </trkpt>
      <trkpt lat="46.05581" lon="4.65468">
        <ele>229</ele>
        <time>2016-10-04T09:16:54Z</time>
      </trkpt>
      <trkpt lat="46.05586" lon="4.65466">
        <ele>229</ele>
        <time>2016-10-04T09:16:55Z</time>
      </trkpt>
      <trkpt lat="46.0559" lon="4.65462">
        <ele>230</ele>
        <time>2016-10-04T09:16:56Z</time>
      </trkpt>
      <trkpt lat="46.05595" lon="4.6546">
        <ele>230</ele>
        <time>2016-10-04T09:16:57Z</time>
      </trkpt>
      <trkpt lat="46.056" lon="4.65457">
        <ele>230</ele>
        <time>2016-10-04T09:16:58Z</time>
      </trkpt>
      <trkpt lat="46.05606" lon="4.65453">
        <ele>230</ele>
        <time>2016-10-04T09:16:59Z</time>
      </trkpt>
      <trkpt lat="46.05611" lon="4.65451">
        <ele>230</ele>
        <time>2016-10-04T09:17:00Z</time>
      </trkpt>
      <trkpt lat="46.05616" lon="4.65447">
        <ele>230</ele>
        <time>2016-10-04T09:17:01Z</time>
      </trkpt>
      <trkpt lat="46.05621" lon="4.65446">
        <ele>230</ele>
        <time>2016-10-04T09:17:02Z</time>
      </trkpt>
      <trkpt lat="46.05626" lon="4.65445">
        <ele>231</ele>
        <time>2016-10-04T09:17:03Z</time>
      </trkpt>
      <trkpt lat="46.05631" lon="4.65445">
        <ele>231</ele>
        <time>2016-10-04T09:17:04Z</time>
      </trkpt>
      <trkpt lat="46.05636" lon="4.65446">
        <ele>231</ele>
        <time>2016-10-04T09:17:05Z</time>
      </trkpt>
      <trkpt lat="46.05641" lon="4.65448">
        <ele>231</ele>
        <time>2016-10-04T09:17:06Z</time>
      </trkpt>
      <trkpt lat="46.05646" lon="4.6545">
        <ele>231</ele>
        <time>2016-10-04T09:17:07Z</time>
      </trkpt>
      <trkpt lat="46.05651" lon="4.65452">
        <ele>231</ele>
        <time>2016-10-04T09:17:08Z</time>
      </trkpt>
      <trkpt lat="46.05655" lon="4.65454">
        <ele>231</ele>
        <time>2016-10-04T09:17:09Z</time>
      </trkpt>
      <trkpt lat="46.05663" lon="4.65459">
        <ele>231</ele>
        <time>2016-10-04T09:17:11Z</time>
      </trkpt>
      <trkpt lat="46.05667" lon="4.65462">
        <ele>235</ele>
        <time>2016-10-04T09:17:12Z</time>
      </trkpt>
      <trkpt lat="46.05673" lon="4.6547">
        <ele>235</ele>
        <time>2016-10-04T09:17:14Z</time>
      </trkpt>
      <trkpt lat="46.05676" lon="4.65476">
        <ele>234</ele>
        <time>2016-10-04T09:17:15Z</time>
      </trkpt>
      <trkpt lat="46.05682" lon="4.65483">
        <ele>234</ele>
        <time>2016-10-04T09:17:17Z</time>
      </trkpt>
      <trkpt lat="46.05685" lon="4.65486">
        <ele>234</ele>
        <time>2016-10-04T09:17:18Z</time>
      </trkpt>
      <trkpt lat="46.0569" lon="4.65492">
        <ele>235</ele>
        <time>2016-10-04T09:17:20Z</time>
      </trkpt>
      <trkpt lat="46.05693" lon="4.65496">
        <ele>235</ele>
        <time>2016-10-04T09:17:21Z</time>
      </trkpt>
      <trkpt lat="46.05697" lon="4.65505">
        <ele>233</ele>
        <time>2016-10-04T09:17:23Z</time>
      </trkpt>
      <trkpt lat="46.05699" lon="4.65508">
        <ele>234</ele>
        <time>2016-10-04T09:17:24Z</time>
      </trkpt>
      <trkpt lat="46.05704" lon="4.65517">
        <ele>234</ele>
        <time>2016-10-04T09:17:26Z</time>
      </trkpt>
      <trkpt lat="46.05707" lon="4.6552">
        <ele>234</ele>
        <time>2016-10-04T09:17:27Z</time>
      </trkpt>
      <trkpt lat="46.05712" lon="4.65529">
        <ele>235</ele>
        <time>2016-10-04T09:17:29Z</time>
      </trkpt>
      <trkpt lat="46.05715" lon="4.65533">
        <ele>235</ele>
        <time>2016-10-04T09:17:30Z</time>
      </trkpt>
      <trkpt lat="46.0572" lon="4.6554">
        <ele>235</ele>
        <time>2016-10-04T09:17:32Z</time>
      </trkpt>
      <trkpt lat="46.05723" lon="4.65543">
        <ele>235</ele>
        <time>2016-10-04T09:17:33Z</time>
      </trkpt>
      <trkpt lat="46.05727" lon="4.65551">
        <ele>235</ele>
        <time>2016-10-04T09:17:35Z</time>
      </trkpt>
      <trkpt lat="46.0573" lon="4.65556">
        <ele>235</ele>
        <time>2016-10-04T09:17:36Z</time>
      </trkpt>
      <trkpt lat="46.05734" lon="4.65565">
        <ele>236</ele>
        <time>2016-10-04T09:17:38Z</time>
      </trkpt>
      <trkpt lat="46.05737" lon="4.6557">
        <ele>236</ele>
        <time>2016-10-04T09:17:39Z</time>
      </trkpt>
      <trkpt lat="46.05741" lon="4.6558">
        <ele>237</ele>
        <time>2016-10-04T09:17:41Z</time>
      </trkpt>
      <trkpt lat="46.05743" lon="4.65584">
        <ele>236</ele>
        <time>2016-10-04T09:17:42Z</time>
      </trkpt>
      <trkpt lat="46.05748" lon="4.65593">
        <ele>236</ele>
        <time>2016-10-04T09:17:44Z</time>
      </trkpt>
      <trkpt lat="46.0575" lon="4.65599">
        <ele>239</ele>
        <time>2016-10-04T09:17:45Z</time>
      </trkpt>
      <trkpt lat="46.05754" lon="4.65609">
        <ele>239</ele>
        <time>2016-10-04T09:17:47Z</time>
      </trkpt>
      <trkpt lat="46.05756" lon="4.65614">
        <ele>239</ele>
        <time>2016-10-04T09:17:48Z</time>
      </trkpt>
      <trkpt lat="46.0576" lon="4.65621">
        <ele>239</ele>
        <time>2016-10-04T09:17:50Z</time>
      </trkpt>
      <trkpt lat="46.05763" lon="4.65625">
        <ele>239</ele>
        <time>2016-10-04T09:17:51Z</time>
      </trkpt>
      <trkpt lat="46.05767" lon="4.65632">
        <ele>239</ele>
        <time>2016-10-04T09:17:53Z</time>
      </trkpt>
      <trkpt lat="46.0577" lon="4.65636">
        <ele>239</ele>
        <time>2016-10-04T09:17:54Z</time>
      </trkpt>
      <trkpt lat="46.05774" lon="4.65643">
        <ele>239</ele>
        <time>2016-10-04T09:17:56Z</time>
      </trkpt>
      <trkpt lat="46.05776" lon="4.65647">
        <ele>239</ele>
        <time>2016-10-04T09:17:57Z</time>
      </trkpt>
      <trkpt lat="46.05782" lon="4.65655">
        <ele>239</ele>
        <time>2016-10-04T09:17:59Z</time>
      </trkpt>
      <trkpt lat="46.05784" lon="4.65659">
        <ele>239</ele>
        <time>2016-10-04T09:18:00Z</time>
      </trkpt>
      <trkpt lat="46.05787" lon="4.6567">
        <ele>238</ele>
        <time>2016-10-04T09:18:02Z</time>
      </trkpt>
      <trkpt lat="46.0579" lon="4.65673">
        <ele>238</ele>
        <time>2016-10-04T09:18:03Z</time>
      </trkpt>
      <trkpt lat="46.05794" lon="4.6568">
        <ele>238</ele>
        <time>2016-10-04T09:18:05Z</time>
      </trkpt>
      <trkpt lat="46.05797" lon="4.65684">
        <ele>239</ele>
        <time>2016-10-04T09:18:06Z</time>
      </trkpt>
      <trkpt lat="46.05802" lon="4.65691">
        <ele>239</ele>
        <time>2016-10-04T09:18:08Z</time>
      </trkpt>
      <trkpt lat="46.05803" lon="4.65695">
        <ele>239</ele>
        <time>2016-10-04T09:18:09Z</time>
      </trkpt>
      <trkpt lat="46.05808" lon="4.65701">
        <ele>239</ele>
        <time>2016-10-04T09:18:11Z</time>
      </trkpt>
      <trkpt lat="46.0581" lon="4.65705">
        <ele>239</ele>
        <time>2016-10-04T09:18:12Z</time>
      </trkpt>
      <trkpt lat="46.05814" lon="4.65712">
        <ele>239</ele>
        <time>2016-10-04T09:18:14Z</time>
      </trkpt>
      <trkpt lat="46.05817" lon="4.65716">
        <ele>239</ele>
        <time>2016-10-04T09:18:15Z</time>
      </trkpt>
      <trkpt lat="46.05821" lon="4.65725">
        <ele>239</ele>
        <time>2016-10-04T09:18:17Z</time>
      </trkpt>
      <trkpt lat="46.05824" lon="4.65728">
        <ele>240</ele>
        <time>2016-10-04T09:18:18Z</time>
      </trkpt>
      <trkpt lat="46.0583" lon="4.65732">
        <ele>240</ele>
        <time>2016-10-04T09:18:20Z</time>
      </trkpt>
      <trkpt lat="46.05833" lon="4.65734">
        <ele>240</ele>
        <time>2016-10-04T09:18:21Z</time>
      </trkpt>
      <trkpt lat="46.0584" lon="4.65736">
        <ele>244</ele>
        <time>2016-10-04T09:18:23Z</time>
      </trkpt>
      <trkpt lat="46.05844" lon="4.65737">
        <ele>244</ele>
        <time>2016-10-04T09:18:24Z</time>
      </trkpt>
      <trkpt lat="46.05849" lon="4.65738">
        <ele>245</ele>
        <time>2016-10-04T09:18:25Z</time>
      </trkpt>
      <trkpt lat="46.05853" lon="4.65739">
        <ele>245</ele>
        <time>2016-10-04T09:18:26Z</time>
      </trkpt>
      <trkpt lat="46.0586" lon="4.65739">
        <ele>245</ele>
        <time>2016-10-04T09:18:28Z</time>
      </trkpt>
      <trkpt lat="46.05864" lon="4.65739">
        <ele>246</ele>
        <time>2016-10-04T09:18:29Z</time>
      </trkpt>
      <trkpt lat="46.0587" lon="4.65737">
        <ele>246</ele>
        <time>2016-10-04T09:18:31Z</time>
      </trkpt>
      <trkpt lat="46.05874" lon="4.65735">
        <ele>246</ele>
        <time>2016-10-04T09:18:32Z</time>
      </trkpt>
      <trkpt lat="46.0588" lon="4.65729">
        <ele>247</ele>
        <time>2016-10-04T09:18:34Z</time>
      </trkpt>
      <trkpt lat="46.05883" lon="4.65725">
        <ele>247</ele>
        <time>2016-10-04T09:18:35Z</time>
      </trkpt>
      <trkpt lat="46.05889" lon="4.65718">
        <ele>247</ele>
        <time>2016-10-04T09:18:37Z</time>
      </trkpt>
      <trkpt lat="46.05891" lon="4.65714">
        <ele>247</ele>
        <time>2016-10-04T09:18:38Z</time>
      </trkpt>
      <trkpt lat="46.05895" lon="4.65704">
        <ele>248</ele>
        <time>2016-10-04T09:18:40Z</time>
      </trkpt>
      <trkpt lat="46.05897" lon="4.65698">
        <ele>248</ele>
        <time>2016-10-04T09:18:41Z</time>
      </trkpt>
      <trkpt lat="46.05901" lon="4.65687">
        <ele>249</ele>
        <time>2016-10-04T09:18:43Z</time>
      </trkpt>
      <trkpt lat="46.05902" lon="4.65682">
        <ele>249</ele>
        <time>2016-10-04T09:18:44Z</time>
      </trkpt>
      <trkpt lat="46.05904" lon="4.65672">
        <ele>250</ele>
        <time>2016-10-04T09:18:46Z</time>
      </trkpt>
      <trkpt lat="46.05905" lon="4.65667">
        <ele>251</ele>
        <time>2016-10-04T09:18:47Z</time>
      </trkpt>
      <trkpt lat="46.05906" lon="4.65656">
        <ele>251</ele>
        <time>2016-10-04T09:18:49Z</time>
      </trkpt>
      <trkpt lat="46.05906" lon="4.65651">
        <ele>251</ele>
        <time>2016-10-04T09:18:50Z</time>
      </trkpt>
      <trkpt lat="46.05907" lon="4.65639">
        <ele>250</ele>
        <time>2016-10-04T09:18:52Z</time>
      </trkpt>
      <trkpt lat="46.05907" lon="4.65634">
        <ele>250</ele>
        <time>2016-10-04T09:18:53Z</time>
      </trkpt>
      <trkpt lat="46.05909" lon="4.65623">
        <ele>250</ele>
        <time>2016-10-04T09:18:55Z</time>
      </trkpt>
      <trkpt lat="46.05911" lon="4.65617">
        <ele>250</ele>
        <time>2016-10-04T09:18:56Z</time>
      </trkpt>
      <trkpt lat="46.05912" lon="4.65605">
        <ele>251</ele>
        <time>2016-10-04T09:18:58Z</time>
      </trkpt>
      <trkpt lat="46.05912" lon="4.656">
        <ele>251</ele>
        <time>2016-10-04T09:18:59Z</time>
      </trkpt>
      <trkpt lat="46.05914" lon="4.65589">
        <ele>252</ele>
        <time>2016-10-04T09:19:01Z</time>
      </trkpt>
      <trkpt lat="46.05916" lon="4.65585">
        <ele>253</ele>
        <time>2016-10-04T09:19:02Z</time>
      </trkpt>
      <trkpt lat="46.05917" lon="4.65573">
        <ele>254</ele>
        <time>2016-10-04T09:19:04Z</time>
      </trkpt>
      <trkpt lat="46.05918" lon="4.65568">
        <ele>254</ele>
        <time>2016-10-04T09:19:05Z</time>
      </trkpt>
      <trkpt lat="46.05919" lon="4.65558">
        <ele>254</ele>
        <time>2016-10-04T09:19:07Z</time>
      </trkpt>
      <trkpt lat="46.05919" lon="4.65552">
        <ele>254</ele>
        <time>2016-10-04T09:19:08Z</time>
      </trkpt>
      <trkpt lat="46.05919" lon="4.65542">
        <ele>254</ele>
        <time>2016-10-04T09:19:10Z</time>
      </trkpt>
      <trkpt lat="46.0592" lon="4.65536">
        <ele>254</ele>
        <time>2016-10-04T09:19:11Z</time>
      </trkpt>
      <trkpt lat="46.05921" lon="4.65526">
        <ele>254</ele>
        <time>2016-10-04T09:19:13Z</time>
      </trkpt>
      <trkpt lat="46.05922" lon="4.65521">
        <ele>254</ele>
        <time>2016-10-04T09:19:14Z</time>
      </trkpt>
      <trkpt lat="46.05923" lon="4.65509">
        <ele>254</ele>
        <time>2016-10-04T09:19:16Z</time>
      </trkpt>
      <trkpt lat="46.05923" lon="4.65505">
        <ele>254</ele>
        <time>2016-10-04T09:19:17Z</time>
      </trkpt>
      <trkpt lat="46.05923" lon="4.65493">
        <ele>254</ele>
        <time>2016-10-04T09:19:19Z</time>
      </trkpt>
      <trkpt lat="46.05924" lon="4.65488">
        <ele>254</ele>
        <time>2016-10-04T09:19:20Z</time>
      </trkpt>
      <trkpt lat="46.05925" lon="4.65477">
        <ele>255</ele>
        <time>2016-10-04T09:19:22Z</time>
      </trkpt>
      <trkpt lat="46.05926" lon="4.65472">
        <ele>255</ele>
        <time>2016-10-04T09:19:23Z</time>
      </trkpt>
      <trkpt lat="46.05927" lon="4.65462">
        <ele>256</ele>
        <time>2016-10-04T09:19:25Z</time>
      </trkpt>
      <trkpt lat="46.05927" lon="4.65458">
        <ele>256</ele>
        <time>2016-10-04T09:19:26Z</time>
      </trkpt>
      <trkpt lat="46.05929" lon="4.65449">
        <ele>256</ele>
        <time>2016-10-04T09:19:28Z</time>
      </trkpt>
      <trkpt lat="46.05929" lon="4.65444">
        <ele>256</ele>
        <time>2016-10-04T09:19:29Z</time>
      </trkpt>
      <trkpt lat="46.05929" lon="4.65435">
        <ele>256</ele>
        <time>2016-10-04T09:19:31Z</time>
      </trkpt>
      <trkpt lat="46.0593" lon="4.6543">
        <ele>256</ele>
        <time>2016-10-04T09:19:32Z</time>
      </trkpt>
      <trkpt lat="46.05932" lon="4.65421">
        <ele>256</ele>
        <time>2016-10-04T09:19:34Z</time>
      </trkpt>
      <trkpt lat="46.05933" lon="4.65415">
        <ele>256</ele>
        <time>2016-10-04T09:19:35Z</time>
      </trkpt>
      <trkpt lat="46.05934" lon="4.65404">
        <ele>256</ele>
        <time>2016-10-04T09:19:37Z</time>
      </trkpt>
      <trkpt lat="46.05935" lon="4.65399">
        <ele>257</ele>
        <time>2016-10-04T09:19:38Z</time>
      </trkpt>
      <trkpt lat="46.05936" lon="4.6539">
        <ele>257</ele>
        <time>2016-10-04T09:19:40Z</time>
      </trkpt>
      <trkpt lat="46.05937" lon="4.65385">
        <ele>257</ele>
        <time>2016-10-04T09:19:41Z</time>
      </trkpt>
      <trkpt lat="46.0594" lon="4.65377">
        <ele>257</ele>
        <time>2016-10-04T09:19:43Z</time>
      </trkpt>
      <trkpt lat="46.05942" lon="4.65372">
        <ele>257</ele>
        <time>2016-10-04T09:19:44Z</time>
      </trkpt>
      <trkpt lat="46.05944" lon="4.65362">
        <ele>257</ele>
        <time>2016-10-04T09:19:46Z</time>
      </trkpt>
      <trkpt lat="46.05946" lon="4.65358">
        <ele>257</ele>
        <time>2016-10-04T09:19:47Z</time>
      </trkpt>
      <trkpt lat="46.0595" lon="4.65348">
        <ele>257</ele>
        <time>2016-10-04T09:19:49Z</time>
      </trkpt>
      <trkpt lat="46.05952" lon="4.65344">
        <ele>257</ele>
        <time>2016-10-04T09:19:50Z</time>
      </trkpt>
      <trkpt lat="46.05956" lon="4.65334">
        <ele>257</ele>
        <time>2016-10-04T09:19:52Z</time>
      </trkpt>
      <trkpt lat="46.05958" lon="4.6533">
        <ele>258</ele>
        <time>2016-10-04T09:19:53Z</time>
      </trkpt>
      <trkpt lat="46.05962" lon="4.65322">
        <ele>259</ele>
        <time>2016-10-04T09:19:55Z</time>
      </trkpt>
      <trkpt lat="46.05964" lon="4.65317">
        <ele>259</ele>
        <time>2016-10-04T09:19:56Z</time>
      </trkpt>
      <trkpt lat="46.05968" lon="4.65309">
        <ele>259</ele>
        <time>2016-10-04T09:19:58Z</time>
      </trkpt>
      <trkpt lat="46.0597" lon="4.65305">
        <ele>259</ele>
        <time>2016-10-04T09:19:59Z</time>
      </trkpt>
      <trkpt lat="46.05974" lon="4.65298">
        <ele>259</ele>
        <time>2016-10-04T09:20:01Z</time>
      </trkpt>
      <trkpt lat="46.05977" lon="4.65295">
        <ele>259</ele>
        <time>2016-10-04T09:20:02Z</time>
      </trkpt>
      <trkpt lat="46.05981" lon="4.65289">
        <ele>260</ele>
        <time>2016-10-04T09:20:04Z</time>
      </trkpt>
      <trkpt lat="46.05984" lon="4.65285">
        <ele>260</ele>
        <time>2016-10-04T09:20:05Z</time>
      </trkpt>
      <trkpt lat="46.05989" lon="4.65278">
        <ele>260</ele>
        <time>2016-10-04T09:20:07Z</time>
      </trkpt>
      <trkpt lat="46.05992" lon="4.65274">
        <ele>260</ele>
        <time>2016-10-04T09:20:08Z</time>
      </trkpt>
      <trkpt lat="46.05998" lon="4.65267">
        <ele>261</ele>
        <time>2016-10-04T09:20:10Z</time>
      </trkpt>
      <trkpt lat="46.06001" lon="4.65264">
        <ele>262</ele>
        <time>2016-10-04T09:20:11Z</time>
      </trkpt>
      <trkpt lat="46.06007" lon="4.65258">
        <ele>263</ele>
        <time>2016-10-04T09:20:13Z</time>
      </trkpt>
      <trkpt lat="46.06011" lon="4.65254">
        <ele>263</ele>
        <time>2016-10-04T09:20:14Z</time>
      </trkpt>
      <trkpt lat="46.06017" lon="4.65249">
        <ele>263</ele>
        <time>2016-10-04T09:20:16Z</time>
      </trkpt>
      <trkpt lat="46.0602" lon="4.65247">
        <ele>263</ele>
        <time>2016-10-04T09:20:17Z</time>
      </trkpt>
      <trkpt lat="46.06025" lon="4.65244">
        <ele>264</ele>
        <time>2016-10-04T09:20:19Z</time>
      </trkpt>
      <trkpt lat="46.06028" lon="4.65242">
        <ele>264</ele>
        <time>2016-10-04T09:20:20Z</time>
      </trkpt>
      <trkpt lat="46.06034" lon="4.65239">
        <ele>264</ele>
        <time>2016-10-04T09:20:22Z</time>
      </trkpt>
      <trkpt lat="46.06037" lon="4.65237">
        <ele>264</ele>
        <time>2016-10-04T09:20:23Z</time>
      </trkpt>
      <trkpt lat="46.06044" lon="4.65233">
        <ele>264</ele>
        <time>2016-10-04T09:20:25Z</time>
      </trkpt>
      <trkpt lat="46.06048" lon="4.65231">
        <ele>264</ele>
        <time>2016-10-04T09:20:26Z</time>
      </trkpt>
      <trkpt lat="46.06055" lon="4.65227">
        <ele>264</ele>
        <time>2016-10-04T09:20:28Z</time>
      </trkpt>
      <trkpt lat="46.06059" lon="4.65225">
        <ele>264</ele>
        <time>2016-10-04T09:20:29Z</time>
      </trkpt>
      <trkpt lat="46.06067" lon="4.65221">
        <ele>264</ele>
        <time>2016-10-04T09:20:31Z</time>
      </trkpt>
      <trkpt lat="46.0607" lon="4.65222">
        <ele>264</ele>
        <time>2016-10-04T09:20:32Z</time>
      </trkpt>
      <trkpt lat="46.06077" lon="4.65217">
        <ele>264</ele>
        <time>2016-10-04T09:20:34Z</time>
      </trkpt>
      <trkpt lat="46.0608" lon="4.65214">
        <ele>264</ele>
        <time>2016-10-04T09:20:35Z</time>
      </trkpt>
      <trkpt lat="46.06086" lon="4.65206">
        <ele>264</ele>
        <time>2016-10-04T09:20:37Z</time>
      </trkpt>
      <trkpt lat="46.06089" lon="4.65202">
        <ele>264</ele>
        <time>2016-10-04T09:20:38Z</time>
      </trkpt>
      <trkpt lat="46.06093" lon="4.65198">
        <ele>264</ele>
        <time>2016-10-04T09:20:39Z</time>
      </trkpt>
      <trkpt lat="46.06097" lon="4.65196">
        <ele>264</ele>
        <time>2016-10-04T09:20:40Z</time>
      </trkpt>
      <trkpt lat="46.06102" lon="4.65193">
        <ele>264</ele>
        <time>2016-10-04T09:20:41Z</time>
      </trkpt>
      <trkpt lat="46.06107" lon="4.65189">
        <ele>264</ele>
        <time>2016-10-04T09:20:42Z</time>
      </trkpt>
      <trkpt lat="46.06115" lon="4.65188">
        <ele>264</ele>
        <time>2016-10-04T09:20:44Z</time>
      </trkpt>
      <trkpt lat="46.0612" lon="4.65185">
        <ele>264</ele>
        <time>2016-10-04T09:20:45Z</time>
      </trkpt>
      <trkpt lat="46.06124" lon="4.65186">
        <ele>264</ele>
        <time>2016-10-04T09:20:46Z</time>
      </trkpt>
      <trkpt lat="46.06129" lon="4.65186">
        <ele>264</ele>
        <time>2016-10-04T09:20:47Z</time>
      </trkpt>
      <trkpt lat="46.06135" lon="4.65186">
        <ele>264</ele>
        <time>2016-10-04T09:20:48Z</time>
      </trkpt>
      <trkpt lat="46.06141" lon="4.65186">
        <ele>264</ele>
        <time>2016-10-04T09:20:49Z</time>
      </trkpt>
      <trkpt lat="46.06146" lon="4.65185">
        <ele>263</ele>
        <time>2016-10-04T09:20:50Z</time>
      </trkpt>
      <trkpt lat="46.06149" lon="4.65179">
        <ele>264</ele>
        <time>2016-10-04T09:20:51Z</time>
      </trkpt>
      <trkpt lat="46.06153" lon="4.65176">
        <ele>264</ele>
        <time>2016-10-04T09:20:52Z</time>
      </trkpt>
      <trkpt lat="46.06158" lon="4.65173">
        <ele>264</ele>
        <time>2016-10-04T09:20:53Z</time>
      </trkpt>
      <trkpt lat="46.06162" lon="4.65172">
        <ele>264</ele>
        <time>2016-10-04T09:20:54Z</time>
      </trkpt>
      <trkpt lat="46.06167" lon="4.65166">
        <ele>264</ele>
        <time>2016-10-04T09:20:55Z</time>
      </trkpt>
      <trkpt lat="46.06172" lon="4.65161">
        <ele>264</ele>
        <time>2016-10-04T09:20:56Z</time>
      </trkpt>
      <trkpt lat="46.06176" lon="4.65158">
        <ele>264</ele>
        <time>2016-10-04T09:20:57Z</time>
      </trkpt>
      <trkpt lat="46.06181" lon="4.65156">
        <ele>264</ele>
        <time>2016-10-04T09:20:58Z</time>
      </trkpt>
      <trkpt lat="46.06186" lon="4.65156">
        <ele>264</ele>
        <time>2016-10-04T09:20:59Z</time>
      </trkpt>
      <trkpt lat="46.06191" lon="4.65155">
        <ele>264</ele>
        <time>2016-10-04T09:21:00Z</time>
      </trkpt>
      <trkpt lat="46.06196" lon="4.65155">
        <ele>264</ele>
        <time>2016-10-04T09:21:01Z</time>
      </trkpt>
      <trkpt lat="46.062" lon="4.65154">
        <ele>264</ele>
        <time>2016-10-04T09:21:02Z</time>
      </trkpt>
      <trkpt lat="46.06206" lon="4.65154">
        <ele>264</ele>
        <time>2016-10-04T09:21:03Z</time>
      </trkpt>
      <trkpt lat="46.06211" lon="4.65154">
        <ele>264</ele>
        <time>2016-10-04T09:21:04Z</time>
      </trkpt>
      <trkpt lat="46.06216" lon="4.65154">
        <ele>264</ele>
        <time>2016-10-04T09:21:05Z</time>
      </trkpt>
      <trkpt lat="46.06221" lon="4.65154">
        <ele>264</ele>
        <time>2016-10-04T09:21:06Z</time>
      </trkpt>
      <trkpt lat="46.06226" lon="4.65152">
        <ele>264</ele>
        <time>2016-10-04T09:21:07Z</time>
      </trkpt>
      <trkpt lat="46.06231" lon="4.6515">
        <ele>263</ele>
        <time>2016-10-04T09:21:08Z</time>
      </trkpt>
      <trkpt lat="46.06236" lon="4.65148">
        <ele>263</ele>
        <time>2016-10-04T09:21:09Z</time>
      </trkpt>
      <trkpt lat="46.06244" lon="4.65148">
        <ele>263</ele>
        <time>2016-10-04T09:21:11Z</time>
      </trkpt>
      <trkpt lat="46.06249" lon="4.65146">
        <ele>263</ele>
        <time>2016-10-04T09:21:12Z</time>
      </trkpt>
      <trkpt lat="46.06253" lon="4.65144">
        <ele>263</ele>
        <time>2016-10-04T09:21:13Z</time>
      </trkpt>
      <trkpt lat="46.06258" lon="4.65142">
        <ele>263</ele>
        <time>2016-10-04T09:21:14Z</time>
      </trkpt>
      <trkpt lat="46.06262" lon="4.65139">
        <ele>263</ele>
        <time>2016-10-04T09:21:15Z</time>
      </trkpt>
      <trkpt lat="46.06267" lon="4.65137">
        <ele>263</ele>
        <time>2016-10-04T09:21:16Z</time>
      </trkpt>
      <trkpt lat="46.06272" lon="4.65135">
        <ele>263</ele>
        <time>2016-10-04T09:21:17Z</time>
      </trkpt>
      <trkpt lat="46.06276" lon="4.65133">
        <ele>264</ele>
        <time>2016-10-04T09:21:18Z</time>
      </trkpt>
      <trkpt lat="46.06281" lon="4.65131">
        <ele>264</ele>
        <time>2016-10-04T09:21:19Z</time>
      </trkpt>
      <trkpt lat="46.06286" lon="4.65129">
        <ele>264</ele>
        <time>2016-10-04T09:21:20Z</time>
      </trkpt>
      <trkpt lat="46.06291" lon="4.65126">
        <ele>264</ele>
        <time>2016-10-04T09:21:21Z</time>
      </trkpt>
      <trkpt lat="46.06295" lon="4.65127">
        <ele>264</ele>
        <time>2016-10-04T09:21:22Z</time>
      </trkpt>
      <trkpt lat="46.06301" lon="4.65127">
        <ele>264</ele>
        <time>2016-10-04T09:21:23Z</time>
      </trkpt>
      <trkpt lat="46.06306" lon="4.65128">
        <ele>264</ele>
        <time>2016-10-04T09:21:24Z</time>
      </trkpt>
      <trkpt lat="46.06313" lon="4.65131">
        <ele>264</ele>
        <time>2016-10-04T09:21:25Z</time>
      </trkpt>
      <trkpt lat="46.06318" lon="4.6513">
        <ele>264</ele>
        <time>2016-10-04T09:21:26Z</time>
      </trkpt>
      <trkpt lat="46.06324" lon="4.65128">
        <ele>264</ele>
        <time>2016-10-04T09:21:27Z</time>
      </trkpt>
      <trkpt lat="46.06327" lon="4.65124">
        <ele>264</ele>
        <time>2016-10-04T09:21:28Z</time>
      </trkpt>
      <trkpt lat="46.06332" lon="4.65122">
        <ele>264</ele>
        <time>2016-10-04T09:21:29Z</time>
      </trkpt>
      <trkpt lat="46.06337" lon="4.65121">
        <ele>264</ele>
        <time>2016-10-04T09:21:30Z</time>
      </trkpt>
      <trkpt lat="46.06341" lon="4.65118">
        <ele>264</ele>
        <time>2016-10-04T09:21:31Z</time>
      </trkpt>
      <trkpt lat="46.06346" lon="4.65118">
        <ele>264</ele>
        <time>2016-10-04T09:21:32Z</time>
      </trkpt>
      <trkpt lat="46.0635" lon="4.65117">
        <ele>264</ele>
        <time>2016-10-04T09:21:33Z</time>
      </trkpt>
      <trkpt lat="46.06355" lon="4.65117">
        <ele>264</ele>
        <time>2016-10-04T09:21:34Z</time>
      </trkpt>
      <trkpt lat="46.0636" lon="4.65116">
        <ele>264</ele>
        <time>2016-10-04T09:21:35Z</time>
      </trkpt>
      <trkpt lat="46.06365" lon="4.65115">
        <ele>264</ele>
        <time>2016-10-04T09:21:36Z</time>
      </trkpt>
      <trkpt lat="46.0637" lon="4.65114">
        <ele>264</ele>
        <time>2016-10-04T09:21:37Z</time>
      </trkpt>
      <trkpt lat="46.06375" lon="4.65113">
        <ele>264</ele>
        <time>2016-10-04T09:21:38Z</time>
      </trkpt>
      <trkpt lat="46.0638" lon="4.65112">
        <ele>264</ele>
        <time>2016-10-04T09:21:39Z</time>
      </trkpt>
      <trkpt lat="46.06385" lon="4.65112">
        <ele>264</ele>
        <time>2016-10-04T09:21:40Z</time>
      </trkpt>
      <trkpt lat="46.06391" lon="4.6511">
        <ele>264</ele>
        <time>2016-10-04T09:21:41Z</time>
      </trkpt>
      <trkpt lat="46.06396" lon="4.6511">
        <ele>264</ele>
        <time>2016-10-04T09:21:42Z</time>
      </trkpt>
      <trkpt lat="46.06402" lon="4.65109">
        <ele>264</ele>
        <time>2016-10-04T09:21:43Z</time>
      </trkpt>
      <trkpt lat="46.06407" lon="4.65109">
        <ele>264</ele>
        <time>2016-10-04T09:21:44Z</time>
      </trkpt>
      <trkpt lat="46.06413" lon="4.65108">
        <ele>264</ele>
        <time>2016-10-04T09:21:45Z</time>
      </trkpt>
      <trkpt lat="46.06418" lon="4.65107">
        <ele>264</ele>
        <time>2016-10-04T09:21:46Z</time>
      </trkpt>
      <trkpt lat="46.06424" lon="4.65106">
        <ele>264</ele>
        <time>2016-10-04T09:21:47Z</time>
      </trkpt>
      <trkpt lat="46.06429" lon="4.65105">
        <ele>264</ele>
        <time>2016-10-04T09:21:48Z</time>
      </trkpt>
      <trkpt lat="46.06435" lon="4.65104">
        <ele>264</ele>
        <time>2016-10-04T09:21:49Z</time>
      </trkpt>
      <trkpt lat="46.06439" lon="4.65104">
        <ele>264</ele>
        <time>2016-10-04T09:21:50Z</time>
      </trkpt>
      <trkpt lat="46.06444" lon="4.65103">
        <ele>264</ele>
        <time>2016-10-04T09:21:51Z</time>
      </trkpt>
      <trkpt lat="46.06449" lon="4.65101">
        <ele>264</ele>
        <time>2016-10-04T09:21:52Z</time>
      </trkpt>
      <trkpt lat="46.06454" lon="4.65099">
        <ele>264</ele>
        <time>2016-10-04T09:21:53Z</time>
      </trkpt>
      <trkpt lat="46.06459" lon="4.65099">
        <ele>264</ele>
        <time>2016-10-04T09:21:54Z</time>
      </trkpt>
      <trkpt lat="46.06464" lon="4.65098">
        <ele>264</ele>
        <time>2016-10-04T09:21:55Z</time>
      </trkpt>
      <trkpt lat="46.06469" lon="4.65097">
        <ele>264</ele>
        <time>2016-10-04T09:21:56Z</time>
      </trkpt>
      <trkpt lat="46.06474" lon="4.65096">
        <ele>264</ele>
        <time>2016-10-04T09:21:57Z</time>
      </trkpt>
      <trkpt lat="46.06479" lon="4.65095">
        <ele>264</ele>
        <time>2016-10-04T09:21:58Z</time>
      </trkpt>
      <trkpt lat="46.06485" lon="4.65095">
        <ele>264</ele>
        <time>2016-10-04T09:21:59Z</time>
      </trkpt>
      <trkpt lat="46.0649" lon="4.65095">
        <ele>264</ele>
        <time>2016-10-04T09:22:00Z</time>
      </trkpt>
      <trkpt lat="46.06496" lon="4.65094">
        <ele>264</ele>
        <time>2016-10-04T09:22:01Z</time>
      </trkpt>
      <trkpt lat="46.06503" lon="4.65094">
        <ele>264</ele>
        <time>2016-10-04T09:22:02Z</time>
      </trkpt>
      <trkpt lat="46.06509" lon="4.65093">
        <ele>264</ele>
        <time>2016-10-04T09:22:03Z</time>
      </trkpt>
      <trkpt lat="46.06515" lon="4.65091">
        <ele>264</ele>
        <time>2016-10-04T09:22:04Z</time>
      </trkpt>
      <trkpt lat="46.0652" lon="4.6509">
        <ele>264</ele>
        <time>2016-10-04T09:22:05Z</time>
      </trkpt>
      <trkpt lat="46.06525" lon="4.65089">
        <ele>264</ele>
        <time>2016-10-04T09:22:06Z</time>
      </trkpt>
      <trkpt lat="46.06531" lon="4.65089">
        <ele>264</ele>
        <time>2016-10-04T09:22:07Z</time>
      </trkpt>
      <trkpt lat="46.06535" lon="4.65089">
        <ele>264</ele>
        <time>2016-10-04T09:22:08Z</time>
      </trkpt>
      <trkpt lat="46.0654" lon="4.65087">
        <ele>264</ele>
        <time>2016-10-04T09:22:09Z</time>
      </trkpt>
      <trkpt lat="46.06544" lon="4.65084">
        <ele>264</ele>
        <time>2016-10-04T09:22:10Z</time>
      </trkpt>
      <trkpt lat="46.06549" lon="4.65081">
        <ele>266</ele>
        <time>2016-10-04T09:22:11Z</time>
      </trkpt>
      <trkpt lat="46.06554" lon="4.65079">
        <ele>266</ele>
        <time>2016-10-04T09:22:12Z</time>
      </trkpt>
      <trkpt lat="46.06559" lon="4.65077">
        <ele>266</ele>
        <time>2016-10-04T09:22:13Z</time>
      </trkpt>
      <trkpt lat="46.06564" lon="4.65074">
        <ele>266</ele>
        <time>2016-10-04T09:22:14Z</time>
      </trkpt>
      <trkpt lat="46.0657" lon="4.65071">
        <ele>266</ele>
        <time>2016-10-04T09:22:15Z</time>
      </trkpt>
      <trkpt lat="46.06574" lon="4.65067">
        <ele>266</ele>
        <time>2016-10-04T09:22:16Z</time>
      </trkpt>
      <trkpt lat="46.06579" lon="4.65064">
        <ele>266</ele>
        <time>2016-10-04T09:22:17Z</time>
      </trkpt>
      <trkpt lat="46.06585" lon="4.6506">
        <ele>267</ele>
        <time>2016-10-04T09:22:18Z</time>
      </trkpt>
      <trkpt lat="46.0659" lon="4.65057">
        <ele>267</ele>
        <time>2016-10-04T09:22:19Z</time>
      </trkpt>
      <trkpt lat="46.06595" lon="4.65053">
        <ele>267</ele>
        <time>2016-10-04T09:22:20Z</time>
      </trkpt>
      <trkpt lat="46.066" lon="4.6505">
        <ele>267</ele>
        <time>2016-10-04T09:22:21Z</time>
      </trkpt>
      <trkpt lat="46.06605" lon="4.65047">
        <ele>267</ele>
        <time>2016-10-04T09:22:22Z</time>
      </trkpt>
      <trkpt lat="46.0661" lon="4.65044">
        <ele>267</ele>
        <time>2016-10-04T09:22:23Z</time>
      </trkpt>
      <trkpt lat="46.06615" lon="4.65041">
        <ele>267</ele>
        <time>2016-10-04T09:22:24Z</time>
      </trkpt>
      <trkpt lat="46.0662" lon="4.65038">
        <ele>268</ele>
        <time>2016-10-04T09:22:25Z</time>
      </trkpt>
      <trkpt lat="46.06625" lon="4.65036">
        <ele>268</ele>
        <time>2016-10-04T09:22:26Z</time>
      </trkpt>
      <trkpt lat="46.0663" lon="4.65035">
        <ele>268</ele>
        <time>2016-10-04T09:22:27Z</time>
      </trkpt>
      <trkpt lat="46.06635" lon="4.65034">
        <ele>268</ele>
        <time>2016-10-04T09:22:28Z</time>
      </trkpt>
      <trkpt lat="46.06641" lon="4.65029">
        <ele>268</ele>
        <time>2016-10-04T09:22:30Z</time>
      </trkpt>
      <trkpt lat="46.06646" lon="4.65029">
        <ele>268</ele>
        <time>2016-10-04T09:22:31Z</time>
      </trkpt>
      <trkpt lat="46.06649" lon="4.65024">
        <ele>268</ele>
        <time>2016-10-04T09:22:32Z</time>
      </trkpt>
      <trkpt lat="46.06653" lon="4.6502">
        <ele>268</ele>
        <time>2016-10-04T09:22:33Z</time>
      </trkpt>
      <trkpt lat="46.06657" lon="4.65015">
        <ele>269</ele>
        <time>2016-10-04T09:22:34Z</time>
      </trkpt>
      <trkpt lat="46.0666" lon="4.65009">
        <ele>269</ele>
        <time>2016-10-04T09:22:35Z</time>
      </trkpt>
      <trkpt lat="46.06665" lon="4.65005">
        <ele>270</ele>
        <time>2016-10-04T09:22:36Z</time>
      </trkpt>
      <trkpt lat="46.06669" lon="4.65">
        <ele>270</ele>
        <time>2016-10-04T09:22:37Z</time>
      </trkpt>
      <trkpt lat="46.06673" lon="4.64995">
        <ele>271</ele>
        <time>2016-10-04T09:22:38Z</time>
      </trkpt>
      <trkpt lat="46.06676" lon="4.64991">
        <ele>271</ele>
        <time>2016-10-04T09:22:39Z</time>
      </trkpt>
      <trkpt lat="46.06683" lon="4.64992">
        <ele>271</ele>
        <time>2016-10-04T09:22:40Z</time>
      </trkpt>
      <trkpt lat="46.06689" lon="4.64993">
        <ele>272</ele>
        <time>2016-10-04T09:22:41Z</time>
      </trkpt>
      <trkpt lat="46.06694" lon="4.64993">
        <ele>272</ele>
        <time>2016-10-04T09:22:42Z</time>
      </trkpt>
      <trkpt lat="46.06699" lon="4.64993">
        <ele>272</ele>
        <time>2016-10-04T09:22:43Z</time>
      </trkpt>
      <trkpt lat="46.06703" lon="4.64989">
        <ele>272</ele>
        <time>2016-10-04T09:22:44Z</time>
      </trkpt>
      <trkpt lat="46.06706" lon="4.64986">
        <ele>272</ele>
        <time>2016-10-04T09:22:45Z</time>
      </trkpt>
      <trkpt lat="46.06714" lon="4.64981">
        <ele>273</ele>
        <time>2016-10-04T09:22:47Z</time>
      </trkpt>
      <trkpt lat="46.06719" lon="4.64978">
        <ele>273</ele>
        <time>2016-10-04T09:22:48Z</time>
      </trkpt>
      <trkpt lat="46.06723" lon="4.64975">
        <ele>273</ele>
        <time>2016-10-04T09:22:49Z</time>
      </trkpt>
      <trkpt lat="46.06728" lon="4.64973">
        <ele>273</ele>
        <time>2016-10-04T09:22:50Z</time>
      </trkpt>
      <trkpt lat="46.06735" lon="4.64969">
        <ele>273</ele>
        <time>2016-10-04T09:22:52Z</time>
      </trkpt>
      <trkpt lat="46.0674" lon="4.6497">
        <ele>273</ele>
        <time>2016-10-04T09:22:53Z</time>
      </trkpt>
      <trkpt lat="46.06744" lon="4.64961">
        <ele>273</ele>
        <time>2016-10-04T09:22:55Z</time>
      </trkpt>
      <trkpt lat="46.06746" lon="4.64956">
        <ele>273</ele>
        <time>2016-10-04T09:22:56Z</time>
      </trkpt>
      <trkpt lat="46.06754" lon="4.64949">
        <ele>274</ele>
        <time>2016-10-04T09:22:58Z</time>
      </trkpt>
      <trkpt lat="46.06758" lon="4.64947">
        <ele>274</ele>
        <time>2016-10-04T09:22:59Z</time>
      </trkpt>
      <trkpt lat="46.06762" lon="4.64944">
        <ele>274</ele>
        <time>2016-10-04T09:23:00Z</time>
      </trkpt>
      <trkpt lat="46.06766" lon="4.64941">
        <ele>274</ele>
        <time>2016-10-04T09:23:01Z</time>
      </trkpt>
      <trkpt lat="46.0677" lon="4.64938">
        <ele>274</ele>
        <time>2016-10-04T09:23:02Z</time>
      </trkpt>
      <trkpt lat="46.06774" lon="4.64937">
        <ele>274</ele>
        <time>2016-10-04T09:23:03Z</time>
      </trkpt>
      <trkpt lat="46.0678" lon="4.64934">
        <ele>273</ele>
        <time>2016-10-04T09:23:04Z</time>
      </trkpt>
      <trkpt lat="46.06785" lon="4.64931">
        <ele>273</ele>
        <time>2016-10-04T09:23:05Z</time>
      </trkpt>
      <trkpt lat="46.06789" lon="4.64928">
        <ele>273</ele>
        <time>2016-10-04T09:23:06Z</time>
      </trkpt>
      <trkpt lat="46.06793" lon="4.64925">
        <ele>273</ele>
        <time>2016-10-04T09:23:07Z</time>
      </trkpt>
      <trkpt lat="46.068" lon="4.64921">
        <ele>273</ele>
        <time>2016-10-04T09:23:09Z</time>
      </trkpt>
      <trkpt lat="46.06804" lon="4.64922">
        <ele>273</ele>
        <time>2016-10-04T09:23:10Z</time>
      </trkpt>
      <trkpt lat="46.06811" lon="4.64929">
        <ele>273</ele>
        <time>2016-10-04T09:23:12Z</time>
      </trkpt>
      <trkpt lat="46.06815" lon="4.64933">
        <ele>273</ele>
        <time>2016-10-04T09:23:13Z</time>
      </trkpt>
      <trkpt lat="46.0682" lon="4.6494">
        <ele>273</ele>
        <time>2016-10-04T09:23:14Z</time>
      </trkpt>
      <trkpt lat="46.06824" lon="4.64942">
        <ele>273</ele>
        <time>2016-10-04T09:23:15Z</time>
      </trkpt>
      <trkpt lat="46.06831" lon="4.64938">
        <ele>273</ele>
        <time>2016-10-04T09:23:17Z</time>
      </trkpt>
      <trkpt lat="46.06833" lon="4.64934">
        <ele>273</ele>
        <time>2016-10-04T09:23:18Z</time>
      </trkpt>
      <trkpt lat="46.06836" lon="4.64928">
        <ele>272</ele>
        <time>2016-10-04T09:23:19Z</time>
      </trkpt>
      <trkpt lat="46.06839" lon="4.64922">
        <ele>273</ele>
        <time>2016-10-04T09:23:20Z</time>
      </trkpt>
      <trkpt lat="46.06843" lon="4.64918">
        <ele>272</ele>
        <time>2016-10-04T09:23:21Z</time>
      </trkpt>
      <trkpt lat="46.06847" lon="4.64915">
        <ele>274</ele>
        <time>2016-10-04T09:23:22Z</time>
      </trkpt>
      <trkpt lat="46.06851" lon="4.64912">
        <ele>274</ele>
        <time>2016-10-04T09:23:23Z</time>
      </trkpt>
      <trkpt lat="46.06855" lon="4.6491">
        <ele>274</ele>
        <time>2016-10-04T09:23:24Z</time>
      </trkpt>
      <trkpt lat="46.0686" lon="4.64907">
        <ele>274</ele>
        <time>2016-10-04T09:23:25Z</time>
      </trkpt>
      <trkpt lat="46.06864" lon="4.64903">
        <ele>274</ele>
        <time>2016-10-04T09:23:26Z</time>
      </trkpt>
      <trkpt lat="46.06869" lon="4.649">
        <ele>274</ele>
        <time>2016-10-04T09:23:27Z</time>
      </trkpt>
      <trkpt lat="46.06873" lon="4.64896">
        <ele>274</ele>
        <time>2016-10-04T09:23:28Z</time>
      </trkpt>
      <trkpt lat="46.06877" lon="4.64891">
        <ele>274</ele>
        <time>2016-10-04T09:23:29Z</time>
      </trkpt>
      <trkpt lat="46.06883" lon="4.64891">
        <ele>274</ele>
        <time>2016-10-04T09:23:30Z</time>
      </trkpt>
      <trkpt lat="46.06891" lon="4.6489">
        <ele>274</ele>
        <time>2016-10-04T09:23:32Z</time>
      </trkpt>
      <trkpt lat="46.06895" lon="4.64889">
        <ele>274</ele>
        <time>2016-10-04T09:23:33Z</time>
      </trkpt>
      <trkpt lat="46.06903" lon="4.64884">
        <ele>274</ele>
        <time>2016-10-04T09:23:35Z</time>
      </trkpt>
      <trkpt lat="46.06907" lon="4.64881">
        <ele>274</ele>
        <time>2016-10-04T09:23:36Z</time>
      </trkpt>
      <trkpt lat="46.06915" lon="4.64876">
        <ele>274</ele>
        <time>2016-10-04T09:23:38Z</time>
      </trkpt>
      <trkpt lat="46.06919" lon="4.64874">
        <ele>273</ele>
        <time>2016-10-04T09:23:39Z</time>
      </trkpt>
      <trkpt lat="46.06926" lon="4.64868">
        <ele>273</ele>
        <time>2016-10-04T09:23:41Z</time>
      </trkpt>
      <trkpt lat="46.0693" lon="4.64865">
        <ele>273</ele>
        <time>2016-10-04T09:23:42Z</time>
      </trkpt>
      <trkpt lat="46.06938" lon="4.64859">
        <ele>273</ele>
        <time>2016-10-04T09:23:44Z</time>
      </trkpt>
      <trkpt lat="46.06941" lon="4.64856">
        <ele>273</ele>
        <time>2016-10-04T09:23:45Z</time>
      </trkpt>
      <trkpt lat="46.06945" lon="4.64851">
        <ele>273</ele>
        <time>2016-10-04T09:23:46Z</time>
      </trkpt>
      <trkpt lat="46.0695" lon="4.64848">
        <ele>273</ele>
        <time>2016-10-04T09:23:47Z</time>
      </trkpt>
      <trkpt lat="46.06954" lon="4.64844">
        <ele>273</ele>
        <time>2016-10-04T09:23:48Z</time>
      </trkpt>
      <trkpt lat="46.06959" lon="4.64842">
        <ele>273</ele>
        <time>2016-10-04T09:23:49Z</time>
      </trkpt>
      <trkpt lat="46.06964" lon="4.64838">
        <ele>273</ele>
        <time>2016-10-04T09:23:50Z</time>
      </trkpt>
      <trkpt lat="46.06968" lon="4.64832">
        <ele>275</ele>
        <time>2016-10-04T09:23:51Z</time>
      </trkpt>
      <trkpt lat="46.06975" lon="4.64831">
        <ele>275</ele>
        <time>2016-10-04T09:23:52Z</time>
      </trkpt>
      <trkpt lat="46.0698" lon="4.64829">
        <ele>275</ele>
        <time>2016-10-04T09:23:53Z</time>
      </trkpt>
      <trkpt lat="46.06987" lon="4.64827">
        <ele>274</ele>
        <time>2016-10-04T09:23:54Z</time>
      </trkpt>
      <trkpt lat="46.06992" lon="4.64825">
        <ele>274</ele>
        <time>2016-10-04T09:23:55Z</time>
      </trkpt>
      <trkpt lat="46.06998" lon="4.64824">
        <ele>274</ele>
        <time>2016-10-04T09:23:56Z</time>
      </trkpt>
      <trkpt lat="46.07002" lon="4.64822">
        <ele>273</ele>
        <time>2016-10-04T09:23:57Z</time>
      </trkpt>
      <trkpt lat="46.07007" lon="4.64821">
        <ele>273</ele>
        <time>2016-10-04T09:23:58Z</time>
      </trkpt>
      <trkpt lat="46.07011" lon="4.64819">
        <ele>273</ele>
        <time>2016-10-04T09:23:59Z</time>
      </trkpt>
      <trkpt lat="46.07016" lon="4.64817">
        <ele>273</ele>
        <time>2016-10-04T09:24:00Z</time>
      </trkpt>
      <trkpt lat="46.07021" lon="4.64816">
        <ele>273</ele>
        <time>2016-10-04T09:24:01Z</time>
      </trkpt>
      <trkpt lat="46.07025" lon="4.64812">
        <ele>273</ele>
        <time>2016-10-04T09:24:02Z</time>
      </trkpt>
      <trkpt lat="46.07029" lon="4.64808">
        <ele>274</ele>
        <time>2016-10-04T09:24:03Z</time>
      </trkpt>
      <trkpt lat="46.07035" lon="4.64806">
        <ele>273</ele>
        <time>2016-10-04T09:24:04Z</time>
      </trkpt>
      <trkpt lat="46.0704" lon="4.64805">
        <ele>273</ele>
        <time>2016-10-04T09:24:05Z</time>
      </trkpt>
      <trkpt lat="46.07046" lon="4.64803">
        <ele>273</ele>
        <time>2016-10-04T09:24:06Z</time>
      </trkpt>
      <trkpt lat="46.07052" lon="4.64802">
        <ele>273</ele>
        <time>2016-10-04T09:24:07Z</time>
      </trkpt>
      <trkpt lat="46.07057" lon="4.64802">
        <ele>273</ele>
        <time>2016-10-04T09:24:08Z</time>
      </trkpt>
      <trkpt lat="46.07062" lon="4.64801">
        <ele>273</ele>
        <time>2016-10-04T09:24:09Z</time>
      </trkpt>
      <trkpt lat="46.07067" lon="4.64801">
        <ele>273</ele>
        <time>2016-10-04T09:24:10Z</time>
      </trkpt>
      <trkpt lat="46.07072" lon="4.64801">
        <ele>273</ele>
        <time>2016-10-04T09:24:11Z</time>
      </trkpt>
      <trkpt lat="46.07077" lon="4.64799">
        <ele>273</ele>
        <time>2016-10-04T09:24:12Z</time>
      </trkpt>
      <trkpt lat="46.07083" lon="4.64798">
        <ele>273</ele>
        <time>2016-10-04T09:24:13Z</time>
      </trkpt>
      <trkpt lat="46.07088" lon="4.64797">
        <ele>271</ele>
        <time>2016-10-04T09:24:14Z</time>
      </trkpt>
      <trkpt lat="46.07094" lon="4.64796">
        <ele>271</ele>
        <time>2016-10-04T09:24:15Z</time>
      </trkpt>
      <trkpt lat="46.07099" lon="4.64795">
        <ele>271</ele>
        <time>2016-10-04T09:24:16Z</time>
      </trkpt>
      <trkpt lat="46.07103" lon="4.64797">
        <ele>271</ele>
        <time>2016-10-04T09:24:17Z</time>
      </trkpt>
      <trkpt lat="46.07109" lon="4.64797">
        <ele>271</ele>
        <time>2016-10-04T09:24:18Z</time>
      </trkpt>
      <trkpt lat="46.07114" lon="4.64796">
        <ele>271</ele>
        <time>2016-10-04T09:24:19Z</time>
      </trkpt>
      <trkpt lat="46.07119" lon="4.64795">
        <ele>271</ele>
        <time>2016-10-04T09:24:20Z</time>
      </trkpt>
      <trkpt lat="46.07124" lon="4.64793">
        <ele>271</ele>
        <time>2016-10-04T09:24:21Z</time>
      </trkpt>
      <trkpt lat="46.07129" lon="4.64791">
        <ele>271</ele>
        <time>2016-10-04T09:24:22Z</time>
      </trkpt>
      <trkpt lat="46.07134" lon="4.64792">
        <ele>271</ele>
        <time>2016-10-04T09:24:23Z</time>
      </trkpt>
      <trkpt lat="46.0714" lon="4.64791">
        <ele>271</ele>
        <time>2016-10-04T09:24:24Z</time>
      </trkpt>
      <trkpt lat="46.07145" lon="4.64789">
        <ele>271</ele>
        <time>2016-10-04T09:24:25Z</time>
      </trkpt>
      <trkpt lat="46.0715" lon="4.64787">
        <ele>271</ele>
        <time>2016-10-04T09:24:26Z</time>
      </trkpt>
      <trkpt lat="46.07155" lon="4.64784">
        <ele>271</ele>
        <time>2016-10-04T09:24:27Z</time>
      </trkpt>
      <trkpt lat="46.07161" lon="4.64781">
        <ele>271</ele>
        <time>2016-10-04T09:24:28Z</time>
      </trkpt>
      <trkpt lat="46.07166" lon="4.64779">
        <ele>271</ele>
        <time>2016-10-04T09:24:29Z</time>
      </trkpt>
      <trkpt lat="46.07172" lon="4.64778">
        <ele>270</ele>
        <time>2016-10-04T09:24:30Z</time>
      </trkpt>
      <trkpt lat="46.07178" lon="4.64775">
        <ele>270</ele>
        <time>2016-10-04T09:24:31Z</time>
      </trkpt>
      <trkpt lat="46.07183" lon="4.64773">
        <ele>270</ele>
        <time>2016-10-04T09:24:32Z</time>
      </trkpt>
      <trkpt lat="46.07188" lon="4.64771">
        <ele>270</ele>
        <time>2016-10-04T09:24:33Z</time>
      </trkpt>
      <trkpt lat="46.07193" lon="4.64769">
        <ele>270</ele>
        <time>2016-10-04T09:24:34Z</time>
      </trkpt>
      <trkpt lat="46.07199" lon="4.64767">
        <ele>270</ele>
        <time>2016-10-04T09:24:35Z</time>
      </trkpt>
      <trkpt lat="46.07204" lon="4.64766">
        <ele>270</ele>
        <time>2016-10-04T09:24:36Z</time>
      </trkpt>
      <trkpt lat="46.07209" lon="4.64764">
        <ele>270</ele>
        <time>2016-10-04T09:24:37Z</time>
      </trkpt>
      <trkpt lat="46.07214" lon="4.64763">
        <ele>270</ele>
        <time>2016-10-04T09:24:38Z</time>
      </trkpt>
      <trkpt lat="46.07219" lon="4.64761">
        <ele>270</ele>
        <time>2016-10-04T09:24:39Z</time>
      </trkpt>
      <trkpt lat="46.07224" lon="4.6476">
        <ele>270</ele>
        <time>2016-10-04T09:24:40Z</time>
      </trkpt>
      <trkpt lat="46.0723" lon="4.64758">
        <ele>270</ele>
        <time>2016-10-04T09:24:41Z</time>
      </trkpt>
      <trkpt lat="46.07235" lon="4.64757">
        <ele>270</ele>
        <time>2016-10-04T09:24:42Z</time>
      </trkpt>
      <trkpt lat="46.0724" lon="4.64756">
        <ele>270</ele>
        <time>2016-10-04T09:24:43Z</time>
      </trkpt>
      <trkpt lat="46.07245" lon="4.64755">
        <ele>271</ele>
        <time>2016-10-04T09:24:44Z</time>
      </trkpt>
      <trkpt lat="46.07251" lon="4.64754">
        <ele>271</ele>
        <time>2016-10-04T09:24:45Z</time>
      </trkpt>
      <trkpt lat="46.07257" lon="4.6475">
        <ele>271</ele>
        <time>2016-10-04T09:24:46Z</time>
      </trkpt>
      <trkpt lat="46.07262" lon="4.64747">
        <ele>271</ele>
        <time>2016-10-04T09:24:47Z</time>
      </trkpt>
      <trkpt lat="46.07267" lon="4.64746">
        <ele>271</ele>
        <time>2016-10-04T09:24:48Z</time>
      </trkpt>
      <trkpt lat="46.07272" lon="4.64745">
        <ele>271</ele>
        <time>2016-10-04T09:24:49Z</time>
      </trkpt>
      <trkpt lat="46.07277" lon="4.64745">
        <ele>272</ele>
        <time>2016-10-04T09:24:50Z</time>
      </trkpt>
      <trkpt lat="46.07282" lon="4.64747">
        <ele>271</ele>
        <time>2016-10-04T09:24:51Z</time>
      </trkpt>
      <trkpt lat="46.07286" lon="4.64749">
        <ele>271</ele>
        <time>2016-10-04T09:24:52Z</time>
      </trkpt>
      <trkpt lat="46.07291" lon="4.64748">
        <ele>271</ele>
        <time>2016-10-04T09:24:53Z</time>
      </trkpt>
      <trkpt lat="46.07296" lon="4.64747">
        <ele>271</ele>
        <time>2016-10-04T09:24:54Z</time>
      </trkpt>
      <trkpt lat="46.07301" lon="4.64744">
        <ele>271</ele>
        <time>2016-10-04T09:24:55Z</time>
      </trkpt>
      <trkpt lat="46.07307" lon="4.64742">
        <ele>271</ele>
        <time>2016-10-04T09:24:56Z</time>
      </trkpt>
      <trkpt lat="46.07312" lon="4.64741">
        <ele>271</ele>
        <time>2016-10-04T09:24:57Z</time>
      </trkpt>
      <trkpt lat="46.07317" lon="4.6474">
        <ele>271</ele>
        <time>2016-10-04T09:24:58Z</time>
      </trkpt>
      <trkpt lat="46.07322" lon="4.64739">
        <ele>271</ele>
        <time>2016-10-04T09:24:59Z</time>
      </trkpt>
      <trkpt lat="46.07331" lon="4.64742">
        <ele>271</ele>
        <time>2016-10-04T09:25:01Z</time>
      </trkpt>
      <trkpt lat="46.07337" lon="4.64737">
        <ele>271</ele>
        <time>2016-10-04T09:25:02Z</time>
      </trkpt>
      <trkpt lat="46.07343" lon="4.64736">
        <ele>271</ele>
        <time>2016-10-04T09:25:03Z</time>
      </trkpt>
      <trkpt lat="46.07348" lon="4.64733">
        <ele>271</ele>
        <time>2016-10-04T09:25:04Z</time>
      </trkpt>
      <trkpt lat="46.07352" lon="4.64731">
        <ele>271</ele>
        <time>2016-10-04T09:25:05Z</time>
      </trkpt>
      <trkpt lat="46.07356" lon="4.64729">
        <ele>272</ele>
        <time>2016-10-04T09:25:06Z</time>
      </trkpt>
      <trkpt lat="46.07361" lon="4.64727">
        <ele>272</ele>
        <time>2016-10-04T09:25:07Z</time>
      </trkpt>
      <trkpt lat="46.07365" lon="4.64725">
        <ele>272</ele>
        <time>2016-10-04T09:25:08Z</time>
      </trkpt>
      <trkpt lat="46.07373" lon="4.64722">
        <ele>272</ele>
        <time>2016-10-04T09:25:10Z</time>
      </trkpt>
      <trkpt lat="46.07377" lon="4.6472">
        <ele>272</ele>
        <time>2016-10-04T09:25:11Z</time>
      </trkpt>
      <trkpt lat="46.07381" lon="4.6472">
        <ele>272</ele>
        <time>2016-10-04T09:25:12Z</time>
      </trkpt>
      <trkpt lat="46.07386" lon="4.64717">
        <ele>272</ele>
        <time>2016-10-04T09:25:13Z</time>
      </trkpt>
      <trkpt lat="46.07391" lon="4.64714">
        <ele>272</ele>
        <time>2016-10-04T09:25:14Z</time>
      </trkpt>
      <trkpt lat="46.07395" lon="4.64712">
        <ele>272</ele>
        <time>2016-10-04T09:25:15Z</time>
      </trkpt>
      <trkpt lat="46.07403" lon="4.6471">
        <ele>272</ele>
        <time>2016-10-04T09:25:17Z</time>
      </trkpt>
      <trkpt lat="46.07406" lon="4.6471">
        <ele>272</ele>
        <time>2016-10-04T09:25:18Z</time>
      </trkpt>
      <trkpt lat="46.07413" lon="4.64715">
        <ele>272</ele>
        <time>2016-10-04T09:25:20Z</time>
      </trkpt>
      <trkpt lat="46.07417" lon="4.64713">
        <ele>275</ele>
        <time>2016-10-04T09:25:21Z</time>
      </trkpt>
      <trkpt lat="46.07425" lon="4.64711">
        <ele>275</ele>
        <time>2016-10-04T09:25:23Z</time>
      </trkpt>
      <trkpt lat="46.0743" lon="4.6471">
        <ele>275</ele>
        <time>2016-10-04T09:25:24Z</time>
      </trkpt>
      <trkpt lat="46.07437" lon="4.6471">
        <ele>275</ele>
        <time>2016-10-04T09:25:26Z</time>
      </trkpt>
      <trkpt lat="46.0744" lon="4.6471">
        <ele>275</ele>
        <time>2016-10-04T09:25:27Z</time>
      </trkpt>
      <trkpt lat="46.07447" lon="4.6471">
        <ele>275</ele>
        <time>2016-10-04T09:25:29Z</time>
      </trkpt>
      <trkpt lat="46.07451" lon="4.64711">
        <ele>275</ele>
        <time>2016-10-04T09:25:30Z</time>
      </trkpt>
      <trkpt lat="46.07459" lon="4.64713">
        <ele>276</ele>
        <time>2016-10-04T09:25:32Z</time>
      </trkpt>
      <trkpt lat="46.07463" lon="4.64714">
        <ele>276</ele>
        <time>2016-10-04T09:25:33Z</time>
      </trkpt>
      <trkpt lat="46.07468" lon="4.6471">
        <ele>276</ele>
        <time>2016-10-04T09:25:34Z</time>
      </trkpt>
      <trkpt lat="46.07472" lon="4.64708">
        <ele>276</ele>
        <time>2016-10-04T09:25:35Z</time>
      </trkpt>
      <trkpt lat="46.07479" lon="4.64705">
        <ele>277</ele>
        <time>2016-10-04T09:25:37Z</time>
      </trkpt>
      <trkpt lat="46.07484" lon="4.64703">
        <ele>277</ele>
        <time>2016-10-04T09:25:38Z</time>
      </trkpt>
      <trkpt lat="46.07491" lon="4.64701">
        <ele>277</ele>
        <time>2016-10-04T09:25:40Z</time>
      </trkpt>
      <trkpt lat="46.07494" lon="4.647">
        <ele>277</ele>
        <time>2016-10-04T09:25:41Z</time>
      </trkpt>
      <trkpt lat="46.07502" lon="4.64697">
        <ele>280</ele>
        <time>2016-10-04T09:25:43Z</time>
      </trkpt>
      <trkpt lat="46.07505" lon="4.64695">
        <ele>280</ele>
        <time>2016-10-04T09:25:44Z</time>
      </trkpt>
      <trkpt lat="46.07512" lon="4.64692">
        <ele>280</ele>
        <time>2016-10-04T09:25:46Z</time>
      </trkpt>
      <trkpt lat="46.07516" lon="4.6469">
        <ele>280</ele>
        <time>2016-10-04T09:25:47Z</time>
      </trkpt>
      <trkpt lat="46.07522" lon="4.64687">
        <ele>281</ele>
        <time>2016-10-04T09:25:49Z</time>
      </trkpt>
      <trkpt lat="46.07526" lon="4.64687">
        <ele>281</ele>
        <time>2016-10-04T09:25:50Z</time>
      </trkpt>
      <trkpt lat="46.07532" lon="4.64686">
        <ele>281</ele>
        <time>2016-10-04T09:25:52Z</time>
      </trkpt>
      <trkpt lat="46.07535" lon="4.64684">
        <ele>281</ele>
        <time>2016-10-04T09:25:53Z</time>
      </trkpt>
      <trkpt lat="46.07541" lon="4.64682">
        <ele>281</ele>
        <time>2016-10-04T09:25:55Z</time>
      </trkpt>
      <trkpt lat="46.07544" lon="4.64681">
        <ele>281</ele>
        <time>2016-10-04T09:25:56Z</time>
      </trkpt>
      <trkpt lat="46.07551" lon="4.64679">
        <ele>282</ele>
        <time>2016-10-04T09:25:58Z</time>
      </trkpt>
      <trkpt lat="46.07554" lon="4.64677">
        <ele>282</ele>
        <time>2016-10-04T09:25:59Z</time>
      </trkpt>
      <trkpt lat="46.0756" lon="4.64675">
        <ele>282</ele>
        <time>2016-10-04T09:26:01Z</time>
      </trkpt>
      <trkpt lat="46.07564" lon="4.64674">
        <ele>282</ele>
        <time>2016-10-04T09:26:02Z</time>
      </trkpt>
      <trkpt lat="46.07569" lon="4.64672">
        <ele>283</ele>
        <time>2016-10-04T09:26:04Z</time>
      </trkpt>
      <trkpt lat="46.07573" lon="4.64672">
        <ele>283</ele>
        <time>2016-10-04T09:26:05Z</time>
      </trkpt>
      <trkpt lat="46.07579" lon="4.6467">
        <ele>283</ele>
        <time>2016-10-04T09:26:07Z</time>
      </trkpt>
      <trkpt lat="46.07582" lon="4.64669">
        <ele>284</ele>
        <time>2016-10-04T09:26:08Z</time>
      </trkpt>
      <trkpt lat="46.07589" lon="4.64665">
        <ele>284</ele>
        <time>2016-10-04T09:26:10Z</time>
      </trkpt>
      <trkpt lat="46.07593" lon="4.64664">
        <ele>284</ele>
        <time>2016-10-04T09:26:11Z</time>
      </trkpt>
      <trkpt lat="46.076" lon="4.64661">
        <ele>284</ele>
        <time>2016-10-04T09:26:13Z</time>
      </trkpt>
      <trkpt lat="46.07604" lon="4.64659">
        <ele>284</ele>
        <time>2016-10-04T09:26:14Z</time>
      </trkpt>
      <trkpt lat="46.07612" lon="4.64656">
        <ele>285</ele>
        <time>2016-10-04T09:26:16Z</time>
      </trkpt>
      <trkpt lat="46.07616" lon="4.64654">
        <ele>285</ele>
        <time>2016-10-04T09:26:17Z</time>
      </trkpt>
      <trkpt lat="46.07623" lon="4.64651">
        <ele>285</ele>
        <time>2016-10-04T09:26:19Z</time>
      </trkpt>
      <trkpt lat="46.07628" lon="4.6465">
        <ele>285</ele>
        <time>2016-10-04T09:26:20Z</time>
      </trkpt>
      <trkpt lat="46.07634" lon="4.64647">
        <ele>285</ele>
        <time>2016-10-04T09:26:22Z</time>
      </trkpt>
      <trkpt lat="46.07638" lon="4.64644">
        <ele>285</ele>
        <time>2016-10-04T09:26:23Z</time>
      </trkpt>
      <trkpt lat="46.07645" lon="4.64642">
        <ele>285</ele>
        <time>2016-10-04T09:26:25Z</time>
      </trkpt>
      <trkpt lat="46.07649" lon="4.6464">
        <ele>285</ele>
        <time>2016-10-04T09:26:26Z</time>
      </trkpt>
      <trkpt lat="46.07656" lon="4.64635">
        <ele>285</ele>
        <time>2016-10-04T09:26:28Z</time>
      </trkpt>
      <trkpt lat="46.0766" lon="4.64634">
        <ele>285</ele>
        <time>2016-10-04T09:26:29Z</time>
      </trkpt>
      <trkpt lat="46.07669" lon="4.6463">
        <ele>285</ele>
        <time>2016-10-04T09:26:31Z</time>
      </trkpt>
      <trkpt lat="46.07673" lon="4.64628">
        <ele>285</ele>
        <time>2016-10-04T09:26:32Z</time>
      </trkpt>
      <trkpt lat="46.07682" lon="4.64626">
        <ele>285</ele>
        <time>2016-10-04T09:26:34Z</time>
      </trkpt>
      <trkpt lat="46.07686" lon="4.64624">
        <ele>285</ele>
        <time>2016-10-04T09:26:35Z</time>
      </trkpt>
      <trkpt lat="46.07694" lon="4.64622">
        <ele>285</ele>
        <time>2016-10-04T09:26:37Z</time>
      </trkpt>
      <trkpt lat="46.07699" lon="4.64621">
        <ele>285</ele>
        <time>2016-10-04T09:26:38Z</time>
      </trkpt>
      <trkpt lat="46.07707" lon="4.64619">
        <ele>285</ele>
        <time>2016-10-04T09:26:40Z</time>
      </trkpt>
      <trkpt lat="46.07712" lon="4.64616">
        <ele>285</ele>
        <time>2016-10-04T09:26:41Z</time>
      </trkpt>
      <trkpt lat="46.07716" lon="4.64615">
        <ele>285</ele>
        <time>2016-10-04T09:26:42Z</time>
      </trkpt>
      <trkpt lat="46.07721" lon="4.64613">
        <ele>285</ele>
        <time>2016-10-04T09:26:43Z</time>
      </trkpt>
      <trkpt lat="46.07726" lon="4.64611">
        <ele>286</ele>
        <time>2016-10-04T09:26:44Z</time>
      </trkpt>
      <trkpt lat="46.07731" lon="4.6461">
        <ele>286</ele>
        <time>2016-10-04T09:26:45Z</time>
      </trkpt>
      <trkpt lat="46.07735" lon="4.64609">
        <ele>286</ele>
        <time>2016-10-04T09:26:46Z</time>
      </trkpt>
      <trkpt lat="46.0774" lon="4.64607">
        <ele>286</ele>
        <time>2016-10-04T09:26:47Z</time>
      </trkpt>
      <trkpt lat="46.07744" lon="4.64606">
        <ele>286</ele>
        <time>2016-10-04T09:26:48Z</time>
      </trkpt>
      <trkpt lat="46.07749" lon="4.64604">
        <ele>286</ele>
        <time>2016-10-04T09:26:49Z</time>
      </trkpt>
      <trkpt lat="46.07757" lon="4.64603">
        <ele>285</ele>
        <time>2016-10-04T09:26:51Z</time>
      </trkpt>
      <trkpt lat="46.07761" lon="4.64602">
        <ele>285</ele>
        <time>2016-10-04T09:26:52Z</time>
      </trkpt>
      <trkpt lat="46.07765" lon="4.64599">
        <ele>285</ele>
        <time>2016-10-04T09:26:53Z</time>
      </trkpt>
      <trkpt lat="46.0777" lon="4.64596">
        <ele>285</ele>
        <time>2016-10-04T09:26:54Z</time>
      </trkpt>
      <trkpt lat="46.07775" lon="4.64593">
        <ele>285</ele>
        <time>2016-10-04T09:26:55Z</time>
      </trkpt>
      <trkpt lat="46.0778" lon="4.6459">
        <ele>285</ele>
        <time>2016-10-04T09:26:56Z</time>
      </trkpt>
      <trkpt lat="46.07785" lon="4.64586">
        <ele>285</ele>
        <time>2016-10-04T09:26:57Z</time>
      </trkpt>
      <trkpt lat="46.07791" lon="4.64583">
        <ele>288</ele>
        <time>2016-10-04T09:26:58Z</time>
      </trkpt>
      <trkpt lat="46.07796" lon="4.64584">
        <ele>285</ele>
        <time>2016-10-04T09:26:59Z</time>
      </trkpt>
      <trkpt lat="46.07801" lon="4.64583">
        <ele>287</ele>
        <time>2016-10-04T09:27:00Z</time>
      </trkpt>
      <trkpt lat="46.07806" lon="4.64582">
        <ele>287</ele>
        <time>2016-10-04T09:27:01Z</time>
      </trkpt>
      <trkpt lat="46.07812" lon="4.64581">
        <ele>287</ele>
        <time>2016-10-04T09:27:02Z</time>
      </trkpt>
      <trkpt lat="46.07817" lon="4.64578">
        <ele>287</ele>
        <time>2016-10-04T09:27:03Z</time>
      </trkpt>
      <trkpt lat="46.07822" lon="4.64576">
        <ele>287</ele>
        <time>2016-10-04T09:27:04Z</time>
      </trkpt>
      <trkpt lat="46.07826" lon="4.64574">
        <ele>287</ele>
        <time>2016-10-04T09:27:05Z</time>
      </trkpt>
      <trkpt lat="46.07831" lon="4.64574">
        <ele>287</ele>
        <time>2016-10-04T09:27:06Z</time>
      </trkpt>
      <trkpt lat="46.07836" lon="4.64572">
        <ele>287</ele>
        <time>2016-10-04T09:27:07Z</time>
      </trkpt>
      <trkpt lat="46.0784" lon="4.64571">
        <ele>287</ele>
        <time>2016-10-04T09:27:08Z</time>
      </trkpt>
      <trkpt lat="46.07848" lon="4.64567">
        <ele>287</ele>
        <time>2016-10-04T09:27:10Z</time>
      </trkpt>
      <trkpt lat="46.07852" lon="4.64566">
        <ele>287</ele>
        <time>2016-10-04T09:27:11Z</time>
      </trkpt>
      <trkpt lat="46.07859" lon="4.64563">
        <ele>287</ele>
        <time>2016-10-04T09:27:13Z</time>
      </trkpt>
      <trkpt lat="46.07863" lon="4.64561">
        <ele>287</ele>
        <time>2016-10-04T09:27:14Z</time>
      </trkpt>
      <trkpt lat="46.07869" lon="4.64556">
        <ele>287</ele>
        <time>2016-10-04T09:27:15Z</time>
      </trkpt>
      <trkpt lat="46.07872" lon="4.64554">
        <ele>287</ele>
        <time>2016-10-04T09:27:16Z</time>
      </trkpt>
      <trkpt lat="46.07881" lon="4.64551">
        <ele>287</ele>
        <time>2016-10-04T09:27:18Z</time>
      </trkpt>
      <trkpt lat="46.07885" lon="4.6455">
        <ele>287</ele>
        <time>2016-10-04T09:27:19Z</time>
      </trkpt>
      <trkpt lat="46.07893" lon="4.64549">
        <ele>287</ele>
        <time>2016-10-04T09:27:21Z</time>
      </trkpt>
      <trkpt lat="46.07897" lon="4.64549">
        <ele>287</ele>
        <time>2016-10-04T09:27:22Z</time>
      </trkpt>
      <trkpt lat="46.07905" lon="4.64547">
        <ele>287</ele>
        <time>2016-10-04T09:27:24Z</time>
      </trkpt>
      <trkpt lat="46.07909" lon="4.64544">
        <ele>287</ele>
        <time>2016-10-04T09:27:25Z</time>
      </trkpt>
      <trkpt lat="46.07917" lon="4.64539">
        <ele>287</ele>
        <time>2016-10-04T09:27:27Z</time>
      </trkpt>
      <trkpt lat="46.0792" lon="4.64535">
        <ele>288</ele>
        <time>2016-10-04T09:27:28Z</time>
      </trkpt>
      <trkpt lat="46.07925" lon="4.64533">
        <ele>288</ele>
        <time>2016-10-04T09:27:29Z</time>
      </trkpt>
      <trkpt lat="46.07932" lon="4.64539">
        <ele>287</ele>
        <time>2016-10-04T09:27:30Z</time>
      </trkpt>
      <trkpt lat="46.07938" lon="4.64538">
        <ele>288</ele>
        <time>2016-10-04T09:27:31Z</time>
      </trkpt>
      <trkpt lat="46.07944" lon="4.64535">
        <ele>288</ele>
        <time>2016-10-04T09:27:32Z</time>
      </trkpt>
      <trkpt lat="46.07949" lon="4.64534">
        <ele>288</ele>
        <time>2016-10-04T09:27:33Z</time>
      </trkpt>
      <trkpt lat="46.07954" lon="4.64533">
        <ele>288</ele>
        <time>2016-10-04T09:27:34Z</time>
      </trkpt>
      <trkpt lat="46.07962" lon="4.64531">
        <ele>288</ele>
        <time>2016-10-04T09:27:36Z</time>
      </trkpt>
      <trkpt lat="46.07966" lon="4.6453">
        <ele>288</ele>
        <time>2016-10-04T09:27:37Z</time>
      </trkpt>
      <trkpt lat="46.07975" lon="4.64528">
        <ele>288</ele>
        <time>2016-10-04T09:27:39Z</time>
      </trkpt>
      <trkpt lat="46.07979" lon="4.64528">
        <ele>288</ele>
        <time>2016-10-04T09:27:40Z</time>
      </trkpt>
      <trkpt lat="46.07983" lon="4.64527">
        <ele>288</ele>
        <time>2016-10-04T09:27:41Z</time>
      </trkpt>
      <trkpt lat="46.07988" lon="4.64525">
        <ele>288</ele>
        <time>2016-10-04T09:27:42Z</time>
      </trkpt>
      <trkpt lat="46.07993" lon="4.64523">
        <ele>288</ele>
        <time>2016-10-04T09:27:43Z</time>
      </trkpt>
      <trkpt lat="46.07998" lon="4.64522">
        <ele>289</ele>
        <time>2016-10-04T09:27:44Z</time>
      </trkpt>
      <trkpt lat="46.08002" lon="4.64522">
        <ele>289</ele>
        <time>2016-10-04T09:27:45Z</time>
      </trkpt>
      <trkpt lat="46.08007" lon="4.64521">
        <ele>289</ele>
        <time>2016-10-04T09:27:46Z</time>
      </trkpt>
      <trkpt lat="46.08015" lon="4.64519">
        <ele>289</ele>
        <time>2016-10-04T09:27:48Z</time>
      </trkpt>
      <trkpt lat="46.08019" lon="4.64518">
        <ele>289</ele>
        <time>2016-10-04T09:27:49Z</time>
      </trkpt>
      <trkpt lat="46.08027" lon="4.64514">
        <ele>289</ele>
        <time>2016-10-04T09:27:51Z</time>
      </trkpt>
      <trkpt lat="46.08031" lon="4.64513">
        <ele>289</ele>
        <time>2016-10-04T09:27:52Z</time>
      </trkpt>
      <trkpt lat="46.0804" lon="4.64511">
        <ele>289</ele>
        <time>2016-10-04T09:27:54Z</time>
      </trkpt>
      <trkpt lat="46.08044" lon="4.6451">
        <ele>289</ele>
        <time>2016-10-04T09:27:55Z</time>
      </trkpt>
      <trkpt lat="46.08053" lon="4.64509">
        <ele>289</ele>
        <time>2016-10-04T09:27:57Z</time>
      </trkpt>
      <trkpt lat="46.08057" lon="4.64508">
        <ele>289</ele>
        <time>2016-10-04T09:27:58Z</time>
      </trkpt>
      <trkpt lat="46.08066" lon="4.64505">
        <ele>289</ele>
        <time>2016-10-04T09:28:00Z</time>
      </trkpt>
      <trkpt lat="46.08071" lon="4.64505">
        <ele>290</ele>
        <time>2016-10-04T09:28:01Z</time>
      </trkpt>
      <trkpt lat="46.08075" lon="4.64503">
        <ele>290</ele>
        <time>2016-10-04T09:28:02Z</time>
      </trkpt>
      <trkpt lat="46.0808" lon="4.64501">
        <ele>291</ele>
        <time>2016-10-04T09:28:03Z</time>
      </trkpt>
      <trkpt lat="46.08085" lon="4.64499">
        <ele>291</ele>
        <time>2016-10-04T09:28:04Z</time>
      </trkpt>
      <trkpt lat="46.0809" lon="4.64497">
        <ele>291</ele>
        <time>2016-10-04T09:28:05Z</time>
      </trkpt>
      <trkpt lat="46.08095" lon="4.64496">
        <ele>291</ele>
        <time>2016-10-04T09:28:06Z</time>
      </trkpt>
      <trkpt lat="46.081" lon="4.64495">
        <ele>291</ele>
        <time>2016-10-04T09:28:07Z</time>
      </trkpt>
      <trkpt lat="46.08105" lon="4.64494">
        <ele>292</ele>
        <time>2016-10-04T09:28:08Z</time>
      </trkpt>
      <trkpt lat="46.0811" lon="4.64492">
        <ele>292</ele>
        <time>2016-10-04T09:28:09Z</time>
      </trkpt>
      <trkpt lat="46.08114" lon="4.64491">
        <ele>292</ele>
        <time>2016-10-04T09:28:10Z</time>
      </trkpt>
      <trkpt lat="46.08119" lon="4.6449">
        <ele>291</ele>
        <time>2016-10-04T09:28:11Z</time>
      </trkpt>
      <trkpt lat="46.08123" lon="4.64489">
        <ele>291</ele>
        <time>2016-10-04T09:28:12Z</time>
      </trkpt>
      <trkpt lat="46.08128" lon="4.64487">
        <ele>291</ele>
        <time>2016-10-04T09:28:13Z</time>
      </trkpt>
      <trkpt lat="46.08134" lon="4.64487">
        <ele>291</ele>
        <time>2016-10-04T09:28:14Z</time>
      </trkpt>
      <trkpt lat="46.08138" lon="4.64485">
        <ele>291</ele>
        <time>2016-10-04T09:28:15Z</time>
      </trkpt>
      <trkpt lat="46.08143" lon="4.64484">
        <ele>291</ele>
        <time>2016-10-04T09:28:16Z</time>
      </trkpt>
      <trkpt lat="46.08149" lon="4.64482">
        <ele>291</ele>
        <time>2016-10-04T09:28:17Z</time>
      </trkpt>
      <trkpt lat="46.08154" lon="4.6448">
        <ele>291</ele>
        <time>2016-10-04T09:28:18Z</time>
      </trkpt>
      <trkpt lat="46.08159" lon="4.64478">
        <ele>291</ele>
        <time>2016-10-04T09:28:19Z</time>
      </trkpt>
      <trkpt lat="46.08164" lon="4.64476">
        <ele>291</ele>
        <time>2016-10-04T09:28:20Z</time>
      </trkpt>
      <trkpt lat="46.08169" lon="4.64475">
        <ele>289</ele>
        <time>2016-10-04T09:28:21Z</time>
      </trkpt>
      <trkpt lat="46.08174" lon="4.64474">
        <ele>289</ele>
        <time>2016-10-04T09:28:22Z</time>
      </trkpt>
      <trkpt lat="46.08179" lon="4.64474">
        <ele>289</ele>
        <time>2016-10-04T09:28:23Z</time>
      </trkpt>
      <trkpt lat="46.08184" lon="4.64473">
        <ele>290</ele>
        <time>2016-10-04T09:28:24Z</time>
      </trkpt>
      <trkpt lat="46.08189" lon="4.64471">
        <ele>290</ele>
        <time>2016-10-04T09:28:25Z</time>
      </trkpt>
      <trkpt lat="46.08194" lon="4.64469">
        <ele>290</ele>
        <time>2016-10-04T09:28:26Z</time>
      </trkpt>
      <trkpt lat="46.082" lon="4.64468">
        <ele>290</ele>
        <time>2016-10-04T09:28:27Z</time>
      </trkpt>
      <trkpt lat="46.08205" lon="4.64467">
        <ele>290</ele>
        <time>2016-10-04T09:28:28Z</time>
      </trkpt>
      <trkpt lat="46.0821" lon="4.64465">
        <ele>290</ele>
        <time>2016-10-04T09:28:29Z</time>
      </trkpt>
      <trkpt lat="46.08215" lon="4.64464">
        <ele>290</ele>
        <time>2016-10-04T09:28:30Z</time>
      </trkpt>
      <trkpt lat="46.08221" lon="4.64464">
        <ele>289</ele>
        <time>2016-10-04T09:28:31Z</time>
      </trkpt>
      <trkpt lat="46.08226" lon="4.64464">
        <ele>289</ele>
        <time>2016-10-04T09:28:32Z</time>
      </trkpt>
      <trkpt lat="46.08231" lon="4.64464">
        <ele>289</ele>
        <time>2016-10-04T09:28:33Z</time>
      </trkpt>
      <trkpt lat="46.08236" lon="4.64463">
        <ele>289</ele>
        <time>2016-10-04T09:28:34Z</time>
      </trkpt>
      <trkpt lat="46.08241" lon="4.64463">
        <ele>289</ele>
        <time>2016-10-04T09:28:35Z</time>
      </trkpt>
      <trkpt lat="46.08246" lon="4.64462">
        <ele>289</ele>
        <time>2016-10-04T09:28:36Z</time>
      </trkpt>
      <trkpt lat="46.0825" lon="4.64462">
        <ele>289</ele>
        <time>2016-10-04T09:28:37Z</time>
      </trkpt>
      <trkpt lat="46.08254" lon="4.64461">
        <ele>289</ele>
        <time>2016-10-04T09:28:38Z</time>
      </trkpt>
      <trkpt lat="46.08259" lon="4.64462">
        <ele>289</ele>
        <time>2016-10-04T09:28:39Z</time>
      </trkpt>
      <trkpt lat="46.08264" lon="4.64461">
        <ele>289</ele>
        <time>2016-10-04T09:28:40Z</time>
      </trkpt>
      <trkpt lat="46.08269" lon="4.64461">
        <ele>289</ele>
        <time>2016-10-04T09:28:41Z</time>
      </trkpt>
      <trkpt lat="46.08274" lon="4.64461">
        <ele>289</ele>
        <time>2016-10-04T09:28:42Z</time>
      </trkpt>
      <trkpt lat="46.08279" lon="4.64462">
        <ele>289</ele>
        <time>2016-10-04T09:28:43Z</time>
      </trkpt>
      <trkpt lat="46.08285" lon="4.64464">
        <ele>290</ele>
        <time>2016-10-04T09:28:44Z</time>
      </trkpt>
      <trkpt lat="46.0829" lon="4.64464">
        <ele>290</ele>
        <time>2016-10-04T09:28:45Z</time>
      </trkpt>
      <trkpt lat="46.08295" lon="4.64464">
        <ele>290</ele>
        <time>2016-10-04T09:28:46Z</time>
      </trkpt>
      <trkpt lat="46.083" lon="4.64465">
        <ele>290</ele>
        <time>2016-10-04T09:28:47Z</time>
      </trkpt>
      <trkpt lat="46.08305" lon="4.64466">
        <ele>290</ele>
        <time>2016-10-04T09:28:48Z</time>
      </trkpt>
      <trkpt lat="46.0831" lon="4.64467">
        <ele>290</ele>
        <time>2016-10-04T09:28:49Z</time>
      </trkpt>
      <trkpt lat="46.08314" lon="4.64467">
        <ele>290</ele>
        <time>2016-10-04T09:28:50Z</time>
      </trkpt>
      <trkpt lat="46.08319" lon="4.64468">
        <ele>290</ele>
        <time>2016-10-04T09:28:51Z</time>
      </trkpt>
      <trkpt lat="46.08323" lon="4.6447">
        <ele>290</ele>
        <time>2016-10-04T09:28:52Z</time>
      </trkpt>
      <trkpt lat="46.08328" lon="4.64471">
        <ele>290</ele>
        <time>2016-10-04T09:28:53Z</time>
      </trkpt>
      <trkpt lat="46.08333" lon="4.64473">
        <ele>290</ele>
        <time>2016-10-04T09:28:54Z</time>
      </trkpt>
      <trkpt lat="46.08337" lon="4.64474">
        <ele>292</ele>
        <time>2016-10-04T09:28:55Z</time>
      </trkpt>
      <trkpt lat="46.08342" lon="4.64476">
        <ele>292</ele>
        <time>2016-10-04T09:28:56Z</time>
      </trkpt>
      <trkpt lat="46.08347" lon="4.64479">
        <ele>292</ele>
        <time>2016-10-04T09:28:57Z</time>
      </trkpt>
      <trkpt lat="46.08351" lon="4.64481">
        <ele>292</ele>
        <time>2016-10-04T09:28:58Z</time>
      </trkpt>
      <trkpt lat="46.08356" lon="4.64482">
        <ele>292</ele>
        <time>2016-10-04T09:28:59Z</time>
      </trkpt>
      <trkpt lat="46.0836" lon="4.64484">
        <ele>292</ele>
        <time>2016-10-04T09:29:00Z</time>
      </trkpt>
      <trkpt lat="46.08365" lon="4.64485">
        <ele>292</ele>
        <time>2016-10-04T09:29:01Z</time>
      </trkpt>
      <trkpt lat="46.08374" lon="4.64488">
        <ele>292</ele>
        <time>2016-10-04T09:29:03Z</time>
      </trkpt>
      <trkpt lat="46.08378" lon="4.64489">
        <ele>292</ele>
        <time>2016-10-04T09:29:04Z</time>
      </trkpt>
      <trkpt lat="46.08382" lon="4.64491">
        <ele>292</ele>
        <time>2016-10-04T09:29:05Z</time>
      </trkpt>
      <trkpt lat="46.08387" lon="4.64493">
        <ele>292</ele>
        <time>2016-10-04T09:29:06Z</time>
      </trkpt>
      <trkpt lat="46.08391" lon="4.64495">
        <ele>293</ele>
        <time>2016-10-04T09:29:07Z</time>
      </trkpt>
      <trkpt lat="46.08396" lon="4.64498">
        <ele>293</ele>
        <time>2016-10-04T09:29:08Z</time>
      </trkpt>
      <trkpt lat="46.084" lon="4.645">
        <ele>293</ele>
        <time>2016-10-04T09:29:09Z</time>
      </trkpt>
      <trkpt lat="46.08405" lon="4.64502">
        <ele>292</ele>
        <time>2016-10-04T09:29:10Z</time>
      </trkpt>
      <trkpt lat="46.08409" lon="4.64504">
        <ele>292</ele>
        <time>2016-10-04T09:29:11Z</time>
      </trkpt>
      <trkpt lat="46.08414" lon="4.64506">
        <ele>292</ele>
        <time>2016-10-04T09:29:12Z</time>
      </trkpt>
      <trkpt lat="46.08418" lon="4.64509">
        <ele>292</ele>
        <time>2016-10-04T09:29:13Z</time>
      </trkpt>
      <trkpt lat="46.08423" lon="4.64511">
        <ele>292</ele>
        <time>2016-10-04T09:29:14Z</time>
      </trkpt>
      <trkpt lat="46.08428" lon="4.64513">
        <ele>292</ele>
        <time>2016-10-04T09:29:15Z</time>
      </trkpt>
      <trkpt lat="46.08432" lon="4.64514">
        <ele>292</ele>
        <time>2016-10-04T09:29:16Z</time>
      </trkpt>
      <trkpt lat="46.08436" lon="4.64517">
        <ele>292</ele>
        <time>2016-10-04T09:29:17Z</time>
      </trkpt>
      <trkpt lat="46.08441" lon="4.6452">
        <ele>292</ele>
        <time>2016-10-04T09:29:18Z</time>
      </trkpt>
      <trkpt lat="46.08445" lon="4.64521">
        <ele>292</ele>
        <time>2016-10-04T09:29:19Z</time>
      </trkpt>
      <trkpt lat="46.0845" lon="4.64522">
        <ele>292</ele>
        <time>2016-10-04T09:29:20Z</time>
      </trkpt>
      <trkpt lat="46.08458" lon="4.64525">
        <ele>292</ele>
        <time>2016-10-04T09:29:22Z</time>
      </trkpt>
      <trkpt lat="46.08462" lon="4.64526">
        <ele>292</ele>
        <time>2016-10-04T09:29:23Z</time>
      </trkpt>
      <trkpt lat="46.0847" lon="4.64529">
        <ele>292</ele>
        <time>2016-10-04T09:29:25Z</time>
      </trkpt>
      <trkpt lat="46.08474" lon="4.6453">
        <ele>292</ele>
        <time>2016-10-04T09:29:26Z</time>
      </trkpt>
      <trkpt lat="46.08482" lon="4.64534">
        <ele>292</ele>
        <time>2016-10-04T09:29:28Z</time>
      </trkpt>
      <trkpt lat="46.08486" lon="4.64537">
        <ele>292</ele>
        <time>2016-10-04T09:29:29Z</time>
      </trkpt>
      <trkpt lat="46.08494" lon="4.6454">
        <ele>292</ele>
        <time>2016-10-04T09:29:31Z</time>
      </trkpt>
      <trkpt lat="46.08497" lon="4.64543">
        <ele>292</ele>
        <time>2016-10-04T09:29:32Z</time>
      </trkpt>
      <trkpt lat="46.08505" lon="4.64546">
        <ele>294</ele>
        <time>2016-10-04T09:29:34Z</time>
      </trkpt>
      <trkpt lat="46.08509" lon="4.64547">
        <ele>294</ele>
        <time>2016-10-04T09:29:35Z</time>
      </trkpt>
      <trkpt lat="46.08516" lon="4.6455">
        <ele>294</ele>
        <time>2016-10-04T09:29:37Z</time>
      </trkpt>
      <trkpt lat="46.0852" lon="4.64552">
        <ele>294</ele>
        <time>2016-10-04T09:29:38Z</time>
      </trkpt>
      <trkpt lat="46.08528" lon="4.64556">
        <ele>294</ele>
        <time>2016-10-04T09:29:40Z</time>
      </trkpt>
      <trkpt lat="46.08532" lon="4.64557">
        <ele>294</ele>
        <time>2016-10-04T09:29:41Z</time>
      </trkpt>
      <trkpt lat="46.08541" lon="4.6456">
        <ele>294</ele>
        <time>2016-10-04T09:29:43Z</time>
      </trkpt>
      <trkpt lat="46.08544" lon="4.64562">
        <ele>295</ele>
        <time>2016-10-04T09:29:44Z</time>
      </trkpt>
      <trkpt lat="46.08551" lon="4.64567">
        <ele>295</ele>
        <time>2016-10-04T09:29:46Z</time>
      </trkpt>
      <trkpt lat="46.08555" lon="4.64571">
        <ele>295</ele>
        <time>2016-10-04T09:29:47Z</time>
      </trkpt>
      <trkpt lat="46.08561" lon="4.64575">
        <ele>295</ele>
        <time>2016-10-04T09:29:49Z</time>
      </trkpt>
      <trkpt lat="46.08565" lon="4.64577">
        <ele>296</ele>
        <time>2016-10-04T09:29:50Z</time>
      </trkpt>
      <trkpt lat="46.08573" lon="4.64579">
        <ele>296</ele>
        <time>2016-10-04T09:29:52Z</time>
      </trkpt>
      <trkpt lat="46.08577" lon="4.6458">
        <ele>296</ele>
        <time>2016-10-04T09:29:53Z</time>
      </trkpt>
      <trkpt lat="46.08585" lon="4.64581">
        <ele>297</ele>
        <time>2016-10-04T09:29:55Z</time>
      </trkpt>
      <trkpt lat="46.08589" lon="4.64582">
        <ele>298</ele>
        <time>2016-10-04T09:29:56Z</time>
      </trkpt>
      <trkpt lat="46.08597" lon="4.64584">
        <ele>298</ele>
        <time>2016-10-04T09:29:58Z</time>
      </trkpt>
      <trkpt lat="46.08601" lon="4.64585">
        <ele>298</ele>
        <time>2016-10-04T09:29:59Z</time>
      </trkpt>
      <trkpt lat="46.08609" lon="4.64588">
        <ele>298</ele>
        <time>2016-10-04T09:30:01Z</time>
      </trkpt>
      <trkpt lat="46.08613" lon="4.64589">
        <ele>299</ele>
        <time>2016-10-04T09:30:02Z</time>
      </trkpt>
      <trkpt lat="46.08621" lon="4.64595">
        <ele>299</ele>
        <time>2016-10-04T09:30:04Z</time>
      </trkpt>
      <trkpt lat="46.08624" lon="4.64598">
        <ele>299</ele>
        <time>2016-10-04T09:30:05Z</time>
      </trkpt>
      <trkpt lat="46.08632" lon="4.64602">
        <ele>300</ele>
        <time>2016-10-04T09:30:07Z</time>
      </trkpt>
      <trkpt lat="46.08635" lon="4.64604">
        <ele>300</ele>
        <time>2016-10-04T09:30:08Z</time>
      </trkpt>
      <trkpt lat="46.08643" lon="4.64609">
        <ele>300</ele>
        <time>2016-10-04T09:30:10Z</time>
      </trkpt>
      <trkpt lat="46.08646" lon="4.64611">
        <ele>300</ele>
        <time>2016-10-04T09:30:11Z</time>
      </trkpt>
      <trkpt lat="46.08653" lon="4.64615">
        <ele>300</ele>
        <time>2016-10-04T09:30:13Z</time>
      </trkpt>
      <trkpt lat="46.08657" lon="4.64617">
        <ele>300</ele>
        <time>2016-10-04T09:30:14Z</time>
      </trkpt>
      <trkpt lat="46.08663" lon="4.64621">
        <ele>300</ele>
        <time>2016-10-04T09:30:16Z</time>
      </trkpt>
      <trkpt lat="46.08668" lon="4.64624">
        <ele>302</ele>
        <time>2016-10-04T09:30:17Z</time>
      </trkpt>
      <trkpt lat="46.08673" lon="4.64625">
        <ele>302</ele>
        <time>2016-10-04T09:30:18Z</time>
      </trkpt>
      <trkpt lat="46.08677" lon="4.64627">
        <ele>302</ele>
        <time>2016-10-04T09:30:19Z</time>
      </trkpt>
      <trkpt lat="46.08685" lon="4.64633">
        <ele>302</ele>
        <time>2016-10-04T09:30:21Z</time>
      </trkpt>
      <trkpt lat="46.08689" lon="4.64634">
        <ele>302</ele>
        <time>2016-10-04T09:30:22Z</time>
      </trkpt>
      <trkpt lat="46.08697" lon="4.64629">
        <ele>302</ele>
        <time>2016-10-04T09:30:24Z</time>
      </trkpt>
      <trkpt lat="46.08701" lon="4.64625">
        <ele>302</ele>
        <time>2016-10-04T09:30:25Z</time>
      </trkpt>
      <trkpt lat="46.08708" lon="4.64633">
        <ele>302</ele>
        <time>2016-10-04T09:30:27Z</time>
      </trkpt>
      <trkpt lat="46.08712" lon="4.64634">
        <ele>302</ele>
        <time>2016-10-04T09:30:28Z</time>
      </trkpt>
      <trkpt lat="46.08719" lon="4.64642">
        <ele>302</ele>
        <time>2016-10-04T09:30:30Z</time>
      </trkpt>
      <trkpt lat="46.08722" lon="4.64646">
        <ele>302</ele>
        <time>2016-10-04T09:30:31Z</time>
      </trkpt>
      <trkpt lat="46.08727" lon="4.64651">
        <ele>302</ele>
        <time>2016-10-04T09:30:32Z</time>
      </trkpt>
      <trkpt lat="46.08731" lon="4.64655">
        <ele>302</ele>
        <time>2016-10-04T09:30:33Z</time>
      </trkpt>
      <trkpt lat="46.0874" lon="4.64659">
        <ele>301</ele>
        <time>2016-10-04T09:30:35Z</time>
      </trkpt>
      <trkpt lat="46.08744" lon="4.6466">
        <ele>301</ele>
        <time>2016-10-04T09:30:36Z</time>
      </trkpt>
      <trkpt lat="46.08749" lon="4.64662">
        <ele>301</ele>
        <time>2016-10-04T09:30:37Z</time>
      </trkpt>
      <trkpt lat="46.08753" lon="4.64663">
        <ele>301</ele>
        <time>2016-10-04T09:30:38Z</time>
      </trkpt>
      <trkpt lat="46.08759" lon="4.64665">
        <ele>301</ele>
        <time>2016-10-04T09:30:39Z</time>
      </trkpt>
      <trkpt lat="46.08764" lon="4.64665">
        <ele>301</ele>
        <time>2016-10-04T09:30:40Z</time>
      </trkpt>
      <trkpt lat="46.08769" lon="4.64667">
        <ele>300</ele>
        <time>2016-10-04T09:30:41Z</time>
      </trkpt>
      <trkpt lat="46.08775" lon="4.64668">
        <ele>299</ele>
        <time>2016-10-04T09:30:42Z</time>
      </trkpt>
      <trkpt lat="46.08781" lon="4.6467">
        <ele>298</ele>
        <time>2016-10-04T09:30:43Z</time>
      </trkpt>
      <trkpt lat="46.08788" lon="4.64672">
        <ele>298</ele>
        <time>2016-10-04T09:30:44Z</time>
      </trkpt>
      <trkpt lat="46.08793" lon="4.64672">
        <ele>298</ele>
        <time>2016-10-04T09:30:45Z</time>
      </trkpt>
      <trkpt lat="46.08799" lon="4.64672">
        <ele>298</ele>
        <time>2016-10-04T09:30:46Z</time>
      </trkpt>
      <trkpt lat="46.08805" lon="4.64673">
        <ele>298</ele>
        <time>2016-10-04T09:30:47Z</time>
      </trkpt>
      <trkpt lat="46.08814" lon="4.64676">
        <ele>297</ele>
        <time>2016-10-04T09:30:48Z</time>
      </trkpt>
      <trkpt lat="46.08822" lon="4.64677">
        <ele>297</ele>
        <time>2016-10-04T09:30:49Z</time>
      </trkpt>
      <trkpt lat="46.0883" lon="4.64678">
        <ele>297</ele>
        <time>2016-10-04T09:30:50Z</time>
      </trkpt>
      <trkpt lat="46.08837" lon="4.64676">
        <ele>297</ele>
        <time>2016-10-04T09:30:51Z</time>
      </trkpt>
      <trkpt lat="46.08845" lon="4.64673">
        <ele>297</ele>
        <time>2016-10-04T09:30:52Z</time>
      </trkpt>
      <trkpt lat="46.08852" lon="4.64671">
        <ele>296</ele>
        <time>2016-10-04T09:30:53Z</time>
      </trkpt>
      <trkpt lat="46.0886" lon="4.6467">
        <ele>296</ele>
        <time>2016-10-04T09:30:54Z</time>
      </trkpt>
      <trkpt lat="46.08867" lon="4.6467">
        <ele>296</ele>
        <time>2016-10-04T09:30:55Z</time>
      </trkpt>
      <trkpt lat="46.08875" lon="4.64677">
        <ele>296</ele>
        <time>2016-10-04T09:30:56Z</time>
      </trkpt>
      <trkpt lat="46.08882" lon="4.64681">
        <ele>296</ele>
        <time>2016-10-04T09:30:57Z</time>
      </trkpt>
      <trkpt lat="46.08888" lon="4.64682">
        <ele>296</ele>
        <time>2016-10-04T09:30:58Z</time>
      </trkpt>
      <trkpt lat="46.08894" lon="4.64682">
        <ele>296</ele>
        <time>2016-10-04T09:30:59Z</time>
      </trkpt>
      <trkpt lat="46.08899" lon="4.64683">
        <ele>296</ele>
        <time>2016-10-04T09:31:00Z</time>
      </trkpt>
      <trkpt lat="46.08904" lon="4.64683">
        <ele>296</ele>
        <time>2016-10-04T09:31:01Z</time>
      </trkpt>
      <trkpt lat="46.08909" lon="4.64687">
        <ele>296</ele>
        <time>2016-10-04T09:31:02Z</time>
      </trkpt>
      <trkpt lat="46.08913" lon="4.6469">
        <ele>296</ele>
        <time>2016-10-04T09:31:03Z</time>
      </trkpt>
      <trkpt lat="46.08918" lon="4.64691">
        <ele>297</ele>
        <time>2016-10-04T09:31:04Z</time>
      </trkpt>
      <trkpt lat="46.08926" lon="4.64693">
        <ele>297</ele>
        <time>2016-10-04T09:31:06Z</time>
      </trkpt>
      <trkpt lat="46.0893" lon="4.64695">
        <ele>297</ele>
        <time>2016-10-04T09:31:07Z</time>
      </trkpt>
      <trkpt lat="46.08938" lon="4.647">
        <ele>298</ele>
        <time>2016-10-04T09:31:09Z</time>
      </trkpt>
      <trkpt lat="46.08942" lon="4.64702">
        <ele>298</ele>
        <time>2016-10-04T09:31:10Z</time>
      </trkpt>
      <trkpt lat="46.08946" lon="4.64703">
        <ele>298</ele>
        <time>2016-10-04T09:31:11Z</time>
      </trkpt>
      <trkpt lat="46.08951" lon="4.64703">
        <ele>298</ele>
        <time>2016-10-04T09:31:12Z</time>
      </trkpt>
      <trkpt lat="46.08959" lon="4.64705">
        <ele>298</ele>
        <time>2016-10-04T09:31:14Z</time>
      </trkpt>
      <trkpt lat="46.08961" lon="4.64707">
        <ele>298</ele>
        <time>2016-10-04T09:31:15Z</time>
      </trkpt>
      <trkpt lat="46.08964" lon="4.64715">
        <ele>298</ele>
        <time>2016-10-04T09:31:17Z</time>
      </trkpt>
      <trkpt lat="46.08967" lon="4.6472">
        <ele>298</ele>
        <time>2016-10-04T09:31:18Z</time>
      </trkpt>
      <trkpt lat="46.08974" lon="4.64723">
        <ele>298</ele>
        <time>2016-10-04T09:31:20Z</time>
      </trkpt>
      <trkpt lat="46.08978" lon="4.64722">
        <ele>298</ele>
        <time>2016-10-04T09:31:21Z</time>
      </trkpt>
      <trkpt lat="46.08984" lon="4.64714">
        <ele>299</ele>
        <time>2016-10-04T09:31:23Z</time>
      </trkpt>
      <trkpt lat="46.08987" lon="4.64711">
        <ele>299</ele>
        <time>2016-10-04T09:31:24Z</time>
      </trkpt>
      <trkpt lat="46.08993" lon="4.64707">
        <ele>299</ele>
        <time>2016-10-04T09:31:26Z</time>
      </trkpt>
      <trkpt lat="46.08996" lon="4.64706">
        <ele>299</ele>
        <time>2016-10-04T09:31:27Z</time>
      </trkpt>
      <trkpt lat="46.09003" lon="4.64705">
        <ele>302</ele>
        <time>2016-10-04T09:31:29Z</time>
      </trkpt>
      <trkpt lat="46.09007" lon="4.64705">
        <ele>302</ele>
        <time>2016-10-04T09:31:30Z</time>
      </trkpt>
      <trkpt lat="46.09013" lon="4.64704">
        <ele>302</ele>
        <time>2016-10-04T09:31:32Z</time>
      </trkpt>
      <trkpt lat="46.09016" lon="4.64703">
        <ele>302</ele>
        <time>2016-10-04T09:31:33Z</time>
      </trkpt>
      <trkpt lat="46.09022" lon="4.64702">
        <ele>302</ele>
        <time>2016-10-04T09:31:35Z</time>
      </trkpt>
      <trkpt lat="46.09026" lon="4.64703">
        <ele>302</ele>
        <time>2016-10-04T09:31:36Z</time>
      </trkpt>
      <trkpt lat="46.09033" lon="4.64707">
        <ele>302</ele>
        <time>2016-10-04T09:31:38Z</time>
      </trkpt>
      <trkpt lat="46.09037" lon="4.64707">
        <ele>302</ele>
        <time>2016-10-04T09:31:39Z</time>
      </trkpt>
      <trkpt lat="46.09043" lon="4.64707">
        <ele>302</ele>
        <time>2016-10-04T09:31:41Z</time>
      </trkpt>
      <trkpt lat="46.09046" lon="4.64708">
        <ele>302</ele>
        <time>2016-10-04T09:31:42Z</time>
      </trkpt>
      <trkpt lat="46.09053" lon="4.6471">
        <ele>302</ele>
        <time>2016-10-04T09:31:44Z</time>
      </trkpt>
      <trkpt lat="46.09056" lon="4.64711">
        <ele>302</ele>
        <time>2016-10-04T09:31:45Z</time>
      </trkpt>
      <trkpt lat="46.09062" lon="4.64713">
        <ele>303</ele>
        <time>2016-10-04T09:31:47Z</time>
      </trkpt>
      <trkpt lat="46.09065" lon="4.64714">
        <ele>303</ele>
        <time>2016-10-04T09:31:48Z</time>
      </trkpt>
      <trkpt lat="46.09072" lon="4.64715">
        <ele>303</ele>
        <time>2016-10-04T09:31:50Z</time>
      </trkpt>
      <trkpt lat="46.09075" lon="4.64714">
        <ele>303</ele>
        <time>2016-10-04T09:31:51Z</time>
      </trkpt>
      <trkpt lat="46.09082" lon="4.64713">
        <ele>303</ele>
        <time>2016-10-04T09:31:53Z</time>
      </trkpt>
      <trkpt lat="46.09085" lon="4.64712">
        <ele>305</ele>
        <time>2016-10-04T09:31:54Z</time>
      </trkpt>
      <trkpt lat="46.09092" lon="4.64713">
        <ele>305</ele>
        <time>2016-10-04T09:31:56Z</time>
      </trkpt>
      <trkpt lat="46.09095" lon="4.64712">
        <ele>305</ele>
        <time>2016-10-04T09:31:57Z</time>
      </trkpt>
      <trkpt lat="46.09101" lon="4.64712">
        <ele>305</ele>
        <time>2016-10-04T09:31:59Z</time>
      </trkpt>
      <trkpt lat="46.09104" lon="4.64713">
        <ele>305</ele>
        <time>2016-10-04T09:32:00Z</time>
      </trkpt>
      <trkpt lat="46.09111" lon="4.64713">
        <ele>305</ele>
        <time>2016-10-04T09:32:02Z</time>
      </trkpt>
      <trkpt lat="46.09114" lon="4.64714">
        <ele>305</ele>
        <time>2016-10-04T09:32:03Z</time>
      </trkpt>
      <trkpt lat="46.09119" lon="4.64716">
        <ele>305</ele>
        <time>2016-10-04T09:32:05Z</time>
      </trkpt>
      <trkpt lat="46.09123" lon="4.64718">
        <ele>305</ele>
        <time>2016-10-04T09:32:06Z</time>
      </trkpt>
      <trkpt lat="46.0913" lon="4.64718">
        <ele>305</ele>
        <time>2016-10-04T09:32:08Z</time>
      </trkpt>
      <trkpt lat="46.09133" lon="4.64717">
        <ele>305</ele>
        <time>2016-10-04T09:32:09Z</time>
      </trkpt>
      <trkpt lat="46.0914" lon="4.64718">
        <ele>306</ele>
        <time>2016-10-04T09:32:11Z</time>
      </trkpt>
      <trkpt lat="46.09143" lon="4.64719">
        <ele>306</ele>
        <time>2016-10-04T09:32:12Z</time>
      </trkpt>
      <trkpt lat="46.09149" lon="4.64721">
        <ele>306</ele>
        <time>2016-10-04T09:32:14Z</time>
      </trkpt>
      <trkpt lat="46.09152" lon="4.64722">
        <ele>306</ele>
        <time>2016-10-04T09:32:15Z</time>
      </trkpt>
      <trkpt lat="46.09159" lon="4.64724">
        <ele>306</ele>
        <time>2016-10-04T09:32:17Z</time>
      </trkpt>
      <trkpt lat="46.09162" lon="4.64725">
        <ele>306</ele>
        <time>2016-10-04T09:32:18Z</time>
      </trkpt>
      <trkpt lat="46.09168" lon="4.64725">
        <ele>307</ele>
        <time>2016-10-04T09:32:20Z</time>
      </trkpt>
      <trkpt lat="46.09171" lon="4.64724">
        <ele>307</ele>
        <time>2016-10-04T09:32:21Z</time>
      </trkpt>
      <trkpt lat="46.09177" lon="4.64722">
        <ele>308</ele>
        <time>2016-10-04T09:32:23Z</time>
      </trkpt>
      <trkpt lat="46.0918" lon="4.64722">
        <ele>308</ele>
        <time>2016-10-04T09:32:24Z</time>
      </trkpt>
      <trkpt lat="46.09186" lon="4.6472">
        <ele>308</ele>
        <time>2016-10-04T09:32:26Z</time>
      </trkpt>
      <trkpt lat="46.09189" lon="4.64719">
        <ele>308</ele>
        <time>2016-10-04T09:32:27Z</time>
      </trkpt>
      <trkpt lat="46.09194" lon="4.6472">
        <ele>308</ele>
        <time>2016-10-04T09:32:29Z</time>
      </trkpt>
      <trkpt lat="46.09198" lon="4.6472">
        <ele>308</ele>
        <time>2016-10-04T09:32:30Z</time>
      </trkpt>
      <trkpt lat="46.09204" lon="4.64719">
        <ele>308</ele>
        <time>2016-10-04T09:32:32Z</time>
      </trkpt>
      <trkpt lat="46.09207" lon="4.64718">
        <ele>308</ele>
        <time>2016-10-04T09:32:33Z</time>
      </trkpt>
      <trkpt lat="46.09214" lon="4.64715">
        <ele>309</ele>
        <time>2016-10-04T09:32:35Z</time>
      </trkpt>
      <trkpt lat="46.09216" lon="4.64714">
        <ele>309</ele>
        <time>2016-10-04T09:32:36Z</time>
      </trkpt>
      <trkpt lat="46.09223" lon="4.64713">
        <ele>309</ele>
        <time>2016-10-04T09:32:38Z</time>
      </trkpt>
      <trkpt lat="46.09226" lon="4.64713">
        <ele>309</ele>
        <time>2016-10-04T09:32:39Z</time>
      </trkpt>
      <trkpt lat="46.09232" lon="4.6471">
        <ele>309</ele>
        <time>2016-10-04T09:32:41Z</time>
      </trkpt>
      <trkpt lat="46.09235" lon="4.6471">
        <ele>309</ele>
        <time>2016-10-04T09:32:42Z</time>
      </trkpt>
      <trkpt lat="46.09241" lon="4.64711">
        <ele>309</ele>
        <time>2016-10-04T09:32:44Z</time>
      </trkpt>
      <trkpt lat="46.09245" lon="4.6471">
        <ele>309</ele>
        <time>2016-10-04T09:32:45Z</time>
      </trkpt>
      <trkpt lat="46.09251" lon="4.6471">
        <ele>311</ele>
        <time>2016-10-04T09:32:47Z</time>
      </trkpt>
      <trkpt lat="46.09254" lon="4.64709">
        <ele>311</ele>
        <time>2016-10-04T09:32:48Z</time>
      </trkpt>
      <trkpt lat="46.0926" lon="4.64706">
        <ele>311</ele>
        <time>2016-10-04T09:32:50Z</time>
      </trkpt>
      <trkpt lat="46.09263" lon="4.64706">
        <ele>311</ele>
        <time>2016-10-04T09:32:51Z</time>
      </trkpt>
      <trkpt lat="46.0927" lon="4.64705">
        <ele>312</ele>
        <time>2016-10-04T09:32:53Z</time>
      </trkpt>
      <trkpt lat="46.09273" lon="4.64705">
        <ele>312</ele>
        <time>2016-10-04T09:32:54Z</time>
      </trkpt>
      <trkpt lat="46.09279" lon="4.64703">
        <ele>312</ele>
        <time>2016-10-04T09:32:56Z</time>
      </trkpt>
      <trkpt lat="46.09282" lon="4.64702">
        <ele>312</ele>
        <time>2016-10-04T09:32:57Z</time>
      </trkpt>
      <trkpt lat="46.09288" lon="4.647">
        <ele>312</ele>
        <time>2016-10-04T09:32:59Z</time>
      </trkpt>
      <trkpt lat="46.09291" lon="4.64699">
        <ele>312</ele>
        <time>2016-10-04T09:33:00Z</time>
      </trkpt>
      <trkpt lat="46.093" lon="4.64697">
        <ele>312</ele>
        <time>2016-10-04T09:33:03Z</time>
      </trkpt>
      <trkpt lat="46.09302" lon="4.64697">
        <ele>312</ele>
        <time>2016-10-04T09:33:04Z</time>
      </trkpt>
      <trkpt lat="46.0931" lon="4.64694">
        <ele>313</ele>
        <time>2016-10-04T09:33:07Z</time>
      </trkpt>
      <trkpt lat="46.09313" lon="4.64693">
        <ele>313</ele>
        <time>2016-10-04T09:33:08Z</time>
      </trkpt>
      <trkpt lat="46.09322" lon="4.64692">
        <ele>313</ele>
        <time>2016-10-04T09:33:11Z</time>
      </trkpt>
      <trkpt lat="46.09325" lon="4.64691">
        <ele>313</ele>
        <time>2016-10-04T09:33:12Z</time>
      </trkpt>
      <trkpt lat="46.09331" lon="4.64686">
        <ele>314</ele>
        <time>2016-10-04T09:33:14Z</time>
      </trkpt>
      <trkpt lat="46.09334" lon="4.64683">
        <ele>315</ele>
        <time>2016-10-04T09:33:15Z</time>
      </trkpt>
      <trkpt lat="46.09342" lon="4.64677">
        <ele>316</ele>
        <time>2016-10-04T09:33:18Z</time>
      </trkpt>
      <trkpt lat="46.09344" lon="4.64675">
        <ele>316</ele>
        <time>2016-10-04T09:33:19Z</time>
      </trkpt>
      <trkpt lat="46.09353" lon="4.64671">
        <ele>316</ele>
        <time>2016-10-04T09:33:22Z</time>
      </trkpt>
      <trkpt lat="46.09356" lon="4.64669">
        <ele>316</ele>
        <time>2016-10-04T09:33:23Z</time>
      </trkpt>
      <trkpt lat="46.09362" lon="4.64668">
        <ele>316</ele>
        <time>2016-10-04T09:33:25Z</time>
      </trkpt>
      <trkpt lat="46.09365" lon="4.64666">
        <ele>319</ele>
        <time>2016-10-04T09:33:26Z</time>
      </trkpt>
      <trkpt lat="46.09371" lon="4.64661">
        <ele>319</ele>
        <time>2016-10-04T09:33:28Z</time>
      </trkpt>
      <trkpt lat="46.09374" lon="4.64659">
        <ele>320</ele>
        <time>2016-10-04T09:33:29Z</time>
      </trkpt>
      <trkpt lat="46.09381" lon="4.64656">
        <ele>320</ele>
        <time>2016-10-04T09:33:31Z</time>
      </trkpt>
      <trkpt lat="46.09384" lon="4.64655">
        <ele>320</ele>
        <time>2016-10-04T09:33:32Z</time>
      </trkpt>
      <trkpt lat="46.0939" lon="4.64652">
        <ele>320</ele>
        <time>2016-10-04T09:33:34Z</time>
      </trkpt>
      <trkpt lat="46.09393" lon="4.6465">
        <ele>320</ele>
        <time>2016-10-04T09:33:35Z</time>
      </trkpt>
      <trkpt lat="46.09399" lon="4.64645">
        <ele>320</ele>
        <time>2016-10-04T09:33:37Z</time>
      </trkpt>
      <trkpt lat="46.09402" lon="4.64643">
        <ele>320</ele>
        <time>2016-10-04T09:33:38Z</time>
      </trkpt>
      <trkpt lat="46.09408" lon="4.6464">
        <ele>321</ele>
        <time>2016-10-04T09:33:40Z</time>
      </trkpt>
      <trkpt lat="46.09411" lon="4.64639">
        <ele>321</ele>
        <time>2016-10-04T09:33:41Z</time>
      </trkpt>
      <trkpt lat="46.09418" lon="4.64636">
        <ele>323</ele>
        <time>2016-10-04T09:33:44Z</time>
      </trkpt>
      <trkpt lat="46.0942" lon="4.64636">
        <ele>323</ele>
        <time>2016-10-04T09:33:45Z</time>
      </trkpt>
      <trkpt lat="46.09428" lon="4.64637">
        <ele>323</ele>
        <time>2016-10-04T09:33:48Z</time>
      </trkpt>
      <trkpt lat="46.0943" lon="4.64636">
        <ele>323</ele>
        <time>2016-10-04T09:33:49Z</time>
      </trkpt>
      <trkpt lat="46.09438" lon="4.64632">
        <ele>323</ele>
        <time>2016-10-04T09:33:52Z</time>
      </trkpt>
      <trkpt lat="46.09441" lon="4.64631">
        <ele>323</ele>
        <time>2016-10-04T09:33:53Z</time>
      </trkpt>
      <trkpt lat="46.09447" lon="4.64632">
        <ele>323</ele>
        <time>2016-10-04T09:33:55Z</time>
      </trkpt>
      <trkpt lat="46.0945" lon="4.64632">
        <ele>323</ele>
        <time>2016-10-04T09:33:56Z</time>
      </trkpt>
      <trkpt lat="46.09458" lon="4.64632">
        <ele>323</ele>
        <time>2016-10-04T09:33:58Z</time>
      </trkpt>
      <trkpt lat="46.09461" lon="4.64632">
        <ele>323</ele>
        <time>2016-10-04T09:33:59Z</time>
      </trkpt>
      <trkpt lat="46.09469" lon="4.64632">
        <ele>323</ele>
        <time>2016-10-04T09:34:01Z</time>
      </trkpt>
      <trkpt lat="46.09472" lon="4.64632">
        <ele>323</ele>
        <time>2016-10-04T09:34:02Z</time>
      </trkpt>
      <trkpt lat="46.09479" lon="4.64631">
        <ele>324</ele>
        <time>2016-10-04T09:34:04Z</time>
      </trkpt>
      <trkpt lat="46.09483" lon="4.6463">
        <ele>324</ele>
        <time>2016-10-04T09:34:05Z</time>
      </trkpt>
      <trkpt lat="46.0949" lon="4.64626">
        <ele>324</ele>
        <time>2016-10-04T09:34:07Z</time>
      </trkpt>
      <trkpt lat="46.09494" lon="4.64624">
        <ele>324</ele>
        <time>2016-10-04T09:34:08Z</time>
      </trkpt>
      <trkpt lat="46.09503" lon="4.64622">
        <ele>323</ele>
        <time>2016-10-04T09:34:10Z</time>
      </trkpt>
      <trkpt lat="46.09506" lon="4.6462">
        <ele>323</ele>
        <time>2016-10-04T09:34:11Z</time>
      </trkpt>
      <trkpt lat="46.09514" lon="4.64617">
        <ele>323</ele>
        <time>2016-10-04T09:34:13Z</time>
      </trkpt>
      <trkpt lat="46.09518" lon="4.64616">
        <ele>322</ele>
        <time>2016-10-04T09:34:14Z</time>
      </trkpt>
      <trkpt lat="46.09526" lon="4.64615">
        <ele>322</ele>
        <time>2016-10-04T09:34:16Z</time>
      </trkpt>
      <trkpt lat="46.0953" lon="4.64614">
        <ele>322</ele>
        <time>2016-10-04T09:34:17Z</time>
      </trkpt>
      <trkpt lat="46.09539" lon="4.64613">
        <ele>322</ele>
        <time>2016-10-04T09:34:19Z</time>
      </trkpt>
      <trkpt lat="46.09544" lon="4.64612">
        <ele>321</ele>
        <time>2016-10-04T09:34:20Z</time>
      </trkpt>
      <trkpt lat="46.09548" lon="4.64611">
        <ele>321</ele>
        <time>2016-10-04T09:34:21Z</time>
      </trkpt>
      <trkpt lat="46.09553" lon="4.6461">
        <ele>321</ele>
        <time>2016-10-04T09:34:22Z</time>
      </trkpt>
      <trkpt lat="46.09558" lon="4.64609">
        <ele>321</ele>
        <time>2016-10-04T09:34:23Z</time>
      </trkpt>
      <trkpt lat="46.09563" lon="4.64608">
        <ele>321</ele>
        <time>2016-10-04T09:34:24Z</time>
      </trkpt>
      <trkpt lat="46.09569" lon="4.64606">
        <ele>320</ele>
        <time>2016-10-04T09:34:25Z</time>
      </trkpt>
      <trkpt lat="46.09575" lon="4.64604">
        <ele>320</ele>
        <time>2016-10-04T09:34:26Z</time>
      </trkpt>
      <trkpt lat="46.09581" lon="4.64602">
        <ele>320</ele>
        <time>2016-10-04T09:34:27Z</time>
      </trkpt>
      <trkpt lat="46.09587" lon="4.64601">
        <ele>317</ele>
        <time>2016-10-04T09:34:28Z</time>
      </trkpt>
      <trkpt lat="46.09594" lon="4.646">
        <ele>317</ele>
        <time>2016-10-04T09:34:29Z</time>
      </trkpt>
      <trkpt lat="46.096" lon="4.64598">
        <ele>316</ele>
        <time>2016-10-04T09:34:30Z</time>
      </trkpt>
      <trkpt lat="46.09607" lon="4.64596">
        <ele>316</ele>
        <time>2016-10-04T09:34:31Z</time>
      </trkpt>
      <trkpt lat="46.09614" lon="4.64595">
        <ele>316</ele>
        <time>2016-10-04T09:34:32Z</time>
      </trkpt>
      <trkpt lat="46.09622" lon="4.64592">
        <ele>315</ele>
        <time>2016-10-04T09:34:33Z</time>
      </trkpt>
      <trkpt lat="46.09629" lon="4.64589">
        <ele>315</ele>
        <time>2016-10-04T09:34:34Z</time>
      </trkpt>
      <trkpt lat="46.09636" lon="4.64584">
        <ele>315</ele>
        <time>2016-10-04T09:34:35Z</time>
      </trkpt>
      <trkpt lat="46.09643" lon="4.6458">
        <ele>318</ele>
        <time>2016-10-04T09:34:36Z</time>
      </trkpt>
      <trkpt lat="46.0965" lon="4.64575">
        <ele>317</ele>
        <time>2016-10-04T09:34:37Z</time>
      </trkpt>
      <trkpt lat="46.09657" lon="4.6457">
        <ele>317</ele>
        <time>2016-10-04T09:34:38Z</time>
      </trkpt>
      <trkpt lat="46.09664" lon="4.64565">
        <ele>317</ele>
        <time>2016-10-04T09:34:39Z</time>
      </trkpt>
      <trkpt lat="46.09673" lon="4.64561">
        <ele>313</ele>
        <time>2016-10-04T09:34:40Z</time>
      </trkpt>
      <trkpt lat="46.0968" lon="4.64555">
        <ele>313</ele>
        <time>2016-10-04T09:34:41Z</time>
      </trkpt>
      <trkpt lat="46.09688" lon="4.64548">
        <ele>313</ele>
        <time>2016-10-04T09:34:42Z</time>
      </trkpt>
      <trkpt lat="46.09695" lon="4.64543">
        <ele>313</ele>
        <time>2016-10-04T09:34:43Z</time>
      </trkpt>
      <trkpt lat="46.09702" lon="4.64538">
        <ele>312</ele>
        <time>2016-10-04T09:34:44Z</time>
      </trkpt>
      <trkpt lat="46.09708" lon="4.64534">
        <ele>312</ele>
        <time>2016-10-04T09:34:45Z</time>
      </trkpt>
      <trkpt lat="46.09715" lon="4.64528">
        <ele>312</ele>
        <time>2016-10-04T09:34:46Z</time>
      </trkpt>
      <trkpt lat="46.09721" lon="4.64522">
        <ele>311</ele>
        <time>2016-10-04T09:34:47Z</time>
      </trkpt>
      <trkpt lat="46.09727" lon="4.64516">
        <ele>311</ele>
        <time>2016-10-04T09:34:48Z</time>
      </trkpt>
      <trkpt lat="46.09732" lon="4.6451">
        <ele>310</ele>
        <time>2016-10-04T09:34:49Z</time>
      </trkpt>
      <trkpt lat="46.09737" lon="4.64504">
        <ele>310</ele>
        <time>2016-10-04T09:34:50Z</time>
      </trkpt>
      <trkpt lat="46.09743" lon="4.64497">
        <ele>310</ele>
        <time>2016-10-04T09:34:51Z</time>
      </trkpt>
      <trkpt lat="46.09748" lon="4.64489">
        <ele>311</ele>
        <time>2016-10-04T09:34:52Z</time>
      </trkpt>
      <trkpt lat="46.09752" lon="4.64482">
        <ele>307</ele>
        <time>2016-10-04T09:34:53Z</time>
      </trkpt>
      <trkpt lat="46.09755" lon="4.64473">
        <ele>307</ele>
        <time>2016-10-04T09:34:54Z</time>
      </trkpt>
      <trkpt lat="46.09759" lon="4.64466">
        <ele>307</ele>
        <time>2016-10-04T09:34:55Z</time>
      </trkpt>
      <trkpt lat="46.09763" lon="4.64458">
        <ele>307</ele>
        <time>2016-10-04T09:34:56Z</time>
      </trkpt>
      <trkpt lat="46.09765" lon="4.64449">
        <ele>307</ele>
        <time>2016-10-04T09:34:57Z</time>
      </trkpt>
      <trkpt lat="46.09767" lon="4.64441">
        <ele>307</ele>
        <time>2016-10-04T09:34:58Z</time>
      </trkpt>
      <trkpt lat="46.09769" lon="4.64434">
        <ele>308</ele>
        <time>2016-10-04T09:34:59Z</time>
      </trkpt>
      <trkpt lat="46.0977" lon="4.64427">
        <ele>308</ele>
        <time>2016-10-04T09:35:00Z</time>
      </trkpt>
      <trkpt lat="46.09772" lon="4.6442">
        <ele>308</ele>
        <time>2016-10-04T09:35:01Z</time>
      </trkpt>
      <trkpt lat="46.09774" lon="4.64412">
        <ele>310</ele>
        <time>2016-10-04T09:35:02Z</time>
      </trkpt>
      <trkpt lat="46.09776" lon="4.64404">
        <ele>310</ele>
        <time>2016-10-04T09:35:03Z</time>
      </trkpt>
      <trkpt lat="46.09777" lon="4.64396">
        <ele>309</ele>
        <time>2016-10-04T09:35:04Z</time>
      </trkpt>
      <trkpt lat="46.09779" lon="4.64389">
        <ele>309</ele>
        <time>2016-10-04T09:35:05Z</time>
      </trkpt>
      <trkpt lat="46.0978" lon="4.64381">
        <ele>309</ele>
        <time>2016-10-04T09:35:06Z</time>
      </trkpt>
      <trkpt lat="46.09781" lon="4.64372">
        <ele>310</ele>
        <time>2016-10-04T09:35:07Z</time>
      </trkpt>
      <trkpt lat="46.09783" lon="4.64364">
        <ele>310</ele>
        <time>2016-10-04T09:35:08Z</time>
      </trkpt>
      <trkpt lat="46.09784" lon="4.64355">
        <ele>310</ele>
        <time>2016-10-04T09:35:09Z</time>
      </trkpt>
      <trkpt lat="46.09785" lon="4.64347">
        <ele>310</ele>
        <time>2016-10-04T09:35:10Z</time>
      </trkpt>
      <trkpt lat="46.09786" lon="4.64339">
        <ele>310</ele>
        <time>2016-10-04T09:35:11Z</time>
      </trkpt>
      <trkpt lat="46.09786" lon="4.64331">
        <ele>312</ele>
        <time>2016-10-04T09:35:12Z</time>
      </trkpt>
      <trkpt lat="46.09786" lon="4.64323">
        <ele>312</ele>
        <time>2016-10-04T09:35:13Z</time>
      </trkpt>
      <trkpt lat="46.09787" lon="4.64316">
        <ele>312</ele>
        <time>2016-10-04T09:35:14Z</time>
      </trkpt>
      <trkpt lat="46.09787" lon="4.6431">
        <ele>312</ele>
        <time>2016-10-04T09:35:15Z</time>
      </trkpt>
      <trkpt lat="46.09788" lon="4.64303">
        <ele>312</ele>
        <time>2016-10-04T09:35:16Z</time>
      </trkpt>
      <trkpt lat="46.09789" lon="4.64296">
        <ele>312</ele>
        <time>2016-10-04T09:35:17Z</time>
      </trkpt>
      <trkpt lat="46.0979" lon="4.64289">
        <ele>312</ele>
        <time>2016-10-04T09:35:18Z</time>
      </trkpt>
      <trkpt lat="46.0979" lon="4.64282">
        <ele>312</ele>
        <time>2016-10-04T09:35:19Z</time>
      </trkpt>
      <trkpt lat="46.09791" lon="4.64275">
        <ele>312</ele>
        <time>2016-10-04T09:35:20Z</time>
      </trkpt>
      <trkpt lat="46.09791" lon="4.64268">
        <ele>312</ele>
        <time>2016-10-04T09:35:21Z</time>
      </trkpt>
      <trkpt lat="46.09792" lon="4.6426">
        <ele>312</ele>
        <time>2016-10-04T09:35:22Z</time>
      </trkpt>
      <trkpt lat="46.09792" lon="4.64253">
        <ele>312</ele>
        <time>2016-10-04T09:35:23Z</time>
      </trkpt>
      <trkpt lat="46.09794" lon="4.64245">
        <ele>315</ele>
        <time>2016-10-04T09:35:24Z</time>
      </trkpt>
      <trkpt lat="46.09795" lon="4.64238">
        <ele>315</ele>
        <time>2016-10-04T09:35:25Z</time>
      </trkpt>
      <trkpt lat="46.09797" lon="4.64231">
        <ele>314</ele>
        <time>2016-10-04T09:35:26Z</time>
      </trkpt>
      <trkpt lat="46.09798" lon="4.64223">
        <ele>315</ele>
        <time>2016-10-04T09:35:27Z</time>
      </trkpt>
      <trkpt lat="46.09799" lon="4.64216">
        <ele>315</ele>
        <time>2016-10-04T09:35:28Z</time>
      </trkpt>
      <trkpt lat="46.098" lon="4.64209">
        <ele>315</ele>
        <time>2016-10-04T09:35:29Z</time>
      </trkpt>
      <trkpt lat="46.09801" lon="4.64202">
        <ele>315</ele>
        <time>2016-10-04T09:35:30Z</time>
      </trkpt>
      <trkpt lat="46.09802" lon="4.64196">
        <ele>315</ele>
        <time>2016-10-04T09:35:31Z</time>
      </trkpt>
      <trkpt lat="46.09804" lon="4.64189">
        <ele>315</ele>
        <time>2016-10-04T09:35:32Z</time>
      </trkpt>
      <trkpt lat="46.09805" lon="4.64183">
        <ele>315</ele>
        <time>2016-10-04T09:35:33Z</time>
      </trkpt>
      <trkpt lat="46.09806" lon="4.64177">
        <ele>314</ele>
        <time>2016-10-04T09:35:34Z</time>
      </trkpt>
      <trkpt lat="46.09808" lon="4.64164">
        <ele>317</ele>
        <time>2016-10-04T09:35:36Z</time>
      </trkpt>
      <trkpt lat="46.09809" lon="4.64158">
        <ele>317</ele>
        <time>2016-10-04T09:35:37Z</time>
      </trkpt>
      <trkpt lat="46.09811" lon="4.64146">
        <ele>318</ele>
        <time>2016-10-04T09:35:39Z</time>
      </trkpt>
      <trkpt lat="46.09812" lon="4.6414">
        <ele>318</ele>
        <time>2016-10-04T09:35:40Z</time>
      </trkpt>
      <trkpt lat="46.09816" lon="4.64134">
        <ele>318</ele>
        <time>2016-10-04T09:35:41Z</time>
      </trkpt>
      <trkpt lat="46.09817" lon="4.64129">
        <ele>319</ele>
        <time>2016-10-04T09:35:42Z</time>
      </trkpt>
      <trkpt lat="46.09819" lon="4.6412">
        <ele>319</ele>
        <time>2016-10-04T09:35:44Z</time>
      </trkpt>
      <trkpt lat="46.09819" lon="4.64115">
        <ele>319</ele>
        <time>2016-10-04T09:35:45Z</time>
      </trkpt>
      <trkpt lat="46.09822" lon="4.64104">
        <ele>318</ele>
        <time>2016-10-04T09:35:47Z</time>
      </trkpt>
      <trkpt lat="46.09823" lon="4.64097">
        <ele>318</ele>
        <time>2016-10-04T09:35:48Z</time>
      </trkpt>
      <trkpt lat="46.09825" lon="4.64091">
        <ele>317</ele>
        <time>2016-10-04T09:35:49Z</time>
      </trkpt>
      <trkpt lat="46.09827" lon="4.64085">
        <ele>316</ele>
        <time>2016-10-04T09:35:50Z</time>
      </trkpt>
      <trkpt lat="46.09828" lon="4.64078">
        <ele>318</ele>
        <time>2016-10-04T09:35:51Z</time>
      </trkpt>
      <trkpt lat="46.0983" lon="4.64072">
        <ele>319</ele>
        <time>2016-10-04T09:35:52Z</time>
      </trkpt>
      <trkpt lat="46.09834" lon="4.64061">
        <ele>317</ele>
        <time>2016-10-04T09:35:54Z</time>
      </trkpt>
      <trkpt lat="46.09835" lon="4.64056">
        <ele>317</ele>
        <time>2016-10-04T09:35:55Z</time>
      </trkpt>
      <trkpt lat="46.09842" lon="4.64048">
        <ele>318</ele>
        <time>2016-10-04T09:35:57Z</time>
      </trkpt>
      <trkpt lat="46.09845" lon="4.64045">
        <ele>318</ele>
        <time>2016-10-04T09:35:58Z</time>
      </trkpt>
      <trkpt lat="46.09849" lon="4.64042">
        <ele>318</ele>
        <time>2016-10-04T09:35:59Z</time>
      </trkpt>
      <trkpt lat="46.09853" lon="4.64039">
        <ele>319</ele>
        <time>2016-10-04T09:36:00Z</time>
      </trkpt>
      <trkpt lat="46.09858" lon="4.64038">
        <ele>319</ele>
        <time>2016-10-04T09:36:01Z</time>
      </trkpt>
      <trkpt lat="46.09862" lon="4.64037">
        <ele>319</ele>
        <time>2016-10-04T09:36:02Z</time>
      </trkpt>
      <trkpt lat="46.09871" lon="4.64038">
        <ele>319</ele>
        <time>2016-10-04T09:36:04Z</time>
      </trkpt>
      <trkpt lat="46.09876" lon="4.64039">
        <ele>319</ele>
        <time>2016-10-04T09:36:05Z</time>
      </trkpt>
      <trkpt lat="46.09884" lon="4.64043">
        <ele>319</ele>
        <time>2016-10-04T09:36:07Z</time>
      </trkpt>
      <trkpt lat="46.09887" lon="4.64046">
        <ele>318</ele>
        <time>2016-10-04T09:36:08Z</time>
      </trkpt>
      <trkpt lat="46.09891" lon="4.64049">
        <ele>318</ele>
        <time>2016-10-04T09:36:09Z</time>
      </trkpt>
      <trkpt lat="46.09895" lon="4.64052">
        <ele>318</ele>
        <time>2016-10-04T09:36:10Z</time>
      </trkpt>
      <trkpt lat="46.09898" lon="4.64058">
        <ele>318</ele>
        <time>2016-10-04T09:36:11Z</time>
      </trkpt>
      <trkpt lat="46.09902" lon="4.64062">
        <ele>318</ele>
        <time>2016-10-04T09:36:12Z</time>
      </trkpt>
      <trkpt lat="46.09908" lon="4.6407">
        <ele>317</ele>
        <time>2016-10-04T09:36:14Z</time>
      </trkpt>
      <trkpt lat="46.09911" lon="4.64075">
        <ele>317</ele>
        <time>2016-10-04T09:36:15Z</time>
      </trkpt>
      <trkpt lat="46.09916" lon="4.64084">
        <ele>316</ele>
        <time>2016-10-04T09:36:17Z</time>
      </trkpt>
      <trkpt lat="46.09918" lon="4.64089">
        <ele>317</ele>
        <time>2016-10-04T09:36:18Z</time>
      </trkpt>
      <trkpt lat="46.09923" lon="4.64099">
        <ele>318</ele>
        <time>2016-10-04T09:36:20Z</time>
      </trkpt>
      <trkpt lat="46.09925" lon="4.64105">
        <ele>319</ele>
        <time>2016-10-04T09:36:21Z</time>
      </trkpt>
      <trkpt lat="46.09928" lon="4.64111">
        <ele>319</ele>
        <time>2016-10-04T09:36:22Z</time>
      </trkpt>
      <trkpt lat="46.09931" lon="4.64116">
        <ele>319</ele>
        <time>2016-10-04T09:36:23Z</time>
      </trkpt>
      <trkpt lat="46.09934" lon="4.64122">
        <ele>319</ele>
        <time>2016-10-04T09:36:24Z</time>
      </trkpt>
      <trkpt lat="46.09936" lon="4.64128">
        <ele>319</ele>
        <time>2016-10-04T09:36:25Z</time>
      </trkpt>
      <trkpt lat="46.09938" lon="4.64135">
        <ele>319</ele>
        <time>2016-10-04T09:36:26Z</time>
      </trkpt>
      <trkpt lat="46.09941" lon="4.64141">
        <ele>319</ele>
        <time>2016-10-04T09:36:27Z</time>
      </trkpt>
      <trkpt lat="46.09945" lon="4.64151">
        <ele>319</ele>
        <time>2016-10-04T09:36:29Z</time>
      </trkpt>
      <trkpt lat="46.09947" lon="4.64156">
        <ele>319</ele>
        <time>2016-10-04T09:36:30Z</time>
      </trkpt>
      <trkpt lat="46.0995" lon="4.64166">
        <ele>319</ele>
        <time>2016-10-04T09:36:32Z</time>
      </trkpt>
      <trkpt lat="46.09953" lon="4.64172">
        <ele>318</ele>
        <time>2016-10-04T09:36:33Z</time>
      </trkpt>
      <trkpt lat="46.09956" lon="4.64183">
        <ele>318</ele>
        <time>2016-10-04T09:36:35Z</time>
      </trkpt>
      <trkpt lat="46.09957" lon="4.64189">
        <ele>318</ele>
        <time>2016-10-04T09:36:36Z</time>
      </trkpt>
      <trkpt lat="46.0996" lon="4.642">
        <ele>318</ele>
        <time>2016-10-04T09:36:38Z</time>
      </trkpt>
      <trkpt lat="46.09962" lon="4.64205">
        <ele>318</ele>
        <time>2016-10-04T09:36:39Z</time>
      </trkpt>
      <trkpt lat="46.09965" lon="4.64217">
        <ele>318</ele>
        <time>2016-10-04T09:36:41Z</time>
      </trkpt>
      <trkpt lat="46.09967" lon="4.64224">
        <ele>318</ele>
        <time>2016-10-04T09:36:42Z</time>
      </trkpt>
      <trkpt lat="46.0997" lon="4.64234">
        <ele>318</ele>
        <time>2016-10-04T09:36:44Z</time>
      </trkpt>
      <trkpt lat="46.09971" lon="4.64239">
        <ele>319</ele>
        <time>2016-10-04T09:36:45Z</time>
      </trkpt>
      <trkpt lat="46.09973" lon="4.64248">
        <ele>319</ele>
        <time>2016-10-04T09:36:47Z</time>
      </trkpt>
      <trkpt lat="46.09974" lon="4.64252">
        <ele>317</ele>
        <time>2016-10-04T09:36:48Z</time>
      </trkpt>
      <trkpt lat="46.09977" lon="4.64262">
        <ele>317</ele>
        <time>2016-10-04T09:36:50Z</time>
      </trkpt>
      <trkpt lat="46.09978" lon="4.64267">
        <ele>317</ele>
        <time>2016-10-04T09:36:51Z</time>
      </trkpt>
      <trkpt lat="46.09981" lon="4.64277">
        <ele>317</ele>
        <time>2016-10-04T09:36:53Z</time>
      </trkpt>
      <trkpt lat="46.09982" lon="4.64281">
        <ele>317</ele>
        <time>2016-10-04T09:36:54Z</time>
      </trkpt>
      <trkpt lat="46.09985" lon="4.64291">
        <ele>317</ele>
        <time>2016-10-04T09:36:56Z</time>
      </trkpt>
      <trkpt lat="46.09986" lon="4.64295">
        <ele>317</ele>
        <time>2016-10-04T09:36:57Z</time>
      </trkpt>
      <trkpt lat="46.09991" lon="4.64304">
        <ele>317</ele>
        <time>2016-10-04T09:36:59Z</time>
      </trkpt>
      <trkpt lat="46.09993" lon="4.64308">
        <ele>317</ele>
        <time>2016-10-04T09:37:00Z</time>
      </trkpt>
      <trkpt lat="46.09999" lon="4.64314">
        <ele>317</ele>
        <time>2016-10-04T09:37:02Z</time>
      </trkpt>
      <trkpt lat="46.10002" lon="4.64317">
        <ele>320</ele>
        <time>2016-10-04T09:37:03Z</time>
      </trkpt>
      <trkpt lat="46.10008" lon="4.64322">
        <ele>320</ele>
        <time>2016-10-04T09:37:05Z</time>
      </trkpt>
      <trkpt lat="46.10011" lon="4.64325">
        <ele>320</ele>
        <time>2016-10-04T09:37:06Z</time>
      </trkpt>
      <trkpt lat="46.10018" lon="4.6433">
        <ele>320</ele>
        <time>2016-10-04T09:37:08Z</time>
      </trkpt>
      <trkpt lat="46.10021" lon="4.64332">
        <ele>320</ele>
        <time>2016-10-04T09:37:09Z</time>
      </trkpt>
      <trkpt lat="46.10029" lon="4.64335">
        <ele>318</ele>
        <time>2016-10-04T09:37:11Z</time>
      </trkpt>
      <trkpt lat="46.10032" lon="4.64338">
        <ele>317</ele>
        <time>2016-10-04T09:37:12Z</time>
      </trkpt>
      <trkpt lat="46.10041" lon="4.64339">
        <ele>317</ele>
        <time>2016-10-04T09:37:14Z</time>
      </trkpt>
      <trkpt lat="46.10045" lon="4.64339">
        <ele>317</ele>
        <time>2016-10-04T09:37:15Z</time>
      </trkpt>
      <trkpt lat="46.1005" lon="4.64339">
        <ele>317</ele>
        <time>2016-10-04T09:37:16Z</time>
      </trkpt>
      <trkpt lat="46.10055" lon="4.64339">
        <ele>317</ele>
        <time>2016-10-04T09:37:17Z</time>
      </trkpt>
      <trkpt lat="46.1006" lon="4.64338">
        <ele>318</ele>
        <time>2016-10-04T09:37:18Z</time>
      </trkpt>
      <trkpt lat="46.10065" lon="4.64336">
        <ele>318</ele>
        <time>2016-10-04T09:37:19Z</time>
      </trkpt>
      <trkpt lat="46.1007" lon="4.64334">
        <ele>318</ele>
        <time>2016-10-04T09:37:20Z</time>
      </trkpt>
      <trkpt lat="46.10075" lon="4.64334">
        <ele>318</ele>
        <time>2016-10-04T09:37:21Z</time>
      </trkpt>
      <trkpt lat="46.1008" lon="4.64333">
        <ele>319</ele>
        <time>2016-10-04T09:37:22Z</time>
      </trkpt>
      <trkpt lat="46.10085" lon="4.64333">
        <ele>319</ele>
        <time>2016-10-04T09:37:23Z</time>
      </trkpt>
      <trkpt lat="46.1009" lon="4.64332">
        <ele>320</ele>
        <time>2016-10-04T09:37:24Z</time>
      </trkpt>
      <trkpt lat="46.10095" lon="4.64331">
        <ele>320</ele>
        <time>2016-10-04T09:37:25Z</time>
      </trkpt>
      <trkpt lat="46.10099" lon="4.6433">
        <ele>321</ele>
        <time>2016-10-04T09:37:26Z</time>
      </trkpt>
      <trkpt lat="46.10104" lon="4.6433">
        <ele>321</ele>
        <time>2016-10-04T09:37:27Z</time>
      </trkpt>
      <trkpt lat="46.10109" lon="4.6433">
        <ele>321</ele>
        <time>2016-10-04T09:37:28Z</time>
      </trkpt>
      <trkpt lat="46.10114" lon="4.64329">
        <ele>321</ele>
        <time>2016-10-04T09:37:29Z</time>
      </trkpt>
      <trkpt lat="46.1012" lon="4.64328">
        <ele>321</ele>
        <time>2016-10-04T09:37:30Z</time>
      </trkpt>
      <trkpt lat="46.10125" lon="4.64327">
        <ele>321</ele>
        <time>2016-10-04T09:37:31Z</time>
      </trkpt>
      <trkpt lat="46.1013" lon="4.64326">
        <ele>321</ele>
        <time>2016-10-04T09:37:32Z</time>
      </trkpt>
      <trkpt lat="46.10135" lon="4.64326">
        <ele>321</ele>
        <time>2016-10-04T09:37:33Z</time>
      </trkpt>
      <trkpt lat="46.10141" lon="4.64326">
        <ele>321</ele>
        <time>2016-10-04T09:37:34Z</time>
      </trkpt>
      <trkpt lat="46.10146" lon="4.64325">
        <ele>321</ele>
        <time>2016-10-04T09:37:35Z</time>
      </trkpt>
      <trkpt lat="46.10152" lon="4.64324">
        <ele>321</ele>
        <time>2016-10-04T09:37:36Z</time>
      </trkpt>
      <trkpt lat="46.10157" lon="4.64323">
        <ele>320</ele>
        <time>2016-10-04T09:37:37Z</time>
      </trkpt>
      <trkpt lat="46.10162" lon="4.64322">
        <ele>320</ele>
        <time>2016-10-04T09:37:38Z</time>
      </trkpt>
      <trkpt lat="46.10168" lon="4.64322">
        <ele>320</ele>
        <time>2016-10-04T09:37:39Z</time>
      </trkpt>
      <trkpt lat="46.10173" lon="4.64321">
        <ele>320</ele>
        <time>2016-10-04T09:37:40Z</time>
      </trkpt>
      <trkpt lat="46.10178" lon="4.64321">
        <ele>320</ele>
        <time>2016-10-04T09:37:41Z</time>
      </trkpt>
      <trkpt lat="46.10183" lon="4.6432">
        <ele>321</ele>
        <time>2016-10-04T09:37:42Z</time>
      </trkpt>
      <trkpt lat="46.10188" lon="4.6432">
        <ele>321</ele>
        <time>2016-10-04T09:37:43Z</time>
      </trkpt>
      <trkpt lat="46.10194" lon="4.64319">
        <ele>321</ele>
        <time>2016-10-04T09:37:44Z</time>
      </trkpt>
      <trkpt lat="46.10199" lon="4.64317">
        <ele>322</ele>
        <time>2016-10-04T09:37:45Z</time>
      </trkpt>
      <trkpt lat="46.10208" lon="4.64316">
        <ele>322</ele>
        <time>2016-10-04T09:37:47Z</time>
      </trkpt>
      <trkpt lat="46.10213" lon="4.64315">
        <ele>322</ele>
        <time>2016-10-04T09:37:48Z</time>
      </trkpt>
      <trkpt lat="46.10217" lon="4.64313">
        <ele>322</ele>
        <time>2016-10-04T09:37:49Z</time>
      </trkpt>
      <trkpt lat="46.10222" lon="4.64311">
        <ele>322</ele>
        <time>2016-10-04T09:37:50Z</time>
      </trkpt>
      <trkpt lat="46.10226" lon="4.6431">
        <ele>322</ele>
        <time>2016-10-04T09:37:51Z</time>
      </trkpt>
      <trkpt lat="46.10231" lon="4.64308">
        <ele>322</ele>
        <time>2016-10-04T09:37:52Z</time>
      </trkpt>
      <trkpt lat="46.10236" lon="4.64306">
        <ele>322</ele>
        <time>2016-10-04T09:37:53Z</time>
      </trkpt>
      <trkpt lat="46.10241" lon="4.64304">
        <ele>322</ele>
        <time>2016-10-04T09:37:54Z</time>
      </trkpt>
      <trkpt lat="46.10245" lon="4.64302">
        <ele>322</ele>
        <time>2016-10-04T09:37:55Z</time>
      </trkpt>
      <trkpt lat="46.10249" lon="4.643">
        <ele>322</ele>
        <time>2016-10-04T09:37:56Z</time>
      </trkpt>
      <trkpt lat="46.10257" lon="4.64296">
        <ele>322</ele>
        <time>2016-10-04T09:37:58Z</time>
      </trkpt>
      <trkpt lat="46.1026" lon="4.64294">
        <ele>322</ele>
        <time>2016-10-04T09:37:59Z</time>
      </trkpt>
      <trkpt lat="46.10267" lon="4.64291">
        <ele>323</ele>
        <time>2016-10-04T09:38:01Z</time>
      </trkpt>
      <trkpt lat="46.10271" lon="4.64289">
        <ele>323</ele>
        <time>2016-10-04T09:38:02Z</time>
      </trkpt>
      <trkpt lat="46.10278" lon="4.64284">
        <ele>323</ele>
        <time>2016-10-04T09:38:04Z</time>
      </trkpt>
      <trkpt lat="46.10282" lon="4.64282">
        <ele>323</ele>
        <time>2016-10-04T09:38:05Z</time>
      </trkpt>
      <trkpt lat="46.1029" lon="4.64277">
        <ele>323</ele>
        <time>2016-10-04T09:38:07Z</time>
      </trkpt>
      <trkpt lat="46.10293" lon="4.64275">
        <ele>323</ele>
        <time>2016-10-04T09:38:08Z</time>
      </trkpt>
      <trkpt lat="46.10301" lon="4.64271">
        <ele>324</ele>
        <time>2016-10-04T09:38:10Z</time>
      </trkpt>
      <trkpt lat="46.10304" lon="4.64269">
        <ele>324</ele>
        <time>2016-10-04T09:38:11Z</time>
      </trkpt>
      <trkpt lat="46.10311" lon="4.64266">
        <ele>324</ele>
        <time>2016-10-04T09:38:13Z</time>
      </trkpt>
      <trkpt lat="46.10314" lon="4.64265">
        <ele>324</ele>
        <time>2016-10-04T09:38:14Z</time>
      </trkpt>
      <trkpt lat="46.10321" lon="4.64263">
        <ele>325</ele>
        <time>2016-10-04T09:38:16Z</time>
      </trkpt>
      <trkpt lat="46.10325" lon="4.64263">
        <ele>325</ele>
        <time>2016-10-04T09:38:17Z</time>
      </trkpt>
      <trkpt lat="46.10332" lon="4.64262">
        <ele>325</ele>
        <time>2016-10-04T09:38:19Z</time>
      </trkpt>
      <trkpt lat="46.10335" lon="4.64261">
        <ele>326</ele>
        <time>2016-10-04T09:38:20Z</time>
      </trkpt>
      <trkpt lat="46.10342" lon="4.64261">
        <ele>326</ele>
        <time>2016-10-04T09:38:22Z</time>
      </trkpt>
      <trkpt lat="46.10346" lon="4.64261">
        <ele>326</ele>
        <time>2016-10-04T09:38:23Z</time>
      </trkpt>
      <trkpt lat="46.10354" lon="4.64262">
        <ele>326</ele>
        <time>2016-10-04T09:38:25Z</time>
      </trkpt>
      <trkpt lat="46.10358" lon="4.64263">
        <ele>326</ele>
        <time>2016-10-04T09:38:26Z</time>
      </trkpt>
      <trkpt lat="46.10363" lon="4.64261">
        <ele>326</ele>
        <time>2016-10-04T09:38:27Z</time>
      </trkpt>
      <trkpt lat="46.10368" lon="4.64262">
        <ele>326</ele>
        <time>2016-10-04T09:38:28Z</time>
      </trkpt>
      <trkpt lat="46.10376" lon="4.64266">
        <ele>327</ele>
        <time>2016-10-04T09:38:30Z</time>
      </trkpt>
      <trkpt lat="46.1038" lon="4.64267">
        <ele>327</ele>
        <time>2016-10-04T09:38:31Z</time>
      </trkpt>
      <trkpt lat="46.10387" lon="4.64271">
        <ele>327</ele>
        <time>2016-10-04T09:38:33Z</time>
      </trkpt>
      <trkpt lat="46.1039" lon="4.64272">
        <ele>327</ele>
        <time>2016-10-04T09:38:34Z</time>
      </trkpt>
      <trkpt lat="46.10397" lon="4.64275">
        <ele>327</ele>
        <time>2016-10-04T09:38:36Z</time>
      </trkpt>
      <trkpt lat="46.104" lon="4.64277">
        <ele>327</ele>
        <time>2016-10-04T09:38:37Z</time>
      </trkpt>
      <trkpt lat="46.10407" lon="4.64279">
        <ele>327</ele>
        <time>2016-10-04T09:38:39Z</time>
      </trkpt>
      <trkpt lat="46.1041" lon="4.64281">
        <ele>327</ele>
        <time>2016-10-04T09:38:40Z</time>
      </trkpt>
      <trkpt lat="46.10417" lon="4.64286">
        <ele>331</ele>
        <time>2016-10-04T09:38:42Z</time>
      </trkpt>
      <trkpt lat="46.10421" lon="4.64287">
        <ele>331</ele>
        <time>2016-10-04T09:38:43Z</time>
      </trkpt>
      <trkpt lat="46.10427" lon="4.6429">
        <ele>331</ele>
        <time>2016-10-04T09:38:45Z</time>
      </trkpt>
      <trkpt lat="46.10431" lon="4.64291">
        <ele>331</ele>
        <time>2016-10-04T09:38:46Z</time>
      </trkpt>
      <trkpt lat="46.10438" lon="4.64294">
        <ele>331</ele>
        <time>2016-10-04T09:38:48Z</time>
      </trkpt>
      <trkpt lat="46.10442" lon="4.64296">
        <ele>331</ele>
        <time>2016-10-04T09:38:49Z</time>
      </trkpt>
      <trkpt lat="46.1045" lon="4.64292">
        <ele>332</ele>
        <time>2016-10-04T09:38:52Z</time>
      </trkpt>
      <trkpt lat="46.10452" lon="4.64293">
        <ele>332</ele>
        <time>2016-10-04T09:38:53Z</time>
      </trkpt>
      <trkpt lat="46.10456" lon="4.64296">
        <ele>332</ele>
        <time>2016-10-04T09:38:54Z</time>
      </trkpt>
      <trkpt lat="46.1046" lon="4.64299">
        <ele>332</ele>
        <time>2016-10-04T09:38:55Z</time>
      </trkpt>
      <trkpt lat="46.10468" lon="4.64304">
        <ele>332</ele>
        <time>2016-10-04T09:38:57Z</time>
      </trkpt>
      <trkpt lat="46.10471" lon="4.64306">
        <ele>332</ele>
        <time>2016-10-04T09:38:58Z</time>
      </trkpt>
      <trkpt lat="46.10478" lon="4.64312">
        <ele>332</ele>
        <time>2016-10-04T09:39:00Z</time>
      </trkpt>
      <trkpt lat="46.10481" lon="4.64315">
        <ele>332</ele>
        <time>2016-10-04T09:39:01Z</time>
      </trkpt>
      <trkpt lat="46.10488" lon="4.64318">
        <ele>332</ele>
        <time>2016-10-04T09:39:03Z</time>
      </trkpt>
      <trkpt lat="46.10491" lon="4.64319">
        <ele>332</ele>
        <time>2016-10-04T09:39:04Z</time>
      </trkpt>
      <trkpt lat="46.10498" lon="4.64322">
        <ele>332</ele>
        <time>2016-10-04T09:39:06Z</time>
      </trkpt>
      <trkpt lat="46.10502" lon="4.64324">
        <ele>334</ele>
        <time>2016-10-04T09:39:07Z</time>
      </trkpt>
      <trkpt lat="46.10508" lon="4.64326">
        <ele>334</ele>
        <time>2016-10-04T09:39:09Z</time>
      </trkpt>
      <trkpt lat="46.10512" lon="4.64327">
        <ele>334</ele>
        <time>2016-10-04T09:39:10Z</time>
      </trkpt>
      <trkpt lat="46.10519" lon="4.64329">
        <ele>334</ele>
        <time>2016-10-04T09:39:12Z</time>
      </trkpt>
      <trkpt lat="46.10522" lon="4.6433">
        <ele>335</ele>
        <time>2016-10-04T09:39:13Z</time>
      </trkpt>
      <trkpt lat="46.1053" lon="4.64332">
        <ele>335</ele>
        <time>2016-10-04T09:39:15Z</time>
      </trkpt>
      <trkpt lat="46.10534" lon="4.64332">
        <ele>335</ele>
        <time>2016-10-04T09:39:16Z</time>
      </trkpt>
      <trkpt lat="46.10542" lon="4.64333">
        <ele>335</ele>
        <time>2016-10-04T09:39:18Z</time>
      </trkpt>
      <trkpt lat="46.10545" lon="4.64334">
        <ele>332</ele>
        <time>2016-10-04T09:39:19Z</time>
      </trkpt>
      <trkpt lat="46.10552" lon="4.6434">
        <ele>332</ele>
        <time>2016-10-04T09:39:22Z</time>
      </trkpt>
      <trkpt lat="46.10556" lon="4.64338">
        <ele>332</ele>
        <time>2016-10-04T09:39:23Z</time>
      </trkpt>
      <trkpt lat="46.10564" lon="4.6434">
        <ele>333</ele>
        <time>2016-10-04T09:39:25Z</time>
      </trkpt>
      <trkpt lat="46.10568" lon="4.64339">
        <ele>333</ele>
        <time>2016-10-04T09:39:26Z</time>
      </trkpt>
      <trkpt lat="46.10573" lon="4.64338">
        <ele>334</ele>
        <time>2016-10-04T09:39:27Z</time>
      </trkpt>
      <trkpt lat="46.10578" lon="4.64337">
        <ele>334</ele>
        <time>2016-10-04T09:39:28Z</time>
      </trkpt>
      <trkpt lat="46.10586" lon="4.64339">
        <ele>334</ele>
        <time>2016-10-04T09:39:30Z</time>
      </trkpt>
      <trkpt lat="46.1059" lon="4.64341">
        <ele>334</ele>
        <time>2016-10-04T09:39:31Z</time>
      </trkpt>
      <trkpt lat="46.10596" lon="4.64336">
        <ele>334</ele>
        <time>2016-10-04T09:39:33Z</time>
      </trkpt>
      <trkpt lat="46.106" lon="4.64335">
        <ele>334</ele>
        <time>2016-10-04T09:39:34Z</time>
      </trkpt>
      <trkpt lat="46.10605" lon="4.64335">
        <ele>333</ele>
        <time>2016-10-04T09:39:35Z</time>
      </trkpt>
      <trkpt lat="46.1061" lon="4.64334">
        <ele>333</ele>
        <time>2016-10-04T09:39:36Z</time>
      </trkpt>
      <trkpt lat="46.10615" lon="4.64334">
        <ele>333</ele>
        <time>2016-10-04T09:39:37Z</time>
      </trkpt>
      <trkpt lat="46.1062" lon="4.64335">
        <ele>333</ele>
        <time>2016-10-04T09:39:38Z</time>
      </trkpt>
      <trkpt lat="46.10624" lon="4.64336">
        <ele>333</ele>
        <time>2016-10-04T09:39:39Z</time>
      </trkpt>
      <trkpt lat="46.10629" lon="4.64337">
        <ele>333</ele>
        <time>2016-10-04T09:39:40Z</time>
      </trkpt>
      <trkpt lat="46.10636" lon="4.64333">
        <ele>333</ele>
        <time>2016-10-04T09:39:41Z</time>
      </trkpt>
      <trkpt lat="46.10642" lon="4.64332">
        <ele>333</ele>
        <time>2016-10-04T09:39:42Z</time>
      </trkpt>
      <trkpt lat="46.10647" lon="4.64331">
        <ele>332</ele>
        <time>2016-10-04T09:39:43Z</time>
      </trkpt>
      <trkpt lat="46.10652" lon="4.6433">
        <ele>332</ele>
        <time>2016-10-04T09:39:44Z</time>
      </trkpt>
      <trkpt lat="46.10657" lon="4.64329">
        <ele>332</ele>
        <time>2016-10-04T09:39:45Z</time>
      </trkpt>
      <trkpt lat="46.10662" lon="4.64329">
        <ele>332</ele>
        <time>2016-10-04T09:39:46Z</time>
      </trkpt>
      <trkpt lat="46.1067" lon="4.64334">
        <ele>331</ele>
        <time>2016-10-04T09:39:48Z</time>
      </trkpt>
      <trkpt lat="46.10673" lon="4.6434">
        <ele>331</ele>
        <time>2016-10-04T09:39:49Z</time>
      </trkpt>
      <trkpt lat="46.10674" lon="4.64349">
        <ele>330</ele>
        <time>2016-10-04T09:39:51Z</time>
      </trkpt>
      <trkpt lat="46.10673" lon="4.64354">
        <ele>330</ele>
        <time>2016-10-04T09:39:52Z</time>
      </trkpt>
      <trkpt lat="46.10669" lon="4.64364">
        <ele>330</ele>
        <time>2016-10-04T09:39:55Z</time>
      </trkpt>
      <trkpt lat="46.10668" lon="4.64368">
        <ele>330</ele>
        <time>2016-10-04T09:39:56Z</time>
      </trkpt>
      <trkpt lat="46.10666" lon="4.64378">
        <ele>332</ele>
        <time>2016-10-04T09:39:58Z</time>
      </trkpt>
      <trkpt lat="46.10665" lon="4.64383">
        <ele>332</ele>
        <time>2016-10-04T09:39:59Z</time>
      </trkpt>
      <trkpt lat="46.10662" lon="4.64394">
        <ele>332</ele>
        <time>2016-10-04T09:40:01Z</time>
      </trkpt>
      <trkpt lat="46.10661" lon="4.64399">
        <ele>332</ele>
        <time>2016-10-04T09:40:02Z</time>
      </trkpt>
      <trkpt lat="46.10658" lon="4.64409">
        <ele>332</ele>
        <time>2016-10-04T09:40:04Z</time>
      </trkpt>
      <trkpt lat="46.10658" lon="4.64414">
        <ele>332</ele>
        <time>2016-10-04T09:40:05Z</time>
      </trkpt>
      <trkpt lat="46.10658" lon="4.64423">
        <ele>332</ele>
        <time>2016-10-04T09:40:07Z</time>
      </trkpt>
      <trkpt lat="46.10658" lon="4.64429">
        <ele>332</ele>
        <time>2016-10-04T09:40:08Z</time>
      </trkpt>
      <trkpt lat="46.1066" lon="4.64438">
        <ele>333</ele>
        <time>2016-10-04T09:40:10Z</time>
      </trkpt>
      <trkpt lat="46.10661" lon="4.64443">
        <ele>333</ele>
        <time>2016-10-04T09:40:11Z</time>
      </trkpt>
      <trkpt lat="46.10663" lon="4.64453">
        <ele>333</ele>
        <time>2016-10-04T09:40:13Z</time>
      </trkpt>
      <trkpt lat="46.10665" lon="4.64458">
        <ele>333</ele>
        <time>2016-10-04T09:40:14Z</time>
      </trkpt>
      <trkpt lat="46.10667" lon="4.64468">
        <ele>334</ele>
        <time>2016-10-04T09:40:16Z</time>
      </trkpt>
      <trkpt lat="46.10668" lon="4.64472">
        <ele>334</ele>
        <time>2016-10-04T09:40:17Z</time>
      </trkpt>
      <trkpt lat="46.10669" lon="4.64484">
        <ele>334</ele>
        <time>2016-10-04T09:40:19Z</time>
      </trkpt>
      <trkpt lat="46.1067" lon="4.6449">
        <ele>335</ele>
        <time>2016-10-04T09:40:20Z</time>
      </trkpt>
      <trkpt lat="46.10672" lon="4.64499">
        <ele>335</ele>
        <time>2016-10-04T09:40:22Z</time>
      </trkpt>
      <trkpt lat="46.10673" lon="4.64503">
        <ele>336</ele>
        <time>2016-10-04T09:40:23Z</time>
      </trkpt>
      <trkpt lat="46.10676" lon="4.64511">
        <ele>335</ele>
        <time>2016-10-04T09:40:25Z</time>
      </trkpt>
      <trkpt lat="46.10677" lon="4.64516">
        <ele>335</ele>
        <time>2016-10-04T09:40:26Z</time>
      </trkpt>
      <trkpt lat="46.10679" lon="4.64525">
        <ele>335</ele>
        <time>2016-10-04T09:40:28Z</time>
      </trkpt>
      <trkpt lat="46.1068" lon="4.64529">
        <ele>335</ele>
        <time>2016-10-04T09:40:29Z</time>
      </trkpt>
      <trkpt lat="46.10682" lon="4.64538">
        <ele>335</ele>
        <time>2016-10-04T09:40:31Z</time>
      </trkpt>
      <trkpt lat="46.10683" lon="4.64542">
        <ele>335</ele>
        <time>2016-10-04T09:40:32Z</time>
      </trkpt>
      <trkpt lat="46.10683" lon="4.64551">
        <ele>335</ele>
        <time>2016-10-04T09:40:34Z</time>
      </trkpt>
      <trkpt lat="46.10684" lon="4.64555">
        <ele>335</ele>
        <time>2016-10-04T09:40:35Z</time>
      </trkpt>
      <trkpt lat="46.10686" lon="4.64566">
        <ele>336</ele>
        <time>2016-10-04T09:40:38Z</time>
      </trkpt>
      <trkpt lat="46.10687" lon="4.6457">
        <ele>336</ele>
        <time>2016-10-04T09:40:39Z</time>
      </trkpt>
      <trkpt lat="46.1069" lon="4.64577">
        <ele>336</ele>
        <time>2016-10-04T09:40:41Z</time>
      </trkpt>
      <trkpt lat="46.10691" lon="4.64582">
        <ele>336</ele>
        <time>2016-10-04T09:40:42Z</time>
      </trkpt>
      <trkpt lat="46.10693" lon="4.64591">
        <ele>337</ele>
        <time>2016-10-04T09:40:44Z</time>
      </trkpt>
      <trkpt lat="46.10693" lon="4.64596">
        <ele>338</ele>
        <time>2016-10-04T09:40:45Z</time>
      </trkpt>
      <trkpt lat="46.10695" lon="4.64604">
        <ele>338</ele>
        <time>2016-10-04T09:40:47Z</time>
      </trkpt>
      <trkpt lat="46.10695" lon="4.64608">
        <ele>338</ele>
        <time>2016-10-04T09:40:48Z</time>
      </trkpt>
      <trkpt lat="46.10693" lon="4.6462">
        <ele>338</ele>
        <time>2016-10-04T09:40:51Z</time>
      </trkpt>
      <trkpt lat="46.10692" lon="4.64621">
        <ele>338</ele>
        <time>2016-10-04T09:40:52Z</time>
      </trkpt>
      <trkpt lat="46.10688" lon="4.64629">
        <ele>339</ele>
        <time>2016-10-04T09:40:55Z</time>
      </trkpt>
      <trkpt lat="46.10686" lon="4.64632">
        <ele>339</ele>
        <time>2016-10-04T09:40:56Z</time>
      </trkpt>
      <trkpt lat="46.10679" lon="4.6464">
        <ele>339</ele>
        <time>2016-10-04T09:40:59Z</time>
      </trkpt>
      <trkpt lat="46.10677" lon="4.64642">
        <ele>340</ele>
        <time>2016-10-04T09:41:00Z</time>
      </trkpt>
      <trkpt lat="46.10672" lon="4.6465">
        <ele>340</ele>
        <time>2016-10-04T09:41:03Z</time>
      </trkpt>
      <trkpt lat="46.1067" lon="4.64652">
        <ele>341</ele>
        <time>2016-10-04T09:41:04Z</time>
      </trkpt>
      <trkpt lat="46.10661" lon="4.64654">
        <ele>341</ele>
        <time>2016-10-04T09:41:07Z</time>
      </trkpt>
      <trkpt lat="46.10659" lon="4.64656">
        <ele>341</ele>
        <time>2016-10-04T09:41:08Z</time>
      </trkpt>
      <trkpt lat="46.10653" lon="4.64664">
        <ele>341</ele>
        <time>2016-10-04T09:41:11Z</time>
      </trkpt>
      <trkpt lat="46.10651" lon="4.64667">
        <ele>343</ele>
        <time>2016-10-04T09:41:12Z</time>
      </trkpt>
      <trkpt lat="46.1065" lon="4.6468">
        <ele>343</ele>
        <time>2016-10-04T09:41:14Z</time>
      </trkpt>
      <trkpt lat="46.1065" lon="4.64686">
        <ele>343</ele>
        <time>2016-10-04T09:41:15Z</time>
      </trkpt>
      <trkpt lat="46.10651" lon="4.64694">
        <ele>343</ele>
        <time>2016-10-04T09:41:16Z</time>
      </trkpt>
      <trkpt lat="46.10651" lon="4.64703">
        <ele>344</ele>
        <time>2016-10-04T09:41:17Z</time>
      </trkpt>
      <trkpt lat="46.10654" lon="4.64715">
        <ele>344</ele>
        <time>2016-10-04T09:41:18Z</time>
      </trkpt>
      <trkpt lat="46.10658" lon="4.6473">
        <ele>346</ele>
        <time>2016-10-04T09:41:19Z</time>
      </trkpt>
      <trkpt lat="46.10653" lon="4.64734">
        <ele>346</ele>
        <time>2016-10-04T09:41:21Z</time>
      </trkpt>
      <trkpt lat="46.10649" lon="4.64734">
        <ele>345</ele>
        <time>2016-10-04T09:41:22Z</time>
      </trkpt>
      <trkpt lat="46.10642" lon="4.64732">
        <ele>345</ele>
        <time>2016-10-04T09:41:24Z</time>
      </trkpt>
      <trkpt lat="46.10639" lon="4.64733">
        <ele>344</ele>
        <time>2016-10-04T09:41:25Z</time>
      </trkpt>
      <trkpt lat="46.1063" lon="4.64735">
        <ele>344</ele>
        <time>2016-10-04T09:41:28Z</time>
      </trkpt>
      <trkpt lat="46.10628" lon="4.64737">
        <ele>344</ele>
        <time>2016-10-04T09:41:29Z</time>
      </trkpt>
      <trkpt lat="46.10625" lon="4.64749">
        <ele>344</ele>
        <time>2016-10-04T09:41:35Z</time>
      </trkpt>
      <trkpt lat="46.10624" lon="4.64751">
        <ele>347</ele>
        <time>2016-10-04T09:41:36Z</time>
      </trkpt>
      <trkpt lat="46.10625" lon="4.64763">
        <ele>347</ele>
        <time>2016-10-04T09:41:41Z</time>
      </trkpt>
      <trkpt lat="46.10625" lon="4.64765">
        <ele>347</ele>
        <time>2016-10-04T09:41:42Z</time>
      </trkpt>
      <trkpt lat="46.10627" lon="4.64777">
        <ele>348</ele>
        <time>2016-10-04T09:41:47Z</time>
      </trkpt>
      <trkpt lat="46.10627" lon="4.64778">
        <ele>348</ele>
        <time>2016-10-04T09:41:48Z</time>
      </trkpt>
      <trkpt lat="46.10627" lon="4.64791">
        <ele>348</ele>
        <time>2016-10-04T09:41:55Z</time>
      </trkpt>
      <trkpt lat="46.10627" lon="4.64793">
        <ele>348</ele>
        <time>2016-10-04T09:41:56Z</time>
      </trkpt>
      <trkpt lat="46.10631" lon="4.64805">
        <ele>349</ele>
        <time>2016-10-04T09:42:02Z</time>
      </trkpt>
      <trkpt lat="46.10632" lon="4.64807">
        <ele>349</ele>
        <time>2016-10-04T09:42:03Z</time>
      </trkpt>
      <trkpt lat="46.10637" lon="4.64818">
        <ele>350</ele>
        <time>2016-10-04T09:42:09Z</time>
      </trkpt>
      <trkpt lat="46.10638" lon="4.64819">
        <ele>350</ele>
        <time>2016-10-04T09:42:10Z</time>
      </trkpt>
      <trkpt lat="46.10646" lon="4.64824">
        <ele>351</ele>
        <time>2016-10-04T09:42:15Z</time>
      </trkpt>
      <trkpt lat="46.10647" lon="4.64826">
        <ele>351</ele>
        <time>2016-10-04T09:42:16Z</time>
      </trkpt>
      <trkpt lat="46.10654" lon="4.64821">
        <ele>352</ele>
        <time>2016-10-04T09:42:21Z</time>
      </trkpt>
      <trkpt lat="46.10656" lon="4.6482">
        <ele>352</ele>
        <time>2016-10-04T09:42:22Z</time>
      </trkpt>
      <trkpt lat="46.10663" lon="4.64827">
        <ele>354</ele>
        <time>2016-10-04T09:42:26Z</time>
      </trkpt>
      <trkpt lat="46.10664" lon="4.64828">
        <ele>354</ele>
        <time>2016-10-04T09:42:27Z</time>
      </trkpt>
      <trkpt lat="46.10671" lon="4.64834">
        <ele>357</ele>
        <time>2016-10-04T09:42:32Z</time>
      </trkpt>
      <trkpt lat="46.10672" lon="4.64835">
        <ele>358</ele>
        <time>2016-10-04T09:42:33Z</time>
      </trkpt>
      <trkpt lat="46.10675" lon="4.64846">
        <ele>359</ele>
        <time>2016-10-04T09:42:38Z</time>
      </trkpt>
      <trkpt lat="46.10675" lon="4.64849">
        <ele>360</ele>
        <time>2016-10-04T09:42:39Z</time>
      </trkpt>
      <trkpt lat="46.10677" lon="4.6486">
        <ele>361</ele>
        <time>2016-10-04T09:42:44Z</time>
      </trkpt>
      <trkpt lat="46.10677" lon="4.64861">
        <ele>362</ele>
        <time>2016-10-04T09:42:45Z</time>
      </trkpt>
      <trkpt lat="46.10674" lon="4.64873">
        <ele>363</ele>
        <time>2016-10-04T09:42:51Z</time>
      </trkpt>
      <trkpt lat="46.10674" lon="4.64875">
        <ele>363</ele>
        <time>2016-10-04T09:42:52Z</time>
      </trkpt>
      <trkpt lat="46.10667" lon="4.64883">
        <ele>364</ele>
        <time>2016-10-04T09:42:57Z</time>
      </trkpt>
      <trkpt lat="46.10667" lon="4.64885">
        <ele>364</ele>
        <time>2016-10-04T09:42:58Z</time>
      </trkpt>
      <trkpt lat="46.10665" lon="4.64896">
        <ele>361</ele>
        <time>2016-10-04T09:43:03Z</time>
      </trkpt>
      <trkpt lat="46.10665" lon="4.64899">
        <ele>361</ele>
        <time>2016-10-04T09:43:04Z</time>
      </trkpt>
      <trkpt lat="46.10664" lon="4.6491">
        <ele>364</ele>
        <time>2016-10-04T09:43:09Z</time>
      </trkpt>
      <trkpt lat="46.10663" lon="4.64912">
        <ele>365</ele>
        <time>2016-10-04T09:43:10Z</time>
      </trkpt>
      <trkpt lat="46.10658" lon="4.6492">
        <ele>368</ele>
        <time>2016-10-04T09:43:16Z</time>
      </trkpt>
      <trkpt lat="46.10656" lon="4.64923">
        <ele>368</ele>
        <time>2016-10-04T09:43:17Z</time>
      </trkpt>
      <trkpt lat="46.10654" lon="4.64934">
        <ele>369</ele>
        <time>2016-10-04T09:43:21Z</time>
      </trkpt>
      <trkpt lat="46.10652" lon="4.64937">
        <ele>369</ele>
        <time>2016-10-04T09:43:22Z</time>
      </trkpt>
      <trkpt lat="46.10647" lon="4.64945">
        <ele>370</ele>
        <time>2016-10-04T09:43:26Z</time>
      </trkpt>
      <trkpt lat="46.10646" lon="4.64946">
        <ele>370</ele>
        <time>2016-10-04T09:43:27Z</time>
      </trkpt>
      <trkpt lat="46.10639" lon="4.64953">
        <ele>370</ele>
        <time>2016-10-04T09:43:32Z</time>
      </trkpt>
      <trkpt lat="46.10637" lon="4.64955">
        <ele>370</ele>
        <time>2016-10-04T09:43:33Z</time>
      </trkpt>
      <trkpt lat="46.10629" lon="4.64961">
        <ele>371</ele>
        <time>2016-10-04T09:43:38Z</time>
      </trkpt>
      <trkpt lat="46.10628" lon="4.64963">
        <ele>371</ele>
        <time>2016-10-04T09:43:39Z</time>
      </trkpt>
      <trkpt lat="46.1062" lon="4.64968">
        <ele>371</ele>
        <time>2016-10-04T09:43:44Z</time>
      </trkpt>
      <trkpt lat="46.10619" lon="4.64969">
        <ele>371</ele>
        <time>2016-10-04T09:43:45Z</time>
      </trkpt>
      <trkpt lat="46.10611" lon="4.64973">
        <ele>371</ele>
        <time>2016-10-04T09:43:50Z</time>
      </trkpt>
      <trkpt lat="46.1061" lon="4.64974">
        <ele>371</ele>
        <time>2016-10-04T09:43:51Z</time>
      </trkpt>
      <trkpt lat="46.10604" lon="4.64981">
        <ele>371</ele>
        <time>2016-10-04T09:43:55Z</time>
      </trkpt>
      <trkpt lat="46.10603" lon="4.64982">
        <ele>371</ele>
        <time>2016-10-04T09:43:56Z</time>
      </trkpt>
      <trkpt lat="46.10594" lon="4.64984">
        <ele>372</ele>
        <time>2016-10-04T09:44:00Z</time>
      </trkpt>
      <trkpt lat="46.10593" lon="4.64985">
        <ele>372</ele>
        <time>2016-10-04T09:44:01Z</time>
      </trkpt>
      <trkpt lat="46.10588" lon="4.64995">
        <ele>373</ele>
        <time>2016-10-04T09:44:06Z</time>
      </trkpt>
      <trkpt lat="46.10586" lon="4.64996">
        <ele>373</ele>
        <time>2016-10-04T09:44:07Z</time>
      </trkpt>
      <trkpt lat="46.1058" lon="4.65006">
        <ele>375</ele>
        <time>2016-10-04T09:44:12Z</time>
      </trkpt>
      <trkpt lat="46.10579" lon="4.65008">
        <ele>375</ele>
        <time>2016-10-04T09:44:13Z</time>
      </trkpt>
      <trkpt lat="46.10572" lon="4.65014">
        <ele>376</ele>
        <time>2016-10-04T09:44:17Z</time>
      </trkpt>
      <trkpt lat="46.1057" lon="4.65015">
        <ele>376</ele>
        <time>2016-10-04T09:44:18Z</time>
      </trkpt>
      <trkpt lat="46.10562" lon="4.65019">
        <ele>376</ele>
        <time>2016-10-04T09:44:23Z</time>
      </trkpt>
      <trkpt lat="46.10561" lon="4.6502">
        <ele>376</ele>
        <time>2016-10-04T09:44:24Z</time>
      </trkpt>
      <trkpt lat="46.10553" lon="4.65024">
        <ele>376</ele>
        <time>2016-10-04T09:44:29Z</time>
      </trkpt>
      <trkpt lat="46.10552" lon="4.65026">
        <ele>377</ele>
        <time>2016-10-04T09:44:30Z</time>
      </trkpt>
      <trkpt lat="46.10545" lon="4.65031">
        <ele>377</ele>
        <time>2016-10-04T09:44:34Z</time>
      </trkpt>
      <trkpt lat="46.10544" lon="4.65033">
        <ele>377</ele>
        <time>2016-10-04T09:44:35Z</time>
      </trkpt>
      <trkpt lat="46.10537" lon="4.65041">
        <ele>377</ele>
        <time>2016-10-04T09:44:40Z</time>
      </trkpt>
      <trkpt lat="46.10536" lon="4.65042">
        <ele>377</ele>
        <time>2016-10-04T09:44:41Z</time>
      </trkpt>
      <trkpt lat="46.10531" lon="4.6505">
        <ele>378</ele>
        <time>2016-10-04T09:44:46Z</time>
      </trkpt>
      <trkpt lat="46.1053" lon="4.65052">
        <ele>378</ele>
        <time>2016-10-04T09:44:47Z</time>
      </trkpt>
      <trkpt lat="46.10524" lon="4.65058">
        <ele>379</ele>
        <time>2016-10-04T09:44:52Z</time>
      </trkpt>
      <trkpt lat="46.10522" lon="4.65059">
        <ele>379</ele>
        <time>2016-10-04T09:44:53Z</time>
      </trkpt>
      <trkpt lat="46.10516" lon="4.65064">
        <ele>379</ele>
        <time>2016-10-04T09:44:57Z</time>
      </trkpt>
      <trkpt lat="46.10514" lon="4.65065">
        <ele>380</ele>
        <time>2016-10-04T09:44:58Z</time>
      </trkpt>
      <trkpt lat="46.10508" lon="4.65072">
        <ele>381</ele>
        <time>2016-10-04T09:45:02Z</time>
      </trkpt>
      <trkpt lat="46.10507" lon="4.65074">
        <ele>381</ele>
        <time>2016-10-04T09:45:03Z</time>
      </trkpt>
      <trkpt lat="46.105" lon="4.65082">
        <ele>383</ele>
        <time>2016-10-04T09:45:08Z</time>
      </trkpt>
      <trkpt lat="46.10499" lon="4.65084">
        <ele>383</ele>
        <time>2016-10-04T09:45:09Z</time>
      </trkpt>
      <trkpt lat="46.10493" lon="4.65092">
        <ele>384</ele>
        <time>2016-10-04T09:45:15Z</time>
      </trkpt>
      <trkpt lat="46.10491" lon="4.65094">
        <ele>384</ele>
        <time>2016-10-04T09:45:16Z</time>
      </trkpt>
      <trkpt lat="46.10486" lon="4.65102">
        <ele>385</ele>
        <time>2016-10-04T09:45:21Z</time>
      </trkpt>
      <trkpt lat="46.10484" lon="4.65104">
        <ele>385</ele>
        <time>2016-10-04T09:45:22Z</time>
      </trkpt>
      <trkpt lat="46.10479" lon="4.65113">
        <ele>386</ele>
        <time>2016-10-04T09:45:27Z</time>
      </trkpt>
      <trkpt lat="46.10478" lon="4.65114">
        <ele>386</ele>
        <time>2016-10-04T09:45:28Z</time>
      </trkpt>
      <trkpt lat="46.1047" lon="4.6512">
        <ele>386</ele>
        <time>2016-10-04T09:45:33Z</time>
      </trkpt>
      <trkpt lat="46.10469" lon="4.65122">
        <ele>386</ele>
        <time>2016-10-04T09:45:34Z</time>
      </trkpt>
      <trkpt lat="46.10463" lon="4.65129">
        <ele>387</ele>
        <time>2016-10-04T09:45:39Z</time>
      </trkpt>
      <trkpt lat="46.10461" lon="4.6513">
        <ele>387</ele>
        <time>2016-10-04T09:45:40Z</time>
      </trkpt>
      <trkpt lat="46.10454" lon="4.65136">
        <ele>387</ele>
        <time>2016-10-04T09:45:44Z</time>
      </trkpt>
      <trkpt lat="46.10452" lon="4.65137">
        <ele>387</ele>
        <time>2016-10-04T09:45:45Z</time>
      </trkpt>
      <trkpt lat="46.10447" lon="4.65146">
        <ele>387</ele>
        <time>2016-10-04T09:45:50Z</time>
      </trkpt>
      <trkpt lat="46.10446" lon="4.65148">
        <ele>387</ele>
        <time>2016-10-04T09:45:51Z</time>
      </trkpt>
      <trkpt lat="46.1044" lon="4.65157">
        <ele>387</ele>
        <time>2016-10-04T09:45:56Z</time>
      </trkpt>
      <trkpt lat="46.10439" lon="4.65158">
        <ele>387</ele>
        <time>2016-10-04T09:45:57Z</time>
      </trkpt>
      <trkpt lat="46.10433" lon="4.65164">
        <ele>388</ele>
        <time>2016-10-04T09:46:01Z</time>
      </trkpt>
      <trkpt lat="46.10432" lon="4.65166">
        <ele>388</ele>
        <time>2016-10-04T09:46:02Z</time>
      </trkpt>
      <trkpt lat="46.10426" lon="4.65176">
        <ele>394</ele>
        <time>2016-10-04T09:46:07Z</time>
      </trkpt>
      <trkpt lat="46.10425" lon="4.65178">
        <ele>394</ele>
        <time>2016-10-04T09:46:08Z</time>
      </trkpt>
      <trkpt lat="46.10422" lon="4.65189">
        <ele>396</ele>
        <time>2016-10-04T09:46:13Z</time>
      </trkpt>
      <trkpt lat="46.10421" lon="4.65192">
        <ele>397</ele>
        <time>2016-10-04T09:46:14Z</time>
      </trkpt>
      <trkpt lat="46.1042" lon="4.65205">
        <ele>399</ele>
        <time>2016-10-04T09:46:19Z</time>
      </trkpt>
      <trkpt lat="46.1042" lon="4.65207">
        <ele>399</ele>
        <time>2016-10-04T09:46:20Z</time>
      </trkpt>
      <trkpt lat="46.1042" lon="4.65219">
        <ele>400</ele>
        <time>2016-10-04T09:46:25Z</time>
      </trkpt>
      <trkpt lat="46.10421" lon="4.65222">
        <ele>400</ele>
        <time>2016-10-04T09:46:26Z</time>
      </trkpt>
      <trkpt lat="46.10421" lon="4.65228">
        <ele>400</ele>
        <time>2016-10-04T09:46:28Z</time>
      </trkpt>
      <trkpt lat="46.10421" lon="4.65229">
        <ele>400</ele>
        <time>2016-10-04T09:46:29Z</time>
      </trkpt>
      <trkpt lat="46.10421" lon="4.6523">
        <ele>400</ele>
        <time>2016-10-04T09:46:30Z</time>
      </trkpt>
      <trkpt lat="46.10422" lon="4.65233">
        <ele>400</ele>
        <time>2016-10-04T09:46:31Z</time>
      </trkpt>
      <trkpt lat="46.10424" lon="4.65245">
        <ele>400</ele>
        <time>2016-10-04T09:46:36Z</time>
      </trkpt>
      <trkpt lat="46.10425" lon="4.65248">
        <ele>400</ele>
        <time>2016-10-04T09:46:37Z</time>
      </trkpt>
      <trkpt lat="46.10428" lon="4.65259">
        <ele>404</ele>
        <time>2016-10-04T09:46:42Z</time>
      </trkpt>
      <trkpt lat="46.10428" lon="4.65262">
        <ele>405</ele>
        <time>2016-10-04T09:46:43Z</time>
      </trkpt>
      <trkpt lat="46.10429" lon="4.65273">
        <ele>407</ele>
        <time>2016-10-04T09:46:47Z</time>
      </trkpt>
      <trkpt lat="46.1043" lon="4.65275">
        <ele>407</ele>
        <time>2016-10-04T09:46:48Z</time>
      </trkpt>
      <trkpt lat="46.10433" lon="4.65286">
        <ele>408</ele>
        <time>2016-10-04T09:46:55Z</time>
      </trkpt>
      <trkpt lat="46.10433" lon="4.65288">
        <ele>408</ele>
        <time>2016-10-04T09:46:56Z</time>
      </trkpt>
      <trkpt lat="46.10433" lon="4.65301">
        <ele>408</ele>
        <time>2016-10-04T09:47:01Z</time>
      </trkpt>
      <trkpt lat="46.10433" lon="4.65303">
        <ele>408</ele>
        <time>2016-10-04T09:47:02Z</time>
      </trkpt>
      <trkpt lat="46.10438" lon="4.65314">
        <ele>408</ele>
        <time>2016-10-04T09:47:08Z</time>
      </trkpt>
      <trkpt lat="46.10438" lon="4.65315">
        <ele>408</ele>
        <time>2016-10-04T09:47:09Z</time>
      </trkpt>
      <trkpt lat="46.10442" lon="4.65325">
        <ele>408</ele>
        <time>2016-10-04T09:47:14Z</time>
      </trkpt>
      <trkpt lat="46.10442" lon="4.65328">
        <ele>409</ele>
        <time>2016-10-04T09:47:15Z</time>
      </trkpt>
      <trkpt lat="46.10444" lon="4.6534">
        <ele>410</ele>
        <time>2016-10-04T09:47:20Z</time>
      </trkpt>
      <trkpt lat="46.10445" lon="4.65342">
        <ele>410</ele>
        <time>2016-10-04T09:47:21Z</time>
      </trkpt>
      <trkpt lat="46.10447" lon="4.65354">
        <ele>411</ele>
        <time>2016-10-04T09:47:26Z</time>
      </trkpt>
      <trkpt lat="46.10448" lon="4.65356">
        <ele>411</ele>
        <time>2016-10-04T09:47:27Z</time>
      </trkpt>
      <trkpt lat="46.10451" lon="4.65367">
        <ele>412</ele>
        <time>2016-10-04T09:47:33Z</time>
      </trkpt>
      <trkpt lat="46.10452" lon="4.65369">
        <ele>412</ele>
        <time>2016-10-04T09:47:34Z</time>
      </trkpt>
      <trkpt lat="46.10453" lon="4.65382">
        <ele>412</ele>
        <time>2016-10-04T09:47:40Z</time>
      </trkpt>
      <trkpt lat="46.10453" lon="4.65383">
        <ele>412</ele>
        <time>2016-10-04T09:47:41Z</time>
      </trkpt>
      <trkpt lat="46.10455" lon="4.65395">
        <ele>412</ele>
        <time>2016-10-04T09:47:46Z</time>
      </trkpt>
      <trkpt lat="46.10455" lon="4.65397">
        <ele>412</ele>
        <time>2016-10-04T09:47:47Z</time>
      </trkpt>
      <trkpt lat="46.10461" lon="4.65407">
        <ele>413</ele>
        <time>2016-10-04T09:47:52Z</time>
      </trkpt>
      <trkpt lat="46.10462" lon="4.65408">
        <ele>414</ele>
        <time>2016-10-04T09:47:53Z</time>
      </trkpt>
      <trkpt lat="46.10464" lon="4.6542">
        <ele>413</ele>
        <time>2016-10-04T09:47:58Z</time>
      </trkpt>
      <trkpt lat="46.10464" lon="4.65422">
        <ele>413</ele>
        <time>2016-10-04T09:47:59Z</time>
      </trkpt>
      <trkpt lat="46.10466" lon="4.65434">
        <ele>413</ele>
        <time>2016-10-04T09:48:04Z</time>
      </trkpt>
      <trkpt lat="46.10466" lon="4.65436">
        <ele>413</ele>
        <time>2016-10-04T09:48:05Z</time>
      </trkpt>
      <trkpt lat="46.1047" lon="4.65447">
        <ele>413</ele>
        <time>2016-10-04T09:48:10Z</time>
      </trkpt>
      <trkpt lat="46.1047" lon="4.6545">
        <ele>413</ele>
        <time>2016-10-04T09:48:11Z</time>
      </trkpt>
      <trkpt lat="46.10472" lon="4.6546">
        <ele>413</ele>
        <time>2016-10-04T09:48:15Z</time>
      </trkpt>
      <trkpt lat="46.10472" lon="4.65462">
        <ele>413</ele>
        <time>2016-10-04T09:48:16Z</time>
      </trkpt>
      <trkpt lat="46.10475" lon="4.65474">
        <ele>414</ele>
        <time>2016-10-04T09:48:22Z</time>
      </trkpt>
      <trkpt lat="46.10475" lon="4.65477">
        <ele>414</ele>
        <time>2016-10-04T09:48:23Z</time>
      </trkpt>
      <trkpt lat="46.10477" lon="4.65488">
        <ele>415</ele>
        <time>2016-10-04T09:48:28Z</time>
      </trkpt>
      <trkpt lat="46.10478" lon="4.6549">
        <ele>416</ele>
        <time>2016-10-04T09:48:29Z</time>
      </trkpt>
      <trkpt lat="46.10481" lon="4.65501">
        <ele>415</ele>
        <time>2016-10-04T09:48:36Z</time>
      </trkpt>
      <trkpt lat="46.10482" lon="4.65502">
        <ele>416</ele>
        <time>2016-10-04T09:48:37Z</time>
      </trkpt>
      <trkpt lat="46.10488" lon="4.65512">
        <ele>416</ele>
        <time>2016-10-04T09:48:43Z</time>
      </trkpt>
      <trkpt lat="46.10489" lon="4.65512">
        <ele>417</ele>
        <time>2016-10-04T09:48:44Z</time>
      </trkpt>
      <trkpt lat="46.10497" lon="4.6551">
        <ele>420</ele>
        <time>2016-10-04T09:48:49Z</time>
      </trkpt>
      <trkpt lat="46.10499" lon="4.65509">
        <ele>420</ele>
        <time>2016-10-04T09:48:50Z</time>
      </trkpt>
      <trkpt lat="46.10504" lon="4.65501">
        <ele>428</ele>
        <time>2016-10-04T09:48:54Z</time>
      </trkpt>
      <trkpt lat="46.10505" lon="4.65498">
        <ele>429</ele>
        <time>2016-10-04T09:48:55Z</time>
      </trkpt>
      <trkpt lat="46.1051" lon="4.6549">
        <ele>433</ele>
        <time>2016-10-04T09:48:58Z</time>
      </trkpt>
      <trkpt lat="46.1051" lon="4.65488">
        <ele>434</ele>
        <time>2016-10-04T09:48:59Z</time>
      </trkpt>
      <trkpt lat="46.10512" lon="4.65476">
        <ele>436</ele>
        <time>2016-10-04T09:49:03Z</time>
      </trkpt>
      <trkpt lat="46.10513" lon="4.65474">
        <ele>436</ele>
        <time>2016-10-04T09:49:04Z</time>
      </trkpt>
      <trkpt lat="46.10509" lon="4.65462">
        <ele>437</ele>
        <time>2016-10-04T09:49:09Z</time>
      </trkpt>
      <trkpt lat="46.10508" lon="4.65459">
        <ele>437</ele>
        <time>2016-10-04T09:49:10Z</time>
      </trkpt>
      <trkpt lat="46.10504" lon="4.65449">
        <ele>437</ele>
        <time>2016-10-04T09:49:16Z</time>
      </trkpt>
      <trkpt lat="46.10504" lon="4.65447">
        <ele>436</ele>
        <time>2016-10-04T09:49:17Z</time>
      </trkpt>
      <trkpt lat="46.10502" lon="4.65436">
        <ele>435</ele>
        <time>2016-10-04T09:49:22Z</time>
      </trkpt>
      <trkpt lat="46.10502" lon="4.65433">
        <ele>435</ele>
        <time>2016-10-04T09:49:23Z</time>
      </trkpt>
      <trkpt lat="46.105" lon="4.65421">
        <ele>426</ele>
        <time>2016-10-04T09:49:27Z</time>
      </trkpt>
      <trkpt lat="46.105" lon="4.65418">
        <ele>428</ele>
        <time>2016-10-04T09:49:28Z</time>
      </trkpt>
      <trkpt lat="46.10497" lon="4.65408">
        <ele>424</ele>
        <time>2016-10-04T09:49:32Z</time>
      </trkpt>
      <trkpt lat="46.10497" lon="4.65405">
        <ele>423</ele>
        <time>2016-10-04T09:49:33Z</time>
      </trkpt>
      <trkpt lat="46.10498" lon="4.65395">
        <ele>420</ele>
        <time>2016-10-04T09:49:37Z</time>
      </trkpt>
      <trkpt lat="46.10498" lon="4.65392">
        <ele>420</ele>
        <time>2016-10-04T09:49:38Z</time>
      </trkpt>
      <trkpt lat="46.10502" lon="4.65383">
        <ele>435</ele>
        <time>2016-10-04T09:49:43Z</time>
      </trkpt>
      <trkpt lat="46.10503" lon="4.65381">
        <ele>436</ele>
        <time>2016-10-04T09:49:44Z</time>
      </trkpt>
      <trkpt lat="46.10508" lon="4.65374">
        <ele>436</ele>
        <time>2016-10-04T09:49:48Z</time>
      </trkpt>
      <trkpt lat="46.1051" lon="4.65372">
        <ele>436</ele>
        <time>2016-10-04T09:49:49Z</time>
      </trkpt>
      <trkpt lat="46.10516" lon="4.65363">
        <ele>436</ele>
        <time>2016-10-04T09:49:54Z</time>
      </trkpt>
      <trkpt lat="46.10518" lon="4.65361">
        <ele>436</ele>
        <time>2016-10-04T09:49:55Z</time>
      </trkpt>
      <trkpt lat="46.10523" lon="4.65351">
        <ele>436</ele>
        <time>2016-10-04T09:50:00Z</time>
      </trkpt>
      <trkpt lat="46.10523" lon="4.6535">
        <ele>436</ele>
        <time>2016-10-04T09:50:01Z</time>
      </trkpt>
      <trkpt lat="46.10523" lon="4.65349">
        <ele>436</ele>
        <time>2016-10-04T09:50:02Z</time>
      </trkpt>
      <trkpt lat="46.10524" lon="4.65347">
        <ele>436</ele>
        <time>2016-10-04T09:50:03Z</time>
      </trkpt>
      <trkpt lat="46.10529" lon="4.65339">
        <ele>436</ele>
        <time>2016-10-04T09:50:08Z</time>
      </trkpt>
      <trkpt lat="46.10531" lon="4.65338">
        <ele>437</ele>
        <time>2016-10-04T09:50:09Z</time>
      </trkpt>
      <trkpt lat="46.10537" lon="4.6533">
        <ele>433</ele>
        <time>2016-10-04T09:50:14Z</time>
      </trkpt>
      <trkpt lat="46.10538" lon="4.65329">
        <ele>433</ele>
        <time>2016-10-04T09:50:15Z</time>
      </trkpt>
      <trkpt lat="46.10544" lon="4.65323">
        <ele>434</ele>
        <time>2016-10-04T09:50:19Z</time>
      </trkpt>
      <trkpt lat="46.10546" lon="4.65322">
        <ele>434</ele>
        <time>2016-10-04T09:50:20Z</time>
      </trkpt>
      <trkpt lat="46.10552" lon="4.65317">
        <ele>435</ele>
        <time>2016-10-04T09:50:25Z</time>
      </trkpt>
      <trkpt lat="46.10554" lon="4.65315">
        <ele>435</ele>
        <time>2016-10-04T09:50:26Z</time>
      </trkpt>
      <trkpt lat="46.10562" lon="4.65312">
        <ele>436</ele>
        <time>2016-10-04T09:50:33Z</time>
      </trkpt>
      <trkpt lat="46.10563" lon="4.65313">
        <ele>436</ele>
        <time>2016-10-04T09:50:34Z</time>
      </trkpt>
      <trkpt lat="46.10571" lon="4.65309">
        <ele>436</ele>
        <time>2016-10-04T09:50:39Z</time>
      </trkpt>
      <trkpt lat="46.10573" lon="4.65309">
        <ele>436</ele>
        <time>2016-10-04T09:50:40Z</time>
      </trkpt>
      <trkpt lat="46.10581" lon="4.65305">
        <ele>436</ele>
        <time>2016-10-04T09:50:44Z</time>
      </trkpt>
      <trkpt lat="46.10583" lon="4.65304">
        <ele>436</ele>
        <time>2016-10-04T09:50:45Z</time>
      </trkpt>
      <trkpt lat="46.1059" lon="4.65299">
        <ele>444</ele>
        <time>2016-10-04T09:50:50Z</time>
      </trkpt>
      <trkpt lat="46.10592" lon="4.65298">
        <ele>444</ele>
        <time>2016-10-04T09:50:51Z</time>
      </trkpt>
      <trkpt lat="46.106" lon="4.65294">
        <ele>444</ele>
        <time>2016-10-04T09:50:55Z</time>
      </trkpt>
      <trkpt lat="46.10602" lon="4.65293">
        <ele>444</ele>
        <time>2016-10-04T09:50:56Z</time>
      </trkpt>
      <trkpt lat="46.10609" lon="4.65288">
        <ele>444</ele>
        <time>2016-10-04T09:50:59Z</time>
      </trkpt>
      <trkpt lat="46.10611" lon="4.65286">
        <ele>444</ele>
        <time>2016-10-04T09:51:00Z</time>
      </trkpt>
      <trkpt lat="46.10618" lon="4.65285">
        <ele>445</ele>
        <time>2016-10-04T09:51:04Z</time>
      </trkpt>
      <trkpt lat="46.1062" lon="4.65284">
        <ele>445</ele>
        <time>2016-10-04T09:51:05Z</time>
      </trkpt>
      <trkpt lat="46.10628" lon="4.65279">
        <ele>445</ele>
        <time>2016-10-04T09:51:09Z</time>
      </trkpt>
      <trkpt lat="46.10629" lon="4.65279">
        <ele>445</ele>
        <time>2016-10-04T09:51:10Z</time>
      </trkpt>
      <trkpt lat="46.10637" lon="4.65278">
        <ele>445</ele>
        <time>2016-10-04T09:51:16Z</time>
      </trkpt>
      <trkpt lat="46.10638" lon="4.65278">
        <ele>446</ele>
        <time>2016-10-04T09:51:17Z</time>
      </trkpt>
      <trkpt lat="46.10646" lon="4.65276">
        <ele>446</ele>
        <time>2016-10-04T09:51:21Z</time>
      </trkpt>
      <trkpt lat="46.10648" lon="4.65276">
        <ele>446</ele>
        <time>2016-10-04T09:51:22Z</time>
      </trkpt>
      <trkpt lat="46.10655" lon="4.65281">
        <ele>446</ele>
        <time>2016-10-04T09:51:27Z</time>
      </trkpt>
      <trkpt lat="46.10657" lon="4.65282">
        <ele>447</ele>
        <time>2016-10-04T09:51:28Z</time>
      </trkpt>
      <trkpt lat="46.10664" lon="4.65282">
        <ele>447</ele>
        <time>2016-10-04T09:51:33Z</time>
      </trkpt>
      <trkpt lat="46.10666" lon="4.65283">
        <ele>447</ele>
        <time>2016-10-04T09:51:34Z</time>
      </trkpt>
      <trkpt lat="46.10674" lon="4.65281">
        <ele>453</ele>
        <time>2016-10-04T09:51:39Z</time>
      </trkpt>
      <trkpt lat="46.10676" lon="4.65281">
        <ele>453</ele>
        <time>2016-10-04T09:51:40Z</time>
      </trkpt>
      <trkpt lat="46.10684" lon="4.65281">
        <ele>453</ele>
        <time>2016-10-04T09:51:45Z</time>
      </trkpt>
      <trkpt lat="46.10685" lon="4.6528">
        <ele>453</ele>
        <time>2016-10-04T09:51:46Z</time>
      </trkpt>
      <trkpt lat="46.10688" lon="4.6528">
        <ele>453</ele>
        <time>2016-10-04T09:51:47Z</time>
      </trkpt>
      <trkpt lat="46.10689" lon="4.65279">
        <ele>453</ele>
        <time>2016-10-04T09:51:48Z</time>
      </trkpt>
      <trkpt lat="46.10695" lon="4.65275">
        <ele>453</ele>
        <time>2016-10-04T09:51:54Z</time>
      </trkpt>
      <trkpt lat="46.10698" lon="4.65276">
        <ele>454</ele>
        <time>2016-10-04T09:51:55Z</time>
      </trkpt>
      <trkpt lat="46.10705" lon="4.65275">
        <ele>454</ele>
        <time>2016-10-04T09:51:58Z</time>
      </trkpt>
      <trkpt lat="46.10708" lon="4.65274">
        <ele>454</ele>
        <time>2016-10-04T09:51:59Z</time>
      </trkpt>
      <trkpt lat="46.10716" lon="4.65274">
        <ele>455</ele>
        <time>2016-10-04T09:52:03Z</time>
      </trkpt>
      <trkpt lat="46.10718" lon="4.65273">
        <ele>455</ele>
        <time>2016-10-04T09:52:04Z</time>
      </trkpt>
      <trkpt lat="46.10724" lon="4.65272">
        <ele>455</ele>
        <time>2016-10-04T09:52:08Z</time>
      </trkpt>
      <trkpt lat="46.10726" lon="4.65272">
        <ele>455</ele>
        <time>2016-10-04T09:52:09Z</time>
      </trkpt>
      <trkpt lat="46.10728" lon="4.65271">
        <ele>455</ele>
        <time>2016-10-04T09:52:10Z</time>
      </trkpt>
      <trkpt lat="46.10731" lon="4.65271">
        <ele>455</ele>
        <time>2016-10-04T09:52:11Z</time>
      </trkpt>
      <trkpt lat="46.10739" lon="4.65275">
        <ele>456</ele>
        <time>2016-10-04T09:52:15Z</time>
      </trkpt>
      <trkpt lat="46.10741" lon="4.65276">
        <ele>456</ele>
        <time>2016-10-04T09:52:16Z</time>
      </trkpt>
      <trkpt lat="46.10748" lon="4.65276">
        <ele>456</ele>
        <time>2016-10-04T09:52:19Z</time>
      </trkpt>
      <trkpt lat="46.1075" lon="4.65278">
        <ele>460</ele>
        <time>2016-10-04T09:52:20Z</time>
      </trkpt>
      <trkpt lat="46.10757" lon="4.65286">
        <ele>462</ele>
        <time>2016-10-04T09:52:25Z</time>
      </trkpt>
      <trkpt lat="46.10757" lon="4.65288">
        <ele>462</ele>
        <time>2016-10-04T09:52:26Z</time>
      </trkpt>
      <trkpt lat="46.10755" lon="4.65299">
        <ele>463</ele>
        <time>2016-10-04T09:52:35Z</time>
      </trkpt>
      <trkpt lat="46.10754" lon="4.653">
        <ele>463</ele>
        <time>2016-10-04T09:52:36Z</time>
      </trkpt>
      <trkpt lat="46.10746" lon="4.65307">
        <ele>459</ele>
        <time>2016-10-04T09:52:43Z</time>
      </trkpt>
      <trkpt lat="46.10744" lon="4.65307">
        <ele>459</ele>
        <time>2016-10-04T09:52:44Z</time>
      </trkpt>
      <trkpt lat="46.10737" lon="4.6531">
        <ele>459</ele>
        <time>2016-10-04T09:52:48Z</time>
      </trkpt>
      <trkpt lat="46.10736" lon="4.65312">
        <ele>459</ele>
        <time>2016-10-04T09:52:49Z</time>
      </trkpt>
      <trkpt lat="46.10729" lon="4.65319">
        <ele>460</ele>
        <time>2016-10-04T09:52:54Z</time>
      </trkpt>
      <trkpt lat="46.10728" lon="4.65322">
        <ele>460</ele>
        <time>2016-10-04T09:52:55Z</time>
      </trkpt>
      <trkpt lat="46.10722" lon="4.65331">
        <ele>460</ele>
        <time>2016-10-04T09:53:00Z</time>
      </trkpt>
      <trkpt lat="46.10721" lon="4.65333">
        <ele>459</ele>
        <time>2016-10-04T09:53:01Z</time>
      </trkpt>
      <trkpt lat="46.10714" lon="4.65339">
        <ele>467</ele>
        <time>2016-10-04T09:53:06Z</time>
      </trkpt>
      <trkpt lat="46.10713" lon="4.65341">
        <ele>467</ele>
        <time>2016-10-04T09:53:07Z</time>
      </trkpt>
      <trkpt lat="46.10706" lon="4.65348">
        <ele>467</ele>
        <time>2016-10-04T09:53:12Z</time>
      </trkpt>
      <trkpt lat="46.10704" lon="4.6535">
        <ele>467</ele>
        <time>2016-10-04T09:53:13Z</time>
      </trkpt>
      <trkpt lat="46.10698" lon="4.65357">
        <ele>467</ele>
        <time>2016-10-04T09:53:18Z</time>
      </trkpt>
      <trkpt lat="46.10697" lon="4.65359">
        <ele>467</ele>
        <time>2016-10-04T09:53:19Z</time>
      </trkpt>
      <trkpt lat="46.10692" lon="4.65368">
        <ele>467</ele>
        <time>2016-10-04T09:53:23Z</time>
      </trkpt>
      <trkpt lat="46.10691" lon="4.6537">
        <ele>467</ele>
        <time>2016-10-04T09:53:24Z</time>
      </trkpt>
      <trkpt lat="46.10685" lon="4.65377">
        <ele>468</ele>
        <time>2016-10-04T09:53:29Z</time>
      </trkpt>
      <trkpt lat="46.10683" lon="4.65379">
        <ele>468</ele>
        <time>2016-10-04T09:53:30Z</time>
      </trkpt>
      <trkpt lat="46.10679" lon="4.65388">
        <ele>469</ele>
        <time>2016-10-04T09:53:33Z</time>
      </trkpt>
      <trkpt lat="46.10678" lon="4.6539">
        <ele>469</ele>
        <time>2016-10-04T09:53:34Z</time>
      </trkpt>
      <trkpt lat="46.1067" lon="4.65394">
        <ele>470</ele>
        <time>2016-10-04T09:53:39Z</time>
      </trkpt>
      <trkpt lat="46.1067" lon="4.65396">
        <ele>470</ele>
        <time>2016-10-04T09:53:40Z</time>
      </trkpt>
      <trkpt lat="46.10665" lon="4.65405">
        <ele>468</ele>
        <time>2016-10-04T09:53:45Z</time>
      </trkpt>
      <trkpt lat="46.10663" lon="4.65408">
        <ele>468</ele>
        <time>2016-10-04T09:53:46Z</time>
      </trkpt>
      <trkpt lat="46.10657" lon="4.65417">
        <ele>470</ele>
        <time>2016-10-04T09:53:51Z</time>
      </trkpt>
      <trkpt lat="46.10656" lon="4.65419">
        <ele>470</ele>
        <time>2016-10-04T09:53:52Z</time>
      </trkpt>
      <trkpt lat="46.10652" lon="4.6543">
        <ele>469</ele>
        <time>2016-10-04T09:53:57Z</time>
      </trkpt>
      <trkpt lat="46.10651" lon="4.65431">
        <ele>468</ele>
        <time>2016-10-04T09:53:58Z</time>
      </trkpt>
      <trkpt lat="46.10648" lon="4.65441">
        <ele>467</ele>
        <time>2016-10-04T09:54:02Z</time>
      </trkpt>
      <trkpt lat="46.10649" lon="4.65444">
        <ele>467</ele>
        <time>2016-10-04T09:54:03Z</time>
      </trkpt>
      <trkpt lat="46.10649" lon="4.65457">
        <ele>467</ele>
        <time>2016-10-04T09:54:07Z</time>
      </trkpt>
      <trkpt lat="46.10649" lon="4.6546">
        <ele>467</ele>
        <time>2016-10-04T09:54:08Z</time>
      </trkpt>
      <trkpt lat="46.10648" lon="4.65471">
        <ele>467</ele>
        <time>2016-10-04T09:54:12Z</time>
      </trkpt>
      <trkpt lat="46.10648" lon="4.65474">
        <ele>467</ele>
        <time>2016-10-04T09:54:13Z</time>
      </trkpt>
      <trkpt lat="46.10651" lon="4.65483">
        <ele>468</ele>
        <time>2016-10-04T09:54:17Z</time>
      </trkpt>
      <trkpt lat="46.10653" lon="4.65485">
        <ele>468</ele>
        <time>2016-10-04T09:54:18Z</time>
      </trkpt>
      <trkpt lat="46.10657" lon="4.65495">
        <ele>470</ele>
        <time>2016-10-04T09:54:21Z</time>
      </trkpt>
      <trkpt lat="46.10659" lon="4.65497">
        <ele>471</ele>
        <time>2016-10-04T09:54:22Z</time>
      </trkpt>
      <trkpt lat="46.10666" lon="4.65501">
        <ele>472</ele>
        <time>2016-10-04T09:54:25Z</time>
      </trkpt>
      <trkpt lat="46.10668" lon="4.65502">
        <ele>473</ele>
        <time>2016-10-04T09:54:26Z</time>
      </trkpt>
      <trkpt lat="46.10676" lon="4.65504">
        <ele>472</ele>
        <time>2016-10-04T09:54:30Z</time>
      </trkpt>
      <trkpt lat="46.10678" lon="4.65505">
        <ele>472</ele>
        <time>2016-10-04T09:54:31Z</time>
      </trkpt>
      <trkpt lat="46.10685" lon="4.65509">
        <ele>472</ele>
        <time>2016-10-04T09:54:35Z</time>
      </trkpt>
      <trkpt lat="46.10687" lon="4.6551">
        <ele>472</ele>
        <time>2016-10-04T09:54:36Z</time>
      </trkpt>
      <trkpt lat="46.10696" lon="4.6551">
        <ele>472</ele>
        <time>2016-10-04T09:54:40Z</time>
      </trkpt>
      <trkpt lat="46.10698" lon="4.65509">
        <ele>472</ele>
        <time>2016-10-04T09:54:41Z</time>
      </trkpt>
      <trkpt lat="46.10705" lon="4.65509">
        <ele>472</ele>
        <time>2016-10-04T09:54:44Z</time>
      </trkpt>
      <trkpt lat="46.10707" lon="4.65508">
        <ele>472</ele>
        <time>2016-10-04T09:54:45Z</time>
      </trkpt>
      <trkpt lat="46.10716" lon="4.65508">
        <ele>472</ele>
        <time>2016-10-04T09:54:49Z</time>
      </trkpt>
      <trkpt lat="46.10718" lon="4.65508">
        <ele>473</ele>
        <time>2016-10-04T09:54:50Z</time>
      </trkpt>
      <trkpt lat="46.10726" lon="4.6551">
        <ele>473</ele>
        <time>2016-10-04T09:54:54Z</time>
      </trkpt>
      <trkpt lat="46.10729" lon="4.65511">
        <ele>473</ele>
        <time>2016-10-04T09:54:55Z</time>
      </trkpt>
      <trkpt lat="46.10736" lon="4.65512">
        <ele>474</ele>
        <time>2016-10-04T09:54:58Z</time>
      </trkpt>
      <trkpt lat="46.10739" lon="4.65513">
        <ele>474</ele>
        <time>2016-10-04T09:54:59Z</time>
      </trkpt>
      <trkpt lat="46.10745" lon="4.65513">
        <ele>475</ele>
        <time>2016-10-04T09:55:01Z</time>
      </trkpt>
      <trkpt lat="46.10749" lon="4.65513">
        <ele>475</ele>
        <time>2016-10-04T09:55:02Z</time>
      </trkpt>
      <trkpt lat="46.10756" lon="4.65511">
        <ele>475</ele>
        <time>2016-10-04T09:55:04Z</time>
      </trkpt>
      <trkpt lat="46.1076" lon="4.65508">
        <ele>475</ele>
        <time>2016-10-04T09:55:05Z</time>
      </trkpt>
      <trkpt lat="46.10764" lon="4.65504">
        <ele>475</ele>
        <time>2016-10-04T09:55:06Z</time>
      </trkpt>
      <trkpt lat="46.10768" lon="4.65501">
        <ele>474</ele>
        <time>2016-10-04T09:55:07Z</time>
      </trkpt>
      <trkpt lat="46.10771" lon="4.65496">
        <ele>477</ele>
        <time>2016-10-04T09:55:08Z</time>
      </trkpt>
      <trkpt lat="46.10773" lon="4.6549">
        <ele>477</ele>
        <time>2016-10-04T09:55:09Z</time>
      </trkpt>
      <trkpt lat="46.1078" lon="4.65481">
        <ele>477</ele>
        <time>2016-10-04T09:55:11Z</time>
      </trkpt>
      <trkpt lat="46.10784" lon="4.65478">
        <ele>477</ele>
        <time>2016-10-04T09:55:12Z</time>
      </trkpt>
      <trkpt lat="46.10788" lon="4.65475">
        <ele>477</ele>
        <time>2016-10-04T09:55:13Z</time>
      </trkpt>
      <trkpt lat="46.10793" lon="4.65473">
        <ele>477</ele>
        <time>2016-10-04T09:55:14Z</time>
      </trkpt>
      <trkpt lat="46.10799" lon="4.65472">
        <ele>477</ele>
        <time>2016-10-04T09:55:15Z</time>
      </trkpt>
      <trkpt lat="46.10804" lon="4.65471">
        <ele>476</ele>
        <time>2016-10-04T09:55:16Z</time>
      </trkpt>
      <trkpt lat="46.10809" lon="4.65471">
        <ele>476</ele>
        <time>2016-10-04T09:55:17Z</time>
      </trkpt>
      <trkpt lat="46.10814" lon="4.65472">
        <ele>476</ele>
        <time>2016-10-04T09:55:18Z</time>
      </trkpt>
      <trkpt lat="46.10819" lon="4.65474">
        <ele>476</ele>
        <time>2016-10-04T09:55:19Z</time>
      </trkpt>
      <trkpt lat="46.10823" lon="4.65477">
        <ele>476</ele>
        <time>2016-10-04T09:55:20Z</time>
      </trkpt>
      <trkpt lat="46.10827" lon="4.65481">
        <ele>476</ele>
        <time>2016-10-04T09:55:21Z</time>
      </trkpt>
      <trkpt lat="46.10831" lon="4.65488">
        <ele>475</ele>
        <time>2016-10-04T09:55:22Z</time>
      </trkpt>
      <trkpt lat="46.10835" lon="4.65494">
        <ele>474</ele>
        <time>2016-10-04T09:55:23Z</time>
      </trkpt>
      <trkpt lat="46.10841" lon="4.65498">
        <ele>474</ele>
        <time>2016-10-04T09:55:24Z</time>
      </trkpt>
      <trkpt lat="46.10846" lon="4.65502">
        <ele>470</ele>
        <time>2016-10-04T09:55:25Z</time>
      </trkpt>
      <trkpt lat="46.10853" lon="4.65504">
        <ele>469</ele>
        <time>2016-10-04T09:55:26Z</time>
      </trkpt>
      <trkpt lat="46.1086" lon="4.65506">
        <ele>468</ele>
        <time>2016-10-04T09:55:27Z</time>
      </trkpt>
      <trkpt lat="46.10868" lon="4.65506">
        <ele>467</ele>
        <time>2016-10-04T09:55:28Z</time>
      </trkpt>
      <trkpt lat="46.10875" lon="4.65507">
        <ele>466</ele>
        <time>2016-10-04T09:55:29Z</time>
      </trkpt>
      <trkpt lat="46.10882" lon="4.65507">
        <ele>466</ele>
        <time>2016-10-04T09:55:30Z</time>
      </trkpt>
      <trkpt lat="46.10888" lon="4.65507">
        <ele>466</ele>
        <time>2016-10-04T09:55:31Z</time>
      </trkpt>
      <trkpt lat="46.10894" lon="4.65506">
        <ele>465</ele>
        <time>2016-10-04T09:55:32Z</time>
      </trkpt>
      <trkpt lat="46.10899" lon="4.65506">
        <ele>465</ele>
        <time>2016-10-04T09:55:33Z</time>
      </trkpt>
      <trkpt lat="46.10904" lon="4.65506">
        <ele>465</ele>
        <time>2016-10-04T09:55:34Z</time>
      </trkpt>
      <trkpt lat="46.10909" lon="4.65507">
        <ele>465</ele>
        <time>2016-10-04T09:55:35Z</time>
      </trkpt>
      <trkpt lat="46.10914" lon="4.65507">
        <ele>465</ele>
        <time>2016-10-04T09:55:36Z</time>
      </trkpt>
      <trkpt lat="46.10919" lon="4.65515">
        <ele>461</ele>
        <time>2016-10-04T09:55:38Z</time>
      </trkpt>
      <trkpt lat="46.1092" lon="4.65519">
        <ele>460</ele>
        <time>2016-10-04T09:55:39Z</time>
      </trkpt>
      <trkpt lat="46.10917" lon="4.65525">
        <ele>464</ele>
        <time>2016-10-04T09:55:40Z</time>
      </trkpt>
      <trkpt lat="46.10913" lon="4.6553">
        <ele>464</ele>
        <time>2016-10-04T09:55:41Z</time>
      </trkpt>
      <trkpt lat="46.10909" lon="4.65536">
        <ele>464</ele>
        <time>2016-10-04T09:55:42Z</time>
      </trkpt>
      <trkpt lat="46.10904" lon="4.65542">
        <ele>464</ele>
        <time>2016-10-04T09:55:43Z</time>
      </trkpt>
      <trkpt lat="46.10899" lon="4.65547">
        <ele>464</ele>
        <time>2016-10-04T09:55:44Z</time>
      </trkpt>
      <trkpt lat="46.10895" lon="4.65552">
        <ele>463</ele>
        <time>2016-10-04T09:55:45Z</time>
      </trkpt>
      <trkpt lat="46.10891" lon="4.65557">
        <ele>463</ele>
        <time>2016-10-04T09:55:46Z</time>
      </trkpt>
      <trkpt lat="46.10888" lon="4.65562">
        <ele>463</ele>
        <time>2016-10-04T09:55:47Z</time>
      </trkpt>
      <trkpt lat="46.10883" lon="4.6557">
        <ele>463</ele>
        <time>2016-10-04T09:55:49Z</time>
      </trkpt>
      <trkpt lat="46.10882" lon="4.65574">
        <ele>463</ele>
        <time>2016-10-04T09:55:50Z</time>
      </trkpt>
      <trkpt lat="46.10884" lon="4.65584">
        <ele>457</ele>
        <time>2016-10-04T09:55:52Z</time>
      </trkpt>
      <trkpt lat="46.10887" lon="4.65588">
        <ele>456</ele>
        <time>2016-10-04T09:55:53Z</time>
      </trkpt>
      <trkpt lat="46.10891" lon="4.65591">
        <ele>456</ele>
        <time>2016-10-04T09:55:54Z</time>
      </trkpt>
      <trkpt lat="46.10895" lon="4.65594">
        <ele>456</ele>
        <time>2016-10-04T09:55:55Z</time>
      </trkpt>
      <trkpt lat="46.109" lon="4.65597">
        <ele>456</ele>
        <time>2016-10-04T09:55:56Z</time>
      </trkpt>
      <trkpt lat="46.10905" lon="4.65601">
        <ele>456</ele>
        <time>2016-10-04T09:55:57Z</time>
      </trkpt>
      <trkpt lat="46.1091" lon="4.65604">
        <ele>456</ele>
        <time>2016-10-04T09:55:58Z</time>
      </trkpt>
      <trkpt lat="46.10915" lon="4.65607">
        <ele>456</ele>
        <time>2016-10-04T09:55:59Z</time>
      </trkpt>
      <trkpt lat="46.1092" lon="4.65608">
        <ele>452</ele>
        <time>2016-10-04T09:56:00Z</time>
      </trkpt>
      <trkpt lat="46.10925" lon="4.65609">
        <ele>452</ele>
        <time>2016-10-04T09:56:01Z</time>
      </trkpt>
      <trkpt lat="46.10931" lon="4.6561">
        <ele>451</ele>
        <time>2016-10-04T09:56:02Z</time>
      </trkpt>
      <trkpt lat="46.10936" lon="4.65611">
        <ele>451</ele>
        <time>2016-10-04T09:56:03Z</time>
      </trkpt>
      <trkpt lat="46.10941" lon="4.65611">
        <ele>450</ele>
        <time>2016-10-04T09:56:04Z</time>
      </trkpt>
      <trkpt lat="46.10946" lon="4.65611">
        <ele>450</ele>
        <time>2016-10-04T09:56:05Z</time>
      </trkpt>
      <trkpt lat="46.1095" lon="4.6561">
        <ele>450</ele>
        <time>2016-10-04T09:56:06Z</time>
      </trkpt>
      <trkpt lat="46.10956" lon="4.6561">
        <ele>449</ele>
        <time>2016-10-04T09:56:07Z</time>
      </trkpt>
      <trkpt lat="46.10961" lon="4.65609">
        <ele>449</ele>
        <time>2016-10-04T09:56:08Z</time>
      </trkpt>
      <trkpt lat="46.10965" lon="4.65608">
        <ele>449</ele>
        <time>2016-10-04T09:56:09Z</time>
      </trkpt>
      <trkpt lat="46.10973" lon="4.65604">
        <ele>449</ele>
        <time>2016-10-04T09:56:12Z</time>
      </trkpt>
      <trkpt lat="46.10974" lon="4.65606">
        <ele>449</ele>
        <time>2016-10-04T09:56:13Z</time>
      </trkpt>
      <trkpt lat="46.10971" lon="4.65617">
        <ele>448</ele>
        <time>2016-10-04T09:56:16Z</time>
      </trkpt>
      <trkpt lat="46.10968" lon="4.6562">
        <ele>448</ele>
        <time>2016-10-04T09:56:17Z</time>
      </trkpt>
      <trkpt lat="46.10964" lon="4.65625">
        <ele>448</ele>
        <time>2016-10-04T09:56:18Z</time>
      </trkpt>
      <trkpt lat="46.1096" lon="4.65629">
        <ele>448</ele>
        <time>2016-10-04T09:56:19Z</time>
      </trkpt>
      <trkpt lat="46.10955" lon="4.65634">
        <ele>448</ele>
        <time>2016-10-04T09:56:20Z</time>
      </trkpt>
      <trkpt lat="46.10951" lon="4.65639">
        <ele>448</ele>
        <time>2016-10-04T09:56:21Z</time>
      </trkpt>
      <trkpt lat="46.10947" lon="4.65642">
        <ele>448</ele>
        <time>2016-10-04T09:56:22Z</time>
      </trkpt>
      <trkpt lat="46.10942" lon="4.65645">
        <ele>448</ele>
        <time>2016-10-04T09:56:23Z</time>
      </trkpt>
      <trkpt lat="46.10935" lon="4.6565">
        <ele>448</ele>
        <time>2016-10-04T09:56:25Z</time>
      </trkpt>
      <trkpt lat="46.10932" lon="4.65652">
        <ele>448</ele>
        <time>2016-10-04T09:56:26Z</time>
      </trkpt>
      <trkpt lat="46.10926" lon="4.65661">
        <ele>448</ele>
        <time>2016-10-04T09:56:30Z</time>
      </trkpt>
      <trkpt lat="46.10927" lon="4.65665">
        <ele>447</ele>
        <time>2016-10-04T09:56:31Z</time>
      </trkpt>
      <trkpt lat="46.10931" lon="4.65672">
        <ele>441</ele>
        <time>2016-10-04T09:56:33Z</time>
      </trkpt>
      <trkpt lat="46.10935" lon="4.65676">
        <ele>440</ele>
        <time>2016-10-04T09:56:34Z</time>
      </trkpt>
      <trkpt lat="46.1094" lon="4.65677">
        <ele>439</ele>
        <time>2016-10-04T09:56:35Z</time>
      </trkpt>
      <trkpt lat="46.10945" lon="4.6568">
        <ele>438</ele>
        <time>2016-10-04T09:56:36Z</time>
      </trkpt>
      <trkpt lat="46.10949" lon="4.65684">
        <ele>438</ele>
        <time>2016-10-04T09:56:37Z</time>
      </trkpt>
      <trkpt lat="46.10957" lon="4.65691">
        <ele>437</ele>
        <time>2016-10-04T09:56:38Z</time>
      </trkpt>
      <trkpt lat="46.10963" lon="4.65694">
        <ele>436</ele>
        <time>2016-10-04T09:56:39Z</time>
      </trkpt>
      <trkpt lat="46.10968" lon="4.65696">
        <ele>436</ele>
        <time>2016-10-04T09:56:40Z</time>
      </trkpt>
      <trkpt lat="46.10972" lon="4.65696">
        <ele>436</ele>
        <time>2016-10-04T09:56:41Z</time>
      </trkpt>
      <trkpt lat="46.10977" lon="4.65696">
        <ele>436</ele>
        <time>2016-10-04T09:56:42Z</time>
      </trkpt>
      <trkpt lat="46.10982" lon="4.65696">
        <ele>436</ele>
        <time>2016-10-04T09:56:43Z</time>
      </trkpt>
      <trkpt lat="46.10987" lon="4.65697">
        <ele>436</ele>
        <time>2016-10-04T09:56:44Z</time>
      </trkpt>
      <trkpt lat="46.10992" lon="4.65698">
        <ele>436</ele>
        <time>2016-10-04T09:56:45Z</time>
      </trkpt>
      <trkpt lat="46.10996" lon="4.65698">
        <ele>436</ele>
        <time>2016-10-04T09:56:46Z</time>
      </trkpt>
      <trkpt lat="46.11003" lon="4.65699">
        <ele>430</ele>
        <time>2016-10-04T09:56:48Z</time>
      </trkpt>
      <trkpt lat="46.11006" lon="4.65699">
        <ele>430</ele>
        <time>2016-10-04T09:56:49Z</time>
      </trkpt>
      <trkpt lat="46.11014" lon="4.65702">
        <ele>429</ele>
        <time>2016-10-04T09:56:52Z</time>
      </trkpt>
      <trkpt lat="46.11017" lon="4.65705">
        <ele>429</ele>
        <time>2016-10-04T09:56:53Z</time>
      </trkpt>
      <trkpt lat="46.11018" lon="4.65714">
        <ele>428</ele>
        <time>2016-10-04T09:56:55Z</time>
      </trkpt>
      <trkpt lat="46.11017" lon="4.6572">
        <ele>427</ele>
        <time>2016-10-04T09:56:56Z</time>
      </trkpt>
      <trkpt lat="46.11014" lon="4.65731">
        <ele>427</ele>
        <time>2016-10-04T09:56:58Z</time>
      </trkpt>
      <trkpt lat="46.11013" lon="4.65738">
        <ele>426</ele>
        <time>2016-10-04T09:56:59Z</time>
      </trkpt>
      <trkpt lat="46.11011" lon="4.65744">
        <ele>426</ele>
        <time>2016-10-04T09:57:00Z</time>
      </trkpt>
      <trkpt lat="46.11009" lon="4.65751">
        <ele>422</ele>
        <time>2016-10-04T09:57:01Z</time>
      </trkpt>
      <trkpt lat="46.11008" lon="4.65759">
        <ele>421</ele>
        <time>2016-10-04T09:57:02Z</time>
      </trkpt>
      <trkpt lat="46.11008" lon="4.65765">
        <ele>420</ele>
        <time>2016-10-04T09:57:03Z</time>
      </trkpt>
      <trkpt lat="46.11009" lon="4.65772">
        <ele>418</ele>
        <time>2016-10-04T09:57:04Z</time>
      </trkpt>
      <trkpt lat="46.1101" lon="4.6578">
        <ele>416</ele>
        <time>2016-10-04T09:57:05Z</time>
      </trkpt>
      <trkpt lat="46.11013" lon="4.65788">
        <ele>415</ele>
        <time>2016-10-04T09:57:06Z</time>
      </trkpt>
      <trkpt lat="46.11017" lon="4.65797">
        <ele>413</ele>
        <time>2016-10-04T09:57:07Z</time>
      </trkpt>
      <trkpt lat="46.11021" lon="4.65806">
        <ele>412</ele>
        <time>2016-10-04T09:57:08Z</time>
      </trkpt>
      <trkpt lat="46.11028" lon="4.65816">
        <ele>411</ele>
        <time>2016-10-04T09:57:09Z</time>
      </trkpt>
      <trkpt lat="46.11034" lon="4.65822">
        <ele>411</ele>
        <time>2016-10-04T09:57:10Z</time>
      </trkpt>
      <trkpt lat="46.1104" lon="4.65831">
        <ele>411</ele>
        <time>2016-10-04T09:57:11Z</time>
      </trkpt>
      <trkpt lat="46.11046" lon="4.65839">
        <ele>402</ele>
        <time>2016-10-04T09:57:12Z</time>
      </trkpt>
      <trkpt lat="46.11051" lon="4.65849">
        <ele>402</ele>
        <time>2016-10-04T09:57:13Z</time>
      </trkpt>
      <trkpt lat="46.11058" lon="4.65856">
        <ele>402</ele>
        <time>2016-10-04T09:57:14Z</time>
      </trkpt>
      <trkpt lat="46.11065" lon="4.65865">
        <ele>402</ele>
        <time>2016-10-04T09:57:15Z</time>
      </trkpt>
      <trkpt lat="46.11072" lon="4.65872">
        <ele>402</ele>
        <time>2016-10-04T09:57:16Z</time>
      </trkpt>
      <trkpt lat="46.11079" lon="4.65879">
        <ele>401</ele>
        <time>2016-10-04T09:57:17Z</time>
      </trkpt>
      <trkpt lat="46.11086" lon="4.65884">
        <ele>405</ele>
        <time>2016-10-04T09:57:18Z</time>
      </trkpt>
      <trkpt lat="46.11092" lon="4.65889">
        <ele>405</ele>
        <time>2016-10-04T09:57:19Z</time>
      </trkpt>
      <trkpt lat="46.11098" lon="4.65893">
        <ele>405</ele>
        <time>2016-10-04T09:57:20Z</time>
      </trkpt>
      <trkpt lat="46.11103" lon="4.65898">
        <ele>405</ele>
        <time>2016-10-04T09:57:21Z</time>
      </trkpt>
      <trkpt lat="46.11107" lon="4.65903">
        <ele>405</ele>
        <time>2016-10-04T09:57:22Z</time>
      </trkpt>
      <trkpt lat="46.1111" lon="4.65908">
        <ele>405</ele>
        <time>2016-10-04T09:57:23Z</time>
      </trkpt>
      <trkpt lat="46.11114" lon="4.65919">
        <ele>402</ele>
        <time>2016-10-04T09:57:25Z</time>
      </trkpt>
      <trkpt lat="46.11116" lon="4.65926">
        <ele>402</ele>
        <time>2016-10-04T09:57:26Z</time>
      </trkpt>
      <trkpt lat="46.11117" lon="4.65933">
        <ele>402</ele>
        <time>2016-10-04T09:57:27Z</time>
      </trkpt>
      <trkpt lat="46.11118" lon="4.65941">
        <ele>402</ele>
        <time>2016-10-04T09:57:28Z</time>
      </trkpt>
      <trkpt lat="46.1112" lon="4.65949">
        <ele>402</ele>
        <time>2016-10-04T09:57:29Z</time>
      </trkpt>
      <trkpt lat="46.11122" lon="4.65959">
        <ele>402</ele>
        <time>2016-10-04T09:57:30Z</time>
      </trkpt>
      <trkpt lat="46.11124" lon="4.65968">
        <ele>401</ele>
        <time>2016-10-04T09:57:31Z</time>
      </trkpt>
      <trkpt lat="46.11127" lon="4.65978">
        <ele>401</ele>
        <time>2016-10-04T09:57:32Z</time>
      </trkpt>
      <trkpt lat="46.1113" lon="4.65988">
        <ele>401</ele>
        <time>2016-10-04T09:57:33Z</time>
      </trkpt>
      <trkpt lat="46.11133" lon="4.65998">
        <ele>402</ele>
        <time>2016-10-04T09:57:34Z</time>
      </trkpt>
      <trkpt lat="46.11136" lon="4.66007">
        <ele>397</ele>
        <time>2016-10-04T09:57:35Z</time>
      </trkpt>
      <trkpt lat="46.1114" lon="4.66016">
        <ele>397</ele>
        <time>2016-10-04T09:57:36Z</time>
      </trkpt>
      <trkpt lat="46.11144" lon="4.66024">
        <ele>397</ele>
        <time>2016-10-04T09:57:37Z</time>
      </trkpt>
      <trkpt lat="46.11148" lon="4.66035">
        <ele>397</ele>
        <time>2016-10-04T09:57:38Z</time>
      </trkpt>
      <trkpt lat="46.11152" lon="4.66044">
        <ele>396</ele>
        <time>2016-10-04T09:57:39Z</time>
      </trkpt>
      <trkpt lat="46.11154" lon="4.66052">
        <ele>396</ele>
        <time>2016-10-04T09:57:40Z</time>
      </trkpt>
      <trkpt lat="46.11156" lon="4.66062">
        <ele>396</ele>
        <time>2016-10-04T09:57:42Z</time>
      </trkpt>
      <trkpt lat="46.11156" lon="4.66069">
        <ele>396</ele>
        <time>2016-10-04T09:57:43Z</time>
      </trkpt>
      <trkpt lat="46.11156" lon="4.66076">
        <ele>396</ele>
        <time>2016-10-04T09:57:44Z</time>
      </trkpt>
      <trkpt lat="46.11156" lon="4.66083">
        <ele>396</ele>
        <time>2016-10-04T09:57:45Z</time>
      </trkpt>
      <trkpt lat="46.11155" lon="4.66091">
        <ele>391</ele>
        <time>2016-10-04T09:57:46Z</time>
      </trkpt>
      <trkpt lat="46.11154" lon="4.66098">
        <ele>390</ele>
        <time>2016-10-04T09:57:47Z</time>
      </trkpt>
      <trkpt lat="46.11152" lon="4.66107">
        <ele>388</ele>
        <time>2016-10-04T09:57:48Z</time>
      </trkpt>
      <trkpt lat="46.1115" lon="4.66115">
        <ele>387</ele>
        <time>2016-10-04T09:57:49Z</time>
      </trkpt>
      <trkpt lat="46.11148" lon="4.66122">
        <ele>386</ele>
        <time>2016-10-04T09:57:50Z</time>
      </trkpt>
      <trkpt lat="46.11147" lon="4.6613">
        <ele>385</ele>
        <time>2016-10-04T09:57:51Z</time>
      </trkpt>
      <trkpt lat="46.11146" lon="4.66137">
        <ele>384</ele>
        <time>2016-10-04T09:57:52Z</time>
      </trkpt>
      <trkpt lat="46.11145" lon="4.66145">
        <ele>384</ele>
        <time>2016-10-04T09:57:53Z</time>
      </trkpt>
      <trkpt lat="46.11144" lon="4.66153">
        <ele>383</ele>
        <time>2016-10-04T09:57:54Z</time>
      </trkpt>
      <trkpt lat="46.11144" lon="4.6616">
        <ele>383</ele>
        <time>2016-10-04T09:57:55Z</time>
      </trkpt>
      <trkpt lat="46.11146" lon="4.66173">
        <ele>377</ele>
        <time>2016-10-04T09:57:57Z</time>
      </trkpt>
      <trkpt lat="46.11146" lon="4.66179">
        <ele>376</ele>
        <time>2016-10-04T09:57:58Z</time>
      </trkpt>
      <trkpt lat="46.11148" lon="4.66192">
        <ele>375</ele>
        <time>2016-10-04T09:58:00Z</time>
      </trkpt>
      <trkpt lat="46.11148" lon="4.66198">
        <ele>374</ele>
        <time>2016-10-04T09:58:01Z</time>
      </trkpt>
      <trkpt lat="46.11145" lon="4.6621">
        <ele>373</ele>
        <time>2016-10-04T09:58:03Z</time>
      </trkpt>
      <trkpt lat="46.11142" lon="4.66214">
        <ele>372</ele>
        <time>2016-10-04T09:58:04Z</time>
      </trkpt>
      <trkpt lat="46.11138" lon="4.66217">
        <ele>372</ele>
        <time>2016-10-04T09:58:05Z</time>
      </trkpt>
      <trkpt lat="46.11132" lon="4.66219">
        <ele>371</ele>
        <time>2016-10-04T09:58:06Z</time>
      </trkpt>
      <trkpt lat="46.11127" lon="4.66219">
        <ele>371</ele>
        <time>2016-10-04T09:58:07Z</time>
      </trkpt>
      <trkpt lat="46.11121" lon="4.66218">
        <ele>371</ele>
        <time>2016-10-04T09:58:08Z</time>
      </trkpt>
      <trkpt lat="46.11115" lon="4.66216">
        <ele>371</ele>
        <time>2016-10-04T09:58:09Z</time>
      </trkpt>
      <trkpt lat="46.11108" lon="4.66211">
        <ele>371</ele>
        <time>2016-10-04T09:58:10Z</time>
      </trkpt>
      <trkpt lat="46.11102" lon="4.66208">
        <ele>371</ele>
        <time>2016-10-04T09:58:11Z</time>
      </trkpt>
      <trkpt lat="46.11097" lon="4.66204">
        <ele>371</ele>
        <time>2016-10-04T09:58:12Z</time>
      </trkpt>
      <trkpt lat="46.11092" lon="4.66198">
        <ele>371</ele>
        <time>2016-10-04T09:58:13Z</time>
      </trkpt>
      <trkpt lat="46.11086" lon="4.66192">
        <ele>371</ele>
        <time>2016-10-04T09:58:14Z</time>
      </trkpt>
      <trkpt lat="46.11081" lon="4.66185">
        <ele>364</ele>
        <time>2016-10-04T09:58:15Z</time>
      </trkpt>
      <trkpt lat="46.11075" lon="4.66177">
        <ele>366</ele>
        <time>2016-10-04T09:58:16Z</time>
      </trkpt>
      <trkpt lat="46.1107" lon="4.66168">
        <ele>366</ele>
        <time>2016-10-04T09:58:17Z</time>
      </trkpt>
      <trkpt lat="46.11065" lon="4.66159">
        <ele>369</ele>
        <time>2016-10-04T09:58:18Z</time>
      </trkpt>
      <trkpt lat="46.11059" lon="4.66151">
        <ele>368</ele>
        <time>2016-10-04T09:58:19Z</time>
      </trkpt>
      <trkpt lat="46.11054" lon="4.66142">
        <ele>367</ele>
        <time>2016-10-04T09:58:20Z</time>
      </trkpt>
      <trkpt lat="46.1105" lon="4.66134">
        <ele>367</ele>
        <time>2016-10-04T09:58:21Z</time>
      </trkpt>
      <trkpt lat="46.11046" lon="4.66127">
        <ele>367</ele>
        <time>2016-10-04T09:58:22Z</time>
      </trkpt>
      <trkpt lat="46.11041" lon="4.66119">
        <ele>367</ele>
        <time>2016-10-04T09:58:23Z</time>
      </trkpt>
      <trkpt lat="46.11036" lon="4.66113">
        <ele>367</ele>
        <time>2016-10-04T09:58:24Z</time>
      </trkpt>
      <trkpt lat="46.11032" lon="4.66107">
        <ele>366</ele>
        <time>2016-10-04T09:58:25Z</time>
      </trkpt>
      <trkpt lat="46.11028" lon="4.66101">
        <ele>366</ele>
        <time>2016-10-04T09:58:26Z</time>
      </trkpt>
      <trkpt lat="46.11024" lon="4.66095">
        <ele>366</ele>
        <time>2016-10-04T09:58:27Z</time>
      </trkpt>
      <trkpt lat="46.11021" lon="4.6609">
        <ele>365</ele>
        <time>2016-10-04T09:58:28Z</time>
      </trkpt>
      <trkpt lat="46.11015" lon="4.66081">
        <ele>369</ele>
        <time>2016-10-04T09:58:30Z</time>
      </trkpt>
      <trkpt lat="46.11013" lon="4.66077">
        <ele>369</ele>
        <time>2016-10-04T09:58:31Z</time>
      </trkpt>
      <trkpt lat="46.11005" lon="4.66076">
        <ele>366</ele>
        <time>2016-10-04T09:58:34Z</time>
      </trkpt>
      <trkpt lat="46.11003" lon="4.66079">
        <ele>365</ele>
        <time>2016-10-04T09:58:35Z</time>
      </trkpt>
      <trkpt lat="46.11003" lon="4.66091">
        <ele>363</ele>
        <time>2016-10-04T09:58:37Z</time>
      </trkpt>
      <trkpt lat="46.11003" lon="4.661">
        <ele>364</ele>
        <time>2016-10-04T09:58:38Z</time>
      </trkpt>
      <trkpt lat="46.11004" lon="4.66109">
        <ele>364</ele>
        <time>2016-10-04T09:58:39Z</time>
      </trkpt>
      <trkpt lat="46.11004" lon="4.66119">
        <ele>363</ele>
        <time>2016-10-04T09:58:40Z</time>
      </trkpt>
      <trkpt lat="46.11005" lon="4.66129">
        <ele>362</ele>
        <time>2016-10-04T09:58:41Z</time>
      </trkpt>
      <trkpt lat="46.11006" lon="4.66139">
        <ele>360</ele>
        <time>2016-10-04T09:58:42Z</time>
      </trkpt>
      <trkpt lat="46.11007" lon="4.66149">
        <ele>358</ele>
        <time>2016-10-04T09:58:43Z</time>
      </trkpt>
      <trkpt lat="46.11009" lon="4.66159">
        <ele>355</ele>
        <time>2016-10-04T09:58:44Z</time>
      </trkpt>
      <trkpt lat="46.1101" lon="4.66169">
        <ele>351</ele>
        <time>2016-10-04T09:58:45Z</time>
      </trkpt>
      <trkpt lat="46.11012" lon="4.6618">
        <ele>352</ele>
        <time>2016-10-04T09:58:46Z</time>
      </trkpt>
      <trkpt lat="46.11014" lon="4.6619">
        <ele>353</ele>
        <time>2016-10-04T09:58:47Z</time>
      </trkpt>
      <trkpt lat="46.11016" lon="4.662">
        <ele>353</ele>
        <time>2016-10-04T09:58:48Z</time>
      </trkpt>
      <trkpt lat="46.11018" lon="4.66211">
        <ele>352</ele>
        <time>2016-10-04T09:58:49Z</time>
      </trkpt>
      <trkpt lat="46.11019" lon="4.66222">
        <ele>351</ele>
        <time>2016-10-04T09:58:50Z</time>
      </trkpt>
      <trkpt lat="46.11021" lon="4.66233">
        <ele>350</ele>
        <time>2016-10-04T09:58:51Z</time>
      </trkpt>
      <trkpt lat="46.11023" lon="4.66243">
        <ele>349</ele>
        <time>2016-10-04T09:58:52Z</time>
      </trkpt>
      <trkpt lat="46.11026" lon="4.66253">
        <ele>343</ele>
        <time>2016-10-04T09:58:53Z</time>
      </trkpt>
      <trkpt lat="46.11029" lon="4.66263">
        <ele>343</ele>
        <time>2016-10-04T09:58:54Z</time>
      </trkpt>
      <trkpt lat="46.11031" lon="4.66275">
        <ele>343</ele>
        <time>2016-10-04T09:58:55Z</time>
      </trkpt>
      <trkpt lat="46.11034" lon="4.66284">
        <ele>343</ele>
        <time>2016-10-04T09:58:56Z</time>
      </trkpt>
      <trkpt lat="46.11038" lon="4.66293">
        <ele>343</ele>
        <time>2016-10-04T09:58:57Z</time>
      </trkpt>
      <trkpt lat="46.11042" lon="4.66302">
        <ele>343</ele>
        <time>2016-10-04T09:58:58Z</time>
      </trkpt>
      <trkpt lat="46.11046" lon="4.66311">
        <ele>343</ele>
        <time>2016-10-04T09:58:59Z</time>
      </trkpt>
      <trkpt lat="46.11049" lon="4.6632">
        <ele>343</ele>
        <time>2016-10-04T09:59:00Z</time>
      </trkpt>
      <trkpt lat="46.11053" lon="4.6633">
        <ele>343</ele>
        <time>2016-10-04T09:59:01Z</time>
      </trkpt>
      <trkpt lat="46.11056" lon="4.6634">
        <ele>336</ele>
        <time>2016-10-04T09:59:02Z</time>
      </trkpt>
      <trkpt lat="46.1106" lon="4.6635">
        <ele>335</ele>
        <time>2016-10-04T09:59:03Z</time>
      </trkpt>
      <trkpt lat="46.11064" lon="4.6636">
        <ele>335</ele>
        <time>2016-10-04T09:59:04Z</time>
      </trkpt>
      <trkpt lat="46.11067" lon="4.66371">
        <ele>333</ele>
        <time>2016-10-04T09:59:05Z</time>
      </trkpt>
      <trkpt lat="46.11071" lon="4.66381">
        <ele>333</ele>
        <time>2016-10-04T09:59:06Z</time>
      </trkpt>
      <trkpt lat="46.11075" lon="4.66391">
        <ele>332</ele>
        <time>2016-10-04T09:59:07Z</time>
      </trkpt>
      <trkpt lat="46.11079" lon="4.664">
        <ele>332</ele>
        <time>2016-10-04T09:59:08Z</time>
      </trkpt>
      <trkpt lat="46.11084" lon="4.66409">
        <ele>336</ele>
        <time>2016-10-04T09:59:09Z</time>
      </trkpt>
      <trkpt lat="46.11088" lon="4.66419">
        <ele>332</ele>
        <time>2016-10-04T09:59:10Z</time>
      </trkpt>
      <trkpt lat="46.11092" lon="4.66429">
        <ele>331</ele>
        <time>2016-10-04T09:59:11Z</time>
      </trkpt>
      <trkpt lat="46.11097" lon="4.66437">
        <ele>330</ele>
        <time>2016-10-04T09:59:12Z</time>
      </trkpt>
      <trkpt lat="46.11102" lon="4.66445">
        <ele>330</ele>
        <time>2016-10-04T09:59:13Z</time>
      </trkpt>
      <trkpt lat="46.11107" lon="4.66453">
        <ele>329</ele>
        <time>2016-10-04T09:59:14Z</time>
      </trkpt>
      <trkpt lat="46.11112" lon="4.66461">
        <ele>328</ele>
        <time>2016-10-04T09:59:15Z</time>
      </trkpt>
      <trkpt lat="46.11118" lon="4.66469">
        <ele>328</ele>
        <time>2016-10-04T09:59:16Z</time>
      </trkpt>
      <trkpt lat="46.11123" lon="4.66476">
        <ele>328</ele>
        <time>2016-10-04T09:59:17Z</time>
      </trkpt>
      <trkpt lat="46.11129" lon="4.66481">
        <ele>327</ele>
        <time>2016-10-04T09:59:18Z</time>
      </trkpt>
      <trkpt lat="46.11134" lon="4.66485">
        <ele>327</ele>
        <time>2016-10-04T09:59:19Z</time>
      </trkpt>
      <trkpt lat="46.11139" lon="4.66486">
        <ele>327</ele>
        <time>2016-10-04T09:59:20Z</time>
      </trkpt>
      <trkpt lat="46.11144" lon="4.66486">
        <ele>327</ele>
        <time>2016-10-04T09:59:21Z</time>
      </trkpt>
      <trkpt lat="46.11149" lon="4.66486">
        <ele>327</ele>
        <time>2016-10-04T09:59:22Z</time>
      </trkpt>
      <trkpt lat="46.11157" lon="4.66484">
        <ele>327</ele>
        <time>2016-10-04T09:59:24Z</time>
      </trkpt>
      <trkpt lat="46.11161" lon="4.66484">
        <ele>327</ele>
        <time>2016-10-04T09:59:25Z</time>
      </trkpt>
      <trkpt lat="46.11169" lon="4.66482">
        <ele>327</ele>
        <time>2016-10-04T09:59:27Z</time>
      </trkpt>
      <trkpt lat="46.11173" lon="4.66481">
        <ele>327</ele>
        <time>2016-10-04T09:59:28Z</time>
      </trkpt>
      <trkpt lat="46.11181" lon="4.6648">
        <ele>327</ele>
        <time>2016-10-04T09:59:30Z</time>
      </trkpt>
      <trkpt lat="46.11185" lon="4.66479">
        <ele>327</ele>
        <time>2016-10-04T09:59:31Z</time>
      </trkpt>
      <trkpt lat="46.11193" lon="4.66477">
        <ele>327</ele>
        <time>2016-10-04T09:59:33Z</time>
      </trkpt>
      <trkpt lat="46.11197" lon="4.66475">
        <ele>327</ele>
        <time>2016-10-04T09:59:34Z</time>
      </trkpt>
      <trkpt lat="46.11204" lon="4.66473">
        <ele>327</ele>
        <time>2016-10-04T09:59:36Z</time>
      </trkpt>
      <trkpt lat="46.11209" lon="4.66473">
        <ele>327</ele>
        <time>2016-10-04T09:59:37Z</time>
      </trkpt>
      <trkpt lat="46.11217" lon="4.66472">
        <ele>326</ele>
        <time>2016-10-04T09:59:39Z</time>
      </trkpt>
      <trkpt lat="46.11222" lon="4.6647">
        <ele>326</ele>
        <time>2016-10-04T09:59:40Z</time>
      </trkpt>
      <trkpt lat="46.11226" lon="4.6647">
        <ele>326</ele>
        <time>2016-10-04T09:59:41Z</time>
      </trkpt>
      <trkpt lat="46.11232" lon="4.66466">
        <ele>326</ele>
        <time>2016-10-04T09:59:42Z</time>
      </trkpt>
      <trkpt lat="46.11237" lon="4.66463">
        <ele>326</ele>
        <time>2016-10-04T09:59:43Z</time>
      </trkpt>
      <trkpt lat="46.11242" lon="4.6646">
        <ele>326</ele>
        <time>2016-10-04T09:59:44Z</time>
      </trkpt>
      <trkpt lat="46.11247" lon="4.66457">
        <ele>326</ele>
        <time>2016-10-04T09:59:45Z</time>
      </trkpt>
      <trkpt lat="46.11252" lon="4.66454">
        <ele>318</ele>
        <time>2016-10-04T09:59:46Z</time>
      </trkpt>
      <trkpt lat="46.11258" lon="4.66452">
        <ele>318</ele>
        <time>2016-10-04T09:59:47Z</time>
      </trkpt>
      <trkpt lat="46.11264" lon="4.66449">
        <ele>318</ele>
        <time>2016-10-04T09:59:48Z</time>
      </trkpt>
      <trkpt lat="46.11271" lon="4.66446">
        <ele>317</ele>
        <time>2016-10-04T09:59:49Z</time>
      </trkpt>
      <trkpt lat="46.11278" lon="4.66442">
        <ele>317</ele>
        <time>2016-10-04T09:59:50Z</time>
      </trkpt>
      <trkpt lat="46.11286" lon="4.66437">
        <ele>316</ele>
        <time>2016-10-04T09:59:51Z</time>
      </trkpt>
      <trkpt lat="46.11294" lon="4.66433">
        <ele>316</ele>
        <time>2016-10-04T09:59:52Z</time>
      </trkpt>
      <trkpt lat="46.11302" lon="4.66429">
        <ele>315</ele>
        <time>2016-10-04T09:59:53Z</time>
      </trkpt>
      <trkpt lat="46.11309" lon="4.66425">
        <ele>314</ele>
        <time>2016-10-04T09:59:54Z</time>
      </trkpt>
      <trkpt lat="46.11315" lon="4.66418">
        <ele>314</ele>
        <time>2016-10-04T09:59:55Z</time>
      </trkpt>
      <trkpt lat="46.11322" lon="4.66416">
        <ele>317</ele>
        <time>2016-10-04T09:59:56Z</time>
      </trkpt>
      <trkpt lat="46.1133" lon="4.66412">
        <ele>315</ele>
        <time>2016-10-04T09:59:57Z</time>
      </trkpt>
      <trkpt lat="46.11337" lon="4.66406">
        <ele>312</ele>
        <time>2016-10-04T09:59:58Z</time>
      </trkpt>
      <trkpt lat="46.11344" lon="4.66401">
        <ele>312</ele>
        <time>2016-10-04T09:59:59Z</time>
      </trkpt>
      <trkpt lat="46.11351" lon="4.66396">
        <ele>312</ele>
        <time>2016-10-04T10:00:00Z</time>
      </trkpt>
      <trkpt lat="46.11357" lon="4.66391">
        <ele>312</ele>
        <time>2016-10-04T10:00:01Z</time>
      </trkpt>
      <trkpt lat="46.11364" lon="4.66384">
        <ele>312</ele>
        <time>2016-10-04T10:00:02Z</time>
      </trkpt>
      <trkpt lat="46.1137" lon="4.66379">
        <ele>312</ele>
        <time>2016-10-04T10:00:03Z</time>
      </trkpt>
      <trkpt lat="46.11376" lon="4.66374">
        <ele>312</ele>
        <time>2016-10-04T10:00:04Z</time>
      </trkpt>
      <trkpt lat="46.11382" lon="4.6637">
        <ele>311</ele>
        <time>2016-10-04T10:00:05Z</time>
      </trkpt>
      <trkpt lat="46.11388" lon="4.66366">
        <ele>311</ele>
        <time>2016-10-04T10:00:06Z</time>
      </trkpt>
      <trkpt lat="46.11394" lon="4.66363">
        <ele>311</ele>
        <time>2016-10-04T10:00:07Z</time>
      </trkpt>
      <trkpt lat="46.11399" lon="4.66362">
        <ele>311</ele>
        <time>2016-10-04T10:00:08Z</time>
      </trkpt>
      <trkpt lat="46.11405" lon="4.66362">
        <ele>311</ele>
        <time>2016-10-04T10:00:09Z</time>
      </trkpt>
      <trkpt lat="46.11412" lon="4.66365">
        <ele>310</ele>
        <time>2016-10-04T10:00:10Z</time>
      </trkpt>
      <trkpt lat="46.11418" lon="4.66366">
        <ele>304</ele>
        <time>2016-10-04T10:00:11Z</time>
      </trkpt>
      <trkpt lat="46.11424" lon="4.66368">
        <ele>304</ele>
        <time>2016-10-04T10:00:12Z</time>
      </trkpt>
      <trkpt lat="46.11431" lon="4.6637">
        <ele>304</ele>
        <time>2016-10-04T10:00:13Z</time>
      </trkpt>
      <trkpt lat="46.11438" lon="4.66373">
        <ele>303</ele>
        <time>2016-10-04T10:00:14Z</time>
      </trkpt>
      <trkpt lat="46.11445" lon="4.66375">
        <ele>303</ele>
        <time>2016-10-04T10:00:15Z</time>
      </trkpt>
      <trkpt lat="46.11453" lon="4.66377">
        <ele>302</ele>
        <time>2016-10-04T10:00:16Z</time>
      </trkpt>
      <trkpt lat="46.1146" lon="4.66377">
        <ele>302</ele>
        <time>2016-10-04T10:00:17Z</time>
      </trkpt>
      <trkpt lat="46.11467" lon="4.66377">
        <ele>302</ele>
        <time>2016-10-04T10:00:18Z</time>
      </trkpt>
      <trkpt lat="46.11475" lon="4.66376">
        <ele>301</ele>
        <time>2016-10-04T10:00:19Z</time>
      </trkpt>
      <trkpt lat="46.11482" lon="4.66376">
        <ele>301</ele>
        <time>2016-10-04T10:00:20Z</time>
      </trkpt>
      <trkpt lat="46.11489" lon="4.66375">
        <ele>301</ele>
        <time>2016-10-04T10:00:21Z</time>
      </trkpt>
      <trkpt lat="46.11496" lon="4.66375">
        <ele>301</ele>
        <time>2016-10-04T10:00:22Z</time>
      </trkpt>
      <trkpt lat="46.11502" lon="4.66375">
        <ele>295</ele>
        <time>2016-10-04T10:00:23Z</time>
      </trkpt>
      <trkpt lat="46.11507" lon="4.66375">
        <ele>295</ele>
        <time>2016-10-04T10:00:24Z</time>
      </trkpt>
      <trkpt lat="46.11512" lon="4.66374">
        <ele>295</ele>
        <time>2016-10-04T10:00:25Z</time>
      </trkpt>
      <trkpt lat="46.11516" lon="4.66374">
        <ele>295</ele>
        <time>2016-10-04T10:00:26Z</time>
      </trkpt>
      <trkpt lat="46.11524" lon="4.66375">
        <ele>294</ele>
        <time>2016-10-04T10:00:28Z</time>
      </trkpt>
      <trkpt lat="46.11527" lon="4.66378">
        <ele>294</ele>
        <time>2016-10-04T10:00:29Z</time>
      </trkpt>
      <trkpt lat="46.11527" lon="4.66389">
        <ele>293</ele>
        <time>2016-10-04T10:00:31Z</time>
      </trkpt>
      <trkpt lat="46.11524" lon="4.66396">
        <ele>293</ele>
        <time>2016-10-04T10:00:32Z</time>
      </trkpt>
      <trkpt lat="46.11519" lon="4.66403">
        <ele>293</ele>
        <time>2016-10-04T10:00:33Z</time>
      </trkpt>
      <trkpt lat="46.11514" lon="4.66409">
        <ele>293</ele>
        <time>2016-10-04T10:00:34Z</time>
      </trkpt>
      <trkpt lat="46.11509" lon="4.66414">
        <ele>293</ele>
        <time>2016-10-04T10:00:35Z</time>
      </trkpt>
      <trkpt lat="46.11501" lon="4.66419">
        <ele>292</ele>
        <time>2016-10-04T10:00:36Z</time>
      </trkpt>
      <trkpt lat="46.11494" lon="4.66425">
        <ele>292</ele>
        <time>2016-10-04T10:00:37Z</time>
      </trkpt>
      <trkpt lat="46.11487" lon="4.6643">
        <ele>292</ele>
        <time>2016-10-04T10:00:38Z</time>
      </trkpt>
      <trkpt lat="46.1148" lon="4.66436">
        <ele>292</ele>
        <time>2016-10-04T10:00:39Z</time>
      </trkpt>
      <trkpt lat="46.11473" lon="4.66441">
        <ele>292</ele>
        <time>2016-10-04T10:00:40Z</time>
      </trkpt>
      <trkpt lat="46.11465" lon="4.66446">
        <ele>292</ele>
        <time>2016-10-04T10:00:41Z</time>
      </trkpt>
      <trkpt lat="46.11457" lon="4.66452">
        <ele>292</ele>
        <time>2016-10-04T10:00:42Z</time>
      </trkpt>
      <trkpt lat="46.1145" lon="4.66458">
        <ele>292</ele>
        <time>2016-10-04T10:00:43Z</time>
      </trkpt>
      <trkpt lat="46.11443" lon="4.66464">
        <ele>292</ele>
        <time>2016-10-04T10:00:44Z</time>
      </trkpt>
      <trkpt lat="46.11436" lon="4.6647">
        <ele>291</ele>
        <time>2016-10-04T10:00:45Z</time>
      </trkpt>
      <trkpt lat="46.11429" lon="4.66477">
        <ele>291</ele>
        <time>2016-10-04T10:00:46Z</time>
      </trkpt>
      <trkpt lat="46.11423" lon="4.66485">
        <ele>291</ele>
        <time>2016-10-04T10:00:47Z</time>
      </trkpt>
      <trkpt lat="46.11417" lon="4.66492">
        <ele>293</ele>
        <time>2016-10-04T10:00:48Z</time>
      </trkpt>
      <trkpt lat="46.11411" lon="4.665">
        <ele>292</ele>
        <time>2016-10-04T10:00:49Z</time>
      </trkpt>
      <trkpt lat="46.11405" lon="4.66507">
        <ele>291</ele>
        <time>2016-10-04T10:00:50Z</time>
      </trkpt>
      <trkpt lat="46.11399" lon="4.66514">
        <ele>292</ele>
        <time>2016-10-04T10:00:51Z</time>
      </trkpt>
      <trkpt lat="46.11394" lon="4.66521">
        <ele>292</ele>
        <time>2016-10-04T10:00:52Z</time>
      </trkpt>
      <trkpt lat="46.1139" lon="4.66528">
        <ele>292</ele>
        <time>2016-10-04T10:00:53Z</time>
      </trkpt>
      <trkpt lat="46.11386" lon="4.66533">
        <ele>292</ele>
        <time>2016-10-04T10:00:54Z</time>
      </trkpt>
      <trkpt lat="46.11382" lon="4.66543">
        <ele>292</ele>
        <time>2016-10-04T10:00:56Z</time>
      </trkpt>
      <trkpt lat="46.11383" lon="4.66549">
        <ele>292</ele>
        <time>2016-10-04T10:00:57Z</time>
      </trkpt>
      <trkpt lat="46.11386" lon="4.66554">
        <ele>291</ele>
        <time>2016-10-04T10:00:58Z</time>
      </trkpt>
      <trkpt lat="46.11389" lon="4.6656">
        <ele>291</ele>
        <time>2016-10-04T10:00:59Z</time>
      </trkpt>
      <trkpt lat="46.11393" lon="4.66565">
        <ele>290</ele>
        <time>2016-10-04T10:01:00Z</time>
      </trkpt>
      <trkpt lat="46.11397" lon="4.6657">
        <ele>290</ele>
        <time>2016-10-04T10:01:01Z</time>
      </trkpt>
      <trkpt lat="46.11403" lon="4.66573">
        <ele>289</ele>
        <time>2016-10-04T10:01:02Z</time>
      </trkpt>
      <trkpt lat="46.11409" lon="4.66576">
        <ele>288</ele>
        <time>2016-10-04T10:01:03Z</time>
      </trkpt>
      <trkpt lat="46.11415" lon="4.6658">
        <ele>287</ele>
        <time>2016-10-04T10:01:04Z</time>
      </trkpt>
      <trkpt lat="46.11421" lon="4.66584">
        <ele>285</ele>
        <time>2016-10-04T10:01:05Z</time>
      </trkpt>
      <trkpt lat="46.11428" lon="4.66588">
        <ele>283</ele>
        <time>2016-10-04T10:01:06Z</time>
      </trkpt>
      <trkpt lat="46.11434" lon="4.66591">
        <ele>282</ele>
        <time>2016-10-04T10:01:07Z</time>
      </trkpt>
      <trkpt lat="46.1144" lon="4.66594">
        <ele>281</ele>
        <time>2016-10-04T10:01:08Z</time>
      </trkpt>
      <trkpt lat="46.11446" lon="4.66597">
        <ele>281</ele>
        <time>2016-10-04T10:01:09Z</time>
      </trkpt>
      <trkpt lat="46.11452" lon="4.66599">
        <ele>280</ele>
        <time>2016-10-04T10:01:10Z</time>
      </trkpt>
      <trkpt lat="46.11457" lon="4.66603">
        <ele>280</ele>
        <time>2016-10-04T10:01:11Z</time>
      </trkpt>
      <trkpt lat="46.11462" lon="4.66606">
        <ele>279</ele>
        <time>2016-10-04T10:01:12Z</time>
      </trkpt>
      <trkpt lat="46.11466" lon="4.6661">
        <ele>279</ele>
        <time>2016-10-04T10:01:13Z</time>
      </trkpt>
      <trkpt lat="46.1147" lon="4.66615">
        <ele>279</ele>
        <time>2016-10-04T10:01:14Z</time>
      </trkpt>
      <trkpt lat="46.11474" lon="4.66621">
        <ele>278</ele>
        <time>2016-10-04T10:01:15Z</time>
      </trkpt>
      <trkpt lat="46.11477" lon="4.66628">
        <ele>278</ele>
        <time>2016-10-04T10:01:16Z</time>
      </trkpt>
      <trkpt lat="46.11481" lon="4.66636">
        <ele>277</ele>
        <time>2016-10-04T10:01:17Z</time>
      </trkpt>
      <trkpt lat="46.11485" lon="4.66642">
        <ele>277</ele>
        <time>2016-10-04T10:01:18Z</time>
      </trkpt>
      <trkpt lat="46.1149" lon="4.66645">
        <ele>277</ele>
        <time>2016-10-04T10:01:19Z</time>
      </trkpt>
      <trkpt lat="46.11495" lon="4.66646">
        <ele>276</ele>
        <time>2016-10-04T10:01:20Z</time>
      </trkpt>
      <trkpt lat="46.11501" lon="4.66645">
        <ele>272</ele>
        <time>2016-10-04T10:01:21Z</time>
      </trkpt>
      <trkpt lat="46.11508" lon="4.66645">
        <ele>272</ele>
        <time>2016-10-04T10:01:22Z</time>
      </trkpt>
      <trkpt lat="46.11514" lon="4.66645">
        <ele>272</ele>
        <time>2016-10-04T10:01:23Z</time>
      </trkpt>
      <trkpt lat="46.11522" lon="4.66644">
        <ele>272</ele>
        <time>2016-10-04T10:01:24Z</time>
      </trkpt>
      <trkpt lat="46.1153" lon="4.66644">
        <ele>272</ele>
        <time>2016-10-04T10:01:25Z</time>
      </trkpt>
      <trkpt lat="46.11537" lon="4.66643">
        <ele>271</ele>
        <time>2016-10-04T10:01:26Z</time>
      </trkpt>
      <trkpt lat="46.11543" lon="4.66643">
        <ele>271</ele>
        <time>2016-10-04T10:01:27Z</time>
      </trkpt>
      <trkpt lat="46.1155" lon="4.66642">
        <ele>270</ele>
        <time>2016-10-04T10:01:28Z</time>
      </trkpt>
      <trkpt lat="46.11557" lon="4.66642">
        <ele>270</ele>
        <time>2016-10-04T10:01:29Z</time>
      </trkpt>
      <trkpt lat="46.11562" lon="4.66643">
        <ele>270</ele>
        <time>2016-10-04T10:01:30Z</time>
      </trkpt>
      <trkpt lat="46.11567" lon="4.66645">
        <ele>269</ele>
        <time>2016-10-04T10:01:31Z</time>
      </trkpt>
      <trkpt lat="46.11572" lon="4.6665">
        <ele>269</ele>
        <time>2016-10-04T10:01:32Z</time>
      </trkpt>
      <trkpt lat="46.11575" lon="4.66655">
        <ele>268</ele>
        <time>2016-10-04T10:01:33Z</time>
      </trkpt>
      <trkpt lat="46.11577" lon="4.66663">
        <ele>267</ele>
        <time>2016-10-04T10:01:34Z</time>
      </trkpt>
      <trkpt lat="46.11578" lon="4.66672">
        <ele>266</ele>
        <time>2016-10-04T10:01:35Z</time>
      </trkpt>
      <trkpt lat="46.11572" lon="4.66681">
        <ele>267</ele>
        <time>2016-10-04T10:01:36Z</time>
      </trkpt>
      <trkpt lat="46.1157" lon="4.66691">
        <ele>267</ele>
        <time>2016-10-04T10:01:37Z</time>
      </trkpt>
      <trkpt lat="46.11568" lon="4.66701">
        <ele>267</ele>
        <time>2016-10-04T10:01:38Z</time>
      </trkpt>
      <trkpt lat="46.11566" lon="4.66712">
        <ele>267</ele>
        <time>2016-10-04T10:01:39Z</time>
      </trkpt>
      <trkpt lat="46.11565" lon="4.66723">
        <ele>266</ele>
        <time>2016-10-04T10:01:40Z</time>
      </trkpt>
      <trkpt lat="46.11564" lon="4.66736">
        <ele>266</ele>
        <time>2016-10-04T10:01:41Z</time>
      </trkpt>
      <trkpt lat="46.11562" lon="4.66749">
        <ele>266</ele>
        <time>2016-10-04T10:01:42Z</time>
      </trkpt>
      <trkpt lat="46.11562" lon="4.66763">
        <ele>264</ele>
        <time>2016-10-04T10:01:43Z</time>
      </trkpt>
      <trkpt lat="46.11561" lon="4.66776">
        <ele>264</ele>
        <time>2016-10-04T10:01:44Z</time>
      </trkpt>
      <trkpt lat="46.11562" lon="4.66789">
        <ele>263</ele>
        <time>2016-10-04T10:01:45Z</time>
      </trkpt>
      <trkpt lat="46.11563" lon="4.66802">
        <ele>263</ele>
        <time>2016-10-04T10:01:46Z</time>
      </trkpt>
      <trkpt lat="46.11564" lon="4.66815">
        <ele>263</ele>
        <time>2016-10-04T10:01:47Z</time>
      </trkpt>
      <trkpt lat="46.11566" lon="4.66827">
        <ele>262</ele>
        <time>2016-10-04T10:01:48Z</time>
      </trkpt>
      <trkpt lat="46.11567" lon="4.66838">
        <ele>260</ele>
        <time>2016-10-04T10:01:49Z</time>
      </trkpt>
      <trkpt lat="46.11568" lon="4.66849">
        <ele>260</ele>
        <time>2016-10-04T10:01:50Z</time>
      </trkpt>
      <trkpt lat="46.11567" lon="4.66859">
        <ele>260</ele>
        <time>2016-10-04T10:01:51Z</time>
      </trkpt>
      <trkpt lat="46.11566" lon="4.66869">
        <ele>259</ele>
        <time>2016-10-04T10:01:52Z</time>
      </trkpt>
      <trkpt lat="46.11564" lon="4.66879">
        <ele>259</ele>
        <time>2016-10-04T10:01:53Z</time>
      </trkpt>
      <trkpt lat="46.11561" lon="4.66889">
        <ele>259</ele>
        <time>2016-10-04T10:01:54Z</time>
      </trkpt>
      <trkpt lat="46.11558" lon="4.66898">
        <ele>259</ele>
        <time>2016-10-04T10:01:55Z</time>
      </trkpt>
      <trkpt lat="46.11554" lon="4.66908">
        <ele>258</ele>
        <time>2016-10-04T10:01:56Z</time>
      </trkpt>
      <trkpt lat="46.11551" lon="4.66917">
        <ele>256</ele>
        <time>2016-10-04T10:01:57Z</time>
      </trkpt>
      <trkpt lat="46.11547" lon="4.66927">
        <ele>256</ele>
        <time>2016-10-04T10:01:58Z</time>
      </trkpt>
      <trkpt lat="46.11543" lon="4.66936">
        <ele>256</ele>
        <time>2016-10-04T10:01:59Z</time>
      </trkpt>
      <trkpt lat="46.1154" lon="4.66946">
        <ele>256</ele>
        <time>2016-10-04T10:02:00Z</time>
      </trkpt>
      <trkpt lat="46.11536" lon="4.66956">
        <ele>256</ele>
        <time>2016-10-04T10:02:01Z</time>
      </trkpt>
      <trkpt lat="46.11531" lon="4.66965">
        <ele>256</ele>
        <time>2016-10-04T10:02:02Z</time>
      </trkpt>
      <trkpt lat="46.11526" lon="4.66975">
        <ele>256</ele>
        <time>2016-10-04T10:02:03Z</time>
      </trkpt>
      <trkpt lat="46.11521" lon="4.66984">
        <ele>255</ele>
        <time>2016-10-04T10:02:04Z</time>
      </trkpt>
      <trkpt lat="46.11517" lon="4.66994">
        <ele>255</ele>
        <time>2016-10-04T10:02:05Z</time>
      </trkpt>
      <trkpt lat="46.11513" lon="4.67004">
        <ele>254</ele>
        <time>2016-10-04T10:02:06Z</time>
      </trkpt>
      <trkpt lat="46.11509" lon="4.67015">
        <ele>254</ele>
        <time>2016-10-04T10:02:07Z</time>
      </trkpt>
      <trkpt lat="46.11505" lon="4.67025">
        <ele>254</ele>
        <time>2016-10-04T10:02:08Z</time>
      </trkpt>
      <trkpt lat="46.11501" lon="4.67036">
        <ele>254</ele>
        <time>2016-10-04T10:02:09Z</time>
      </trkpt>
      <trkpt lat="46.11497" lon="4.67047">
        <ele>251</ele>
        <time>2016-10-04T10:02:10Z</time>
      </trkpt>
      <trkpt lat="46.11493" lon="4.67057">
        <ele>251</ele>
        <time>2016-10-04T10:02:11Z</time>
      </trkpt>
      <trkpt lat="46.1149" lon="4.67067">
        <ele>251</ele>
        <time>2016-10-04T10:02:12Z</time>
      </trkpt>
      <trkpt lat="46.11486" lon="4.67077">
        <ele>250</ele>
        <time>2016-10-04T10:02:13Z</time>
      </trkpt>
      <trkpt lat="46.11482" lon="4.67085">
        <ele>249</ele>
        <time>2016-10-04T10:02:14Z</time>
      </trkpt>
      <trkpt lat="46.11477" lon="4.67093">
        <ele>249</ele>
        <time>2016-10-04T10:02:15Z</time>
      </trkpt>
      <trkpt lat="46.11472" lon="4.671">
        <ele>249</ele>
        <time>2016-10-04T10:02:16Z</time>
      </trkpt>
      <trkpt lat="46.11466" lon="4.67104">
        <ele>248</ele>
        <time>2016-10-04T10:02:17Z</time>
      </trkpt>
      <trkpt lat="46.1146" lon="4.67104">
        <ele>248</ele>
        <time>2016-10-04T10:02:18Z</time>
      </trkpt>
      <trkpt lat="46.11453" lon="4.67103">
        <ele>248</ele>
        <time>2016-10-04T10:02:19Z</time>
      </trkpt>
      <trkpt lat="46.11446" lon="4.67102">
        <ele>248</ele>
        <time>2016-10-04T10:02:20Z</time>
      </trkpt>
      <trkpt lat="46.11438" lon="4.67101">
        <ele>247</ele>
        <time>2016-10-04T10:02:21Z</time>
      </trkpt>
      <trkpt lat="46.11431" lon="4.67101">
        <ele>247</ele>
        <time>2016-10-04T10:02:22Z</time>
      </trkpt>
      <trkpt lat="46.11422" lon="4.67101">
        <ele>247</ele>
        <time>2016-10-04T10:02:23Z</time>
      </trkpt>
      <trkpt lat="46.11414" lon="4.67101">
        <ele>245</ele>
        <time>2016-10-04T10:02:24Z</time>
      </trkpt>
      <trkpt lat="46.11406" lon="4.67103">
        <ele>245</ele>
        <time>2016-10-04T10:02:25Z</time>
      </trkpt>
      <trkpt lat="46.11397" lon="4.67104">
        <ele>245</ele>
        <time>2016-10-04T10:02:26Z</time>
      </trkpt>
      <trkpt lat="46.11389" lon="4.67106">
        <ele>244</ele>
        <time>2016-10-04T10:02:27Z</time>
      </trkpt>
      <trkpt lat="46.11381" lon="4.67109">
        <ele>244</ele>
        <time>2016-10-04T10:02:28Z</time>
      </trkpt>
      <trkpt lat="46.11374" lon="4.67113">
        <ele>244</ele>
        <time>2016-10-04T10:02:29Z</time>
      </trkpt>
      <trkpt lat="46.11368" lon="4.67119">
        <ele>244</ele>
        <time>2016-10-04T10:02:30Z</time>
      </trkpt>
      <trkpt lat="46.11364" lon="4.67128">
        <ele>244</ele>
        <time>2016-10-04T10:02:31Z</time>
      </trkpt>
      <trkpt lat="46.11361" lon="4.67139">
        <ele>243</ele>
        <time>2016-10-04T10:02:32Z</time>
      </trkpt>
      <trkpt lat="46.11358" lon="4.67149">
        <ele>243</ele>
        <time>2016-10-04T10:02:33Z</time>
      </trkpt>
      <trkpt lat="46.11354" lon="4.6716">
        <ele>243</ele>
        <time>2016-10-04T10:02:34Z</time>
      </trkpt>
      <trkpt lat="46.11351" lon="4.67171">
        <ele>242</ele>
        <time>2016-10-04T10:02:35Z</time>
      </trkpt>
      <trkpt lat="46.11349" lon="4.67183">
        <ele>242</ele>
        <time>2016-10-04T10:02:36Z</time>
      </trkpt>
      <trkpt lat="46.11345" lon="4.67193">
        <ele>242</ele>
        <time>2016-10-04T10:02:37Z</time>
      </trkpt>
      <trkpt lat="46.11342" lon="4.67203">
        <ele>243</ele>
        <time>2016-10-04T10:02:38Z</time>
      </trkpt>
      <trkpt lat="46.11339" lon="4.67213">
        <ele>243</ele>
        <time>2016-10-04T10:02:39Z</time>
      </trkpt>
      <trkpt lat="46.11336" lon="4.67222">
        <ele>243</ele>
        <time>2016-10-04T10:02:40Z</time>
      </trkpt>
      <trkpt lat="46.11333" lon="4.67231">
        <ele>242</ele>
        <time>2016-10-04T10:02:41Z</time>
      </trkpt>
      <trkpt lat="46.1133" lon="4.67239">
        <ele>242</ele>
        <time>2016-10-04T10:02:42Z</time>
      </trkpt>
      <trkpt lat="46.11327" lon="4.67247">
        <ele>242</ele>
        <time>2016-10-04T10:02:43Z</time>
      </trkpt>
      <trkpt lat="46.11323" lon="4.67257">
        <ele>242</ele>
        <time>2016-10-04T10:02:45Z</time>
      </trkpt>
      <trkpt lat="46.11318" lon="4.67261">
        <ele>242</ele>
        <time>2016-10-04T10:02:46Z</time>
      </trkpt>
      <trkpt lat="46.11313" lon="4.67266">
        <ele>242</ele>
        <time>2016-10-04T10:02:47Z</time>
      </trkpt>
      <trkpt lat="46.1131" lon="4.67269">
        <ele>242</ele>
        <time>2016-10-04T10:02:48Z</time>
      </trkpt>
      <trkpt lat="46.11305" lon="4.67279">
        <ele>242</ele>
        <time>2016-10-04T10:02:50Z</time>
      </trkpt>
      <trkpt lat="46.11306" lon="4.67285">
        <ele>242</ele>
        <time>2016-10-04T10:02:51Z</time>
      </trkpt>
      <trkpt lat="46.11308" lon="4.67293">
        <ele>242</ele>
        <time>2016-10-04T10:02:52Z</time>
      </trkpt>
      <trkpt lat="46.1131" lon="4.67299">
        <ele>242</ele>
        <time>2016-10-04T10:02:53Z</time>
      </trkpt>
      <trkpt lat="46.11313" lon="4.67305">
        <ele>242</ele>
        <time>2016-10-04T10:02:54Z</time>
      </trkpt>
      <trkpt lat="46.11315" lon="4.67311">
        <ele>242</ele>
        <time>2016-10-04T10:02:55Z</time>
      </trkpt>
      <trkpt lat="46.11319" lon="4.67316">
        <ele>242</ele>
        <time>2016-10-04T10:02:56Z</time>
      </trkpt>
      <trkpt lat="46.11322" lon="4.6732">
        <ele>242</ele>
        <time>2016-10-04T10:02:57Z</time>
      </trkpt>
      <trkpt lat="46.11326" lon="4.67324">
        <ele>242</ele>
        <time>2016-10-04T10:02:58Z</time>
      </trkpt>
      <trkpt lat="46.1133" lon="4.67328">
        <ele>242</ele>
        <time>2016-10-04T10:02:59Z</time>
      </trkpt>
      <trkpt lat="46.11333" lon="4.67333">
        <ele>242</ele>
        <time>2016-10-04T10:03:00Z</time>
      </trkpt>
      <trkpt lat="46.11336" lon="4.67339">
        <ele>242</ele>
        <time>2016-10-04T10:03:01Z</time>
      </trkpt>
      <trkpt lat="46.11339" lon="4.67346">
        <ele>242</ele>
        <time>2016-10-04T10:03:02Z</time>
      </trkpt>
      <trkpt lat="46.11342" lon="4.67352">
        <ele>242</ele>
        <time>2016-10-04T10:03:03Z</time>
      </trkpt>
      <trkpt lat="46.11345" lon="4.67358">
        <ele>242</ele>
        <time>2016-10-04T10:03:04Z</time>
      </trkpt>
      <trkpt lat="46.11349" lon="4.67363">
        <ele>242</ele>
        <time>2016-10-04T10:03:05Z</time>
      </trkpt>
      <trkpt lat="46.11354" lon="4.67372">
        <ele>242</ele>
        <time>2016-10-04T10:03:07Z</time>
      </trkpt>
      <trkpt lat="46.11357" lon="4.67377">
        <ele>242</ele>
        <time>2016-10-04T10:03:08Z</time>
      </trkpt>
      <trkpt lat="46.1136" lon="4.67383">
        <ele>242</ele>
        <time>2016-10-04T10:03:09Z</time>
      </trkpt>
      <trkpt lat="46.11364" lon="4.67388">
        <ele>242</ele>
        <time>2016-10-04T10:03:10Z</time>
      </trkpt>
      <trkpt lat="46.11368" lon="4.67394">
        <ele>242</ele>
        <time>2016-10-04T10:03:11Z</time>
      </trkpt>
      <trkpt lat="46.11371" lon="4.67398">
        <ele>242</ele>
        <time>2016-10-04T10:03:12Z</time>
      </trkpt>
      <trkpt lat="46.11376" lon="4.67408">
        <ele>242</ele>
        <time>2016-10-04T10:03:14Z</time>
      </trkpt>
      <trkpt lat="46.11378" lon="4.67414">
        <ele>242</ele>
        <time>2016-10-04T10:03:15Z</time>
      </trkpt>
      <trkpt lat="46.11381" lon="4.6742">
        <ele>241</ele>
        <time>2016-10-04T10:03:16Z</time>
      </trkpt>
      <trkpt lat="46.11385" lon="4.67425">
        <ele>241</ele>
        <time>2016-10-04T10:03:17Z</time>
      </trkpt>
      <trkpt lat="46.11387" lon="4.67433">
        <ele>241</ele>
        <time>2016-10-04T10:03:18Z</time>
      </trkpt>
      <trkpt lat="46.11389" lon="4.67438">
        <ele>241</ele>
        <time>2016-10-04T10:03:19Z</time>
      </trkpt>
      <trkpt lat="46.11392" lon="4.67443">
        <ele>241</ele>
        <time>2016-10-04T10:03:20Z</time>
      </trkpt>
      <trkpt lat="46.11394" lon="4.67449">
        <ele>241</ele>
        <time>2016-10-04T10:03:21Z</time>
      </trkpt>
      <trkpt lat="46.114" lon="4.67458">
        <ele>241</ele>
        <time>2016-10-04T10:03:23Z</time>
      </trkpt>
      <trkpt lat="46.11403" lon="4.67463">
        <ele>241</ele>
        <time>2016-10-04T10:03:24Z</time>
      </trkpt>
      <trkpt lat="46.11405" lon="4.67467">
        <ele>241</ele>
        <time>2016-10-04T10:03:25Z</time>
      </trkpt>
      <trkpt lat="46.1141" lon="4.67473">
        <ele>241</ele>
        <time>2016-10-04T10:03:26Z</time>
      </trkpt>
      <trkpt lat="46.11414" lon="4.67478">
        <ele>241</ele>
        <time>2016-10-04T10:03:27Z</time>
      </trkpt>
      <trkpt lat="46.11418" lon="4.67483">
        <ele>243</ele>
        <time>2016-10-04T10:03:28Z</time>
      </trkpt>
      <trkpt lat="46.11422" lon="4.67488">
        <ele>242</ele>
        <time>2016-10-04T10:03:29Z</time>
      </trkpt>
      <trkpt lat="46.11426" lon="4.67492">
        <ele>242</ele>
        <time>2016-10-04T10:03:30Z</time>
      </trkpt>
      <trkpt lat="46.11433" lon="4.67498">
        <ele>243</ele>
        <time>2016-10-04T10:03:32Z</time>
      </trkpt>
      <trkpt lat="46.11437" lon="4.67502">
        <ele>242</ele>
        <time>2016-10-04T10:03:33Z</time>
      </trkpt>
      <trkpt lat="46.11442" lon="4.67509">
        <ele>242</ele>
        <time>2016-10-04T10:03:35Z</time>
      </trkpt>
      <trkpt lat="46.11446" lon="4.67512">
        <ele>243</ele>
        <time>2016-10-04T10:03:36Z</time>
      </trkpt>
      <trkpt lat="46.11453" lon="4.67521">
        <ele>243</ele>
        <time>2016-10-04T10:03:38Z</time>
      </trkpt>
      <trkpt lat="46.11456" lon="4.67524">
        <ele>243</ele>
        <time>2016-10-04T10:03:39Z</time>
      </trkpt>
      <trkpt lat="46.1146" lon="4.67528">
        <ele>243</ele>
        <time>2016-10-04T10:03:40Z</time>
      </trkpt>
      <trkpt lat="46.11464" lon="4.67531">
        <ele>243</ele>
        <time>2016-10-04T10:03:41Z</time>
      </trkpt>
      <trkpt lat="46.11468" lon="4.67536">
        <ele>243</ele>
        <time>2016-10-04T10:03:42Z</time>
      </trkpt>
      <trkpt lat="46.11472" lon="4.67539">
        <ele>243</ele>
        <time>2016-10-04T10:03:43Z</time>
      </trkpt>
      <trkpt lat="46.11475" lon="4.67543">
        <ele>243</ele>
        <time>2016-10-04T10:03:44Z</time>
      </trkpt>
      <trkpt lat="46.11479" lon="4.67546">
        <ele>244</ele>
        <time>2016-10-04T10:03:45Z</time>
      </trkpt>
      <trkpt lat="46.11483" lon="4.6755">
        <ele>244</ele>
        <time>2016-10-04T10:03:46Z</time>
      </trkpt>
      <trkpt lat="46.11487" lon="4.67553">
        <ele>244</ele>
        <time>2016-10-04T10:03:47Z</time>
      </trkpt>
      <trkpt lat="46.11494" lon="4.6756">
        <ele>244</ele>
        <time>2016-10-04T10:03:49Z</time>
      </trkpt>
      <trkpt lat="46.11497" lon="4.67564">
        <ele>244</ele>
        <time>2016-10-04T10:03:50Z</time>
      </trkpt>
      <trkpt lat="46.11504" lon="4.67571">
        <ele>246</ele>
        <time>2016-10-04T10:03:52Z</time>
      </trkpt>
      <trkpt lat="46.11507" lon="4.67574">
        <ele>246</ele>
        <time>2016-10-04T10:03:53Z</time>
      </trkpt>
      <trkpt lat="46.11511" lon="4.67581">
        <ele>246</ele>
        <time>2016-10-04T10:03:55Z</time>
      </trkpt>
      <trkpt lat="46.11515" lon="4.67583">
        <ele>246</ele>
        <time>2016-10-04T10:03:56Z</time>
      </trkpt>
      <trkpt lat="46.11522" lon="4.6759">
        <ele>245</ele>
        <time>2016-10-04T10:03:58Z</time>
      </trkpt>
      <trkpt lat="46.11525" lon="4.67595">
        <ele>246</ele>
        <time>2016-10-04T10:03:59Z</time>
      </trkpt>
      <trkpt lat="46.11528" lon="4.676">
        <ele>246</ele>
        <time>2016-10-04T10:04:00Z</time>
      </trkpt>
      <trkpt lat="46.11531" lon="4.67605">
        <ele>246</ele>
        <time>2016-10-04T10:04:01Z</time>
      </trkpt>
      <trkpt lat="46.11534" lon="4.6761">
        <ele>246</ele>
        <time>2016-10-04T10:04:02Z</time>
      </trkpt>
      <trkpt lat="46.11537" lon="4.67615">
        <ele>246</ele>
        <time>2016-10-04T10:04:03Z</time>
      </trkpt>
      <trkpt lat="46.11545" lon="4.67618">
        <ele>246</ele>
        <time>2016-10-04T10:04:05Z</time>
      </trkpt>
      <trkpt lat="46.11548" lon="4.6762">
        <ele>246</ele>
        <time>2016-10-04T10:04:06Z</time>
      </trkpt>
      <trkpt lat="46.11555" lon="4.67624">
        <ele>246</ele>
        <time>2016-10-04T10:04:08Z</time>
      </trkpt>
      <trkpt lat="46.11559" lon="4.67627">
        <ele>246</ele>
        <time>2016-10-04T10:04:09Z</time>
      </trkpt>
      <trkpt lat="46.11566" lon="4.67634">
        <ele>246</ele>
        <time>2016-10-04T10:04:11Z</time>
      </trkpt>
      <trkpt lat="46.11569" lon="4.67637">
        <ele>246</ele>
        <time>2016-10-04T10:04:12Z</time>
      </trkpt>
      <trkpt lat="46.11576" lon="4.67643">
        <ele>246</ele>
        <time>2016-10-04T10:04:14Z</time>
      </trkpt>
      <trkpt lat="46.1158" lon="4.67646">
        <ele>246</ele>
        <time>2016-10-04T10:04:15Z</time>
      </trkpt>
      <trkpt lat="46.11587" lon="4.67651">
        <ele>247</ele>
        <time>2016-10-04T10:04:17Z</time>
      </trkpt>
      <trkpt lat="46.11591" lon="4.67653">
        <ele>247</ele>
        <time>2016-10-04T10:04:18Z</time>
      </trkpt>
      <trkpt lat="46.11598" lon="4.67657">
        <ele>247</ele>
        <time>2016-10-04T10:04:20Z</time>
      </trkpt>
      <trkpt lat="46.11601" lon="4.67659">
        <ele>247</ele>
        <time>2016-10-04T10:04:21Z</time>
      </trkpt>
      <trkpt lat="46.11607" lon="4.67665">
        <ele>247</ele>
        <time>2016-10-04T10:04:23Z</time>
      </trkpt>
      <trkpt lat="46.1161" lon="4.67667">
        <ele>247</ele>
        <time>2016-10-04T10:04:24Z</time>
      </trkpt>
      <trkpt lat="46.11618" lon="4.67673">
        <ele>247</ele>
        <time>2016-10-04T10:04:27Z</time>
      </trkpt>
      <trkpt lat="46.11621" lon="4.67675">
        <ele>247</ele>
        <time>2016-10-04T10:04:28Z</time>
      </trkpt>
      <trkpt lat="46.11629" lon="4.67679">
        <ele>247</ele>
        <time>2016-10-04T10:04:30Z</time>
      </trkpt>
      <trkpt lat="46.11632" lon="4.67683">
        <ele>247</ele>
        <time>2016-10-04T10:04:31Z</time>
      </trkpt>
      <trkpt lat="46.11634" lon="4.6769">
        <ele>247</ele>
        <time>2016-10-04T10:04:33Z</time>
      </trkpt>
      <trkpt lat="46.11635" lon="4.67695">
        <ele>247</ele>
        <time>2016-10-04T10:04:34Z</time>
      </trkpt>
      <trkpt lat="46.11633" lon="4.67705">
        <ele>247</ele>
        <time>2016-10-04T10:04:36Z</time>
      </trkpt>
      <trkpt lat="46.11631" lon="4.6771">
        <ele>247</ele>
        <time>2016-10-04T10:04:37Z</time>
      </trkpt>
      <trkpt lat="46.11626" lon="4.67721">
        <ele>247</ele>
        <time>2016-10-04T10:04:39Z</time>
      </trkpt>
      <trkpt lat="46.11624" lon="4.67727">
        <ele>247</ele>
        <time>2016-10-04T10:04:40Z</time>
      </trkpt>
      <trkpt lat="46.11622" lon="4.67733">
        <ele>247</ele>
        <time>2016-10-04T10:04:41Z</time>
      </trkpt>
      <trkpt lat="46.1162" lon="4.67739">
        <ele>247</ele>
        <time>2016-10-04T10:04:42Z</time>
      </trkpt>
      <trkpt lat="46.11618" lon="4.67745">
        <ele>247</ele>
        <time>2016-10-04T10:04:43Z</time>
      </trkpt>
      <trkpt lat="46.11616" lon="4.67751">
        <ele>248</ele>
        <time>2016-10-04T10:04:44Z</time>
      </trkpt>
      <trkpt lat="46.11613" lon="4.67763">
        <ele>248</ele>
        <time>2016-10-04T10:04:46Z</time>
      </trkpt>
      <trkpt lat="46.11611" lon="4.6777">
        <ele>248</ele>
        <time>2016-10-04T10:04:47Z</time>
      </trkpt>
      <trkpt lat="46.1161" lon="4.67776">
        <ele>248</ele>
        <time>2016-10-04T10:04:48Z</time>
      </trkpt>
      <trkpt lat="46.11609" lon="4.67782">
        <ele>248</ele>
        <time>2016-10-04T10:04:49Z</time>
      </trkpt>
      <trkpt lat="46.11607" lon="4.67789">
        <ele>248</ele>
        <time>2016-10-04T10:04:50Z</time>
      </trkpt>
      <trkpt lat="46.11606" lon="4.67795">
        <ele>247</ele>
        <time>2016-10-04T10:04:51Z</time>
      </trkpt>
      <trkpt lat="46.11604" lon="4.67803">
        <ele>247</ele>
        <time>2016-10-04T10:04:52Z</time>
      </trkpt>
      <trkpt lat="46.11602" lon="4.6781">
        <ele>247</ele>
        <time>2016-10-04T10:04:53Z</time>
      </trkpt>
      <trkpt lat="46.116" lon="4.67817">
        <ele>247</ele>
        <time>2016-10-04T10:04:54Z</time>
      </trkpt>
      <trkpt lat="46.11599" lon="4.67826">
        <ele>247</ele>
        <time>2016-10-04T10:04:55Z</time>
      </trkpt>
      <trkpt lat="46.11596" lon="4.67833">
        <ele>247</ele>
        <time>2016-10-04T10:04:56Z</time>
      </trkpt>
      <trkpt lat="46.11595" lon="4.67841">
        <ele>247</ele>
        <time>2016-10-04T10:04:57Z</time>
      </trkpt>
      <trkpt lat="46.11594" lon="4.67849">
        <ele>247</ele>
        <time>2016-10-04T10:04:58Z</time>
      </trkpt>
      <trkpt lat="46.11592" lon="4.67857">
        <ele>247</ele>
        <time>2016-10-04T10:04:59Z</time>
      </trkpt>
      <trkpt lat="46.11591" lon="4.67865">
        <ele>247</ele>
        <time>2016-10-04T10:05:00Z</time>
      </trkpt>
      <trkpt lat="46.1159" lon="4.67872">
        <ele>247</ele>
        <time>2016-10-04T10:05:01Z</time>
      </trkpt>
      <trkpt lat="46.11589" lon="4.67879">
        <ele>247</ele>
        <time>2016-10-04T10:05:02Z</time>
      </trkpt>
      <trkpt lat="46.11588" lon="4.67886">
        <ele>247</ele>
        <time>2016-10-04T10:05:03Z</time>
      </trkpt>
      <trkpt lat="46.11587" lon="4.67893">
        <ele>247</ele>
        <time>2016-10-04T10:05:04Z</time>
      </trkpt>
      <trkpt lat="46.11585" lon="4.679">
        <ele>247</ele>
        <time>2016-10-04T10:05:05Z</time>
      </trkpt>
      <trkpt lat="46.11584" lon="4.67907">
        <ele>247</ele>
        <time>2016-10-04T10:05:06Z</time>
      </trkpt>
      <trkpt lat="46.11583" lon="4.67913">
        <ele>247</ele>
        <time>2016-10-04T10:05:07Z</time>
      </trkpt>
      <trkpt lat="46.11582" lon="4.67921">
        <ele>247</ele>
        <time>2016-10-04T10:05:08Z</time>
      </trkpt>
      <trkpt lat="46.11581" lon="4.67929">
        <ele>247</ele>
        <time>2016-10-04T10:05:09Z</time>
      </trkpt>
      <trkpt lat="46.1158" lon="4.67937">
        <ele>246</ele>
        <time>2016-10-04T10:05:10Z</time>
      </trkpt>
      <trkpt lat="46.11579" lon="4.67946">
        <ele>246</ele>
        <time>2016-10-04T10:05:11Z</time>
      </trkpt>
      <trkpt lat="46.11579" lon="4.67953">
        <ele>246</ele>
        <time>2016-10-04T10:05:12Z</time>
      </trkpt>
      <trkpt lat="46.11579" lon="4.67962">
        <ele>246</ele>
        <time>2016-10-04T10:05:13Z</time>
      </trkpt>
      <trkpt lat="46.11579" lon="4.6797">
        <ele>247</ele>
        <time>2016-10-04T10:05:14Z</time>
      </trkpt>
      <trkpt lat="46.1158" lon="4.67979">
        <ele>247</ele>
        <time>2016-10-04T10:05:15Z</time>
      </trkpt>
      <trkpt lat="46.1158" lon="4.67986">
        <ele>247</ele>
        <time>2016-10-04T10:05:16Z</time>
      </trkpt>
      <trkpt lat="46.1158" lon="4.67993">
        <ele>247</ele>
        <time>2016-10-04T10:05:17Z</time>
      </trkpt>
      <trkpt lat="46.1158" lon="4.68001">
        <ele>248</ele>
        <time>2016-10-04T10:05:18Z</time>
      </trkpt>
      <trkpt lat="46.11581" lon="4.68008">
        <ele>248</ele>
        <time>2016-10-04T10:05:19Z</time>
      </trkpt>
      <trkpt lat="46.11581" lon="4.68015">
        <ele>247</ele>
        <time>2016-10-04T10:05:20Z</time>
      </trkpt>
      <trkpt lat="46.11581" lon="4.68024">
        <ele>247</ele>
        <time>2016-10-04T10:05:21Z</time>
      </trkpt>
      <trkpt lat="46.11581" lon="4.68031">
        <ele>247</ele>
        <time>2016-10-04T10:05:22Z</time>
      </trkpt>
      <trkpt lat="46.11581" lon="4.68038">
        <ele>247</ele>
        <time>2016-10-04T10:05:23Z</time>
      </trkpt>
      <trkpt lat="46.11582" lon="4.68051">
        <ele>247</ele>
        <time>2016-10-04T10:05:25Z</time>
      </trkpt>
      <trkpt lat="46.11582" lon="4.68058">
        <ele>247</ele>
        <time>2016-10-04T10:05:26Z</time>
      </trkpt>
      <trkpt lat="46.11582" lon="4.68064">
        <ele>247</ele>
        <time>2016-10-04T10:05:27Z</time>
      </trkpt>
      <trkpt lat="46.11583" lon="4.68071">
        <ele>247</ele>
        <time>2016-10-04T10:05:28Z</time>
      </trkpt>
      <trkpt lat="46.11583" lon="4.68078">
        <ele>248</ele>
        <time>2016-10-04T10:05:29Z</time>
      </trkpt>
      <trkpt lat="46.11584" lon="4.68085">
        <ele>248</ele>
        <time>2016-10-04T10:05:30Z</time>
      </trkpt>
      <trkpt lat="46.11584" lon="4.68093">
        <ele>248</ele>
        <time>2016-10-04T10:05:31Z</time>
      </trkpt>
      <trkpt lat="46.11585" lon="4.68101">
        <ele>248</ele>
        <time>2016-10-04T10:05:32Z</time>
      </trkpt>
      <trkpt lat="46.11585" lon="4.6811">
        <ele>248</ele>
        <time>2016-10-04T10:05:33Z</time>
      </trkpt>
      <trkpt lat="46.11586" lon="4.68118">
        <ele>248</ele>
        <time>2016-10-04T10:05:34Z</time>
      </trkpt>
      <trkpt lat="46.11586" lon="4.68126">
        <ele>248</ele>
        <time>2016-10-04T10:05:35Z</time>
      </trkpt>
      <trkpt lat="46.11586" lon="4.68134">
        <ele>248</ele>
        <time>2016-10-04T10:05:36Z</time>
      </trkpt>
      <trkpt lat="46.11588" lon="4.68143">
        <ele>248</ele>
        <time>2016-10-04T10:05:37Z</time>
      </trkpt>
      <trkpt lat="46.11588" lon="4.68151">
        <ele>249</ele>
        <time>2016-10-04T10:05:38Z</time>
      </trkpt>
      <trkpt lat="46.11588" lon="4.68161">
        <ele>249</ele>
        <time>2016-10-04T10:05:39Z</time>
      </trkpt>
      <trkpt lat="46.11589" lon="4.68169">
        <ele>249</ele>
        <time>2016-10-04T10:05:40Z</time>
      </trkpt>
      <trkpt lat="46.11588" lon="4.68178">
        <ele>249</ele>
        <time>2016-10-04T10:05:41Z</time>
      </trkpt>
      <trkpt lat="46.11588" lon="4.68186">
        <ele>249</ele>
        <time>2016-10-04T10:05:42Z</time>
      </trkpt>
      <trkpt lat="46.11589" lon="4.68194">
        <ele>249</ele>
        <time>2016-10-04T10:05:43Z</time>
      </trkpt>
      <trkpt lat="46.1159" lon="4.68203">
        <ele>249</ele>
        <time>2016-10-04T10:05:44Z</time>
      </trkpt>
      <trkpt lat="46.11591" lon="4.68211">
        <ele>249</ele>
        <time>2016-10-04T10:05:45Z</time>
      </trkpt>
      <trkpt lat="46.11592" lon="4.68219">
        <ele>249</ele>
        <time>2016-10-04T10:05:46Z</time>
      </trkpt>
      <trkpt lat="46.11593" lon="4.68226">
        <ele>249</ele>
        <time>2016-10-04T10:05:47Z</time>
      </trkpt>
      <trkpt lat="46.11594" lon="4.68234">
        <ele>249</ele>
        <time>2016-10-04T10:05:48Z</time>
      </trkpt>
      <trkpt lat="46.11595" lon="4.68242">
        <ele>250</ele>
        <time>2016-10-04T10:05:49Z</time>
      </trkpt>
      <trkpt lat="46.11597" lon="4.68249">
        <ele>250</ele>
        <time>2016-10-04T10:05:50Z</time>
      </trkpt>
      <trkpt lat="46.11599" lon="4.68256">
        <ele>250</ele>
        <time>2016-10-04T10:05:51Z</time>
      </trkpt>
      <trkpt lat="46.11601" lon="4.68263">
        <ele>250</ele>
        <time>2016-10-04T10:05:52Z</time>
      </trkpt>
      <trkpt lat="46.11602" lon="4.6827">
        <ele>249</ele>
        <time>2016-10-04T10:05:53Z</time>
      </trkpt>
      <trkpt lat="46.11604" lon="4.68277">
        <ele>249</ele>
        <time>2016-10-04T10:05:54Z</time>
      </trkpt>
      <trkpt lat="46.11605" lon="4.68283">
        <ele>249</ele>
        <time>2016-10-04T10:05:55Z</time>
      </trkpt>
      <trkpt lat="46.11607" lon="4.6829">
        <ele>249</ele>
        <time>2016-10-04T10:05:56Z</time>
      </trkpt>
      <trkpt lat="46.11608" lon="4.68296">
        <ele>249</ele>
        <time>2016-10-04T10:05:57Z</time>
      </trkpt>
      <trkpt lat="46.1161" lon="4.68303">
        <ele>249</ele>
        <time>2016-10-04T10:05:58Z</time>
      </trkpt>
      <trkpt lat="46.11612" lon="4.6831">
        <ele>249</ele>
        <time>2016-10-04T10:05:59Z</time>
      </trkpt>
      <trkpt lat="46.11614" lon="4.68317">
        <ele>249</ele>
        <time>2016-10-04T10:06:00Z</time>
      </trkpt>
      <trkpt lat="46.11616" lon="4.68325">
        <ele>249</ele>
        <time>2016-10-04T10:06:01Z</time>
      </trkpt>
      <trkpt lat="46.11618" lon="4.68332">
        <ele>249</ele>
        <time>2016-10-04T10:06:02Z</time>
      </trkpt>
      <trkpt lat="46.11619" lon="4.68339">
        <ele>249</ele>
        <time>2016-10-04T10:06:03Z</time>
      </trkpt>
      <trkpt lat="46.11621" lon="4.68347">
        <ele>249</ele>
        <time>2016-10-04T10:06:04Z</time>
      </trkpt>
      <trkpt lat="46.11622" lon="4.68354">
        <ele>249</ele>
        <time>2016-10-04T10:06:05Z</time>
      </trkpt>
      <trkpt lat="46.11624" lon="4.68361">
        <ele>249</ele>
        <time>2016-10-04T10:06:06Z</time>
      </trkpt>
      <trkpt lat="46.11626" lon="4.68369">
        <ele>249</ele>
        <time>2016-10-04T10:06:07Z</time>
      </trkpt>
      <trkpt lat="46.11628" lon="4.68377">
        <ele>249</ele>
        <time>2016-10-04T10:06:08Z</time>
      </trkpt>
      <trkpt lat="46.1163" lon="4.68385">
        <ele>249</ele>
        <time>2016-10-04T10:06:09Z</time>
      </trkpt>
      <trkpt lat="46.11631" lon="4.68392">
        <ele>249</ele>
        <time>2016-10-04T10:06:10Z</time>
      </trkpt>
      <trkpt lat="46.11633" lon="4.68399">
        <ele>249</ele>
        <time>2016-10-04T10:06:11Z</time>
      </trkpt>
      <trkpt lat="46.11633" lon="4.68406">
        <ele>249</ele>
        <time>2016-10-04T10:06:12Z</time>
      </trkpt>
      <trkpt lat="46.11634" lon="4.68412">
        <ele>249</ele>
        <time>2016-10-04T10:06:13Z</time>
      </trkpt>
      <trkpt lat="46.11635" lon="4.68419">
        <ele>250</ele>
        <time>2016-10-04T10:06:14Z</time>
      </trkpt>
      <trkpt lat="46.11636" lon="4.68426">
        <ele>250</ele>
        <time>2016-10-04T10:06:15Z</time>
      </trkpt>
      <trkpt lat="46.11637" lon="4.68433">
        <ele>250</ele>
        <time>2016-10-04T10:06:16Z</time>
      </trkpt>
      <trkpt lat="46.11637" lon="4.6844">
        <ele>250</ele>
        <time>2016-10-04T10:06:17Z</time>
      </trkpt>
      <trkpt lat="46.11638" lon="4.68446">
        <ele>250</ele>
        <time>2016-10-04T10:06:18Z</time>
      </trkpt>
      <trkpt lat="46.11639" lon="4.68459">
        <ele>250</ele>
        <time>2016-10-04T10:06:20Z</time>
      </trkpt>
      <trkpt lat="46.11639" lon="4.68465">
        <ele>250</ele>
        <time>2016-10-04T10:06:21Z</time>
      </trkpt>
      <trkpt lat="46.11638" lon="4.68472">
        <ele>250</ele>
        <time>2016-10-04T10:06:22Z</time>
      </trkpt>
      <trkpt lat="46.11637" lon="4.68479">
        <ele>250</ele>
        <time>2016-10-04T10:06:23Z</time>
      </trkpt>
      <trkpt lat="46.11636" lon="4.68486">
        <ele>251</ele>
        <time>2016-10-04T10:06:24Z</time>
      </trkpt>
      <trkpt lat="46.11636" lon="4.68493">
        <ele>251</ele>
        <time>2016-10-04T10:06:25Z</time>
      </trkpt>
      <trkpt lat="46.11636" lon="4.68501">
        <ele>251</ele>
        <time>2016-10-04T10:06:26Z</time>
      </trkpt>
      <trkpt lat="46.11636" lon="4.68508">
        <ele>251</ele>
        <time>2016-10-04T10:06:27Z</time>
      </trkpt>
      <trkpt lat="46.11636" lon="4.68515">
        <ele>251</ele>
        <time>2016-10-04T10:06:28Z</time>
      </trkpt>
      <trkpt lat="46.11636" lon="4.68522">
        <ele>251</ele>
        <time>2016-10-04T10:06:29Z</time>
      </trkpt>
      <trkpt lat="46.11636" lon="4.68529">
        <ele>251</ele>
        <time>2016-10-04T10:06:30Z</time>
      </trkpt>
      <trkpt lat="46.11635" lon="4.68536">
        <ele>251</ele>
        <time>2016-10-04T10:06:31Z</time>
      </trkpt>
      <trkpt lat="46.11635" lon="4.68543">
        <ele>251</ele>
        <time>2016-10-04T10:06:32Z</time>
      </trkpt>
      <trkpt lat="46.11635" lon="4.6855">
        <ele>251</ele>
        <time>2016-10-04T10:06:33Z</time>
      </trkpt>
      <trkpt lat="46.11634" lon="4.68557">
        <ele>251</ele>
        <time>2016-10-04T10:06:34Z</time>
      </trkpt>
      <trkpt lat="46.11634" lon="4.68564">
        <ele>251</ele>
        <time>2016-10-04T10:06:35Z</time>
      </trkpt>
      <trkpt lat="46.11634" lon="4.68571">
        <ele>251</ele>
        <time>2016-10-04T10:06:36Z</time>
      </trkpt>
      <trkpt lat="46.11633" lon="4.68579">
        <ele>251</ele>
        <time>2016-10-04T10:06:37Z</time>
      </trkpt>
      <trkpt lat="46.11633" lon="4.68587">
        <ele>251</ele>
        <time>2016-10-04T10:06:38Z</time>
      </trkpt>
      <trkpt lat="46.11632" lon="4.68596">
        <ele>251</ele>
        <time>2016-10-04T10:06:39Z</time>
      </trkpt>
      <trkpt lat="46.11632" lon="4.68604">
        <ele>251</ele>
        <time>2016-10-04T10:06:40Z</time>
      </trkpt>
      <trkpt lat="46.11632" lon="4.68612">
        <ele>251</ele>
        <time>2016-10-04T10:06:41Z</time>
      </trkpt>
      <trkpt lat="46.1163" lon="4.6862">
        <ele>251</ele>
        <time>2016-10-04T10:06:42Z</time>
      </trkpt>
      <trkpt lat="46.11629" lon="4.68628">
        <ele>251</ele>
        <time>2016-10-04T10:06:43Z</time>
      </trkpt>
      <trkpt lat="46.11629" lon="4.68636">
        <ele>251</ele>
        <time>2016-10-04T10:06:44Z</time>
      </trkpt>
      <trkpt lat="46.11629" lon="4.68644">
        <ele>251</ele>
        <time>2016-10-04T10:06:45Z</time>
      </trkpt>
      <trkpt lat="46.11628" lon="4.68652">
        <ele>251</ele>
        <time>2016-10-04T10:06:46Z</time>
      </trkpt>
      <trkpt lat="46.11628" lon="4.6866">
        <ele>251</ele>
        <time>2016-10-04T10:06:47Z</time>
      </trkpt>
      <trkpt lat="46.11629" lon="4.68668">
        <ele>252</ele>
        <time>2016-10-04T10:06:48Z</time>
      </trkpt>
      <trkpt lat="46.1163" lon="4.68676">
        <ele>252</ele>
        <time>2016-10-04T10:06:49Z</time>
      </trkpt>
      <trkpt lat="46.11631" lon="4.68683">
        <ele>252</ele>
        <time>2016-10-04T10:06:50Z</time>
      </trkpt>
      <trkpt lat="46.11634" lon="4.6869">
        <ele>252</ele>
        <time>2016-10-04T10:06:51Z</time>
      </trkpt>
      <trkpt lat="46.11638" lon="4.68696">
        <ele>252</ele>
        <time>2016-10-04T10:06:52Z</time>
      </trkpt>
      <trkpt lat="46.11642" lon="4.68701">
        <ele>252</ele>
        <time>2016-10-04T10:06:53Z</time>
      </trkpt>
      <trkpt lat="46.11647" lon="4.68704">
        <ele>252</ele>
        <time>2016-10-04T10:06:54Z</time>
      </trkpt>
      <trkpt lat="46.11652" lon="4.68707">
        <ele>252</ele>
        <time>2016-10-04T10:06:55Z</time>
      </trkpt>
      <trkpt lat="46.11658" lon="4.68709">
        <ele>252</ele>
        <time>2016-10-04T10:06:56Z</time>
      </trkpt>
      <trkpt lat="46.11663" lon="4.68713">
        <ele>252</ele>
        <time>2016-10-04T10:06:57Z</time>
      </trkpt>
      <trkpt lat="46.11668" lon="4.68716">
        <ele>251</ele>
        <time>2016-10-04T10:06:58Z</time>
      </trkpt>
      <trkpt lat="46.11674" lon="4.6872">
        <ele>251</ele>
        <time>2016-10-04T10:06:59Z</time>
      </trkpt>
      <trkpt lat="46.1168" lon="4.68723">
        <ele>251</ele>
        <time>2016-10-04T10:07:00Z</time>
      </trkpt>
      <trkpt lat="46.11686" lon="4.68727">
        <ele>251</ele>
        <time>2016-10-04T10:07:01Z</time>
      </trkpt>
      <trkpt lat="46.11692" lon="4.68731">
        <ele>251</ele>
        <time>2016-10-04T10:07:02Z</time>
      </trkpt>
      <trkpt lat="46.11698" lon="4.68734">
        <ele>251</ele>
        <time>2016-10-04T10:07:03Z</time>
      </trkpt>
      <trkpt lat="46.11703" lon="4.68737">
        <ele>251</ele>
        <time>2016-10-04T10:07:04Z</time>
      </trkpt>
      <trkpt lat="46.11709" lon="4.68739">
        <ele>251</ele>
        <time>2016-10-04T10:07:05Z</time>
      </trkpt>
      <trkpt lat="46.11715" lon="4.68741">
        <ele>251</ele>
        <time>2016-10-04T10:07:06Z</time>
      </trkpt>
      <trkpt lat="46.11721" lon="4.68742">
        <ele>250</ele>
        <time>2016-10-04T10:07:07Z</time>
      </trkpt>
      <trkpt lat="46.11727" lon="4.68743">
        <ele>250</ele>
        <time>2016-10-04T10:07:08Z</time>
      </trkpt>
      <trkpt lat="46.11732" lon="4.68744">
        <ele>250</ele>
        <time>2016-10-04T10:07:09Z</time>
      </trkpt>
      <trkpt lat="46.11737" lon="4.68746">
        <ele>250</ele>
        <time>2016-10-04T10:07:10Z</time>
      </trkpt>
      <trkpt lat="46.11742" lon="4.68747">
        <ele>250</ele>
        <time>2016-10-04T10:07:11Z</time>
      </trkpt>
      <trkpt lat="46.11747" lon="4.68747">
        <ele>250</ele>
        <time>2016-10-04T10:07:12Z</time>
      </trkpt>
      <trkpt lat="46.11752" lon="4.68749">
        <ele>250</ele>
        <time>2016-10-04T10:07:13Z</time>
      </trkpt>
      <trkpt lat="46.11759" lon="4.68751">
        <ele>250</ele>
        <time>2016-10-04T10:07:14Z</time>
      </trkpt>
      <trkpt lat="46.11765" lon="4.68753">
        <ele>249</ele>
        <time>2016-10-04T10:07:15Z</time>
      </trkpt>
      <trkpt lat="46.11771" lon="4.68756">
        <ele>249</ele>
        <time>2016-10-04T10:07:16Z</time>
      </trkpt>
      <trkpt lat="46.11777" lon="4.68759">
        <ele>249</ele>
        <time>2016-10-04T10:07:17Z</time>
      </trkpt>
      <trkpt lat="46.11783" lon="4.68762">
        <ele>249</ele>
        <time>2016-10-04T10:07:18Z</time>
      </trkpt>
      <trkpt lat="46.11788" lon="4.68767">
        <ele>248</ele>
        <time>2016-10-04T10:07:19Z</time>
      </trkpt>
      <trkpt lat="46.11793" lon="4.68771">
        <ele>248</ele>
        <time>2016-10-04T10:07:20Z</time>
      </trkpt>
      <trkpt lat="46.11799" lon="4.68776">
        <ele>248</ele>
        <time>2016-10-04T10:07:21Z</time>
      </trkpt>
      <trkpt lat="46.11803" lon="4.68779">
        <ele>248</ele>
        <time>2016-10-04T10:07:22Z</time>
      </trkpt>
      <trkpt lat="46.11808" lon="4.68784">
        <ele>248</ele>
        <time>2016-10-04T10:07:23Z</time>
      </trkpt>
      <trkpt lat="46.11812" lon="4.68787">
        <ele>248</ele>
        <time>2016-10-04T10:07:24Z</time>
      </trkpt>
      <trkpt lat="46.11817" lon="4.68791">
        <ele>248</ele>
        <time>2016-10-04T10:07:25Z</time>
      </trkpt>
      <trkpt lat="46.11821" lon="4.68794">
        <ele>248</ele>
        <time>2016-10-04T10:07:26Z</time>
      </trkpt>
      <trkpt lat="46.11826" lon="4.68796">
        <ele>248</ele>
        <time>2016-10-04T10:07:27Z</time>
      </trkpt>
      <trkpt lat="46.11831" lon="4.688">
        <ele>248</ele>
        <time>2016-10-04T10:07:28Z</time>
      </trkpt>
      <trkpt lat="46.11835" lon="4.68805">
        <ele>247</ele>
        <time>2016-10-04T10:07:29Z</time>
      </trkpt>
      <trkpt lat="46.1184" lon="4.68809">
        <ele>247</ele>
        <time>2016-10-04T10:07:30Z</time>
      </trkpt>
      <trkpt lat="46.11845" lon="4.68813">
        <ele>247</ele>
        <time>2016-10-04T10:07:31Z</time>
      </trkpt>
      <trkpt lat="46.1185" lon="4.68818">
        <ele>247</ele>
        <time>2016-10-04T10:07:32Z</time>
      </trkpt>
      <trkpt lat="46.11854" lon="4.68822">
        <ele>247</ele>
        <time>2016-10-04T10:07:33Z</time>
      </trkpt>
      <trkpt lat="46.11859" lon="4.68826">
        <ele>247</ele>
        <time>2016-10-04T10:07:34Z</time>
      </trkpt>
      <trkpt lat="46.11863" lon="4.6883">
        <ele>247</ele>
        <time>2016-10-04T10:07:35Z</time>
      </trkpt>
      <trkpt lat="46.11867" lon="4.68834">
        <ele>248</ele>
        <time>2016-10-04T10:07:36Z</time>
      </trkpt>
      <trkpt lat="46.11872" lon="4.68837">
        <ele>248</ele>
        <time>2016-10-04T10:07:37Z</time>
      </trkpt>
      <trkpt lat="46.11876" lon="4.68842">
        <ele>248</ele>
        <time>2016-10-04T10:07:38Z</time>
      </trkpt>
      <trkpt lat="46.1188" lon="4.68846">
        <ele>248</ele>
        <time>2016-10-04T10:07:39Z</time>
      </trkpt>
      <trkpt lat="46.11885" lon="4.6885">
        <ele>248</ele>
        <time>2016-10-04T10:07:40Z</time>
      </trkpt>
      <trkpt lat="46.11889" lon="4.68854">
        <ele>248</ele>
        <time>2016-10-04T10:07:41Z</time>
      </trkpt>
      <trkpt lat="46.11894" lon="4.68858">
        <ele>248</ele>
        <time>2016-10-04T10:07:42Z</time>
      </trkpt>
      <trkpt lat="46.11898" lon="4.68862">
        <ele>248</ele>
        <time>2016-10-04T10:07:43Z</time>
      </trkpt>
      <trkpt lat="46.11903" lon="4.68867">
        <ele>249</ele>
        <time>2016-10-04T10:07:44Z</time>
      </trkpt>
      <trkpt lat="46.11908" lon="4.68871">
        <ele>249</ele>
        <time>2016-10-04T10:07:45Z</time>
      </trkpt>
      <trkpt lat="46.11913" lon="4.68875">
        <ele>249</ele>
        <time>2016-10-04T10:07:46Z</time>
      </trkpt>
      <trkpt lat="46.11918" lon="4.68879">
        <ele>250</ele>
        <time>2016-10-04T10:07:47Z</time>
      </trkpt>
      <trkpt lat="46.11923" lon="4.68883">
        <ele>250</ele>
        <time>2016-10-04T10:07:48Z</time>
      </trkpt>
      <trkpt lat="46.11928" lon="4.68886">
        <ele>250</ele>
        <time>2016-10-04T10:07:49Z</time>
      </trkpt>
      <trkpt lat="46.11932" lon="4.6889">
        <ele>250</ele>
        <time>2016-10-04T10:07:50Z</time>
      </trkpt>
      <trkpt lat="46.11936" lon="4.68893">
        <ele>250</ele>
        <time>2016-10-04T10:07:51Z</time>
      </trkpt>
      <trkpt lat="46.1194" lon="4.68897">
        <ele>250</ele>
        <time>2016-10-04T10:07:52Z</time>
      </trkpt>
      <trkpt lat="46.11944" lon="4.689">
        <ele>250</ele>
        <time>2016-10-04T10:07:53Z</time>
      </trkpt>
      <trkpt lat="46.11948" lon="4.68903">
        <ele>250</ele>
        <time>2016-10-04T10:07:54Z</time>
      </trkpt>
      <trkpt lat="46.11952" lon="4.68906">
        <ele>250</ele>
        <time>2016-10-04T10:07:55Z</time>
      </trkpt>
      <trkpt lat="46.11956" lon="4.6891">
        <ele>250</ele>
        <time>2016-10-04T10:07:56Z</time>
      </trkpt>
      <trkpt lat="46.1196" lon="4.68913">
        <ele>250</ele>
        <time>2016-10-04T10:07:57Z</time>
      </trkpt>
      <trkpt lat="46.11964" lon="4.68917">
        <ele>251</ele>
        <time>2016-10-04T10:07:58Z</time>
      </trkpt>
      <trkpt lat="46.11968" lon="4.68921">
        <ele>251</ele>
        <time>2016-10-04T10:07:59Z</time>
      </trkpt>
      <trkpt lat="46.11972" lon="4.68924">
        <ele>251</ele>
        <time>2016-10-04T10:08:00Z</time>
      </trkpt>
      <trkpt lat="46.11976" lon="4.68927">
        <ele>251</ele>
        <time>2016-10-04T10:08:01Z</time>
      </trkpt>
      <trkpt lat="46.11984" lon="4.68932">
        <ele>251</ele>
        <time>2016-10-04T10:08:03Z</time>
      </trkpt>
      <trkpt lat="46.11987" lon="4.68935">
        <ele>251</ele>
        <time>2016-10-04T10:08:04Z</time>
      </trkpt>
      <trkpt lat="46.11992" lon="4.68941">
        <ele>251</ele>
        <time>2016-10-04T10:08:06Z</time>
      </trkpt>
      <trkpt lat="46.11994" lon="4.68945">
        <ele>251</ele>
        <time>2016-10-04T10:08:07Z</time>
      </trkpt>
      <trkpt lat="46.11999" lon="4.68953">
        <ele>251</ele>
        <time>2016-10-04T10:08:09Z</time>
      </trkpt>
      <trkpt lat="46.12" lon="4.68958">
        <ele>250</ele>
        <time>2016-10-04T10:08:10Z</time>
      </trkpt>
      <trkpt lat="46.12" lon="4.6897">
        <ele>251</ele>
        <time>2016-10-04T10:08:12Z</time>
      </trkpt>
      <trkpt lat="46.11998" lon="4.68977">
        <ele>251</ele>
        <time>2016-10-04T10:08:13Z</time>
      </trkpt>
      <trkpt lat="46.11996" lon="4.68982">
        <ele>251</ele>
        <time>2016-10-04T10:08:14Z</time>
      </trkpt>
      <trkpt lat="46.11993" lon="4.68989">
        <ele>251</ele>
        <time>2016-10-04T10:08:15Z</time>
      </trkpt>
      <trkpt lat="46.11992" lon="4.68996">
        <ele>251</ele>
        <time>2016-10-04T10:08:16Z</time>
      </trkpt>
      <trkpt lat="46.1199" lon="4.69003">
        <ele>251</ele>
        <time>2016-10-04T10:08:17Z</time>
      </trkpt>
      <trkpt lat="46.11988" lon="4.6901">
        <ele>251</ele>
        <time>2016-10-04T10:08:18Z</time>
      </trkpt>
      <trkpt lat="46.11986" lon="4.69017">
        <ele>251</ele>
        <time>2016-10-04T10:08:19Z</time>
      </trkpt>
      <trkpt lat="46.11984" lon="4.69024">
        <ele>251</ele>
        <time>2016-10-04T10:08:20Z</time>
      </trkpt>
      <trkpt lat="46.11983" lon="4.69031">
        <ele>251</ele>
        <time>2016-10-04T10:08:21Z</time>
      </trkpt>
      <trkpt lat="46.11981" lon="4.69038">
        <ele>251</ele>
        <time>2016-10-04T10:08:22Z</time>
      </trkpt>
      <trkpt lat="46.1198" lon="4.69046">
        <ele>251</ele>
        <time>2016-10-04T10:08:23Z</time>
      </trkpt>
      <trkpt lat="46.11978" lon="4.69054">
        <ele>251</ele>
        <time>2016-10-04T10:08:24Z</time>
      </trkpt>
      <trkpt lat="46.11977" lon="4.69061">
        <ele>251</ele>
        <time>2016-10-04T10:08:25Z</time>
      </trkpt>
      <trkpt lat="46.11976" lon="4.69068">
        <ele>251</ele>
        <time>2016-10-04T10:08:26Z</time>
      </trkpt>
      <trkpt lat="46.11974" lon="4.69075">
        <ele>251</ele>
        <time>2016-10-04T10:08:27Z</time>
      </trkpt>
      <trkpt lat="46.11973" lon="4.69082">
        <ele>251</ele>
        <time>2016-10-04T10:08:28Z</time>
      </trkpt>
      <trkpt lat="46.11971" lon="4.69088">
        <ele>250</ele>
        <time>2016-10-04T10:08:29Z</time>
      </trkpt>
      <trkpt lat="46.11969" lon="4.69095">
        <ele>250</ele>
        <time>2016-10-04T10:08:30Z</time>
      </trkpt>
      <trkpt lat="46.11967" lon="4.69102">
        <ele>250</ele>
        <time>2016-10-04T10:08:31Z</time>
      </trkpt>
      <trkpt lat="46.11965" lon="4.69109">
        <ele>249</ele>
        <time>2016-10-04T10:08:32Z</time>
      </trkpt>
      <trkpt lat="46.11963" lon="4.69117">
        <ele>249</ele>
        <time>2016-10-04T10:08:33Z</time>
      </trkpt>
      <trkpt lat="46.11961" lon="4.69124">
        <ele>249</ele>
        <time>2016-10-04T10:08:34Z</time>
      </trkpt>
      <trkpt lat="46.11959" lon="4.69131">
        <ele>249</ele>
        <time>2016-10-04T10:08:35Z</time>
      </trkpt>
      <trkpt lat="46.11957" lon="4.69138">
        <ele>249</ele>
        <time>2016-10-04T10:08:36Z</time>
      </trkpt>
      <trkpt lat="46.11955" lon="4.69146">
        <ele>249</ele>
        <time>2016-10-04T10:08:37Z</time>
      </trkpt>
      <trkpt lat="46.11952" lon="4.69153">
        <ele>249</ele>
        <time>2016-10-04T10:08:38Z</time>
      </trkpt>
      <trkpt lat="46.1195" lon="4.69162">
        <ele>249</ele>
        <time>2016-10-04T10:08:39Z</time>
      </trkpt>
      <trkpt lat="46.11948" lon="4.6917">
        <ele>248</ele>
        <time>2016-10-04T10:08:40Z</time>
      </trkpt>
      <trkpt lat="46.11946" lon="4.69179">
        <ele>248</ele>
        <time>2016-10-04T10:08:41Z</time>
      </trkpt>
      <trkpt lat="46.11943" lon="4.69187">
        <ele>248</ele>
        <time>2016-10-04T10:08:42Z</time>
      </trkpt>
      <trkpt lat="46.11941" lon="4.69194">
        <ele>248</ele>
        <time>2016-10-04T10:08:43Z</time>
      </trkpt>
      <trkpt lat="46.11939" lon="4.69202">
        <ele>248</ele>
        <time>2016-10-04T10:08:44Z</time>
      </trkpt>
      <trkpt lat="46.11936" lon="4.69209">
        <ele>248</ele>
        <time>2016-10-04T10:08:45Z</time>
      </trkpt>
      <trkpt lat="46.11934" lon="4.69216">
        <ele>248</ele>
        <time>2016-10-04T10:08:46Z</time>
      </trkpt>
      <trkpt lat="46.11932" lon="4.69224">
        <ele>247</ele>
        <time>2016-10-04T10:08:47Z</time>
      </trkpt>
      <trkpt lat="46.1193" lon="4.69232">
        <ele>247</ele>
        <time>2016-10-04T10:08:48Z</time>
      </trkpt>
      <trkpt lat="46.11928" lon="4.6924">
        <ele>247</ele>
        <time>2016-10-04T10:08:49Z</time>
      </trkpt>
      <trkpt lat="46.11926" lon="4.69247">
        <ele>247</ele>
        <time>2016-10-04T10:08:50Z</time>
      </trkpt>
      <trkpt lat="46.11924" lon="4.69254">
        <ele>247</ele>
        <time>2016-10-04T10:08:51Z</time>
      </trkpt>
      <trkpt lat="46.11922" lon="4.69261">
        <ele>247</ele>
        <time>2016-10-04T10:08:52Z</time>
      </trkpt>
      <trkpt lat="46.11919" lon="4.69269">
        <ele>247</ele>
        <time>2016-10-04T10:08:53Z</time>
      </trkpt>
      <trkpt lat="46.11917" lon="4.69276">
        <ele>247</ele>
        <time>2016-10-04T10:08:54Z</time>
      </trkpt>
      <trkpt lat="46.11915" lon="4.69284">
        <ele>247</ele>
        <time>2016-10-04T10:08:55Z</time>
      </trkpt>
      <trkpt lat="46.11913" lon="4.69293">
        <ele>246</ele>
        <time>2016-10-04T10:08:56Z</time>
      </trkpt>
      <trkpt lat="46.11911" lon="4.69301">
        <ele>246</ele>
        <time>2016-10-04T10:08:57Z</time>
      </trkpt>
      <trkpt lat="46.11909" lon="4.69311">
        <ele>246</ele>
        <time>2016-10-04T10:08:58Z</time>
      </trkpt>
      <trkpt lat="46.11907" lon="4.69319">
        <ele>246</ele>
        <time>2016-10-04T10:08:59Z</time>
      </trkpt>
      <trkpt lat="46.11905" lon="4.69327">
        <ele>246</ele>
        <time>2016-10-04T10:09:00Z</time>
      </trkpt>
      <trkpt lat="46.11903" lon="4.69334">
        <ele>246</ele>
        <time>2016-10-04T10:09:01Z</time>
      </trkpt>
      <trkpt lat="46.11901" lon="4.69341">
        <ele>246</ele>
        <time>2016-10-04T10:09:02Z</time>
      </trkpt>
      <trkpt lat="46.11898" lon="4.69349">
        <ele>246</ele>
        <time>2016-10-04T10:09:03Z</time>
      </trkpt>
      <trkpt lat="46.11896" lon="4.69357">
        <ele>246</ele>
        <time>2016-10-04T10:09:04Z</time>
      </trkpt>
      <trkpt lat="46.11894" lon="4.69365">
        <ele>246</ele>
        <time>2016-10-04T10:09:05Z</time>
      </trkpt>
      <trkpt lat="46.11892" lon="4.69373">
        <ele>246</ele>
        <time>2016-10-04T10:09:06Z</time>
      </trkpt>
      <trkpt lat="46.1189" lon="4.6938">
        <ele>246</ele>
        <time>2016-10-04T10:09:07Z</time>
      </trkpt>
      <trkpt lat="46.11888" lon="4.69388">
        <ele>246</ele>
        <time>2016-10-04T10:09:08Z</time>
      </trkpt>
      <trkpt lat="46.11886" lon="4.69395">
        <ele>246</ele>
        <time>2016-10-04T10:09:09Z</time>
      </trkpt>
      <trkpt lat="46.11884" lon="4.69402">
        <ele>246</ele>
        <time>2016-10-04T10:09:10Z</time>
      </trkpt>
      <trkpt lat="46.11882" lon="4.69409">
        <ele>246</ele>
        <time>2016-10-04T10:09:11Z</time>
      </trkpt>
      <trkpt lat="46.1188" lon="4.69415">
        <ele>246</ele>
        <time>2016-10-04T10:09:12Z</time>
      </trkpt>
      <trkpt lat="46.11878" lon="4.69422">
        <ele>246</ele>
        <time>2016-10-04T10:09:13Z</time>
      </trkpt>
      <trkpt lat="46.11876" lon="4.6943">
        <ele>246</ele>
        <time>2016-10-04T10:09:14Z</time>
      </trkpt>
      <trkpt lat="46.11874" lon="4.69437">
        <ele>245</ele>
        <time>2016-10-04T10:09:15Z</time>
      </trkpt>
      <trkpt lat="46.11871" lon="4.69446">
        <ele>245</ele>
        <time>2016-10-04T10:09:16Z</time>
      </trkpt>
      <trkpt lat="46.11869" lon="4.69455">
        <ele>245</ele>
        <time>2016-10-04T10:09:17Z</time>
      </trkpt>
      <trkpt lat="46.11866" lon="4.69463">
        <ele>245</ele>
        <time>2016-10-04T10:09:18Z</time>
      </trkpt>
      <trkpt lat="46.11864" lon="4.69471">
        <ele>245</ele>
        <time>2016-10-04T10:09:19Z</time>
      </trkpt>
      <trkpt lat="46.11862" lon="4.6948">
        <ele>245</ele>
        <time>2016-10-04T10:09:20Z</time>
      </trkpt>
      <trkpt lat="46.11859" lon="4.69488">
        <ele>245</ele>
        <time>2016-10-04T10:09:21Z</time>
      </trkpt>
      <trkpt lat="46.11857" lon="4.69496">
        <ele>245</ele>
        <time>2016-10-04T10:09:22Z</time>
      </trkpt>
      <trkpt lat="46.11854" lon="4.69505">
        <ele>245</ele>
        <time>2016-10-04T10:09:23Z</time>
      </trkpt>
      <trkpt lat="46.11852" lon="4.69513">
        <ele>245</ele>
        <time>2016-10-04T10:09:24Z</time>
      </trkpt>
      <trkpt lat="46.11849" lon="4.69522">
        <ele>245</ele>
        <time>2016-10-04T10:09:25Z</time>
      </trkpt>
      <trkpt lat="46.11847" lon="4.69531">
        <ele>245</ele>
        <time>2016-10-04T10:09:26Z</time>
      </trkpt>
      <trkpt lat="46.11845" lon="4.6954">
        <ele>244</ele>
        <time>2016-10-04T10:09:27Z</time>
      </trkpt>
      <trkpt lat="46.11842" lon="4.69549">
        <ele>244</ele>
        <time>2016-10-04T10:09:28Z</time>
      </trkpt>
      <trkpt lat="46.11839" lon="4.69558">
        <ele>244</ele>
        <time>2016-10-04T10:09:29Z</time>
      </trkpt>
      <trkpt lat="46.11836" lon="4.69567">
        <ele>244</ele>
        <time>2016-10-04T10:09:30Z</time>
      </trkpt>
      <trkpt lat="46.11834" lon="4.69577">
        <ele>243</ele>
        <time>2016-10-04T10:09:31Z</time>
      </trkpt>
      <trkpt lat="46.11831" lon="4.69586">
        <ele>243</ele>
        <time>2016-10-04T10:09:32Z</time>
      </trkpt>
      <trkpt lat="46.11829" lon="4.69596">
        <ele>243</ele>
        <time>2016-10-04T10:09:33Z</time>
      </trkpt>
      <trkpt lat="46.11827" lon="4.69605">
        <ele>242</ele>
        <time>2016-10-04T10:09:34Z</time>
      </trkpt>
      <trkpt lat="46.11824" lon="4.69614">
        <ele>242</ele>
        <time>2016-10-04T10:09:35Z</time>
      </trkpt>
      <trkpt lat="46.11822" lon="4.69623">
        <ele>242</ele>
        <time>2016-10-04T10:09:36Z</time>
      </trkpt>
      <trkpt lat="46.11819" lon="4.69632">
        <ele>242</ele>
        <time>2016-10-04T10:09:37Z</time>
      </trkpt>
      <trkpt lat="46.11816" lon="4.69642">
        <ele>242</ele>
        <time>2016-10-04T10:09:38Z</time>
      </trkpt>
      <trkpt lat="46.11813" lon="4.69651">
        <ele>242</ele>
        <time>2016-10-04T10:09:39Z</time>
      </trkpt>
      <trkpt lat="46.1181" lon="4.6966">
        <ele>242</ele>
        <time>2016-10-04T10:09:40Z</time>
      </trkpt>
      <trkpt lat="46.11807" lon="4.69669">
        <ele>241</ele>
        <time>2016-10-04T10:09:41Z</time>
      </trkpt>
      <trkpt lat="46.11805" lon="4.69679">
        <ele>241</ele>
        <time>2016-10-04T10:09:42Z</time>
      </trkpt>
      <trkpt lat="46.11802" lon="4.69688">
        <ele>241</ele>
        <time>2016-10-04T10:09:43Z</time>
      </trkpt>
      <trkpt lat="46.11799" lon="4.69699">
        <ele>240</ele>
        <time>2016-10-04T10:09:44Z</time>
      </trkpt>
      <trkpt lat="46.11796" lon="4.69709">
        <ele>240</ele>
        <time>2016-10-04T10:09:45Z</time>
      </trkpt>
      <trkpt lat="46.11793" lon="4.69719">
        <ele>240</ele>
        <time>2016-10-04T10:09:46Z</time>
      </trkpt>
      <trkpt lat="46.1179" lon="4.6973">
        <ele>240</ele>
        <time>2016-10-04T10:09:47Z</time>
      </trkpt>
      <trkpt lat="46.11787" lon="4.6974">
        <ele>239</ele>
        <time>2016-10-04T10:09:48Z</time>
      </trkpt>
      <trkpt lat="46.11784" lon="4.6975">
        <ele>239</ele>
        <time>2016-10-04T10:09:49Z</time>
      </trkpt>
      <trkpt lat="46.11781" lon="4.69759">
        <ele>238</ele>
        <time>2016-10-04T10:09:50Z</time>
      </trkpt>
      <trkpt lat="46.11779" lon="4.69769">
        <ele>238</ele>
        <time>2016-10-04T10:09:51Z</time>
      </trkpt>
      <trkpt lat="46.11776" lon="4.69779">
        <ele>238</ele>
        <time>2016-10-04T10:09:52Z</time>
      </trkpt>
      <trkpt lat="46.11774" lon="4.69788">
        <ele>238</ele>
        <time>2016-10-04T10:09:53Z</time>
      </trkpt>
      <trkpt lat="46.11771" lon="4.69796">
        <ele>238</ele>
        <time>2016-10-04T10:09:54Z</time>
      </trkpt>
      <trkpt lat="46.11769" lon="4.69805">
        <ele>237</ele>
        <time>2016-10-04T10:09:55Z</time>
      </trkpt>
      <trkpt lat="46.11766" lon="4.69814">
        <ele>237</ele>
        <time>2016-10-04T10:09:56Z</time>
      </trkpt>
      <trkpt lat="46.11764" lon="4.69823">
        <ele>237</ele>
        <time>2016-10-04T10:09:57Z</time>
      </trkpt>
      <trkpt lat="46.11761" lon="4.69831">
        <ele>237</ele>
        <time>2016-10-04T10:09:58Z</time>
      </trkpt>
      <trkpt lat="46.11759" lon="4.6984">
        <ele>237</ele>
        <time>2016-10-04T10:09:59Z</time>
      </trkpt>
      <trkpt lat="46.11756" lon="4.69848">
        <ele>237</ele>
        <time>2016-10-04T10:10:00Z</time>
      </trkpt>
      <trkpt lat="46.11753" lon="4.69857">
        <ele>237</ele>
        <time>2016-10-04T10:10:01Z</time>
      </trkpt>
      <trkpt lat="46.11751" lon="4.69866">
        <ele>237</ele>
        <time>2016-10-04T10:10:02Z</time>
      </trkpt>
      <trkpt lat="46.11748" lon="4.69875">
        <ele>236</ele>
        <time>2016-10-04T10:10:03Z</time>
      </trkpt>
      <trkpt lat="46.11746" lon="4.69885">
        <ele>236</ele>
        <time>2016-10-04T10:10:04Z</time>
      </trkpt>
      <trkpt lat="46.11743" lon="4.69894">
        <ele>236</ele>
        <time>2016-10-04T10:10:05Z</time>
      </trkpt>
      <trkpt lat="46.11741" lon="4.69903">
        <ele>236</ele>
        <time>2016-10-04T10:10:06Z</time>
      </trkpt>
      <trkpt lat="46.11738" lon="4.69911">
        <ele>237</ele>
        <time>2016-10-04T10:10:07Z</time>
      </trkpt>
      <trkpt lat="46.11736" lon="4.6992">
        <ele>237</ele>
        <time>2016-10-04T10:10:08Z</time>
      </trkpt>
      <trkpt lat="46.11734" lon="4.69928">
        <ele>237</ele>
        <time>2016-10-04T10:10:09Z</time>
      </trkpt>
      <trkpt lat="46.11731" lon="4.69936">
        <ele>237</ele>
        <time>2016-10-04T10:10:10Z</time>
      </trkpt>
      <trkpt lat="46.11729" lon="4.69943">
        <ele>237</ele>
        <time>2016-10-04T10:10:11Z</time>
      </trkpt>
      <trkpt lat="46.11727" lon="4.69951">
        <ele>238</ele>
        <time>2016-10-04T10:10:12Z</time>
      </trkpt>
      <trkpt lat="46.11725" lon="4.69959">
        <ele>238</ele>
        <time>2016-10-04T10:10:13Z</time>
      </trkpt>
      <trkpt lat="46.11723" lon="4.69968">
        <ele>238</ele>
        <time>2016-10-04T10:10:14Z</time>
      </trkpt>
      <trkpt lat="46.1172" lon="4.69975">
        <ele>238</ele>
        <time>2016-10-04T10:10:15Z</time>
      </trkpt>
      <trkpt lat="46.11718" lon="4.69983">
        <ele>238</ele>
        <time>2016-10-04T10:10:16Z</time>
      </trkpt>
      <trkpt lat="46.11715" lon="4.69991">
        <ele>238</ele>
        <time>2016-10-04T10:10:17Z</time>
      </trkpt>
      <trkpt lat="46.11713" lon="4.69999">
        <ele>238</ele>
        <time>2016-10-04T10:10:18Z</time>
      </trkpt>
      <trkpt lat="46.11711" lon="4.70008">
        <ele>239</ele>
        <time>2016-10-04T10:10:19Z</time>
      </trkpt>
      <trkpt lat="46.11709" lon="4.70016">
        <ele>239</ele>
        <time>2016-10-04T10:10:20Z</time>
      </trkpt>
      <trkpt lat="46.11707" lon="4.70025">
        <ele>239</ele>
        <time>2016-10-04T10:10:21Z</time>
      </trkpt>
      <trkpt lat="46.11705" lon="4.70033">
        <ele>239</ele>
        <time>2016-10-04T10:10:22Z</time>
      </trkpt>
      <trkpt lat="46.11702" lon="4.70041">
        <ele>239</ele>
        <time>2016-10-04T10:10:23Z</time>
      </trkpt>
      <trkpt lat="46.117" lon="4.70048">
        <ele>239</ele>
        <time>2016-10-04T10:10:24Z</time>
      </trkpt>
      <trkpt lat="46.11698" lon="4.70055">
        <ele>239</ele>
        <time>2016-10-04T10:10:25Z</time>
      </trkpt>
      <trkpt lat="46.11696" lon="4.70062">
        <ele>239</ele>
        <time>2016-10-04T10:10:26Z</time>
      </trkpt>
      <trkpt lat="46.11695" lon="4.7007">
        <ele>239</ele>
        <time>2016-10-04T10:10:27Z</time>
      </trkpt>
      <trkpt lat="46.11693" lon="4.70077">
        <ele>239</ele>
        <time>2016-10-04T10:10:28Z</time>
      </trkpt>
      <trkpt lat="46.11691" lon="4.70085">
        <ele>240</ele>
        <time>2016-10-04T10:10:29Z</time>
      </trkpt>
      <trkpt lat="46.11689" lon="4.70093">
        <ele>240</ele>
        <time>2016-10-04T10:10:30Z</time>
      </trkpt>
      <trkpt lat="46.11687" lon="4.701">
        <ele>240</ele>
        <time>2016-10-04T10:10:31Z</time>
      </trkpt>
      <trkpt lat="46.11685" lon="4.70108">
        <ele>240</ele>
        <time>2016-10-04T10:10:32Z</time>
      </trkpt>
      <trkpt lat="46.11682" lon="4.70117">
        <ele>240</ele>
        <time>2016-10-04T10:10:33Z</time>
      </trkpt>
      <trkpt lat="46.1168" lon="4.70125">
        <ele>240</ele>
        <time>2016-10-04T10:10:34Z</time>
      </trkpt>
      <trkpt lat="46.11677" lon="4.70134">
        <ele>240</ele>
        <time>2016-10-04T10:10:35Z</time>
      </trkpt>
      <trkpt lat="46.11675" lon="4.70142">
        <ele>240</ele>
        <time>2016-10-04T10:10:36Z</time>
      </trkpt>
      <trkpt lat="46.11672" lon="4.7015">
        <ele>240</ele>
        <time>2016-10-04T10:10:37Z</time>
      </trkpt>
      <trkpt lat="46.1167" lon="4.70158">
        <ele>240</ele>
        <time>2016-10-04T10:10:38Z</time>
      </trkpt>
      <trkpt lat="46.11667" lon="4.70166">
        <ele>240</ele>
        <time>2016-10-04T10:10:39Z</time>
      </trkpt>
      <trkpt lat="46.11665" lon="4.70174">
        <ele>240</ele>
        <time>2016-10-04T10:10:40Z</time>
      </trkpt>
      <trkpt lat="46.11663" lon="4.70181">
        <ele>240</ele>
        <time>2016-10-04T10:10:41Z</time>
      </trkpt>
      <trkpt lat="46.11661" lon="4.70189">
        <ele>239</ele>
        <time>2016-10-04T10:10:42Z</time>
      </trkpt>
      <trkpt lat="46.11659" lon="4.70197">
        <ele>239</ele>
        <time>2016-10-04T10:10:43Z</time>
      </trkpt>
      <trkpt lat="46.11657" lon="4.70204">
        <ele>239</ele>
        <time>2016-10-04T10:10:44Z</time>
      </trkpt>
      <trkpt lat="46.11655" lon="4.70212">
        <ele>239</ele>
        <time>2016-10-04T10:10:45Z</time>
      </trkpt>
      <trkpt lat="46.11651" lon="4.70218">
        <ele>239</ele>
        <time>2016-10-04T10:10:46Z</time>
      </trkpt>
      <trkpt lat="46.11651" lon="4.7023">
        <ele>239</ele>
        <time>2016-10-04T10:10:47Z</time>
      </trkpt>
      <trkpt lat="46.1165" lon="4.70239">
        <ele>239</ele>
        <time>2016-10-04T10:10:48Z</time>
      </trkpt>
      <trkpt lat="46.11648" lon="4.70247">
        <ele>239</ele>
        <time>2016-10-04T10:10:49Z</time>
      </trkpt>
      <trkpt lat="46.11647" lon="4.70257">
        <ele>239</ele>
        <time>2016-10-04T10:10:50Z</time>
      </trkpt>
      <trkpt lat="46.11645" lon="4.70267">
        <ele>238</ele>
        <time>2016-10-04T10:10:51Z</time>
      </trkpt>
      <trkpt lat="46.11644" lon="4.70276">
        <ele>238</ele>
        <time>2016-10-04T10:10:52Z</time>
      </trkpt>
      <trkpt lat="46.11643" lon="4.70286">
        <ele>238</ele>
        <time>2016-10-04T10:10:53Z</time>
      </trkpt>
      <trkpt lat="46.11642" lon="4.70296">
        <ele>238</ele>
        <time>2016-10-04T10:10:54Z</time>
      </trkpt>
      <trkpt lat="46.11641" lon="4.70306">
        <ele>238</ele>
        <time>2016-10-04T10:10:55Z</time>
      </trkpt>
      <trkpt lat="46.1164" lon="4.70316">
        <ele>238</ele>
        <time>2016-10-04T10:10:56Z</time>
      </trkpt>
      <trkpt lat="46.11639" lon="4.70326">
        <ele>238</ele>
        <time>2016-10-04T10:10:57Z</time>
      </trkpt>
      <trkpt lat="46.11638" lon="4.70336">
        <ele>237</ele>
        <time>2016-10-04T10:10:58Z</time>
      </trkpt>
      <trkpt lat="46.11637" lon="4.70346">
        <ele>237</ele>
        <time>2016-10-04T10:10:59Z</time>
      </trkpt>
      <trkpt lat="46.11636" lon="4.70356">
        <ele>236</ele>
        <time>2016-10-04T10:11:00Z</time>
      </trkpt>
      <trkpt lat="46.11635" lon="4.70367">
        <ele>236</ele>
        <time>2016-10-04T10:11:01Z</time>
      </trkpt>
      <trkpt lat="46.11634" lon="4.70378">
        <ele>236</ele>
        <time>2016-10-04T10:11:02Z</time>
      </trkpt>
      <trkpt lat="46.11633" lon="4.70389">
        <ele>236</ele>
        <time>2016-10-04T10:11:03Z</time>
      </trkpt>
      <trkpt lat="46.11633" lon="4.704">
        <ele>236</ele>
        <time>2016-10-04T10:11:04Z</time>
      </trkpt>
      <trkpt lat="46.11631" lon="4.70412">
        <ele>236</ele>
        <time>2016-10-04T10:11:05Z</time>
      </trkpt>
      <trkpt lat="46.1163" lon="4.70424">
        <ele>234</ele>
        <time>2016-10-04T10:11:06Z</time>
      </trkpt>
      <trkpt lat="46.11629" lon="4.70436">
        <ele>234</ele>
        <time>2016-10-04T10:11:07Z</time>
      </trkpt>
      <trkpt lat="46.11628" lon="4.70448">
        <ele>234</ele>
        <time>2016-10-04T10:11:08Z</time>
      </trkpt>
      <trkpt lat="46.11627" lon="4.70459">
        <ele>233</ele>
        <time>2016-10-04T10:11:09Z</time>
      </trkpt>
      <trkpt lat="46.11627" lon="4.70471">
        <ele>233</ele>
        <time>2016-10-04T10:11:10Z</time>
      </trkpt>
      <trkpt lat="46.11626" lon="4.70483">
        <ele>233</ele>
        <time>2016-10-04T10:11:11Z</time>
      </trkpt>
      <trkpt lat="46.11625" lon="4.70494">
        <ele>233</ele>
        <time>2016-10-04T10:11:12Z</time>
      </trkpt>
      <trkpt lat="46.11624" lon="4.70506">
        <ele>231</ele>
        <time>2016-10-04T10:11:13Z</time>
      </trkpt>
      <trkpt lat="46.11623" lon="4.70518">
        <ele>231</ele>
        <time>2016-10-04T10:11:14Z</time>
      </trkpt>
      <trkpt lat="46.11622" lon="4.70529">
        <ele>231</ele>
        <time>2016-10-04T10:11:15Z</time>
      </trkpt>
      <trkpt lat="46.1162" lon="4.70541">
        <ele>230</ele>
        <time>2016-10-04T10:11:16Z</time>
      </trkpt>
      <trkpt lat="46.11619" lon="4.70553">
        <ele>230</ele>
        <time>2016-10-04T10:11:17Z</time>
      </trkpt>
      <trkpt lat="46.11618" lon="4.70564">
        <ele>230</ele>
        <time>2016-10-04T10:11:18Z</time>
      </trkpt>
      <trkpt lat="46.11619" lon="4.70576">
        <ele>230</ele>
        <time>2016-10-04T10:11:19Z</time>
      </trkpt>
      <trkpt lat="46.11618" lon="4.70588">
        <ele>228</ele>
        <time>2016-10-04T10:11:20Z</time>
      </trkpt>
      <trkpt lat="46.11617" lon="4.706">
        <ele>228</ele>
        <time>2016-10-04T10:11:21Z</time>
      </trkpt>
      <trkpt lat="46.11616" lon="4.70611">
        <ele>228</ele>
        <time>2016-10-04T10:11:22Z</time>
      </trkpt>
      <trkpt lat="46.11615" lon="4.70622">
        <ele>228</ele>
        <time>2016-10-04T10:11:23Z</time>
      </trkpt>
      <trkpt lat="46.11614" lon="4.70633">
        <ele>228</ele>
        <time>2016-10-04T10:11:24Z</time>
      </trkpt>
      <trkpt lat="46.11614" lon="4.70644">
        <ele>228</ele>
        <time>2016-10-04T10:11:25Z</time>
      </trkpt>
      <trkpt lat="46.11613" lon="4.70655">
        <ele>228</ele>
        <time>2016-10-04T10:11:26Z</time>
      </trkpt>
      <trkpt lat="46.11612" lon="4.70666">
        <ele>228</ele>
        <time>2016-10-04T10:11:27Z</time>
      </trkpt>
      <trkpt lat="46.11611" lon="4.70677">
        <ele>226</ele>
        <time>2016-10-04T10:11:28Z</time>
      </trkpt>
      <trkpt lat="46.1161" lon="4.70687">
        <ele>226</ele>
        <time>2016-10-04T10:11:29Z</time>
      </trkpt>
      <trkpt lat="46.1161" lon="4.70698">
        <ele>226</ele>
        <time>2016-10-04T10:11:30Z</time>
      </trkpt>
      <trkpt lat="46.11609" lon="4.7071">
        <ele>225</ele>
        <time>2016-10-04T10:11:31Z</time>
      </trkpt>
      <trkpt lat="46.11607" lon="4.70721">
        <ele>225</ele>
        <time>2016-10-04T10:11:32Z</time>
      </trkpt>
      <trkpt lat="46.11606" lon="4.70732">
        <ele>225</ele>
        <time>2016-10-04T10:11:33Z</time>
      </trkpt>
      <trkpt lat="46.11605" lon="4.70743">
        <ele>225</ele>
        <time>2016-10-04T10:11:34Z</time>
      </trkpt>
      <trkpt lat="46.11604" lon="4.70755">
        <ele>223</ele>
        <time>2016-10-04T10:11:35Z</time>
      </trkpt>
      <trkpt lat="46.11603" lon="4.70766">
        <ele>223</ele>
        <time>2016-10-04T10:11:36Z</time>
      </trkpt>
      <trkpt lat="46.11603" lon="4.70778">
        <ele>223</ele>
        <time>2016-10-04T10:11:37Z</time>
      </trkpt>
      <trkpt lat="46.11602" lon="4.70789">
        <ele>223</ele>
        <time>2016-10-04T10:11:38Z</time>
      </trkpt>
      <trkpt lat="46.11601" lon="4.708">
        <ele>223</ele>
        <time>2016-10-04T10:11:39Z</time>
      </trkpt>
      <trkpt lat="46.116" lon="4.7081">
        <ele>223</ele>
        <time>2016-10-04T10:11:40Z</time>
      </trkpt>
      <trkpt lat="46.11599" lon="4.70821">
        <ele>223</ele>
        <time>2016-10-04T10:11:41Z</time>
      </trkpt>
      <trkpt lat="46.11599" lon="4.70832">
        <ele>222</ele>
        <time>2016-10-04T10:11:42Z</time>
      </trkpt>
      <trkpt lat="46.11598" lon="4.70842">
        <ele>222</ele>
        <time>2016-10-04T10:11:43Z</time>
      </trkpt>
      <trkpt lat="46.11597" lon="4.70852">
        <ele>222</ele>
        <time>2016-10-04T10:11:44Z</time>
      </trkpt>
      <trkpt lat="46.11597" lon="4.70861">
        <ele>221</ele>
        <time>2016-10-04T10:11:45Z</time>
      </trkpt>
      <trkpt lat="46.11596" lon="4.70871">
        <ele>221</ele>
        <time>2016-10-04T10:11:46Z</time>
      </trkpt>
      <trkpt lat="46.11596" lon="4.7088">
        <ele>221</ele>
        <time>2016-10-04T10:11:47Z</time>
      </trkpt>
      <trkpt lat="46.11595" lon="4.70889">
        <ele>221</ele>
        <time>2016-10-04T10:11:48Z</time>
      </trkpt>
      <trkpt lat="46.11594" lon="4.70898">
        <ele>221</ele>
        <time>2016-10-04T10:11:49Z</time>
      </trkpt>
      <trkpt lat="46.11593" lon="4.70907">
        <ele>221</ele>
        <time>2016-10-04T10:11:50Z</time>
      </trkpt>
      <trkpt lat="46.11593" lon="4.70917">
        <ele>220</ele>
        <time>2016-10-04T10:11:51Z</time>
      </trkpt>
      <trkpt lat="46.11592" lon="4.70926">
        <ele>220</ele>
        <time>2016-10-04T10:11:52Z</time>
      </trkpt>
      <trkpt lat="46.11592" lon="4.70936">
        <ele>220</ele>
        <time>2016-10-04T10:11:53Z</time>
      </trkpt>
      <trkpt lat="46.11592" lon="4.70946">
        <ele>220</ele>
        <time>2016-10-04T10:11:54Z</time>
      </trkpt>
      <trkpt lat="46.11592" lon="4.70955">
        <ele>220</ele>
        <time>2016-10-04T10:11:55Z</time>
      </trkpt>
      <trkpt lat="46.11592" lon="4.70964">
        <ele>220</ele>
        <time>2016-10-04T10:11:56Z</time>
      </trkpt>
      <trkpt lat="46.11592" lon="4.70973">
        <ele>221</ele>
        <time>2016-10-04T10:11:57Z</time>
      </trkpt>
      <trkpt lat="46.11592" lon="4.70981">
        <ele>221</ele>
        <time>2016-10-04T10:11:58Z</time>
      </trkpt>
      <trkpt lat="46.11592" lon="4.70989">
        <ele>221</ele>
        <time>2016-10-04T10:11:59Z</time>
      </trkpt>
      <trkpt lat="46.11593" lon="4.70997">
        <ele>221</ele>
        <time>2016-10-04T10:12:00Z</time>
      </trkpt>
      <trkpt lat="46.11593" lon="4.71006">
        <ele>221</ele>
        <time>2016-10-04T10:12:01Z</time>
      </trkpt>
      <trkpt lat="46.11593" lon="4.71015">
        <ele>221</ele>
        <time>2016-10-04T10:12:02Z</time>
      </trkpt>
      <trkpt lat="46.11593" lon="4.71024">
        <ele>220</ele>
        <time>2016-10-04T10:12:03Z</time>
      </trkpt>
      <trkpt lat="46.11593" lon="4.71033">
        <ele>220</ele>
        <time>2016-10-04T10:12:04Z</time>
      </trkpt>
      <trkpt lat="46.11594" lon="4.71042">
        <ele>220</ele>
        <time>2016-10-04T10:12:05Z</time>
      </trkpt>
      <trkpt lat="46.11594" lon="4.71052">
        <ele>220</ele>
        <time>2016-10-04T10:12:06Z</time>
      </trkpt>
      <trkpt lat="46.11595" lon="4.71061">
        <ele>220</ele>
        <time>2016-10-04T10:12:07Z</time>
      </trkpt>
      <trkpt lat="46.11595" lon="4.7107">
        <ele>221</ele>
        <time>2016-10-04T10:12:08Z</time>
      </trkpt>
      <trkpt lat="46.11595" lon="4.71078">
        <ele>221</ele>
        <time>2016-10-04T10:12:09Z</time>
      </trkpt>
      <trkpt lat="46.11595" lon="4.71086">
        <ele>221</ele>
        <time>2016-10-04T10:12:10Z</time>
      </trkpt>
      <trkpt lat="46.11595" lon="4.71095">
        <ele>220</ele>
        <time>2016-10-04T10:12:11Z</time>
      </trkpt>
      <trkpt lat="46.11595" lon="4.71102">
        <ele>220</ele>
        <time>2016-10-04T10:12:12Z</time>
      </trkpt>
      <trkpt lat="46.11594" lon="4.7111">
        <ele>220</ele>
        <time>2016-10-04T10:12:13Z</time>
      </trkpt>
      <trkpt lat="46.11591" lon="4.71117">
        <ele>220</ele>
        <time>2016-10-04T10:12:14Z</time>
      </trkpt>
      <trkpt lat="46.11587" lon="4.71124">
        <ele>219</ele>
        <time>2016-10-04T10:12:15Z</time>
      </trkpt>
      <trkpt lat="46.11584" lon="4.71131">
        <ele>219</ele>
        <time>2016-10-04T10:12:16Z</time>
      </trkpt>
      <trkpt lat="46.11581" lon="4.71139">
        <ele>220</ele>
        <time>2016-10-04T10:12:17Z</time>
      </trkpt>
      <trkpt lat="46.1158" lon="4.71147">
        <ele>220</ele>
        <time>2016-10-04T10:12:18Z</time>
      </trkpt>
      <trkpt lat="46.1158" lon="4.71156">
        <ele>219</ele>
        <time>2016-10-04T10:12:19Z</time>
      </trkpt>
      <trkpt lat="46.1158" lon="4.71166">
        <ele>219</ele>
        <time>2016-10-04T10:12:20Z</time>
      </trkpt>
      <trkpt lat="46.1158" lon="4.71176">
        <ele>218</ele>
        <time>2016-10-04T10:12:21Z</time>
      </trkpt>
      <trkpt lat="46.11579" lon="4.71185">
        <ele>218</ele>
        <time>2016-10-04T10:12:22Z</time>
      </trkpt>
      <trkpt lat="46.11576" lon="4.71195">
        <ele>217</ele>
        <time>2016-10-04T10:12:23Z</time>
      </trkpt>
      <trkpt lat="46.11574" lon="4.71205">
        <ele>217</ele>
        <time>2016-10-04T10:12:24Z</time>
      </trkpt>
      <trkpt lat="46.11572" lon="4.71214">
        <ele>217</ele>
        <time>2016-10-04T10:12:25Z</time>
      </trkpt>
      <trkpt lat="46.1157" lon="4.71223">
        <ele>216</ele>
        <time>2016-10-04T10:12:26Z</time>
      </trkpt>
      <trkpt lat="46.11568" lon="4.71232">
        <ele>216</ele>
        <time>2016-10-04T10:12:27Z</time>
      </trkpt>
      <trkpt lat="46.11566" lon="4.71242">
        <ele>216</ele>
        <time>2016-10-04T10:12:28Z</time>
      </trkpt>
      <trkpt lat="46.11565" lon="4.71251">
        <ele>215</ele>
        <time>2016-10-04T10:12:29Z</time>
      </trkpt>
      <trkpt lat="46.11564" lon="4.7126">
        <ele>215</ele>
        <time>2016-10-04T10:12:30Z</time>
      </trkpt>
      <trkpt lat="46.11563" lon="4.7127">
        <ele>215</ele>
        <time>2016-10-04T10:12:31Z</time>
      </trkpt>
      <trkpt lat="46.11563" lon="4.71279">
        <ele>215</ele>
        <time>2016-10-04T10:12:32Z</time>
      </trkpt>
      <trkpt lat="46.11562" lon="4.71286">
        <ele>215</ele>
        <time>2016-10-04T10:12:33Z</time>
      </trkpt>
      <trkpt lat="46.11561" lon="4.71294">
        <ele>215</ele>
        <time>2016-10-04T10:12:34Z</time>
      </trkpt>
      <trkpt lat="46.1156" lon="4.71303">
        <ele>215</ele>
        <time>2016-10-04T10:12:35Z</time>
      </trkpt>
      <trkpt lat="46.11559" lon="4.71311">
        <ele>215</ele>
        <time>2016-10-04T10:12:36Z</time>
      </trkpt>
      <trkpt lat="46.11557" lon="4.7132">
        <ele>215</ele>
        <time>2016-10-04T10:12:37Z</time>
      </trkpt>
      <trkpt lat="46.11556" lon="4.71328">
        <ele>215</ele>
        <time>2016-10-04T10:12:38Z</time>
      </trkpt>
      <trkpt lat="46.11555" lon="4.71337">
        <ele>216</ele>
        <time>2016-10-04T10:12:39Z</time>
      </trkpt>
      <trkpt lat="46.11555" lon="4.71346">
        <ele>216</ele>
        <time>2016-10-04T10:12:40Z</time>
      </trkpt>
      <trkpt lat="46.11554" lon="4.71355">
        <ele>216</ele>
        <time>2016-10-04T10:12:41Z</time>
      </trkpt>
      <trkpt lat="46.11554" lon="4.71364">
        <ele>216</ele>
        <time>2016-10-04T10:12:42Z</time>
      </trkpt>
      <trkpt lat="46.11552" lon="4.71372">
        <ele>216</ele>
        <time>2016-10-04T10:12:43Z</time>
      </trkpt>
      <trkpt lat="46.11552" lon="4.71382">
        <ele>217</ele>
        <time>2016-10-04T10:12:44Z</time>
      </trkpt>
      <trkpt lat="46.11551" lon="4.71392">
        <ele>217</ele>
        <time>2016-10-04T10:12:45Z</time>
      </trkpt>
      <trkpt lat="46.1155" lon="4.714">
        <ele>217</ele>
        <time>2016-10-04T10:12:46Z</time>
      </trkpt>
      <trkpt lat="46.11549" lon="4.7141">
        <ele>217</ele>
        <time>2016-10-04T10:12:47Z</time>
      </trkpt>
      <trkpt lat="46.11548" lon="4.71419">
        <ele>217</ele>
        <time>2016-10-04T10:12:48Z</time>
      </trkpt>
      <trkpt lat="46.11548" lon="4.71428">
        <ele>217</ele>
        <time>2016-10-04T10:12:49Z</time>
      </trkpt>
      <trkpt lat="46.11548" lon="4.71438">
        <ele>217</ele>
        <time>2016-10-04T10:12:50Z</time>
      </trkpt>
      <trkpt lat="46.11547" lon="4.71447">
        <ele>217</ele>
        <time>2016-10-04T10:12:51Z</time>
      </trkpt>
      <trkpt lat="46.11545" lon="4.71457">
        <ele>217</ele>
        <time>2016-10-04T10:12:52Z</time>
      </trkpt>
      <trkpt lat="46.11544" lon="4.71466">
        <ele>217</ele>
        <time>2016-10-04T10:12:53Z</time>
      </trkpt>
      <trkpt lat="46.11542" lon="4.71476">
        <ele>217</ele>
        <time>2016-10-04T10:12:54Z</time>
      </trkpt>
      <trkpt lat="46.1154" lon="4.71486">
        <ele>217</ele>
        <time>2016-10-04T10:12:55Z</time>
      </trkpt>
      <trkpt lat="46.11538" lon="4.71493">
        <ele>217</ele>
        <time>2016-10-04T10:12:56Z</time>
      </trkpt>
      <trkpt lat="46.11536" lon="4.71505">
        <ele>216</ele>
        <time>2016-10-04T10:12:57Z</time>
      </trkpt>
      <trkpt lat="46.11533" lon="4.71515">
        <ele>216</ele>
        <time>2016-10-04T10:12:58Z</time>
      </trkpt>
      <trkpt lat="46.11531" lon="4.71525">
        <ele>216</ele>
        <time>2016-10-04T10:12:59Z</time>
      </trkpt>
      <trkpt lat="46.11529" lon="4.71535">
        <ele>216</ele>
        <time>2016-10-04T10:13:00Z</time>
      </trkpt>
      <trkpt lat="46.11527" lon="4.71545">
        <ele>216</ele>
        <time>2016-10-04T10:13:01Z</time>
      </trkpt>
      <trkpt lat="46.11525" lon="4.71555">
        <ele>216</ele>
        <time>2016-10-04T10:13:02Z</time>
      </trkpt>
      <trkpt lat="46.11524" lon="4.71565">
        <ele>215</ele>
        <time>2016-10-04T10:13:03Z</time>
      </trkpt>
      <trkpt lat="46.11522" lon="4.71575">
        <ele>215</ele>
        <time>2016-10-04T10:13:04Z</time>
      </trkpt>
      <trkpt lat="46.1152" lon="4.71585">
        <ele>215</ele>
        <time>2016-10-04T10:13:05Z</time>
      </trkpt>
      <trkpt lat="46.11518" lon="4.71595">
        <ele>214</ele>
        <time>2016-10-04T10:13:06Z</time>
      </trkpt>
      <trkpt lat="46.11517" lon="4.71604">
        <ele>214</ele>
        <time>2016-10-04T10:13:07Z</time>
      </trkpt>
      <trkpt lat="46.11515" lon="4.71613">
        <ele>214</ele>
        <time>2016-10-04T10:13:08Z</time>
      </trkpt>
      <trkpt lat="46.11513" lon="4.71622">
        <ele>214</ele>
        <time>2016-10-04T10:13:09Z</time>
      </trkpt>
      <trkpt lat="46.11512" lon="4.71631">
        <ele>214</ele>
        <time>2016-10-04T10:13:10Z</time>
      </trkpt>
      <trkpt lat="46.1151" lon="4.7164">
        <ele>214</ele>
        <time>2016-10-04T10:13:11Z</time>
      </trkpt>
      <trkpt lat="46.11508" lon="4.7165">
        <ele>214</ele>
        <time>2016-10-04T10:13:12Z</time>
      </trkpt>
      <trkpt lat="46.11507" lon="4.71659">
        <ele>214</ele>
        <time>2016-10-04T10:13:13Z</time>
      </trkpt>
      <trkpt lat="46.11505" lon="4.71669">
        <ele>213</ele>
        <time>2016-10-04T10:13:14Z</time>
      </trkpt>
      <trkpt lat="46.11503" lon="4.71679">
        <ele>213</ele>
        <time>2016-10-04T10:13:15Z</time>
      </trkpt>
      <trkpt lat="46.11501" lon="4.71689">
        <ele>213</ele>
        <time>2016-10-04T10:13:16Z</time>
      </trkpt>
      <trkpt lat="46.11499" lon="4.71699">
        <ele>213</ele>
        <time>2016-10-04T10:13:17Z</time>
      </trkpt>
      <trkpt lat="46.11497" lon="4.71709">
        <ele>212</ele>
        <time>2016-10-04T10:13:18Z</time>
      </trkpt>
      <trkpt lat="46.11495" lon="4.71719">
        <ele>212</ele>
        <time>2016-10-04T10:13:19Z</time>
      </trkpt>
      <trkpt lat="46.11493" lon="4.71729">
        <ele>212</ele>
        <time>2016-10-04T10:13:20Z</time>
      </trkpt>
      <trkpt lat="46.11491" lon="4.71739">
        <ele>212</ele>
        <time>2016-10-04T10:13:21Z</time>
      </trkpt>
      <trkpt lat="46.11489" lon="4.7175">
        <ele>212</ele>
        <time>2016-10-04T10:13:22Z</time>
      </trkpt>
      <trkpt lat="46.11487" lon="4.71759">
        <ele>211</ele>
        <time>2016-10-04T10:13:23Z</time>
      </trkpt>
      <trkpt lat="46.11484" lon="4.71769">
        <ele>211</ele>
        <time>2016-10-04T10:13:24Z</time>
      </trkpt>
      <trkpt lat="46.11482" lon="4.71779">
        <ele>211</ele>
        <time>2016-10-04T10:13:25Z</time>
      </trkpt>
      <trkpt lat="46.1148" lon="4.7179">
        <ele>210</ele>
        <time>2016-10-04T10:13:26Z</time>
      </trkpt>
      <trkpt lat="46.11478" lon="4.71802">
        <ele>210</ele>
        <time>2016-10-04T10:13:27Z</time>
      </trkpt>
      <trkpt lat="46.11476" lon="4.71814">
        <ele>210</ele>
        <time>2016-10-04T10:13:28Z</time>
      </trkpt>
      <trkpt lat="46.11474" lon="4.71824">
        <ele>210</ele>
        <time>2016-10-04T10:13:29Z</time>
      </trkpt>
      <trkpt lat="46.11471" lon="4.71836">
        <ele>208</ele>
        <time>2016-10-04T10:13:30Z</time>
      </trkpt>
      <trkpt lat="46.11469" lon="4.71847">
        <ele>208</ele>
        <time>2016-10-04T10:13:31Z</time>
      </trkpt>
      <trkpt lat="46.11467" lon="4.71858">
        <ele>207</ele>
        <time>2016-10-04T10:13:32Z</time>
      </trkpt>
      <trkpt lat="46.11465" lon="4.71869">
        <ele>207</ele>
        <time>2016-10-04T10:13:33Z</time>
      </trkpt>
      <trkpt lat="46.11463" lon="4.7188">
        <ele>207</ele>
        <time>2016-10-04T10:13:34Z</time>
      </trkpt>
      <trkpt lat="46.11461" lon="4.71891">
        <ele>207</ele>
        <time>2016-10-04T10:13:35Z</time>
      </trkpt>
      <trkpt lat="46.11459" lon="4.71902">
        <ele>207</ele>
        <time>2016-10-04T10:13:36Z</time>
      </trkpt>
      <trkpt lat="46.11456" lon="4.71914">
        <ele>206</ele>
        <time>2016-10-04T10:13:37Z</time>
      </trkpt>
      <trkpt lat="46.11454" lon="4.71926">
        <ele>205</ele>
        <time>2016-10-04T10:13:38Z</time>
      </trkpt>
      <trkpt lat="46.11452" lon="4.71937">
        <ele>204</ele>
        <time>2016-10-04T10:13:39Z</time>
      </trkpt>
      <trkpt lat="46.11449" lon="4.71948">
        <ele>204</ele>
        <time>2016-10-04T10:13:40Z</time>
      </trkpt>
      <trkpt lat="46.11447" lon="4.7196">
        <ele>204</ele>
        <time>2016-10-04T10:13:41Z</time>
      </trkpt>
      <trkpt lat="46.11445" lon="4.71972">
        <ele>204</ele>
        <time>2016-10-04T10:13:42Z</time>
      </trkpt>
      <trkpt lat="46.11443" lon="4.71984">
        <ele>204</ele>
        <time>2016-10-04T10:13:43Z</time>
      </trkpt>
      <trkpt lat="46.11441" lon="4.71996">
        <ele>204</ele>
        <time>2016-10-04T10:13:44Z</time>
      </trkpt>
      <trkpt lat="46.11439" lon="4.72007">
        <ele>202</ele>
        <time>2016-10-04T10:13:45Z</time>
      </trkpt>
      <trkpt lat="46.11437" lon="4.72019">
        <ele>202</ele>
        <time>2016-10-04T10:13:46Z</time>
      </trkpt>
      <trkpt lat="46.11435" lon="4.72031">
        <ele>202</ele>
        <time>2016-10-04T10:13:47Z</time>
      </trkpt>
      <trkpt lat="46.11433" lon="4.72043">
        <ele>202</ele>
        <time>2016-10-04T10:13:48Z</time>
      </trkpt>
      <trkpt lat="46.1143" lon="4.72054">
        <ele>202</ele>
        <time>2016-10-04T10:13:49Z</time>
      </trkpt>
      <trkpt lat="46.11428" lon="4.72065">
        <ele>202</ele>
        <time>2016-10-04T10:13:50Z</time>
      </trkpt>
      <trkpt lat="46.11426" lon="4.72077">
        <ele>202</ele>
        <time>2016-10-04T10:13:51Z</time>
      </trkpt>
      <trkpt lat="46.11424" lon="4.72089">
        <ele>202</ele>
        <time>2016-10-04T10:13:52Z</time>
      </trkpt>
      <trkpt lat="46.11422" lon="4.72101">
        <ele>201</ele>
        <time>2016-10-04T10:13:53Z</time>
      </trkpt>
      <trkpt lat="46.1142" lon="4.72113">
        <ele>201</ele>
        <time>2016-10-04T10:13:54Z</time>
      </trkpt>
      <trkpt lat="46.11418" lon="4.72125">
        <ele>200</ele>
        <time>2016-10-04T10:13:55Z</time>
      </trkpt>
      <trkpt lat="46.11416" lon="4.72136">
        <ele>203</ele>
        <time>2016-10-04T10:13:56Z</time>
      </trkpt>
      <trkpt lat="46.11415" lon="4.72148">
        <ele>203</ele>
        <time>2016-10-04T10:13:57Z</time>
      </trkpt>
      <trkpt lat="46.11412" lon="4.72157">
        <ele>203</ele>
        <time>2016-10-04T10:13:58Z</time>
      </trkpt>
      <trkpt lat="46.1141" lon="4.72166">
        <ele>202</ele>
        <time>2016-10-04T10:13:59Z</time>
      </trkpt>
      <trkpt lat="46.11409" lon="4.72176">
        <ele>202</ele>
        <time>2016-10-04T10:14:00Z</time>
      </trkpt>
      <trkpt lat="46.11407" lon="4.72185">
        <ele>203</ele>
        <time>2016-10-04T10:14:01Z</time>
      </trkpt>
      <trkpt lat="46.11404" lon="4.72194">
        <ele>203</ele>
        <time>2016-10-04T10:14:02Z</time>
      </trkpt>
      <trkpt lat="46.11402" lon="4.72203">
        <ele>203</ele>
        <time>2016-10-04T10:14:03Z</time>
      </trkpt>
      <trkpt lat="46.11401" lon="4.72212">
        <ele>203</ele>
        <time>2016-10-04T10:14:04Z</time>
      </trkpt>
      <trkpt lat="46.114" lon="4.72221">
        <ele>202</ele>
        <time>2016-10-04T10:14:05Z</time>
      </trkpt>
      <trkpt lat="46.11398" lon="4.7223">
        <ele>202</ele>
        <time>2016-10-04T10:14:06Z</time>
      </trkpt>
      <trkpt lat="46.11396" lon="4.72239">
        <ele>202</ele>
        <time>2016-10-04T10:14:07Z</time>
      </trkpt>
      <trkpt lat="46.11394" lon="4.72248">
        <ele>202</ele>
        <time>2016-10-04T10:14:08Z</time>
      </trkpt>
      <trkpt lat="46.11392" lon="4.72258">
        <ele>201</ele>
        <time>2016-10-04T10:14:09Z</time>
      </trkpt>
      <trkpt lat="46.11391" lon="4.72268">
        <ele>201</ele>
        <time>2016-10-04T10:14:10Z</time>
      </trkpt>
      <trkpt lat="46.11388" lon="4.72277">
        <ele>200</ele>
        <time>2016-10-04T10:14:11Z</time>
      </trkpt>
      <trkpt lat="46.11387" lon="4.72287">
        <ele>200</ele>
        <time>2016-10-04T10:14:12Z</time>
      </trkpt>
      <trkpt lat="46.11386" lon="4.72297">
        <ele>200</ele>
        <time>2016-10-04T10:14:13Z</time>
      </trkpt>
      <trkpt lat="46.11384" lon="4.72307">
        <ele>200</ele>
        <time>2016-10-04T10:14:14Z</time>
      </trkpt>
      <trkpt lat="46.11382" lon="4.72316">
        <ele>200</ele>
        <time>2016-10-04T10:14:15Z</time>
      </trkpt>
      <trkpt lat="46.1138" lon="4.72326">
        <ele>200</ele>
        <time>2016-10-04T10:14:16Z</time>
      </trkpt>
      <trkpt lat="46.11378" lon="4.72334">
        <ele>198</ele>
        <time>2016-10-04T10:14:17Z</time>
      </trkpt>
      <trkpt lat="46.11376" lon="4.72343">
        <ele>198</ele>
        <time>2016-10-04T10:14:18Z</time>
      </trkpt>
      <trkpt lat="46.11375" lon="4.72352">
        <ele>198</ele>
        <time>2016-10-04T10:14:19Z</time>
      </trkpt>
      <trkpt lat="46.11373" lon="4.7236">
        <ele>198</ele>
        <time>2016-10-04T10:14:20Z</time>
      </trkpt>
      <trkpt lat="46.11372" lon="4.72368">
        <ele>198</ele>
        <time>2016-10-04T10:14:21Z</time>
      </trkpt>
      <trkpt lat="46.1137" lon="4.72377">
        <ele>198</ele>
        <time>2016-10-04T10:14:22Z</time>
      </trkpt>
      <trkpt lat="46.11368" lon="4.72386">
        <ele>198</ele>
        <time>2016-10-04T10:14:23Z</time>
      </trkpt>
      <trkpt lat="46.11366" lon="4.72396">
        <ele>199</ele>
        <time>2016-10-04T10:14:24Z</time>
      </trkpt>
      <trkpt lat="46.11364" lon="4.72406">
        <ele>199</ele>
        <time>2016-10-04T10:14:25Z</time>
      </trkpt>
      <trkpt lat="46.11362" lon="4.72416">
        <ele>199</ele>
        <time>2016-10-04T10:14:26Z</time>
      </trkpt>
      <trkpt lat="46.1136" lon="4.72427">
        <ele>198</ele>
        <time>2016-10-04T10:14:27Z</time>
      </trkpt>
      <trkpt lat="46.11359" lon="4.72436">
        <ele>198</ele>
        <time>2016-10-04T10:14:28Z</time>
      </trkpt>
      <trkpt lat="46.11357" lon="4.72447">
        <ele>198</ele>
        <time>2016-10-04T10:14:29Z</time>
      </trkpt>
      <trkpt lat="46.11356" lon="4.72457">
        <ele>198</ele>
        <time>2016-10-04T10:14:30Z</time>
      </trkpt>
      <trkpt lat="46.11354" lon="4.72467">
        <ele>198</ele>
        <time>2016-10-04T10:14:31Z</time>
      </trkpt>
      <trkpt lat="46.11352" lon="4.72477">
        <ele>198</ele>
        <time>2016-10-04T10:14:32Z</time>
      </trkpt>
      <trkpt lat="46.1135" lon="4.72487">
        <ele>198</ele>
        <time>2016-10-04T10:14:33Z</time>
      </trkpt>
      <trkpt lat="46.11348" lon="4.72497">
        <ele>198</ele>
        <time>2016-10-04T10:14:34Z</time>
      </trkpt>
      <trkpt lat="46.11345" lon="4.72507">
        <ele>197</ele>
        <time>2016-10-04T10:14:35Z</time>
      </trkpt>
      <trkpt lat="46.11343" lon="4.72517">
        <ele>197</ele>
        <time>2016-10-04T10:14:36Z</time>
      </trkpt>
      <trkpt lat="46.11342" lon="4.72527">
        <ele>196</ele>
        <time>2016-10-04T10:14:37Z</time>
      </trkpt>
      <trkpt lat="46.11341" lon="4.72536">
        <ele>196</ele>
        <time>2016-10-04T10:14:38Z</time>
      </trkpt>
      <trkpt lat="46.11339" lon="4.72546">
        <ele>196</ele>
        <time>2016-10-04T10:14:39Z</time>
      </trkpt>
      <trkpt lat="46.11338" lon="4.72555">
        <ele>195</ele>
        <time>2016-10-04T10:14:40Z</time>
      </trkpt>
      <trkpt lat="46.11336" lon="4.72565">
        <ele>195</ele>
        <time>2016-10-04T10:14:41Z</time>
      </trkpt>
      <trkpt lat="46.11334" lon="4.72574">
        <ele>195</ele>
        <time>2016-10-04T10:14:42Z</time>
      </trkpt>
      <trkpt lat="46.11332" lon="4.72583">
        <ele>195</ele>
        <time>2016-10-04T10:14:43Z</time>
      </trkpt>
      <trkpt lat="46.11331" lon="4.72592">
        <ele>195</ele>
        <time>2016-10-04T10:14:44Z</time>
      </trkpt>
      <trkpt lat="46.11331" lon="4.72602">
        <ele>195</ele>
        <time>2016-10-04T10:14:45Z</time>
      </trkpt>
      <trkpt lat="46.11331" lon="4.72612">
        <ele>195</ele>
        <time>2016-10-04T10:14:46Z</time>
      </trkpt>
      <trkpt lat="46.11332" lon="4.72622">
        <ele>195</ele>
        <time>2016-10-04T10:14:47Z</time>
      </trkpt>
      <trkpt lat="46.11334" lon="4.72632">
        <ele>194</ele>
        <time>2016-10-04T10:14:48Z</time>
      </trkpt>
      <trkpt lat="46.11336" lon="4.72641">
        <ele>194</ele>
        <time>2016-10-04T10:14:49Z</time>
      </trkpt>
      <trkpt lat="46.11338" lon="4.7265">
        <ele>194</ele>
        <time>2016-10-04T10:14:50Z</time>
      </trkpt>
      <trkpt lat="46.1134" lon="4.72658">
        <ele>194</ele>
        <time>2016-10-04T10:14:51Z</time>
      </trkpt>
      <trkpt lat="46.11343" lon="4.72666">
        <ele>194</ele>
        <time>2016-10-04T10:14:52Z</time>
      </trkpt>
      <trkpt lat="46.11346" lon="4.72674">
        <ele>194</ele>
        <time>2016-10-04T10:14:53Z</time>
      </trkpt>
      <trkpt lat="46.11349" lon="4.72683">
        <ele>194</ele>
        <time>2016-10-04T10:14:54Z</time>
      </trkpt>
      <trkpt lat="46.11351" lon="4.7269">
        <ele>193</ele>
        <time>2016-10-04T10:14:55Z</time>
      </trkpt>
      <trkpt lat="46.11354" lon="4.72697">
        <ele>193</ele>
        <time>2016-10-04T10:14:56Z</time>
      </trkpt>
      <trkpt lat="46.11357" lon="4.72706">
        <ele>193</ele>
        <time>2016-10-04T10:14:57Z</time>
      </trkpt>
      <trkpt lat="46.1136" lon="4.72714">
        <ele>193</ele>
        <time>2016-10-04T10:14:58Z</time>
      </trkpt>
      <trkpt lat="46.11363" lon="4.72722">
        <ele>193</ele>
        <time>2016-10-04T10:14:59Z</time>
      </trkpt>
      <trkpt lat="46.11367" lon="4.7273">
        <ele>193</ele>
        <time>2016-10-04T10:15:00Z</time>
      </trkpt>
      <trkpt lat="46.11371" lon="4.72739">
        <ele>192</ele>
        <time>2016-10-04T10:15:01Z</time>
      </trkpt>
      <trkpt lat="46.11374" lon="4.72747">
        <ele>192</ele>
        <time>2016-10-04T10:15:02Z</time>
      </trkpt>
      <trkpt lat="46.11377" lon="4.72755">
        <ele>192</ele>
        <time>2016-10-04T10:15:03Z</time>
      </trkpt>
      <trkpt lat="46.1138" lon="4.72763">
        <ele>192</ele>
        <time>2016-10-04T10:15:04Z</time>
      </trkpt>
      <trkpt lat="46.11382" lon="4.72772">
        <ele>191</ele>
        <time>2016-10-04T10:15:05Z</time>
      </trkpt>
      <trkpt lat="46.11382" lon="4.72781">
        <ele>191</ele>
        <time>2016-10-04T10:15:06Z</time>
      </trkpt>
      <trkpt lat="46.11381" lon="4.72789">
        <ele>191</ele>
        <time>2016-10-04T10:15:07Z</time>
      </trkpt>
      <trkpt lat="46.11382" lon="4.72798">
        <ele>191</ele>
        <time>2016-10-04T10:15:08Z</time>
      </trkpt>
      <trkpt lat="46.11385" lon="4.72807">
        <ele>191</ele>
        <time>2016-10-04T10:15:09Z</time>
      </trkpt>
      <trkpt lat="46.11389" lon="4.72816">
        <ele>191</ele>
        <time>2016-10-04T10:15:10Z</time>
      </trkpt>
      <trkpt lat="46.11392" lon="4.72824">
        <ele>191</ele>
        <time>2016-10-04T10:15:11Z</time>
      </trkpt>
      <trkpt lat="46.11394" lon="4.72833">
        <ele>191</ele>
        <time>2016-10-04T10:15:12Z</time>
      </trkpt>
      <trkpt lat="46.11394" lon="4.72842">
        <ele>190</ele>
        <time>2016-10-04T10:15:13Z</time>
      </trkpt>
      <trkpt lat="46.11394" lon="4.7285">
        <ele>190</ele>
        <time>2016-10-04T10:15:14Z</time>
      </trkpt>
      <trkpt lat="46.11393" lon="4.72857">
        <ele>190</ele>
        <time>2016-10-04T10:15:15Z</time>
      </trkpt>
      <trkpt lat="46.11392" lon="4.72867">
        <ele>190</ele>
        <time>2016-10-04T10:15:16Z</time>
      </trkpt>
      <trkpt lat="46.11391" lon="4.72876">
        <ele>190</ele>
        <time>2016-10-04T10:15:17Z</time>
      </trkpt>
      <trkpt lat="46.11391" lon="4.72885">
        <ele>190</ele>
        <time>2016-10-04T10:15:18Z</time>
      </trkpt>
      <trkpt lat="46.1139" lon="4.72893">
        <ele>190</ele>
        <time>2016-10-04T10:15:19Z</time>
      </trkpt>
      <trkpt lat="46.11389" lon="4.72902">
        <ele>190</ele>
        <time>2016-10-04T10:15:20Z</time>
      </trkpt>
      <trkpt lat="46.11388" lon="4.7291">
        <ele>190</ele>
        <time>2016-10-04T10:15:21Z</time>
      </trkpt>
      <trkpt lat="46.11387" lon="4.72918">
        <ele>189</ele>
        <time>2016-10-04T10:15:22Z</time>
      </trkpt>
      <trkpt lat="46.11386" lon="4.72926">
        <ele>189</ele>
        <time>2016-10-04T10:15:23Z</time>
      </trkpt>
      <trkpt lat="46.11385" lon="4.72934">
        <ele>189</ele>
        <time>2016-10-04T10:15:24Z</time>
      </trkpt>
      <trkpt lat="46.11384" lon="4.72942">
        <ele>189</ele>
        <time>2016-10-04T10:15:25Z</time>
      </trkpt>
      <trkpt lat="46.11383" lon="4.7295">
        <ele>189</ele>
        <time>2016-10-04T10:15:26Z</time>
      </trkpt>
      <trkpt lat="46.11381" lon="4.72959">
        <ele>189</ele>
        <time>2016-10-04T10:15:27Z</time>
      </trkpt>
      <trkpt lat="46.1138" lon="4.72968">
        <ele>189</ele>
        <time>2016-10-04T10:15:28Z</time>
      </trkpt>
      <trkpt lat="46.11379" lon="4.72977">
        <ele>189</ele>
        <time>2016-10-04T10:15:29Z</time>
      </trkpt>
      <trkpt lat="46.11378" lon="4.72988">
        <ele>189</ele>
        <time>2016-10-04T10:15:30Z</time>
      </trkpt>
      <trkpt lat="46.11376" lon="4.72998">
        <ele>189</ele>
        <time>2016-10-04T10:15:31Z</time>
      </trkpt>
      <trkpt lat="46.11374" lon="4.73007">
        <ele>189</ele>
        <time>2016-10-04T10:15:32Z</time>
      </trkpt>
      <trkpt lat="46.11372" lon="4.73017">
        <ele>189</ele>
        <time>2016-10-04T10:15:33Z</time>
      </trkpt>
      <trkpt lat="46.11369" lon="4.73027">
        <ele>189</ele>
        <time>2016-10-04T10:15:34Z</time>
      </trkpt>
      <trkpt lat="46.11366" lon="4.73036">
        <ele>189</ele>
        <time>2016-10-04T10:15:35Z</time>
      </trkpt>
      <trkpt lat="46.11364" lon="4.73045">
        <ele>189</ele>
        <time>2016-10-04T10:15:36Z</time>
      </trkpt>
      <trkpt lat="46.1136" lon="4.73055">
        <ele>189</ele>
        <time>2016-10-04T10:15:37Z</time>
      </trkpt>
      <trkpt lat="46.11357" lon="4.73064">
        <ele>189</ele>
        <time>2016-10-04T10:15:38Z</time>
      </trkpt>
      <trkpt lat="46.11353" lon="4.73073">
        <ele>190</ele>
        <time>2016-10-04T10:15:39Z</time>
      </trkpt>
      <trkpt lat="46.11348" lon="4.73082">
        <ele>190</ele>
        <time>2016-10-04T10:15:40Z</time>
      </trkpt>
      <trkpt lat="46.11344" lon="4.7309">
        <ele>190</ele>
        <time>2016-10-04T10:15:41Z</time>
      </trkpt>
      <trkpt lat="46.11338" lon="4.73098">
        <ele>189</ele>
        <time>2016-10-04T10:15:42Z</time>
      </trkpt>
      <trkpt lat="46.11332" lon="4.73105">
        <ele>190</ele>
        <time>2016-10-04T10:15:43Z</time>
      </trkpt>
      <trkpt lat="46.11326" lon="4.73113">
        <ele>190</ele>
        <time>2016-10-04T10:15:44Z</time>
      </trkpt>
      <trkpt lat="46.1132" lon="4.7312">
        <ele>190</ele>
        <time>2016-10-04T10:15:45Z</time>
      </trkpt>
      <trkpt lat="46.11313" lon="4.73127">
        <ele>189</ele>
        <time>2016-10-04T10:15:46Z</time>
      </trkpt>
      <trkpt lat="46.11308" lon="4.73134">
        <ele>189</ele>
        <time>2016-10-04T10:15:47Z</time>
      </trkpt>
      <trkpt lat="46.11302" lon="4.73141">
        <ele>189</ele>
        <time>2016-10-04T10:15:48Z</time>
      </trkpt>
      <trkpt lat="46.11296" lon="4.73148">
        <ele>189</ele>
        <time>2016-10-04T10:15:49Z</time>
      </trkpt>
      <trkpt lat="46.11289" lon="4.73155">
        <ele>189</ele>
        <time>2016-10-04T10:15:50Z</time>
      </trkpt>
      <trkpt lat="46.11283" lon="4.73162">
        <ele>189</ele>
        <time>2016-10-04T10:15:51Z</time>
      </trkpt>
      <trkpt lat="46.11276" lon="4.73167">
        <ele>189</ele>
        <time>2016-10-04T10:15:52Z</time>
      </trkpt>
      <trkpt lat="46.1127" lon="4.73173">
        <ele>189</ele>
        <time>2016-10-04T10:15:53Z</time>
      </trkpt>
      <trkpt lat="46.11264" lon="4.73179">
        <ele>189</ele>
        <time>2016-10-04T10:15:54Z</time>
      </trkpt>
      <trkpt lat="46.11258" lon="4.73184">
        <ele>189</ele>
        <time>2016-10-04T10:15:55Z</time>
      </trkpt>
      <trkpt lat="46.11252" lon="4.73189">
        <ele>189</ele>
        <time>2016-10-04T10:15:56Z</time>
      </trkpt>
      <trkpt lat="46.11246" lon="4.73193">
        <ele>189</ele>
        <time>2016-10-04T10:15:57Z</time>
      </trkpt>
      <trkpt lat="46.11241" lon="4.73197">
        <ele>189</ele>
        <time>2016-10-04T10:15:58Z</time>
      </trkpt>
      <trkpt lat="46.11235" lon="4.732">
        <ele>189</ele>
        <time>2016-10-04T10:15:59Z</time>
      </trkpt>
      <trkpt lat="46.11228" lon="4.73203">
        <ele>189</ele>
        <time>2016-10-04T10:16:01Z</time>
      </trkpt>
      <trkpt lat="46.11225" lon="4.73203">
        <ele>189</ele>
        <time>2016-10-04T10:16:02Z</time>
      </trkpt>
      <trkpt lat="46.11218" lon="4.73202">
        <ele>189</ele>
        <time>2016-10-04T10:16:04Z</time>
      </trkpt>
      <trkpt lat="46.11215" lon="4.73203">
        <ele>189</ele>
        <time>2016-10-04T10:16:05Z</time>
      </trkpt>
      <trkpt lat="46.1121" lon="4.73212">
        <ele>189</ele>
        <time>2016-10-04T10:16:07Z</time>
      </trkpt>
      <trkpt lat="46.11207" lon="4.73217">
        <ele>189</ele>
        <time>2016-10-04T10:16:08Z</time>
      </trkpt>
      <trkpt lat="46.11205" lon="4.73224">
        <ele>189</ele>
        <time>2016-10-04T10:16:09Z</time>
      </trkpt>
      <trkpt lat="46.11204" lon="4.73232">
        <ele>189</ele>
        <time>2016-10-04T10:16:10Z</time>
      </trkpt>
      <trkpt lat="46.11203" lon="4.7324">
        <ele>189</ele>
        <time>2016-10-04T10:16:11Z</time>
      </trkpt>
      <trkpt lat="46.11202" lon="4.73249">
        <ele>189</ele>
        <time>2016-10-04T10:16:12Z</time>
      </trkpt>
      <trkpt lat="46.112" lon="4.73258">
        <ele>190</ele>
        <time>2016-10-04T10:16:13Z</time>
      </trkpt>
      <trkpt lat="46.11199" lon="4.73267">
        <ele>190</ele>
        <time>2016-10-04T10:16:14Z</time>
      </trkpt>
      <trkpt lat="46.11197" lon="4.73276">
        <ele>190</ele>
        <time>2016-10-04T10:16:15Z</time>
      </trkpt>
      <trkpt lat="46.11196" lon="4.73284">
        <ele>190</ele>
        <time>2016-10-04T10:16:16Z</time>
      </trkpt>
      <trkpt lat="46.11194" lon="4.73293">
        <ele>190</ele>
        <time>2016-10-04T10:16:17Z</time>
      </trkpt>
      <trkpt lat="46.11193" lon="4.733">
        <ele>190</ele>
        <time>2016-10-04T10:16:18Z</time>
      </trkpt>
      <trkpt lat="46.11193" lon="4.73308">
        <ele>190</ele>
        <time>2016-10-04T10:16:19Z</time>
      </trkpt>
      <trkpt lat="46.11192" lon="4.73316">
        <ele>190</ele>
        <time>2016-10-04T10:16:20Z</time>
      </trkpt>
      <trkpt lat="46.11192" lon="4.73323">
        <ele>190</ele>
        <time>2016-10-04T10:16:21Z</time>
      </trkpt>
      <trkpt lat="46.11191" lon="4.73331">
        <ele>190</ele>
        <time>2016-10-04T10:16:22Z</time>
      </trkpt>
      <trkpt lat="46.11189" lon="4.73337">
        <ele>190</ele>
        <time>2016-10-04T10:16:23Z</time>
      </trkpt>
      <trkpt lat="46.11188" lon="4.73344">
        <ele>190</ele>
        <time>2016-10-04T10:16:24Z</time>
      </trkpt>
      <trkpt lat="46.11187" lon="4.7335">
        <ele>190</ele>
        <time>2016-10-04T10:16:25Z</time>
      </trkpt>
      <trkpt lat="46.11185" lon="4.73357">
        <ele>190</ele>
        <time>2016-10-04T10:16:26Z</time>
      </trkpt>
      <trkpt lat="46.11183" lon="4.73368">
        <ele>190</ele>
        <time>2016-10-04T10:16:28Z</time>
      </trkpt>
      <trkpt lat="46.11181" lon="4.73374">
        <ele>190</ele>
        <time>2016-10-04T10:16:29Z</time>
      </trkpt>
      <trkpt lat="46.11178" lon="4.73383">
        <ele>190</ele>
        <time>2016-10-04T10:16:31Z</time>
      </trkpt>
      <trkpt lat="46.11176" lon="4.73388">
        <ele>190</ele>
        <time>2016-10-04T10:16:32Z</time>
      </trkpt>
      <trkpt lat="46.11174" lon="4.734">
        <ele>190</ele>
        <time>2016-10-04T10:16:35Z</time>
      </trkpt>
      <trkpt lat="46.11173" lon="4.73403">
        <ele>190</ele>
        <time>2016-10-04T10:16:36Z</time>
      </trkpt>
      <trkpt lat="46.1117" lon="4.73408">
        <ele>190</ele>
        <time>2016-10-04T10:16:38Z</time>
      </trkpt>
      <trkpt lat="46.11171" lon="4.73407">
        <ele>190</ele>
        <time>2016-10-04T10:16:39Z</time>
      </trkpt>
      <trkpt lat="46.11171" lon="4.73407">
        <ele>190</ele>
        <time>2016-10-04T10:17:08Z</time>
      </trkpt>
      <trkpt lat="46.11171" lon="4.73408">
        <ele>190</ele>
        <time>2016-10-04T10:17:09Z</time>
      </trkpt>
      <trkpt lat="46.1117" lon="4.73417">
        <ele>190</ele>
        <time>2016-10-04T10:17:11Z</time>
      </trkpt>
      <trkpt lat="46.11169" lon="4.73423">
        <ele>190</ele>
        <time>2016-10-04T10:17:12Z</time>
      </trkpt>
      <trkpt lat="46.11168" lon="4.73435">
        <ele>190</ele>
        <time>2016-10-04T10:17:14Z</time>
      </trkpt>
      <trkpt lat="46.11168" lon="4.73441">
        <ele>190</ele>
        <time>2016-10-04T10:17:15Z</time>
      </trkpt>
      <trkpt lat="46.11167" lon="4.73448">
        <ele>190</ele>
        <time>2016-10-04T10:17:16Z</time>
      </trkpt>
      <trkpt lat="46.11165" lon="4.73456">
        <ele>190</ele>
        <time>2016-10-04T10:17:17Z</time>
      </trkpt>
      <trkpt lat="46.11164" lon="4.73463">
        <ele>191</ele>
        <time>2016-10-04T10:17:18Z</time>
      </trkpt>
      <trkpt lat="46.11163" lon="4.7347">
        <ele>191</ele>
        <time>2016-10-04T10:17:19Z</time>
      </trkpt>
      <trkpt lat="46.11162" lon="4.73477">
        <ele>191</ele>
        <time>2016-10-04T10:17:20Z</time>
      </trkpt>
      <trkpt lat="46.1116" lon="4.73484">
        <ele>191</ele>
        <time>2016-10-04T10:17:21Z</time>
      </trkpt>
      <trkpt lat="46.11159" lon="4.73491">
        <ele>191</ele>
        <time>2016-10-04T10:17:22Z</time>
      </trkpt>
      <trkpt lat="46.11158" lon="4.73499">
        <ele>191</ele>
        <time>2016-10-04T10:17:23Z</time>
      </trkpt>
      <trkpt lat="46.11156" lon="4.73506">
        <ele>191</ele>
        <time>2016-10-04T10:17:24Z</time>
      </trkpt>
      <trkpt lat="46.11155" lon="4.73513">
        <ele>191</ele>
        <time>2016-10-04T10:17:25Z</time>
      </trkpt>
      <trkpt lat="46.11153" lon="4.7352">
        <ele>191</ele>
        <time>2016-10-04T10:17:26Z</time>
      </trkpt>
      <trkpt lat="46.1115" lon="4.73535">
        <ele>190</ele>
        <time>2016-10-04T10:17:28Z</time>
      </trkpt>
      <trkpt lat="46.11149" lon="4.73542">
        <ele>190</ele>
        <time>2016-10-04T10:17:29Z</time>
      </trkpt>
      <trkpt lat="46.11148" lon="4.7355">
        <ele>190</ele>
        <time>2016-10-04T10:17:30Z</time>
      </trkpt>
      <trkpt lat="46.11148" lon="4.73556">
        <ele>190</ele>
        <time>2016-10-04T10:17:31Z</time>
      </trkpt>
      <trkpt lat="46.11146" lon="4.73563">
        <ele>190</ele>
        <time>2016-10-04T10:17:32Z</time>
      </trkpt>
      <trkpt lat="46.11146" lon="4.7357">
        <ele>190</ele>
        <time>2016-10-04T10:17:33Z</time>
      </trkpt>
      <trkpt lat="46.11145" lon="4.73577">
        <ele>190</ele>
        <time>2016-10-04T10:17:34Z</time>
      </trkpt>
      <trkpt lat="46.11143" lon="4.73583">
        <ele>190</ele>
        <time>2016-10-04T10:17:35Z</time>
      </trkpt>
      <trkpt lat="46.11142" lon="4.7359">
        <ele>190</ele>
        <time>2016-10-04T10:17:36Z</time>
      </trkpt>
      <trkpt lat="46.11141" lon="4.73597">
        <ele>190</ele>
        <time>2016-10-04T10:17:37Z</time>
      </trkpt>
      <trkpt lat="46.1114" lon="4.73604">
        <ele>190</ele>
        <time>2016-10-04T10:17:38Z</time>
      </trkpt>
      <trkpt lat="46.11139" lon="4.73611">
        <ele>190</ele>
        <time>2016-10-04T10:17:39Z</time>
      </trkpt>
      <trkpt lat="46.11138" lon="4.73617">
        <ele>190</ele>
        <time>2016-10-04T10:17:40Z</time>
      </trkpt>
      <trkpt lat="46.11137" lon="4.73624">
        <ele>190</ele>
        <time>2016-10-04T10:17:41Z</time>
      </trkpt>
      <trkpt lat="46.11134" lon="4.73631">
        <ele>191</ele>
        <time>2016-10-04T10:17:42Z</time>
      </trkpt>
      <trkpt lat="46.11132" lon="4.73638">
        <ele>191</ele>
        <time>2016-10-04T10:17:43Z</time>
      </trkpt>
      <trkpt lat="46.1113" lon="4.73646">
        <ele>191</ele>
        <time>2016-10-04T10:17:44Z</time>
      </trkpt>
      <trkpt lat="46.11128" lon="4.73653">
        <ele>191</ele>
        <time>2016-10-04T10:17:45Z</time>
      </trkpt>
      <trkpt lat="46.11127" lon="4.73661">
        <ele>191</ele>
        <time>2016-10-04T10:17:46Z</time>
      </trkpt>
      <trkpt lat="46.11125" lon="4.73669">
        <ele>191</ele>
        <time>2016-10-04T10:17:47Z</time>
      </trkpt>
      <trkpt lat="46.11124" lon="4.73678">
        <ele>191</ele>
        <time>2016-10-04T10:17:48Z</time>
      </trkpt>
      <trkpt lat="46.11122" lon="4.73686">
        <ele>191</ele>
        <time>2016-10-04T10:17:49Z</time>
      </trkpt>
      <trkpt lat="46.11121" lon="4.73694">
        <ele>191</ele>
        <time>2016-10-04T10:17:50Z</time>
      </trkpt>
      <trkpt lat="46.11119" lon="4.73702">
        <ele>191</ele>
        <time>2016-10-04T10:17:51Z</time>
      </trkpt>
      <trkpt lat="46.11118" lon="4.73711">
        <ele>191</ele>
        <time>2016-10-04T10:17:52Z</time>
      </trkpt>
      <trkpt lat="46.11116" lon="4.73719">
        <ele>191</ele>
        <time>2016-10-04T10:17:53Z</time>
      </trkpt>
      <trkpt lat="46.11115" lon="4.73727">
        <ele>190</ele>
        <time>2016-10-04T10:17:54Z</time>
      </trkpt>
      <trkpt lat="46.11113" lon="4.73736">
        <ele>191</ele>
        <time>2016-10-04T10:17:55Z</time>
      </trkpt>
      <trkpt lat="46.11111" lon="4.73744">
        <ele>191</ele>
        <time>2016-10-04T10:17:56Z</time>
      </trkpt>
      <trkpt lat="46.11109" lon="4.73753">
        <ele>191</ele>
        <time>2016-10-04T10:17:57Z</time>
      </trkpt>
      <trkpt lat="46.11107" lon="4.73762">
        <ele>191</ele>
        <time>2016-10-04T10:17:58Z</time>
      </trkpt>
      <trkpt lat="46.11105" lon="4.7377">
        <ele>191</ele>
        <time>2016-10-04T10:17:59Z</time>
      </trkpt>
      <trkpt lat="46.11102" lon="4.73779">
        <ele>191</ele>
        <time>2016-10-04T10:18:00Z</time>
      </trkpt>
      <trkpt lat="46.11101" lon="4.73788">
        <ele>191</ele>
        <time>2016-10-04T10:18:01Z</time>
      </trkpt>
      <trkpt lat="46.111" lon="4.73798">
        <ele>191</ele>
        <time>2016-10-04T10:18:02Z</time>
      </trkpt>
      <trkpt lat="46.11098" lon="4.73807">
        <ele>191</ele>
        <time>2016-10-04T10:18:03Z</time>
      </trkpt>
      <trkpt lat="46.11098" lon="4.73816">
        <ele>191</ele>
        <time>2016-10-04T10:18:04Z</time>
      </trkpt>
      <trkpt lat="46.11097" lon="4.73826">
        <ele>191</ele>
        <time>2016-10-04T10:18:05Z</time>
      </trkpt>
      <trkpt lat="46.11097" lon="4.73835">
        <ele>191</ele>
        <time>2016-10-04T10:18:06Z</time>
      </trkpt>
      <trkpt lat="46.11095" lon="4.73843">
        <ele>191</ele>
        <time>2016-10-04T10:18:07Z</time>
      </trkpt>
      <trkpt lat="46.11094" lon="4.7385">
        <ele>190</ele>
        <time>2016-10-04T10:18:08Z</time>
      </trkpt>
      <trkpt lat="46.11093" lon="4.73858">
        <ele>190</ele>
        <time>2016-10-04T10:18:09Z</time>
      </trkpt>
      <trkpt lat="46.11094" lon="4.73867">
        <ele>190</ele>
        <time>2016-10-04T10:18:10Z</time>
      </trkpt>
      <trkpt lat="46.11094" lon="4.73875">
        <ele>190</ele>
        <time>2016-10-04T10:18:11Z</time>
      </trkpt>
      <trkpt lat="46.11093" lon="4.73882">
        <ele>190</ele>
        <time>2016-10-04T10:18:12Z</time>
      </trkpt>
      <trkpt lat="46.11092" lon="4.7389">
        <ele>190</ele>
        <time>2016-10-04T10:18:13Z</time>
      </trkpt>
      <trkpt lat="46.1109" lon="4.73898">
        <ele>190</ele>
        <time>2016-10-04T10:18:14Z</time>
      </trkpt>
      <trkpt lat="46.11088" lon="4.73906">
        <ele>189</ele>
        <time>2016-10-04T10:18:15Z</time>
      </trkpt>
      <trkpt lat="46.11086" lon="4.73915">
        <ele>189</ele>
        <time>2016-10-04T10:18:16Z</time>
      </trkpt>
      <trkpt lat="46.11085" lon="4.73924">
        <ele>189</ele>
        <time>2016-10-04T10:18:17Z</time>
      </trkpt>
      <trkpt lat="46.11084" lon="4.73933">
        <ele>189</ele>
        <time>2016-10-04T10:18:18Z</time>
      </trkpt>
      <trkpt lat="46.1108" lon="4.73941">
        <ele>189</ele>
        <time>2016-10-04T10:18:19Z</time>
      </trkpt>
      <trkpt lat="46.11079" lon="4.73948">
        <ele>189</ele>
        <time>2016-10-04T10:18:20Z</time>
      </trkpt>
      <trkpt lat="46.11077" lon="4.73955">
        <ele>189</ele>
        <time>2016-10-04T10:18:21Z</time>
      </trkpt>
      <trkpt lat="46.11075" lon="4.73962">
        <ele>189</ele>
        <time>2016-10-04T10:18:22Z</time>
      </trkpt>
      <trkpt lat="46.11073" lon="4.73969">
        <ele>189</ele>
        <time>2016-10-04T10:18:23Z</time>
      </trkpt>
      <trkpt lat="46.11071" lon="4.73975">
        <ele>189</ele>
        <time>2016-10-04T10:18:24Z</time>
      </trkpt>
      <trkpt lat="46.1107" lon="4.73982">
        <ele>189</ele>
        <time>2016-10-04T10:18:25Z</time>
      </trkpt>
      <trkpt lat="46.11069" lon="4.73989">
        <ele>189</ele>
        <time>2016-10-04T10:18:26Z</time>
      </trkpt>
      <trkpt lat="46.11067" lon="4.73996">
        <ele>189</ele>
        <time>2016-10-04T10:18:27Z</time>
      </trkpt>
      <trkpt lat="46.11067" lon="4.74004">
        <ele>189</ele>
        <time>2016-10-04T10:18:28Z</time>
      </trkpt>
      <trkpt lat="46.11066" lon="4.74012">
        <ele>189</ele>
        <time>2016-10-04T10:18:29Z</time>
      </trkpt>
      <trkpt lat="46.11064" lon="4.7402">
        <ele>189</ele>
        <time>2016-10-04T10:18:30Z</time>
      </trkpt>
      <trkpt lat="46.11063" lon="4.74028">
        <ele>189</ele>
        <time>2016-10-04T10:18:31Z</time>
      </trkpt>
      <trkpt lat="46.11062" lon="4.74036">
        <ele>189</ele>
        <time>2016-10-04T10:18:32Z</time>
      </trkpt>
      <trkpt lat="46.11061" lon="4.74044">
        <ele>189</ele>
        <time>2016-10-04T10:18:33Z</time>
      </trkpt>
      <trkpt lat="46.11059" lon="4.74052">
        <ele>189</ele>
        <time>2016-10-04T10:18:34Z</time>
      </trkpt>
      <trkpt lat="46.11059" lon="4.74059">
        <ele>189</ele>
        <time>2016-10-04T10:18:35Z</time>
      </trkpt>
      <trkpt lat="46.11057" lon="4.74066">
        <ele>189</ele>
        <time>2016-10-04T10:18:36Z</time>
      </trkpt>
      <trkpt lat="46.11056" lon="4.74073">
        <ele>189</ele>
        <time>2016-10-04T10:18:37Z</time>
      </trkpt>
      <trkpt lat="46.11054" lon="4.74079">
        <ele>189</ele>
        <time>2016-10-04T10:18:38Z</time>
      </trkpt>
      <trkpt lat="46.11053" lon="4.74086">
        <ele>189</ele>
        <time>2016-10-04T10:18:39Z</time>
      </trkpt>
      <trkpt lat="46.11052" lon="4.74092">
        <ele>189</ele>
        <time>2016-10-04T10:18:40Z</time>
      </trkpt>
      <trkpt lat="46.1105" lon="4.74098">
        <ele>189</ele>
        <time>2016-10-04T10:18:41Z</time>
      </trkpt>
      <trkpt lat="46.11048" lon="4.74104">
        <ele>189</ele>
        <time>2016-10-04T10:18:42Z</time>
      </trkpt>
      <trkpt lat="46.11047" lon="4.74111">
        <ele>189</ele>
        <time>2016-10-04T10:18:43Z</time>
      </trkpt>
      <trkpt lat="46.11045" lon="4.74119">
        <ele>189</ele>
        <time>2016-10-04T10:18:44Z</time>
      </trkpt>
      <trkpt lat="46.11043" lon="4.74129">
        <ele>189</ele>
        <time>2016-10-04T10:18:46Z</time>
      </trkpt>
      <trkpt lat="46.11042" lon="4.74133">
        <ele>189</ele>
        <time>2016-10-04T10:18:47Z</time>
      </trkpt>
      <trkpt lat="46.11038" lon="4.74141">
        <ele>188</ele>
        <time>2016-10-04T10:18:49Z</time>
      </trkpt>
      <trkpt lat="46.11037" lon="4.74145">
        <ele>188</ele>
        <time>2016-10-04T10:18:50Z</time>
      </trkpt>
      <trkpt lat="46.11036" lon="4.74152">
        <ele>188</ele>
        <time>2016-10-04T10:18:52Z</time>
      </trkpt>
      <trkpt lat="46.11037" lon="4.74153">
        <ele>188</ele>
        <time>2016-10-04T10:18:53Z</time>
      </trkpt>
      <trkpt lat="46.11036" lon="4.74153">
        <ele>188</ele>
        <time>2016-10-04T10:19:07Z</time>
      </trkpt>
      <trkpt lat="46.11036" lon="4.74153">
        <ele>188</ele>
        <time>2016-10-04T10:19:08Z</time>
      </trkpt>
      <trkpt lat="46.11033" lon="4.74159">
        <ele>188</ele>
        <time>2016-10-04T10:19:10Z</time>
      </trkpt>
      <trkpt lat="46.11031" lon="4.74164">
        <ele>188</ele>
        <time>2016-10-04T10:19:11Z</time>
      </trkpt>
      <trkpt lat="46.11029" lon="4.7417">
        <ele>188</ele>
        <time>2016-10-04T10:19:12Z</time>
      </trkpt>
      <trkpt lat="46.11028" lon="4.74177">
        <ele>188</ele>
        <time>2016-10-04T10:19:13Z</time>
      </trkpt>
      <trkpt lat="46.11027" lon="4.74184">
        <ele>188</ele>
        <time>2016-10-04T10:19:14Z</time>
      </trkpt>
      <trkpt lat="46.11025" lon="4.74194">
        <ele>188</ele>
        <time>2016-10-04T10:19:15Z</time>
      </trkpt>
      <trkpt lat="46.11023" lon="4.74204">
        <ele>188</ele>
        <time>2016-10-04T10:19:16Z</time>
      </trkpt>
      <trkpt lat="46.11021" lon="4.74214">
        <ele>188</ele>
        <time>2016-10-04T10:19:17Z</time>
      </trkpt>
      <trkpt lat="46.1102" lon="4.74224">
        <ele>188</ele>
        <time>2016-10-04T10:19:18Z</time>
      </trkpt>
      <trkpt lat="46.11018" lon="4.74233">
        <ele>188</ele>
        <time>2016-10-04T10:19:19Z</time>
      </trkpt>
      <trkpt lat="46.11017" lon="4.74243">
        <ele>188</ele>
        <time>2016-10-04T10:19:20Z</time>
      </trkpt>
      <trkpt lat="46.11015" lon="4.74252">
        <ele>188</ele>
        <time>2016-10-04T10:19:21Z</time>
      </trkpt>
      <trkpt lat="46.11014" lon="4.74261">
        <ele>188</ele>
        <time>2016-10-04T10:19:22Z</time>
      </trkpt>
      <trkpt lat="46.11013" lon="4.74269">
        <ele>188</ele>
        <time>2016-10-04T10:19:23Z</time>
      </trkpt>
      <trkpt lat="46.11011" lon="4.74278">
        <ele>187</ele>
        <time>2016-10-04T10:19:24Z</time>
      </trkpt>
      <trkpt lat="46.11009" lon="4.74286">
        <ele>187</ele>
        <time>2016-10-04T10:19:25Z</time>
      </trkpt>
      <trkpt lat="46.11009" lon="4.74293">
        <ele>187</ele>
        <time>2016-10-04T10:19:26Z</time>
      </trkpt>
      <trkpt lat="46.11008" lon="4.743">
        <ele>187</ele>
        <time>2016-10-04T10:19:27Z</time>
      </trkpt>
      <trkpt lat="46.11006" lon="4.7431">
        <ele>187</ele>
        <time>2016-10-04T10:19:28Z</time>
      </trkpt>
      <trkpt lat="46.11003" lon="4.7432">
        <ele>187</ele>
        <time>2016-10-04T10:19:29Z</time>
      </trkpt>
      <trkpt lat="46.11" lon="4.7433">
        <ele>187</ele>
        <time>2016-10-04T10:19:30Z</time>
      </trkpt>
      <trkpt lat="46.10998" lon="4.74338">
        <ele>187</ele>
        <time>2016-10-04T10:19:31Z</time>
      </trkpt>
      <trkpt lat="46.10997" lon="4.74347">
        <ele>187</ele>
        <time>2016-10-04T10:19:32Z</time>
      </trkpt>
      <trkpt lat="46.10993" lon="4.74356">
        <ele>186</ele>
        <time>2016-10-04T10:19:33Z</time>
      </trkpt>
      <trkpt lat="46.10991" lon="4.74367">
        <ele>186</ele>
        <time>2016-10-04T10:19:34Z</time>
      </trkpt>
      <trkpt lat="46.10989" lon="4.74377">
        <ele>186</ele>
        <time>2016-10-04T10:19:35Z</time>
      </trkpt>
      <trkpt lat="46.10987" lon="4.74388">
        <ele>186</ele>
        <time>2016-10-04T10:19:36Z</time>
      </trkpt>
      <trkpt lat="46.10986" lon="4.74399">
        <ele>186</ele>
        <time>2016-10-04T10:19:37Z</time>
      </trkpt>
      <trkpt lat="46.10985" lon="4.74409">
        <ele>186</ele>
        <time>2016-10-04T10:19:38Z</time>
      </trkpt>
      <trkpt lat="46.10983" lon="4.74419">
        <ele>185</ele>
        <time>2016-10-04T10:19:39Z</time>
      </trkpt>
      <trkpt lat="46.10981" lon="4.74429">
        <ele>185</ele>
        <time>2016-10-04T10:19:40Z</time>
      </trkpt>
      <trkpt lat="46.10979" lon="4.74439">
        <ele>185</ele>
        <time>2016-10-04T10:19:41Z</time>
      </trkpt>
      <trkpt lat="46.10972" lon="4.7445">
        <ele>185</ele>
        <time>2016-10-04T10:19:42Z</time>
      </trkpt>
      <trkpt lat="46.10968" lon="4.74461">
        <ele>184</ele>
        <time>2016-10-04T10:19:43Z</time>
      </trkpt>
      <trkpt lat="46.10967" lon="4.74474">
        <ele>184</ele>
        <time>2016-10-04T10:19:44Z</time>
      </trkpt>
      <trkpt lat="46.10964" lon="4.74483">
        <ele>184</ele>
        <time>2016-10-04T10:19:45Z</time>
      </trkpt>
      <trkpt lat="46.1097" lon="4.74492">
        <ele>184</ele>
        <time>2016-10-04T10:19:46Z</time>
      </trkpt>
      <trkpt lat="46.10968" lon="4.74502">
        <ele>183</ele>
        <time>2016-10-04T10:19:47Z</time>
      </trkpt>
      <trkpt lat="46.10967" lon="4.74514">
        <ele>183</ele>
        <time>2016-10-04T10:19:48Z</time>
      </trkpt>
      <trkpt lat="46.10966" lon="4.74524">
        <ele>182</ele>
        <time>2016-10-04T10:19:49Z</time>
      </trkpt>
      <trkpt lat="46.10965" lon="4.74535">
        <ele>182</ele>
        <time>2016-10-04T10:19:50Z</time>
      </trkpt>
      <trkpt lat="46.10962" lon="4.74546">
        <ele>182</ele>
        <time>2016-10-04T10:19:51Z</time>
      </trkpt>
      <trkpt lat="46.1096" lon="4.74556">
        <ele>182</ele>
        <time>2016-10-04T10:19:52Z</time>
      </trkpt>
      <trkpt lat="46.10958" lon="4.74567">
        <ele>182</ele>
        <time>2016-10-04T10:19:53Z</time>
      </trkpt>
      <trkpt lat="46.10957" lon="4.74579">
        <ele>182</ele>
        <time>2016-10-04T10:19:54Z</time>
      </trkpt>
      <trkpt lat="46.10956" lon="4.7459">
        <ele>181</ele>
        <time>2016-10-04T10:19:55Z</time>
      </trkpt>
      <trkpt lat="46.10954" lon="4.746">
        <ele>181</ele>
        <time>2016-10-04T10:19:56Z</time>
      </trkpt>
      <trkpt lat="46.10952" lon="4.74611">
        <ele>180</ele>
        <time>2016-10-04T10:19:57Z</time>
      </trkpt>
      <trkpt lat="46.10949" lon="4.7462">
        <ele>180</ele>
        <time>2016-10-04T10:19:58Z</time>
      </trkpt>
      <trkpt lat="46.10947" lon="4.74626">
        <ele>180</ele>
        <time>2016-10-04T10:19:59Z</time>
      </trkpt>
      <trkpt lat="46.10945" lon="4.74635">
        <ele>180</ele>
        <time>2016-10-04T10:20:00Z</time>
      </trkpt>
      <trkpt lat="46.10943" lon="4.74645">
        <ele>180</ele>
        <time>2016-10-04T10:20:01Z</time>
      </trkpt>
      <trkpt lat="46.10941" lon="4.74656">
        <ele>180</ele>
        <time>2016-10-04T10:20:02Z</time>
      </trkpt>
      <trkpt lat="46.1094" lon="4.74666">
        <ele>180</ele>
        <time>2016-10-04T10:20:03Z</time>
      </trkpt>
      <trkpt lat="46.10937" lon="4.74675">
        <ele>178</ele>
        <time>2016-10-04T10:20:04Z</time>
      </trkpt>
      <trkpt lat="46.10934" lon="4.74685">
        <ele>178</ele>
        <time>2016-10-04T10:20:05Z</time>
      </trkpt>
      <trkpt lat="46.10932" lon="4.74695">
        <ele>178</ele>
        <time>2016-10-04T10:20:06Z</time>
      </trkpt>
      <trkpt lat="46.1093" lon="4.74704">
        <ele>178</ele>
        <time>2016-10-04T10:20:07Z</time>
      </trkpt>
      <trkpt lat="46.10928" lon="4.74714">
        <ele>178</ele>
        <time>2016-10-04T10:20:08Z</time>
      </trkpt>
      <trkpt lat="46.10926" lon="4.74724">
        <ele>178</ele>
        <time>2016-10-04T10:20:09Z</time>
      </trkpt>
      <trkpt lat="46.10925" lon="4.74735">
        <ele>178</ele>
        <time>2016-10-04T10:20:10Z</time>
      </trkpt>
      <trkpt lat="46.10923" lon="4.74746">
        <ele>177</ele>
        <time>2016-10-04T10:20:11Z</time>
      </trkpt>
      <trkpt lat="46.10922" lon="4.74755">
        <ele>177</ele>
        <time>2016-10-04T10:20:12Z</time>
      </trkpt>
      <trkpt lat="46.1092" lon="4.74765">
        <ele>177</ele>
        <time>2016-10-04T10:20:13Z</time>
      </trkpt>
      <trkpt lat="46.10919" lon="4.74775">
        <ele>177</ele>
        <time>2016-10-04T10:20:14Z</time>
      </trkpt>
      <trkpt lat="46.10918" lon="4.74785">
        <ele>176</ele>
        <time>2016-10-04T10:20:15Z</time>
      </trkpt>
      <trkpt lat="46.10917" lon="4.74794">
        <ele>176</ele>
        <time>2016-10-04T10:20:16Z</time>
      </trkpt>
      <trkpt lat="46.10916" lon="4.74803">
        <ele>176</ele>
        <time>2016-10-04T10:20:17Z</time>
      </trkpt>
      <trkpt lat="46.10915" lon="4.74812">
        <ele>176</ele>
        <time>2016-10-04T10:20:18Z</time>
      </trkpt>
      <trkpt lat="46.10913" lon="4.7482">
        <ele>176</ele>
        <time>2016-10-04T10:20:19Z</time>
      </trkpt>
      <trkpt lat="46.10913" lon="4.74829">
        <ele>176</ele>
        <time>2016-10-04T10:20:20Z</time>
      </trkpt>
      <trkpt lat="46.10911" lon="4.74837">
        <ele>176</ele>
        <time>2016-10-04T10:20:21Z</time>
      </trkpt>
      <trkpt lat="46.1091" lon="4.74845">
        <ele>176</ele>
        <time>2016-10-04T10:20:22Z</time>
      </trkpt>
      <trkpt lat="46.10907" lon="4.74853">
        <ele>176</ele>
        <time>2016-10-04T10:20:23Z</time>
      </trkpt>
      <trkpt lat="46.10904" lon="4.74863">
        <ele>176</ele>
        <time>2016-10-04T10:20:24Z</time>
      </trkpt>
      <trkpt lat="46.10902" lon="4.74872">
        <ele>176</ele>
        <time>2016-10-04T10:20:25Z</time>
      </trkpt>
      <trkpt lat="46.10902" lon="4.74881">
        <ele>177</ele>
        <time>2016-10-04T10:20:26Z</time>
      </trkpt>
      <trkpt lat="46.109" lon="4.7489">
        <ele>177</ele>
        <time>2016-10-04T10:20:27Z</time>
      </trkpt>
      <trkpt lat="46.10898" lon="4.74898">
        <ele>177</ele>
        <time>2016-10-04T10:20:28Z</time>
      </trkpt>
      <trkpt lat="46.10896" lon="4.74906">
        <ele>177</ele>
        <time>2016-10-04T10:20:29Z</time>
      </trkpt>
      <trkpt lat="46.10896" lon="4.74915">
        <ele>177</ele>
        <time>2016-10-04T10:20:30Z</time>
      </trkpt>
      <trkpt lat="46.10893" lon="4.74923">
        <ele>177</ele>
        <time>2016-10-04T10:20:31Z</time>
      </trkpt>
      <trkpt lat="46.10892" lon="4.74929">
        <ele>177</ele>
        <time>2016-10-04T10:20:32Z</time>
      </trkpt>
      <trkpt lat="46.10889" lon="4.74941">
        <ele>177</ele>
        <time>2016-10-04T10:20:55Z</time>
      </trkpt>
      <trkpt lat="46.10889" lon="4.74944">
        <ele>177</ele>
        <time>2016-10-04T10:20:56Z</time>
      </trkpt>
      <trkpt lat="46.10886" lon="4.74951">
        <ele>177</ele>
        <time>2016-10-04T10:20:58Z</time>
      </trkpt>
      <trkpt lat="46.10884" lon="4.74956">
        <ele>177</ele>
        <time>2016-10-04T10:20:59Z</time>
      </trkpt>
      <trkpt lat="46.10883" lon="4.74968">
        <ele>177</ele>
        <time>2016-10-04T10:21:01Z</time>
      </trkpt>
      <trkpt lat="46.10883" lon="4.74975">
        <ele>177</ele>
        <time>2016-10-04T10:21:02Z</time>
      </trkpt>
      <trkpt lat="46.10881" lon="4.74983">
        <ele>177</ele>
        <time>2016-10-04T10:21:03Z</time>
      </trkpt>
      <trkpt lat="46.1088" lon="4.74992">
        <ele>177</ele>
        <time>2016-10-04T10:21:04Z</time>
      </trkpt>
      <trkpt lat="46.10878" lon="4.75">
        <ele>177</ele>
        <time>2016-10-04T10:21:05Z</time>
      </trkpt>
      <trkpt lat="46.10876" lon="4.75008">
        <ele>177</ele>
        <time>2016-10-04T10:21:06Z</time>
      </trkpt>
      <trkpt lat="46.10874" lon="4.75016">
        <ele>177</ele>
        <time>2016-10-04T10:21:07Z</time>
      </trkpt>
      <trkpt lat="46.10872" lon="4.75023">
        <ele>177</ele>
        <time>2016-10-04T10:21:08Z</time>
      </trkpt>
      <trkpt lat="46.10871" lon="4.7503">
        <ele>177</ele>
        <time>2016-10-04T10:21:09Z</time>
      </trkpt>
      <trkpt lat="46.10869" lon="4.75039">
        <ele>177</ele>
        <time>2016-10-04T10:21:10Z</time>
      </trkpt>
      <trkpt lat="46.10867" lon="4.75047">
        <ele>177</ele>
        <time>2016-10-04T10:21:11Z</time>
      </trkpt>
      <trkpt lat="46.10866" lon="4.75055">
        <ele>177</ele>
        <time>2016-10-04T10:21:12Z</time>
      </trkpt>
      <trkpt lat="46.10865" lon="4.75062">
        <ele>177</ele>
        <time>2016-10-04T10:21:13Z</time>
      </trkpt>
      <trkpt lat="46.10865" lon="4.7507">
        <ele>177</ele>
        <time>2016-10-04T10:21:14Z</time>
      </trkpt>
      <trkpt lat="46.10864" lon="4.75078">
        <ele>177</ele>
        <time>2016-10-04T10:21:15Z</time>
      </trkpt>
      <trkpt lat="46.10863" lon="4.75085">
        <ele>176</ele>
        <time>2016-10-04T10:21:16Z</time>
      </trkpt>
      <trkpt lat="46.10862" lon="4.75092">
        <ele>176</ele>
        <time>2016-10-04T10:21:17Z</time>
      </trkpt>
      <trkpt lat="46.10861" lon="4.75098">
        <ele>176</ele>
        <time>2016-10-04T10:21:18Z</time>
      </trkpt>
      <trkpt lat="46.1086" lon="4.75108">
        <ele>176</ele>
        <time>2016-10-04T10:21:20Z</time>
      </trkpt>
      <trkpt lat="46.10859" lon="4.75114">
        <ele>176</ele>
        <time>2016-10-04T10:21:21Z</time>
      </trkpt>
      <trkpt lat="46.10858" lon="4.7512">
        <ele>176</ele>
        <time>2016-10-04T10:21:22Z</time>
      </trkpt>
      <trkpt lat="46.10856" lon="4.75127">
        <ele>176</ele>
        <time>2016-10-04T10:21:23Z</time>
      </trkpt>
      <trkpt lat="46.10855" lon="4.75134">
        <ele>176</ele>
        <time>2016-10-04T10:21:24Z</time>
      </trkpt>
      <trkpt lat="46.10854" lon="4.75142">
        <ele>176</ele>
        <time>2016-10-04T10:21:25Z</time>
      </trkpt>
      <trkpt lat="46.10852" lon="4.75149">
        <ele>176</ele>
        <time>2016-10-04T10:21:26Z</time>
      </trkpt>
      <trkpt lat="46.10851" lon="4.75156">
        <ele>176</ele>
        <time>2016-10-04T10:21:27Z</time>
      </trkpt>
      <trkpt lat="46.10849" lon="4.75163">
        <ele>176</ele>
        <time>2016-10-04T10:21:28Z</time>
      </trkpt>
      <trkpt lat="46.10848" lon="4.7517">
        <ele>176</ele>
        <time>2016-10-04T10:21:29Z</time>
      </trkpt>
      <trkpt lat="46.10849" lon="4.75177">
        <ele>176</ele>
        <time>2016-10-04T10:21:30Z</time>
      </trkpt>
      <trkpt lat="46.10847" lon="4.75184">
        <ele>176</ele>
        <time>2016-10-04T10:21:31Z</time>
      </trkpt>
      <trkpt lat="46.10846" lon="4.75192">
        <ele>176</ele>
        <time>2016-10-04T10:21:32Z</time>
      </trkpt>
      <trkpt lat="46.10843" lon="4.752">
        <ele>176</ele>
        <time>2016-10-04T10:21:33Z</time>
      </trkpt>
      <trkpt lat="46.10839" lon="4.75206">
        <ele>176</ele>
        <time>2016-10-04T10:21:34Z</time>
      </trkpt>
      <trkpt lat="46.10836" lon="4.75213">
        <ele>176</ele>
        <time>2016-10-04T10:21:35Z</time>
      </trkpt>
      <trkpt lat="46.10832" lon="4.7522">
        <ele>177</ele>
        <time>2016-10-04T10:21:36Z</time>
      </trkpt>
      <trkpt lat="46.10829" lon="4.75227">
        <ele>177</ele>
        <time>2016-10-04T10:21:37Z</time>
      </trkpt>
      <trkpt lat="46.10825" lon="4.75235">
        <ele>177</ele>
        <time>2016-10-04T10:21:38Z</time>
      </trkpt>
      <trkpt lat="46.10822" lon="4.75242">
        <ele>177</ele>
        <time>2016-10-04T10:21:39Z</time>
      </trkpt>
      <trkpt lat="46.1082" lon="4.75249">
        <ele>177</ele>
        <time>2016-10-04T10:21:40Z</time>
      </trkpt>
      <trkpt lat="46.10817" lon="4.75256">
        <ele>177</ele>
        <time>2016-10-04T10:21:41Z</time>
      </trkpt>
      <trkpt lat="46.10815" lon="4.75263">
        <ele>176</ele>
        <time>2016-10-04T10:21:42Z</time>
      </trkpt>
      <trkpt lat="46.10813" lon="4.75271">
        <ele>176</ele>
        <time>2016-10-04T10:21:43Z</time>
      </trkpt>
      <trkpt lat="46.10811" lon="4.75277">
        <ele>176</ele>
        <time>2016-10-04T10:21:44Z</time>
      </trkpt>
      <trkpt lat="46.10808" lon="4.75284">
        <ele>176</ele>
        <time>2016-10-04T10:21:45Z</time>
      </trkpt>
      <trkpt lat="46.10806" lon="4.7529">
        <ele>176</ele>
        <time>2016-10-04T10:21:46Z</time>
      </trkpt>
      <trkpt lat="46.10804" lon="4.75297">
        <ele>176</ele>
        <time>2016-10-04T10:21:47Z</time>
      </trkpt>
      <trkpt lat="46.10801" lon="4.75303">
        <ele>176</ele>
        <time>2016-10-04T10:21:48Z</time>
      </trkpt>
      <trkpt lat="46.10799" lon="4.75308">
        <ele>176</ele>
        <time>2016-10-04T10:21:49Z</time>
      </trkpt>
      <trkpt lat="46.10794" lon="4.75318">
        <ele>176</ele>
        <time>2016-10-04T10:21:51Z</time>
      </trkpt>
      <trkpt lat="46.10792" lon="4.75322">
        <ele>176</ele>
        <time>2016-10-04T10:21:52Z</time>
      </trkpt>
      <trkpt lat="46.10787" lon="4.75328">
        <ele>176</ele>
        <time>2016-10-04T10:21:54Z</time>
      </trkpt>
      <trkpt lat="46.10784" lon="4.75329">
        <ele>176</ele>
        <time>2016-10-04T10:21:55Z</time>
      </trkpt>
      <trkpt lat="46.10776" lon="4.75335">
        <ele>175</ele>
        <time>2016-10-04T10:21:57Z</time>
      </trkpt>
      <trkpt lat="46.10773" lon="4.7534">
        <ele>175</ele>
        <time>2016-10-04T10:21:58Z</time>
      </trkpt>
      <trkpt lat="46.10769" lon="4.75351">
        <ele>175</ele>
        <time>2016-10-04T10:22:00Z</time>
      </trkpt>
      <trkpt lat="46.10765" lon="4.75356">
        <ele>175</ele>
        <time>2016-10-04T10:22:01Z</time>
      </trkpt>
      <trkpt lat="46.10761" lon="4.75361">
        <ele>174</ele>
        <time>2016-10-04T10:22:02Z</time>
      </trkpt>
      <trkpt lat="46.10756" lon="4.75364">
        <ele>174</ele>
        <time>2016-10-04T10:22:03Z</time>
      </trkpt>
      <trkpt lat="46.10751" lon="4.75368">
        <ele>174</ele>
        <time>2016-10-04T10:22:04Z</time>
      </trkpt>
      <trkpt lat="46.10746" lon="4.75372">
        <ele>174</ele>
        <time>2016-10-04T10:22:05Z</time>
      </trkpt>
      <trkpt lat="46.10741" lon="4.75376">
        <ele>174</ele>
        <time>2016-10-04T10:22:06Z</time>
      </trkpt>
      <trkpt lat="46.10736" lon="4.75379">
        <ele>174</ele>
        <time>2016-10-04T10:22:07Z</time>
      </trkpt>
      <trkpt lat="46.10731" lon="4.75383">
        <ele>174</ele>
        <time>2016-10-04T10:22:08Z</time>
      </trkpt>
      <trkpt lat="46.10727" lon="4.75387">
        <ele>174</ele>
        <time>2016-10-04T10:22:09Z</time>
      </trkpt>
      <trkpt lat="46.10723" lon="4.75391">
        <ele>174</ele>
        <time>2016-10-04T10:22:10Z</time>
      </trkpt>
      <trkpt lat="46.10719" lon="4.75395">
        <ele>174</ele>
        <time>2016-10-04T10:22:11Z</time>
      </trkpt>
      <trkpt lat="46.10715" lon="4.75402">
        <ele>174</ele>
        <time>2016-10-04T10:22:12Z</time>
      </trkpt>
      <trkpt lat="46.10712" lon="4.75407">
        <ele>174</ele>
        <time>2016-10-04T10:22:13Z</time>
      </trkpt>
      <trkpt lat="46.10708" lon="4.75411">
        <ele>174</ele>
        <time>2016-10-04T10:22:14Z</time>
      </trkpt>
      <trkpt lat="46.10705" lon="4.75416">
        <ele>174</ele>
        <time>2016-10-04T10:22:15Z</time>
      </trkpt>
      <trkpt lat="46.10699" lon="4.75426">
        <ele>174</ele>
        <time>2016-10-04T10:22:17Z</time>
      </trkpt>
      <trkpt lat="46.10695" lon="4.7543">
        <ele>174</ele>
        <time>2016-10-04T10:22:18Z</time>
      </trkpt>
      <trkpt lat="46.10692" lon="4.75435">
        <ele>174</ele>
        <time>2016-10-04T10:22:19Z</time>
      </trkpt>
      <trkpt lat="46.10689" lon="4.75439">
        <ele>174</ele>
        <time>2016-10-04T10:22:20Z</time>
      </trkpt>
      <trkpt lat="46.10685" lon="4.75444">
        <ele>174</ele>
        <time>2016-10-04T10:22:21Z</time>
      </trkpt>
      <trkpt lat="46.10682" lon="4.75447">
        <ele>174</ele>
        <time>2016-10-04T10:22:22Z</time>
      </trkpt>
      <trkpt lat="46.10678" lon="4.75452">
        <ele>174</ele>
        <time>2016-10-04T10:22:23Z</time>
      </trkpt>
      <trkpt lat="46.10674" lon="4.75456">
        <ele>174</ele>
        <time>2016-10-04T10:22:24Z</time>
      </trkpt>
      <trkpt lat="46.1067" lon="4.75461">
        <ele>174</ele>
        <time>2016-10-04T10:22:25Z</time>
      </trkpt>
      <trkpt lat="46.10666" lon="4.75466">
        <ele>174</ele>
        <time>2016-10-04T10:22:26Z</time>
      </trkpt>
      <trkpt lat="46.10662" lon="4.75471">
        <ele>174</ele>
        <time>2016-10-04T10:22:27Z</time>
      </trkpt>
      <trkpt lat="46.10659" lon="4.75476">
        <ele>174</ele>
        <time>2016-10-04T10:22:28Z</time>
      </trkpt>
      <trkpt lat="46.10655" lon="4.75481">
        <ele>174</ele>
        <time>2016-10-04T10:22:29Z</time>
      </trkpt>
      <trkpt lat="46.10652" lon="4.75486">
        <ele>174</ele>
        <time>2016-10-04T10:22:30Z</time>
      </trkpt>
      <trkpt lat="46.10648" lon="4.75491">
        <ele>174</ele>
        <time>2016-10-04T10:22:31Z</time>
      </trkpt>
      <trkpt lat="46.10645" lon="4.75496">
        <ele>174</ele>
        <time>2016-10-04T10:22:32Z</time>
      </trkpt>
      <trkpt lat="46.10641" lon="4.75501">
        <ele>173</ele>
        <time>2016-10-04T10:22:33Z</time>
      </trkpt>
      <trkpt lat="46.10637" lon="4.75506">
        <ele>173</ele>
        <time>2016-10-04T10:22:34Z</time>
      </trkpt>
      <trkpt lat="46.10633" lon="4.75513">
        <ele>173</ele>
        <time>2016-10-04T10:22:35Z</time>
      </trkpt>
      <trkpt lat="46.10629" lon="4.75519">
        <ele>173</ele>
        <time>2016-10-04T10:22:36Z</time>
      </trkpt>
      <trkpt lat="46.10625" lon="4.75525">
        <ele>173</ele>
        <time>2016-10-04T10:22:37Z</time>
      </trkpt>
      <trkpt lat="46.10622" lon="4.7553">
        <ele>173</ele>
        <time>2016-10-04T10:22:38Z</time>
      </trkpt>
      <trkpt lat="46.10617" lon="4.75535">
        <ele>173</ele>
        <time>2016-10-04T10:22:39Z</time>
      </trkpt>
      <trkpt lat="46.10613" lon="4.7554">
        <ele>173</ele>
        <time>2016-10-04T10:22:40Z</time>
      </trkpt>
      <trkpt lat="46.10609" lon="4.75546">
        <ele>173</ele>
        <time>2016-10-04T10:22:41Z</time>
      </trkpt>
      <trkpt lat="46.10605" lon="4.7555">
        <ele>173</ele>
        <time>2016-10-04T10:22:42Z</time>
      </trkpt>
      <trkpt lat="46.10602" lon="4.75555">
        <ele>173</ele>
        <time>2016-10-04T10:22:43Z</time>
      </trkpt>
      <trkpt lat="46.10598" lon="4.75559">
        <ele>174</ele>
        <time>2016-10-04T10:22:44Z</time>
      </trkpt>
      <trkpt lat="46.10595" lon="4.75564">
        <ele>174</ele>
        <time>2016-10-04T10:22:45Z</time>
      </trkpt>
      <trkpt lat="46.10591" lon="4.75569">
        <ele>174</ele>
        <time>2016-10-04T10:22:46Z</time>
      </trkpt>
      <trkpt lat="46.10587" lon="4.75573">
        <ele>174</ele>
        <time>2016-10-04T10:22:47Z</time>
      </trkpt>
      <trkpt lat="46.10584" lon="4.75578">
        <ele>175</ele>
        <time>2016-10-04T10:22:48Z</time>
      </trkpt>
      <trkpt lat="46.1058" lon="4.75583">
        <ele>175</ele>
        <time>2016-10-04T10:22:49Z</time>
      </trkpt>
      <trkpt lat="46.10576" lon="4.75587">
        <ele>175</ele>
        <time>2016-10-04T10:22:50Z</time>
      </trkpt>
      <trkpt lat="46.10572" lon="4.75592">
        <ele>174</ele>
        <time>2016-10-04T10:22:51Z</time>
      </trkpt>
      <trkpt lat="46.10568" lon="4.75597">
        <ele>174</ele>
        <time>2016-10-04T10:22:52Z</time>
      </trkpt>
      <trkpt lat="46.10564" lon="4.75602">
        <ele>174</ele>
        <time>2016-10-04T10:22:53Z</time>
      </trkpt>
      <trkpt lat="46.10561" lon="4.75607">
        <ele>174</ele>
        <time>2016-10-04T10:22:54Z</time>
      </trkpt>
      <trkpt lat="46.10557" lon="4.75612">
        <ele>174</ele>
        <time>2016-10-04T10:22:55Z</time>
      </trkpt>
      <trkpt lat="46.10553" lon="4.75617">
        <ele>174</ele>
        <time>2016-10-04T10:22:56Z</time>
      </trkpt>
      <trkpt lat="46.10549" lon="4.75621">
        <ele>174</ele>
        <time>2016-10-04T10:22:57Z</time>
      </trkpt>
      <trkpt lat="46.10545" lon="4.75626">
        <ele>174</ele>
        <time>2016-10-04T10:22:58Z</time>
      </trkpt>
      <trkpt lat="46.10541" lon="4.75631">
        <ele>173</ele>
        <time>2016-10-04T10:22:59Z</time>
      </trkpt>
      <trkpt lat="46.10537" lon="4.75636">
        <ele>173</ele>
        <time>2016-10-04T10:23:00Z</time>
      </trkpt>
      <trkpt lat="46.10533" lon="4.75642">
        <ele>173</ele>
        <time>2016-10-04T10:23:01Z</time>
      </trkpt>
      <trkpt lat="46.10529" lon="4.75647">
        <ele>173</ele>
        <time>2016-10-04T10:23:02Z</time>
      </trkpt>
      <trkpt lat="46.10525" lon="4.75653">
        <ele>173</ele>
        <time>2016-10-04T10:23:03Z</time>
      </trkpt>
      <trkpt lat="46.10521" lon="4.75658">
        <ele>173</ele>
        <time>2016-10-04T10:23:04Z</time>
      </trkpt>
      <trkpt lat="46.10516" lon="4.75663">
        <ele>173</ele>
        <time>2016-10-04T10:23:05Z</time>
      </trkpt>
      <trkpt lat="46.10512" lon="4.75669">
        <ele>172</ele>
        <time>2016-10-04T10:23:06Z</time>
      </trkpt>
      <trkpt lat="46.10507" lon="4.75675">
        <ele>172</ele>
        <time>2016-10-04T10:23:07Z</time>
      </trkpt>
      <trkpt lat="46.10503" lon="4.75682">
        <ele>172</ele>
        <time>2016-10-04T10:23:08Z</time>
      </trkpt>
      <trkpt lat="46.10498" lon="4.75688">
        <ele>171</ele>
        <time>2016-10-04T10:23:09Z</time>
      </trkpt>
      <trkpt lat="46.10494" lon="4.75694">
        <ele>171</ele>
        <time>2016-10-04T10:23:10Z</time>
      </trkpt>
      <trkpt lat="46.10489" lon="4.75701">
        <ele>171</ele>
        <time>2016-10-04T10:23:11Z</time>
      </trkpt>
      <trkpt lat="46.10484" lon="4.75707">
        <ele>171</ele>
        <time>2016-10-04T10:23:12Z</time>
      </trkpt>
      <trkpt lat="46.1048" lon="4.75713">
        <ele>171</ele>
        <time>2016-10-04T10:23:13Z</time>
      </trkpt>
      <trkpt lat="46.10475" lon="4.75719">
        <ele>171</ele>
        <time>2016-10-04T10:23:14Z</time>
      </trkpt>
      <trkpt lat="46.10469" lon="4.75725">
        <ele>171</ele>
        <time>2016-10-04T10:23:15Z</time>
      </trkpt>
      <trkpt lat="46.10464" lon="4.75731">
        <ele>171</ele>
        <time>2016-10-04T10:23:16Z</time>
      </trkpt>
      <trkpt lat="46.10458" lon="4.75738">
        <ele>171</ele>
        <time>2016-10-04T10:23:17Z</time>
      </trkpt>
      <trkpt lat="46.10453" lon="4.75744">
        <ele>171</ele>
        <time>2016-10-04T10:23:18Z</time>
      </trkpt>
      <trkpt lat="46.10448" lon="4.75752">
        <ele>172</ele>
        <time>2016-10-04T10:23:19Z</time>
      </trkpt>
      <trkpt lat="46.10442" lon="4.75758">
        <ele>172</ele>
        <time>2016-10-04T10:23:20Z</time>
      </trkpt>
      <trkpt lat="46.10437" lon="4.75764">
        <ele>172</ele>
        <time>2016-10-04T10:23:21Z</time>
      </trkpt>
      <trkpt lat="46.10431" lon="4.75771">
        <ele>172</ele>
        <time>2016-10-04T10:23:22Z</time>
      </trkpt>
      <trkpt lat="46.10426" lon="4.75778">
        <ele>172</ele>
        <time>2016-10-04T10:23:23Z</time>
      </trkpt>
      <trkpt lat="46.1042" lon="4.75785">
        <ele>172</ele>
        <time>2016-10-04T10:23:24Z</time>
      </trkpt>
      <trkpt lat="46.10415" lon="4.75791">
        <ele>173</ele>
        <time>2016-10-04T10:23:25Z</time>
      </trkpt>
      <trkpt lat="46.10409" lon="4.75796">
        <ele>173</ele>
        <time>2016-10-04T10:23:26Z</time>
      </trkpt>
      <trkpt lat="46.10402" lon="4.758">
        <ele>174</ele>
        <time>2016-10-04T10:23:27Z</time>
      </trkpt>
      <trkpt lat="46.10397" lon="4.75804">
        <ele>174</ele>
        <time>2016-10-04T10:23:28Z</time>
      </trkpt>
      <trkpt lat="46.10392" lon="4.7581">
        <ele>174</ele>
        <time>2016-10-04T10:23:29Z</time>
      </trkpt>
      <trkpt lat="46.10389" lon="4.75817">
        <ele>174</ele>
        <time>2016-10-04T10:23:30Z</time>
      </trkpt>
      <trkpt lat="46.10387" lon="4.75826">
        <ele>174</ele>
        <time>2016-10-04T10:23:31Z</time>
      </trkpt>
      <trkpt lat="46.10387" lon="4.75834">
        <ele>175</ele>
        <time>2016-10-04T10:23:32Z</time>
      </trkpt>
      <trkpt lat="46.10386" lon="4.75842">
        <ele>175</ele>
        <time>2016-10-04T10:23:33Z</time>
      </trkpt>
      <trkpt lat="46.10386" lon="4.7585">
        <ele>175</ele>
        <time>2016-10-04T10:23:34Z</time>
      </trkpt>
      <trkpt lat="46.10386" lon="4.75858">
        <ele>175</ele>
        <time>2016-10-04T10:23:35Z</time>
      </trkpt>
      <trkpt lat="46.10384" lon="4.75865">
        <ele>175</ele>
        <time>2016-10-04T10:23:36Z</time>
      </trkpt>
      <trkpt lat="46.1038" lon="4.75872">
        <ele>175</ele>
        <time>2016-10-04T10:23:37Z</time>
      </trkpt>
      <trkpt lat="46.10378" lon="4.75881">
        <ele>175</ele>
        <time>2016-10-04T10:23:38Z</time>
      </trkpt>
      <trkpt lat="46.10374" lon="4.75889">
        <ele>175</ele>
        <time>2016-10-04T10:23:39Z</time>
      </trkpt>
      <trkpt lat="46.10371" lon="4.75898">
        <ele>175</ele>
        <time>2016-10-04T10:23:40Z</time>
      </trkpt>
      <trkpt lat="46.10368" lon="4.75906">
        <ele>175</ele>
        <time>2016-10-04T10:23:41Z</time>
      </trkpt>
      <trkpt lat="46.10365" lon="4.75913">
        <ele>175</ele>
        <time>2016-10-04T10:23:42Z</time>
      </trkpt>
      <trkpt lat="46.10362" lon="4.7592">
        <ele>175</ele>
        <time>2016-10-04T10:23:43Z</time>
      </trkpt>
      <trkpt lat="46.1036" lon="4.75928">
        <ele>175</ele>
        <time>2016-10-04T10:23:44Z</time>
      </trkpt>
      <trkpt lat="46.10357" lon="4.75935">
        <ele>175</ele>
        <time>2016-10-04T10:23:45Z</time>
      </trkpt>
      <trkpt lat="46.10353" lon="4.75943">
        <ele>175</ele>
        <time>2016-10-04T10:23:46Z</time>
      </trkpt>
      <trkpt lat="46.1035" lon="4.75951">
        <ele>175</ele>
        <time>2016-10-04T10:23:47Z</time>
      </trkpt>
      <trkpt lat="46.10348" lon="4.75959">
        <ele>175</ele>
        <time>2016-10-04T10:23:48Z</time>
      </trkpt>
      <trkpt lat="46.10346" lon="4.75967">
        <ele>176</ele>
        <time>2016-10-04T10:23:49Z</time>
      </trkpt>
      <trkpt lat="46.10342" lon="4.75975">
        <ele>176</ele>
        <time>2016-10-04T10:23:50Z</time>
      </trkpt>
      <trkpt lat="46.10342" lon="4.75983">
        <ele>176</ele>
        <time>2016-10-04T10:23:51Z</time>
      </trkpt>
      <trkpt lat="46.10339" lon="4.75991">
        <ele>176</ele>
        <time>2016-10-04T10:23:52Z</time>
      </trkpt>
      <trkpt lat="46.10337" lon="4.76">
        <ele>177</ele>
        <time>2016-10-04T10:23:53Z</time>
      </trkpt>
      <trkpt lat="46.10334" lon="4.76008">
        <ele>176</ele>
        <time>2016-10-04T10:23:54Z</time>
      </trkpt>
      <trkpt lat="46.10331" lon="4.76016">
        <ele>175</ele>
        <time>2016-10-04T10:23:55Z</time>
      </trkpt>
      <trkpt lat="46.10327" lon="4.76023">
        <ele>175</ele>
        <time>2016-10-04T10:23:56Z</time>
      </trkpt>
      <trkpt lat="46.10323" lon="4.7603">
        <ele>174</ele>
        <time>2016-10-04T10:23:57Z</time>
      </trkpt>
      <trkpt lat="46.1032" lon="4.76037">
        <ele>174</ele>
        <time>2016-10-04T10:23:58Z</time>
      </trkpt>
      <trkpt lat="46.10317" lon="4.76044">
        <ele>173</ele>
        <time>2016-10-04T10:23:59Z</time>
      </trkpt>
      <trkpt lat="46.10314" lon="4.76051">
        <ele>173</ele>
        <time>2016-10-04T10:24:00Z</time>
      </trkpt>
      <trkpt lat="46.10311" lon="4.76058">
        <ele>173</ele>
        <time>2016-10-04T10:24:01Z</time>
      </trkpt>
      <trkpt lat="46.10308" lon="4.76064">
        <ele>173</ele>
        <time>2016-10-04T10:24:02Z</time>
      </trkpt>
      <trkpt lat="46.10304" lon="4.76071">
        <ele>173</ele>
        <time>2016-10-04T10:24:03Z</time>
      </trkpt>
      <trkpt lat="46.10301" lon="4.76077">
        <ele>173</ele>
        <time>2016-10-04T10:24:04Z</time>
      </trkpt>
      <trkpt lat="46.10299" lon="4.76083">
        <ele>172</ele>
        <time>2016-10-04T10:24:05Z</time>
      </trkpt>
      <trkpt lat="46.10295" lon="4.76086">
        <ele>170</ele>
        <time>2016-10-04T10:24:06Z</time>
      </trkpt>
      <trkpt lat="46.10291" lon="4.76092">
        <ele>170</ele>
        <time>2016-10-04T10:24:07Z</time>
      </trkpt>
      <trkpt lat="46.10288" lon="4.76098">
        <ele>170</ele>
        <time>2016-10-04T10:24:08Z</time>
      </trkpt>
      <trkpt lat="46.10285" lon="4.76104">
        <ele>170</ele>
        <time>2016-10-04T10:24:09Z</time>
      </trkpt>
      <trkpt lat="46.10282" lon="4.76111">
        <ele>170</ele>
        <time>2016-10-04T10:24:10Z</time>
      </trkpt>
      <trkpt lat="46.1028" lon="4.76117">
        <ele>169</ele>
        <time>2016-10-04T10:24:11Z</time>
      </trkpt>
      <trkpt lat="46.10279" lon="4.76123">
        <ele>169</ele>
        <time>2016-10-04T10:24:12Z</time>
      </trkpt>
      <trkpt lat="46.10277" lon="4.76128">
        <ele>169</ele>
        <time>2016-10-04T10:24:13Z</time>
      </trkpt>
      <trkpt lat="46.10275" lon="4.76135">
        <ele>169</ele>
        <time>2016-10-04T10:24:14Z</time>
      </trkpt>
      <trkpt lat="46.10272" lon="4.76146">
        <ele>168</ele>
        <time>2016-10-04T10:24:16Z</time>
      </trkpt>
      <trkpt lat="46.1027" lon="4.7615">
        <ele>168</ele>
        <time>2016-10-04T10:24:17Z</time>
      </trkpt>
      <trkpt lat="46.10264" lon="4.7616">
        <ele>168</ele>
        <time>2016-10-04T10:24:19Z</time>
      </trkpt>
      <trkpt lat="46.10262" lon="4.76165">
        <ele>167</ele>
        <time>2016-10-04T10:24:20Z</time>
      </trkpt>
      <trkpt lat="46.10259" lon="4.76172">
        <ele>167</ele>
        <time>2016-10-04T10:24:22Z</time>
      </trkpt>
      <trkpt lat="46.10257" lon="4.76177">
        <ele>167</ele>
        <time>2016-10-04T10:24:23Z</time>
      </trkpt>
      <trkpt lat="46.10254" lon="4.76183">
        <ele>167</ele>
        <time>2016-10-04T10:24:24Z</time>
      </trkpt>
      <trkpt lat="46.10251" lon="4.76189">
        <ele>167</ele>
        <time>2016-10-04T10:24:25Z</time>
      </trkpt>
      <trkpt lat="46.10247" lon="4.76195">
        <ele>166</ele>
        <time>2016-10-04T10:24:26Z</time>
      </trkpt>
      <trkpt lat="46.10244" lon="4.76201">
        <ele>166</ele>
        <time>2016-10-04T10:24:27Z</time>
      </trkpt>
      <trkpt lat="46.10241" lon="4.76207">
        <ele>166</ele>
        <time>2016-10-04T10:24:28Z</time>
      </trkpt>
      <trkpt lat="46.10238" lon="4.76213">
        <ele>166</ele>
        <time>2016-10-04T10:24:29Z</time>
      </trkpt>
      <trkpt lat="46.10234" lon="4.76225">
        <ele>166</ele>
        <time>2016-10-04T10:24:31Z</time>
      </trkpt>
      <trkpt lat="46.10231" lon="4.7623">
        <ele>166</ele>
        <time>2016-10-04T10:24:32Z</time>
      </trkpt>
      <trkpt lat="46.10229" lon="4.76236">
        <ele>166</ele>
        <time>2016-10-04T10:24:33Z</time>
      </trkpt>
      <trkpt lat="46.10226" lon="4.76242">
        <ele>166</ele>
        <time>2016-10-04T10:24:34Z</time>
      </trkpt>
      <trkpt lat="46.10222" lon="4.76247">
        <ele>166</ele>
        <time>2016-10-04T10:24:35Z</time>
      </trkpt>
      <trkpt lat="46.10218" lon="4.76254">
        <ele>166</ele>
        <time>2016-10-04T10:24:36Z</time>
      </trkpt>
      <trkpt lat="46.10215" lon="4.76262">
        <ele>166</ele>
        <time>2016-10-04T10:24:37Z</time>
      </trkpt>
      <trkpt lat="46.10212" lon="4.76269">
        <ele>166</ele>
        <time>2016-10-04T10:24:38Z</time>
      </trkpt>
      <trkpt lat="46.10206" lon="4.76279">
        <ele>166</ele>
        <time>2016-10-04T10:24:39Z</time>
      </trkpt>
      <trkpt lat="46.10201" lon="4.76289">
        <ele>166</ele>
        <time>2016-10-04T10:24:40Z</time>
      </trkpt>
      <trkpt lat="46.10196" lon="4.76298">
        <ele>166</ele>
        <time>2016-10-04T10:24:41Z</time>
      </trkpt>
      <trkpt lat="46.10192" lon="4.76308">
        <ele>166</ele>
        <time>2016-10-04T10:24:42Z</time>
      </trkpt>
      <trkpt lat="46.10189" lon="4.76317">
        <ele>166</ele>
        <time>2016-10-04T10:24:43Z</time>
      </trkpt>
      <trkpt lat="46.10186" lon="4.76327">
        <ele>166</ele>
        <time>2016-10-04T10:24:44Z</time>
      </trkpt>
      <trkpt lat="46.10183" lon="4.76338">
        <ele>167</ele>
        <time>2016-10-04T10:24:45Z</time>
      </trkpt>
      <trkpt lat="46.1018" lon="4.76349">
        <ele>167</ele>
        <time>2016-10-04T10:24:46Z</time>
      </trkpt>
      <trkpt lat="46.10178" lon="4.76359">
        <ele>168</ele>
        <time>2016-10-04T10:24:47Z</time>
      </trkpt>
      <trkpt lat="46.10176" lon="4.7637">
        <ele>168</ele>
        <time>2016-10-04T10:24:48Z</time>
      </trkpt>
      <trkpt lat="46.10174" lon="4.76381">
        <ele>169</ele>
        <time>2016-10-04T10:24:49Z</time>
      </trkpt>
      <trkpt lat="46.10173" lon="4.76391">
        <ele>169</ele>
        <time>2016-10-04T10:24:50Z</time>
      </trkpt>
      <trkpt lat="46.10172" lon="4.76402">
        <ele>170</ele>
        <time>2016-10-04T10:24:51Z</time>
      </trkpt>
      <trkpt lat="46.10171" lon="4.76412">
        <ele>172</ele>
        <time>2016-10-04T10:24:52Z</time>
      </trkpt>
      <trkpt lat="46.10169" lon="4.76422">
        <ele>172</ele>
        <time>2016-10-04T10:24:53Z</time>
      </trkpt>
      <trkpt lat="46.10168" lon="4.76432">
        <ele>172</ele>
        <time>2016-10-04T10:24:54Z</time>
      </trkpt>
      <trkpt lat="46.10167" lon="4.76441">
        <ele>174</ele>
        <time>2016-10-04T10:24:55Z</time>
      </trkpt>
      <trkpt lat="46.10165" lon="4.7645">
        <ele>174</ele>
        <time>2016-10-04T10:24:56Z</time>
      </trkpt>
      <trkpt lat="46.10163" lon="4.76458">
        <ele>174</ele>
        <time>2016-10-04T10:24:57Z</time>
      </trkpt>
      <trkpt lat="46.10162" lon="4.76467">
        <ele>174</ele>
        <time>2016-10-04T10:24:58Z</time>
      </trkpt>
      <trkpt lat="46.1016" lon="4.76475">
        <ele>174</ele>
        <time>2016-10-04T10:24:59Z</time>
      </trkpt>
      <trkpt lat="46.10159" lon="4.76484">
        <ele>174</ele>
        <time>2016-10-04T10:25:00Z</time>
      </trkpt>
      <trkpt lat="46.10157" lon="4.76493">
        <ele>174</ele>
        <time>2016-10-04T10:25:01Z</time>
      </trkpt>
      <trkpt lat="46.10156" lon="4.76501">
        <ele>174</ele>
        <time>2016-10-04T10:25:02Z</time>
      </trkpt>
      <trkpt lat="46.10154" lon="4.76509">
        <ele>174</ele>
        <time>2016-10-04T10:25:03Z</time>
      </trkpt>
      <trkpt lat="46.10154" lon="4.76517">
        <ele>174</ele>
        <time>2016-10-04T10:25:04Z</time>
      </trkpt>
      <trkpt lat="46.10152" lon="4.76523">
        <ele>174</ele>
        <time>2016-10-04T10:25:05Z</time>
      </trkpt>
      <trkpt lat="46.10151" lon="4.76532">
        <ele>174</ele>
        <time>2016-10-04T10:25:06Z</time>
      </trkpt>
      <trkpt lat="46.1015" lon="4.7654">
        <ele>174</ele>
        <time>2016-10-04T10:25:07Z</time>
      </trkpt>
      <trkpt lat="46.10148" lon="4.76549">
        <ele>174</ele>
        <time>2016-10-04T10:25:08Z</time>
      </trkpt>
      <trkpt lat="46.10147" lon="4.76556">
        <ele>174</ele>
        <time>2016-10-04T10:25:09Z</time>
      </trkpt>
      <trkpt lat="46.10143" lon="4.76564">
        <ele>174</ele>
        <time>2016-10-04T10:25:10Z</time>
      </trkpt>
      <trkpt lat="46.10142" lon="4.76572">
        <ele>174</ele>
        <time>2016-10-04T10:25:11Z</time>
      </trkpt>
      <trkpt lat="46.1014" lon="4.7658">
        <ele>174</ele>
        <time>2016-10-04T10:25:12Z</time>
      </trkpt>
      <trkpt lat="46.10139" lon="4.76589">
        <ele>174</ele>
        <time>2016-10-04T10:25:13Z</time>
      </trkpt>
      <trkpt lat="46.10139" lon="4.76598">
        <ele>174</ele>
        <time>2016-10-04T10:25:14Z</time>
      </trkpt>
      <trkpt lat="46.10137" lon="4.76608">
        <ele>174</ele>
        <time>2016-10-04T10:25:15Z</time>
      </trkpt>
      <trkpt lat="46.10136" lon="4.76617">
        <ele>174</ele>
        <time>2016-10-04T10:25:16Z</time>
      </trkpt>
      <trkpt lat="46.10134" lon="4.76626">
        <ele>175</ele>
        <time>2016-10-04T10:25:17Z</time>
      </trkpt>
      <trkpt lat="46.10133" lon="4.76635">
        <ele>175</ele>
        <time>2016-10-04T10:25:18Z</time>
      </trkpt>
      <trkpt lat="46.10132" lon="4.76643">
        <ele>175</ele>
        <time>2016-10-04T10:25:19Z</time>
      </trkpt>
      <trkpt lat="46.1013" lon="4.76651">
        <ele>175</ele>
        <time>2016-10-04T10:25:20Z</time>
      </trkpt>
      <trkpt lat="46.10129" lon="4.7666">
        <ele>175</ele>
        <time>2016-10-04T10:25:21Z</time>
      </trkpt>
      <trkpt lat="46.10128" lon="4.76668">
        <ele>175</ele>
        <time>2016-10-04T10:25:22Z</time>
      </trkpt>
      <trkpt lat="46.10127" lon="4.76676">
        <ele>175</ele>
        <time>2016-10-04T10:25:23Z</time>
      </trkpt>
      <trkpt lat="46.10126" lon="4.76683">
        <ele>175</ele>
        <time>2016-10-04T10:25:24Z</time>
      </trkpt>
      <trkpt lat="46.10124" lon="4.76691">
        <ele>175</ele>
        <time>2016-10-04T10:25:25Z</time>
      </trkpt>
      <trkpt lat="46.10123" lon="4.76699">
        <ele>175</ele>
        <time>2016-10-04T10:25:26Z</time>
      </trkpt>
      <trkpt lat="46.10121" lon="4.76708">
        <ele>175</ele>
        <time>2016-10-04T10:25:27Z</time>
      </trkpt>
      <trkpt lat="46.10119" lon="4.76717">
        <ele>175</ele>
        <time>2016-10-04T10:25:28Z</time>
      </trkpt>
      <trkpt lat="46.10118" lon="4.76726">
        <ele>175</ele>
        <time>2016-10-04T10:25:29Z</time>
      </trkpt>
      <trkpt lat="46.10116" lon="4.76734">
        <ele>175</ele>
        <time>2016-10-04T10:25:30Z</time>
      </trkpt>
      <trkpt lat="46.10114" lon="4.76742">
        <ele>175</ele>
        <time>2016-10-04T10:25:31Z</time>
      </trkpt>
      <trkpt lat="46.10112" lon="4.7675">
        <ele>175</ele>
        <time>2016-10-04T10:25:32Z</time>
      </trkpt>
      <trkpt lat="46.10111" lon="4.76759">
        <ele>175</ele>
        <time>2016-10-04T10:25:33Z</time>
      </trkpt>
      <trkpt lat="46.10109" lon="4.76768">
        <ele>175</ele>
        <time>2016-10-04T10:25:34Z</time>
      </trkpt>
      <trkpt lat="46.10108" lon="4.76776">
        <ele>175</ele>
        <time>2016-10-04T10:25:35Z</time>
      </trkpt>
      <trkpt lat="46.10107" lon="4.76784">
        <ele>175</ele>
        <time>2016-10-04T10:25:36Z</time>
      </trkpt>
      <trkpt lat="46.10106" lon="4.76792">
        <ele>175</ele>
        <time>2016-10-04T10:25:37Z</time>
      </trkpt>
      <trkpt lat="46.10104" lon="4.768">
        <ele>174</ele>
        <time>2016-10-04T10:25:38Z</time>
      </trkpt>
      <trkpt lat="46.10103" lon="4.76808">
        <ele>174</ele>
        <time>2016-10-04T10:25:39Z</time>
      </trkpt>
      <trkpt lat="46.10102" lon="4.76816">
        <ele>174</ele>
        <time>2016-10-04T10:25:40Z</time>
      </trkpt>
      <trkpt lat="46.101" lon="4.76822">
        <ele>175</ele>
        <time>2016-10-04T10:25:41Z</time>
      </trkpt>
      <trkpt lat="46.10098" lon="4.7683">
        <ele>175</ele>
        <time>2016-10-04T10:25:42Z</time>
      </trkpt>
      <trkpt lat="46.10097" lon="4.76837">
        <ele>175</ele>
        <time>2016-10-04T10:25:43Z</time>
      </trkpt>
      <trkpt lat="46.10096" lon="4.76844">
        <ele>175</ele>
        <time>2016-10-04T10:25:44Z</time>
      </trkpt>
      <trkpt lat="46.10094" lon="4.76853">
        <ele>175</ele>
        <time>2016-10-04T10:25:45Z</time>
      </trkpt>
      <trkpt lat="46.10093" lon="4.76861">
        <ele>175</ele>
        <time>2016-10-04T10:25:46Z</time>
      </trkpt>
      <trkpt lat="46.10093" lon="4.7687">
        <ele>175</ele>
        <time>2016-10-04T10:25:47Z</time>
      </trkpt>
      <trkpt lat="46.10092" lon="4.76878">
        <ele>176</ele>
        <time>2016-10-04T10:25:48Z</time>
      </trkpt>
      <trkpt lat="46.1009" lon="4.76886">
        <ele>176</ele>
        <time>2016-10-04T10:25:49Z</time>
      </trkpt>
      <trkpt lat="46.10089" lon="4.76894">
        <ele>176</ele>
        <time>2016-10-04T10:25:50Z</time>
      </trkpt>
      <trkpt lat="46.10088" lon="4.76901">
        <ele>176</ele>
        <time>2016-10-04T10:25:51Z</time>
      </trkpt>
      <trkpt lat="46.10087" lon="4.76907">
        <ele>176</ele>
        <time>2016-10-04T10:25:52Z</time>
      </trkpt>
      <trkpt lat="46.10086" lon="4.76914">
        <ele>177</ele>
        <time>2016-10-04T10:25:53Z</time>
      </trkpt>
      <trkpt lat="46.10085" lon="4.7692">
        <ele>177</ele>
        <time>2016-10-04T10:25:54Z</time>
      </trkpt>
      <trkpt lat="46.10083" lon="4.76926">
        <ele>177</ele>
        <time>2016-10-04T10:25:55Z</time>
      </trkpt>
      <trkpt lat="46.10082" lon="4.76938">
        <ele>176</ele>
        <time>2016-10-04T10:25:57Z</time>
      </trkpt>
      <trkpt lat="46.10081" lon="4.76945">
        <ele>176</ele>
        <time>2016-10-04T10:25:58Z</time>
      </trkpt>
      <trkpt lat="46.10076" lon="4.76953">
        <ele>176</ele>
        <time>2016-10-04T10:25:59Z</time>
      </trkpt>
      <trkpt lat="46.10077" lon="4.7696">
        <ele>176</ele>
        <time>2016-10-04T10:26:00Z</time>
      </trkpt>
      <trkpt lat="46.10074" lon="4.7697">
        <ele>176</ele>
        <time>2016-10-04T10:26:02Z</time>
      </trkpt>
      <trkpt lat="46.10071" lon="4.76973">
        <ele>176</ele>
        <time>2016-10-04T10:26:03Z</time>
      </trkpt>
      <trkpt lat="46.10064" lon="4.76979">
        <ele>176</ele>
        <time>2016-10-04T10:26:05Z</time>
      </trkpt>
      <trkpt lat="46.10059" lon="4.76982">
        <ele>176</ele>
        <time>2016-10-04T10:26:06Z</time>
      </trkpt>
      <trkpt lat="46.10055" lon="4.76985">
        <ele>176</ele>
        <time>2016-10-04T10:26:07Z</time>
      </trkpt>
      <trkpt lat="46.10053" lon="4.76991">
        <ele>176</ele>
        <time>2016-10-04T10:26:08Z</time>
      </trkpt>
      <trkpt lat="46.10053" lon="4.77004">
        <ele>177</ele>
        <time>2016-10-04T10:26:10Z</time>
      </trkpt>
      <trkpt lat="46.10055" lon="4.77011">
        <ele>177</ele>
        <time>2016-10-04T10:26:11Z</time>
      </trkpt>
      <trkpt lat="46.10057" lon="4.77017">
        <ele>177</ele>
        <time>2016-10-04T10:26:12Z</time>
      </trkpt>
      <trkpt lat="46.1006" lon="4.77022">
        <ele>177</ele>
        <time>2016-10-04T10:26:13Z</time>
      </trkpt>
      <trkpt lat="46.10064" lon="4.77033">
        <ele>177</ele>
        <time>2016-10-04T10:26:15Z</time>
      </trkpt>
      <trkpt lat="46.10065" lon="4.77038">
        <ele>178</ele>
        <time>2016-10-04T10:26:16Z</time>
      </trkpt>
      <trkpt lat="46.10064" lon="4.77049">
        <ele>178</ele>
        <time>2016-10-04T10:26:18Z</time>
      </trkpt>
      <trkpt lat="46.10063" lon="4.77055">
        <ele>178</ele>
        <time>2016-10-04T10:26:19Z</time>
      </trkpt>
      <trkpt lat="46.10061" lon="4.77067">
        <ele>178</ele>
        <time>2016-10-04T10:26:21Z</time>
      </trkpt>
      <trkpt lat="46.1006" lon="4.77073">
        <ele>178</ele>
        <time>2016-10-04T10:26:22Z</time>
      </trkpt>
      <trkpt lat="46.10059" lon="4.77084">
        <ele>180</ele>
        <time>2016-10-04T10:26:24Z</time>
      </trkpt>
      <trkpt lat="46.10058" lon="4.7709">
        <ele>180</ele>
        <time>2016-10-04T10:26:25Z</time>
      </trkpt>
      <trkpt lat="46.10056" lon="4.77101">
        <ele>180</ele>
        <time>2016-10-04T10:26:27Z</time>
      </trkpt>
      <trkpt lat="46.10055" lon="4.77106">
        <ele>180</ele>
        <time>2016-10-04T10:26:28Z</time>
      </trkpt>
      <trkpt lat="46.10053" lon="4.77117">
        <ele>180</ele>
        <time>2016-10-04T10:26:30Z</time>
      </trkpt>
      <trkpt lat="46.10052" lon="4.77122">
        <ele>180</ele>
        <time>2016-10-04T10:26:31Z</time>
      </trkpt>
      <trkpt lat="46.10051" lon="4.77128">
        <ele>180</ele>
        <time>2016-10-04T10:26:32Z</time>
      </trkpt>
      <trkpt lat="46.1005" lon="4.77135">
        <ele>181</ele>
        <time>2016-10-04T10:26:33Z</time>
      </trkpt>
      <trkpt lat="46.10048" lon="4.77147">
        <ele>181</ele>
        <time>2016-10-04T10:26:35Z</time>
      </trkpt>
      <trkpt lat="46.10048" lon="4.77152">
        <ele>181</ele>
        <time>2016-10-04T10:26:36Z</time>
      </trkpt>
      <trkpt lat="46.10046" lon="4.77162">
        <ele>181</ele>
        <time>2016-10-04T10:26:38Z</time>
      </trkpt>
      <trkpt lat="46.10045" lon="4.77167">
        <ele>181</ele>
        <time>2016-10-04T10:26:39Z</time>
      </trkpt>
      <trkpt lat="46.10043" lon="4.77177">
        <ele>183</ele>
        <time>2016-10-04T10:26:41Z</time>
      </trkpt>
      <trkpt lat="46.10042" lon="4.77182">
        <ele>183</ele>
        <time>2016-10-04T10:26:42Z</time>
      </trkpt>
      <trkpt lat="46.1004" lon="4.77191">
        <ele>184</ele>
        <time>2016-10-04T10:26:44Z</time>
      </trkpt>
      <trkpt lat="46.10039" lon="4.77196">
        <ele>184</ele>
        <time>2016-10-04T10:26:45Z</time>
      </trkpt>
      <trkpt lat="46.10037" lon="4.77206">
        <ele>184</ele>
        <time>2016-10-04T10:26:47Z</time>
      </trkpt>
      <trkpt lat="46.10036" lon="4.77212">
        <ele>184</ele>
        <time>2016-10-04T10:26:48Z</time>
      </trkpt>
      <trkpt lat="46.10036" lon="4.77223">
        <ele>184</ele>
        <time>2016-10-04T10:26:50Z</time>
      </trkpt>
      <trkpt lat="46.10035" lon="4.77228">
        <ele>185</ele>
        <time>2016-10-04T10:26:51Z</time>
      </trkpt>
      <trkpt lat="46.10034" lon="4.77237">
        <ele>185</ele>
        <time>2016-10-04T10:26:53Z</time>
      </trkpt>
      <trkpt lat="46.10033" lon="4.77242">
        <ele>185</ele>
        <time>2016-10-04T10:26:54Z</time>
      </trkpt>
      <trkpt lat="46.10032" lon="4.77252">
        <ele>187</ele>
        <time>2016-10-04T10:26:56Z</time>
      </trkpt>
      <trkpt lat="46.10032" lon="4.77257">
        <ele>187</ele>
        <time>2016-10-04T10:26:57Z</time>
      </trkpt>
      <trkpt lat="46.1003" lon="4.77267">
        <ele>187</ele>
        <time>2016-10-04T10:26:59Z</time>
      </trkpt>
      <trkpt lat="46.10029" lon="4.77272">
        <ele>187</ele>
        <time>2016-10-04T10:27:00Z</time>
      </trkpt>
      <trkpt lat="46.10028" lon="4.77281">
        <ele>187</ele>
        <time>2016-10-04T10:27:02Z</time>
      </trkpt>
      <trkpt lat="46.10027" lon="4.77285">
        <ele>187</ele>
        <time>2016-10-04T10:27:03Z</time>
      </trkpt>
      <trkpt lat="46.10025" lon="4.77295">
        <ele>187</ele>
        <time>2016-10-04T10:27:05Z</time>
      </trkpt>
      <trkpt lat="46.10025" lon="4.773">
        <ele>187</ele>
        <time>2016-10-04T10:27:06Z</time>
      </trkpt>
      <trkpt lat="46.10023" lon="4.7731">
        <ele>187</ele>
        <time>2016-10-04T10:27:08Z</time>
      </trkpt>
      <trkpt lat="46.10022" lon="4.77316">
        <ele>187</ele>
        <time>2016-10-04T10:27:09Z</time>
      </trkpt>
      <trkpt lat="46.1002" lon="4.77326">
        <ele>187</ele>
        <time>2016-10-04T10:27:11Z</time>
      </trkpt>
      <trkpt lat="46.1002" lon="4.77331">
        <ele>187</ele>
        <time>2016-10-04T10:27:12Z</time>
      </trkpt>
      <trkpt lat="46.10019" lon="4.77341">
        <ele>188</ele>
        <time>2016-10-04T10:27:14Z</time>
      </trkpt>
      <trkpt lat="46.10018" lon="4.77346">
        <ele>188</ele>
        <time>2016-10-04T10:27:15Z</time>
      </trkpt>
      <trkpt lat="46.10016" lon="4.77356">
        <ele>188</ele>
        <time>2016-10-04T10:27:17Z</time>
      </trkpt>
      <trkpt lat="46.10015" lon="4.77359">
        <ele>188</ele>
        <time>2016-10-04T10:27:18Z</time>
      </trkpt>
      <trkpt lat="46.10013" lon="4.77367">
        <ele>188</ele>
        <time>2016-10-04T10:27:20Z</time>
      </trkpt>
      <trkpt lat="46.10013" lon="4.77372">
        <ele>188</ele>
        <time>2016-10-04T10:27:21Z</time>
      </trkpt>
      <trkpt lat="46.10013" lon="4.77382">
        <ele>188</ele>
        <time>2016-10-04T10:27:23Z</time>
      </trkpt>
      <trkpt lat="46.10012" lon="4.77387">
        <ele>188</ele>
        <time>2016-10-04T10:27:24Z</time>
      </trkpt>
      <trkpt lat="46.1001" lon="4.77396">
        <ele>188</ele>
        <time>2016-10-04T10:27:26Z</time>
      </trkpt>
      <trkpt lat="46.10009" lon="4.774">
        <ele>188</ele>
        <time>2016-10-04T10:27:27Z</time>
      </trkpt>
      <trkpt lat="46.10007" lon="4.77409">
        <ele>189</ele>
        <time>2016-10-04T10:27:29Z</time>
      </trkpt>
      <trkpt lat="46.10006" lon="4.77413">
        <ele>189</ele>
        <time>2016-10-04T10:27:30Z</time>
      </trkpt>
      <trkpt lat="46.10004" lon="4.77423">
        <ele>189</ele>
        <time>2016-10-04T10:27:32Z</time>
      </trkpt>
      <trkpt lat="46.10002" lon="4.77426">
        <ele>189</ele>
        <time>2016-10-04T10:27:33Z</time>
      </trkpt>
      <trkpt lat="46.09996" lon="4.77431">
        <ele>190</ele>
        <time>2016-10-04T10:27:35Z</time>
      </trkpt>
      <trkpt lat="46.09992" lon="4.77431">
        <ele>190</ele>
        <time>2016-10-04T10:27:36Z</time>
      </trkpt>
      <trkpt lat="46.09985" lon="4.77429">
        <ele>191</ele>
        <time>2016-10-04T10:27:38Z</time>
      </trkpt>
      <trkpt lat="46.09982" lon="4.77428">
        <ele>191</ele>
        <time>2016-10-04T10:27:39Z</time>
      </trkpt>
      <trkpt lat="46.09974" lon="4.77425">
        <ele>191</ele>
        <time>2016-10-04T10:27:41Z</time>
      </trkpt>
      <trkpt lat="46.0997" lon="4.77423">
        <ele>191</ele>
        <time>2016-10-04T10:27:42Z</time>
      </trkpt>
      <trkpt lat="46.09963" lon="4.7742">
        <ele>191</ele>
        <time>2016-10-04T10:27:44Z</time>
      </trkpt>
      <trkpt lat="46.0996" lon="4.77418">
        <ele>191</ele>
        <time>2016-10-04T10:27:45Z</time>
      </trkpt>
      <trkpt lat="46.09952" lon="4.77414">
        <ele>191</ele>
        <time>2016-10-04T10:27:47Z</time>
      </trkpt>
      <trkpt lat="46.09948" lon="4.77412">
        <ele>191</ele>
        <time>2016-10-04T10:27:48Z</time>
      </trkpt>
      <trkpt lat="46.09941" lon="4.77407">
        <ele>191</ele>
        <time>2016-10-04T10:27:50Z</time>
      </trkpt>
      <trkpt lat="46.09939" lon="4.77404">
        <ele>191</ele>
        <time>2016-10-04T10:27:51Z</time>
      </trkpt>
      <trkpt lat="46.09933" lon="4.77401">
        <ele>192</ele>
        <time>2016-10-04T10:27:53Z</time>
      </trkpt>
      <trkpt lat="46.0993" lon="4.77399">
        <ele>192</ele>
        <time>2016-10-04T10:27:54Z</time>
      </trkpt>
      <trkpt lat="46.09923" lon="4.77396">
        <ele>192</ele>
        <time>2016-10-04T10:27:56Z</time>
      </trkpt>
      <trkpt lat="46.0992" lon="4.77394">
        <ele>192</ele>
        <time>2016-10-04T10:27:57Z</time>
      </trkpt>
      <trkpt lat="46.09912" lon="4.77391">
        <ele>193</ele>
        <time>2016-10-04T10:27:59Z</time>
      </trkpt>
      <trkpt lat="46.09908" lon="4.77389">
        <ele>193</ele>
        <time>2016-10-04T10:28:00Z</time>
      </trkpt>
      <trkpt lat="46.09901" lon="4.77385">
        <ele>193</ele>
        <time>2016-10-04T10:28:02Z</time>
      </trkpt>
      <trkpt lat="46.09897" lon="4.77383">
        <ele>194</ele>
        <time>2016-10-04T10:28:03Z</time>
      </trkpt>
      <trkpt lat="46.09892" lon="4.77381">
        <ele>194</ele>
        <time>2016-10-04T10:28:04Z</time>
      </trkpt>
      <trkpt lat="46.09887" lon="4.77379">
        <ele>194</ele>
        <time>2016-10-04T10:28:05Z</time>
      </trkpt>
      <trkpt lat="46.09879" lon="4.77375">
        <ele>194</ele>
        <time>2016-10-04T10:28:07Z</time>
      </trkpt>
      <trkpt lat="46.09875" lon="4.77373">
        <ele>194</ele>
        <time>2016-10-04T10:28:08Z</time>
      </trkpt>
      <trkpt lat="46.09868" lon="4.77371">
        <ele>194</ele>
        <time>2016-10-04T10:28:10Z</time>
      </trkpt>
      <trkpt lat="46.09865" lon="4.77369">
        <ele>194</ele>
        <time>2016-10-04T10:28:11Z</time>
      </trkpt>
      <trkpt lat="46.09858" lon="4.77366">
        <ele>194</ele>
        <time>2016-10-04T10:28:13Z</time>
      </trkpt>
      <trkpt lat="46.09854" lon="4.77364">
        <ele>194</ele>
        <time>2016-10-04T10:28:14Z</time>
      </trkpt>
      <trkpt lat="46.09846" lon="4.77359">
        <ele>194</ele>
        <time>2016-10-04T10:28:16Z</time>
      </trkpt>
      <trkpt lat="46.09842" lon="4.77356">
        <ele>194</ele>
        <time>2016-10-04T10:28:17Z</time>
      </trkpt>
      <trkpt lat="46.09836" lon="4.77353">
        <ele>194</ele>
        <time>2016-10-04T10:28:19Z</time>
      </trkpt>
      <trkpt lat="46.09833" lon="4.77351">
        <ele>195</ele>
        <time>2016-10-04T10:28:20Z</time>
      </trkpt>
      <trkpt lat="46.09826" lon="4.77346">
        <ele>195</ele>
        <time>2016-10-04T10:28:22Z</time>
      </trkpt>
      <trkpt lat="46.09822" lon="4.77344">
        <ele>195</ele>
        <time>2016-10-04T10:28:23Z</time>
      </trkpt>
      <trkpt lat="46.09814" lon="4.77339">
        <ele>196</ele>
        <time>2016-10-04T10:28:25Z</time>
      </trkpt>
      <trkpt lat="46.0981" lon="4.77337">
        <ele>196</ele>
        <time>2016-10-04T10:28:26Z</time>
      </trkpt>
      <trkpt lat="46.09802" lon="4.77333">
        <ele>195</ele>
        <time>2016-10-04T10:28:28Z</time>
      </trkpt>
      <trkpt lat="46.09797" lon="4.77331">
        <ele>195</ele>
        <time>2016-10-04T10:28:29Z</time>
      </trkpt>
      <trkpt lat="46.09789" lon="4.77327">
        <ele>195</ele>
        <time>2016-10-04T10:28:31Z</time>
      </trkpt>
      <trkpt lat="46.09785" lon="4.77325">
        <ele>195</ele>
        <time>2016-10-04T10:28:32Z</time>
      </trkpt>
      <trkpt lat="46.09777" lon="4.7732">
        <ele>195</ele>
        <time>2016-10-04T10:28:34Z</time>
      </trkpt>
      <trkpt lat="46.09773" lon="4.7732">
        <ele>195</ele>
        <time>2016-10-04T10:28:35Z</time>
      </trkpt>
      <trkpt lat="46.09765" lon="4.77315">
        <ele>196</ele>
        <time>2016-10-04T10:28:37Z</time>
      </trkpt>
      <trkpt lat="46.09761" lon="4.77311">
        <ele>196</ele>
        <time>2016-10-04T10:28:38Z</time>
      </trkpt>
      <trkpt lat="46.09756" lon="4.77309">
        <ele>196</ele>
        <time>2016-10-04T10:28:39Z</time>
      </trkpt>
      <trkpt lat="46.09752" lon="4.77307">
        <ele>195</ele>
        <time>2016-10-04T10:28:40Z</time>
      </trkpt>
      <trkpt lat="46.09744" lon="4.77303">
        <ele>197</ele>
        <time>2016-10-04T10:28:42Z</time>
      </trkpt>
      <trkpt lat="46.0974" lon="4.77302">
        <ele>197</ele>
        <time>2016-10-04T10:28:43Z</time>
      </trkpt>
      <trkpt lat="46.09732" lon="4.77297">
        <ele>197</ele>
        <time>2016-10-04T10:28:45Z</time>
      </trkpt>
      <trkpt lat="46.09728" lon="4.77292">
        <ele>197</ele>
        <time>2016-10-04T10:28:46Z</time>
      </trkpt>
      <trkpt lat="46.0972" lon="4.7729">
        <ele>197</ele>
        <time>2016-10-04T10:28:48Z</time>
      </trkpt>
      <trkpt lat="46.09716" lon="4.77287">
        <ele>197</ele>
        <time>2016-10-04T10:28:49Z</time>
      </trkpt>
      <trkpt lat="46.09708" lon="4.77282">
        <ele>198</ele>
        <time>2016-10-04T10:28:51Z</time>
      </trkpt>
      <trkpt lat="46.09704" lon="4.77281">
        <ele>198</ele>
        <time>2016-10-04T10:28:52Z</time>
      </trkpt>
      <trkpt lat="46.09697" lon="4.77276">
        <ele>198</ele>
        <time>2016-10-04T10:28:54Z</time>
      </trkpt>
      <trkpt lat="46.09693" lon="4.77274">
        <ele>198</ele>
        <time>2016-10-04T10:28:55Z</time>
      </trkpt>
      <trkpt lat="46.09685" lon="4.77269">
        <ele>198</ele>
        <time>2016-10-04T10:28:57Z</time>
      </trkpt>
      <trkpt lat="46.09681" lon="4.77266">
        <ele>198</ele>
        <time>2016-10-04T10:28:58Z</time>
      </trkpt>
      <trkpt lat="46.09674" lon="4.77259">
        <ele>198</ele>
        <time>2016-10-04T10:29:00Z</time>
      </trkpt>
      <trkpt lat="46.09669" lon="4.77257">
        <ele>198</ele>
        <time>2016-10-04T10:29:01Z</time>
      </trkpt>
      <trkpt lat="46.09662" lon="4.77254">
        <ele>199</ele>
        <time>2016-10-04T10:29:03Z</time>
      </trkpt>
      <trkpt lat="46.09658" lon="4.77256">
        <ele>199</ele>
        <time>2016-10-04T10:29:04Z</time>
      </trkpt>
      <trkpt lat="46.09652" lon="4.77265">
        <ele>200</ele>
        <time>2016-10-04T10:29:06Z</time>
      </trkpt>
      <trkpt lat="46.09651" lon="4.7727">
        <ele>200</ele>
        <time>2016-10-04T10:29:07Z</time>
      </trkpt>
      <trkpt lat="46.09649" lon="4.77281">
        <ele>200</ele>
        <time>2016-10-04T10:29:09Z</time>
      </trkpt>
      <trkpt lat="46.09648" lon="4.77287">
        <ele>200</ele>
        <time>2016-10-04T10:29:10Z</time>
      </trkpt>
      <trkpt lat="46.09646" lon="4.77298">
        <ele>201</ele>
        <time>2016-10-04T10:29:12Z</time>
      </trkpt>
      <trkpt lat="46.09644" lon="4.77303">
        <ele>201</ele>
        <time>2016-10-04T10:29:13Z</time>
      </trkpt>
      <trkpt lat="46.0964" lon="4.77312">
        <ele>201</ele>
        <time>2016-10-04T10:29:15Z</time>
      </trkpt>
      <trkpt lat="46.09639" lon="4.77317">
        <ele>201</ele>
        <time>2016-10-04T10:29:16Z</time>
      </trkpt>
      <trkpt lat="46.09635" lon="4.77326">
        <ele>201</ele>
        <time>2016-10-04T10:29:18Z</time>
      </trkpt>
      <trkpt lat="46.09633" lon="4.7733">
        <ele>201</ele>
        <time>2016-10-04T10:29:19Z</time>
      </trkpt>
      <trkpt lat="46.09628" lon="4.77338">
        <ele>203</ele>
        <time>2016-10-04T10:29:21Z</time>
      </trkpt>
      <trkpt lat="46.09626" lon="4.77342">
        <ele>203</ele>
        <time>2016-10-04T10:29:22Z</time>
      </trkpt>
      <trkpt lat="46.09621" lon="4.7735">
        <ele>204</ele>
        <time>2016-10-04T10:29:24Z</time>
      </trkpt>
      <trkpt lat="46.09619" lon="4.77354">
        <ele>204</ele>
        <time>2016-10-04T10:29:25Z</time>
      </trkpt>
      <trkpt lat="46.09616" lon="4.77363">
        <ele>204</ele>
        <time>2016-10-04T10:29:27Z</time>
      </trkpt>
      <trkpt lat="46.09614" lon="4.77367">
        <ele>204</ele>
        <time>2016-10-04T10:29:28Z</time>
      </trkpt>
      <trkpt lat="46.0961" lon="4.77375">
        <ele>204</ele>
        <time>2016-10-04T10:29:30Z</time>
      </trkpt>
      <trkpt lat="46.09609" lon="4.77379">
        <ele>204</ele>
        <time>2016-10-04T10:29:31Z</time>
      </trkpt>
      <trkpt lat="46.09603" lon="4.77389">
        <ele>205</ele>
        <time>2016-10-04T10:29:34Z</time>
      </trkpt>
      <trkpt lat="46.09602" lon="4.77393">
        <ele>205</ele>
        <time>2016-10-04T10:29:35Z</time>
      </trkpt>
      <trkpt lat="46.09598" lon="4.774">
        <ele>205</ele>
        <time>2016-10-04T10:29:37Z</time>
      </trkpt>
      <trkpt lat="46.09595" lon="4.77404">
        <ele>205</ele>
        <time>2016-10-04T10:29:38Z</time>
      </trkpt>
      <trkpt lat="46.09591" lon="4.77412">
        <ele>206</ele>
        <time>2016-10-04T10:29:40Z</time>
      </trkpt>
      <trkpt lat="46.09589" lon="4.77416">
        <ele>206</ele>
        <time>2016-10-04T10:29:41Z</time>
      </trkpt>
      <trkpt lat="46.09585" lon="4.77425">
        <ele>207</ele>
        <time>2016-10-04T10:29:43Z</time>
      </trkpt>
      <trkpt lat="46.09583" lon="4.7743">
        <ele>209</ele>
        <time>2016-10-04T10:29:44Z</time>
      </trkpt>
      <trkpt lat="46.09579" lon="4.77438">
        <ele>210</ele>
        <time>2016-10-04T10:29:46Z</time>
      </trkpt>
      <trkpt lat="46.09577" lon="4.77441">
        <ele>210</ele>
        <time>2016-10-04T10:29:47Z</time>
      </trkpt>
      <trkpt lat="46.09572" lon="4.77451">
        <ele>211</ele>
        <time>2016-10-04T10:29:50Z</time>
      </trkpt>
      <trkpt lat="46.0957" lon="4.77454">
        <ele>211</ele>
        <time>2016-10-04T10:29:51Z</time>
      </trkpt>
      <trkpt lat="46.09565" lon="4.77462">
        <ele>212</ele>
        <time>2016-10-04T10:29:53Z</time>
      </trkpt>
      <trkpt lat="46.09563" lon="4.77466">
        <ele>212</ele>
        <time>2016-10-04T10:29:54Z</time>
      </trkpt>
      <trkpt lat="46.0956" lon="4.77474">
        <ele>212</ele>
        <time>2016-10-04T10:29:56Z</time>
      </trkpt>
      <trkpt lat="46.09559" lon="4.77478">
        <ele>212</ele>
        <time>2016-10-04T10:29:57Z</time>
      </trkpt>
      <trkpt lat="46.09555" lon="4.77489">
        <ele>212</ele>
        <time>2016-10-04T10:30:00Z</time>
      </trkpt>
      <trkpt lat="46.09554" lon="4.77493">
        <ele>212</ele>
        <time>2016-10-04T10:30:01Z</time>
      </trkpt>
      <trkpt lat="46.09547" lon="4.775">
        <ele>214</ele>
        <time>2016-10-04T10:30:04Z</time>
      </trkpt>
      <trkpt lat="46.09546" lon="4.77504">
        <ele>214</ele>
        <time>2016-10-04T10:30:05Z</time>
      </trkpt>
      <trkpt lat="46.09543" lon="4.77516">
        <ele>215</ele>
        <time>2016-10-04T10:30:08Z</time>
      </trkpt>
      <trkpt lat="46.09541" lon="4.7752">
        <ele>215</ele>
        <time>2016-10-04T10:30:09Z</time>
      </trkpt>
      <trkpt lat="46.09537" lon="4.77527">
        <ele>215</ele>
        <time>2016-10-04T10:30:11Z</time>
      </trkpt>
      <trkpt lat="46.09535" lon="4.77531">
        <ele>215</ele>
        <time>2016-10-04T10:30:12Z</time>
      </trkpt>
      <trkpt lat="46.09531" lon="4.77538">
        <ele>215</ele>
        <time>2016-10-04T10:30:14Z</time>
      </trkpt>
      <trkpt lat="46.09529" lon="4.77542">
        <ele>216</ele>
        <time>2016-10-04T10:30:15Z</time>
      </trkpt>
      <trkpt lat="46.09525" lon="4.77553">
        <ele>216</ele>
        <time>2016-10-04T10:30:18Z</time>
      </trkpt>
      <trkpt lat="46.09523" lon="4.77558">
        <ele>216</ele>
        <time>2016-10-04T10:30:19Z</time>
      </trkpt>
      <trkpt lat="46.0952" lon="4.77566">
        <ele>216</ele>
        <time>2016-10-04T10:30:21Z</time>
      </trkpt>
      <trkpt lat="46.09518" lon="4.7757">
        <ele>216</ele>
        <time>2016-10-04T10:30:22Z</time>
      </trkpt>
      <trkpt lat="46.09513" lon="4.77577">
        <ele>217</ele>
        <time>2016-10-04T10:30:24Z</time>
      </trkpt>
      <trkpt lat="46.09511" lon="4.77581">
        <ele>217</ele>
        <time>2016-10-04T10:30:25Z</time>
      </trkpt>
      <trkpt lat="46.09506" lon="4.77588">
        <ele>217</ele>
        <time>2016-10-04T10:30:27Z</time>
      </trkpt>
      <trkpt lat="46.09504" lon="4.77592">
        <ele>217</ele>
        <time>2016-10-04T10:30:28Z</time>
      </trkpt>
      <trkpt lat="46.095" lon="4.77599">
        <ele>217</ele>
        <time>2016-10-04T10:30:30Z</time>
      </trkpt>
      <trkpt lat="46.09497" lon="4.77603">
        <ele>217</ele>
        <time>2016-10-04T10:30:31Z</time>
      </trkpt>
      <trkpt lat="46.09492" lon="4.7761">
        <ele>217</ele>
        <time>2016-10-04T10:30:33Z</time>
      </trkpt>
      <trkpt lat="46.09489" lon="4.77614">
        <ele>217</ele>
        <time>2016-10-04T10:30:34Z</time>
      </trkpt>
      <trkpt lat="46.09486" lon="4.77622">
        <ele>217</ele>
        <time>2016-10-04T10:30:36Z</time>
      </trkpt>
      <trkpt lat="46.09484" lon="4.77626">
        <ele>217</ele>
        <time>2016-10-04T10:30:37Z</time>
      </trkpt>
      <trkpt lat="46.09481" lon="4.77633">
        <ele>217</ele>
        <time>2016-10-04T10:30:39Z</time>
      </trkpt>
      <trkpt lat="46.0948" lon="4.77638">
        <ele>216</ele>
        <time>2016-10-04T10:30:40Z</time>
      </trkpt>
      <trkpt lat="46.09476" lon="4.77647">
        <ele>216</ele>
        <time>2016-10-04T10:30:43Z</time>
      </trkpt>
      <trkpt lat="46.09474" lon="4.7765">
        <ele>216</ele>
        <time>2016-10-04T10:30:44Z</time>
      </trkpt>
      <trkpt lat="46.09468" lon="4.77659">
        <ele>216</ele>
        <time>2016-10-04T10:30:47Z</time>
      </trkpt>
      <trkpt lat="46.09466" lon="4.77662">
        <ele>216</ele>
        <time>2016-10-04T10:30:48Z</time>
      </trkpt>
      <trkpt lat="46.09461" lon="4.77668">
        <ele>216</ele>
        <time>2016-10-04T10:30:50Z</time>
      </trkpt>
      <trkpt lat="46.09459" lon="4.77672">
        <ele>216</ele>
        <time>2016-10-04T10:30:51Z</time>
      </trkpt>
      <trkpt lat="46.09454" lon="4.77681">
        <ele>216</ele>
        <time>2016-10-04T10:30:53Z</time>
      </trkpt>
      <trkpt lat="46.09453" lon="4.77685">
        <ele>216</ele>
        <time>2016-10-04T10:30:54Z</time>
      </trkpt>
      <trkpt lat="46.09448" lon="4.77693">
        <ele>216</ele>
        <time>2016-10-04T10:30:56Z</time>
      </trkpt>
      <trkpt lat="46.09447" lon="4.77697">
        <ele>216</ele>
        <time>2016-10-04T10:30:57Z</time>
      </trkpt>
      <trkpt lat="46.09443" lon="4.77705">
        <ele>216</ele>
        <time>2016-10-04T10:30:59Z</time>
      </trkpt>
      <trkpt lat="46.09442" lon="4.7771">
        <ele>216</ele>
        <time>2016-10-04T10:31:00Z</time>
      </trkpt>
      <trkpt lat="46.09439" lon="4.77718">
        <ele>216</ele>
        <time>2016-10-04T10:31:02Z</time>
      </trkpt>
      <trkpt lat="46.09437" lon="4.77722">
        <ele>216</ele>
        <time>2016-10-04T10:31:03Z</time>
      </trkpt>
      <trkpt lat="46.09433" lon="4.77729">
        <ele>217</ele>
        <time>2016-10-04T10:31:05Z</time>
      </trkpt>
      <trkpt lat="46.09431" lon="4.77734">
        <ele>217</ele>
        <time>2016-10-04T10:31:06Z</time>
      </trkpt>
      <trkpt lat="46.09429" lon="4.77743">
        <ele>217</ele>
        <time>2016-10-04T10:31:08Z</time>
      </trkpt>
      <trkpt lat="46.09428" lon="4.77748">
        <ele>217</ele>
        <time>2016-10-04T10:31:09Z</time>
      </trkpt>
      <trkpt lat="46.09426" lon="4.77758">
        <ele>218</ele>
        <time>2016-10-04T10:31:11Z</time>
      </trkpt>
      <trkpt lat="46.09425" lon="4.77762">
        <ele>218</ele>
        <time>2016-10-04T10:31:12Z</time>
      </trkpt>
      <trkpt lat="46.09422" lon="4.77771">
        <ele>218</ele>
        <time>2016-10-04T10:31:14Z</time>
      </trkpt>
      <trkpt lat="46.09421" lon="4.77775">
        <ele>218</ele>
        <time>2016-10-04T10:31:15Z</time>
      </trkpt>
      <trkpt lat="46.09417" lon="4.77783">
        <ele>218</ele>
        <time>2016-10-04T10:31:17Z</time>
      </trkpt>
      <trkpt lat="46.09416" lon="4.77788">
        <ele>220</ele>
        <time>2016-10-04T10:31:18Z</time>
      </trkpt>
      <trkpt lat="46.09412" lon="4.77796">
        <ele>220</ele>
        <time>2016-10-04T10:31:20Z</time>
      </trkpt>
      <trkpt lat="46.09411" lon="4.77802">
        <ele>220</ele>
        <time>2016-10-04T10:31:21Z</time>
      </trkpt>
      <trkpt lat="46.09408" lon="4.77812">
        <ele>220</ele>
        <time>2016-10-04T10:31:23Z</time>
      </trkpt>
      <trkpt lat="46.09407" lon="4.77817">
        <ele>220</ele>
        <time>2016-10-04T10:31:24Z</time>
      </trkpt>
      <trkpt lat="46.09406" lon="4.77827">
        <ele>220</ele>
        <time>2016-10-04T10:31:26Z</time>
      </trkpt>
      <trkpt lat="46.09404" lon="4.77831">
        <ele>220</ele>
        <time>2016-10-04T10:31:27Z</time>
      </trkpt>
      <trkpt lat="46.09402" lon="4.77841">
        <ele>221</ele>
        <time>2016-10-04T10:31:29Z</time>
      </trkpt>
      <trkpt lat="46.094" lon="4.77847">
        <ele>222</ele>
        <time>2016-10-04T10:31:30Z</time>
      </trkpt>
      <trkpt lat="46.09398" lon="4.77858">
        <ele>222</ele>
        <time>2016-10-04T10:31:32Z</time>
      </trkpt>
      <trkpt lat="46.09397" lon="4.77863">
        <ele>222</ele>
        <time>2016-10-04T10:31:33Z</time>
      </trkpt>
      <trkpt lat="46.09394" lon="4.77873">
        <ele>222</ele>
        <time>2016-10-04T10:31:35Z</time>
      </trkpt>
      <trkpt lat="46.09393" lon="4.77879">
        <ele>223</ele>
        <time>2016-10-04T10:31:36Z</time>
      </trkpt>
      <trkpt lat="46.09391" lon="4.77889">
        <ele>223</ele>
        <time>2016-10-04T10:31:38Z</time>
      </trkpt>
      <trkpt lat="46.0939" lon="4.77894">
        <ele>223</ele>
        <time>2016-10-04T10:31:39Z</time>
      </trkpt>
      <trkpt lat="46.09388" lon="4.77904">
        <ele>223</ele>
        <time>2016-10-04T10:31:41Z</time>
      </trkpt>
      <trkpt lat="46.09386" lon="4.77909">
        <ele>223</ele>
        <time>2016-10-04T10:31:42Z</time>
      </trkpt>
      <trkpt lat="46.09384" lon="4.77919">
        <ele>224</ele>
        <time>2016-10-04T10:31:44Z</time>
      </trkpt>
      <trkpt lat="46.09382" lon="4.77924">
        <ele>224</ele>
        <time>2016-10-04T10:31:45Z</time>
      </trkpt>
      <trkpt lat="46.09379" lon="4.77934">
        <ele>224</ele>
        <time>2016-10-04T10:31:47Z</time>
      </trkpt>
      <trkpt lat="46.09378" lon="4.77939">
        <ele>224</ele>
        <time>2016-10-04T10:31:48Z</time>
      </trkpt>
      <trkpt lat="46.09375" lon="4.77948">
        <ele>224</ele>
        <time>2016-10-04T10:31:50Z</time>
      </trkpt>
      <trkpt lat="46.09374" lon="4.77953">
        <ele>224</ele>
        <time>2016-10-04T10:31:51Z</time>
      </trkpt>
      <trkpt lat="46.09373" lon="4.77962">
        <ele>224</ele>
        <time>2016-10-04T10:31:53Z</time>
      </trkpt>
      <trkpt lat="46.09372" lon="4.77967">
        <ele>224</ele>
        <time>2016-10-04T10:31:54Z</time>
      </trkpt>
      <trkpt lat="46.0937" lon="4.77977">
        <ele>224</ele>
        <time>2016-10-04T10:31:56Z</time>
      </trkpt>
      <trkpt lat="46.09369" lon="4.77983">
        <ele>224</ele>
        <time>2016-10-04T10:31:57Z</time>
      </trkpt>
      <trkpt lat="46.09367" lon="4.77992">
        <ele>224</ele>
        <time>2016-10-04T10:31:59Z</time>
      </trkpt>
      <trkpt lat="46.09366" lon="4.77997">
        <ele>224</ele>
        <time>2016-10-04T10:32:00Z</time>
      </trkpt>
      <trkpt lat="46.09364" lon="4.78007">
        <ele>225</ele>
        <time>2016-10-04T10:32:02Z</time>
      </trkpt>
      <trkpt lat="46.09363" lon="4.78012">
        <ele>225</ele>
        <time>2016-10-04T10:32:03Z</time>
      </trkpt>
      <trkpt lat="46.09361" lon="4.78022">
        <ele>225</ele>
        <time>2016-10-04T10:32:05Z</time>
      </trkpt>
      <trkpt lat="46.0936" lon="4.78027">
        <ele>225</ele>
        <time>2016-10-04T10:32:06Z</time>
      </trkpt>
      <trkpt lat="46.09356" lon="4.78037">
        <ele>225</ele>
        <time>2016-10-04T10:32:08Z</time>
      </trkpt>
      <trkpt lat="46.09355" lon="4.78042">
        <ele>225</ele>
        <time>2016-10-04T10:32:09Z</time>
      </trkpt>
      <trkpt lat="46.09352" lon="4.78052">
        <ele>225</ele>
        <time>2016-10-04T10:32:11Z</time>
      </trkpt>
      <trkpt lat="46.0935" lon="4.78057">
        <ele>225</ele>
        <time>2016-10-04T10:32:12Z</time>
      </trkpt>
      <trkpt lat="46.09348" lon="4.78069">
        <ele>226</ele>
        <time>2016-10-04T10:32:14Z</time>
      </trkpt>
      <trkpt lat="46.09346" lon="4.78074">
        <ele>226</ele>
        <time>2016-10-04T10:32:15Z</time>
      </trkpt>
      <trkpt lat="46.09344" lon="4.78085">
        <ele>226</ele>
        <time>2016-10-04T10:32:17Z</time>
      </trkpt>
      <trkpt lat="46.09342" lon="4.78091">
        <ele>226</ele>
        <time>2016-10-04T10:32:18Z</time>
      </trkpt>
      <trkpt lat="46.09339" lon="4.78101">
        <ele>226</ele>
        <time>2016-10-04T10:32:20Z</time>
      </trkpt>
      <trkpt lat="46.09337" lon="4.78106">
        <ele>226</ele>
        <time>2016-10-04T10:32:21Z</time>
      </trkpt>
      <trkpt lat="46.09334" lon="4.78118">
        <ele>225</ele>
        <time>2016-10-04T10:32:23Z</time>
      </trkpt>
      <trkpt lat="46.09333" lon="4.78124">
        <ele>227</ele>
        <time>2016-10-04T10:32:24Z</time>
      </trkpt>
      <trkpt lat="46.0933" lon="4.78134">
        <ele>227</ele>
        <time>2016-10-04T10:32:26Z</time>
      </trkpt>
      <trkpt lat="46.09328" lon="4.78139">
        <ele>227</ele>
        <time>2016-10-04T10:32:27Z</time>
      </trkpt>
      <trkpt lat="46.09325" lon="4.7815">
        <ele>226</ele>
        <time>2016-10-04T10:32:29Z</time>
      </trkpt>
      <trkpt lat="46.09324" lon="4.78155">
        <ele>226</ele>
        <time>2016-10-04T10:32:30Z</time>
      </trkpt>
      <trkpt lat="46.0932" lon="4.78166">
        <ele>226</ele>
        <time>2016-10-04T10:32:32Z</time>
      </trkpt>
      <trkpt lat="46.09319" lon="4.78172">
        <ele>226</ele>
        <time>2016-10-04T10:32:33Z</time>
      </trkpt>
      <trkpt lat="46.09316" lon="4.78183">
        <ele>226</ele>
        <time>2016-10-04T10:32:35Z</time>
      </trkpt>
      <trkpt lat="46.09315" lon="4.78189">
        <ele>226</ele>
        <time>2016-10-04T10:32:36Z</time>
      </trkpt>
      <trkpt lat="46.09311" lon="4.78199">
        <ele>226</ele>
        <time>2016-10-04T10:32:38Z</time>
      </trkpt>
      <trkpt lat="46.0931" lon="4.78204">
        <ele>226</ele>
        <time>2016-10-04T10:32:39Z</time>
      </trkpt>
      <trkpt lat="46.09306" lon="4.78215">
        <ele>226</ele>
        <time>2016-10-04T10:32:41Z</time>
      </trkpt>
      <trkpt lat="46.09305" lon="4.78222">
        <ele>226</ele>
        <time>2016-10-04T10:32:42Z</time>
      </trkpt>
      <trkpt lat="46.09303" lon="4.78229">
        <ele>226</ele>
        <time>2016-10-04T10:32:43Z</time>
      </trkpt>
      <trkpt lat="46.09301" lon="4.78236">
        <ele>226</ele>
        <time>2016-10-04T10:32:44Z</time>
      </trkpt>
      <trkpt lat="46.09299" lon="4.78248">
        <ele>226</ele>
        <time>2016-10-04T10:32:46Z</time>
      </trkpt>
      <trkpt lat="46.09298" lon="4.78253">
        <ele>227</ele>
        <time>2016-10-04T10:32:47Z</time>
      </trkpt>
      <trkpt lat="46.09295" lon="4.78264">
        <ele>227</ele>
        <time>2016-10-04T10:32:49Z</time>
      </trkpt>
      <trkpt lat="46.09294" lon="4.78269">
        <ele>227</ele>
        <time>2016-10-04T10:32:50Z</time>
      </trkpt>
      <trkpt lat="46.0929" lon="4.78279">
        <ele>227</ele>
        <time>2016-10-04T10:32:52Z</time>
      </trkpt>
      <trkpt lat="46.09288" lon="4.78284">
        <ele>227</ele>
        <time>2016-10-04T10:32:53Z</time>
      </trkpt>
      <trkpt lat="46.09284" lon="4.78295">
        <ele>227</ele>
        <time>2016-10-04T10:32:55Z</time>
      </trkpt>
      <trkpt lat="46.09282" lon="4.783">
        <ele>227</ele>
        <time>2016-10-04T10:32:56Z</time>
      </trkpt>
      <trkpt lat="46.0928" lon="4.78306">
        <ele>227</ele>
        <time>2016-10-04T10:32:57Z</time>
      </trkpt>
      <trkpt lat="46.09278" lon="4.78312">
        <ele>227</ele>
        <time>2016-10-04T10:32:58Z</time>
      </trkpt>
      <trkpt lat="46.09276" lon="4.78318">
        <ele>227</ele>
        <time>2016-10-04T10:32:59Z</time>
      </trkpt>
      <trkpt lat="46.09274" lon="4.78324">
        <ele>227</ele>
        <time>2016-10-04T10:33:00Z</time>
      </trkpt>
      <trkpt lat="46.0927" lon="4.78335">
        <ele>227</ele>
        <time>2016-10-04T10:33:02Z</time>
      </trkpt>
      <trkpt lat="46.09268" lon="4.7834">
        <ele>227</ele>
        <time>2016-10-04T10:33:03Z</time>
      </trkpt>
      <trkpt lat="46.09264" lon="4.7835">
        <ele>227</ele>
        <time>2016-10-04T10:33:05Z</time>
      </trkpt>
      <trkpt lat="46.09261" lon="4.78355">
        <ele>227</ele>
        <time>2016-10-04T10:33:06Z</time>
      </trkpt>
      <trkpt lat="46.09257" lon="4.78366">
        <ele>227</ele>
        <time>2016-10-04T10:33:08Z</time>
      </trkpt>
      <trkpt lat="46.09255" lon="4.78371">
        <ele>227</ele>
        <time>2016-10-04T10:33:09Z</time>
      </trkpt>
      <trkpt lat="46.0925" lon="4.7838">
        <ele>226</ele>
        <time>2016-10-04T10:33:11Z</time>
      </trkpt>
      <trkpt lat="46.09247" lon="4.78385">
        <ele>227</ele>
        <time>2016-10-04T10:33:12Z</time>
      </trkpt>
      <trkpt lat="46.09242" lon="4.78395">
        <ele>226</ele>
        <time>2016-10-04T10:33:14Z</time>
      </trkpt>
      <trkpt lat="46.0924" lon="4.784">
        <ele>226</ele>
        <time>2016-10-04T10:33:15Z</time>
      </trkpt>
      <trkpt lat="46.09238" lon="4.78406">
        <ele>226</ele>
        <time>2016-10-04T10:33:16Z</time>
      </trkpt>
      <trkpt lat="46.09235" lon="4.78411">
        <ele>226</ele>
        <time>2016-10-04T10:33:17Z</time>
      </trkpt>
      <trkpt lat="46.09231" lon="4.78416">
        <ele>226</ele>
        <time>2016-10-04T10:33:18Z</time>
      </trkpt>
      <trkpt lat="46.09228" lon="4.78421">
        <ele>227</ele>
        <time>2016-10-04T10:33:19Z</time>
      </trkpt>
      <trkpt lat="46.09226" lon="4.78427">
        <ele>227</ele>
        <time>2016-10-04T10:33:20Z</time>
      </trkpt>
      <trkpt lat="46.09223" lon="4.78432">
        <ele>227</ele>
        <time>2016-10-04T10:33:21Z</time>
      </trkpt>
      <trkpt lat="46.0922" lon="4.78437">
        <ele>227</ele>
        <time>2016-10-04T10:33:22Z</time>
      </trkpt>
      <trkpt lat="46.09218" lon="4.78442">
        <ele>227</ele>
        <time>2016-10-04T10:33:23Z</time>
      </trkpt>
      <trkpt lat="46.09212" lon="4.78453">
        <ele>227</ele>
        <time>2016-10-04T10:33:25Z</time>
      </trkpt>
      <trkpt lat="46.0921" lon="4.78458">
        <ele>227</ele>
        <time>2016-10-04T10:33:26Z</time>
      </trkpt>
      <trkpt lat="46.09205" lon="4.78468">
        <ele>228</ele>
        <time>2016-10-04T10:33:28Z</time>
      </trkpt>
      <trkpt lat="46.09202" lon="4.78473">
        <ele>228</ele>
        <time>2016-10-04T10:33:29Z</time>
      </trkpt>
      <trkpt lat="46.092" lon="4.78479">
        <ele>228</ele>
        <time>2016-10-04T10:33:30Z</time>
      </trkpt>
      <trkpt lat="46.09197" lon="4.78484">
        <ele>228</ele>
        <time>2016-10-04T10:33:31Z</time>
      </trkpt>
      <trkpt lat="46.09194" lon="4.7849">
        <ele>228</ele>
        <time>2016-10-04T10:33:32Z</time>
      </trkpt>
      <trkpt lat="46.09191" lon="4.78495">
        <ele>228</ele>
        <time>2016-10-04T10:33:33Z</time>
      </trkpt>
      <trkpt lat="46.09187" lon="4.78501">
        <ele>228</ele>
        <time>2016-10-04T10:33:34Z</time>
      </trkpt>
      <trkpt lat="46.09184" lon="4.78507">
        <ele>228</ele>
        <time>2016-10-04T10:33:35Z</time>
      </trkpt>
      <trkpt lat="46.09182" lon="4.78513">
        <ele>228</ele>
        <time>2016-10-04T10:33:36Z</time>
      </trkpt>
      <trkpt lat="46.09179" lon="4.78519">
        <ele>228</ele>
        <time>2016-10-04T10:33:37Z</time>
      </trkpt>
      <trkpt lat="46.09176" lon="4.78526">
        <ele>228</ele>
        <time>2016-10-04T10:33:38Z</time>
      </trkpt>
      <trkpt lat="46.09174" lon="4.78532">
        <ele>228</ele>
        <time>2016-10-04T10:33:39Z</time>
      </trkpt>
      <trkpt lat="46.09169" lon="4.78542">
        <ele>228</ele>
        <time>2016-10-04T10:33:41Z</time>
      </trkpt>
      <trkpt lat="46.09166" lon="4.78547">
        <ele>229</ele>
        <time>2016-10-04T10:33:42Z</time>
      </trkpt>
      <trkpt lat="46.09164" lon="4.78553">
        <ele>229</ele>
        <time>2016-10-04T10:33:43Z</time>
      </trkpt>
      <trkpt lat="46.09161" lon="4.78558">
        <ele>229</ele>
        <time>2016-10-04T10:33:44Z</time>
      </trkpt>
      <trkpt lat="46.09157" lon="4.78569">
        <ele>229</ele>
        <time>2016-10-04T10:33:46Z</time>
      </trkpt>
      <trkpt lat="46.09154" lon="4.78575">
        <ele>229</ele>
        <time>2016-10-04T10:33:47Z</time>
      </trkpt>
      <trkpt lat="46.09152" lon="4.78581">
        <ele>229</ele>
        <time>2016-10-04T10:33:48Z</time>
      </trkpt>
      <trkpt lat="46.09149" lon="4.78586">
        <ele>229</ele>
        <time>2016-10-04T10:33:49Z</time>
      </trkpt>
      <trkpt lat="46.09147" lon="4.78592">
        <ele>229</ele>
        <time>2016-10-04T10:33:50Z</time>
      </trkpt>
      <trkpt lat="46.09143" lon="4.78598">
        <ele>229</ele>
        <time>2016-10-04T10:33:51Z</time>
      </trkpt>
      <trkpt lat="46.0914" lon="4.78602">
        <ele>229</ele>
        <time>2016-10-04T10:33:52Z</time>
      </trkpt>
      <trkpt lat="46.09137" lon="4.78608">
        <ele>229</ele>
        <time>2016-10-04T10:33:53Z</time>
      </trkpt>
      <trkpt lat="46.09135" lon="4.78614">
        <ele>229</ele>
        <time>2016-10-04T10:33:54Z</time>
      </trkpt>
      <trkpt lat="46.09132" lon="4.78619">
        <ele>229</ele>
        <time>2016-10-04T10:33:55Z</time>
      </trkpt>
      <trkpt lat="46.09129" lon="4.78625">
        <ele>229</ele>
        <time>2016-10-04T10:33:56Z</time>
      </trkpt>
      <trkpt lat="46.09127" lon="4.7863">
        <ele>229</ele>
        <time>2016-10-04T10:33:57Z</time>
      </trkpt>
      <trkpt lat="46.09122" lon="4.78641">
        <ele>230</ele>
        <time>2016-10-04T10:33:59Z</time>
      </trkpt>
      <trkpt lat="46.0912" lon="4.78646">
        <ele>230</ele>
        <time>2016-10-04T10:34:00Z</time>
      </trkpt>
      <trkpt lat="46.09117" lon="4.78651">
        <ele>230</ele>
        <time>2016-10-04T10:34:01Z</time>
      </trkpt>
      <trkpt lat="46.09115" lon="4.78657">
        <ele>230</ele>
        <time>2016-10-04T10:34:02Z</time>
      </trkpt>
      <trkpt lat="46.09112" lon="4.78663">
        <ele>230</ele>
        <time>2016-10-04T10:34:03Z</time>
      </trkpt>
      <trkpt lat="46.09109" lon="4.78669">
        <ele>230</ele>
        <time>2016-10-04T10:34:04Z</time>
      </trkpt>
      <trkpt lat="46.09106" lon="4.78675">
        <ele>230</ele>
        <time>2016-10-04T10:34:05Z</time>
      </trkpt>
      <trkpt lat="46.09103" lon="4.78681">
        <ele>230</ele>
        <time>2016-10-04T10:34:06Z</time>
      </trkpt>
      <trkpt lat="46.091" lon="4.78687">
        <ele>230</ele>
        <time>2016-10-04T10:34:07Z</time>
      </trkpt>
      <trkpt lat="46.09098" lon="4.78692">
        <ele>230</ele>
        <time>2016-10-04T10:34:08Z</time>
      </trkpt>
      <trkpt lat="46.09093" lon="4.78703">
        <ele>230</ele>
        <time>2016-10-04T10:34:10Z</time>
      </trkpt>
      <trkpt lat="46.0909" lon="4.78708">
        <ele>230</ele>
        <time>2016-10-04T10:34:11Z</time>
      </trkpt>
      <trkpt lat="46.09087" lon="4.78713">
        <ele>229</ele>
        <time>2016-10-04T10:34:12Z</time>
      </trkpt>
      <trkpt lat="46.09084" lon="4.78718">
        <ele>229</ele>
        <time>2016-10-04T10:34:13Z</time>
      </trkpt>
      <trkpt lat="46.09082" lon="4.78723">
        <ele>230</ele>
        <time>2016-10-04T10:34:14Z</time>
      </trkpt>
      <trkpt lat="46.09079" lon="4.78729">
        <ele>230</ele>
        <time>2016-10-04T10:34:15Z</time>
      </trkpt>
      <trkpt lat="46.09077" lon="4.78734">
        <ele>230</ele>
        <time>2016-10-04T10:34:16Z</time>
      </trkpt>
      <trkpt lat="46.09074" lon="4.7874">
        <ele>229</ele>
        <time>2016-10-04T10:34:17Z</time>
      </trkpt>
      <trkpt lat="46.09071" lon="4.78745">
        <ele>229</ele>
        <time>2016-10-04T10:34:18Z</time>
      </trkpt>
      <trkpt lat="46.09068" lon="4.78751">
        <ele>229</ele>
        <time>2016-10-04T10:34:19Z</time>
      </trkpt>
      <trkpt lat="46.09065" lon="4.78757">
        <ele>230</ele>
        <time>2016-10-04T10:34:20Z</time>
      </trkpt>
      <trkpt lat="46.09062" lon="4.78762">
        <ele>230</ele>
        <time>2016-10-04T10:34:21Z</time>
      </trkpt>
      <trkpt lat="46.09059" lon="4.78768">
        <ele>230</ele>
        <time>2016-10-04T10:34:22Z</time>
      </trkpt>
      <trkpt lat="46.09055" lon="4.78774">
        <ele>230</ele>
        <time>2016-10-04T10:34:23Z</time>
      </trkpt>
      <trkpt lat="46.09052" lon="4.7878">
        <ele>230</ele>
        <time>2016-10-04T10:34:24Z</time>
      </trkpt>
      <trkpt lat="46.09049" lon="4.78786">
        <ele>230</ele>
        <time>2016-10-04T10:34:25Z</time>
      </trkpt>
      <trkpt lat="46.09044" lon="4.78796">
        <ele>230</ele>
        <time>2016-10-04T10:34:27Z</time>
      </trkpt>
      <trkpt lat="46.09042" lon="4.78801">
        <ele>230</ele>
        <time>2016-10-04T10:34:28Z</time>
      </trkpt>
      <trkpt lat="46.09039" lon="4.78806">
        <ele>230</ele>
        <time>2016-10-04T10:34:29Z</time>
      </trkpt>
      <trkpt lat="46.09036" lon="4.78812">
        <ele>230</ele>
        <time>2016-10-04T10:34:30Z</time>
      </trkpt>
      <trkpt lat="46.09033" lon="4.78818">
        <ele>230</ele>
        <time>2016-10-04T10:34:31Z</time>
      </trkpt>
      <trkpt lat="46.0903" lon="4.78824">
        <ele>230</ele>
        <time>2016-10-04T10:34:32Z</time>
      </trkpt>
      <trkpt lat="46.09027" lon="4.7883">
        <ele>230</ele>
        <time>2016-10-04T10:34:33Z</time>
      </trkpt>
      <trkpt lat="46.09024" lon="4.78835">
        <ele>230</ele>
        <time>2016-10-04T10:34:34Z</time>
      </trkpt>
      <trkpt lat="46.09021" lon="4.78841">
        <ele>230</ele>
        <time>2016-10-04T10:34:35Z</time>
      </trkpt>
      <trkpt lat="46.09019" lon="4.78846">
        <ele>230</ele>
        <time>2016-10-04T10:34:36Z</time>
      </trkpt>
      <trkpt lat="46.09014" lon="4.78855">
        <ele>230</ele>
        <time>2016-10-04T10:34:38Z</time>
      </trkpt>
      <trkpt lat="46.09011" lon="4.78861">
        <ele>230</ele>
        <time>2016-10-04T10:34:39Z</time>
      </trkpt>
      <trkpt lat="46.09006" lon="4.78871">
        <ele>230</ele>
        <time>2016-10-04T10:34:41Z</time>
      </trkpt>
      <trkpt lat="46.09004" lon="4.78876">
        <ele>230</ele>
        <time>2016-10-04T10:34:42Z</time>
      </trkpt>
      <trkpt lat="46.09002" lon="4.78882">
        <ele>230</ele>
        <time>2016-10-04T10:34:43Z</time>
      </trkpt>
      <trkpt lat="46.08999" lon="4.78889">
        <ele>232</ele>
        <time>2016-10-04T10:34:44Z</time>
      </trkpt>
      <trkpt lat="46.08996" lon="4.78896">
        <ele>232</ele>
        <time>2016-10-04T10:34:45Z</time>
      </trkpt>
      <trkpt lat="46.08993" lon="4.78903">
        <ele>232</ele>
        <time>2016-10-04T10:34:46Z</time>
      </trkpt>
      <trkpt lat="46.0899" lon="4.7891">
        <ele>231</ele>
        <time>2016-10-04T10:34:47Z</time>
      </trkpt>
      <trkpt lat="46.08987" lon="4.78918">
        <ele>231</ele>
        <time>2016-10-04T10:34:48Z</time>
      </trkpt>
      <trkpt lat="46.08985" lon="4.78925">
        <ele>231</ele>
        <time>2016-10-04T10:34:49Z</time>
      </trkpt>
      <trkpt lat="46.08983" lon="4.78932">
        <ele>232</ele>
        <time>2016-10-04T10:34:50Z</time>
      </trkpt>
      <trkpt lat="46.0898" lon="4.7894">
        <ele>232</ele>
        <time>2016-10-04T10:34:51Z</time>
      </trkpt>
      <trkpt lat="46.08978" lon="4.78946">
        <ele>232</ele>
        <time>2016-10-04T10:34:52Z</time>
      </trkpt>
      <trkpt lat="46.08975" lon="4.78954">
        <ele>232</ele>
        <time>2016-10-04T10:34:53Z</time>
      </trkpt>
      <trkpt lat="46.08972" lon="4.78961">
        <ele>232</ele>
        <time>2016-10-04T10:34:54Z</time>
      </trkpt>
      <trkpt lat="46.0897" lon="4.78968">
        <ele>232</ele>
        <time>2016-10-04T10:34:55Z</time>
      </trkpt>
      <trkpt lat="46.08967" lon="4.78975">
        <ele>232</ele>
        <time>2016-10-04T10:34:56Z</time>
      </trkpt>
      <trkpt lat="46.08964" lon="4.78983">
        <ele>232</ele>
        <time>2016-10-04T10:34:57Z</time>
      </trkpt>
      <trkpt lat="46.08962" lon="4.78991">
        <ele>232</ele>
        <time>2016-10-04T10:34:58Z</time>
      </trkpt>
      <trkpt lat="46.0896" lon="4.78999">
        <ele>232</ele>
        <time>2016-10-04T10:34:59Z</time>
      </trkpt>
      <trkpt lat="46.08957" lon="4.79006">
        <ele>231</ele>
        <time>2016-10-04T10:35:00Z</time>
      </trkpt>
      <trkpt lat="46.08955" lon="4.79013">
        <ele>231</ele>
        <time>2016-10-04T10:35:01Z</time>
      </trkpt>
      <trkpt lat="46.08952" lon="4.79019">
        <ele>231</ele>
        <time>2016-10-04T10:35:02Z</time>
      </trkpt>
      <trkpt lat="46.08949" lon="4.79026">
        <ele>231</ele>
        <time>2016-10-04T10:35:03Z</time>
      </trkpt>
      <trkpt lat="46.08947" lon="4.79032">
        <ele>231</ele>
        <time>2016-10-04T10:35:04Z</time>
      </trkpt>
      <trkpt lat="46.08944" lon="4.79038">
        <ele>231</ele>
        <time>2016-10-04T10:35:05Z</time>
      </trkpt>
      <trkpt lat="46.08941" lon="4.79043">
        <ele>232</ele>
        <time>2016-10-04T10:35:06Z</time>
      </trkpt>
      <trkpt lat="46.0894" lon="4.79049">
        <ele>232</ele>
        <time>2016-10-04T10:35:07Z</time>
      </trkpt>
      <trkpt lat="46.08936" lon="4.79056">
        <ele>232</ele>
        <time>2016-10-04T10:35:08Z</time>
      </trkpt>
      <trkpt lat="46.08932" lon="4.79062">
        <ele>232</ele>
        <time>2016-10-04T10:35:09Z</time>
      </trkpt>
      <trkpt lat="46.08928" lon="4.7907">
        <ele>232</ele>
        <time>2016-10-04T10:35:10Z</time>
      </trkpt>
      <trkpt lat="46.08924" lon="4.79077">
        <ele>232</ele>
        <time>2016-10-04T10:35:11Z</time>
      </trkpt>
      <trkpt lat="46.0892" lon="4.79085">
        <ele>232</ele>
        <time>2016-10-04T10:35:12Z</time>
      </trkpt>
      <trkpt lat="46.08917" lon="4.79092">
        <ele>232</ele>
        <time>2016-10-04T10:35:13Z</time>
      </trkpt>
      <trkpt lat="46.08914" lon="4.79099">
        <ele>232</ele>
        <time>2016-10-04T10:35:14Z</time>
      </trkpt>
      <trkpt lat="46.0891" lon="4.79106">
        <ele>231</ele>
        <time>2016-10-04T10:35:15Z</time>
      </trkpt>
      <trkpt lat="46.08907" lon="4.79113">
        <ele>231</ele>
        <time>2016-10-04T10:35:16Z</time>
      </trkpt>
      <trkpt lat="46.08903" lon="4.79119">
        <ele>231</ele>
        <time>2016-10-04T10:35:17Z</time>
      </trkpt>
      <trkpt lat="46.089" lon="4.79125">
        <ele>231</ele>
        <time>2016-10-04T10:35:18Z</time>
      </trkpt>
      <trkpt lat="46.08896" lon="4.79131">
        <ele>231</ele>
        <time>2016-10-04T10:35:19Z</time>
      </trkpt>
      <trkpt lat="46.08893" lon="4.79136">
        <ele>231</ele>
        <time>2016-10-04T10:35:20Z</time>
      </trkpt>
      <trkpt lat="46.0889" lon="4.79142">
        <ele>231</ele>
        <time>2016-10-04T10:35:21Z</time>
      </trkpt>
      <trkpt lat="46.08886" lon="4.79147">
        <ele>231</ele>
        <time>2016-10-04T10:35:22Z</time>
      </trkpt>
      <trkpt lat="46.08883" lon="4.79152">
        <ele>231</ele>
        <time>2016-10-04T10:35:23Z</time>
      </trkpt>
      <trkpt lat="46.08879" lon="4.79158">
        <ele>231</ele>
        <time>2016-10-04T10:35:24Z</time>
      </trkpt>
      <trkpt lat="46.08875" lon="4.79164">
        <ele>231</ele>
        <time>2016-10-04T10:35:25Z</time>
      </trkpt>
      <trkpt lat="46.08871" lon="4.79171">
        <ele>231</ele>
        <time>2016-10-04T10:35:26Z</time>
      </trkpt>
      <trkpt lat="46.08867" lon="4.79179">
        <ele>231</ele>
        <time>2016-10-04T10:35:27Z</time>
      </trkpt>
      <trkpt lat="46.08863" lon="4.79187">
        <ele>231</ele>
        <time>2016-10-04T10:35:28Z</time>
      </trkpt>
      <trkpt lat="46.08858" lon="4.79194">
        <ele>231</ele>
        <time>2016-10-04T10:35:29Z</time>
      </trkpt>
      <trkpt lat="46.08854" lon="4.792">
        <ele>231</ele>
        <time>2016-10-04T10:35:30Z</time>
      </trkpt>
      <trkpt lat="46.08849" lon="4.79205">
        <ele>231</ele>
        <time>2016-10-04T10:35:31Z</time>
      </trkpt>
      <trkpt lat="46.08845" lon="4.79211">
        <ele>231</ele>
        <time>2016-10-04T10:35:32Z</time>
      </trkpt>
      <trkpt lat="46.08841" lon="4.79216">
        <ele>231</ele>
        <time>2016-10-04T10:35:33Z</time>
      </trkpt>
      <trkpt lat="46.08836" lon="4.7922">
        <ele>231</ele>
        <time>2016-10-04T10:35:34Z</time>
      </trkpt>
      <trkpt lat="46.08832" lon="4.79225">
        <ele>231</ele>
        <time>2016-10-04T10:35:35Z</time>
      </trkpt>
      <trkpt lat="46.08827" lon="4.79229">
        <ele>231</ele>
        <time>2016-10-04T10:35:36Z</time>
      </trkpt>
      <trkpt lat="46.08823" lon="4.79233">
        <ele>231</ele>
        <time>2016-10-04T10:35:37Z</time>
      </trkpt>
      <trkpt lat="46.08819" lon="4.79237">
        <ele>231</ele>
        <time>2016-10-04T10:35:38Z</time>
      </trkpt>
      <trkpt lat="46.08814" lon="4.79241">
        <ele>231</ele>
        <time>2016-10-04T10:35:39Z</time>
      </trkpt>
      <trkpt lat="46.0881" lon="4.79245">
        <ele>231</ele>
        <time>2016-10-04T10:35:40Z</time>
      </trkpt>
      <trkpt lat="46.08805" lon="4.79248">
        <ele>231</ele>
        <time>2016-10-04T10:35:41Z</time>
      </trkpt>
      <trkpt lat="46.08801" lon="4.79252">
        <ele>231</ele>
        <time>2016-10-04T10:35:42Z</time>
      </trkpt>
      <trkpt lat="46.08797" lon="4.79256">
        <ele>231</ele>
        <time>2016-10-04T10:35:43Z</time>
      </trkpt>
      <trkpt lat="46.08792" lon="4.7926">
        <ele>231</ele>
        <time>2016-10-04T10:35:44Z</time>
      </trkpt>
      <trkpt lat="46.08787" lon="4.79264">
        <ele>231</ele>
        <time>2016-10-04T10:35:45Z</time>
      </trkpt>
      <trkpt lat="46.08782" lon="4.79268">
        <ele>231</ele>
        <time>2016-10-04T10:35:46Z</time>
      </trkpt>
      <trkpt lat="46.08778" lon="4.79272">
        <ele>231</ele>
        <time>2016-10-04T10:35:47Z</time>
      </trkpt>
      <trkpt lat="46.08772" lon="4.79277">
        <ele>231</ele>
        <time>2016-10-04T10:35:48Z</time>
      </trkpt>
      <trkpt lat="46.08767" lon="4.79283">
        <ele>231</ele>
        <time>2016-10-04T10:35:49Z</time>
      </trkpt>
      <trkpt lat="46.08762" lon="4.79287">
        <ele>231</ele>
        <time>2016-10-04T10:35:50Z</time>
      </trkpt>
      <trkpt lat="46.08757" lon="4.79292">
        <ele>231</ele>
        <time>2016-10-04T10:35:51Z</time>
      </trkpt>
      <trkpt lat="46.08752" lon="4.79297">
        <ele>231</ele>
        <time>2016-10-04T10:35:52Z</time>
      </trkpt>
      <trkpt lat="46.08748" lon="4.79302">
        <ele>230</ele>
        <time>2016-10-04T10:35:53Z</time>
      </trkpt>
      <trkpt lat="46.08744" lon="4.79307">
        <ele>230</ele>
        <time>2016-10-04T10:35:54Z</time>
      </trkpt>
      <trkpt lat="46.08741" lon="4.79311">
        <ele>230</ele>
        <time>2016-10-04T10:35:55Z</time>
      </trkpt>
      <trkpt lat="46.08737" lon="4.79315">
        <ele>230</ele>
        <time>2016-10-04T10:35:56Z</time>
      </trkpt>
      <trkpt lat="46.08733" lon="4.7932">
        <ele>230</ele>
        <time>2016-10-04T10:35:57Z</time>
      </trkpt>
      <trkpt lat="46.08728" lon="4.79324">
        <ele>230</ele>
        <time>2016-10-04T10:35:58Z</time>
      </trkpt>
      <trkpt lat="46.08724" lon="4.79329">
        <ele>230</ele>
        <time>2016-10-04T10:35:59Z</time>
      </trkpt>
      <trkpt lat="46.0872" lon="4.79334">
        <ele>230</ele>
        <time>2016-10-04T10:36:00Z</time>
      </trkpt>
      <trkpt lat="46.08717" lon="4.7934">
        <ele>230</ele>
        <time>2016-10-04T10:36:01Z</time>
      </trkpt>
      <trkpt lat="46.08713" lon="4.79345">
        <ele>230</ele>
        <time>2016-10-04T10:36:02Z</time>
      </trkpt>
      <trkpt lat="46.08709" lon="4.79351">
        <ele>230</ele>
        <time>2016-10-04T10:36:03Z</time>
      </trkpt>
      <trkpt lat="46.08706" lon="4.79357">
        <ele>230</ele>
        <time>2016-10-04T10:36:04Z</time>
      </trkpt>
      <trkpt lat="46.08702" lon="4.79363">
        <ele>230</ele>
        <time>2016-10-04T10:36:05Z</time>
      </trkpt>
      <trkpt lat="46.08698" lon="4.79369">
        <ele>230</ele>
        <time>2016-10-04T10:36:06Z</time>
      </trkpt>
      <trkpt lat="46.08694" lon="4.79375">
        <ele>230</ele>
        <time>2016-10-04T10:36:07Z</time>
      </trkpt>
      <trkpt lat="46.08689" lon="4.79381">
        <ele>230</ele>
        <time>2016-10-04T10:36:08Z</time>
      </trkpt>
      <trkpt lat="46.08686" lon="4.79387">
        <ele>230</ele>
        <time>2016-10-04T10:36:09Z</time>
      </trkpt>
      <trkpt lat="46.08682" lon="4.79394">
        <ele>230</ele>
        <time>2016-10-04T10:36:10Z</time>
      </trkpt>
      <trkpt lat="46.08678" lon="4.794">
        <ele>230</ele>
        <time>2016-10-04T10:36:11Z</time>
      </trkpt>
      <trkpt lat="46.08675" lon="4.79406">
        <ele>230</ele>
        <time>2016-10-04T10:36:12Z</time>
      </trkpt>
      <trkpt lat="46.08671" lon="4.79412">
        <ele>230</ele>
        <time>2016-10-04T10:36:13Z</time>
      </trkpt>
      <trkpt lat="46.08667" lon="4.79418">
        <ele>230</ele>
        <time>2016-10-04T10:36:14Z</time>
      </trkpt>
      <trkpt lat="46.08664" lon="4.79424">
        <ele>230</ele>
        <time>2016-10-04T10:36:15Z</time>
      </trkpt>
      <trkpt lat="46.0866" lon="4.7943">
        <ele>230</ele>
        <time>2016-10-04T10:36:16Z</time>
      </trkpt>
      <trkpt lat="46.08657" lon="4.79436">
        <ele>230</ele>
        <time>2016-10-04T10:36:17Z</time>
      </trkpt>
      <trkpt lat="46.08654" lon="4.79441">
        <ele>230</ele>
        <time>2016-10-04T10:36:18Z</time>
      </trkpt>
      <trkpt lat="46.08651" lon="4.79446">
        <ele>230</ele>
        <time>2016-10-04T10:36:19Z</time>
      </trkpt>
      <trkpt lat="46.08648" lon="4.7945">
        <ele>229</ele>
        <time>2016-10-04T10:36:20Z</time>
      </trkpt>
      <trkpt lat="46.08644" lon="4.79456">
        <ele>229</ele>
        <time>2016-10-04T10:36:21Z</time>
      </trkpt>
      <trkpt lat="46.0864" lon="4.79461">
        <ele>229</ele>
        <time>2016-10-04T10:36:22Z</time>
      </trkpt>
      <trkpt lat="46.08636" lon="4.79467">
        <ele>229</ele>
        <time>2016-10-04T10:36:23Z</time>
      </trkpt>
      <trkpt lat="46.08632" lon="4.79474">
        <ele>229</ele>
        <time>2016-10-04T10:36:24Z</time>
      </trkpt>
      <trkpt lat="46.08627" lon="4.79481">
        <ele>229</ele>
        <time>2016-10-04T10:36:25Z</time>
      </trkpt>
      <trkpt lat="46.08623" lon="4.79486">
        <ele>229</ele>
        <time>2016-10-04T10:36:26Z</time>
      </trkpt>
      <trkpt lat="46.08619" lon="4.79493">
        <ele>229</ele>
        <time>2016-10-04T10:36:27Z</time>
      </trkpt>
      <trkpt lat="46.08616" lon="4.79499">
        <ele>229</ele>
        <time>2016-10-04T10:36:28Z</time>
      </trkpt>
      <trkpt lat="46.08612" lon="4.79504">
        <ele>229</ele>
        <time>2016-10-04T10:36:29Z</time>
      </trkpt>
      <trkpt lat="46.08609" lon="4.7951">
        <ele>229</ele>
        <time>2016-10-04T10:36:30Z</time>
      </trkpt>
      <trkpt lat="46.08605" lon="4.79515">
        <ele>229</ele>
        <time>2016-10-04T10:36:31Z</time>
      </trkpt>
      <trkpt lat="46.08601" lon="4.7952">
        <ele>229</ele>
        <time>2016-10-04T10:36:32Z</time>
      </trkpt>
      <trkpt lat="46.08597" lon="4.79525">
        <ele>229</ele>
        <time>2016-10-04T10:36:33Z</time>
      </trkpt>
      <trkpt lat="46.08593" lon="4.7953">
        <ele>229</ele>
        <time>2016-10-04T10:36:34Z</time>
      </trkpt>
      <trkpt lat="46.08589" lon="4.79534">
        <ele>229</ele>
        <time>2016-10-04T10:36:35Z</time>
      </trkpt>
      <trkpt lat="46.08585" lon="4.79538">
        <ele>229</ele>
        <time>2016-10-04T10:36:36Z</time>
      </trkpt>
      <trkpt lat="46.08581" lon="4.79543">
        <ele>230</ele>
        <time>2016-10-04T10:36:37Z</time>
      </trkpt>
      <trkpt lat="46.08576" lon="4.79548">
        <ele>230</ele>
        <time>2016-10-04T10:36:38Z</time>
      </trkpt>
      <trkpt lat="46.08572" lon="4.79553">
        <ele>230</ele>
        <time>2016-10-04T10:36:39Z</time>
      </trkpt>
      <trkpt lat="46.08569" lon="4.79558">
        <ele>230</ele>
        <time>2016-10-04T10:36:40Z</time>
      </trkpt>
      <trkpt lat="46.08564" lon="4.79562">
        <ele>230</ele>
        <time>2016-10-04T10:36:41Z</time>
      </trkpt>
      <trkpt lat="46.08559" lon="4.79567">
        <ele>230</ele>
        <time>2016-10-04T10:36:42Z</time>
      </trkpt>
      <trkpt lat="46.08555" lon="4.79571">
        <ele>230</ele>
        <time>2016-10-04T10:36:43Z</time>
      </trkpt>
      <trkpt lat="46.0855" lon="4.79576">
        <ele>230</ele>
        <time>2016-10-04T10:36:44Z</time>
      </trkpt>
      <trkpt lat="46.08546" lon="4.79581">
        <ele>230</ele>
        <time>2016-10-04T10:36:45Z</time>
      </trkpt>
      <trkpt lat="46.08542" lon="4.79585">
        <ele>230</ele>
        <time>2016-10-04T10:36:46Z</time>
      </trkpt>
      <trkpt lat="46.08537" lon="4.79589">
        <ele>230</ele>
        <time>2016-10-04T10:36:47Z</time>
      </trkpt>
      <trkpt lat="46.08534" lon="4.79592">
        <ele>230</ele>
        <time>2016-10-04T10:36:48Z</time>
      </trkpt>
      <trkpt lat="46.0853" lon="4.79597">
        <ele>230</ele>
        <time>2016-10-04T10:36:49Z</time>
      </trkpt>
      <trkpt lat="46.08526" lon="4.79601">
        <ele>230</ele>
        <time>2016-10-04T10:36:50Z</time>
      </trkpt>
      <trkpt lat="46.08521" lon="4.79605">
        <ele>230</ele>
        <time>2016-10-04T10:36:51Z</time>
      </trkpt>
      <trkpt lat="46.08517" lon="4.7961">
        <ele>230</ele>
        <time>2016-10-04T10:36:52Z</time>
      </trkpt>
      <trkpt lat="46.08512" lon="4.79614">
        <ele>230</ele>
        <time>2016-10-04T10:36:53Z</time>
      </trkpt>
      <trkpt lat="46.08508" lon="4.79619">
        <ele>230</ele>
        <time>2016-10-04T10:36:54Z</time>
      </trkpt>
      <trkpt lat="46.08503" lon="4.79624">
        <ele>230</ele>
        <time>2016-10-04T10:36:55Z</time>
      </trkpt>
      <trkpt lat="46.08499" lon="4.79627">
        <ele>230</ele>
        <time>2016-10-04T10:36:56Z</time>
      </trkpt>
      <trkpt lat="46.08495" lon="4.79632">
        <ele>230</ele>
        <time>2016-10-04T10:36:57Z</time>
      </trkpt>
      <trkpt lat="46.08492" lon="4.79636">
        <ele>230</ele>
        <time>2016-10-04T10:36:58Z</time>
      </trkpt>
      <trkpt lat="46.08488" lon="4.7964">
        <ele>230</ele>
        <time>2016-10-04T10:36:59Z</time>
      </trkpt>
      <trkpt lat="46.08484" lon="4.79644">
        <ele>230</ele>
        <time>2016-10-04T10:37:00Z</time>
      </trkpt>
      <trkpt lat="46.0848" lon="4.79648">
        <ele>230</ele>
        <time>2016-10-04T10:37:01Z</time>
      </trkpt>
      <trkpt lat="46.08477" lon="4.79652">
        <ele>230</ele>
        <time>2016-10-04T10:37:02Z</time>
      </trkpt>
      <trkpt lat="46.08473" lon="4.79656">
        <ele>230</ele>
        <time>2016-10-04T10:37:03Z</time>
      </trkpt>
      <trkpt lat="46.08469" lon="4.7966">
        <ele>230</ele>
        <time>2016-10-04T10:37:04Z</time>
      </trkpt>
      <trkpt lat="46.08465" lon="4.79664">
        <ele>230</ele>
        <time>2016-10-04T10:37:05Z</time>
      </trkpt>
      <trkpt lat="46.08461" lon="4.79669">
        <ele>230</ele>
        <time>2016-10-04T10:37:06Z</time>
      </trkpt>
      <trkpt lat="46.08457" lon="4.79673">
        <ele>230</ele>
        <time>2016-10-04T10:37:07Z</time>
      </trkpt>
      <trkpt lat="46.08452" lon="4.79677">
        <ele>230</ele>
        <time>2016-10-04T10:37:08Z</time>
      </trkpt>
      <trkpt lat="46.08448" lon="4.79682">
        <ele>230</ele>
        <time>2016-10-04T10:37:09Z</time>
      </trkpt>
      <trkpt lat="46.08443" lon="4.79688">
        <ele>230</ele>
        <time>2016-10-04T10:37:10Z</time>
      </trkpt>
      <trkpt lat="46.08438" lon="4.79693">
        <ele>230</ele>
        <time>2016-10-04T10:37:11Z</time>
      </trkpt>
      <trkpt lat="46.08434" lon="4.79697">
        <ele>230</ele>
        <time>2016-10-04T10:37:12Z</time>
      </trkpt>
      <trkpt lat="46.0843" lon="4.79701">
        <ele>230</ele>
        <time>2016-10-04T10:37:13Z</time>
      </trkpt>
      <trkpt lat="46.08425" lon="4.79705">
        <ele>231</ele>
        <time>2016-10-04T10:37:14Z</time>
      </trkpt>
      <trkpt lat="46.08421" lon="4.7971">
        <ele>231</ele>
        <time>2016-10-04T10:37:15Z</time>
      </trkpt>
      <trkpt lat="46.08417" lon="4.79714">
        <ele>231</ele>
        <time>2016-10-04T10:37:16Z</time>
      </trkpt>
      <trkpt lat="46.08413" lon="4.79718">
        <ele>231</ele>
        <time>2016-10-04T10:37:17Z</time>
      </trkpt>
      <trkpt lat="46.08409" lon="4.79721">
        <ele>231</ele>
        <time>2016-10-04T10:37:18Z</time>
      </trkpt>
      <trkpt lat="46.08405" lon="4.79725">
        <ele>231</ele>
        <time>2016-10-04T10:37:19Z</time>
      </trkpt>
      <trkpt lat="46.08401" lon="4.79729">
        <ele>231</ele>
        <time>2016-10-04T10:37:20Z</time>
      </trkpt>
      <trkpt lat="46.08398" lon="4.79733">
        <ele>231</ele>
        <time>2016-10-04T10:37:21Z</time>
      </trkpt>
      <trkpt lat="46.08394" lon="4.79737">
        <ele>231</ele>
        <time>2016-10-04T10:37:22Z</time>
      </trkpt>
      <trkpt lat="46.0839" lon="4.79742">
        <ele>232</ele>
        <time>2016-10-04T10:37:23Z</time>
      </trkpt>
      <trkpt lat="46.08387" lon="4.79746">
        <ele>232</ele>
        <time>2016-10-04T10:37:24Z</time>
      </trkpt>
      <trkpt lat="46.08383" lon="4.7975">
        <ele>232</ele>
        <time>2016-10-04T10:37:25Z</time>
      </trkpt>
      <trkpt lat="46.0838" lon="4.79754">
        <ele>232</ele>
        <time>2016-10-04T10:37:26Z</time>
      </trkpt>
      <trkpt lat="46.08377" lon="4.79759">
        <ele>232</ele>
        <time>2016-10-04T10:37:27Z</time>
      </trkpt>
      <trkpt lat="46.08374" lon="4.79764">
        <ele>232</ele>
        <time>2016-10-04T10:37:28Z</time>
      </trkpt>
      <trkpt lat="46.0837" lon="4.7977">
        <ele>232</ele>
        <time>2016-10-04T10:37:29Z</time>
      </trkpt>
      <trkpt lat="46.08367" lon="4.79776">
        <ele>232</ele>
        <time>2016-10-04T10:37:30Z</time>
      </trkpt>
      <trkpt lat="46.08364" lon="4.79782">
        <ele>232</ele>
        <time>2016-10-04T10:37:31Z</time>
      </trkpt>
      <trkpt lat="46.08361" lon="4.79788">
        <ele>232</ele>
        <time>2016-10-04T10:37:32Z</time>
      </trkpt>
      <trkpt lat="46.08359" lon="4.79794">
        <ele>232</ele>
        <time>2016-10-04T10:37:33Z</time>
      </trkpt>
      <trkpt lat="46.08356" lon="4.798">
        <ele>232</ele>
        <time>2016-10-04T10:37:34Z</time>
      </trkpt>
      <trkpt lat="46.08354" lon="4.79807">
        <ele>232</ele>
        <time>2016-10-04T10:37:35Z</time>
      </trkpt>
      <trkpt lat="46.08352" lon="4.79813">
        <ele>232</ele>
        <time>2016-10-04T10:37:36Z</time>
      </trkpt>
      <trkpt lat="46.08349" lon="4.7982">
        <ele>232</ele>
        <time>2016-10-04T10:37:37Z</time>
      </trkpt>
      <trkpt lat="46.08347" lon="4.79826">
        <ele>232</ele>
        <time>2016-10-04T10:37:38Z</time>
      </trkpt>
      <trkpt lat="46.08344" lon="4.79832">
        <ele>232</ele>
        <time>2016-10-04T10:37:39Z</time>
      </trkpt>
      <trkpt lat="46.08342" lon="4.79839">
        <ele>232</ele>
        <time>2016-10-04T10:37:40Z</time>
      </trkpt>
      <trkpt lat="46.0834" lon="4.79845">
        <ele>232</ele>
        <time>2016-10-04T10:37:41Z</time>
      </trkpt>
      <trkpt lat="46.08337" lon="4.79851">
        <ele>232</ele>
        <time>2016-10-04T10:37:42Z</time>
      </trkpt>
      <trkpt lat="46.08335" lon="4.79858">
        <ele>232</ele>
        <time>2016-10-04T10:37:43Z</time>
      </trkpt>
      <trkpt lat="46.08333" lon="4.79865">
        <ele>232</ele>
        <time>2016-10-04T10:37:44Z</time>
      </trkpt>
      <trkpt lat="46.08331" lon="4.79871">
        <ele>232</ele>
        <time>2016-10-04T10:37:45Z</time>
      </trkpt>
      <trkpt lat="46.08329" lon="4.79876">
        <ele>232</ele>
        <time>2016-10-04T10:37:46Z</time>
      </trkpt>
      <trkpt lat="46.08327" lon="4.79882">
        <ele>232</ele>
        <time>2016-10-04T10:37:47Z</time>
      </trkpt>
      <trkpt lat="46.08324" lon="4.79888">
        <ele>232</ele>
        <time>2016-10-04T10:37:48Z</time>
      </trkpt>
      <trkpt lat="46.08322" lon="4.79895">
        <ele>232</ele>
        <time>2016-10-04T10:37:49Z</time>
      </trkpt>
      <trkpt lat="46.08319" lon="4.79901">
        <ele>232</ele>
        <time>2016-10-04T10:37:50Z</time>
      </trkpt>
      <trkpt lat="46.08317" lon="4.79908">
        <ele>232</ele>
        <time>2016-10-04T10:37:51Z</time>
      </trkpt>
      <trkpt lat="46.08314" lon="4.79915">
        <ele>232</ele>
        <time>2016-10-04T10:37:52Z</time>
      </trkpt>
      <trkpt lat="46.08311" lon="4.79923">
        <ele>232</ele>
        <time>2016-10-04T10:37:53Z</time>
      </trkpt>
      <trkpt lat="46.08308" lon="4.7993">
        <ele>232</ele>
        <time>2016-10-04T10:37:54Z</time>
      </trkpt>
      <trkpt lat="46.08305" lon="4.79937">
        <ele>232</ele>
        <time>2016-10-04T10:37:55Z</time>
      </trkpt>
      <trkpt lat="46.08302" lon="4.79943">
        <ele>232</ele>
        <time>2016-10-04T10:37:56Z</time>
      </trkpt>
      <trkpt lat="46.08299" lon="4.79948">
        <ele>232</ele>
        <time>2016-10-04T10:37:57Z</time>
      </trkpt>
      <trkpt lat="46.08296" lon="4.79955">
        <ele>232</ele>
        <time>2016-10-04T10:37:58Z</time>
      </trkpt>
      <trkpt lat="46.08294" lon="4.79961">
        <ele>232</ele>
        <time>2016-10-04T10:37:59Z</time>
      </trkpt>
      <trkpt lat="46.08291" lon="4.79966">
        <ele>232</ele>
        <time>2016-10-04T10:38:00Z</time>
      </trkpt>
      <trkpt lat="46.08288" lon="4.79972">
        <ele>232</ele>
        <time>2016-10-04T10:38:01Z</time>
      </trkpt>
      <trkpt lat="46.08285" lon="4.79977">
        <ele>232</ele>
        <time>2016-10-04T10:38:02Z</time>
      </trkpt>
      <trkpt lat="46.08283" lon="4.79983">
        <ele>232</ele>
        <time>2016-10-04T10:38:03Z</time>
      </trkpt>
      <trkpt lat="46.0828" lon="4.79989">
        <ele>231</ele>
        <time>2016-10-04T10:38:04Z</time>
      </trkpt>
      <trkpt lat="46.08277" lon="4.79994">
        <ele>231</ele>
        <time>2016-10-04T10:38:05Z</time>
      </trkpt>
      <trkpt lat="46.08274" lon="4.8">
        <ele>231</ele>
        <time>2016-10-04T10:38:06Z</time>
      </trkpt>
      <trkpt lat="46.0827" lon="4.80005">
        <ele>231</ele>
        <time>2016-10-04T10:38:07Z</time>
      </trkpt>
      <trkpt lat="46.08267" lon="4.80011">
        <ele>231</ele>
        <time>2016-10-04T10:38:08Z</time>
      </trkpt>
      <trkpt lat="46.08264" lon="4.80017">
        <ele>231</ele>
        <time>2016-10-04T10:38:09Z</time>
      </trkpt>
      <trkpt lat="46.08261" lon="4.80022">
        <ele>231</ele>
        <time>2016-10-04T10:38:10Z</time>
      </trkpt>
      <trkpt lat="46.08257" lon="4.80028">
        <ele>231</ele>
        <time>2016-10-04T10:38:11Z</time>
      </trkpt>
      <trkpt lat="46.08254" lon="4.80034">
        <ele>231</ele>
        <time>2016-10-04T10:38:12Z</time>
      </trkpt>
      <trkpt lat="46.0825" lon="4.80039">
        <ele>231</ele>
        <time>2016-10-04T10:38:13Z</time>
      </trkpt>
      <trkpt lat="46.08247" lon="4.80044">
        <ele>231</ele>
        <time>2016-10-04T10:38:14Z</time>
      </trkpt>
      <trkpt lat="46.08244" lon="4.80049">
        <ele>231</ele>
        <time>2016-10-04T10:38:15Z</time>
      </trkpt>
      <trkpt lat="46.0824" lon="4.80055">
        <ele>231</ele>
        <time>2016-10-04T10:38:16Z</time>
      </trkpt>
      <trkpt lat="46.08236" lon="4.80061">
        <ele>231</ele>
        <time>2016-10-04T10:38:17Z</time>
      </trkpt>
      <trkpt lat="46.08232" lon="4.80067">
        <ele>232</ele>
        <time>2016-10-04T10:38:18Z</time>
      </trkpt>
      <trkpt lat="46.08228" lon="4.80074">
        <ele>232</ele>
        <time>2016-10-04T10:38:19Z</time>
      </trkpt>
      <trkpt lat="46.08224" lon="4.8008">
        <ele>231</ele>
        <time>2016-10-04T10:38:20Z</time>
      </trkpt>
      <trkpt lat="46.0822" lon="4.80087">
        <ele>231</ele>
        <time>2016-10-04T10:38:21Z</time>
      </trkpt>
      <trkpt lat="46.08216" lon="4.80093">
        <ele>231</ele>
        <time>2016-10-04T10:38:22Z</time>
      </trkpt>
      <trkpt lat="46.08212" lon="4.80099">
        <ele>231</ele>
        <time>2016-10-04T10:38:23Z</time>
      </trkpt>
      <trkpt lat="46.08208" lon="4.80104">
        <ele>231</ele>
        <time>2016-10-04T10:38:24Z</time>
      </trkpt>
      <trkpt lat="46.08204" lon="4.8011">
        <ele>231</ele>
        <time>2016-10-04T10:38:25Z</time>
      </trkpt>
      <trkpt lat="46.082" lon="4.80116">
        <ele>231</ele>
        <time>2016-10-04T10:38:26Z</time>
      </trkpt>
      <trkpt lat="46.08197" lon="4.80123">
        <ele>231</ele>
        <time>2016-10-04T10:38:27Z</time>
      </trkpt>
      <trkpt lat="46.08194" lon="4.80129">
        <ele>231</ele>
        <time>2016-10-04T10:38:28Z</time>
      </trkpt>
      <trkpt lat="46.0819" lon="4.80136">
        <ele>231</ele>
        <time>2016-10-04T10:38:29Z</time>
      </trkpt>
      <trkpt lat="46.08187" lon="4.80142">
        <ele>231</ele>
        <time>2016-10-04T10:38:30Z</time>
      </trkpt>
      <trkpt lat="46.08182" lon="4.80149">
        <ele>231</ele>
        <time>2016-10-04T10:38:31Z</time>
      </trkpt>
      <trkpt lat="46.08178" lon="4.80155">
        <ele>231</ele>
        <time>2016-10-04T10:38:32Z</time>
      </trkpt>
      <trkpt lat="46.08174" lon="4.80162">
        <ele>231</ele>
        <time>2016-10-04T10:38:33Z</time>
      </trkpt>
      <trkpt lat="46.0817" lon="4.80168">
        <ele>231</ele>
        <time>2016-10-04T10:38:34Z</time>
      </trkpt>
      <trkpt lat="46.08166" lon="4.80175">
        <ele>231</ele>
        <time>2016-10-04T10:38:35Z</time>
      </trkpt>
      <trkpt lat="46.08162" lon="4.80182">
        <ele>231</ele>
        <time>2016-10-04T10:38:36Z</time>
      </trkpt>
      <trkpt lat="46.08158" lon="4.80188">
        <ele>231</ele>
        <time>2016-10-04T10:38:37Z</time>
      </trkpt>
      <trkpt lat="46.08154" lon="4.80195">
        <ele>231</ele>
        <time>2016-10-04T10:38:38Z</time>
      </trkpt>
      <trkpt lat="46.0815" lon="4.80201">
        <ele>231</ele>
        <time>2016-10-04T10:38:39Z</time>
      </trkpt>
      <trkpt lat="46.08146" lon="4.80207">
        <ele>231</ele>
        <time>2016-10-04T10:38:40Z</time>
      </trkpt>
      <trkpt lat="46.08142" lon="4.80213">
        <ele>231</ele>
        <time>2016-10-04T10:38:41Z</time>
      </trkpt>
      <trkpt lat="46.08139" lon="4.80218">
        <ele>231</ele>
        <time>2016-10-04T10:38:42Z</time>
      </trkpt>
      <trkpt lat="46.08135" lon="4.80223">
        <ele>231</ele>
        <time>2016-10-04T10:38:43Z</time>
      </trkpt>
      <trkpt lat="46.08132" lon="4.80229">
        <ele>230</ele>
        <time>2016-10-04T10:38:44Z</time>
      </trkpt>
      <trkpt lat="46.08128" lon="4.80235">
        <ele>230</ele>
        <time>2016-10-04T10:38:45Z</time>
      </trkpt>
      <trkpt lat="46.08124" lon="4.80242">
        <ele>230</ele>
        <time>2016-10-04T10:38:46Z</time>
      </trkpt>
      <trkpt lat="46.0812" lon="4.80248">
        <ele>230</ele>
        <time>2016-10-04T10:38:47Z</time>
      </trkpt>
      <trkpt lat="46.08116" lon="4.80254">
        <ele>230</ele>
        <time>2016-10-04T10:38:48Z</time>
      </trkpt>
      <trkpt lat="46.08112" lon="4.8026">
        <ele>230</ele>
        <time>2016-10-04T10:38:49Z</time>
      </trkpt>
      <trkpt lat="46.08109" lon="4.80266">
        <ele>230</ele>
        <time>2016-10-04T10:38:50Z</time>
      </trkpt>
      <trkpt lat="46.08105" lon="4.80273">
        <ele>230</ele>
        <time>2016-10-04T10:38:51Z</time>
      </trkpt>
      <trkpt lat="46.08101" lon="4.80279">
        <ele>230</ele>
        <time>2016-10-04T10:38:52Z</time>
      </trkpt>
      <trkpt lat="46.08097" lon="4.80286">
        <ele>230</ele>
        <time>2016-10-04T10:38:53Z</time>
      </trkpt>
      <trkpt lat="46.08093" lon="4.80293">
        <ele>230</ele>
        <time>2016-10-04T10:38:54Z</time>
      </trkpt>
      <trkpt lat="46.08088" lon="4.803">
        <ele>230</ele>
        <time>2016-10-04T10:38:55Z</time>
      </trkpt>
      <trkpt lat="46.08084" lon="4.80307">
        <ele>230</ele>
        <time>2016-10-04T10:38:56Z</time>
      </trkpt>
      <trkpt lat="46.0808" lon="4.80315">
        <ele>228</ele>
        <time>2016-10-04T10:38:57Z</time>
      </trkpt>
      <trkpt lat="46.08075" lon="4.80321">
        <ele>228</ele>
        <time>2016-10-04T10:38:58Z</time>
      </trkpt>
      <trkpt lat="46.08071" lon="4.8033">
        <ele>228</ele>
        <time>2016-10-04T10:38:59Z</time>
      </trkpt>
      <trkpt lat="46.08067" lon="4.80338">
        <ele>228</ele>
        <time>2016-10-04T10:39:00Z</time>
      </trkpt>
      <trkpt lat="46.08063" lon="4.80346">
        <ele>228</ele>
        <time>2016-10-04T10:39:01Z</time>
      </trkpt>
      <trkpt lat="46.08059" lon="4.80353">
        <ele>228</ele>
        <time>2016-10-04T10:39:02Z</time>
      </trkpt>
      <trkpt lat="46.08054" lon="4.8036">
        <ele>228</ele>
        <time>2016-10-04T10:39:03Z</time>
      </trkpt>
      <trkpt lat="46.0805" lon="4.80368">
        <ele>228</ele>
        <time>2016-10-04T10:39:04Z</time>
      </trkpt>
      <trkpt lat="46.08045" lon="4.80375">
        <ele>228</ele>
        <time>2016-10-04T10:39:05Z</time>
      </trkpt>
      <trkpt lat="46.08041" lon="4.80382">
        <ele>227</ele>
        <time>2016-10-04T10:39:06Z</time>
      </trkpt>
      <trkpt lat="46.08036" lon="4.80389">
        <ele>227</ele>
        <time>2016-10-04T10:39:07Z</time>
      </trkpt>
      <trkpt lat="46.08032" lon="4.80397">
        <ele>227</ele>
        <time>2016-10-04T10:39:08Z</time>
      </trkpt>
      <trkpt lat="46.08027" lon="4.80405">
        <ele>227</ele>
        <time>2016-10-04T10:39:09Z</time>
      </trkpt>
      <trkpt lat="46.08023" lon="4.80413">
        <ele>227</ele>
        <time>2016-10-04T10:39:10Z</time>
      </trkpt>
      <trkpt lat="46.08019" lon="4.8042">
        <ele>227</ele>
        <time>2016-10-04T10:39:11Z</time>
      </trkpt>
      <trkpt lat="46.08014" lon="4.80428">
        <ele>227</ele>
        <time>2016-10-04T10:39:12Z</time>
      </trkpt>
      <trkpt lat="46.0801" lon="4.80436">
        <ele>227</ele>
        <time>2016-10-04T10:39:13Z</time>
      </trkpt>
      <trkpt lat="46.08006" lon="4.80444">
        <ele>227</ele>
        <time>2016-10-04T10:39:14Z</time>
      </trkpt>
      <trkpt lat="46.08002" lon="4.80451">
        <ele>226</ele>
        <time>2016-10-04T10:39:15Z</time>
      </trkpt>
      <trkpt lat="46.07997" lon="4.80458">
        <ele>224</ele>
        <time>2016-10-04T10:39:16Z</time>
      </trkpt>
      <trkpt lat="46.07993" lon="4.80465">
        <ele>224</ele>
        <time>2016-10-04T10:39:17Z</time>
      </trkpt>
      <trkpt lat="46.07989" lon="4.80471">
        <ele>224</ele>
        <time>2016-10-04T10:39:18Z</time>
      </trkpt>
      <trkpt lat="46.07984" lon="4.80474">
        <ele>224</ele>
        <time>2016-10-04T10:39:19Z</time>
      </trkpt>
      <trkpt lat="46.07979" lon="4.80476">
        <ele>224</ele>
        <time>2016-10-04T10:39:20Z</time>
      </trkpt>
      <trkpt lat="46.07975" lon="4.80477">
        <ele>224</ele>
        <time>2016-10-04T10:39:21Z</time>
      </trkpt>
      <trkpt lat="46.0797" lon="4.80479">
        <ele>224</ele>
        <time>2016-10-04T10:39:22Z</time>
      </trkpt>
      <trkpt lat="46.07966" lon="4.80482">
        <ele>223</ele>
        <time>2016-10-04T10:39:23Z</time>
      </trkpt>
      <trkpt lat="46.07963" lon="4.80487">
        <ele>223</ele>
        <time>2016-10-04T10:39:24Z</time>
      </trkpt>
      <trkpt lat="46.0796" lon="4.80494">
        <ele>223</ele>
        <time>2016-10-04T10:39:25Z</time>
      </trkpt>
      <trkpt lat="46.07959" lon="4.80502">
        <ele>223</ele>
        <time>2016-10-04T10:39:26Z</time>
      </trkpt>
      <trkpt lat="46.07958" lon="4.80512">
        <ele>222</ele>
        <time>2016-10-04T10:39:27Z</time>
      </trkpt>
      <trkpt lat="46.07956" lon="4.8052">
        <ele>222</ele>
        <time>2016-10-04T10:39:28Z</time>
      </trkpt>
      <trkpt lat="46.07955" lon="4.80528">
        <ele>222</ele>
        <time>2016-10-04T10:39:29Z</time>
      </trkpt>
      <trkpt lat="46.07953" lon="4.80536">
        <ele>222</ele>
        <time>2016-10-04T10:39:30Z</time>
      </trkpt>
      <trkpt lat="46.07952" lon="4.80544">
        <ele>222</ele>
        <time>2016-10-04T10:39:31Z</time>
      </trkpt>
      <trkpt lat="46.07951" lon="4.80552">
        <ele>222</ele>
        <time>2016-10-04T10:39:32Z</time>
      </trkpt>
      <trkpt lat="46.0795" lon="4.8056">
        <ele>222</ele>
        <time>2016-10-04T10:39:33Z</time>
      </trkpt>
      <trkpt lat="46.07948" lon="4.80567">
        <ele>222</ele>
        <time>2016-10-04T10:39:34Z</time>
      </trkpt>
      <trkpt lat="46.07947" lon="4.80575">
        <ele>222</ele>
        <time>2016-10-04T10:39:35Z</time>
      </trkpt>
      <trkpt lat="46.07946" lon="4.80583">
        <ele>222</ele>
        <time>2016-10-04T10:39:36Z</time>
      </trkpt>
      <trkpt lat="46.07945" lon="4.80591">
        <ele>222</ele>
        <time>2016-10-04T10:39:37Z</time>
      </trkpt>
      <trkpt lat="46.07944" lon="4.80599">
        <ele>222</ele>
        <time>2016-10-04T10:39:38Z</time>
      </trkpt>
      <trkpt lat="46.07942" lon="4.80607">
        <ele>222</ele>
        <time>2016-10-04T10:39:39Z</time>
      </trkpt>
      <trkpt lat="46.07941" lon="4.80616">
        <ele>222</ele>
        <time>2016-10-04T10:39:40Z</time>
      </trkpt>
      <trkpt lat="46.07939" lon="4.80624">
        <ele>222</ele>
        <time>2016-10-04T10:39:41Z</time>
      </trkpt>
      <trkpt lat="46.07938" lon="4.80632">
        <ele>222</ele>
        <time>2016-10-04T10:39:42Z</time>
      </trkpt>
      <trkpt lat="46.07937" lon="4.80639">
        <ele>222</ele>
        <time>2016-10-04T10:39:43Z</time>
      </trkpt>
      <trkpt lat="46.07935" lon="4.80646">
        <ele>222</ele>
        <time>2016-10-04T10:39:44Z</time>
      </trkpt>
      <trkpt lat="46.07934" lon="4.80654">
        <ele>222</ele>
        <time>2016-10-04T10:39:45Z</time>
      </trkpt>
      <trkpt lat="46.07933" lon="4.80661">
        <ele>222</ele>
        <time>2016-10-04T10:39:46Z</time>
      </trkpt>
      <trkpt lat="46.07932" lon="4.80669">
        <ele>222</ele>
        <time>2016-10-04T10:39:47Z</time>
      </trkpt>
      <trkpt lat="46.07931" lon="4.80677">
        <ele>222</ele>
        <time>2016-10-04T10:39:48Z</time>
      </trkpt>
      <trkpt lat="46.0793" lon="4.80684">
        <ele>222</ele>
        <time>2016-10-04T10:39:49Z</time>
      </trkpt>
      <trkpt lat="46.07928" lon="4.80692">
        <ele>222</ele>
        <time>2016-10-04T10:39:50Z</time>
      </trkpt>
      <trkpt lat="46.07927" lon="4.807">
        <ele>222</ele>
        <time>2016-10-04T10:39:51Z</time>
      </trkpt>
      <trkpt lat="46.07926" lon="4.80708">
        <ele>223</ele>
        <time>2016-10-04T10:39:52Z</time>
      </trkpt>
      <trkpt lat="46.07925" lon="4.80716">
        <ele>223</ele>
        <time>2016-10-04T10:39:53Z</time>
      </trkpt>
      <trkpt lat="46.07923" lon="4.80724">
        <ele>223</ele>
        <time>2016-10-04T10:39:54Z</time>
      </trkpt>
      <trkpt lat="46.07922" lon="4.80732">
        <ele>222</ele>
        <time>2016-10-04T10:39:55Z</time>
      </trkpt>
      <trkpt lat="46.07921" lon="4.8074">
        <ele>222</ele>
        <time>2016-10-04T10:39:56Z</time>
      </trkpt>
      <trkpt lat="46.0792" lon="4.80748">
        <ele>222</ele>
        <time>2016-10-04T10:39:57Z</time>
      </trkpt>
      <trkpt lat="46.0792" lon="4.80756">
        <ele>222</ele>
        <time>2016-10-04T10:39:58Z</time>
      </trkpt>
      <trkpt lat="46.07918" lon="4.80763">
        <ele>223</ele>
        <time>2016-10-04T10:39:59Z</time>
      </trkpt>
      <trkpt lat="46.07918" lon="4.80772">
        <ele>223</ele>
        <time>2016-10-04T10:40:00Z</time>
      </trkpt>
      <trkpt lat="46.07916" lon="4.80779">
        <ele>221</ele>
        <time>2016-10-04T10:40:01Z</time>
      </trkpt>
      <trkpt lat="46.07915" lon="4.80787">
        <ele>221</ele>
        <time>2016-10-04T10:40:02Z</time>
      </trkpt>
      <trkpt lat="46.07912" lon="4.80793">
        <ele>221</ele>
        <time>2016-10-04T10:40:03Z</time>
      </trkpt>
      <trkpt lat="46.07909" lon="4.80799">
        <ele>221</ele>
        <time>2016-10-04T10:40:04Z</time>
      </trkpt>
      <trkpt lat="46.07905" lon="4.80803">
        <ele>221</ele>
        <time>2016-10-04T10:40:05Z</time>
      </trkpt>
      <trkpt lat="46.079" lon="4.80806">
        <ele>221</ele>
        <time>2016-10-04T10:40:06Z</time>
      </trkpt>
      <trkpt lat="46.07894" lon="4.80807">
        <ele>221</ele>
        <time>2016-10-04T10:40:07Z</time>
      </trkpt>
      <trkpt lat="46.07888" lon="4.80809">
        <ele>221</ele>
        <time>2016-10-04T10:40:08Z</time>
      </trkpt>
      <trkpt lat="46.07882" lon="4.8081">
        <ele>221</ele>
        <time>2016-10-04T10:40:09Z</time>
      </trkpt>
      <trkpt lat="46.07876" lon="4.80811">
        <ele>220</ele>
        <time>2016-10-04T10:40:10Z</time>
      </trkpt>
      <trkpt lat="46.0787" lon="4.80812">
        <ele>220</ele>
        <time>2016-10-04T10:40:11Z</time>
      </trkpt>
      <trkpt lat="46.07864" lon="4.80812">
        <ele>220</ele>
        <time>2016-10-04T10:40:12Z</time>
      </trkpt>
      <trkpt lat="46.07858" lon="4.80814">
        <ele>220</ele>
        <time>2016-10-04T10:40:13Z</time>
      </trkpt>
      <trkpt lat="46.07851" lon="4.80814">
        <ele>220</ele>
        <time>2016-10-04T10:40:14Z</time>
      </trkpt>
      <trkpt lat="46.07845" lon="4.80815">
        <ele>220</ele>
        <time>2016-10-04T10:40:15Z</time>
      </trkpt>
      <trkpt lat="46.07838" lon="4.80816">
        <ele>220</ele>
        <time>2016-10-04T10:40:16Z</time>
      </trkpt>
      <trkpt lat="46.07832" lon="4.80817">
        <ele>219</ele>
        <time>2016-10-04T10:40:17Z</time>
      </trkpt>
      <trkpt lat="46.07825" lon="4.80818">
        <ele>219</ele>
        <time>2016-10-04T10:40:18Z</time>
      </trkpt>
      <trkpt lat="46.07818" lon="4.80818">
        <ele>218</ele>
        <time>2016-10-04T10:40:19Z</time>
      </trkpt>
      <trkpt lat="46.07811" lon="4.80819">
        <ele>218</ele>
        <time>2016-10-04T10:40:20Z</time>
      </trkpt>
      <trkpt lat="46.07804" lon="4.80821">
        <ele>218</ele>
        <time>2016-10-04T10:40:21Z</time>
      </trkpt>
      <trkpt lat="46.07797" lon="4.80821">
        <ele>218</ele>
        <time>2016-10-04T10:40:22Z</time>
      </trkpt>
      <trkpt lat="46.0779" lon="4.80822">
        <ele>218</ele>
        <time>2016-10-04T10:40:23Z</time>
      </trkpt>
      <trkpt lat="46.07783" lon="4.80823">
        <ele>218</ele>
        <time>2016-10-04T10:40:24Z</time>
      </trkpt>
      <trkpt lat="46.07776" lon="4.80824">
        <ele>218</ele>
        <time>2016-10-04T10:40:25Z</time>
      </trkpt>
      <trkpt lat="46.07769" lon="4.80825">
        <ele>218</ele>
        <time>2016-10-04T10:40:26Z</time>
      </trkpt>
      <trkpt lat="46.07762" lon="4.80826">
        <ele>218</ele>
        <time>2016-10-04T10:40:27Z</time>
      </trkpt>
      <trkpt lat="46.07755" lon="4.80827">
        <ele>218</ele>
        <time>2016-10-04T10:40:28Z</time>
      </trkpt>
      <trkpt lat="46.07748" lon="4.80826">
        <ele>218</ele>
        <time>2016-10-04T10:40:29Z</time>
      </trkpt>
      <trkpt lat="46.0774" lon="4.80826">
        <ele>218</ele>
        <time>2016-10-04T10:40:30Z</time>
      </trkpt>
      <trkpt lat="46.07732" lon="4.80828">
        <ele>217</ele>
        <time>2016-10-04T10:40:31Z</time>
      </trkpt>
      <trkpt lat="46.07725" lon="4.8083">
        <ele>217</ele>
        <time>2016-10-04T10:40:32Z</time>
      </trkpt>
      <trkpt lat="46.07717" lon="4.80831">
        <ele>216</ele>
        <time>2016-10-04T10:40:33Z</time>
      </trkpt>
      <trkpt lat="46.0771" lon="4.80832">
        <ele>216</ele>
        <time>2016-10-04T10:40:34Z</time>
      </trkpt>
      <trkpt lat="46.07702" lon="4.80833">
        <ele>216</ele>
        <time>2016-10-04T10:40:35Z</time>
      </trkpt>
      <trkpt lat="46.07695" lon="4.80834">
        <ele>219</ele>
        <time>2016-10-04T10:40:36Z</time>
      </trkpt>
      <trkpt lat="46.07687" lon="4.80835">
        <ele>219</ele>
        <time>2016-10-04T10:40:37Z</time>
      </trkpt>
      <trkpt lat="46.0768" lon="4.80836">
        <ele>219</ele>
        <time>2016-10-04T10:40:38Z</time>
      </trkpt>
      <trkpt lat="46.07672" lon="4.80838">
        <ele>218</ele>
        <time>2016-10-04T10:40:39Z</time>
      </trkpt>
      <trkpt lat="46.07664" lon="4.80839">
        <ele>217</ele>
        <time>2016-10-04T10:40:40Z</time>
      </trkpt>
      <trkpt lat="46.07656" lon="4.8084">
        <ele>217</ele>
        <time>2016-10-04T10:40:41Z</time>
      </trkpt>
      <trkpt lat="46.07648" lon="4.80841">
        <ele>216</ele>
        <time>2016-10-04T10:40:42Z</time>
      </trkpt>
      <trkpt lat="46.07639" lon="4.80842">
        <ele>215</ele>
        <time>2016-10-04T10:40:43Z</time>
      </trkpt>
      <trkpt lat="46.07631" lon="4.80842">
        <ele>215</ele>
        <time>2016-10-04T10:40:44Z</time>
      </trkpt>
      <trkpt lat="46.07622" lon="4.80842">
        <ele>214</ele>
        <time>2016-10-04T10:40:45Z</time>
      </trkpt>
      <trkpt lat="46.07613" lon="4.80844">
        <ele>214</ele>
        <time>2016-10-04T10:40:46Z</time>
      </trkpt>
      <trkpt lat="46.07604" lon="4.80846">
        <ele>213</ele>
        <time>2016-10-04T10:40:47Z</time>
      </trkpt>
      <trkpt lat="46.07596" lon="4.80847">
        <ele>212</ele>
        <time>2016-10-04T10:40:48Z</time>
      </trkpt>
      <trkpt lat="46.07586" lon="4.80848">
        <ele>212</ele>
        <time>2016-10-04T10:40:49Z</time>
      </trkpt>
      <trkpt lat="46.07577" lon="4.8085">
        <ele>211</ele>
        <time>2016-10-04T10:40:50Z</time>
      </trkpt>
      <trkpt lat="46.07568" lon="4.80851">
        <ele>211</ele>
        <time>2016-10-04T10:40:51Z</time>
      </trkpt>
      <trkpt lat="46.07558" lon="4.80852">
        <ele>211</ele>
        <time>2016-10-04T10:40:52Z</time>
      </trkpt>
      <trkpt lat="46.07548" lon="4.80854">
        <ele>211</ele>
        <time>2016-10-04T10:40:53Z</time>
      </trkpt>
      <trkpt lat="46.07539" lon="4.80856">
        <ele>211</ele>
        <time>2016-10-04T10:40:54Z</time>
      </trkpt>
      <trkpt lat="46.07531" lon="4.80858">
        <ele>211</ele>
        <time>2016-10-04T10:40:55Z</time>
      </trkpt>
      <trkpt lat="46.07522" lon="4.80859">
        <ele>211</ele>
        <time>2016-10-04T10:40:56Z</time>
      </trkpt>
      <trkpt lat="46.07514" lon="4.8086">
        <ele>211</ele>
        <time>2016-10-04T10:40:57Z</time>
      </trkpt>
      <trkpt lat="46.07506" lon="4.80861">
        <ele>211</ele>
        <time>2016-10-04T10:40:58Z</time>
      </trkpt>
      <trkpt lat="46.07499" lon="4.8086">
        <ele>213</ele>
        <time>2016-10-04T10:40:59Z</time>
      </trkpt>
      <trkpt lat="46.07492" lon="4.80861">
        <ele>213</ele>
        <time>2016-10-04T10:41:00Z</time>
      </trkpt>
      <trkpt lat="46.07486" lon="4.80862">
        <ele>213</ele>
        <time>2016-10-04T10:41:01Z</time>
      </trkpt>
      <trkpt lat="46.07479" lon="4.80863">
        <ele>213</ele>
        <time>2016-10-04T10:41:02Z</time>
      </trkpt>
      <trkpt lat="46.07473" lon="4.80864">
        <ele>213</ele>
        <time>2016-10-04T10:41:03Z</time>
      </trkpt>
      <trkpt lat="46.07468" lon="4.80865">
        <ele>213</ele>
        <time>2016-10-04T10:41:04Z</time>
      </trkpt>
      <trkpt lat="46.07463" lon="4.80865">
        <ele>214</ele>
        <time>2016-10-04T10:41:05Z</time>
      </trkpt>
      <trkpt lat="46.07458" lon="4.80865">
        <ele>214</ele>
        <time>2016-10-04T10:41:06Z</time>
      </trkpt>
      <trkpt lat="46.07453" lon="4.80865">
        <ele>214</ele>
        <time>2016-10-04T10:41:07Z</time>
      </trkpt>
      <trkpt lat="46.07449" lon="4.80865">
        <ele>214</ele>
        <time>2016-10-04T10:41:08Z</time>
      </trkpt>
      <trkpt lat="46.07444" lon="4.80865">
        <ele>214</ele>
        <time>2016-10-04T10:41:09Z</time>
      </trkpt>
      <trkpt lat="46.07439" lon="4.80865">
        <ele>214</ele>
        <time>2016-10-04T10:41:10Z</time>
      </trkpt>
      <trkpt lat="46.07434" lon="4.80865">
        <ele>214</ele>
        <time>2016-10-04T10:41:11Z</time>
      </trkpt>
      <trkpt lat="46.07429" lon="4.80866">
        <ele>214</ele>
        <time>2016-10-04T10:41:12Z</time>
      </trkpt>
      <trkpt lat="46.07424" lon="4.80866">
        <ele>214</ele>
        <time>2016-10-04T10:41:13Z</time>
      </trkpt>
      <trkpt lat="46.0742" lon="4.80863">
        <ele>214</ele>
        <time>2016-10-04T10:41:15Z</time>
      </trkpt>
      <trkpt lat="46.07415" lon="4.80862">
        <ele>215</ele>
        <time>2016-10-04T10:41:16Z</time>
      </trkpt>
      <trkpt lat="46.0741" lon="4.80861">
        <ele>215</ele>
        <time>2016-10-04T10:41:17Z</time>
      </trkpt>
      <trkpt lat="46.07405" lon="4.80859">
        <ele>215</ele>
        <time>2016-10-04T10:41:18Z</time>
      </trkpt>
      <trkpt lat="46.07401" lon="4.8086">
        <ele>215</ele>
        <time>2016-10-04T10:41:19Z</time>
      </trkpt>
      <trkpt lat="46.07395" lon="4.80859">
        <ele>215</ele>
        <time>2016-10-04T10:41:20Z</time>
      </trkpt>
      <trkpt lat="46.0739" lon="4.80858">
        <ele>215</ele>
        <time>2016-10-04T10:41:21Z</time>
      </trkpt>
      <trkpt lat="46.07385" lon="4.80858">
        <ele>215</ele>
        <time>2016-10-04T10:41:22Z</time>
      </trkpt>
      <trkpt lat="46.07376" lon="4.80859">
        <ele>216</ele>
        <time>2016-10-04T10:41:24Z</time>
      </trkpt>
      <trkpt lat="46.07373" lon="4.80859">
        <ele>216</ele>
        <time>2016-10-04T10:41:25Z</time>
      </trkpt>
      <trkpt lat="46.07368" lon="4.80859">
        <ele>216</ele>
        <time>2016-10-04T10:41:26Z</time>
      </trkpt>
      <trkpt lat="46.07364" lon="4.8086">
        <ele>216</ele>
        <time>2016-10-04T10:41:27Z</time>
      </trkpt>
      <trkpt lat="46.07358" lon="4.80861">
        <ele>216</ele>
        <time>2016-10-04T10:41:28Z</time>
      </trkpt>
      <trkpt lat="46.07352" lon="4.80861">
        <ele>216</ele>
        <time>2016-10-04T10:41:29Z</time>
      </trkpt>
      <trkpt lat="46.07347" lon="4.80864">
        <ele>216</ele>
        <time>2016-10-04T10:41:30Z</time>
      </trkpt>
      <trkpt lat="46.07343" lon="4.80867">
        <ele>216</ele>
        <time>2016-10-04T10:41:31Z</time>
      </trkpt>
      <trkpt lat="46.07338" lon="4.8087">
        <ele>216</ele>
        <time>2016-10-04T10:41:32Z</time>
      </trkpt>
      <trkpt lat="46.07333" lon="4.80872">
        <ele>217</ele>
        <time>2016-10-04T10:41:33Z</time>
      </trkpt>
      <trkpt lat="46.07324" lon="4.80874">
        <ele>217</ele>
        <time>2016-10-04T10:41:35Z</time>
      </trkpt>
      <trkpt lat="46.0732" lon="4.80875">
        <ele>217</ele>
        <time>2016-10-04T10:41:36Z</time>
      </trkpt>
      <trkpt lat="46.07315" lon="4.80877">
        <ele>217</ele>
        <time>2016-10-04T10:41:37Z</time>
      </trkpt>
      <trkpt lat="46.07311" lon="4.80879">
        <ele>217</ele>
        <time>2016-10-04T10:41:38Z</time>
      </trkpt>
      <trkpt lat="46.07303" lon="4.80882">
        <ele>218</ele>
        <time>2016-10-04T10:41:40Z</time>
      </trkpt>
      <trkpt lat="46.07298" lon="4.80883">
        <ele>218</ele>
        <time>2016-10-04T10:41:41Z</time>
      </trkpt>
      <trkpt lat="46.0729" lon="4.80887">
        <ele>218</ele>
        <time>2016-10-04T10:41:43Z</time>
      </trkpt>
      <trkpt lat="46.07285" lon="4.80889">
        <ele>218</ele>
        <time>2016-10-04T10:41:44Z</time>
      </trkpt>
      <trkpt lat="46.0728" lon="4.80889">
        <ele>218</ele>
        <time>2016-10-04T10:41:45Z</time>
      </trkpt>
      <trkpt lat="46.07276" lon="4.80891">
        <ele>218</ele>
        <time>2016-10-04T10:41:46Z</time>
      </trkpt>
      <trkpt lat="46.07271" lon="4.80893">
        <ele>218</ele>
        <time>2016-10-04T10:41:47Z</time>
      </trkpt>
      <trkpt lat="46.07266" lon="4.80896">
        <ele>219</ele>
        <time>2016-10-04T10:41:48Z</time>
      </trkpt>
      <trkpt lat="46.07261" lon="4.80899">
        <ele>219</ele>
        <time>2016-10-04T10:41:49Z</time>
      </trkpt>
      <trkpt lat="46.07257" lon="4.80902">
        <ele>219</ele>
        <time>2016-10-04T10:41:50Z</time>
      </trkpt>
      <trkpt lat="46.07252" lon="4.80903">
        <ele>219</ele>
        <time>2016-10-04T10:41:51Z</time>
      </trkpt>
      <trkpt lat="46.07247" lon="4.80905">
        <ele>221</ele>
        <time>2016-10-04T10:41:52Z</time>
      </trkpt>
      <trkpt lat="46.07238" lon="4.80908">
        <ele>221</ele>
        <time>2016-10-04T10:41:54Z</time>
      </trkpt>
      <trkpt lat="46.07234" lon="4.80909">
        <ele>221</ele>
        <time>2016-10-04T10:41:55Z</time>
      </trkpt>
      <trkpt lat="46.07226" lon="4.80913">
        <ele>221</ele>
        <time>2016-10-04T10:41:57Z</time>
      </trkpt>
      <trkpt lat="46.07222" lon="4.80915">
        <ele>221</ele>
        <time>2016-10-04T10:41:58Z</time>
      </trkpt>
      <trkpt lat="46.07214" lon="4.80918">
        <ele>222</ele>
        <time>2016-10-04T10:42:00Z</time>
      </trkpt>
      <trkpt lat="46.0721" lon="4.80919">
        <ele>222</ele>
        <time>2016-10-04T10:42:01Z</time>
      </trkpt>
      <trkpt lat="46.07202" lon="4.80923">
        <ele>222</ele>
        <time>2016-10-04T10:42:03Z</time>
      </trkpt>
      <trkpt lat="46.07198" lon="4.80925">
        <ele>223</ele>
        <time>2016-10-04T10:42:04Z</time>
      </trkpt>
      <trkpt lat="46.07194" lon="4.80928">
        <ele>223</ele>
        <time>2016-10-04T10:42:05Z</time>
      </trkpt>
      <trkpt lat="46.0719" lon="4.80931">
        <ele>223</ele>
        <time>2016-10-04T10:42:06Z</time>
      </trkpt>
      <trkpt lat="46.07181" lon="4.80935">
        <ele>223</ele>
        <time>2016-10-04T10:42:08Z</time>
      </trkpt>
      <trkpt lat="46.07177" lon="4.80938">
        <ele>223</ele>
        <time>2016-10-04T10:42:09Z</time>
      </trkpt>
      <trkpt lat="46.07172" lon="4.80941">
        <ele>223</ele>
        <time>2016-10-04T10:42:10Z</time>
      </trkpt>
      <trkpt lat="46.07168" lon="4.80943">
        <ele>223</ele>
        <time>2016-10-04T10:42:11Z</time>
      </trkpt>
      <trkpt lat="46.07164" lon="4.80946">
        <ele>224</ele>
        <time>2016-10-04T10:42:12Z</time>
      </trkpt>
      <trkpt lat="46.0716" lon="4.8095">
        <ele>224</ele>
        <time>2016-10-04T10:42:13Z</time>
      </trkpt>
      <trkpt lat="46.07152" lon="4.80954">
        <ele>224</ele>
        <time>2016-10-04T10:42:15Z</time>
      </trkpt>
      <trkpt lat="46.07147" lon="4.80956">
        <ele>224</ele>
        <time>2016-10-04T10:42:16Z</time>
      </trkpt>
      <trkpt lat="46.07139" lon="4.80957">
        <ele>224</ele>
        <time>2016-10-04T10:42:18Z</time>
      </trkpt>
      <trkpt lat="46.07135" lon="4.80959">
        <ele>224</ele>
        <time>2016-10-04T10:42:19Z</time>
      </trkpt>
      <trkpt lat="46.07129" lon="4.80963">
        <ele>224</ele>
        <time>2016-10-04T10:42:21Z</time>
      </trkpt>
      <trkpt lat="46.07125" lon="4.80965">
        <ele>224</ele>
        <time>2016-10-04T10:42:22Z</time>
      </trkpt>
      <trkpt lat="46.07118" lon="4.80969">
        <ele>224</ele>
        <time>2016-10-04T10:42:24Z</time>
      </trkpt>
      <trkpt lat="46.07115" lon="4.8097">
        <ele>225</ele>
        <time>2016-10-04T10:42:25Z</time>
      </trkpt>
      <trkpt lat="46.07108" lon="4.80973">
        <ele>225</ele>
        <time>2016-10-04T10:42:27Z</time>
      </trkpt>
      <trkpt lat="46.07104" lon="4.80975">
        <ele>225</ele>
        <time>2016-10-04T10:42:28Z</time>
      </trkpt>
      <trkpt lat="46.07098" lon="4.8098">
        <ele>225</ele>
        <time>2016-10-04T10:42:30Z</time>
      </trkpt>
      <trkpt lat="46.07095" lon="4.80982">
        <ele>225</ele>
        <time>2016-10-04T10:42:31Z</time>
      </trkpt>
      <trkpt lat="46.07089" lon="4.80985">
        <ele>225</ele>
        <time>2016-10-04T10:42:33Z</time>
      </trkpt>
      <trkpt lat="46.07086" lon="4.80988">
        <ele>225</ele>
        <time>2016-10-04T10:42:34Z</time>
      </trkpt>
      <trkpt lat="46.0708" lon="4.80992">
        <ele>225</ele>
        <time>2016-10-04T10:42:36Z</time>
      </trkpt>
      <trkpt lat="46.07077" lon="4.80994">
        <ele>225</ele>
        <time>2016-10-04T10:42:37Z</time>
      </trkpt>
      <trkpt lat="46.07071" lon="4.80998">
        <ele>225</ele>
        <time>2016-10-04T10:42:39Z</time>
      </trkpt>
      <trkpt lat="46.07068" lon="4.80999">
        <ele>226</ele>
        <time>2016-10-04T10:42:40Z</time>
      </trkpt>
      <trkpt lat="46.07062" lon="4.81003">
        <ele>226</ele>
        <time>2016-10-04T10:42:42Z</time>
      </trkpt>
      <trkpt lat="46.07058" lon="4.81005">
        <ele>226</ele>
        <time>2016-10-04T10:42:43Z</time>
      </trkpt>
      <trkpt lat="46.07052" lon="4.81009">
        <ele>226</ele>
        <time>2016-10-04T10:42:45Z</time>
      </trkpt>
      <trkpt lat="46.07049" lon="4.81011">
        <ele>226</ele>
        <time>2016-10-04T10:42:46Z</time>
      </trkpt>
      <trkpt lat="46.07044" lon="4.81013">
        <ele>226</ele>
        <time>2016-10-04T10:42:47Z</time>
      </trkpt>
      <trkpt lat="46.0704" lon="4.81013">
        <ele>226</ele>
        <time>2016-10-04T10:42:48Z</time>
      </trkpt>
      <trkpt lat="46.07033" lon="4.81019">
        <ele>226</ele>
        <time>2016-10-04T10:42:50Z</time>
      </trkpt>
      <trkpt lat="46.0703" lon="4.81022">
        <ele>226</ele>
        <time>2016-10-04T10:42:51Z</time>
      </trkpt>
      <trkpt lat="46.07023" lon="4.81027">
        <ele>226</ele>
        <time>2016-10-04T10:42:53Z</time>
      </trkpt>
      <trkpt lat="46.0702" lon="4.81029">
        <ele>226</ele>
        <time>2016-10-04T10:42:54Z</time>
      </trkpt>
      <trkpt lat="46.07013" lon="4.81033">
        <ele>226</ele>
        <time>2016-10-04T10:42:56Z</time>
      </trkpt>
      <trkpt lat="46.0701" lon="4.81036">
        <ele>226</ele>
        <time>2016-10-04T10:42:57Z</time>
      </trkpt>
      <trkpt lat="46.07003" lon="4.81042">
        <ele>226</ele>
        <time>2016-10-04T10:42:59Z</time>
      </trkpt>
      <trkpt lat="46.07" lon="4.81045">
        <ele>227</ele>
        <time>2016-10-04T10:43:00Z</time>
      </trkpt>
      <trkpt lat="46.06993" lon="4.8105">
        <ele>227</ele>
        <time>2016-10-04T10:43:02Z</time>
      </trkpt>
      <trkpt lat="46.06989" lon="4.81054">
        <ele>227</ele>
        <time>2016-10-04T10:43:03Z</time>
      </trkpt>
      <trkpt lat="46.06982" lon="4.81061">
        <ele>228</ele>
        <time>2016-10-04T10:43:05Z</time>
      </trkpt>
      <trkpt lat="46.06978" lon="4.81065">
        <ele>228</ele>
        <time>2016-10-04T10:43:06Z</time>
      </trkpt>
      <trkpt lat="46.06971" lon="4.81071">
        <ele>228</ele>
        <time>2016-10-04T10:43:08Z</time>
      </trkpt>
      <trkpt lat="46.06967" lon="4.81074">
        <ele>228</ele>
        <time>2016-10-04T10:43:09Z</time>
      </trkpt>
      <trkpt lat="46.0696" lon="4.8108">
        <ele>228</ele>
        <time>2016-10-04T10:43:11Z</time>
      </trkpt>
      <trkpt lat="46.06956" lon="4.81083">
        <ele>228</ele>
        <time>2016-10-04T10:43:12Z</time>
      </trkpt>
      <trkpt lat="46.06952" lon="4.81086">
        <ele>227</ele>
        <time>2016-10-04T10:43:13Z</time>
      </trkpt>
      <trkpt lat="46.06948" lon="4.81089">
        <ele>228</ele>
        <time>2016-10-04T10:43:14Z</time>
      </trkpt>
      <trkpt lat="46.0694" lon="4.81095">
        <ele>228</ele>
        <time>2016-10-04T10:43:16Z</time>
      </trkpt>
      <trkpt lat="46.06936" lon="4.81097">
        <ele>228</ele>
        <time>2016-10-04T10:43:17Z</time>
      </trkpt>
      <trkpt lat="46.06931" lon="4.81099">
        <ele>228</ele>
        <time>2016-10-04T10:43:18Z</time>
      </trkpt>
      <trkpt lat="46.06927" lon="4.81103">
        <ele>228</ele>
        <time>2016-10-04T10:43:19Z</time>
      </trkpt>
      <trkpt lat="46.06923" lon="4.81106">
        <ele>228</ele>
        <time>2016-10-04T10:43:20Z</time>
      </trkpt>
      <trkpt lat="46.06919" lon="4.8111">
        <ele>228</ele>
        <time>2016-10-04T10:43:21Z</time>
      </trkpt>
      <trkpt lat="46.06914" lon="4.81114">
        <ele>229</ele>
        <time>2016-10-04T10:43:22Z</time>
      </trkpt>
      <trkpt lat="46.06909" lon="4.81118">
        <ele>228</ele>
        <time>2016-10-04T10:43:23Z</time>
      </trkpt>
      <trkpt lat="46.06904" lon="4.81122">
        <ele>228</ele>
        <time>2016-10-04T10:43:24Z</time>
      </trkpt>
      <trkpt lat="46.06899" lon="4.81125">
        <ele>228</ele>
        <time>2016-10-04T10:43:25Z</time>
      </trkpt>
      <trkpt lat="46.06895" lon="4.81128">
        <ele>228</ele>
        <time>2016-10-04T10:43:26Z</time>
      </trkpt>
      <trkpt lat="46.0689" lon="4.81132">
        <ele>228</ele>
        <time>2016-10-04T10:43:27Z</time>
      </trkpt>
      <trkpt lat="46.06885" lon="4.81134">
        <ele>228</ele>
        <time>2016-10-04T10:43:28Z</time>
      </trkpt>
      <trkpt lat="46.06881" lon="4.81136">
        <ele>228</ele>
        <time>2016-10-04T10:43:29Z</time>
      </trkpt>
      <trkpt lat="46.06866" lon="4.81142">
        <ele>228</ele>
        <time>2016-10-04T10:43:32Z</time>
      </trkpt>
      <trkpt lat="46.0686" lon="4.81145">
        <ele>228</ele>
        <time>2016-10-04T10:43:33Z</time>
      </trkpt>
      <trkpt lat="46.06855" lon="4.81145">
        <ele>228</ele>
        <time>2016-10-04T10:43:34Z</time>
      </trkpt>
      <trkpt lat="46.0685" lon="4.81146">
        <ele>228</ele>
        <time>2016-10-04T10:43:35Z</time>
      </trkpt>
      <trkpt lat="46.06845" lon="4.8115">
        <ele>228</ele>
        <time>2016-10-04T10:43:36Z</time>
      </trkpt>
      <trkpt lat="46.06839" lon="4.81152">
        <ele>228</ele>
        <time>2016-10-04T10:43:37Z</time>
      </trkpt>
      <trkpt lat="46.06834" lon="4.81155">
        <ele>228</ele>
        <time>2016-10-04T10:43:38Z</time>
      </trkpt>
      <trkpt lat="46.06829" lon="4.81157">
        <ele>228</ele>
        <time>2016-10-04T10:43:39Z</time>
      </trkpt>
      <trkpt lat="46.06824" lon="4.8116">
        <ele>228</ele>
        <time>2016-10-04T10:43:40Z</time>
      </trkpt>
      <trkpt lat="46.06819" lon="4.81162">
        <ele>228</ele>
        <time>2016-10-04T10:43:41Z</time>
      </trkpt>
      <trkpt lat="46.06814" lon="4.81165">
        <ele>228</ele>
        <time>2016-10-04T10:43:42Z</time>
      </trkpt>
      <trkpt lat="46.06809" lon="4.81168">
        <ele>228</ele>
        <time>2016-10-04T10:43:43Z</time>
      </trkpt>
      <trkpt lat="46.06805" lon="4.8117">
        <ele>228</ele>
        <time>2016-10-04T10:43:44Z</time>
      </trkpt>
      <trkpt lat="46.06796" lon="4.81174">
        <ele>228</ele>
        <time>2016-10-04T10:43:46Z</time>
      </trkpt>
      <trkpt lat="46.06792" lon="4.81175">
        <ele>228</ele>
        <time>2016-10-04T10:43:47Z</time>
      </trkpt>
      <trkpt lat="46.06784" lon="4.8118">
        <ele>229</ele>
        <time>2016-10-04T10:43:49Z</time>
      </trkpt>
      <trkpt lat="46.0678" lon="4.81183">
        <ele>229</ele>
        <time>2016-10-04T10:43:50Z</time>
      </trkpt>
      <trkpt lat="46.06772" lon="4.81189">
        <ele>229</ele>
        <time>2016-10-04T10:43:52Z</time>
      </trkpt>
      <trkpt lat="46.06768" lon="4.81193">
        <ele>229</ele>
        <time>2016-10-04T10:43:53Z</time>
      </trkpt>
      <trkpt lat="46.06763" lon="4.81197">
        <ele>229</ele>
        <time>2016-10-04T10:43:54Z</time>
      </trkpt>
      <trkpt lat="46.0676" lon="4.81202">
        <ele>229</ele>
        <time>2016-10-04T10:43:55Z</time>
      </trkpt>
      <trkpt lat="46.06756" lon="4.81207">
        <ele>229</ele>
        <time>2016-10-04T10:43:56Z</time>
      </trkpt>
      <trkpt lat="46.06752" lon="4.81212">
        <ele>229</ele>
        <time>2016-10-04T10:43:57Z</time>
      </trkpt>
      <trkpt lat="46.06749" lon="4.81219">
        <ele>230</ele>
        <time>2016-10-04T10:43:58Z</time>
      </trkpt>
      <trkpt lat="46.06746" lon="4.81226">
        <ele>230</ele>
        <time>2016-10-04T10:43:59Z</time>
      </trkpt>
      <trkpt lat="46.06742" lon="4.81232">
        <ele>230</ele>
        <time>2016-10-04T10:44:00Z</time>
      </trkpt>
      <trkpt lat="46.06739" lon="4.81238">
        <ele>230</ele>
        <time>2016-10-04T10:44:01Z</time>
      </trkpt>
      <trkpt lat="46.06736" lon="4.81244">
        <ele>230</ele>
        <time>2016-10-04T10:44:02Z</time>
      </trkpt>
      <trkpt lat="46.06733" lon="4.8125">
        <ele>230</ele>
        <time>2016-10-04T10:44:03Z</time>
      </trkpt>
      <trkpt lat="46.0673" lon="4.81256">
        <ele>231</ele>
        <time>2016-10-04T10:44:04Z</time>
      </trkpt>
      <trkpt lat="46.06728" lon="4.81264">
        <ele>231</ele>
        <time>2016-10-04T10:44:05Z</time>
      </trkpt>
      <trkpt lat="46.06724" lon="4.81269">
        <ele>231</ele>
        <time>2016-10-04T10:44:06Z</time>
      </trkpt>
      <trkpt lat="46.06721" lon="4.81275">
        <ele>231</ele>
        <time>2016-10-04T10:44:07Z</time>
      </trkpt>
      <trkpt lat="46.06718" lon="4.8128">
        <ele>232</ele>
        <time>2016-10-04T10:44:08Z</time>
      </trkpt>
      <trkpt lat="46.06714" lon="4.81285">
        <ele>232</ele>
        <time>2016-10-04T10:44:09Z</time>
      </trkpt>
      <trkpt lat="46.06711" lon="4.8129">
        <ele>232</ele>
        <time>2016-10-04T10:44:10Z</time>
      </trkpt>
      <trkpt lat="46.06707" lon="4.81294">
        <ele>232</ele>
        <time>2016-10-04T10:44:11Z</time>
      </trkpt>
      <trkpt lat="46.06704" lon="4.81299">
        <ele>232</ele>
        <time>2016-10-04T10:44:12Z</time>
      </trkpt>
      <trkpt lat="46.06701" lon="4.81304">
        <ele>232</ele>
        <time>2016-10-04T10:44:13Z</time>
      </trkpt>
      <trkpt lat="46.06694" lon="4.81313">
        <ele>232</ele>
        <time>2016-10-04T10:44:15Z</time>
      </trkpt>
      <trkpt lat="46.06692" lon="4.81318">
        <ele>232</ele>
        <time>2016-10-04T10:44:16Z</time>
      </trkpt>
      <trkpt lat="46.06686" lon="4.81328">
        <ele>232</ele>
        <time>2016-10-04T10:44:18Z</time>
      </trkpt>
      <trkpt lat="46.06684" lon="4.81334">
        <ele>233</ele>
        <time>2016-10-04T10:44:19Z</time>
      </trkpt>
      <trkpt lat="46.06679" lon="4.81344">
        <ele>233</ele>
        <time>2016-10-04T10:44:21Z</time>
      </trkpt>
      <trkpt lat="46.06676" lon="4.81349">
        <ele>233</ele>
        <time>2016-10-04T10:44:22Z</time>
      </trkpt>
      <trkpt lat="46.06671" lon="4.81359">
        <ele>233</ele>
        <time>2016-10-04T10:44:24Z</time>
      </trkpt>
      <trkpt lat="46.06668" lon="4.81364">
        <ele>233</ele>
        <time>2016-10-04T10:44:25Z</time>
      </trkpt>
      <trkpt lat="46.06665" lon="4.81369">
        <ele>233</ele>
        <time>2016-10-04T10:44:26Z</time>
      </trkpt>
      <trkpt lat="46.06662" lon="4.81374">
        <ele>233</ele>
        <time>2016-10-04T10:44:27Z</time>
      </trkpt>
      <trkpt lat="46.06656" lon="4.81383">
        <ele>233</ele>
        <time>2016-10-04T10:44:29Z</time>
      </trkpt>
      <trkpt lat="46.06652" lon="4.81387">
        <ele>233</ele>
        <time>2016-10-04T10:44:30Z</time>
      </trkpt>
      <trkpt lat="46.06646" lon="4.81396">
        <ele>233</ele>
        <time>2016-10-04T10:44:32Z</time>
      </trkpt>
      <trkpt lat="46.06643" lon="4.814">
        <ele>233</ele>
        <time>2016-10-04T10:44:33Z</time>
      </trkpt>
      <trkpt lat="46.06636" lon="4.81409">
        <ele>233</ele>
        <time>2016-10-04T10:44:35Z</time>
      </trkpt>
      <trkpt lat="46.06633" lon="4.81414">
        <ele>233</ele>
        <time>2016-10-04T10:44:36Z</time>
      </trkpt>
      <trkpt lat="46.06628" lon="4.81423">
        <ele>232</ele>
        <time>2016-10-04T10:44:38Z</time>
      </trkpt>
      <trkpt lat="46.06624" lon="4.81428">
        <ele>232</ele>
        <time>2016-10-04T10:44:39Z</time>
      </trkpt>
      <trkpt lat="46.06621" lon="4.81433">
        <ele>232</ele>
        <time>2016-10-04T10:44:40Z</time>
      </trkpt>
      <trkpt lat="46.06618" lon="4.81438">
        <ele>232</ele>
        <time>2016-10-04T10:44:41Z</time>
      </trkpt>
      <trkpt lat="46.06614" lon="4.81443">
        <ele>232</ele>
        <time>2016-10-04T10:44:42Z</time>
      </trkpt>
      <trkpt lat="46.06611" lon="4.81448">
        <ele>232</ele>
        <time>2016-10-04T10:44:43Z</time>
      </trkpt>
      <trkpt lat="46.06607" lon="4.81453">
        <ele>232</ele>
        <time>2016-10-04T10:44:44Z</time>
      </trkpt>
      <trkpt lat="46.06604" lon="4.81458">
        <ele>232</ele>
        <time>2016-10-04T10:44:45Z</time>
      </trkpt>
      <trkpt lat="46.066" lon="4.81463">
        <ele>232</ele>
        <time>2016-10-04T10:44:46Z</time>
      </trkpt>
      <trkpt lat="46.06597" lon="4.81468">
        <ele>232</ele>
        <time>2016-10-04T10:44:47Z</time>
      </trkpt>
      <trkpt lat="46.06593" lon="4.81473">
        <ele>232</ele>
        <time>2016-10-04T10:44:48Z</time>
      </trkpt>
      <trkpt lat="46.0659" lon="4.81479">
        <ele>232</ele>
        <time>2016-10-04T10:44:49Z</time>
      </trkpt>
      <trkpt lat="46.06586" lon="4.81483">
        <ele>232</ele>
        <time>2016-10-04T10:44:50Z</time>
      </trkpt>
      <trkpt lat="46.06583" lon="4.81488">
        <ele>233</ele>
        <time>2016-10-04T10:44:51Z</time>
      </trkpt>
      <trkpt lat="46.06579" lon="4.81494">
        <ele>232</ele>
        <time>2016-10-04T10:44:52Z</time>
      </trkpt>
      <trkpt lat="46.06576" lon="4.81499">
        <ele>232</ele>
        <time>2016-10-04T10:44:53Z</time>
      </trkpt>
      <trkpt lat="46.06573" lon="4.81504">
        <ele>233</ele>
        <time>2016-10-04T10:44:54Z</time>
      </trkpt>
      <trkpt lat="46.06569" lon="4.81509">
        <ele>233</ele>
        <time>2016-10-04T10:44:55Z</time>
      </trkpt>
      <trkpt lat="46.06566" lon="4.81513">
        <ele>233</ele>
        <time>2016-10-04T10:44:56Z</time>
      </trkpt>
      <trkpt lat="46.06563" lon="4.81518">
        <ele>233</ele>
        <time>2016-10-04T10:44:57Z</time>
      </trkpt>
      <trkpt lat="46.0656" lon="4.81523">
        <ele>233</ele>
        <time>2016-10-04T10:44:58Z</time>
      </trkpt>
      <trkpt lat="46.06556" lon="4.81528">
        <ele>233</ele>
        <time>2016-10-04T10:44:59Z</time>
      </trkpt>
      <trkpt lat="46.06552" lon="4.81533">
        <ele>234</ele>
        <time>2016-10-04T10:45:00Z</time>
      </trkpt>
      <trkpt lat="46.06549" lon="4.81539">
        <ele>234</ele>
        <time>2016-10-04T10:45:01Z</time>
      </trkpt>
      <trkpt lat="46.06545" lon="4.81545">
        <ele>234</ele>
        <time>2016-10-04T10:45:02Z</time>
      </trkpt>
      <trkpt lat="46.06541" lon="4.8155">
        <ele>234</ele>
        <time>2016-10-04T10:45:03Z</time>
      </trkpt>
      <trkpt lat="46.06536" lon="4.81555">
        <ele>234</ele>
        <time>2016-10-04T10:45:04Z</time>
      </trkpt>
      <trkpt lat="46.06532" lon="4.8156">
        <ele>234</ele>
        <time>2016-10-04T10:45:05Z</time>
      </trkpt>
      <trkpt lat="46.06527" lon="4.81565">
        <ele>234</ele>
        <time>2016-10-04T10:45:06Z</time>
      </trkpt>
      <trkpt lat="46.06523" lon="4.81568">
        <ele>234</ele>
        <time>2016-10-04T10:45:07Z</time>
      </trkpt>
      <trkpt lat="46.06518" lon="4.81571">
        <ele>234</ele>
        <time>2016-10-04T10:45:08Z</time>
      </trkpt>
      <trkpt lat="46.06514" lon="4.81574">
        <ele>234</ele>
        <time>2016-10-04T10:45:09Z</time>
      </trkpt>
      <trkpt lat="46.06509" lon="4.81577">
        <ele>234</ele>
        <time>2016-10-04T10:45:10Z</time>
      </trkpt>
      <trkpt lat="46.06504" lon="4.81579">
        <ele>234</ele>
        <time>2016-10-04T10:45:11Z</time>
      </trkpt>
      <trkpt lat="46.06499" lon="4.81582">
        <ele>234</ele>
        <time>2016-10-04T10:45:12Z</time>
      </trkpt>
      <trkpt lat="46.06493" lon="4.81584">
        <ele>234</ele>
        <time>2016-10-04T10:45:13Z</time>
      </trkpt>
      <trkpt lat="46.06488" lon="4.81586">
        <ele>234</ele>
        <time>2016-10-04T10:45:14Z</time>
      </trkpt>
      <trkpt lat="46.06482" lon="4.81588">
        <ele>234</ele>
        <time>2016-10-04T10:45:15Z</time>
      </trkpt>
      <trkpt lat="46.06477" lon="4.8159">
        <ele>234</ele>
        <time>2016-10-04T10:45:16Z</time>
      </trkpt>
      <trkpt lat="46.06471" lon="4.81592">
        <ele>234</ele>
        <time>2016-10-04T10:45:17Z</time>
      </trkpt>
      <trkpt lat="46.06466" lon="4.81594">
        <ele>234</ele>
        <time>2016-10-04T10:45:18Z</time>
      </trkpt>
      <trkpt lat="46.06461" lon="4.81596">
        <ele>234</ele>
        <time>2016-10-04T10:45:19Z</time>
      </trkpt>
      <trkpt lat="46.06456" lon="4.81599">
        <ele>234</ele>
        <time>2016-10-04T10:45:20Z</time>
      </trkpt>
      <trkpt lat="46.06451" lon="4.816">
        <ele>234</ele>
        <time>2016-10-04T10:45:21Z</time>
      </trkpt>
      <trkpt lat="46.06446" lon="4.81603">
        <ele>234</ele>
        <time>2016-10-04T10:45:22Z</time>
      </trkpt>
      <trkpt lat="46.06442" lon="4.81605">
        <ele>234</ele>
        <time>2016-10-04T10:45:23Z</time>
      </trkpt>
      <trkpt lat="46.06437" lon="4.81607">
        <ele>234</ele>
        <time>2016-10-04T10:45:24Z</time>
      </trkpt>
      <trkpt lat="46.06432" lon="4.81609">
        <ele>234</ele>
        <time>2016-10-04T10:45:25Z</time>
      </trkpt>
      <trkpt lat="46.06428" lon="4.81611">
        <ele>234</ele>
        <time>2016-10-04T10:45:26Z</time>
      </trkpt>
      <trkpt lat="46.06423" lon="4.81613">
        <ele>234</ele>
        <time>2016-10-04T10:45:27Z</time>
      </trkpt>
      <trkpt lat="46.06418" lon="4.81615">
        <ele>234</ele>
        <time>2016-10-04T10:45:28Z</time>
      </trkpt>
      <trkpt lat="46.06413" lon="4.81618">
        <ele>235</ele>
        <time>2016-10-04T10:45:29Z</time>
      </trkpt>
      <trkpt lat="46.06408" lon="4.8162">
        <ele>235</ele>
        <time>2016-10-04T10:45:30Z</time>
      </trkpt>
      <trkpt lat="46.06403" lon="4.81622">
        <ele>235</ele>
        <time>2016-10-04T10:45:31Z</time>
      </trkpt>
      <trkpt lat="46.06398" lon="4.81623">
        <ele>235</ele>
        <time>2016-10-04T10:45:32Z</time>
      </trkpt>
      <trkpt lat="46.06393" lon="4.81625">
        <ele>234</ele>
        <time>2016-10-04T10:45:33Z</time>
      </trkpt>
      <trkpt lat="46.06388" lon="4.81627">
        <ele>234</ele>
        <time>2016-10-04T10:45:34Z</time>
      </trkpt>
      <trkpt lat="46.06383" lon="4.8163">
        <ele>234</ele>
        <time>2016-10-04T10:45:35Z</time>
      </trkpt>
      <trkpt lat="46.06378" lon="4.81631">
        <ele>234</ele>
        <time>2016-10-04T10:45:36Z</time>
      </trkpt>
      <trkpt lat="46.06373" lon="4.81634">
        <ele>234</ele>
        <time>2016-10-04T10:45:37Z</time>
      </trkpt>
      <trkpt lat="46.06368" lon="4.81636">
        <ele>234</ele>
        <time>2016-10-04T10:45:38Z</time>
      </trkpt>
      <trkpt lat="46.06363" lon="4.81639">
        <ele>234</ele>
        <time>2016-10-04T10:45:39Z</time>
      </trkpt>
      <trkpt lat="46.06358" lon="4.81641">
        <ele>234</ele>
        <time>2016-10-04T10:45:40Z</time>
      </trkpt>
      <trkpt lat="46.06354" lon="4.81643">
        <ele>234</ele>
        <time>2016-10-04T10:45:41Z</time>
      </trkpt>
      <trkpt lat="46.06349" lon="4.81645">
        <ele>234</ele>
        <time>2016-10-04T10:45:42Z</time>
      </trkpt>
      <trkpt lat="46.06344" lon="4.81647">
        <ele>234</ele>
        <time>2016-10-04T10:45:43Z</time>
      </trkpt>
      <trkpt lat="46.06339" lon="4.81649">
        <ele>234</ele>
        <time>2016-10-04T10:45:44Z</time>
      </trkpt>
      <trkpt lat="46.06334" lon="4.81651">
        <ele>234</ele>
        <time>2016-10-04T10:45:45Z</time>
      </trkpt>
      <trkpt lat="46.0633" lon="4.81653">
        <ele>235</ele>
        <time>2016-10-04T10:45:46Z</time>
      </trkpt>
      <trkpt lat="46.06325" lon="4.81656">
        <ele>235</ele>
        <time>2016-10-04T10:45:47Z</time>
      </trkpt>
      <trkpt lat="46.0632" lon="4.81658">
        <ele>235</ele>
        <time>2016-10-04T10:45:48Z</time>
      </trkpt>
      <trkpt lat="46.06316" lon="4.81661">
        <ele>235</ele>
        <time>2016-10-04T10:45:49Z</time>
      </trkpt>
      <trkpt lat="46.06311" lon="4.81663">
        <ele>235</ele>
        <time>2016-10-04T10:45:50Z</time>
      </trkpt>
      <trkpt lat="46.06307" lon="4.81664">
        <ele>235</ele>
        <time>2016-10-04T10:45:51Z</time>
      </trkpt>
      <trkpt lat="46.06302" lon="4.81666">
        <ele>235</ele>
        <time>2016-10-04T10:45:52Z</time>
      </trkpt>
      <trkpt lat="46.06297" lon="4.81668">
        <ele>235</ele>
        <time>2016-10-04T10:45:53Z</time>
      </trkpt>
      <trkpt lat="46.06293" lon="4.8167">
        <ele>235</ele>
        <time>2016-10-04T10:45:54Z</time>
      </trkpt>
      <trkpt lat="46.06288" lon="4.81672">
        <ele>235</ele>
        <time>2016-10-04T10:45:55Z</time>
      </trkpt>
      <trkpt lat="46.06284" lon="4.81674">
        <ele>235</ele>
        <time>2016-10-04T10:45:56Z</time>
      </trkpt>
      <trkpt lat="46.06279" lon="4.81676">
        <ele>235</ele>
        <time>2016-10-04T10:45:57Z</time>
      </trkpt>
      <trkpt lat="46.06274" lon="4.81678">
        <ele>235</ele>
        <time>2016-10-04T10:45:58Z</time>
      </trkpt>
      <trkpt lat="46.06269" lon="4.8168">
        <ele>235</ele>
        <time>2016-10-04T10:45:59Z</time>
      </trkpt>
      <trkpt lat="46.06265" lon="4.81682">
        <ele>235</ele>
        <time>2016-10-04T10:46:00Z</time>
      </trkpt>
      <trkpt lat="46.06259" lon="4.81684">
        <ele>235</ele>
        <time>2016-10-04T10:46:01Z</time>
      </trkpt>
      <trkpt lat="46.06254" lon="4.81687">
        <ele>235</ele>
        <time>2016-10-04T10:46:02Z</time>
      </trkpt>
      <trkpt lat="46.06249" lon="4.81689">
        <ele>237</ele>
        <time>2016-10-04T10:46:03Z</time>
      </trkpt>
      <trkpt lat="46.06244" lon="4.81691">
        <ele>237</ele>
        <time>2016-10-04T10:46:04Z</time>
      </trkpt>
      <trkpt lat="46.06238" lon="4.81693">
        <ele>237</ele>
        <time>2016-10-04T10:46:05Z</time>
      </trkpt>
      <trkpt lat="46.06233" lon="4.81695">
        <ele>237</ele>
        <time>2016-10-04T10:46:06Z</time>
      </trkpt>
      <trkpt lat="46.06228" lon="4.81698">
        <ele>237</ele>
        <time>2016-10-04T10:46:07Z</time>
      </trkpt>
      <trkpt lat="46.06224" lon="4.817">
        <ele>237</ele>
        <time>2016-10-04T10:46:08Z</time>
      </trkpt>
      <trkpt lat="46.06219" lon="4.81702">
        <ele>238</ele>
        <time>2016-10-04T10:46:09Z</time>
      </trkpt>
      <trkpt lat="46.06214" lon="4.81705">
        <ele>238</ele>
        <time>2016-10-04T10:46:10Z</time>
      </trkpt>
      <trkpt lat="46.0621" lon="4.81707">
        <ele>238</ele>
        <time>2016-10-04T10:46:11Z</time>
      </trkpt>
      <trkpt lat="46.06205" lon="4.8171">
        <ele>238</ele>
        <time>2016-10-04T10:46:12Z</time>
      </trkpt>
      <trkpt lat="46.06201" lon="4.81713">
        <ele>238</ele>
        <time>2016-10-04T10:46:13Z</time>
      </trkpt>
      <trkpt lat="46.06196" lon="4.81715">
        <ele>238</ele>
        <time>2016-10-04T10:46:14Z</time>
      </trkpt>
      <trkpt lat="46.06191" lon="4.81718">
        <ele>238</ele>
        <time>2016-10-04T10:46:15Z</time>
      </trkpt>
      <trkpt lat="46.06186" lon="4.8172">
        <ele>238</ele>
        <time>2016-10-04T10:46:16Z</time>
      </trkpt>
      <trkpt lat="46.06182" lon="4.81721">
        <ele>238</ele>
        <time>2016-10-04T10:46:17Z</time>
      </trkpt>
      <trkpt lat="46.06177" lon="4.81723">
        <ele>238</ele>
        <time>2016-10-04T10:46:18Z</time>
      </trkpt>
      <trkpt lat="46.06172" lon="4.81725">
        <ele>238</ele>
        <time>2016-10-04T10:46:19Z</time>
      </trkpt>
      <trkpt lat="46.06167" lon="4.81727">
        <ele>240</ele>
        <time>2016-10-04T10:46:20Z</time>
      </trkpt>
      <trkpt lat="46.06162" lon="4.8173">
        <ele>240</ele>
        <time>2016-10-04T10:46:21Z</time>
      </trkpt>
      <trkpt lat="46.06157" lon="4.81732">
        <ele>240</ele>
        <time>2016-10-04T10:46:22Z</time>
      </trkpt>
      <trkpt lat="46.06152" lon="4.81734">
        <ele>240</ele>
        <time>2016-10-04T10:46:23Z</time>
      </trkpt>
      <trkpt lat="46.06148" lon="4.81737">
        <ele>240</ele>
        <time>2016-10-04T10:46:24Z</time>
      </trkpt>
      <trkpt lat="46.06143" lon="4.81739">
        <ele>240</ele>
        <time>2016-10-04T10:46:25Z</time>
      </trkpt>
      <trkpt lat="46.06139" lon="4.81741">
        <ele>240</ele>
        <time>2016-10-04T10:46:26Z</time>
      </trkpt>
      <trkpt lat="46.06135" lon="4.81743">
        <ele>240</ele>
        <time>2016-10-04T10:46:27Z</time>
      </trkpt>
      <trkpt lat="46.0613" lon="4.81745">
        <ele>241</ele>
        <time>2016-10-04T10:46:28Z</time>
      </trkpt>
      <trkpt lat="46.06126" lon="4.81747">
        <ele>241</ele>
        <time>2016-10-04T10:46:29Z</time>
      </trkpt>
      <trkpt lat="46.06121" lon="4.81748">
        <ele>241</ele>
        <time>2016-10-04T10:46:30Z</time>
      </trkpt>
      <trkpt lat="46.06117" lon="4.8175">
        <ele>241</ele>
        <time>2016-10-04T10:46:31Z</time>
      </trkpt>
      <trkpt lat="46.06112" lon="4.81752">
        <ele>241</ele>
        <time>2016-10-04T10:46:32Z</time>
      </trkpt>
      <trkpt lat="46.06108" lon="4.81754">
        <ele>241</ele>
        <time>2016-10-04T10:46:33Z</time>
      </trkpt>
      <trkpt lat="46.06103" lon="4.81756">
        <ele>241</ele>
        <time>2016-10-04T10:46:34Z</time>
      </trkpt>
      <trkpt lat="46.06099" lon="4.81758">
        <ele>241</ele>
        <time>2016-10-04T10:46:35Z</time>
      </trkpt>
      <trkpt lat="46.06095" lon="4.8176">
        <ele>241</ele>
        <time>2016-10-04T10:46:36Z</time>
      </trkpt>
      <trkpt lat="46.0609" lon="4.81761">
        <ele>241</ele>
        <time>2016-10-04T10:46:37Z</time>
      </trkpt>
      <trkpt lat="46.06086" lon="4.81764">
        <ele>241</ele>
        <time>2016-10-04T10:46:38Z</time>
      </trkpt>
      <trkpt lat="46.06081" lon="4.81766">
        <ele>242</ele>
        <time>2016-10-04T10:46:39Z</time>
      </trkpt>
      <trkpt lat="46.06077" lon="4.81768">
        <ele>243</ele>
        <time>2016-10-04T10:46:40Z</time>
      </trkpt>
      <trkpt lat="46.06072" lon="4.81769">
        <ele>243</ele>
        <time>2016-10-04T10:46:41Z</time>
      </trkpt>
      <trkpt lat="46.06064" lon="4.81774">
        <ele>243</ele>
        <time>2016-10-04T10:46:43Z</time>
      </trkpt>
      <trkpt lat="46.0606" lon="4.81776">
        <ele>243</ele>
        <time>2016-10-04T10:46:44Z</time>
      </trkpt>
      <trkpt lat="46.06055" lon="4.81777">
        <ele>243</ele>
        <time>2016-10-04T10:46:45Z</time>
      </trkpt>
      <trkpt lat="46.06051" lon="4.81779">
        <ele>243</ele>
        <time>2016-10-04T10:46:46Z</time>
      </trkpt>
      <trkpt lat="46.06046" lon="4.81782">
        <ele>243</ele>
        <time>2016-10-04T10:46:47Z</time>
      </trkpt>
      <trkpt lat="46.06042" lon="4.81784">
        <ele>243</ele>
        <time>2016-10-04T10:46:48Z</time>
      </trkpt>
      <trkpt lat="46.06038" lon="4.81786">
        <ele>243</ele>
        <time>2016-10-04T10:46:49Z</time>
      </trkpt>
      <trkpt lat="46.06033" lon="4.81788">
        <ele>243</ele>
        <time>2016-10-04T10:46:50Z</time>
      </trkpt>
      <trkpt lat="46.06028" lon="4.81791">
        <ele>243</ele>
        <time>2016-10-04T10:46:51Z</time>
      </trkpt>
      <trkpt lat="46.06024" lon="4.81793">
        <ele>243</ele>
        <time>2016-10-04T10:46:52Z</time>
      </trkpt>
      <trkpt lat="46.06019" lon="4.81795">
        <ele>243</ele>
        <time>2016-10-04T10:46:53Z</time>
      </trkpt>
      <trkpt lat="46.06014" lon="4.81797">
        <ele>243</ele>
        <time>2016-10-04T10:46:54Z</time>
      </trkpt>
      <trkpt lat="46.0601" lon="4.81798">
        <ele>243</ele>
        <time>2016-10-04T10:46:55Z</time>
      </trkpt>
      <trkpt lat="46.06006" lon="4.818">
        <ele>243</ele>
        <time>2016-10-04T10:46:56Z</time>
      </trkpt>
      <trkpt lat="46.06001" lon="4.81802">
        <ele>243</ele>
        <time>2016-10-04T10:46:57Z</time>
      </trkpt>
      <trkpt lat="46.05996" lon="4.81804">
        <ele>244</ele>
        <time>2016-10-04T10:46:58Z</time>
      </trkpt>
      <trkpt lat="46.05992" lon="4.81805">
        <ele>244</ele>
        <time>2016-10-04T10:46:59Z</time>
      </trkpt>
      <trkpt lat="46.05987" lon="4.81807">
        <ele>244</ele>
        <time>2016-10-04T10:47:00Z</time>
      </trkpt>
      <trkpt lat="46.05983" lon="4.81809">
        <ele>244</ele>
        <time>2016-10-04T10:47:01Z</time>
      </trkpt>
      <trkpt lat="46.05978" lon="4.81811">
        <ele>244</ele>
        <time>2016-10-04T10:47:02Z</time>
      </trkpt>
      <trkpt lat="46.05973" lon="4.81812">
        <ele>244</ele>
        <time>2016-10-04T10:47:03Z</time>
      </trkpt>
      <trkpt lat="46.05968" lon="4.81815">
        <ele>244</ele>
        <time>2016-10-04T10:47:04Z</time>
      </trkpt>
      <trkpt lat="46.05962" lon="4.81817">
        <ele>245</ele>
        <time>2016-10-04T10:47:05Z</time>
      </trkpt>
      <trkpt lat="46.05957" lon="4.81819">
        <ele>245</ele>
        <time>2016-10-04T10:47:06Z</time>
      </trkpt>
      <trkpt lat="46.05952" lon="4.8182">
        <ele>245</ele>
        <time>2016-10-04T10:47:07Z</time>
      </trkpt>
      <trkpt lat="46.05947" lon="4.81823">
        <ele>245</ele>
        <time>2016-10-04T10:47:08Z</time>
      </trkpt>
      <trkpt lat="46.05942" lon="4.81825">
        <ele>245</ele>
        <time>2016-10-04T10:47:09Z</time>
      </trkpt>
      <trkpt lat="46.05937" lon="4.81827">
        <ele>245</ele>
        <time>2016-10-04T10:47:10Z</time>
      </trkpt>
      <trkpt lat="46.05933" lon="4.81829">
        <ele>245</ele>
        <time>2016-10-04T10:47:11Z</time>
      </trkpt>
      <trkpt lat="46.05928" lon="4.81831">
        <ele>245</ele>
        <time>2016-10-04T10:47:12Z</time>
      </trkpt>
      <trkpt lat="46.05923" lon="4.81833">
        <ele>246</ele>
        <time>2016-10-04T10:47:13Z</time>
      </trkpt>
      <trkpt lat="46.05918" lon="4.81835">
        <ele>246</ele>
        <time>2016-10-04T10:47:14Z</time>
      </trkpt>
      <trkpt lat="46.05913" lon="4.81838">
        <ele>246</ele>
        <time>2016-10-04T10:47:15Z</time>
      </trkpt>
      <trkpt lat="46.05908" lon="4.8184">
        <ele>246</ele>
        <time>2016-10-04T10:47:16Z</time>
      </trkpt>
      <trkpt lat="46.05903" lon="4.81843">
        <ele>246</ele>
        <time>2016-10-04T10:47:17Z</time>
      </trkpt>
      <trkpt lat="46.05899" lon="4.81846">
        <ele>246</ele>
        <time>2016-10-04T10:47:18Z</time>
      </trkpt>
      <trkpt lat="46.05894" lon="4.81848">
        <ele>246</ele>
        <time>2016-10-04T10:47:19Z</time>
      </trkpt>
      <trkpt lat="46.05889" lon="4.81851">
        <ele>246</ele>
        <time>2016-10-04T10:47:20Z</time>
      </trkpt>
      <trkpt lat="46.05881" lon="4.81855">
        <ele>247</ele>
        <time>2016-10-04T10:47:22Z</time>
      </trkpt>
      <trkpt lat="46.05877" lon="4.81857">
        <ele>247</ele>
        <time>2016-10-04T10:47:23Z</time>
      </trkpt>
      <trkpt lat="46.05872" lon="4.81859">
        <ele>247</ele>
        <time>2016-10-04T10:47:24Z</time>
      </trkpt>
      <trkpt lat="46.05867" lon="4.8186">
        <ele>247</ele>
        <time>2016-10-04T10:47:25Z</time>
      </trkpt>
      <trkpt lat="46.0586" lon="4.81864">
        <ele>247</ele>
        <time>2016-10-04T10:47:27Z</time>
      </trkpt>
      <trkpt lat="46.05856" lon="4.81866">
        <ele>247</ele>
        <time>2016-10-04T10:47:28Z</time>
      </trkpt>
      <trkpt lat="46.05852" lon="4.81869">
        <ele>247</ele>
        <time>2016-10-04T10:47:29Z</time>
      </trkpt>
      <trkpt lat="46.05847" lon="4.81871">
        <ele>247</ele>
        <time>2016-10-04T10:47:30Z</time>
      </trkpt>
      <trkpt lat="46.05843" lon="4.81873">
        <ele>247</ele>
        <time>2016-10-04T10:47:31Z</time>
      </trkpt>
      <trkpt lat="46.05838" lon="4.81874">
        <ele>247</ele>
        <time>2016-10-04T10:47:32Z</time>
      </trkpt>
      <trkpt lat="46.05833" lon="4.81876">
        <ele>248</ele>
        <time>2016-10-04T10:47:33Z</time>
      </trkpt>
      <trkpt lat="46.05828" lon="4.81879">
        <ele>248</ele>
        <time>2016-10-04T10:47:34Z</time>
      </trkpt>
      <trkpt lat="46.05822" lon="4.81881">
        <ele>248</ele>
        <time>2016-10-04T10:47:35Z</time>
      </trkpt>
      <trkpt lat="46.05817" lon="4.81884">
        <ele>248</ele>
        <time>2016-10-04T10:47:36Z</time>
      </trkpt>
      <trkpt lat="46.05812" lon="4.81886">
        <ele>248</ele>
        <time>2016-10-04T10:47:37Z</time>
      </trkpt>
      <trkpt lat="46.05806" lon="4.81888">
        <ele>248</ele>
        <time>2016-10-04T10:47:38Z</time>
      </trkpt>
      <trkpt lat="46.05801" lon="4.8189">
        <ele>248</ele>
        <time>2016-10-04T10:47:39Z</time>
      </trkpt>
      <trkpt lat="46.05796" lon="4.81893">
        <ele>248</ele>
        <time>2016-10-04T10:47:40Z</time>
      </trkpt>
      <trkpt lat="46.05791" lon="4.81894">
        <ele>248</ele>
        <time>2016-10-04T10:47:41Z</time>
      </trkpt>
      <trkpt lat="46.05786" lon="4.81896">
        <ele>248</ele>
        <time>2016-10-04T10:47:42Z</time>
      </trkpt>
      <trkpt lat="46.05782" lon="4.81899">
        <ele>248</ele>
        <time>2016-10-04T10:47:43Z</time>
      </trkpt>
      <trkpt lat="46.05777" lon="4.819">
        <ele>248</ele>
        <time>2016-10-04T10:47:44Z</time>
      </trkpt>
      <trkpt lat="46.05773" lon="4.81902">
        <ele>248</ele>
        <time>2016-10-04T10:47:45Z</time>
      </trkpt>
      <trkpt lat="46.05768" lon="4.81904">
        <ele>248</ele>
        <time>2016-10-04T10:47:46Z</time>
      </trkpt>
      <trkpt lat="46.05763" lon="4.81906">
        <ele>248</ele>
        <time>2016-10-04T10:47:47Z</time>
      </trkpt>
      <trkpt lat="46.05759" lon="4.81909">
        <ele>249</ele>
        <time>2016-10-04T10:47:48Z</time>
      </trkpt>
      <trkpt lat="46.05754" lon="4.81911">
        <ele>249</ele>
        <time>2016-10-04T10:47:49Z</time>
      </trkpt>
      <trkpt lat="46.05749" lon="4.81913">
        <ele>249</ele>
        <time>2016-10-04T10:47:50Z</time>
      </trkpt>
      <trkpt lat="46.05745" lon="4.81915">
        <ele>249</ele>
        <time>2016-10-04T10:47:51Z</time>
      </trkpt>
      <trkpt lat="46.05741" lon="4.81916">
        <ele>249</ele>
        <time>2016-10-04T10:47:52Z</time>
      </trkpt>
      <trkpt lat="46.05736" lon="4.81917">
        <ele>250</ele>
        <time>2016-10-04T10:47:53Z</time>
      </trkpt>
      <trkpt lat="46.05732" lon="4.81919">
        <ele>250</ele>
        <time>2016-10-04T10:47:54Z</time>
      </trkpt>
      <trkpt lat="46.05727" lon="4.81921">
        <ele>250</ele>
        <time>2016-10-04T10:47:55Z</time>
      </trkpt>
      <trkpt lat="46.05723" lon="4.81923">
        <ele>250</ele>
        <time>2016-10-04T10:47:56Z</time>
      </trkpt>
      <trkpt lat="46.05718" lon="4.81925">
        <ele>250</ele>
        <time>2016-10-04T10:47:57Z</time>
      </trkpt>
      <trkpt lat="46.05713" lon="4.81927">
        <ele>250</ele>
        <time>2016-10-04T10:47:58Z</time>
      </trkpt>
      <trkpt lat="46.05709" lon="4.8193">
        <ele>250</ele>
        <time>2016-10-04T10:47:59Z</time>
      </trkpt>
      <trkpt lat="46.05705" lon="4.81932">
        <ele>250</ele>
        <time>2016-10-04T10:48:00Z</time>
      </trkpt>
      <trkpt lat="46.057" lon="4.81934">
        <ele>250</ele>
        <time>2016-10-04T10:48:01Z</time>
      </trkpt>
      <trkpt lat="46.05695" lon="4.81936">
        <ele>250</ele>
        <time>2016-10-04T10:48:02Z</time>
      </trkpt>
      <trkpt lat="46.0569" lon="4.81937">
        <ele>250</ele>
        <time>2016-10-04T10:48:03Z</time>
      </trkpt>
      <trkpt lat="46.05685" lon="4.8194">
        <ele>250</ele>
        <time>2016-10-04T10:48:04Z</time>
      </trkpt>
      <trkpt lat="46.0568" lon="4.81942">
        <ele>250</ele>
        <time>2016-10-04T10:48:05Z</time>
      </trkpt>
      <trkpt lat="46.05675" lon="4.81945">
        <ele>250</ele>
        <time>2016-10-04T10:48:06Z</time>
      </trkpt>
      <trkpt lat="46.05669" lon="4.81948">
        <ele>250</ele>
        <time>2016-10-04T10:48:07Z</time>
      </trkpt>
      <trkpt lat="46.05663" lon="4.8195">
        <ele>249</ele>
        <time>2016-10-04T10:48:08Z</time>
      </trkpt>
      <trkpt lat="46.05658" lon="4.81953">
        <ele>249</ele>
        <time>2016-10-04T10:48:09Z</time>
      </trkpt>
      <trkpt lat="46.05652" lon="4.81956">
        <ele>249</ele>
        <time>2016-10-04T10:48:10Z</time>
      </trkpt>
      <trkpt lat="46.05646" lon="4.81958">
        <ele>249</ele>
        <time>2016-10-04T10:48:11Z</time>
      </trkpt>
      <trkpt lat="46.05641" lon="4.8196">
        <ele>249</ele>
        <time>2016-10-04T10:48:12Z</time>
      </trkpt>
      <trkpt lat="46.05636" lon="4.81962">
        <ele>249</ele>
        <time>2016-10-04T10:48:13Z</time>
      </trkpt>
      <trkpt lat="46.0563" lon="4.81965">
        <ele>249</ele>
        <time>2016-10-04T10:48:14Z</time>
      </trkpt>
      <trkpt lat="46.05624" lon="4.81967">
        <ele>249</ele>
        <time>2016-10-04T10:48:15Z</time>
      </trkpt>
      <trkpt lat="46.05619" lon="4.8197">
        <ele>249</ele>
        <time>2016-10-04T10:48:16Z</time>
      </trkpt>
      <trkpt lat="46.05613" lon="4.81973">
        <ele>249</ele>
        <time>2016-10-04T10:48:17Z</time>
      </trkpt>
      <trkpt lat="46.05607" lon="4.81975">
        <ele>249</ele>
        <time>2016-10-04T10:48:18Z</time>
      </trkpt>
      <trkpt lat="46.05601" lon="4.81978">
        <ele>249</ele>
        <time>2016-10-04T10:48:19Z</time>
      </trkpt>
      <trkpt lat="46.05595" lon="4.81981">
        <ele>249</ele>
        <time>2016-10-04T10:48:20Z</time>
      </trkpt>
      <trkpt lat="46.05589" lon="4.81984">
        <ele>249</ele>
        <time>2016-10-04T10:48:21Z</time>
      </trkpt>
      <trkpt lat="46.05583" lon="4.81987">
        <ele>248</ele>
        <time>2016-10-04T10:48:22Z</time>
      </trkpt>
      <trkpt lat="46.05577" lon="4.81989">
        <ele>248</ele>
        <time>2016-10-04T10:48:23Z</time>
      </trkpt>
      <trkpt lat="46.05571" lon="4.81992">
        <ele>247</ele>
        <time>2016-10-04T10:48:24Z</time>
      </trkpt>
      <trkpt lat="46.05565" lon="4.81995">
        <ele>247</ele>
        <time>2016-10-04T10:48:25Z</time>
      </trkpt>
      <trkpt lat="46.05558" lon="4.81997">
        <ele>247</ele>
        <time>2016-10-04T10:48:26Z</time>
      </trkpt>
      <trkpt lat="46.05552" lon="4.82">
        <ele>247</ele>
        <time>2016-10-04T10:48:27Z</time>
      </trkpt>
      <trkpt lat="46.05545" lon="4.82004">
        <ele>247</ele>
        <time>2016-10-04T10:48:28Z</time>
      </trkpt>
      <trkpt lat="46.05539" lon="4.82006">
        <ele>247</ele>
        <time>2016-10-04T10:48:29Z</time>
      </trkpt>
      <trkpt lat="46.05531" lon="4.8201">
        <ele>247</ele>
        <time>2016-10-04T10:48:30Z</time>
      </trkpt>
      <trkpt lat="46.05525" lon="4.82013">
        <ele>246</ele>
        <time>2016-10-04T10:48:31Z</time>
      </trkpt>
      <trkpt lat="46.05518" lon="4.82016">
        <ele>246</ele>
        <time>2016-10-04T10:48:32Z</time>
      </trkpt>
      <trkpt lat="46.05512" lon="4.82019">
        <ele>246</ele>
        <time>2016-10-04T10:48:33Z</time>
      </trkpt>
      <trkpt lat="46.05505" lon="4.82022">
        <ele>246</ele>
        <time>2016-10-04T10:48:34Z</time>
      </trkpt>
      <trkpt lat="46.05497" lon="4.82025">
        <ele>244</ele>
        <time>2016-10-04T10:48:35Z</time>
      </trkpt>
      <trkpt lat="46.0549" lon="4.82028">
        <ele>244</ele>
        <time>2016-10-04T10:48:36Z</time>
      </trkpt>
      <trkpt lat="46.05482" lon="4.82031">
        <ele>244</ele>
        <time>2016-10-04T10:48:37Z</time>
      </trkpt>
      <trkpt lat="46.05475" lon="4.82035">
        <ele>244</ele>
        <time>2016-10-04T10:48:38Z</time>
      </trkpt>
      <trkpt lat="46.05468" lon="4.82038">
        <ele>244</ele>
        <time>2016-10-04T10:48:39Z</time>
      </trkpt>
      <trkpt lat="46.05461" lon="4.82041">
        <ele>244</ele>
        <time>2016-10-04T10:48:40Z</time>
      </trkpt>
      <trkpt lat="46.05454" lon="4.82045">
        <ele>244</ele>
        <time>2016-10-04T10:48:41Z</time>
      </trkpt>
      <trkpt lat="46.05447" lon="4.82048">
        <ele>244</ele>
        <time>2016-10-04T10:48:42Z</time>
      </trkpt>
      <trkpt lat="46.0544" lon="4.82052">
        <ele>244</ele>
        <time>2016-10-04T10:48:43Z</time>
      </trkpt>
      <trkpt lat="46.05433" lon="4.82055">
        <ele>244</ele>
        <time>2016-10-04T10:48:44Z</time>
      </trkpt>
      <trkpt lat="46.05426" lon="4.82058">
        <ele>244</ele>
        <time>2016-10-04T10:48:45Z</time>
      </trkpt>
      <trkpt lat="46.05419" lon="4.82059">
        <ele>244</ele>
        <time>2016-10-04T10:48:46Z</time>
      </trkpt>
      <trkpt lat="46.05412" lon="4.82061">
        <ele>243</ele>
        <time>2016-10-04T10:48:47Z</time>
      </trkpt>
      <trkpt lat="46.05404" lon="4.82064">
        <ele>243</ele>
        <time>2016-10-04T10:48:48Z</time>
      </trkpt>
      <trkpt lat="46.05397" lon="4.82067">
        <ele>243</ele>
        <time>2016-10-04T10:48:49Z</time>
      </trkpt>
      <trkpt lat="46.0539" lon="4.82069">
        <ele>243</ele>
        <time>2016-10-04T10:48:50Z</time>
      </trkpt>
      <trkpt lat="46.05383" lon="4.82073">
        <ele>243</ele>
        <time>2016-10-04T10:48:51Z</time>
      </trkpt>
      <trkpt lat="46.05376" lon="4.82076">
        <ele>243</ele>
        <time>2016-10-04T10:48:52Z</time>
      </trkpt>
      <trkpt lat="46.0537" lon="4.82079">
        <ele>242</ele>
        <time>2016-10-04T10:48:53Z</time>
      </trkpt>
      <trkpt lat="46.05363" lon="4.82081">
        <ele>242</ele>
        <time>2016-10-04T10:48:54Z</time>
      </trkpt>
      <trkpt lat="46.05356" lon="4.82084">
        <ele>243</ele>
        <time>2016-10-04T10:48:55Z</time>
      </trkpt>
      <trkpt lat="46.0535" lon="4.82087">
        <ele>243</ele>
        <time>2016-10-04T10:48:56Z</time>
      </trkpt>
      <trkpt lat="46.05344" lon="4.8209">
        <ele>242</ele>
        <time>2016-10-04T10:48:57Z</time>
      </trkpt>
      <trkpt lat="46.05337" lon="4.82093">
        <ele>242</ele>
        <time>2016-10-04T10:48:58Z</time>
      </trkpt>
      <trkpt lat="46.0533" lon="4.82096">
        <ele>242</ele>
        <time>2016-10-04T10:48:59Z</time>
      </trkpt>
      <trkpt lat="46.05324" lon="4.82099">
        <ele>241</ele>
        <time>2016-10-04T10:49:00Z</time>
      </trkpt>
      <trkpt lat="46.05317" lon="4.82103">
        <ele>241</ele>
        <time>2016-10-04T10:49:01Z</time>
      </trkpt>
      <trkpt lat="46.05311" lon="4.82105">
        <ele>241</ele>
        <time>2016-10-04T10:49:02Z</time>
      </trkpt>
      <trkpt lat="46.05304" lon="4.82108">
        <ele>241</ele>
        <time>2016-10-04T10:49:03Z</time>
      </trkpt>
      <trkpt lat="46.05298" lon="4.82111">
        <ele>241</ele>
        <time>2016-10-04T10:49:04Z</time>
      </trkpt>
      <trkpt lat="46.05291" lon="4.82114">
        <ele>241</ele>
        <time>2016-10-04T10:49:05Z</time>
      </trkpt>
      <trkpt lat="46.05285" lon="4.82117">
        <ele>241</ele>
        <time>2016-10-04T10:49:06Z</time>
      </trkpt>
      <trkpt lat="46.05279" lon="4.82121">
        <ele>241</ele>
        <time>2016-10-04T10:49:07Z</time>
      </trkpt>
      <trkpt lat="46.05272" lon="4.82125">
        <ele>241</ele>
        <time>2016-10-04T10:49:08Z</time>
      </trkpt>
      <trkpt lat="46.05266" lon="4.82128">
        <ele>241</ele>
        <time>2016-10-04T10:49:09Z</time>
      </trkpt>
      <trkpt lat="46.05259" lon="4.82131">
        <ele>241</ele>
        <time>2016-10-04T10:49:10Z</time>
      </trkpt>
      <trkpt lat="46.05253" lon="4.82133">
        <ele>241</ele>
        <time>2016-10-04T10:49:11Z</time>
      </trkpt>
      <trkpt lat="46.05246" lon="4.82136">
        <ele>240</ele>
        <time>2016-10-04T10:49:12Z</time>
      </trkpt>
      <trkpt lat="46.05239" lon="4.82139">
        <ele>240</ele>
        <time>2016-10-04T10:49:13Z</time>
      </trkpt>
      <trkpt lat="46.05231" lon="4.82142">
        <ele>240</ele>
        <time>2016-10-04T10:49:14Z</time>
      </trkpt>
      <trkpt lat="46.05224" lon="4.82146">
        <ele>240</ele>
        <time>2016-10-04T10:49:15Z</time>
      </trkpt>
      <trkpt lat="46.05217" lon="4.8215">
        <ele>240</ele>
        <time>2016-10-04T10:49:16Z</time>
      </trkpt>
      <trkpt lat="46.05209" lon="4.82152">
        <ele>240</ele>
        <time>2016-10-04T10:49:17Z</time>
      </trkpt>
      <trkpt lat="46.05202" lon="4.82156">
        <ele>240</ele>
        <time>2016-10-04T10:49:18Z</time>
      </trkpt>
      <trkpt lat="46.05195" lon="4.82159">
        <ele>241</ele>
        <time>2016-10-04T10:49:19Z</time>
      </trkpt>
      <trkpt lat="46.05188" lon="4.82163">
        <ele>241</ele>
        <time>2016-10-04T10:49:20Z</time>
      </trkpt>
      <trkpt lat="46.05181" lon="4.82166">
        <ele>241</ele>
        <time>2016-10-04T10:49:21Z</time>
      </trkpt>
      <trkpt lat="46.05173" lon="4.82169">
        <ele>241</ele>
        <time>2016-10-04T10:49:22Z</time>
      </trkpt>
      <trkpt lat="46.05166" lon="4.82172">
        <ele>240</ele>
        <time>2016-10-04T10:49:23Z</time>
      </trkpt>
      <trkpt lat="46.05159" lon="4.82175">
        <ele>240</ele>
        <time>2016-10-04T10:49:24Z</time>
      </trkpt>
      <trkpt lat="46.05152" lon="4.82178">
        <ele>239</ele>
        <time>2016-10-04T10:49:25Z</time>
      </trkpt>
      <trkpt lat="46.05145" lon="4.82182">
        <ele>239</ele>
        <time>2016-10-04T10:49:26Z</time>
      </trkpt>
      <trkpt lat="46.05139" lon="4.82185">
        <ele>239</ele>
        <time>2016-10-04T10:49:27Z</time>
      </trkpt>
      <trkpt lat="46.05132" lon="4.82188">
        <ele>238</ele>
        <time>2016-10-04T10:49:28Z</time>
      </trkpt>
      <trkpt lat="46.05126" lon="4.82192">
        <ele>238</ele>
        <time>2016-10-04T10:49:29Z</time>
      </trkpt>
      <trkpt lat="46.05119" lon="4.82194">
        <ele>238</ele>
        <time>2016-10-04T10:49:30Z</time>
      </trkpt>
      <trkpt lat="46.05112" lon="4.82197">
        <ele>238</ele>
        <time>2016-10-04T10:49:31Z</time>
      </trkpt>
      <trkpt lat="46.05106" lon="4.82199">
        <ele>237</ele>
        <time>2016-10-04T10:49:32Z</time>
      </trkpt>
      <trkpt lat="46.05099" lon="4.82202">
        <ele>237</ele>
        <time>2016-10-04T10:49:33Z</time>
      </trkpt>
      <trkpt lat="46.05092" lon="4.82205">
        <ele>237</ele>
        <time>2016-10-04T10:49:34Z</time>
      </trkpt>
      <trkpt lat="46.05086" lon="4.82208">
        <ele>237</ele>
        <time>2016-10-04T10:49:35Z</time>
      </trkpt>
      <trkpt lat="46.05079" lon="4.82211">
        <ele>236</ele>
        <time>2016-10-04T10:49:36Z</time>
      </trkpt>
      <trkpt lat="46.05072" lon="4.82214">
        <ele>236</ele>
        <time>2016-10-04T10:49:37Z</time>
      </trkpt>
      <trkpt lat="46.05066" lon="4.82217">
        <ele>236</ele>
        <time>2016-10-04T10:49:38Z</time>
      </trkpt>
      <trkpt lat="46.05059" lon="4.8222">
        <ele>236</ele>
        <time>2016-10-04T10:49:39Z</time>
      </trkpt>
      <trkpt lat="46.05053" lon="4.82224">
        <ele>236</ele>
        <time>2016-10-04T10:49:40Z</time>
      </trkpt>
      <trkpt lat="46.05046" lon="4.82226">
        <ele>236</ele>
        <time>2016-10-04T10:49:41Z</time>
      </trkpt>
      <trkpt lat="46.0504" lon="4.82229">
        <ele>236</ele>
        <time>2016-10-04T10:49:42Z</time>
      </trkpt>
      <trkpt lat="46.05034" lon="4.82233">
        <ele>236</ele>
        <time>2016-10-04T10:49:43Z</time>
      </trkpt>
      <trkpt lat="46.05028" lon="4.82236">
        <ele>236</ele>
        <time>2016-10-04T10:49:44Z</time>
      </trkpt>
      <trkpt lat="46.05022" lon="4.82239">
        <ele>236</ele>
        <time>2016-10-04T10:49:45Z</time>
      </trkpt>
      <trkpt lat="46.05016" lon="4.82242">
        <ele>236</ele>
        <time>2016-10-04T10:49:46Z</time>
      </trkpt>
      <trkpt lat="46.0501" lon="4.82245">
        <ele>236</ele>
        <time>2016-10-04T10:49:47Z</time>
      </trkpt>
      <trkpt lat="46.05004" lon="4.82248">
        <ele>236</ele>
        <time>2016-10-04T10:49:48Z</time>
      </trkpt>
      <trkpt lat="46.04998" lon="4.82251">
        <ele>236</ele>
        <time>2016-10-04T10:49:49Z</time>
      </trkpt>
      <trkpt lat="46.04992" lon="4.82253">
        <ele>236</ele>
        <time>2016-10-04T10:49:50Z</time>
      </trkpt>
      <trkpt lat="46.04986" lon="4.82256">
        <ele>236</ele>
        <time>2016-10-04T10:49:51Z</time>
      </trkpt>
      <trkpt lat="46.04979" lon="4.82258">
        <ele>236</ele>
        <time>2016-10-04T10:49:52Z</time>
      </trkpt>
      <trkpt lat="46.04973" lon="4.82261">
        <ele>236</ele>
        <time>2016-10-04T10:49:53Z</time>
      </trkpt>
      <trkpt lat="46.04966" lon="4.82264">
        <ele>236</ele>
        <time>2016-10-04T10:49:54Z</time>
      </trkpt>
      <trkpt lat="46.0496" lon="4.82268">
        <ele>236</ele>
        <time>2016-10-04T10:49:55Z</time>
      </trkpt>
      <trkpt lat="46.04954" lon="4.8227">
        <ele>236</ele>
        <time>2016-10-04T10:49:56Z</time>
      </trkpt>
      <trkpt lat="46.04948" lon="4.82272">
        <ele>236</ele>
        <time>2016-10-04T10:49:57Z</time>
      </trkpt>
      <trkpt lat="46.04943" lon="4.82275">
        <ele>236</ele>
        <time>2016-10-04T10:49:58Z</time>
      </trkpt>
      <trkpt lat="46.04937" lon="4.82277">
        <ele>236</ele>
        <time>2016-10-04T10:49:59Z</time>
      </trkpt>
      <trkpt lat="46.04931" lon="4.8228">
        <ele>236</ele>
        <time>2016-10-04T10:50:00Z</time>
      </trkpt>
      <trkpt lat="46.04926" lon="4.82282">
        <ele>236</ele>
        <time>2016-10-04T10:50:01Z</time>
      </trkpt>
      <trkpt lat="46.0492" lon="4.82284">
        <ele>236</ele>
        <time>2016-10-04T10:50:02Z</time>
      </trkpt>
      <trkpt lat="46.04915" lon="4.82287">
        <ele>236</ele>
        <time>2016-10-04T10:50:03Z</time>
      </trkpt>
      <trkpt lat="46.04909" lon="4.8229">
        <ele>236</ele>
        <time>2016-10-04T10:50:04Z</time>
      </trkpt>
      <trkpt lat="46.04904" lon="4.82293">
        <ele>237</ele>
        <time>2016-10-04T10:50:05Z</time>
      </trkpt>
      <trkpt lat="46.04898" lon="4.82295">
        <ele>237</ele>
        <time>2016-10-04T10:50:06Z</time>
      </trkpt>
      <trkpt lat="46.04892" lon="4.82298">
        <ele>237</ele>
        <time>2016-10-04T10:50:07Z</time>
      </trkpt>
      <trkpt lat="46.04886" lon="4.82302">
        <ele>237</ele>
        <time>2016-10-04T10:50:08Z</time>
      </trkpt>
      <trkpt lat="46.0488" lon="4.82304">
        <ele>237</ele>
        <time>2016-10-04T10:50:09Z</time>
      </trkpt>
      <trkpt lat="46.04874" lon="4.82307">
        <ele>237</ele>
        <time>2016-10-04T10:50:10Z</time>
      </trkpt>
      <trkpt lat="46.04868" lon="4.82309">
        <ele>237</ele>
        <time>2016-10-04T10:50:11Z</time>
      </trkpt>
      <trkpt lat="46.04863" lon="4.82312">
        <ele>237</ele>
        <time>2016-10-04T10:50:12Z</time>
      </trkpt>
      <trkpt lat="46.04857" lon="4.82314">
        <ele>237</ele>
        <time>2016-10-04T10:50:13Z</time>
      </trkpt>
      <trkpt lat="46.04852" lon="4.82317">
        <ele>237</ele>
        <time>2016-10-04T10:50:14Z</time>
      </trkpt>
      <trkpt lat="46.04847" lon="4.82319">
        <ele>237</ele>
        <time>2016-10-04T10:50:15Z</time>
      </trkpt>
      <trkpt lat="46.04842" lon="4.82322">
        <ele>237</ele>
        <time>2016-10-04T10:50:16Z</time>
      </trkpt>
      <trkpt lat="46.04837" lon="4.82324">
        <ele>237</ele>
        <time>2016-10-04T10:50:17Z</time>
      </trkpt>
      <trkpt lat="46.04832" lon="4.82325">
        <ele>238</ele>
        <time>2016-10-04T10:50:18Z</time>
      </trkpt>
      <trkpt lat="46.04826" lon="4.82327">
        <ele>238</ele>
        <time>2016-10-04T10:50:19Z</time>
      </trkpt>
      <trkpt lat="46.04821" lon="4.8233">
        <ele>238</ele>
        <time>2016-10-04T10:50:20Z</time>
      </trkpt>
      <trkpt lat="46.04815" lon="4.82333">
        <ele>238</ele>
        <time>2016-10-04T10:50:21Z</time>
      </trkpt>
      <trkpt lat="46.0481" lon="4.82335">
        <ele>239</ele>
        <time>2016-10-04T10:50:22Z</time>
      </trkpt>
      <trkpt lat="46.04804" lon="4.82338">
        <ele>239</ele>
        <time>2016-10-04T10:50:23Z</time>
      </trkpt>
      <trkpt lat="46.04798" lon="4.8234">
        <ele>239</ele>
        <time>2016-10-04T10:50:24Z</time>
      </trkpt>
      <trkpt lat="46.04793" lon="4.82343">
        <ele>239</ele>
        <time>2016-10-04T10:50:25Z</time>
      </trkpt>
      <trkpt lat="46.04787" lon="4.82346">
        <ele>239</ele>
        <time>2016-10-04T10:50:26Z</time>
      </trkpt>
      <trkpt lat="46.04781" lon="4.82348">
        <ele>239</ele>
        <time>2016-10-04T10:50:27Z</time>
      </trkpt>
      <trkpt lat="46.04775" lon="4.82351">
        <ele>240</ele>
        <time>2016-10-04T10:50:28Z</time>
      </trkpt>
      <trkpt lat="46.04769" lon="4.82354">
        <ele>240</ele>
        <time>2016-10-04T10:50:29Z</time>
      </trkpt>
      <trkpt lat="46.04764" lon="4.82356">
        <ele>240</ele>
        <time>2016-10-04T10:50:30Z</time>
      </trkpt>
      <trkpt lat="46.04759" lon="4.82359">
        <ele>240</ele>
        <time>2016-10-04T10:50:31Z</time>
      </trkpt>
      <trkpt lat="46.04754" lon="4.82361">
        <ele>240</ele>
        <time>2016-10-04T10:50:32Z</time>
      </trkpt>
      <trkpt lat="46.04749" lon="4.82362">
        <ele>240</ele>
        <time>2016-10-04T10:50:33Z</time>
      </trkpt>
      <trkpt lat="46.04744" lon="4.82365">
        <ele>240</ele>
        <time>2016-10-04T10:50:34Z</time>
      </trkpt>
      <trkpt lat="46.04739" lon="4.82367">
        <ele>240</ele>
        <time>2016-10-04T10:50:35Z</time>
      </trkpt>
      <trkpt lat="46.04734" lon="4.82369">
        <ele>240</ele>
        <time>2016-10-04T10:50:36Z</time>
      </trkpt>
      <trkpt lat="46.04729" lon="4.82371">
        <ele>240</ele>
        <time>2016-10-04T10:50:37Z</time>
      </trkpt>
      <trkpt lat="46.04724" lon="4.82373">
        <ele>240</ele>
        <time>2016-10-04T10:50:38Z</time>
      </trkpt>
      <trkpt lat="46.0472" lon="4.82375">
        <ele>240</ele>
        <time>2016-10-04T10:50:39Z</time>
      </trkpt>
      <trkpt lat="46.04715" lon="4.82378">
        <ele>240</ele>
        <time>2016-10-04T10:50:40Z</time>
      </trkpt>
      <trkpt lat="46.0471" lon="4.8238">
        <ele>241</ele>
        <time>2016-10-04T10:50:41Z</time>
      </trkpt>
      <trkpt lat="46.04705" lon="4.82382">
        <ele>241</ele>
        <time>2016-10-04T10:50:42Z</time>
      </trkpt>
      <trkpt lat="46.04701" lon="4.82384">
        <ele>241</ele>
        <time>2016-10-04T10:50:43Z</time>
      </trkpt>
      <trkpt lat="46.04696" lon="4.82387">
        <ele>241</ele>
        <time>2016-10-04T10:50:44Z</time>
      </trkpt>
      <trkpt lat="46.04689" lon="4.82391">
        <ele>241</ele>
        <time>2016-10-04T10:50:46Z</time>
      </trkpt>
      <trkpt lat="46.04685" lon="4.82392">
        <ele>241</ele>
        <time>2016-10-04T10:50:47Z</time>
      </trkpt>
      <trkpt lat="46.04676" lon="4.82395">
        <ele>241</ele>
        <time>2016-10-04T10:50:49Z</time>
      </trkpt>
      <trkpt lat="46.04673" lon="4.82398">
        <ele>241</ele>
        <time>2016-10-04T10:50:50Z</time>
      </trkpt>
      <trkpt lat="46.04665" lon="4.82401">
        <ele>241</ele>
        <time>2016-10-04T10:50:52Z</time>
      </trkpt>
      <trkpt lat="46.0466" lon="4.82404">
        <ele>241</ele>
        <time>2016-10-04T10:50:53Z</time>
      </trkpt>
      <trkpt lat="46.04656" lon="4.82406">
        <ele>241</ele>
        <time>2016-10-04T10:50:54Z</time>
      </trkpt>
      <trkpt lat="46.04651" lon="4.82408">
        <ele>241</ele>
        <time>2016-10-04T10:50:55Z</time>
      </trkpt>
      <trkpt lat="46.04646" lon="4.8241">
        <ele>241</ele>
        <time>2016-10-04T10:50:56Z</time>
      </trkpt>
      <trkpt lat="46.04642" lon="4.82412">
        <ele>241</ele>
        <time>2016-10-04T10:50:57Z</time>
      </trkpt>
      <trkpt lat="46.04637" lon="4.82414">
        <ele>240</ele>
        <time>2016-10-04T10:50:58Z</time>
      </trkpt>
      <trkpt lat="46.04632" lon="4.82416">
        <ele>240</ele>
        <time>2016-10-04T10:50:59Z</time>
      </trkpt>
      <trkpt lat="46.04627" lon="4.82418">
        <ele>241</ele>
        <time>2016-10-04T10:51:00Z</time>
      </trkpt>
      <trkpt lat="46.04622" lon="4.82421">
        <ele>240</ele>
        <time>2016-10-04T10:51:01Z</time>
      </trkpt>
      <trkpt lat="46.04618" lon="4.82424">
        <ele>240</ele>
        <time>2016-10-04T10:51:02Z</time>
      </trkpt>
      <trkpt lat="46.04612" lon="4.82426">
        <ele>240</ele>
        <time>2016-10-04T10:51:03Z</time>
      </trkpt>
      <trkpt lat="46.04607" lon="4.82428">
        <ele>240</ele>
        <time>2016-10-04T10:51:04Z</time>
      </trkpt>
      <trkpt lat="46.04602" lon="4.8243">
        <ele>240</ele>
        <time>2016-10-04T10:51:05Z</time>
      </trkpt>
      <trkpt lat="46.04597" lon="4.82433">
        <ele>240</ele>
        <time>2016-10-04T10:51:06Z</time>
      </trkpt>
      <trkpt lat="46.04592" lon="4.82435">
        <ele>240</ele>
        <time>2016-10-04T10:51:07Z</time>
      </trkpt>
      <trkpt lat="46.04587" lon="4.82437">
        <ele>240</ele>
        <time>2016-10-04T10:51:08Z</time>
      </trkpt>
      <trkpt lat="46.04581" lon="4.8244">
        <ele>239</ele>
        <time>2016-10-04T10:51:09Z</time>
      </trkpt>
      <trkpt lat="46.04575" lon="4.82442">
        <ele>239</ele>
        <time>2016-10-04T10:51:10Z</time>
      </trkpt>
      <trkpt lat="46.0457" lon="4.82444">
        <ele>238</ele>
        <time>2016-10-04T10:51:11Z</time>
      </trkpt>
      <trkpt lat="46.04564" lon="4.82447">
        <ele>238</ele>
        <time>2016-10-04T10:51:12Z</time>
      </trkpt>
      <trkpt lat="46.04559" lon="4.82449">
        <ele>238</ele>
        <time>2016-10-04T10:51:13Z</time>
      </trkpt>
      <trkpt lat="46.04553" lon="4.82452">
        <ele>238</ele>
        <time>2016-10-04T10:51:14Z</time>
      </trkpt>
      <trkpt lat="46.04548" lon="4.82455">
        <ele>238</ele>
        <time>2016-10-04T10:51:15Z</time>
      </trkpt>
      <trkpt lat="46.04543" lon="4.82457">
        <ele>238</ele>
        <time>2016-10-04T10:51:16Z</time>
      </trkpt>
      <trkpt lat="46.04537" lon="4.82459">
        <ele>238</ele>
        <time>2016-10-04T10:51:17Z</time>
      </trkpt>
      <trkpt lat="46.04532" lon="4.82462">
        <ele>238</ele>
        <time>2016-10-04T10:51:18Z</time>
      </trkpt>
      <trkpt lat="46.04526" lon="4.82464">
        <ele>238</ele>
        <time>2016-10-04T10:51:19Z</time>
      </trkpt>
      <trkpt lat="46.04521" lon="4.82466">
        <ele>238</ele>
        <time>2016-10-04T10:51:20Z</time>
      </trkpt>
      <trkpt lat="46.04516" lon="4.82469">
        <ele>238</ele>
        <time>2016-10-04T10:51:21Z</time>
      </trkpt>
      <trkpt lat="46.0451" lon="4.82471">
        <ele>238</ele>
        <time>2016-10-04T10:51:22Z</time>
      </trkpt>
      <trkpt lat="46.04505" lon="4.82474">
        <ele>238</ele>
        <time>2016-10-04T10:51:23Z</time>
      </trkpt>
      <trkpt lat="46.04499" lon="4.82477">
        <ele>238</ele>
        <time>2016-10-04T10:51:24Z</time>
      </trkpt>
      <trkpt lat="46.04494" lon="4.8248">
        <ele>238</ele>
        <time>2016-10-04T10:51:25Z</time>
      </trkpt>
      <trkpt lat="46.04489" lon="4.82482">
        <ele>238</ele>
        <time>2016-10-04T10:51:26Z</time>
      </trkpt>
      <trkpt lat="46.04483" lon="4.82484">
        <ele>238</ele>
        <time>2016-10-04T10:51:27Z</time>
      </trkpt>
      <trkpt lat="46.04478" lon="4.82486">
        <ele>238</ele>
        <time>2016-10-04T10:51:28Z</time>
      </trkpt>
      <trkpt lat="46.04473" lon="4.82489">
        <ele>238</ele>
        <time>2016-10-04T10:51:29Z</time>
      </trkpt>
      <trkpt lat="46.04468" lon="4.82491">
        <ele>239</ele>
        <time>2016-10-04T10:51:30Z</time>
      </trkpt>
      <trkpt lat="46.04463" lon="4.82494">
        <ele>239</ele>
        <time>2016-10-04T10:51:31Z</time>
      </trkpt>
      <trkpt lat="46.04458" lon="4.82496">
        <ele>239</ele>
        <time>2016-10-04T10:51:32Z</time>
      </trkpt>
      <trkpt lat="46.04453" lon="4.82498">
        <ele>239</ele>
        <time>2016-10-04T10:51:33Z</time>
      </trkpt>
      <trkpt lat="46.04448" lon="4.825">
        <ele>239</ele>
        <time>2016-10-04T10:51:34Z</time>
      </trkpt>
      <trkpt lat="46.04443" lon="4.82502">
        <ele>240</ele>
        <time>2016-10-04T10:51:35Z</time>
      </trkpt>
      <trkpt lat="46.04438" lon="4.82505">
        <ele>240</ele>
        <time>2016-10-04T10:51:36Z</time>
      </trkpt>
      <trkpt lat="46.04433" lon="4.82507">
        <ele>240</ele>
        <time>2016-10-04T10:51:37Z</time>
      </trkpt>
      <trkpt lat="46.04428" lon="4.82509">
        <ele>240</ele>
        <time>2016-10-04T10:51:38Z</time>
      </trkpt>
      <trkpt lat="46.04422" lon="4.82511">
        <ele>240</ele>
        <time>2016-10-04T10:51:39Z</time>
      </trkpt>
      <trkpt lat="46.04417" lon="4.82513">
        <ele>240</ele>
        <time>2016-10-04T10:51:40Z</time>
      </trkpt>
      <trkpt lat="46.04412" lon="4.82515">
        <ele>241</ele>
        <time>2016-10-04T10:51:41Z</time>
      </trkpt>
      <trkpt lat="46.04406" lon="4.82517">
        <ele>241</ele>
        <time>2016-10-04T10:51:42Z</time>
      </trkpt>
      <trkpt lat="46.04401" lon="4.82518">
        <ele>241</ele>
        <time>2016-10-04T10:51:43Z</time>
      </trkpt>
      <trkpt lat="46.04395" lon="4.82518">
        <ele>241</ele>
        <time>2016-10-04T10:51:44Z</time>
      </trkpt>
      <trkpt lat="46.0439" lon="4.82516">
        <ele>241</ele>
        <time>2016-10-04T10:51:45Z</time>
      </trkpt>
      <trkpt lat="46.04385" lon="4.82513">
        <ele>242</ele>
        <time>2016-10-04T10:51:46Z</time>
      </trkpt>
      <trkpt lat="46.0438" lon="4.82509">
        <ele>242</ele>
        <time>2016-10-04T10:51:47Z</time>
      </trkpt>
      <trkpt lat="46.04375" lon="4.82506">
        <ele>242</ele>
        <time>2016-10-04T10:51:48Z</time>
      </trkpt>
      <trkpt lat="46.04371" lon="4.82501">
        <ele>242</ele>
        <time>2016-10-04T10:51:49Z</time>
      </trkpt>
      <trkpt lat="46.04367" lon="4.82497">
        <ele>241</ele>
        <time>2016-10-04T10:51:50Z</time>
      </trkpt>
      <trkpt lat="46.04362" lon="4.82492">
        <ele>241</ele>
        <time>2016-10-04T10:51:51Z</time>
      </trkpt>
      <trkpt lat="46.04358" lon="4.82488">
        <ele>241</ele>
        <time>2016-10-04T10:51:52Z</time>
      </trkpt>
      <trkpt lat="46.04354" lon="4.82484">
        <ele>242</ele>
        <time>2016-10-04T10:51:53Z</time>
      </trkpt>
      <trkpt lat="46.0435" lon="4.8248">
        <ele>242</ele>
        <time>2016-10-04T10:51:54Z</time>
      </trkpt>
      <trkpt lat="46.04345" lon="4.82475">
        <ele>241</ele>
        <time>2016-10-04T10:51:55Z</time>
      </trkpt>
      <trkpt lat="46.04341" lon="4.8247">
        <ele>241</ele>
        <time>2016-10-04T10:51:56Z</time>
      </trkpt>
      <trkpt lat="46.04337" lon="4.82466">
        <ele>241</ele>
        <time>2016-10-04T10:51:57Z</time>
      </trkpt>
      <trkpt lat="46.04333" lon="4.82461">
        <ele>242</ele>
        <time>2016-10-04T10:51:58Z</time>
      </trkpt>
      <trkpt lat="46.04328" lon="4.82456">
        <ele>242</ele>
        <time>2016-10-04T10:51:59Z</time>
      </trkpt>
      <trkpt lat="46.04324" lon="4.8245">
        <ele>242</ele>
        <time>2016-10-04T10:52:00Z</time>
      </trkpt>
      <trkpt lat="46.0432" lon="4.82445">
        <ele>242</ele>
        <time>2016-10-04T10:52:01Z</time>
      </trkpt>
      <trkpt lat="46.04316" lon="4.82441">
        <ele>242</ele>
        <time>2016-10-04T10:52:02Z</time>
      </trkpt>
      <trkpt lat="46.04312" lon="4.82436">
        <ele>242</ele>
        <time>2016-10-04T10:52:03Z</time>
      </trkpt>
      <trkpt lat="46.04309" lon="4.82431">
        <ele>242</ele>
        <time>2016-10-04T10:52:04Z</time>
      </trkpt>
      <trkpt lat="46.04305" lon="4.82428">
        <ele>242</ele>
        <time>2016-10-04T10:52:05Z</time>
      </trkpt>
      <trkpt lat="46.043" lon="4.82423">
        <ele>242</ele>
        <time>2016-10-04T10:52:06Z</time>
      </trkpt>
      <trkpt lat="46.04296" lon="4.82418">
        <ele>243</ele>
        <time>2016-10-04T10:52:07Z</time>
      </trkpt>
      <trkpt lat="46.04291" lon="4.82413">
        <ele>242</ele>
        <time>2016-10-04T10:52:08Z</time>
      </trkpt>
      <trkpt lat="46.04287" lon="4.82407">
        <ele>242</ele>
        <time>2016-10-04T10:52:09Z</time>
      </trkpt>
      <trkpt lat="46.04283" lon="4.82401">
        <ele>242</ele>
        <time>2016-10-04T10:52:10Z</time>
      </trkpt>
      <trkpt lat="46.04278" lon="4.82395">
        <ele>242</ele>
        <time>2016-10-04T10:52:11Z</time>
      </trkpt>
      <trkpt lat="46.04274" lon="4.8239">
        <ele>242</ele>
        <time>2016-10-04T10:52:12Z</time>
      </trkpt>
      <trkpt lat="46.04269" lon="4.82385">
        <ele>242</ele>
        <time>2016-10-04T10:52:13Z</time>
      </trkpt>
      <trkpt lat="46.04265" lon="4.82379">
        <ele>242</ele>
        <time>2016-10-04T10:52:14Z</time>
      </trkpt>
      <trkpt lat="46.04261" lon="4.82374">
        <ele>242</ele>
        <time>2016-10-04T10:52:15Z</time>
      </trkpt>
      <trkpt lat="46.04257" lon="4.82369">
        <ele>242</ele>
        <time>2016-10-04T10:52:16Z</time>
      </trkpt>
      <trkpt lat="46.04253" lon="4.82364">
        <ele>243</ele>
        <time>2016-10-04T10:52:17Z</time>
      </trkpt>
      <trkpt lat="46.04248" lon="4.82358">
        <ele>243</ele>
        <time>2016-10-04T10:52:18Z</time>
      </trkpt>
      <trkpt lat="46.04245" lon="4.82351">
        <ele>243</ele>
        <time>2016-10-04T10:52:19Z</time>
      </trkpt>
      <trkpt lat="46.04241" lon="4.82345">
        <ele>243</ele>
        <time>2016-10-04T10:52:20Z</time>
      </trkpt>
      <trkpt lat="46.04236" lon="4.82341">
        <ele>243</ele>
        <time>2016-10-04T10:52:21Z</time>
      </trkpt>
      <trkpt lat="46.04232" lon="4.82337">
        <ele>243</ele>
        <time>2016-10-04T10:52:22Z</time>
      </trkpt>
      <trkpt lat="46.04229" lon="4.82332">
        <ele>242</ele>
        <time>2016-10-04T10:52:23Z</time>
      </trkpt>
      <trkpt lat="46.04225" lon="4.82328">
        <ele>242</ele>
        <time>2016-10-04T10:52:24Z</time>
      </trkpt>
      <trkpt lat="46.04221" lon="4.82324">
        <ele>242</ele>
        <time>2016-10-04T10:52:25Z</time>
      </trkpt>
      <trkpt lat="46.04217" lon="4.82319">
        <ele>242</ele>
        <time>2016-10-04T10:52:26Z</time>
      </trkpt>
      <trkpt lat="46.04213" lon="4.82314">
        <ele>242</ele>
        <time>2016-10-04T10:52:27Z</time>
      </trkpt>
      <trkpt lat="46.04209" lon="4.82308">
        <ele>242</ele>
        <time>2016-10-04T10:52:28Z</time>
      </trkpt>
      <trkpt lat="46.04205" lon="4.82303">
        <ele>242</ele>
        <time>2016-10-04T10:52:29Z</time>
      </trkpt>
      <trkpt lat="46.04201" lon="4.82297">
        <ele>242</ele>
        <time>2016-10-04T10:52:30Z</time>
      </trkpt>
      <trkpt lat="46.04197" lon="4.82292">
        <ele>242</ele>
        <time>2016-10-04T10:52:31Z</time>
      </trkpt>
      <trkpt lat="46.04192" lon="4.82286">
        <ele>242</ele>
        <time>2016-10-04T10:52:32Z</time>
      </trkpt>
      <trkpt lat="46.04187" lon="4.82281">
        <ele>242</ele>
        <time>2016-10-04T10:52:33Z</time>
      </trkpt>
      <trkpt lat="46.04183" lon="4.82275">
        <ele>242</ele>
        <time>2016-10-04T10:52:34Z</time>
      </trkpt>
      <trkpt lat="46.04178" lon="4.82269">
        <ele>242</ele>
        <time>2016-10-04T10:52:35Z</time>
      </trkpt>
      <trkpt lat="46.04174" lon="4.82264">
        <ele>242</ele>
        <time>2016-10-04T10:52:36Z</time>
      </trkpt>
      <trkpt lat="46.0417" lon="4.82259">
        <ele>242</ele>
        <time>2016-10-04T10:52:37Z</time>
      </trkpt>
      <trkpt lat="46.04166" lon="4.82252">
        <ele>242</ele>
        <time>2016-10-04T10:52:38Z</time>
      </trkpt>
      <trkpt lat="46.04162" lon="4.82246">
        <ele>242</ele>
        <time>2016-10-04T10:52:39Z</time>
      </trkpt>
      <trkpt lat="46.04158" lon="4.8224">
        <ele>242</ele>
        <time>2016-10-04T10:52:40Z</time>
      </trkpt>
      <trkpt lat="46.04154" lon="4.82235">
        <ele>242</ele>
        <time>2016-10-04T10:52:41Z</time>
      </trkpt>
      <trkpt lat="46.0415" lon="4.82229">
        <ele>242</ele>
        <time>2016-10-04T10:52:42Z</time>
      </trkpt>
      <trkpt lat="46.04145" lon="4.82224">
        <ele>242</ele>
        <time>2016-10-04T10:52:43Z</time>
      </trkpt>
      <trkpt lat="46.04142" lon="4.82219">
        <ele>242</ele>
        <time>2016-10-04T10:52:44Z</time>
      </trkpt>
      <trkpt lat="46.04138" lon="4.82214">
        <ele>242</ele>
        <time>2016-10-04T10:52:45Z</time>
      </trkpt>
      <trkpt lat="46.04134" lon="4.82208">
        <ele>242</ele>
        <time>2016-10-04T10:52:46Z</time>
      </trkpt>
      <trkpt lat="46.04129" lon="4.82203">
        <ele>242</ele>
        <time>2016-10-04T10:52:47Z</time>
      </trkpt>
      <trkpt lat="46.04126" lon="4.82197">
        <ele>242</ele>
        <time>2016-10-04T10:52:48Z</time>
      </trkpt>
      <trkpt lat="46.04123" lon="4.82192">
        <ele>242</ele>
        <time>2016-10-04T10:52:49Z</time>
      </trkpt>
      <trkpt lat="46.04119" lon="4.82186">
        <ele>242</ele>
        <time>2016-10-04T10:52:50Z</time>
      </trkpt>
      <trkpt lat="46.04115" lon="4.8218">
        <ele>242</ele>
        <time>2016-10-04T10:52:51Z</time>
      </trkpt>
      <trkpt lat="46.04111" lon="4.82174">
        <ele>242</ele>
        <time>2016-10-04T10:52:52Z</time>
      </trkpt>
      <trkpt lat="46.04108" lon="4.82166">
        <ele>242</ele>
        <time>2016-10-04T10:52:53Z</time>
      </trkpt>
      <trkpt lat="46.04104" lon="4.82159">
        <ele>242</ele>
        <time>2016-10-04T10:52:54Z</time>
      </trkpt>
      <trkpt lat="46.04101" lon="4.82152">
        <ele>242</ele>
        <time>2016-10-04T10:52:55Z</time>
      </trkpt>
      <trkpt lat="46.04098" lon="4.82145">
        <ele>242</ele>
        <time>2016-10-04T10:52:56Z</time>
      </trkpt>
      <trkpt lat="46.04095" lon="4.82138">
        <ele>242</ele>
        <time>2016-10-04T10:52:57Z</time>
      </trkpt>
      <trkpt lat="46.04092" lon="4.82132">
        <ele>242</ele>
        <time>2016-10-04T10:52:58Z</time>
      </trkpt>
      <trkpt lat="46.04088" lon="4.82125">
        <ele>242</ele>
        <time>2016-10-04T10:52:59Z</time>
      </trkpt>
      <trkpt lat="46.04085" lon="4.82118">
        <ele>242</ele>
        <time>2016-10-04T10:53:00Z</time>
      </trkpt>
      <trkpt lat="46.04083" lon="4.82111">
        <ele>243</ele>
        <time>2016-10-04T10:53:01Z</time>
      </trkpt>
      <trkpt lat="46.0408" lon="4.82104">
        <ele>243</ele>
        <time>2016-10-04T10:53:02Z</time>
      </trkpt>
      <trkpt lat="46.04078" lon="4.82096">
        <ele>243</ele>
        <time>2016-10-04T10:53:03Z</time>
      </trkpt>
      <trkpt lat="46.04075" lon="4.82086">
        <ele>243</ele>
        <time>2016-10-04T10:53:04Z</time>
      </trkpt>
      <trkpt lat="46.04073" lon="4.82076">
        <ele>243</ele>
        <time>2016-10-04T10:53:05Z</time>
      </trkpt>
      <trkpt lat="46.0407" lon="4.82067">
        <ele>243</ele>
        <time>2016-10-04T10:53:06Z</time>
      </trkpt>
      <trkpt lat="46.04067" lon="4.82058">
        <ele>243</ele>
        <time>2016-10-04T10:53:07Z</time>
      </trkpt>
      <trkpt lat="46.04063" lon="4.82049">
        <ele>243</ele>
        <time>2016-10-04T10:53:08Z</time>
      </trkpt>
      <trkpt lat="46.04059" lon="4.82039">
        <ele>243</ele>
        <time>2016-10-04T10:53:09Z</time>
      </trkpt>
      <trkpt lat="46.04056" lon="4.82029">
        <ele>243</ele>
        <time>2016-10-04T10:53:10Z</time>
      </trkpt>
      <trkpt lat="46.04053" lon="4.8202">
        <ele>243</ele>
        <time>2016-10-04T10:53:11Z</time>
      </trkpt>
      <trkpt lat="46.0405" lon="4.8201">
        <ele>242</ele>
        <time>2016-10-04T10:53:12Z</time>
      </trkpt>
      <trkpt lat="46.04047" lon="4.82001">
        <ele>242</ele>
        <time>2016-10-04T10:53:13Z</time>
      </trkpt>
      <trkpt lat="46.04044" lon="4.81991">
        <ele>241</ele>
        <time>2016-10-04T10:53:14Z</time>
      </trkpt>
      <trkpt lat="46.04041" lon="4.81982">
        <ele>241</ele>
        <time>2016-10-04T10:53:15Z</time>
      </trkpt>
      <trkpt lat="46.04038" lon="4.81973">
        <ele>241</ele>
        <time>2016-10-04T10:53:16Z</time>
      </trkpt>
      <trkpt lat="46.04035" lon="4.81964">
        <ele>241</ele>
        <time>2016-10-04T10:53:17Z</time>
      </trkpt>
      <trkpt lat="46.04032" lon="4.81955">
        <ele>241</ele>
        <time>2016-10-04T10:53:18Z</time>
      </trkpt>
      <trkpt lat="46.04027" lon="4.81947">
        <ele>241</ele>
        <time>2016-10-04T10:53:19Z</time>
      </trkpt>
      <trkpt lat="46.04024" lon="4.81938">
        <ele>241</ele>
        <time>2016-10-04T10:53:20Z</time>
      </trkpt>
      <trkpt lat="46.04021" lon="4.8193">
        <ele>240</ele>
        <time>2016-10-04T10:53:21Z</time>
      </trkpt>
      <trkpt lat="46.04018" lon="4.81922">
        <ele>240</ele>
        <time>2016-10-04T10:53:22Z</time>
      </trkpt>
      <trkpt lat="46.04016" lon="4.81914">
        <ele>239</ele>
        <time>2016-10-04T10:53:23Z</time>
      </trkpt>
      <trkpt lat="46.04012" lon="4.81905">
        <ele>239</ele>
        <time>2016-10-04T10:53:24Z</time>
      </trkpt>
      <trkpt lat="46.04009" lon="4.81897">
        <ele>239</ele>
        <time>2016-10-04T10:53:25Z</time>
      </trkpt>
      <trkpt lat="46.04006" lon="4.8189">
        <ele>239</ele>
        <time>2016-10-04T10:53:26Z</time>
      </trkpt>
      <trkpt lat="46.04004" lon="4.81881">
        <ele>239</ele>
        <time>2016-10-04T10:53:27Z</time>
      </trkpt>
      <trkpt lat="46.04" lon="4.81873">
        <ele>239</ele>
        <time>2016-10-04T10:53:28Z</time>
      </trkpt>
      <trkpt lat="46.03997" lon="4.81864">
        <ele>238</ele>
        <time>2016-10-04T10:53:29Z</time>
      </trkpt>
      <trkpt lat="46.03995" lon="4.81856">
        <ele>238</ele>
        <time>2016-10-04T10:53:30Z</time>
      </trkpt>
      <trkpt lat="46.03992" lon="4.81846">
        <ele>238</ele>
        <time>2016-10-04T10:53:31Z</time>
      </trkpt>
      <trkpt lat="46.03989" lon="4.81837">
        <ele>238</ele>
        <time>2016-10-04T10:53:32Z</time>
      </trkpt>
      <trkpt lat="46.03986" lon="4.81828">
        <ele>238</ele>
        <time>2016-10-04T10:53:33Z</time>
      </trkpt>
      <trkpt lat="46.03983" lon="4.81819">
        <ele>238</ele>
        <time>2016-10-04T10:53:34Z</time>
      </trkpt>
      <trkpt lat="46.0398" lon="4.8181">
        <ele>238</ele>
        <time>2016-10-04T10:53:35Z</time>
      </trkpt>
      <trkpt lat="46.03977" lon="4.81801">
        <ele>238</ele>
        <time>2016-10-04T10:53:36Z</time>
      </trkpt>
      <trkpt lat="46.03973" lon="4.81793">
        <ele>238</ele>
        <time>2016-10-04T10:53:37Z</time>
      </trkpt>
      <trkpt lat="46.03969" lon="4.81785">
        <ele>238</ele>
        <time>2016-10-04T10:53:38Z</time>
      </trkpt>
      <trkpt lat="46.03966" lon="4.81777">
        <ele>238</ele>
        <time>2016-10-04T10:53:39Z</time>
      </trkpt>
      <trkpt lat="46.03963" lon="4.81769">
        <ele>238</ele>
        <time>2016-10-04T10:53:40Z</time>
      </trkpt>
      <trkpt lat="46.0396" lon="4.81762">
        <ele>238</ele>
        <time>2016-10-04T10:53:41Z</time>
      </trkpt>
      <trkpt lat="46.03957" lon="4.81754">
        <ele>238</ele>
        <time>2016-10-04T10:53:42Z</time>
      </trkpt>
      <trkpt lat="46.03953" lon="4.81747">
        <ele>238</ele>
        <time>2016-10-04T10:53:43Z</time>
      </trkpt>
      <trkpt lat="46.0395" lon="4.81739">
        <ele>238</ele>
        <time>2016-10-04T10:53:44Z</time>
      </trkpt>
      <trkpt lat="46.03947" lon="4.81731">
        <ele>238</ele>
        <time>2016-10-04T10:53:45Z</time>
      </trkpt>
      <trkpt lat="46.03943" lon="4.81723">
        <ele>238</ele>
        <time>2016-10-04T10:53:46Z</time>
      </trkpt>
      <trkpt lat="46.0394" lon="4.81715">
        <ele>238</ele>
        <time>2016-10-04T10:53:47Z</time>
      </trkpt>
      <trkpt lat="46.03936" lon="4.81706">
        <ele>238</ele>
        <time>2016-10-04T10:53:48Z</time>
      </trkpt>
      <trkpt lat="46.03933" lon="4.81698">
        <ele>237</ele>
        <time>2016-10-04T10:53:49Z</time>
      </trkpt>
      <trkpt lat="46.0393" lon="4.8169">
        <ele>237</ele>
        <time>2016-10-04T10:53:50Z</time>
      </trkpt>
      <trkpt lat="46.03926" lon="4.81682">
        <ele>237</ele>
        <time>2016-10-04T10:53:51Z</time>
      </trkpt>
      <trkpt lat="46.03922" lon="4.81675">
        <ele>237</ele>
        <time>2016-10-04T10:53:52Z</time>
      </trkpt>
      <trkpt lat="46.03918" lon="4.81668">
        <ele>237</ele>
        <time>2016-10-04T10:53:53Z</time>
      </trkpt>
      <trkpt lat="46.03914" lon="4.81661">
        <ele>237</ele>
        <time>2016-10-04T10:53:54Z</time>
      </trkpt>
      <trkpt lat="46.03909" lon="4.81654">
        <ele>237</ele>
        <time>2016-10-04T10:53:55Z</time>
      </trkpt>
      <trkpt lat="46.03904" lon="4.81648">
        <ele>238</ele>
        <time>2016-10-04T10:53:56Z</time>
      </trkpt>
      <trkpt lat="46.039" lon="4.81641">
        <ele>238</ele>
        <time>2016-10-04T10:53:57Z</time>
      </trkpt>
      <trkpt lat="46.03897" lon="4.81635">
        <ele>238</ele>
        <time>2016-10-04T10:53:58Z</time>
      </trkpt>
      <trkpt lat="46.03893" lon="4.81629">
        <ele>238</ele>
        <time>2016-10-04T10:53:59Z</time>
      </trkpt>
      <trkpt lat="46.03889" lon="4.81623">
        <ele>238</ele>
        <time>2016-10-04T10:54:00Z</time>
      </trkpt>
      <trkpt lat="46.03885" lon="4.81616">
        <ele>238</ele>
        <time>2016-10-04T10:54:01Z</time>
      </trkpt>
      <trkpt lat="46.03881" lon="4.8161">
        <ele>238</ele>
        <time>2016-10-04T10:54:02Z</time>
      </trkpt>
      <trkpt lat="46.03877" lon="4.81603">
        <ele>238</ele>
        <time>2016-10-04T10:54:03Z</time>
      </trkpt>
      <trkpt lat="46.03873" lon="4.81595">
        <ele>238</ele>
        <time>2016-10-04T10:54:04Z</time>
      </trkpt>
      <trkpt lat="46.0387" lon="4.81587">
        <ele>238</ele>
        <time>2016-10-04T10:54:05Z</time>
      </trkpt>
      <trkpt lat="46.03865" lon="4.8158">
        <ele>238</ele>
        <time>2016-10-04T10:54:06Z</time>
      </trkpt>
      <trkpt lat="46.0386" lon="4.81572">
        <ele>238</ele>
        <time>2016-10-04T10:54:07Z</time>
      </trkpt>
      <trkpt lat="46.03855" lon="4.81564">
        <ele>238</ele>
        <time>2016-10-04T10:54:08Z</time>
      </trkpt>
      <trkpt lat="46.0385" lon="4.81556">
        <ele>238</ele>
        <time>2016-10-04T10:54:09Z</time>
      </trkpt>
      <trkpt lat="46.03844" lon="4.81549">
        <ele>238</ele>
        <time>2016-10-04T10:54:10Z</time>
      </trkpt>
      <trkpt lat="46.03839" lon="4.81541">
        <ele>238</ele>
        <time>2016-10-04T10:54:11Z</time>
      </trkpt>
      <trkpt lat="46.03834" lon="4.81534">
        <ele>238</ele>
        <time>2016-10-04T10:54:12Z</time>
      </trkpt>
      <trkpt lat="46.03829" lon="4.81526">
        <ele>238</ele>
        <time>2016-10-04T10:54:13Z</time>
      </trkpt>
      <trkpt lat="46.03825" lon="4.81519">
        <ele>238</ele>
        <time>2016-10-04T10:54:14Z</time>
      </trkpt>
      <trkpt lat="46.0382" lon="4.81512">
        <ele>238</ele>
        <time>2016-10-04T10:54:15Z</time>
      </trkpt>
      <trkpt lat="46.03816" lon="4.81505">
        <ele>238</ele>
        <time>2016-10-04T10:54:16Z</time>
      </trkpt>
      <trkpt lat="46.03812" lon="4.81498">
        <ele>237</ele>
        <time>2016-10-04T10:54:17Z</time>
      </trkpt>
      <trkpt lat="46.03808" lon="4.81491">
        <ele>237</ele>
        <time>2016-10-04T10:54:18Z</time>
      </trkpt>
      <trkpt lat="46.03803" lon="4.81484">
        <ele>237</ele>
        <time>2016-10-04T10:54:19Z</time>
      </trkpt>
      <trkpt lat="46.03799" lon="4.81477">
        <ele>237</ele>
        <time>2016-10-04T10:54:20Z</time>
      </trkpt>
      <trkpt lat="46.03795" lon="4.81468">
        <ele>237</ele>
        <time>2016-10-04T10:54:21Z</time>
      </trkpt>
      <trkpt lat="46.0379" lon="4.81461">
        <ele>237</ele>
        <time>2016-10-04T10:54:22Z</time>
      </trkpt>
      <trkpt lat="46.03785" lon="4.81454">
        <ele>237</ele>
        <time>2016-10-04T10:54:23Z</time>
      </trkpt>
      <trkpt lat="46.0378" lon="4.81446">
        <ele>237</ele>
        <time>2016-10-04T10:54:24Z</time>
      </trkpt>
      <trkpt lat="46.03775" lon="4.81439">
        <ele>237</ele>
        <time>2016-10-04T10:54:25Z</time>
      </trkpt>
      <trkpt lat="46.0377" lon="4.81431">
        <ele>237</ele>
        <time>2016-10-04T10:54:26Z</time>
      </trkpt>
      <trkpt lat="46.03764" lon="4.81424">
        <ele>236</ele>
        <time>2016-10-04T10:54:27Z</time>
      </trkpt>
      <trkpt lat="46.03759" lon="4.81416">
        <ele>236</ele>
        <time>2016-10-04T10:54:28Z</time>
      </trkpt>
      <trkpt lat="46.03754" lon="4.81408">
        <ele>236</ele>
        <time>2016-10-04T10:54:29Z</time>
      </trkpt>
      <trkpt lat="46.03749" lon="4.814">
        <ele>236</ele>
        <time>2016-10-04T10:54:30Z</time>
      </trkpt>
      <trkpt lat="46.03743" lon="4.81392">
        <ele>236</ele>
        <time>2016-10-04T10:54:31Z</time>
      </trkpt>
      <trkpt lat="46.03738" lon="4.81384">
        <ele>236</ele>
        <time>2016-10-04T10:54:32Z</time>
      </trkpt>
      <trkpt lat="46.03734" lon="4.81376">
        <ele>236</ele>
        <time>2016-10-04T10:54:33Z</time>
      </trkpt>
      <trkpt lat="46.03729" lon="4.81369">
        <ele>235</ele>
        <time>2016-10-04T10:54:34Z</time>
      </trkpt>
      <trkpt lat="46.03724" lon="4.81361">
        <ele>235</ele>
        <time>2016-10-04T10:54:35Z</time>
      </trkpt>
      <trkpt lat="46.03719" lon="4.81352">
        <ele>235</ele>
        <time>2016-10-04T10:54:36Z</time>
      </trkpt>
      <trkpt lat="46.03714" lon="4.81344">
        <ele>235</ele>
        <time>2016-10-04T10:54:37Z</time>
      </trkpt>
      <trkpt lat="46.03708" lon="4.81336">
        <ele>235</ele>
        <time>2016-10-04T10:54:38Z</time>
      </trkpt>
      <trkpt lat="46.03703" lon="4.81328">
        <ele>235</ele>
        <time>2016-10-04T10:54:39Z</time>
      </trkpt>
      <trkpt lat="46.03697" lon="4.8132">
        <ele>235</ele>
        <time>2016-10-04T10:54:40Z</time>
      </trkpt>
      <trkpt lat="46.03692" lon="4.81311">
        <ele>235</ele>
        <time>2016-10-04T10:54:41Z</time>
      </trkpt>
      <trkpt lat="46.03685" lon="4.81303">
        <ele>235</ele>
        <time>2016-10-04T10:54:42Z</time>
      </trkpt>
      <trkpt lat="46.03679" lon="4.81295">
        <ele>235</ele>
        <time>2016-10-04T10:54:43Z</time>
      </trkpt>
      <trkpt lat="46.03673" lon="4.81287">
        <ele>235</ele>
        <time>2016-10-04T10:54:44Z</time>
      </trkpt>
      <trkpt lat="46.03666" lon="4.8128">
        <ele>234</ele>
        <time>2016-10-04T10:54:45Z</time>
      </trkpt>
      <trkpt lat="46.0366" lon="4.81274">
        <ele>234</ele>
        <time>2016-10-04T10:54:46Z</time>
      </trkpt>
      <trkpt lat="46.03653" lon="4.81267">
        <ele>234</ele>
        <time>2016-10-04T10:54:47Z</time>
      </trkpt>
      <trkpt lat="46.03646" lon="4.81262">
        <ele>234</ele>
        <time>2016-10-04T10:54:48Z</time>
      </trkpt>
      <trkpt lat="46.03639" lon="4.81256">
        <ele>234</ele>
        <time>2016-10-04T10:54:49Z</time>
      </trkpt>
      <trkpt lat="46.03632" lon="4.81251">
        <ele>234</ele>
        <time>2016-10-04T10:54:50Z</time>
      </trkpt>
      <trkpt lat="46.03625" lon="4.81246">
        <ele>233</ele>
        <time>2016-10-04T10:54:51Z</time>
      </trkpt>
      <trkpt lat="46.03618" lon="4.8124">
        <ele>233</ele>
        <time>2016-10-04T10:54:52Z</time>
      </trkpt>
      <trkpt lat="46.03611" lon="4.81235">
        <ele>232</ele>
        <time>2016-10-04T10:54:53Z</time>
      </trkpt>
      <trkpt lat="46.03604" lon="4.8123">
        <ele>232</ele>
        <time>2016-10-04T10:54:54Z</time>
      </trkpt>
      <trkpt lat="46.03597" lon="4.81225">
        <ele>232</ele>
        <time>2016-10-04T10:54:55Z</time>
      </trkpt>
      <trkpt lat="46.0359" lon="4.81221">
        <ele>232</ele>
        <time>2016-10-04T10:54:56Z</time>
      </trkpt>
      <trkpt lat="46.03583" lon="4.81216">
        <ele>231</ele>
        <time>2016-10-04T10:54:57Z</time>
      </trkpt>
      <trkpt lat="46.03575" lon="4.81211">
        <ele>231</ele>
        <time>2016-10-04T10:54:58Z</time>
      </trkpt>
      <trkpt lat="46.03568" lon="4.81205">
        <ele>230</ele>
        <time>2016-10-04T10:54:59Z</time>
      </trkpt>
      <trkpt lat="46.03561" lon="4.81199">
        <ele>230</ele>
        <time>2016-10-04T10:55:00Z</time>
      </trkpt>
      <trkpt lat="46.03554" lon="4.81194">
        <ele>230</ele>
        <time>2016-10-04T10:55:01Z</time>
      </trkpt>
      <trkpt lat="46.03547" lon="4.81189">
        <ele>230</ele>
        <time>2016-10-04T10:55:02Z</time>
      </trkpt>
      <trkpt lat="46.03539" lon="4.81184">
        <ele>230</ele>
        <time>2016-10-04T10:55:03Z</time>
      </trkpt>
      <trkpt lat="46.03531" lon="4.81178">
        <ele>230</ele>
        <time>2016-10-04T10:55:04Z</time>
      </trkpt>
      <trkpt lat="46.03524" lon="4.81173">
        <ele>230</ele>
        <time>2016-10-04T10:55:05Z</time>
      </trkpt>
      <trkpt lat="46.03516" lon="4.81169">
        <ele>230</ele>
        <time>2016-10-04T10:55:06Z</time>
      </trkpt>
      <trkpt lat="46.03509" lon="4.81162">
        <ele>229</ele>
        <time>2016-10-04T10:55:07Z</time>
      </trkpt>
      <trkpt lat="46.03502" lon="4.81157">
        <ele>229</ele>
        <time>2016-10-04T10:55:08Z</time>
      </trkpt>
      <trkpt lat="46.03494" lon="4.81152">
        <ele>228</ele>
        <time>2016-10-04T10:55:09Z</time>
      </trkpt>
      <trkpt lat="46.03487" lon="4.81147">
        <ele>228</ele>
        <time>2016-10-04T10:55:10Z</time>
      </trkpt>
      <trkpt lat="46.0348" lon="4.81143">
        <ele>228</ele>
        <time>2016-10-04T10:55:11Z</time>
      </trkpt>
      <trkpt lat="46.03473" lon="4.81138">
        <ele>228</ele>
        <time>2016-10-04T10:55:12Z</time>
      </trkpt>
      <trkpt lat="46.03466" lon="4.81134">
        <ele>228</ele>
        <time>2016-10-04T10:55:13Z</time>
      </trkpt>
      <trkpt lat="46.03459" lon="4.8113">
        <ele>228</ele>
        <time>2016-10-04T10:55:14Z</time>
      </trkpt>
      <trkpt lat="46.03452" lon="4.81125">
        <ele>228</ele>
        <time>2016-10-04T10:55:15Z</time>
      </trkpt>
      <trkpt lat="46.03446" lon="4.8112">
        <ele>228</ele>
        <time>2016-10-04T10:55:16Z</time>
      </trkpt>
      <trkpt lat="46.0344" lon="4.81116">
        <ele>228</ele>
        <time>2016-10-04T10:55:17Z</time>
      </trkpt>
      <trkpt lat="46.03433" lon="4.81111">
        <ele>228</ele>
        <time>2016-10-04T10:55:18Z</time>
      </trkpt>
      <trkpt lat="46.03428" lon="4.81107">
        <ele>228</ele>
        <time>2016-10-04T10:55:19Z</time>
      </trkpt>
      <trkpt lat="46.03422" lon="4.81103">
        <ele>228</ele>
        <time>2016-10-04T10:55:20Z</time>
      </trkpt>
      <trkpt lat="46.03416" lon="4.81098">
        <ele>228</ele>
        <time>2016-10-04T10:55:21Z</time>
      </trkpt>
      <trkpt lat="46.03411" lon="4.81092">
        <ele>228</ele>
        <time>2016-10-04T10:55:22Z</time>
      </trkpt>
      <trkpt lat="46.03404" lon="4.81088">
        <ele>228</ele>
        <time>2016-10-04T10:55:23Z</time>
      </trkpt>
      <trkpt lat="46.03397" lon="4.81084">
        <ele>228</ele>
        <time>2016-10-04T10:55:24Z</time>
      </trkpt>
      <trkpt lat="46.03391" lon="4.81079">
        <ele>229</ele>
        <time>2016-10-04T10:55:25Z</time>
      </trkpt>
      <trkpt lat="46.03385" lon="4.81074">
        <ele>229</ele>
        <time>2016-10-04T10:55:26Z</time>
      </trkpt>
      <trkpt lat="46.03379" lon="4.8107">
        <ele>229</ele>
        <time>2016-10-04T10:55:27Z</time>
      </trkpt>
      <trkpt lat="46.03373" lon="4.81067">
        <ele>229</ele>
        <time>2016-10-04T10:55:28Z</time>
      </trkpt>
      <trkpt lat="46.03366" lon="4.81063">
        <ele>229</ele>
        <time>2016-10-04T10:55:29Z</time>
      </trkpt>
      <trkpt lat="46.0336" lon="4.81058">
        <ele>229</ele>
        <time>2016-10-04T10:55:30Z</time>
      </trkpt>
      <trkpt lat="46.03354" lon="4.81053">
        <ele>229</ele>
        <time>2016-10-04T10:55:31Z</time>
      </trkpt>
      <trkpt lat="46.03348" lon="4.81049">
        <ele>229</ele>
        <time>2016-10-04T10:55:32Z</time>
      </trkpt>
      <trkpt lat="46.03342" lon="4.81043">
        <ele>229</ele>
        <time>2016-10-04T10:55:33Z</time>
      </trkpt>
      <trkpt lat="46.03336" lon="4.81039">
        <ele>229</ele>
        <time>2016-10-04T10:55:34Z</time>
      </trkpt>
      <trkpt lat="46.03329" lon="4.81034">
        <ele>230</ele>
        <time>2016-10-04T10:55:35Z</time>
      </trkpt>
      <trkpt lat="46.03322" lon="4.8103">
        <ele>230</ele>
        <time>2016-10-04T10:55:36Z</time>
      </trkpt>
      <trkpt lat="46.03316" lon="4.81024">
        <ele>230</ele>
        <time>2016-10-04T10:55:37Z</time>
      </trkpt>
      <trkpt lat="46.03309" lon="4.8102">
        <ele>230</ele>
        <time>2016-10-04T10:55:38Z</time>
      </trkpt>
      <trkpt lat="46.03304" lon="4.81016">
        <ele>230</ele>
        <time>2016-10-04T10:55:39Z</time>
      </trkpt>
      <trkpt lat="46.03298" lon="4.81012">
        <ele>230</ele>
        <time>2016-10-04T10:55:40Z</time>
      </trkpt>
      <trkpt lat="46.03292" lon="4.81007">
        <ele>230</ele>
        <time>2016-10-04T10:55:41Z</time>
      </trkpt>
      <trkpt lat="46.03286" lon="4.81003">
        <ele>230</ele>
        <time>2016-10-04T10:55:42Z</time>
      </trkpt>
      <trkpt lat="46.0328" lon="4.80999">
        <ele>230</ele>
        <time>2016-10-04T10:55:43Z</time>
      </trkpt>
      <trkpt lat="46.03274" lon="4.80995">
        <ele>230</ele>
        <time>2016-10-04T10:55:44Z</time>
      </trkpt>
      <trkpt lat="46.03269" lon="4.80991">
        <ele>230</ele>
        <time>2016-10-04T10:55:45Z</time>
      </trkpt>
      <trkpt lat="46.03263" lon="4.80987">
        <ele>230</ele>
        <time>2016-10-04T10:55:46Z</time>
      </trkpt>
      <trkpt lat="46.03258" lon="4.80983">
        <ele>230</ele>
        <time>2016-10-04T10:55:47Z</time>
      </trkpt>
      <trkpt lat="46.03253" lon="4.80979">
        <ele>230</ele>
        <time>2016-10-04T10:55:48Z</time>
      </trkpt>
      <trkpt lat="46.03247" lon="4.80975">
        <ele>230</ele>
        <time>2016-10-04T10:55:49Z</time>
      </trkpt>
      <trkpt lat="46.03242" lon="4.80971">
        <ele>230</ele>
        <time>2016-10-04T10:55:50Z</time>
      </trkpt>
      <trkpt lat="46.03238" lon="4.8097">
        <ele>231</ele>
        <time>2016-10-04T10:55:51Z</time>
      </trkpt>
      <trkpt lat="46.03234" lon="4.80967">
        <ele>231</ele>
        <time>2016-10-04T10:55:52Z</time>
      </trkpt>
      <trkpt lat="46.03227" lon="4.80963">
        <ele>231</ele>
        <time>2016-10-04T10:55:53Z</time>
      </trkpt>
      <trkpt lat="46.03222" lon="4.80959">
        <ele>231</ele>
        <time>2016-10-04T10:55:54Z</time>
      </trkpt>
      <trkpt lat="46.03216" lon="4.80956">
        <ele>231</ele>
        <time>2016-10-04T10:55:55Z</time>
      </trkpt>
      <trkpt lat="46.03211" lon="4.80952">
        <ele>231</ele>
        <time>2016-10-04T10:55:56Z</time>
      </trkpt>
      <trkpt lat="46.03207" lon="4.80946">
        <ele>231</ele>
        <time>2016-10-04T10:55:57Z</time>
      </trkpt>
      <trkpt lat="46.03202" lon="4.8094">
        <ele>231</ele>
        <time>2016-10-04T10:55:58Z</time>
      </trkpt>
      <trkpt lat="46.03199" lon="4.80934">
        <ele>231</ele>
        <time>2016-10-04T10:55:59Z</time>
      </trkpt>
      <trkpt lat="46.03194" lon="4.80927">
        <ele>231</ele>
        <time>2016-10-04T10:56:00Z</time>
      </trkpt>
      <trkpt lat="46.0319" lon="4.8092">
        <ele>231</ele>
        <time>2016-10-04T10:56:01Z</time>
      </trkpt>
      <trkpt lat="46.03187" lon="4.80913">
        <ele>231</ele>
        <time>2016-10-04T10:56:02Z</time>
      </trkpt>
      <trkpt lat="46.03183" lon="4.80906">
        <ele>231</ele>
        <time>2016-10-04T10:56:03Z</time>
      </trkpt>
      <trkpt lat="46.03179" lon="4.80899">
        <ele>231</ele>
        <time>2016-10-04T10:56:04Z</time>
      </trkpt>
      <trkpt lat="46.03176" lon="4.80893">
        <ele>231</ele>
        <time>2016-10-04T10:56:05Z</time>
      </trkpt>
      <trkpt lat="46.03172" lon="4.80886">
        <ele>231</ele>
        <time>2016-10-04T10:56:06Z</time>
      </trkpt>
      <trkpt lat="46.0317" lon="4.80878">
        <ele>231</ele>
        <time>2016-10-04T10:56:07Z</time>
      </trkpt>
      <trkpt lat="46.03169" lon="4.80869">
        <ele>231</ele>
        <time>2016-10-04T10:56:08Z</time>
      </trkpt>
      <trkpt lat="46.03166" lon="4.80861">
        <ele>232</ele>
        <time>2016-10-04T10:56:09Z</time>
      </trkpt>
      <trkpt lat="46.03164" lon="4.80855">
        <ele>232</ele>
        <time>2016-10-04T10:56:10Z</time>
      </trkpt>
      <trkpt lat="46.03162" lon="4.80848">
        <ele>232</ele>
        <time>2016-10-04T10:56:11Z</time>
      </trkpt>
      <trkpt lat="46.03161" lon="4.8084">
        <ele>232</ele>
        <time>2016-10-04T10:56:12Z</time>
      </trkpt>
      <trkpt lat="46.03156" lon="4.80832">
        <ele>232</ele>
        <time>2016-10-04T10:56:13Z</time>
      </trkpt>
      <trkpt lat="46.03153" lon="4.80825">
        <ele>232</ele>
        <time>2016-10-04T10:56:14Z</time>
      </trkpt>
      <trkpt lat="46.03147" lon="4.80819">
        <ele>232</ele>
        <time>2016-10-04T10:56:15Z</time>
      </trkpt>
      <trkpt lat="46.03143" lon="4.80812">
        <ele>233</ele>
        <time>2016-10-04T10:56:16Z</time>
      </trkpt>
      <trkpt lat="46.03139" lon="4.80806">
        <ele>233</ele>
        <time>2016-10-04T10:56:17Z</time>
      </trkpt>
      <trkpt lat="46.03136" lon="4.808">
        <ele>233</ele>
        <time>2016-10-04T10:56:18Z</time>
      </trkpt>
      <trkpt lat="46.03132" lon="4.80794">
        <ele>233</ele>
        <time>2016-10-04T10:56:19Z</time>
      </trkpt>
      <trkpt lat="46.03128" lon="4.80788">
        <ele>233</ele>
        <time>2016-10-04T10:56:20Z</time>
      </trkpt>
      <trkpt lat="46.03124" lon="4.80782">
        <ele>233</ele>
        <time>2016-10-04T10:56:21Z</time>
      </trkpt>
      <trkpt lat="46.03121" lon="4.80775">
        <ele>233</ele>
        <time>2016-10-04T10:56:22Z</time>
      </trkpt>
      <trkpt lat="46.03119" lon="4.80768">
        <ele>233</ele>
        <time>2016-10-04T10:56:23Z</time>
      </trkpt>
      <trkpt lat="46.03117" lon="4.8076">
        <ele>233</ele>
        <time>2016-10-04T10:56:24Z</time>
      </trkpt>
      <trkpt lat="46.03113" lon="4.80753">
        <ele>233</ele>
        <time>2016-10-04T10:56:25Z</time>
      </trkpt>
      <trkpt lat="46.03109" lon="4.80746">
        <ele>233</ele>
        <time>2016-10-04T10:56:26Z</time>
      </trkpt>
      <trkpt lat="46.03107" lon="4.80739">
        <ele>233</ele>
        <time>2016-10-04T10:56:27Z</time>
      </trkpt>
      <trkpt lat="46.03105" lon="4.80732">
        <ele>233</ele>
        <time>2016-10-04T10:56:28Z</time>
      </trkpt>
      <trkpt lat="46.03103" lon="4.80726">
        <ele>233</ele>
        <time>2016-10-04T10:56:29Z</time>
      </trkpt>
      <trkpt lat="46.03098" lon="4.80715">
        <ele>233</ele>
        <time>2016-10-04T10:56:31Z</time>
      </trkpt>
      <trkpt lat="46.03095" lon="4.80709">
        <ele>233</ele>
        <time>2016-10-04T10:56:32Z</time>
      </trkpt>
      <trkpt lat="46.03092" lon="4.80704">
        <ele>233</ele>
        <time>2016-10-04T10:56:33Z</time>
      </trkpt>
      <trkpt lat="46.03088" lon="4.80697">
        <ele>233</ele>
        <time>2016-10-04T10:56:34Z</time>
      </trkpt>
      <trkpt lat="46.03085" lon="4.80691">
        <ele>233</ele>
        <time>2016-10-04T10:56:35Z</time>
      </trkpt>
      <trkpt lat="46.03083" lon="4.80685">
        <ele>233</ele>
        <time>2016-10-04T10:56:36Z</time>
      </trkpt>
      <trkpt lat="46.0308" lon="4.80673">
        <ele>233</ele>
        <time>2016-10-04T10:56:38Z</time>
      </trkpt>
      <trkpt lat="46.0308" lon="4.80666">
        <ele>233</ele>
        <time>2016-10-04T10:56:39Z</time>
      </trkpt>
      <trkpt lat="46.03078" lon="4.80659">
        <ele>233</ele>
        <time>2016-10-04T10:56:40Z</time>
      </trkpt>
      <trkpt lat="46.03075" lon="4.80654">
        <ele>233</ele>
        <time>2016-10-04T10:56:41Z</time>
      </trkpt>
      <trkpt lat="46.03073" lon="4.80647">
        <ele>232</ele>
        <time>2016-10-04T10:56:42Z</time>
      </trkpt>
      <trkpt lat="46.03073" lon="4.8064">
        <ele>232</ele>
        <time>2016-10-04T10:56:43Z</time>
      </trkpt>
      <trkpt lat="46.03071" lon="4.80635">
        <ele>232</ele>
        <time>2016-10-04T10:56:44Z</time>
      </trkpt>
      <trkpt lat="46.0307" lon="4.80628">
        <ele>232</ele>
        <time>2016-10-04T10:56:45Z</time>
      </trkpt>
      <trkpt lat="46.03066" lon="4.80617">
        <ele>232</ele>
        <time>2016-10-04T10:56:47Z</time>
      </trkpt>
      <trkpt lat="46.03064" lon="4.80611">
        <ele>232</ele>
        <time>2016-10-04T10:56:48Z</time>
      </trkpt>
      <trkpt lat="46.03061" lon="4.80606">
        <ele>232</ele>
        <time>2016-10-04T10:56:49Z</time>
      </trkpt>
      <trkpt lat="46.03058" lon="4.806">
        <ele>232</ele>
        <time>2016-10-04T10:56:50Z</time>
      </trkpt>
      <trkpt lat="46.03055" lon="4.80589">
        <ele>232</ele>
        <time>2016-10-04T10:56:52Z</time>
      </trkpt>
      <trkpt lat="46.03055" lon="4.80584">
        <ele>232</ele>
        <time>2016-10-04T10:56:53Z</time>
      </trkpt>
      <trkpt lat="46.03051" lon="4.80572">
        <ele>232</ele>
        <time>2016-10-04T10:56:55Z</time>
      </trkpt>
      <trkpt lat="46.03048" lon="4.80566">
        <ele>233</ele>
        <time>2016-10-04T10:56:56Z</time>
      </trkpt>
      <trkpt lat="46.03045" lon="4.80561">
        <ele>233</ele>
        <time>2016-10-04T10:56:57Z</time>
      </trkpt>
      <trkpt lat="46.03043" lon="4.80555">
        <ele>233</ele>
        <time>2016-10-04T10:56:58Z</time>
      </trkpt>
      <trkpt lat="46.03041" lon="4.80544">
        <ele>233</ele>
        <time>2016-10-04T10:57:00Z</time>
      </trkpt>
      <trkpt lat="46.0304" lon="4.80538">
        <ele>233</ele>
        <time>2016-10-04T10:57:01Z</time>
      </trkpt>
      <trkpt lat="46.03037" lon="4.80528">
        <ele>233</ele>
        <time>2016-10-04T10:57:03Z</time>
      </trkpt>
      <trkpt lat="46.03035" lon="4.80522">
        <ele>233</ele>
        <time>2016-10-04T10:57:04Z</time>
      </trkpt>
      <trkpt lat="46.03034" lon="4.8051">
        <ele>233</ele>
        <time>2016-10-04T10:57:06Z</time>
      </trkpt>
      <trkpt lat="46.03036" lon="4.80502">
        <ele>233</ele>
        <time>2016-10-04T10:57:07Z</time>
      </trkpt>
      <trkpt lat="46.03037" lon="4.80494">
        <ele>235</ele>
        <time>2016-10-04T10:57:08Z</time>
      </trkpt>
      <trkpt lat="46.03036" lon="4.80488">
        <ele>235</ele>
        <time>2016-10-04T10:57:09Z</time>
      </trkpt>
      <trkpt lat="46.03033" lon="4.80476">
        <ele>235</ele>
        <time>2016-10-04T10:57:11Z</time>
      </trkpt>
      <trkpt lat="46.03032" lon="4.8047">
        <ele>235</ele>
        <time>2016-10-04T10:57:12Z</time>
      </trkpt>
      <trkpt lat="46.0303" lon="4.80461">
        <ele>235</ele>
        <time>2016-10-04T10:57:14Z</time>
      </trkpt>
      <trkpt lat="46.0303" lon="4.80457">
        <ele>235</ele>
        <time>2016-10-04T10:57:15Z</time>
      </trkpt>
      <trkpt lat="46.03029" lon="4.80448">
        <ele>235</ele>
        <time>2016-10-04T10:57:17Z</time>
      </trkpt>
      <trkpt lat="46.03029" lon="4.80444">
        <ele>235</ele>
        <time>2016-10-04T10:57:18Z</time>
      </trkpt>
      <trkpt lat="46.03026" lon="4.80434">
        <ele>236</ele>
        <time>2016-10-04T10:57:21Z</time>
      </trkpt>
      <trkpt lat="46.0302" lon="4.80436">
        <ele>236</ele>
        <time>2016-10-04T10:57:22Z</time>
      </trkpt>
      <trkpt lat="46.03022" lon="4.80425">
        <ele>236</ele>
        <time>2016-10-04T10:57:25Z</time>
      </trkpt>
      <trkpt lat="46.0302" lon="4.80421">
        <ele>236</ele>
        <time>2016-10-04T10:57:26Z</time>
      </trkpt>
      <trkpt lat="46.03016" lon="4.80413">
        <ele>237</ele>
        <time>2016-10-04T10:57:28Z</time>
      </trkpt>
      <trkpt lat="46.03015" lon="4.80408">
        <ele>237</ele>
        <time>2016-10-04T10:57:29Z</time>
      </trkpt>
      <trkpt lat="46.03013" lon="4.80398">
        <ele>237</ele>
        <time>2016-10-04T10:57:31Z</time>
      </trkpt>
      <trkpt lat="46.03011" lon="4.80394">
        <ele>237</ele>
        <time>2016-10-04T10:57:32Z</time>
      </trkpt>
      <trkpt lat="46.03008" lon="4.80385">
        <ele>237</ele>
        <time>2016-10-04T10:57:34Z</time>
      </trkpt>
      <trkpt lat="46.03008" lon="4.80378">
        <ele>237</ele>
        <time>2016-10-04T10:57:35Z</time>
      </trkpt>
      <trkpt lat="46.0301" lon="4.80367">
        <ele>238</ele>
        <time>2016-10-04T10:57:37Z</time>
      </trkpt>
      <trkpt lat="46.0301" lon="4.80362">
        <ele>238</ele>
        <time>2016-10-04T10:57:38Z</time>
      </trkpt>
      <trkpt lat="46.03008" lon="4.80352">
        <ele>238</ele>
        <time>2016-10-04T10:57:40Z</time>
      </trkpt>
      <trkpt lat="46.03006" lon="4.80347">
        <ele>238</ele>
        <time>2016-10-04T10:57:41Z</time>
      </trkpt>
      <trkpt lat="46.03002" lon="4.80337">
        <ele>239</ele>
        <time>2016-10-04T10:57:43Z</time>
      </trkpt>
      <trkpt lat="46.03001" lon="4.80332">
        <ele>239</ele>
        <time>2016-10-04T10:57:44Z</time>
      </trkpt>
      <trkpt lat="46.03" lon="4.80322">
        <ele>239</ele>
        <time>2016-10-04T10:57:46Z</time>
      </trkpt>
      <trkpt lat="46.03" lon="4.80317">
        <ele>239</ele>
        <time>2016-10-04T10:57:47Z</time>
      </trkpt>
      <trkpt lat="46.03001" lon="4.80307">
        <ele>239</ele>
        <time>2016-10-04T10:57:49Z</time>
      </trkpt>
      <trkpt lat="46.03001" lon="4.80302">
        <ele>239</ele>
        <time>2016-10-04T10:57:50Z</time>
      </trkpt>
      <trkpt lat="46.03001" lon="4.80291">
        <ele>239</ele>
        <time>2016-10-04T10:57:52Z</time>
      </trkpt>
      <trkpt lat="46.03001" lon="4.80286">
        <ele>239</ele>
        <time>2016-10-04T10:57:53Z</time>
      </trkpt>
      <trkpt lat="46.03001" lon="4.80274">
        <ele>239</ele>
        <time>2016-10-04T10:57:55Z</time>
      </trkpt>
      <trkpt lat="46.02999" lon="4.80269">
        <ele>239</ele>
        <time>2016-10-04T10:57:56Z</time>
      </trkpt>
      <trkpt lat="46.02998" lon="4.80259">
        <ele>239</ele>
        <time>2016-10-04T10:57:58Z</time>
      </trkpt>
      <trkpt lat="46.02995" lon="4.80255">
        <ele>239</ele>
        <time>2016-10-04T10:57:59Z</time>
      </trkpt>
      <trkpt lat="46.02993" lon="4.80245">
        <ele>239</ele>
        <time>2016-10-04T10:58:01Z</time>
      </trkpt>
      <trkpt lat="46.02993" lon="4.80239">
        <ele>239</ele>
        <time>2016-10-04T10:58:02Z</time>
      </trkpt>
      <trkpt lat="46.02994" lon="4.80227">
        <ele>239</ele>
        <time>2016-10-04T10:58:04Z</time>
      </trkpt>
      <trkpt lat="46.02995" lon="4.80221">
        <ele>239</ele>
        <time>2016-10-04T10:58:05Z</time>
      </trkpt>
      <trkpt lat="46.02996" lon="4.80208">
        <ele>240</ele>
        <time>2016-10-04T10:58:07Z</time>
      </trkpt>
      <trkpt lat="46.02996" lon="4.80202">
        <ele>240</ele>
        <time>2016-10-04T10:58:08Z</time>
      </trkpt>
      <trkpt lat="46.02997" lon="4.8019">
        <ele>240</ele>
        <time>2016-10-04T10:58:10Z</time>
      </trkpt>
      <trkpt lat="46.02997" lon="4.80185">
        <ele>240</ele>
        <time>2016-10-04T10:58:11Z</time>
      </trkpt>
      <trkpt lat="46.02995" lon="4.80174">
        <ele>240</ele>
        <time>2016-10-04T10:58:13Z</time>
      </trkpt>
      <trkpt lat="46.02995" lon="4.80168">
        <ele>240</ele>
        <time>2016-10-04T10:58:14Z</time>
      </trkpt>
      <trkpt lat="46.02993" lon="4.80156">
        <ele>240</ele>
        <time>2016-10-04T10:58:16Z</time>
      </trkpt>
      <trkpt lat="46.02992" lon="4.80151">
        <ele>240</ele>
        <time>2016-10-04T10:58:17Z</time>
      </trkpt>
      <trkpt lat="46.02988" lon="4.8014">
        <ele>239</ele>
        <time>2016-10-04T10:58:19Z</time>
      </trkpt>
      <trkpt lat="46.02986" lon="4.80134">
        <ele>239</ele>
        <time>2016-10-04T10:58:20Z</time>
      </trkpt>
      <trkpt lat="46.02985" lon="4.80127">
        <ele>239</ele>
        <time>2016-10-04T10:58:21Z</time>
      </trkpt>
      <trkpt lat="46.02983" lon="4.80121">
        <ele>239</ele>
        <time>2016-10-04T10:58:22Z</time>
      </trkpt>
      <trkpt lat="46.02981" lon="4.80114">
        <ele>239</ele>
        <time>2016-10-04T10:58:23Z</time>
      </trkpt>
      <trkpt lat="46.02979" lon="4.80107">
        <ele>239</ele>
        <time>2016-10-04T10:58:24Z</time>
      </trkpt>
      <trkpt lat="46.02978" lon="4.801">
        <ele>239</ele>
        <time>2016-10-04T10:58:25Z</time>
      </trkpt>
      <trkpt lat="46.02976" lon="4.80094">
        <ele>239</ele>
        <time>2016-10-04T10:58:26Z</time>
      </trkpt>
      <trkpt lat="46.02976" lon="4.80087">
        <ele>239</ele>
        <time>2016-10-04T10:58:27Z</time>
      </trkpt>
      <trkpt lat="46.02973" lon="4.80081">
        <ele>239</ele>
        <time>2016-10-04T10:58:28Z</time>
      </trkpt>
      <trkpt lat="46.02969" lon="4.80074">
        <ele>239</ele>
        <time>2016-10-04T10:58:29Z</time>
      </trkpt>
      <trkpt lat="46.02964" lon="4.80066">
        <ele>239</ele>
        <time>2016-10-04T10:58:30Z</time>
      </trkpt>
      <trkpt lat="46.0296" lon="4.80059">
        <ele>239</ele>
        <time>2016-10-04T10:58:31Z</time>
      </trkpt>
      <trkpt lat="46.02957" lon="4.80051">
        <ele>238</ele>
        <time>2016-10-04T10:58:32Z</time>
      </trkpt>
      <trkpt lat="46.02955" lon="4.80043">
        <ele>238</ele>
        <time>2016-10-04T10:58:33Z</time>
      </trkpt>
      <trkpt lat="46.02951" lon="4.80035">
        <ele>238</ele>
        <time>2016-10-04T10:58:34Z</time>
      </trkpt>
      <trkpt lat="46.0295" lon="4.80026">
        <ele>238</ele>
        <time>2016-10-04T10:58:35Z</time>
      </trkpt>
      <trkpt lat="46.02949" lon="4.80017">
        <ele>238</ele>
        <time>2016-10-04T10:58:36Z</time>
      </trkpt>
      <trkpt lat="46.02944" lon="4.8001">
        <ele>238</ele>
        <time>2016-10-04T10:58:37Z</time>
      </trkpt>
      <trkpt lat="46.02941" lon="4.80002">
        <ele>238</ele>
        <time>2016-10-04T10:58:38Z</time>
      </trkpt>
      <trkpt lat="46.02939" lon="4.79993">
        <ele>238</ele>
        <time>2016-10-04T10:58:39Z</time>
      </trkpt>
      <trkpt lat="46.02936" lon="4.79984">
        <ele>238</ele>
        <time>2016-10-04T10:58:40Z</time>
      </trkpt>
      <trkpt lat="46.02932" lon="4.79976">
        <ele>237</ele>
        <time>2016-10-04T10:58:41Z</time>
      </trkpt>
      <trkpt lat="46.0293" lon="4.79966">
        <ele>237</ele>
        <time>2016-10-04T10:58:42Z</time>
      </trkpt>
      <trkpt lat="46.0293" lon="4.79956">
        <ele>237</ele>
        <time>2016-10-04T10:58:43Z</time>
      </trkpt>
      <trkpt lat="46.02928" lon="4.79946">
        <ele>237</ele>
        <time>2016-10-04T10:58:44Z</time>
      </trkpt>
      <trkpt lat="46.02925" lon="4.79936">
        <ele>236</ele>
        <time>2016-10-04T10:58:45Z</time>
      </trkpt>
      <trkpt lat="46.02921" lon="4.79926">
        <ele>236</ele>
        <time>2016-10-04T10:58:46Z</time>
      </trkpt>
      <trkpt lat="46.02916" lon="4.79917">
        <ele>235</ele>
        <time>2016-10-04T10:58:47Z</time>
      </trkpt>
      <trkpt lat="46.02912" lon="4.79907">
        <ele>234</ele>
        <time>2016-10-04T10:58:48Z</time>
      </trkpt>
      <trkpt lat="46.02908" lon="4.79897">
        <ele>234</ele>
        <time>2016-10-04T10:58:49Z</time>
      </trkpt>
      <trkpt lat="46.02904" lon="4.79886">
        <ele>234</ele>
        <time>2016-10-04T10:58:50Z</time>
      </trkpt>
      <trkpt lat="46.029" lon="4.79876">
        <ele>233</ele>
        <time>2016-10-04T10:58:51Z</time>
      </trkpt>
      <trkpt lat="46.02895" lon="4.79867">
        <ele>233</ele>
        <time>2016-10-04T10:58:52Z</time>
      </trkpt>
      <trkpt lat="46.0289" lon="4.79857">
        <ele>233</ele>
        <time>2016-10-04T10:58:53Z</time>
      </trkpt>
      <trkpt lat="46.02884" lon="4.79848">
        <ele>233</ele>
        <time>2016-10-04T10:58:54Z</time>
      </trkpt>
      <trkpt lat="46.02878" lon="4.79839">
        <ele>233</ele>
        <time>2016-10-04T10:58:55Z</time>
      </trkpt>
      <trkpt lat="46.02872" lon="4.79829">
        <ele>231</ele>
        <time>2016-10-04T10:58:56Z</time>
      </trkpt>
      <trkpt lat="46.02867" lon="4.7982">
        <ele>231</ele>
        <time>2016-10-04T10:58:57Z</time>
      </trkpt>
      <trkpt lat="46.02862" lon="4.7981">
        <ele>231</ele>
        <time>2016-10-04T10:58:58Z</time>
      </trkpt>
      <trkpt lat="46.02859" lon="4.79799">
        <ele>231</ele>
        <time>2016-10-04T10:58:59Z</time>
      </trkpt>
      <trkpt lat="46.02855" lon="4.79789">
        <ele>231</ele>
        <time>2016-10-04T10:59:00Z</time>
      </trkpt>
      <trkpt lat="46.02849" lon="4.7978">
        <ele>231</ele>
        <time>2016-10-04T10:59:01Z</time>
      </trkpt>
      <trkpt lat="46.02844" lon="4.79771">
        <ele>231</ele>
        <time>2016-10-04T10:59:02Z</time>
      </trkpt>
      <trkpt lat="46.02839" lon="4.79762">
        <ele>230</ele>
        <time>2016-10-04T10:59:03Z</time>
      </trkpt>
      <trkpt lat="46.02834" lon="4.79753">
        <ele>230</ele>
        <time>2016-10-04T10:59:04Z</time>
      </trkpt>
      <trkpt lat="46.02829" lon="4.79745">
        <ele>230</ele>
        <time>2016-10-04T10:59:05Z</time>
      </trkpt>
      <trkpt lat="46.02825" lon="4.79736">
        <ele>230</ele>
        <time>2016-10-04T10:59:06Z</time>
      </trkpt>
      <trkpt lat="46.02818" lon="4.79726">
        <ele>230</ele>
        <time>2016-10-04T10:59:07Z</time>
      </trkpt>
      <trkpt lat="46.02812" lon="4.79719">
        <ele>230</ele>
        <time>2016-10-04T10:59:08Z</time>
      </trkpt>
      <trkpt lat="46.02807" lon="4.79711">
        <ele>230</ele>
        <time>2016-10-04T10:59:09Z</time>
      </trkpt>
      <trkpt lat="46.02802" lon="4.79703">
        <ele>230</ele>
        <time>2016-10-04T10:59:10Z</time>
      </trkpt>
      <trkpt lat="46.02797" lon="4.79694">
        <ele>230</ele>
        <time>2016-10-04T10:59:11Z</time>
      </trkpt>
      <trkpt lat="46.02793" lon="4.79686">
        <ele>230</ele>
        <time>2016-10-04T10:59:12Z</time>
      </trkpt>
      <trkpt lat="46.02787" lon="4.79677">
        <ele>229</ele>
        <time>2016-10-04T10:59:13Z</time>
      </trkpt>
      <trkpt lat="46.02779" lon="4.7967">
        <ele>229</ele>
        <time>2016-10-04T10:59:14Z</time>
      </trkpt>
      <trkpt lat="46.02775" lon="4.79661">
        <ele>229</ele>
        <time>2016-10-04T10:59:15Z</time>
      </trkpt>
      <trkpt lat="46.0277" lon="4.79652">
        <ele>229</ele>
        <time>2016-10-04T10:59:16Z</time>
      </trkpt>
      <trkpt lat="46.02764" lon="4.79643">
        <ele>229</ele>
        <time>2016-10-04T10:59:17Z</time>
      </trkpt>
      <trkpt lat="46.0276" lon="4.79634">
        <ele>229</ele>
        <time>2016-10-04T10:59:18Z</time>
      </trkpt>
      <trkpt lat="46.02756" lon="4.79625">
        <ele>229</ele>
        <time>2016-10-04T10:59:19Z</time>
      </trkpt>
      <trkpt lat="46.02751" lon="4.79617">
        <ele>229</ele>
        <time>2016-10-04T10:59:20Z</time>
      </trkpt>
      <trkpt lat="46.02747" lon="4.79609">
        <ele>228</ele>
        <time>2016-10-04T10:59:21Z</time>
      </trkpt>
      <trkpt lat="46.02743" lon="4.796">
        <ele>228</ele>
        <time>2016-10-04T10:59:22Z</time>
      </trkpt>
      <trkpt lat="46.02739" lon="4.79592">
        <ele>228</ele>
        <time>2016-10-04T10:59:23Z</time>
      </trkpt>
      <trkpt lat="46.02735" lon="4.79584">
        <ele>228</ele>
        <time>2016-10-04T10:59:24Z</time>
      </trkpt>
      <trkpt lat="46.02731" lon="4.79576">
        <ele>228</ele>
        <time>2016-10-04T10:59:25Z</time>
      </trkpt>
      <trkpt lat="46.02727" lon="4.79568">
        <ele>228</ele>
        <time>2016-10-04T10:59:26Z</time>
      </trkpt>
      <trkpt lat="46.02722" lon="4.79561">
        <ele>228</ele>
        <time>2016-10-04T10:59:27Z</time>
      </trkpt>
      <trkpt lat="46.02718" lon="4.79553">
        <ele>228</ele>
        <time>2016-10-04T10:59:28Z</time>
      </trkpt>
      <trkpt lat="46.02713" lon="4.79545">
        <ele>228</ele>
        <time>2016-10-04T10:59:29Z</time>
      </trkpt>
      <trkpt lat="46.02709" lon="4.79536">
        <ele>227</ele>
        <time>2016-10-04T10:59:30Z</time>
      </trkpt>
      <trkpt lat="46.02705" lon="4.79526">
        <ele>227</ele>
        <time>2016-10-04T10:59:31Z</time>
      </trkpt>
      <trkpt lat="46.02702" lon="4.79516">
        <ele>227</ele>
        <time>2016-10-04T10:59:32Z</time>
      </trkpt>
      <trkpt lat="46.02698" lon="4.79507">
        <ele>227</ele>
        <time>2016-10-04T10:59:33Z</time>
      </trkpt>
      <trkpt lat="46.02696" lon="4.79497">
        <ele>227</ele>
        <time>2016-10-04T10:59:34Z</time>
      </trkpt>
      <trkpt lat="46.02694" lon="4.79488">
        <ele>227</ele>
        <time>2016-10-04T10:59:35Z</time>
      </trkpt>
      <trkpt lat="46.02692" lon="4.79479">
        <ele>227</ele>
        <time>2016-10-04T10:59:36Z</time>
      </trkpt>
      <trkpt lat="46.0269" lon="4.7947">
        <ele>227</ele>
        <time>2016-10-04T10:59:37Z</time>
      </trkpt>
      <trkpt lat="46.02688" lon="4.79461">
        <ele>227</ele>
        <time>2016-10-04T10:59:38Z</time>
      </trkpt>
      <trkpt lat="46.02686" lon="4.79452">
        <ele>227</ele>
        <time>2016-10-04T10:59:39Z</time>
      </trkpt>
      <trkpt lat="46.02684" lon="4.79443">
        <ele>227</ele>
        <time>2016-10-04T10:59:40Z</time>
      </trkpt>
      <trkpt lat="46.02682" lon="4.79433">
        <ele>227</ele>
        <time>2016-10-04T10:59:41Z</time>
      </trkpt>
      <trkpt lat="46.02681" lon="4.79423">
        <ele>227</ele>
        <time>2016-10-04T10:59:42Z</time>
      </trkpt>
      <trkpt lat="46.02679" lon="4.79413">
        <ele>227</ele>
        <time>2016-10-04T10:59:43Z</time>
      </trkpt>
      <trkpt lat="46.02677" lon="4.79404">
        <ele>227</ele>
        <time>2016-10-04T10:59:44Z</time>
      </trkpt>
      <trkpt lat="46.02677" lon="4.79395">
        <ele>227</ele>
        <time>2016-10-04T10:59:45Z</time>
      </trkpt>
      <trkpt lat="46.02677" lon="4.79385">
        <ele>226</ele>
        <time>2016-10-04T10:59:46Z</time>
      </trkpt>
      <trkpt lat="46.02675" lon="4.79376">
        <ele>226</ele>
        <time>2016-10-04T10:59:47Z</time>
      </trkpt>
      <trkpt lat="46.02674" lon="4.79366">
        <ele>226</ele>
        <time>2016-10-04T10:59:48Z</time>
      </trkpt>
      <trkpt lat="46.02673" lon="4.79357">
        <ele>226</ele>
        <time>2016-10-04T10:59:49Z</time>
      </trkpt>
      <trkpt lat="46.02672" lon="4.79348">
        <ele>226</ele>
        <time>2016-10-04T10:59:50Z</time>
      </trkpt>
      <trkpt lat="46.0267" lon="4.79339">
        <ele>226</ele>
        <time>2016-10-04T10:59:51Z</time>
      </trkpt>
      <trkpt lat="46.02669" lon="4.79329">
        <ele>226</ele>
        <time>2016-10-04T10:59:52Z</time>
      </trkpt>
      <trkpt lat="46.02666" lon="4.7932">
        <ele>226</ele>
        <time>2016-10-04T10:59:53Z</time>
      </trkpt>
      <trkpt lat="46.02665" lon="4.79311">
        <ele>227</ele>
        <time>2016-10-04T10:59:54Z</time>
      </trkpt>
      <trkpt lat="46.02663" lon="4.79301">
        <ele>227</ele>
        <time>2016-10-04T10:59:55Z</time>
      </trkpt>
      <trkpt lat="46.02662" lon="4.79292">
        <ele>227</ele>
        <time>2016-10-04T10:59:56Z</time>
      </trkpt>
      <trkpt lat="46.02661" lon="4.79283">
        <ele>227</ele>
        <time>2016-10-04T10:59:57Z</time>
      </trkpt>
      <trkpt lat="46.02659" lon="4.79274">
        <ele>227</ele>
        <time>2016-10-04T10:59:58Z</time>
      </trkpt>
      <trkpt lat="46.02658" lon="4.79265">
        <ele>226</ele>
        <time>2016-10-04T10:59:59Z</time>
      </trkpt>
      <trkpt lat="46.02657" lon="4.79256">
        <ele>226</ele>
        <time>2016-10-04T11:00:00Z</time>
      </trkpt>
      <trkpt lat="46.02656" lon="4.79247">
        <ele>226</ele>
        <time>2016-10-04T11:00:01Z</time>
      </trkpt>
      <trkpt lat="46.02655" lon="4.79237">
        <ele>227</ele>
        <time>2016-10-04T11:00:02Z</time>
      </trkpt>
      <trkpt lat="46.02654" lon="4.79228">
        <ele>227</ele>
        <time>2016-10-04T11:00:03Z</time>
      </trkpt>
      <trkpt lat="46.02652" lon="4.79218">
        <ele>227</ele>
        <time>2016-10-04T11:00:04Z</time>
      </trkpt>
      <trkpt lat="46.02651" lon="4.79209">
        <ele>227</ele>
        <time>2016-10-04T11:00:05Z</time>
      </trkpt>
      <trkpt lat="46.02649" lon="4.79199">
        <ele>227</ele>
        <time>2016-10-04T11:00:06Z</time>
      </trkpt>
      <trkpt lat="46.02648" lon="4.79189">
        <ele>227</ele>
        <time>2016-10-04T11:00:07Z</time>
      </trkpt>
      <trkpt lat="46.02647" lon="4.7918">
        <ele>227</ele>
        <time>2016-10-04T11:00:08Z</time>
      </trkpt>
      <trkpt lat="46.02646" lon="4.79171">
        <ele>227</ele>
        <time>2016-10-04T11:00:09Z</time>
      </trkpt>
      <trkpt lat="46.02645" lon="4.79162">
        <ele>227</ele>
        <time>2016-10-04T11:00:10Z</time>
      </trkpt>
      <trkpt lat="46.02644" lon="4.79153">
        <ele>227</ele>
        <time>2016-10-04T11:00:11Z</time>
      </trkpt>
      <trkpt lat="46.02643" lon="4.79144">
        <ele>227</ele>
        <time>2016-10-04T11:00:12Z</time>
      </trkpt>
      <trkpt lat="46.02642" lon="4.79136">
        <ele>227</ele>
        <time>2016-10-04T11:00:13Z</time>
      </trkpt>
      <trkpt lat="46.02641" lon="4.79128">
        <ele>227</ele>
        <time>2016-10-04T11:00:14Z</time>
      </trkpt>
      <trkpt lat="46.0264" lon="4.79119">
        <ele>226</ele>
        <time>2016-10-04T11:00:15Z</time>
      </trkpt>
      <trkpt lat="46.02639" lon="4.79111">
        <ele>226</ele>
        <time>2016-10-04T11:00:16Z</time>
      </trkpt>
      <trkpt lat="46.02637" lon="4.79102">
        <ele>226</ele>
        <time>2016-10-04T11:00:17Z</time>
      </trkpt>
      <trkpt lat="46.02636" lon="4.79093">
        <ele>226</ele>
        <time>2016-10-04T11:00:18Z</time>
      </trkpt>
      <trkpt lat="46.02634" lon="4.79084">
        <ele>226</ele>
        <time>2016-10-04T11:00:19Z</time>
      </trkpt>
      <trkpt lat="46.02632" lon="4.79075">
        <ele>226</ele>
        <time>2016-10-04T11:00:20Z</time>
      </trkpt>
      <trkpt lat="46.02631" lon="4.79066">
        <ele>225</ele>
        <time>2016-10-04T11:00:21Z</time>
      </trkpt>
      <trkpt lat="46.02629" lon="4.79057">
        <ele>225</ele>
        <time>2016-10-04T11:00:22Z</time>
      </trkpt>
      <trkpt lat="46.02627" lon="4.79048">
        <ele>225</ele>
        <time>2016-10-04T11:00:23Z</time>
      </trkpt>
      <trkpt lat="46.02625" lon="4.79039">
        <ele>225</ele>
        <time>2016-10-04T11:00:24Z</time>
      </trkpt>
      <trkpt lat="46.02624" lon="4.79031">
        <ele>225</ele>
        <time>2016-10-04T11:00:25Z</time>
      </trkpt>
      <trkpt lat="46.02622" lon="4.79022">
        <ele>225</ele>
        <time>2016-10-04T11:00:26Z</time>
      </trkpt>
      <trkpt lat="46.0262" lon="4.79014">
        <ele>225</ele>
        <time>2016-10-04T11:00:27Z</time>
      </trkpt>
      <trkpt lat="46.02617" lon="4.79006">
        <ele>225</ele>
        <time>2016-10-04T11:00:28Z</time>
      </trkpt>
      <trkpt lat="46.02614" lon="4.78997">
        <ele>224</ele>
        <time>2016-10-04T11:00:29Z</time>
      </trkpt>
      <trkpt lat="46.0261" lon="4.78988">
        <ele>224</ele>
        <time>2016-10-04T11:00:30Z</time>
      </trkpt>
      <trkpt lat="46.02608" lon="4.78979">
        <ele>224</ele>
        <time>2016-10-04T11:00:31Z</time>
      </trkpt>
      <trkpt lat="46.02605" lon="4.78971">
        <ele>224</ele>
        <time>2016-10-04T11:00:32Z</time>
      </trkpt>
      <trkpt lat="46.026" lon="4.78963">
        <ele>224</ele>
        <time>2016-10-04T11:00:33Z</time>
      </trkpt>
      <trkpt lat="46.02596" lon="4.78956">
        <ele>224</ele>
        <time>2016-10-04T11:00:34Z</time>
      </trkpt>
      <trkpt lat="46.02592" lon="4.78948">
        <ele>225</ele>
        <time>2016-10-04T11:00:35Z</time>
      </trkpt>
      <trkpt lat="46.02588" lon="4.78941">
        <ele>225</ele>
        <time>2016-10-04T11:00:36Z</time>
      </trkpt>
      <trkpt lat="46.02584" lon="4.78933">
        <ele>225</ele>
        <time>2016-10-04T11:00:37Z</time>
      </trkpt>
      <trkpt lat="46.0258" lon="4.78926">
        <ele>225</ele>
        <time>2016-10-04T11:00:38Z</time>
      </trkpt>
      <trkpt lat="46.02575" lon="4.7892">
        <ele>225</ele>
        <time>2016-10-04T11:00:39Z</time>
      </trkpt>
      <trkpt lat="46.0257" lon="4.78913">
        <ele>225</ele>
        <time>2016-10-04T11:00:40Z</time>
      </trkpt>
      <trkpt lat="46.02565" lon="4.78907">
        <ele>225</ele>
        <time>2016-10-04T11:00:41Z</time>
      </trkpt>
      <trkpt lat="46.0256" lon="4.78901">
        <ele>225</ele>
        <time>2016-10-04T11:00:42Z</time>
      </trkpt>
      <trkpt lat="46.02555" lon="4.78894">
        <ele>225</ele>
        <time>2016-10-04T11:00:43Z</time>
      </trkpt>
      <trkpt lat="46.0255" lon="4.78888">
        <ele>225</ele>
        <time>2016-10-04T11:00:44Z</time>
      </trkpt>
      <trkpt lat="46.02544" lon="4.78881">
        <ele>225</ele>
        <time>2016-10-04T11:00:45Z</time>
      </trkpt>
      <trkpt lat="46.02539" lon="4.78873">
        <ele>225</ele>
        <time>2016-10-04T11:00:46Z</time>
      </trkpt>
      <trkpt lat="46.02533" lon="4.78866">
        <ele>225</ele>
        <time>2016-10-04T11:00:47Z</time>
      </trkpt>
      <trkpt lat="46.02528" lon="4.7886">
        <ele>225</ele>
        <time>2016-10-04T11:00:48Z</time>
      </trkpt>
      <trkpt lat="46.02523" lon="4.78854">
        <ele>225</ele>
        <time>2016-10-04T11:00:49Z</time>
      </trkpt>
      <trkpt lat="46.02517" lon="4.78848">
        <ele>226</ele>
        <time>2016-10-04T11:00:50Z</time>
      </trkpt>
      <trkpt lat="46.02512" lon="4.78842">
        <ele>226</ele>
        <time>2016-10-04T11:00:51Z</time>
      </trkpt>
      <trkpt lat="46.02507" lon="4.78836">
        <ele>226</ele>
        <time>2016-10-04T11:00:52Z</time>
      </trkpt>
      <trkpt lat="46.02502" lon="4.7883">
        <ele>226</ele>
        <time>2016-10-04T11:00:53Z</time>
      </trkpt>
      <trkpt lat="46.02497" lon="4.78824">
        <ele>226</ele>
        <time>2016-10-04T11:00:54Z</time>
      </trkpt>
      <trkpt lat="46.02492" lon="4.78817">
        <ele>226</ele>
        <time>2016-10-04T11:00:55Z</time>
      </trkpt>
      <trkpt lat="46.02486" lon="4.78811">
        <ele>226</ele>
        <time>2016-10-04T11:00:56Z</time>
      </trkpt>
      <trkpt lat="46.02481" lon="4.78805">
        <ele>226</ele>
        <time>2016-10-04T11:00:57Z</time>
      </trkpt>
      <trkpt lat="46.02476" lon="4.78799">
        <ele>226</ele>
        <time>2016-10-04T11:00:58Z</time>
      </trkpt>
      <trkpt lat="46.0247" lon="4.78794">
        <ele>226</ele>
        <time>2016-10-04T11:00:59Z</time>
      </trkpt>
      <trkpt lat="46.02465" lon="4.78788">
        <ele>226</ele>
        <time>2016-10-04T11:01:00Z</time>
      </trkpt>
      <trkpt lat="46.02461" lon="4.78782">
        <ele>226</ele>
        <time>2016-10-04T11:01:01Z</time>
      </trkpt>
      <trkpt lat="46.02457" lon="4.78776">
        <ele>226</ele>
        <time>2016-10-04T11:01:02Z</time>
      </trkpt>
      <trkpt lat="46.02453" lon="4.78771">
        <ele>226</ele>
        <time>2016-10-04T11:01:03Z</time>
      </trkpt>
      <trkpt lat="46.02449" lon="4.78766">
        <ele>226</ele>
        <time>2016-10-04T11:01:04Z</time>
      </trkpt>
      <trkpt lat="46.02445" lon="4.78761">
        <ele>226</ele>
        <time>2016-10-04T11:01:05Z</time>
      </trkpt>
      <trkpt lat="46.02441" lon="4.78756">
        <ele>226</ele>
        <time>2016-10-04T11:01:06Z</time>
      </trkpt>
      <trkpt lat="46.02436" lon="4.7875">
        <ele>226</ele>
        <time>2016-10-04T11:01:07Z</time>
      </trkpt>
      <trkpt lat="46.02432" lon="4.78744">
        <ele>226</ele>
        <time>2016-10-04T11:01:08Z</time>
      </trkpt>
      <trkpt lat="46.02427" lon="4.78739">
        <ele>226</ele>
        <time>2016-10-04T11:01:09Z</time>
      </trkpt>
      <trkpt lat="46.02422" lon="4.78733">
        <ele>226</ele>
        <time>2016-10-04T11:01:10Z</time>
      </trkpt>
      <trkpt lat="46.02418" lon="4.78728">
        <ele>226</ele>
        <time>2016-10-04T11:01:11Z</time>
      </trkpt>
      <trkpt lat="46.02414" lon="4.78723">
        <ele>227</ele>
        <time>2016-10-04T11:01:12Z</time>
      </trkpt>
      <trkpt lat="46.0241" lon="4.78717">
        <ele>227</ele>
        <time>2016-10-04T11:01:13Z</time>
      </trkpt>
      <trkpt lat="46.02406" lon="4.78712">
        <ele>227</ele>
        <time>2016-10-04T11:01:14Z</time>
      </trkpt>
      <trkpt lat="46.02402" lon="4.78707">
        <ele>227</ele>
        <time>2016-10-04T11:01:15Z</time>
      </trkpt>
      <trkpt lat="46.02398" lon="4.787">
        <ele>227</ele>
        <time>2016-10-04T11:01:16Z</time>
      </trkpt>
      <trkpt lat="46.02394" lon="4.78694">
        <ele>227</ele>
        <time>2016-10-04T11:01:17Z</time>
      </trkpt>
      <trkpt lat="46.02389" lon="4.78689">
        <ele>227</ele>
        <time>2016-10-04T11:01:18Z</time>
      </trkpt>
      <trkpt lat="46.02384" lon="4.78683">
        <ele>227</ele>
        <time>2016-10-04T11:01:19Z</time>
      </trkpt>
      <trkpt lat="46.02379" lon="4.78678">
        <ele>227</ele>
        <time>2016-10-04T11:01:20Z</time>
      </trkpt>
      <trkpt lat="46.02375" lon="4.78672">
        <ele>227</ele>
        <time>2016-10-04T11:01:21Z</time>
      </trkpt>
      <trkpt lat="46.02371" lon="4.78666">
        <ele>227</ele>
        <time>2016-10-04T11:01:22Z</time>
      </trkpt>
      <trkpt lat="46.02367" lon="4.78661">
        <ele>227</ele>
        <time>2016-10-04T11:01:23Z</time>
      </trkpt>
      <trkpt lat="46.02363" lon="4.78656">
        <ele>227</ele>
        <time>2016-10-04T11:01:24Z</time>
      </trkpt>
      <trkpt lat="46.02359" lon="4.78652">
        <ele>227</ele>
        <time>2016-10-04T11:01:25Z</time>
      </trkpt>
      <trkpt lat="46.02355" lon="4.78647">
        <ele>227</ele>
        <time>2016-10-04T11:01:26Z</time>
      </trkpt>
      <trkpt lat="46.0235" lon="4.78643">
        <ele>227</ele>
        <time>2016-10-04T11:01:27Z</time>
      </trkpt>
      <trkpt lat="46.02347" lon="4.78638">
        <ele>227</ele>
        <time>2016-10-04T11:01:28Z</time>
      </trkpt>
      <trkpt lat="46.02342" lon="4.78633">
        <ele>227</ele>
        <time>2016-10-04T11:01:29Z</time>
      </trkpt>
      <trkpt lat="46.02338" lon="4.78628">
        <ele>227</ele>
        <time>2016-10-04T11:01:30Z</time>
      </trkpt>
      <trkpt lat="46.02334" lon="4.78622">
        <ele>227</ele>
        <time>2016-10-04T11:01:31Z</time>
      </trkpt>
      <trkpt lat="46.02329" lon="4.78616">
        <ele>229</ele>
        <time>2016-10-04T11:01:32Z</time>
      </trkpt>
      <trkpt lat="46.02325" lon="4.78611">
        <ele>229</ele>
        <time>2016-10-04T11:01:33Z</time>
      </trkpt>
      <trkpt lat="46.02321" lon="4.78606">
        <ele>229</ele>
        <time>2016-10-04T11:01:34Z</time>
      </trkpt>
      <trkpt lat="46.02317" lon="4.78602">
        <ele>229</ele>
        <time>2016-10-04T11:01:35Z</time>
      </trkpt>
      <trkpt lat="46.02313" lon="4.78597">
        <ele>229</ele>
        <time>2016-10-04T11:01:36Z</time>
      </trkpt>
      <trkpt lat="46.02309" lon="4.78592">
        <ele>229</ele>
        <time>2016-10-04T11:01:37Z</time>
      </trkpt>
      <trkpt lat="46.02306" lon="4.78588">
        <ele>229</ele>
        <time>2016-10-04T11:01:38Z</time>
      </trkpt>
      <trkpt lat="46.02302" lon="4.78583">
        <ele>229</ele>
        <time>2016-10-04T11:01:39Z</time>
      </trkpt>
      <trkpt lat="46.02298" lon="4.78579">
        <ele>229</ele>
        <time>2016-10-04T11:01:40Z</time>
      </trkpt>
      <trkpt lat="46.02294" lon="4.78575">
        <ele>229</ele>
        <time>2016-10-04T11:01:41Z</time>
      </trkpt>
      <trkpt lat="46.02289" lon="4.7857">
        <ele>229</ele>
        <time>2016-10-04T11:01:42Z</time>
      </trkpt>
      <trkpt lat="46.02285" lon="4.78566">
        <ele>229</ele>
        <time>2016-10-04T11:01:43Z</time>
      </trkpt>
      <trkpt lat="46.02281" lon="4.78561">
        <ele>229</ele>
        <time>2016-10-04T11:01:44Z</time>
      </trkpt>
      <trkpt lat="46.02277" lon="4.78556">
        <ele>229</ele>
        <time>2016-10-04T11:01:45Z</time>
      </trkpt>
      <trkpt lat="46.02273" lon="4.78552">
        <ele>229</ele>
        <time>2016-10-04T11:01:46Z</time>
      </trkpt>
      <trkpt lat="46.02269" lon="4.78547">
        <ele>229</ele>
        <time>2016-10-04T11:01:47Z</time>
      </trkpt>
      <trkpt lat="46.02265" lon="4.78541">
        <ele>229</ele>
        <time>2016-10-04T11:01:48Z</time>
      </trkpt>
      <trkpt lat="46.02261" lon="4.78537">
        <ele>229</ele>
        <time>2016-10-04T11:01:49Z</time>
      </trkpt>
      <trkpt lat="46.02257" lon="4.78532">
        <ele>229</ele>
        <time>2016-10-04T11:01:50Z</time>
      </trkpt>
      <trkpt lat="46.02253" lon="4.78527">
        <ele>229</ele>
        <time>2016-10-04T11:01:51Z</time>
      </trkpt>
      <trkpt lat="46.02249" lon="4.78523">
        <ele>230</ele>
        <time>2016-10-04T11:01:52Z</time>
      </trkpt>
      <trkpt lat="46.02245" lon="4.78519">
        <ele>230</ele>
        <time>2016-10-04T11:01:53Z</time>
      </trkpt>
      <trkpt lat="46.02242" lon="4.78514">
        <ele>230</ele>
        <time>2016-10-04T11:01:54Z</time>
      </trkpt>
      <trkpt lat="46.02238" lon="4.7851">
        <ele>230</ele>
        <time>2016-10-04T11:01:55Z</time>
      </trkpt>
      <trkpt lat="46.02235" lon="4.78505">
        <ele>230</ele>
        <time>2016-10-04T11:01:56Z</time>
      </trkpt>
      <trkpt lat="46.02229" lon="4.78496">
        <ele>230</ele>
        <time>2016-10-04T11:01:58Z</time>
      </trkpt>
      <trkpt lat="46.02227" lon="4.78492">
        <ele>230</ele>
        <time>2016-10-04T11:01:59Z</time>
      </trkpt>
      <trkpt lat="46.02223" lon="4.78484">
        <ele>230</ele>
        <time>2016-10-04T11:02:01Z</time>
      </trkpt>
      <trkpt lat="46.02219" lon="4.78481">
        <ele>230</ele>
        <time>2016-10-04T11:02:02Z</time>
      </trkpt>
      <trkpt lat="46.02212" lon="4.78485">
        <ele>230</ele>
        <time>2016-10-04T11:02:04Z</time>
      </trkpt>
      <trkpt lat="46.02208" lon="4.78489">
        <ele>230</ele>
        <time>2016-10-04T11:02:05Z</time>
      </trkpt>
      <trkpt lat="46.02204" lon="4.78493">
        <ele>230</ele>
        <time>2016-10-04T11:02:06Z</time>
      </trkpt>
      <trkpt lat="46.02201" lon="4.78496">
        <ele>230</ele>
        <time>2016-10-04T11:02:07Z</time>
      </trkpt>
      <trkpt lat="46.02192" lon="4.78501">
        <ele>231</ele>
        <time>2016-10-04T11:02:09Z</time>
      </trkpt>
      <trkpt lat="46.02187" lon="4.78502">
        <ele>231</ele>
        <time>2016-10-04T11:02:10Z</time>
      </trkpt>
      <trkpt lat="46.02182" lon="4.78505">
        <ele>231</ele>
        <time>2016-10-04T11:02:11Z</time>
      </trkpt>
      <trkpt lat="46.02176" lon="4.78507">
        <ele>231</ele>
        <time>2016-10-04T11:02:12Z</time>
      </trkpt>
      <trkpt lat="46.02171" lon="4.7851">
        <ele>231</ele>
        <time>2016-10-04T11:02:13Z</time>
      </trkpt>
      <trkpt lat="46.02165" lon="4.78512">
        <ele>232</ele>
        <time>2016-10-04T11:02:14Z</time>
      </trkpt>
      <trkpt lat="46.0216" lon="4.78514">
        <ele>232</ele>
        <time>2016-10-04T11:02:15Z</time>
      </trkpt>
      <trkpt lat="46.02155" lon="4.78516">
        <ele>232</ele>
        <time>2016-10-04T11:02:16Z</time>
      </trkpt>
      <trkpt lat="46.02149" lon="4.78517">
        <ele>232</ele>
        <time>2016-10-04T11:02:17Z</time>
      </trkpt>
      <trkpt lat="46.02144" lon="4.78519">
        <ele>233</ele>
        <time>2016-10-04T11:02:18Z</time>
      </trkpt>
      <trkpt lat="46.0214" lon="4.78522">
        <ele>233</ele>
        <time>2016-10-04T11:02:19Z</time>
      </trkpt>
      <trkpt lat="46.02135" lon="4.78524">
        <ele>233</ele>
        <time>2016-10-04T11:02:20Z</time>
      </trkpt>
      <trkpt lat="46.0213" lon="4.78527">
        <ele>233</ele>
        <time>2016-10-04T11:02:21Z</time>
      </trkpt>
      <trkpt lat="46.02125" lon="4.78528">
        <ele>233</ele>
        <time>2016-10-04T11:02:22Z</time>
      </trkpt>
      <trkpt lat="46.0212" lon="4.7853">
        <ele>233</ele>
        <time>2016-10-04T11:02:23Z</time>
      </trkpt>
      <trkpt lat="46.02115" lon="4.78532">
        <ele>233</ele>
        <time>2016-10-04T11:02:24Z</time>
      </trkpt>
      <trkpt lat="46.0211" lon="4.78534">
        <ele>233</ele>
        <time>2016-10-04T11:02:25Z</time>
      </trkpt>
      <trkpt lat="46.02105" lon="4.78536">
        <ele>233</ele>
        <time>2016-10-04T11:02:26Z</time>
      </trkpt>
      <trkpt lat="46.02101" lon="4.78538">
        <ele>234</ele>
        <time>2016-10-04T11:02:27Z</time>
      </trkpt>
      <trkpt lat="46.02096" lon="4.7854">
        <ele>234</ele>
        <time>2016-10-04T11:02:28Z</time>
      </trkpt>
      <trkpt lat="46.02091" lon="4.78541">
        <ele>234</ele>
        <time>2016-10-04T11:02:29Z</time>
      </trkpt>
      <trkpt lat="46.02087" lon="4.78543">
        <ele>234</ele>
        <time>2016-10-04T11:02:30Z</time>
      </trkpt>
      <trkpt lat="46.02078" lon="4.78546">
        <ele>235</ele>
        <time>2016-10-04T11:02:32Z</time>
      </trkpt>
      <trkpt lat="46.02073" lon="4.78546">
        <ele>235</ele>
        <time>2016-10-04T11:02:33Z</time>
      </trkpt>
      <trkpt lat="46.02069" lon="4.78548">
        <ele>235</ele>
        <time>2016-10-04T11:02:34Z</time>
      </trkpt>
      <trkpt lat="46.02064" lon="4.7855">
        <ele>235</ele>
        <time>2016-10-04T11:02:35Z</time>
      </trkpt>
      <trkpt lat="46.0206" lon="4.78553">
        <ele>235</ele>
        <time>2016-10-04T11:02:36Z</time>
      </trkpt>
      <trkpt lat="46.02055" lon="4.78555">
        <ele>235</ele>
        <time>2016-10-04T11:02:37Z</time>
      </trkpt>
      <trkpt lat="46.02047" lon="4.78558">
        <ele>235</ele>
        <time>2016-10-04T11:02:39Z</time>
      </trkpt>
      <trkpt lat="46.02042" lon="4.78559">
        <ele>235</ele>
        <time>2016-10-04T11:02:40Z</time>
      </trkpt>
      <trkpt lat="46.02033" lon="4.78563">
        <ele>235</ele>
        <time>2016-10-04T11:02:42Z</time>
      </trkpt>
      <trkpt lat="46.02029" lon="4.78564">
        <ele>235</ele>
        <time>2016-10-04T11:02:43Z</time>
      </trkpt>
      <trkpt lat="46.02021" lon="4.78568">
        <ele>235</ele>
        <time>2016-10-04T11:02:45Z</time>
      </trkpt>
      <trkpt lat="46.02017" lon="4.7857">
        <ele>235</ele>
        <time>2016-10-04T11:02:46Z</time>
      </trkpt>
      <trkpt lat="46.02012" lon="4.78572">
        <ele>236</ele>
        <time>2016-10-04T11:02:47Z</time>
      </trkpt>
      <trkpt lat="46.02007" lon="4.78571">
        <ele>236</ele>
        <time>2016-10-04T11:02:48Z</time>
      </trkpt>
      <trkpt lat="46.01999" lon="4.78574">
        <ele>236</ele>
        <time>2016-10-04T11:02:50Z</time>
      </trkpt>
      <trkpt lat="46.01995" lon="4.78576">
        <ele>236</ele>
        <time>2016-10-04T11:02:51Z</time>
      </trkpt>
      <trkpt lat="46.01987" lon="4.7858">
        <ele>236</ele>
        <time>2016-10-04T11:02:53Z</time>
      </trkpt>
      <trkpt lat="46.01982" lon="4.78581">
        <ele>235</ele>
        <time>2016-10-04T11:02:54Z</time>
      </trkpt>
      <trkpt lat="46.01973" lon="4.78584">
        <ele>237</ele>
        <time>2016-10-04T11:02:56Z</time>
      </trkpt>
      <trkpt lat="46.01969" lon="4.78585">
        <ele>237</ele>
        <time>2016-10-04T11:02:57Z</time>
      </trkpt>
      <trkpt lat="46.01961" lon="4.78588">
        <ele>237</ele>
        <time>2016-10-04T11:02:59Z</time>
      </trkpt>
      <trkpt lat="46.01957" lon="4.7859">
        <ele>237</ele>
        <time>2016-10-04T11:03:00Z</time>
      </trkpt>
      <trkpt lat="46.0195" lon="4.78594">
        <ele>237</ele>
        <time>2016-10-04T11:03:02Z</time>
      </trkpt>
      <trkpt lat="46.01946" lon="4.78596">
        <ele>237</ele>
        <time>2016-10-04T11:03:03Z</time>
      </trkpt>
      <trkpt lat="46.01942" lon="4.78598">
        <ele>237</ele>
        <time>2016-10-04T11:03:04Z</time>
      </trkpt>
      <trkpt lat="46.01937" lon="4.78601">
        <ele>237</ele>
        <time>2016-10-04T11:03:05Z</time>
      </trkpt>
      <trkpt lat="46.0193" lon="4.78607">
        <ele>237</ele>
        <time>2016-10-04T11:03:07Z</time>
      </trkpt>
      <trkpt lat="46.01926" lon="4.7861">
        <ele>237</ele>
        <time>2016-10-04T11:03:08Z</time>
      </trkpt>
      <trkpt lat="46.01918" lon="4.78616">
        <ele>238</ele>
        <time>2016-10-04T11:03:10Z</time>
      </trkpt>
      <trkpt lat="46.01915" lon="4.7862">
        <ele>238</ele>
        <time>2016-10-04T11:03:11Z</time>
      </trkpt>
      <trkpt lat="46.01908" lon="4.78626">
        <ele>238</ele>
        <time>2016-10-04T11:03:13Z</time>
      </trkpt>
      <trkpt lat="46.01905" lon="4.7863">
        <ele>238</ele>
        <time>2016-10-04T11:03:14Z</time>
      </trkpt>
      <trkpt lat="46.019" lon="4.78639">
        <ele>238</ele>
        <time>2016-10-04T11:03:16Z</time>
      </trkpt>
      <trkpt lat="46.01897" lon="4.78642">
        <ele>238</ele>
        <time>2016-10-04T11:03:17Z</time>
      </trkpt>
      <trkpt lat="46.01891" lon="4.78648">
        <ele>238</ele>
        <time>2016-10-04T11:03:19Z</time>
      </trkpt>
      <trkpt lat="46.01889" lon="4.78652">
        <ele>238</ele>
        <time>2016-10-04T11:03:20Z</time>
      </trkpt>
      <trkpt lat="46.01886" lon="4.78659">
        <ele>238</ele>
        <time>2016-10-04T11:03:22Z</time>
      </trkpt>
      <trkpt lat="46.01883" lon="4.78662">
        <ele>238</ele>
        <time>2016-10-04T11:03:23Z</time>
      </trkpt>
      <trkpt lat="46.01878" lon="4.78672">
        <ele>241</ele>
        <time>2016-10-04T11:03:26Z</time>
      </trkpt>
      <trkpt lat="46.01876" lon="4.78675">
        <ele>241</ele>
        <time>2016-10-04T11:03:27Z</time>
      </trkpt>
      <trkpt lat="46.0187" lon="4.78683">
        <ele>241</ele>
        <time>2016-10-04T11:03:30Z</time>
      </trkpt>
      <trkpt lat="46.01868" lon="4.78686">
        <ele>241</ele>
        <time>2016-10-04T11:03:31Z</time>
      </trkpt>
      <trkpt lat="46.01862" lon="4.78695">
        <ele>241</ele>
        <time>2016-10-04T11:03:34Z</time>
      </trkpt>
      <trkpt lat="46.0186" lon="4.78698">
        <ele>241</ele>
        <time>2016-10-04T11:03:35Z</time>
      </trkpt>
      <trkpt lat="46.01856" lon="4.78705">
        <ele>241</ele>
        <time>2016-10-04T11:03:37Z</time>
      </trkpt>
      <trkpt lat="46.01854" lon="4.78708">
        <ele>241</ele>
        <time>2016-10-04T11:03:38Z</time>
      </trkpt>
      <trkpt lat="46.0185" lon="4.78715">
        <ele>242</ele>
        <time>2016-10-04T11:03:40Z</time>
      </trkpt>
      <trkpt lat="46.01847" lon="4.78719">
        <ele>242</ele>
        <time>2016-10-04T11:03:41Z</time>
      </trkpt>
      <trkpt lat="46.01843" lon="4.78725">
        <ele>242</ele>
        <time>2016-10-04T11:03:43Z</time>
      </trkpt>
      <trkpt lat="46.01841" lon="4.78728">
        <ele>243</ele>
        <time>2016-10-04T11:03:44Z</time>
      </trkpt>
      <trkpt lat="46.01837" lon="4.78736">
        <ele>243</ele>
        <time>2016-10-04T11:03:46Z</time>
      </trkpt>
      <trkpt lat="46.01834" lon="4.78739">
        <ele>244</ele>
        <time>2016-10-04T11:03:47Z</time>
      </trkpt>
      <trkpt lat="46.01828" lon="4.78747">
        <ele>244</ele>
        <time>2016-10-04T11:03:50Z</time>
      </trkpt>
      <trkpt lat="46.01826" lon="4.7875">
        <ele>244</ele>
        <time>2016-10-04T11:03:51Z</time>
      </trkpt>
      <trkpt lat="46.01822" lon="4.78757">
        <ele>245</ele>
        <time>2016-10-04T11:03:53Z</time>
      </trkpt>
      <trkpt lat="46.01819" lon="4.7876">
        <ele>245</ele>
        <time>2016-10-04T11:03:54Z</time>
      </trkpt>
      <trkpt lat="46.01813" lon="4.78766">
        <ele>245</ele>
        <time>2016-10-04T11:03:56Z</time>
      </trkpt>
      <trkpt lat="46.0181" lon="4.7877">
        <ele>245</ele>
        <time>2016-10-04T11:03:57Z</time>
      </trkpt>
      <trkpt lat="46.01805" lon="4.78775">
        <ele>246</ele>
        <time>2016-10-04T11:03:59Z</time>
      </trkpt>
      <trkpt lat="46.01803" lon="4.78778">
        <ele>246</ele>
        <time>2016-10-04T11:04:00Z</time>
      </trkpt>
      <trkpt lat="46.01798" lon="4.78782">
        <ele>246</ele>
        <time>2016-10-04T11:04:02Z</time>
      </trkpt>
      <trkpt lat="46.01795" lon="4.78784">
        <ele>246</ele>
        <time>2016-10-04T11:04:03Z</time>
      </trkpt>
      <trkpt lat="46.01788" lon="4.78788">
        <ele>246</ele>
        <time>2016-10-04T11:04:05Z</time>
      </trkpt>
      <trkpt lat="46.01785" lon="4.7879">
        <ele>246</ele>
        <time>2016-10-04T11:04:06Z</time>
      </trkpt>
      <trkpt lat="46.01779" lon="4.78794">
        <ele>246</ele>
        <time>2016-10-04T11:04:08Z</time>
      </trkpt>
      <trkpt lat="46.01775" lon="4.78795">
        <ele>246</ele>
        <time>2016-10-04T11:04:09Z</time>
      </trkpt>
      <trkpt lat="46.01768" lon="4.78797">
        <ele>246</ele>
        <time>2016-10-04T11:04:11Z</time>
      </trkpt>
      <trkpt lat="46.01765" lon="4.78797">
        <ele>246</ele>
        <time>2016-10-04T11:04:12Z</time>
      </trkpt>
      <trkpt lat="46.01758" lon="4.78797">
        <ele>246</ele>
        <time>2016-10-04T11:04:14Z</time>
      </trkpt>
      <trkpt lat="46.01754" lon="4.78797">
        <ele>246</ele>
        <time>2016-10-04T11:04:15Z</time>
      </trkpt>
      <trkpt lat="46.01747" lon="4.78796">
        <ele>246</ele>
        <time>2016-10-04T11:04:17Z</time>
      </trkpt>
      <trkpt lat="46.01743" lon="4.78796">
        <ele>246</ele>
        <time>2016-10-04T11:04:18Z</time>
      </trkpt>
      <trkpt lat="46.01739" lon="4.78794">
        <ele>246</ele>
        <time>2016-10-04T11:04:19Z</time>
      </trkpt>
      <trkpt lat="46.01734" lon="4.78794">
        <ele>246</ele>
        <time>2016-10-04T11:04:20Z</time>
      </trkpt>
      <trkpt lat="46.01726" lon="4.78794">
        <ele>246</ele>
        <time>2016-10-04T11:04:22Z</time>
      </trkpt>
      <trkpt lat="46.01722" lon="4.78794">
        <ele>246</ele>
        <time>2016-10-04T11:04:23Z</time>
      </trkpt>
      <trkpt lat="46.01715" lon="4.78792">
        <ele>246</ele>
        <time>2016-10-04T11:04:25Z</time>
      </trkpt>
      <trkpt lat="46.01711" lon="4.78791">
        <ele>246</ele>
        <time>2016-10-04T11:04:26Z</time>
      </trkpt>
      <trkpt lat="46.01702" lon="4.78789">
        <ele>246</ele>
        <time>2016-10-04T11:04:28Z</time>
      </trkpt>
      <trkpt lat="46.01698" lon="4.78788">
        <ele>246</ele>
        <time>2016-10-04T11:04:29Z</time>
      </trkpt>
      <trkpt lat="46.01693" lon="4.78787">
        <ele>246</ele>
        <time>2016-10-04T11:04:30Z</time>
      </trkpt>
      <trkpt lat="46.01688" lon="4.78786">
        <ele>246</ele>
        <time>2016-10-04T11:04:31Z</time>
      </trkpt>
      <trkpt lat="46.01683" lon="4.78786">
        <ele>246</ele>
        <time>2016-10-04T11:04:32Z</time>
      </trkpt>
      <trkpt lat="46.01679" lon="4.78785">
        <ele>246</ele>
        <time>2016-10-04T11:04:33Z</time>
      </trkpt>
      <trkpt lat="46.01674" lon="4.78784">
        <ele>246</ele>
        <time>2016-10-04T11:04:34Z</time>
      </trkpt>
      <trkpt lat="46.0167" lon="4.78783">
        <ele>246</ele>
        <time>2016-10-04T11:04:35Z</time>
      </trkpt>
      <trkpt lat="46.01662" lon="4.78781">
        <ele>247</ele>
        <time>2016-10-04T11:04:37Z</time>
      </trkpt>
      <trkpt lat="46.01657" lon="4.78781">
        <ele>247</ele>
        <time>2016-10-04T11:04:38Z</time>
      </trkpt>
      <trkpt lat="46.01652" lon="4.78781">
        <ele>247</ele>
        <time>2016-10-04T11:04:39Z</time>
      </trkpt>
      <trkpt lat="46.01647" lon="4.7878">
        <ele>247</ele>
        <time>2016-10-04T11:04:40Z</time>
      </trkpt>
      <trkpt lat="46.01642" lon="4.78779">
        <ele>247</ele>
        <time>2016-10-04T11:04:41Z</time>
      </trkpt>
      <trkpt lat="46.01637" lon="4.78778">
        <ele>247</ele>
        <time>2016-10-04T11:04:42Z</time>
      </trkpt>
      <trkpt lat="46.01633" lon="4.78777">
        <ele>247</ele>
        <time>2016-10-04T11:04:43Z</time>
      </trkpt>
      <trkpt lat="46.01627" lon="4.78776">
        <ele>247</ele>
        <time>2016-10-04T11:04:44Z</time>
      </trkpt>
      <trkpt lat="46.01623" lon="4.78775">
        <ele>247</ele>
        <time>2016-10-04T11:04:45Z</time>
      </trkpt>
      <trkpt lat="46.01618" lon="4.78774">
        <ele>247</ele>
        <time>2016-10-04T11:04:46Z</time>
      </trkpt>
      <trkpt lat="46.01613" lon="4.78774">
        <ele>247</ele>
        <time>2016-10-04T11:04:47Z</time>
      </trkpt>
      <trkpt lat="46.01608" lon="4.78773">
        <ele>247</ele>
        <time>2016-10-04T11:04:48Z</time>
      </trkpt>
      <trkpt lat="46.01603" lon="4.78772">
        <ele>247</ele>
        <time>2016-10-04T11:04:49Z</time>
      </trkpt>
      <trkpt lat="46.01598" lon="4.7877">
        <ele>247</ele>
        <time>2016-10-04T11:04:50Z</time>
      </trkpt>
      <trkpt lat="46.01593" lon="4.78769">
        <ele>247</ele>
        <time>2016-10-04T11:04:51Z</time>
      </trkpt>
      <trkpt lat="46.01588" lon="4.78769">
        <ele>247</ele>
        <time>2016-10-04T11:04:52Z</time>
      </trkpt>
      <trkpt lat="46.01583" lon="4.78769">
        <ele>248</ele>
        <time>2016-10-04T11:04:53Z</time>
      </trkpt>
      <trkpt lat="46.01578" lon="4.78768">
        <ele>248</ele>
        <time>2016-10-04T11:04:54Z</time>
      </trkpt>
      <trkpt lat="46.01572" lon="4.78767">
        <ele>248</ele>
        <time>2016-10-04T11:04:55Z</time>
      </trkpt>
      <trkpt lat="46.01567" lon="4.78766">
        <ele>248</ele>
        <time>2016-10-04T11:04:56Z</time>
      </trkpt>
      <trkpt lat="46.01562" lon="4.78766">
        <ele>248</ele>
        <time>2016-10-04T11:04:57Z</time>
      </trkpt>
      <trkpt lat="46.01557" lon="4.78765">
        <ele>248</ele>
        <time>2016-10-04T11:04:58Z</time>
      </trkpt>
      <trkpt lat="46.01551" lon="4.78765">
        <ele>249</ele>
        <time>2016-10-04T11:04:59Z</time>
      </trkpt>
      <trkpt lat="46.01546" lon="4.78765">
        <ele>249</ele>
        <time>2016-10-04T11:05:00Z</time>
      </trkpt>
      <trkpt lat="46.0154" lon="4.78765">
        <ele>249</ele>
        <time>2016-10-04T11:05:01Z</time>
      </trkpt>
      <trkpt lat="46.01535" lon="4.78766">
        <ele>249</ele>
        <time>2016-10-04T11:05:02Z</time>
      </trkpt>
      <trkpt lat="46.01529" lon="4.78767">
        <ele>249</ele>
        <time>2016-10-04T11:05:03Z</time>
      </trkpt>
      <trkpt lat="46.01524" lon="4.78769">
        <ele>249</ele>
        <time>2016-10-04T11:05:04Z</time>
      </trkpt>
      <trkpt lat="46.01518" lon="4.7877">
        <ele>249</ele>
        <time>2016-10-04T11:05:05Z</time>
      </trkpt>
      <trkpt lat="46.01513" lon="4.78773">
        <ele>249</ele>
        <time>2016-10-04T11:05:06Z</time>
      </trkpt>
      <trkpt lat="46.01507" lon="4.78776">
        <ele>249</ele>
        <time>2016-10-04T11:05:07Z</time>
      </trkpt>
      <trkpt lat="46.01502" lon="4.78779">
        <ele>249</ele>
        <time>2016-10-04T11:05:08Z</time>
      </trkpt>
      <trkpt lat="46.01498" lon="4.78782">
        <ele>249</ele>
        <time>2016-10-04T11:05:09Z</time>
      </trkpt>
      <trkpt lat="46.01493" lon="4.78785">
        <ele>249</ele>
        <time>2016-10-04T11:05:10Z</time>
      </trkpt>
      <trkpt lat="46.01488" lon="4.78788">
        <ele>249</ele>
        <time>2016-10-04T11:05:11Z</time>
      </trkpt>
      <trkpt lat="46.01483" lon="4.78791">
        <ele>249</ele>
        <time>2016-10-04T11:05:12Z</time>
      </trkpt>
      <trkpt lat="46.01478" lon="4.78795">
        <ele>249</ele>
        <time>2016-10-04T11:05:13Z</time>
      </trkpt>
      <trkpt lat="46.01473" lon="4.78799">
        <ele>249</ele>
        <time>2016-10-04T11:05:14Z</time>
      </trkpt>
      <trkpt lat="46.01468" lon="4.78804">
        <ele>249</ele>
        <time>2016-10-04T11:05:15Z</time>
      </trkpt>
      <trkpt lat="46.01462" lon="4.78808">
        <ele>249</ele>
        <time>2016-10-04T11:05:16Z</time>
      </trkpt>
      <trkpt lat="46.01456" lon="4.78812">
        <ele>249</ele>
        <time>2016-10-04T11:05:17Z</time>
      </trkpt>
      <trkpt lat="46.01451" lon="4.78816">
        <ele>249</ele>
        <time>2016-10-04T11:05:18Z</time>
      </trkpt>
      <trkpt lat="46.01445" lon="4.78821">
        <ele>249</ele>
        <time>2016-10-04T11:05:19Z</time>
      </trkpt>
      <trkpt lat="46.01439" lon="4.78824">
        <ele>249</ele>
        <time>2016-10-04T11:05:20Z</time>
      </trkpt>
      <trkpt lat="46.01434" lon="4.78828">
        <ele>249</ele>
        <time>2016-10-04T11:05:21Z</time>
      </trkpt>
      <trkpt lat="46.01429" lon="4.78833">
        <ele>249</ele>
        <time>2016-10-04T11:05:22Z</time>
      </trkpt>
      <trkpt lat="46.01425" lon="4.78836">
        <ele>250</ele>
        <time>2016-10-04T11:05:23Z</time>
      </trkpt>
      <trkpt lat="46.01421" lon="4.7884">
        <ele>250</ele>
        <time>2016-10-04T11:05:24Z</time>
      </trkpt>
      <trkpt lat="46.01417" lon="4.78844">
        <ele>249</ele>
        <time>2016-10-04T11:05:25Z</time>
      </trkpt>
      <trkpt lat="46.01412" lon="4.78847">
        <ele>250</ele>
        <time>2016-10-04T11:05:26Z</time>
      </trkpt>
      <trkpt lat="46.01408" lon="4.7885">
        <ele>250</ele>
        <time>2016-10-04T11:05:27Z</time>
      </trkpt>
      <trkpt lat="46.01403" lon="4.78854">
        <ele>250</ele>
        <time>2016-10-04T11:05:28Z</time>
      </trkpt>
      <trkpt lat="46.01399" lon="4.78857">
        <ele>250</ele>
        <time>2016-10-04T11:05:29Z</time>
      </trkpt>
      <trkpt lat="46.01394" lon="4.7886">
        <ele>250</ele>
        <time>2016-10-04T11:05:30Z</time>
      </trkpt>
      <trkpt lat="46.01389" lon="4.78863">
        <ele>250</ele>
        <time>2016-10-04T11:05:31Z</time>
      </trkpt>
      <trkpt lat="46.01384" lon="4.78867">
        <ele>250</ele>
        <time>2016-10-04T11:05:32Z</time>
      </trkpt>
      <trkpt lat="46.01379" lon="4.7887">
        <ele>250</ele>
        <time>2016-10-04T11:05:33Z</time>
      </trkpt>
      <trkpt lat="46.01374" lon="4.78874">
        <ele>250</ele>
        <time>2016-10-04T11:05:34Z</time>
      </trkpt>
      <trkpt lat="46.01369" lon="4.78877">
        <ele>250</ele>
        <time>2016-10-04T11:05:35Z</time>
      </trkpt>
      <trkpt lat="46.01364" lon="4.7888">
        <ele>250</ele>
        <time>2016-10-04T11:05:36Z</time>
      </trkpt>
      <trkpt lat="46.01359" lon="4.78884">
        <ele>250</ele>
        <time>2016-10-04T11:05:37Z</time>
      </trkpt>
      <trkpt lat="46.01355" lon="4.78887">
        <ele>251</ele>
        <time>2016-10-04T11:05:38Z</time>
      </trkpt>
      <trkpt lat="46.0135" lon="4.7889">
        <ele>251</ele>
        <time>2016-10-04T11:05:39Z</time>
      </trkpt>
      <trkpt lat="46.01346" lon="4.78894">
        <ele>251</ele>
        <time>2016-10-04T11:05:40Z</time>
      </trkpt>
      <trkpt lat="46.01341" lon="4.78897">
        <ele>251</ele>
        <time>2016-10-04T11:05:41Z</time>
      </trkpt>
      <trkpt lat="46.01337" lon="4.78901">
        <ele>251</ele>
        <time>2016-10-04T11:05:42Z</time>
      </trkpt>
      <trkpt lat="46.01332" lon="4.78904">
        <ele>251</ele>
        <time>2016-10-04T11:05:43Z</time>
      </trkpt>
      <trkpt lat="46.01328" lon="4.78908">
        <ele>251</ele>
        <time>2016-10-04T11:05:44Z</time>
      </trkpt>
      <trkpt lat="46.01323" lon="4.78912">
        <ele>251</ele>
        <time>2016-10-04T11:05:45Z</time>
      </trkpt>
      <trkpt lat="46.01318" lon="4.78915">
        <ele>251</ele>
        <time>2016-10-04T11:05:46Z</time>
      </trkpt>
      <trkpt lat="46.01314" lon="4.78919">
        <ele>252</ele>
        <time>2016-10-04T11:05:47Z</time>
      </trkpt>
      <trkpt lat="46.01309" lon="4.78922">
        <ele>252</ele>
        <time>2016-10-04T11:05:48Z</time>
      </trkpt>
      <trkpt lat="46.01305" lon="4.78925">
        <ele>252</ele>
        <time>2016-10-04T11:05:49Z</time>
      </trkpt>
      <trkpt lat="46.01301" lon="4.78928">
        <ele>252</ele>
        <time>2016-10-04T11:05:50Z</time>
      </trkpt>
      <trkpt lat="46.01296" lon="4.7893">
        <ele>252</ele>
        <time>2016-10-04T11:05:51Z</time>
      </trkpt>
      <trkpt lat="46.01293" lon="4.78934">
        <ele>252</ele>
        <time>2016-10-04T11:05:52Z</time>
      </trkpt>
      <trkpt lat="46.01289" lon="4.78938">
        <ele>252</ele>
        <time>2016-10-04T11:05:53Z</time>
      </trkpt>
      <trkpt lat="46.01285" lon="4.78942">
        <ele>252</ele>
        <time>2016-10-04T11:05:54Z</time>
      </trkpt>
      <trkpt lat="46.01281" lon="4.78945">
        <ele>252</ele>
        <time>2016-10-04T11:05:55Z</time>
      </trkpt>
      <trkpt lat="46.01277" lon="4.78949">
        <ele>252</ele>
        <time>2016-10-04T11:05:56Z</time>
      </trkpt>
      <trkpt lat="46.01273" lon="4.78953">
        <ele>252</ele>
        <time>2016-10-04T11:05:57Z</time>
      </trkpt>
      <trkpt lat="46.01269" lon="4.78957">
        <ele>252</ele>
        <time>2016-10-04T11:05:58Z</time>
      </trkpt>
      <trkpt lat="46.01264" lon="4.7896">
        <ele>252</ele>
        <time>2016-10-04T11:05:59Z</time>
      </trkpt>
      <trkpt lat="46.0126" lon="4.78964">
        <ele>252</ele>
        <time>2016-10-04T11:06:00Z</time>
      </trkpt>
      <trkpt lat="46.01255" lon="4.78967">
        <ele>252</ele>
        <time>2016-10-04T11:06:01Z</time>
      </trkpt>
      <trkpt lat="46.01251" lon="4.7897">
        <ele>252</ele>
        <time>2016-10-04T11:06:02Z</time>
      </trkpt>
      <trkpt lat="46.01246" lon="4.78973">
        <ele>251</ele>
        <time>2016-10-04T11:06:03Z</time>
      </trkpt>
      <trkpt lat="46.01241" lon="4.78977">
        <ele>251</ele>
        <time>2016-10-04T11:06:04Z</time>
      </trkpt>
      <trkpt lat="46.01237" lon="4.78981">
        <ele>251</ele>
        <time>2016-10-04T11:06:05Z</time>
      </trkpt>
      <trkpt lat="46.01232" lon="4.78983">
        <ele>251</ele>
        <time>2016-10-04T11:06:06Z</time>
      </trkpt>
      <trkpt lat="46.01227" lon="4.78986">
        <ele>251</ele>
        <time>2016-10-04T11:06:07Z</time>
      </trkpt>
      <trkpt lat="46.01223" lon="4.78989">
        <ele>251</ele>
        <time>2016-10-04T11:06:08Z</time>
      </trkpt>
      <trkpt lat="46.01218" lon="4.78993">
        <ele>251</ele>
        <time>2016-10-04T11:06:09Z</time>
      </trkpt>
      <trkpt lat="46.01213" lon="4.78996">
        <ele>251</ele>
        <time>2016-10-04T11:06:10Z</time>
      </trkpt>
      <trkpt lat="46.01208" lon="4.78999">
        <ele>251</ele>
        <time>2016-10-04T11:06:11Z</time>
      </trkpt>
      <trkpt lat="46.01202" lon="4.79003">
        <ele>252</ele>
        <time>2016-10-04T11:06:12Z</time>
      </trkpt>
      <trkpt lat="46.01197" lon="4.79007">
        <ele>252</ele>
        <time>2016-10-04T11:06:13Z</time>
      </trkpt>
      <trkpt lat="46.01192" lon="4.79012">
        <ele>252</ele>
        <time>2016-10-04T11:06:14Z</time>
      </trkpt>
      <trkpt lat="46.01187" lon="4.79016">
        <ele>252</ele>
        <time>2016-10-04T11:06:15Z</time>
      </trkpt>
      <trkpt lat="46.01181" lon="4.7902">
        <ele>252</ele>
        <time>2016-10-04T11:06:16Z</time>
      </trkpt>
      <trkpt lat="46.01176" lon="4.79024">
        <ele>252</ele>
        <time>2016-10-04T11:06:17Z</time>
      </trkpt>
      <trkpt lat="46.01172" lon="4.79028">
        <ele>252</ele>
        <time>2016-10-04T11:06:18Z</time>
      </trkpt>
      <trkpt lat="46.01167" lon="4.79032">
        <ele>251</ele>
        <time>2016-10-04T11:06:19Z</time>
      </trkpt>
      <trkpt lat="46.01162" lon="4.79035">
        <ele>251</ele>
        <time>2016-10-04T11:06:20Z</time>
      </trkpt>
      <trkpt lat="46.01158" lon="4.79039">
        <ele>251</ele>
        <time>2016-10-04T11:06:21Z</time>
      </trkpt>
      <trkpt lat="46.01153" lon="4.79043">
        <ele>251</ele>
        <time>2016-10-04T11:06:22Z</time>
      </trkpt>
      <trkpt lat="46.01148" lon="4.79047">
        <ele>251</ele>
        <time>2016-10-04T11:06:23Z</time>
      </trkpt>
      <trkpt lat="46.01144" lon="4.79051">
        <ele>251</ele>
        <time>2016-10-04T11:06:24Z</time>
      </trkpt>
      <trkpt lat="46.01139" lon="4.79055">
        <ele>252</ele>
        <time>2016-10-04T11:06:25Z</time>
      </trkpt>
      <trkpt lat="46.01134" lon="4.79058">
        <ele>252</ele>
        <time>2016-10-04T11:06:26Z</time>
      </trkpt>
      <trkpt lat="46.01129" lon="4.79063">
        <ele>252</ele>
        <time>2016-10-04T11:06:27Z</time>
      </trkpt>
      <trkpt lat="46.01125" lon="4.79067">
        <ele>252</ele>
        <time>2016-10-04T11:06:28Z</time>
      </trkpt>
      <trkpt lat="46.0112" lon="4.79071">
        <ele>252</ele>
        <time>2016-10-04T11:06:29Z</time>
      </trkpt>
      <trkpt lat="46.01115" lon="4.79075">
        <ele>252</ele>
        <time>2016-10-04T11:06:30Z</time>
      </trkpt>
      <trkpt lat="46.0111" lon="4.79079">
        <ele>252</ele>
        <time>2016-10-04T11:06:31Z</time>
      </trkpt>
      <trkpt lat="46.01106" lon="4.79082">
        <ele>252</ele>
        <time>2016-10-04T11:06:32Z</time>
      </trkpt>
      <trkpt lat="46.01101" lon="4.79085">
        <ele>252</ele>
        <time>2016-10-04T11:06:33Z</time>
      </trkpt>
      <trkpt lat="46.01096" lon="4.79089">
        <ele>252</ele>
        <time>2016-10-04T11:06:34Z</time>
      </trkpt>
      <trkpt lat="46.01092" lon="4.79092">
        <ele>252</ele>
        <time>2016-10-04T11:06:35Z</time>
      </trkpt>
      <trkpt lat="46.01087" lon="4.79096">
        <ele>252</ele>
        <time>2016-10-04T11:06:36Z</time>
      </trkpt>
      <trkpt lat="46.01081" lon="4.791">
        <ele>252</ele>
        <time>2016-10-04T11:06:37Z</time>
      </trkpt>
      <trkpt lat="46.01076" lon="4.79104">
        <ele>252</ele>
        <time>2016-10-04T11:06:38Z</time>
      </trkpt>
      <trkpt lat="46.0107" lon="4.79109">
        <ele>252</ele>
        <time>2016-10-04T11:06:39Z</time>
      </trkpt>
      <trkpt lat="46.01064" lon="4.79113">
        <ele>252</ele>
        <time>2016-10-04T11:06:40Z</time>
      </trkpt>
      <trkpt lat="46.01059" lon="4.79117">
        <ele>252</ele>
        <time>2016-10-04T11:06:41Z</time>
      </trkpt>
      <trkpt lat="46.01054" lon="4.79121">
        <ele>252</ele>
        <time>2016-10-04T11:06:42Z</time>
      </trkpt>
      <trkpt lat="46.01049" lon="4.79125">
        <ele>253</ele>
        <time>2016-10-04T11:06:43Z</time>
      </trkpt>
      <trkpt lat="46.01044" lon="4.79129">
        <ele>253</ele>
        <time>2016-10-04T11:06:44Z</time>
      </trkpt>
      <trkpt lat="46.01039" lon="4.79133">
        <ele>252</ele>
        <time>2016-10-04T11:06:45Z</time>
      </trkpt>
      <trkpt lat="46.01034" lon="4.79137">
        <ele>252</ele>
        <time>2016-10-04T11:06:46Z</time>
      </trkpt>
      <trkpt lat="46.01029" lon="4.7914">
        <ele>252</ele>
        <time>2016-10-04T11:06:47Z</time>
      </trkpt>
      <trkpt lat="46.01025" lon="4.79144">
        <ele>252</ele>
        <time>2016-10-04T11:06:48Z</time>
      </trkpt>
      <trkpt lat="46.0102" lon="4.79147">
        <ele>252</ele>
        <time>2016-10-04T11:06:49Z</time>
      </trkpt>
      <trkpt lat="46.01015" lon="4.79151">
        <ele>252</ele>
        <time>2016-10-04T11:06:50Z</time>
      </trkpt>
      <trkpt lat="46.0101" lon="4.79154">
        <ele>252</ele>
        <time>2016-10-04T11:06:51Z</time>
      </trkpt>
      <trkpt lat="46.01006" lon="4.79157">
        <ele>252</ele>
        <time>2016-10-04T11:06:52Z</time>
      </trkpt>
      <trkpt lat="46.01001" lon="4.79161">
        <ele>252</ele>
        <time>2016-10-04T11:06:53Z</time>
      </trkpt>
      <trkpt lat="46.00996" lon="4.79165">
        <ele>252</ele>
        <time>2016-10-04T11:06:54Z</time>
      </trkpt>
      <trkpt lat="46.0099" lon="4.7917">
        <ele>252</ele>
        <time>2016-10-04T11:06:55Z</time>
      </trkpt>
      <trkpt lat="46.00984" lon="4.79174">
        <ele>252</ele>
        <time>2016-10-04T11:06:56Z</time>
      </trkpt>
      <trkpt lat="46.00979" lon="4.79178">
        <ele>252</ele>
        <time>2016-10-04T11:06:57Z</time>
      </trkpt>
      <trkpt lat="46.00974" lon="4.79181">
        <ele>252</ele>
        <time>2016-10-04T11:06:58Z</time>
      </trkpt>
      <trkpt lat="46.00969" lon="4.79185">
        <ele>252</ele>
        <time>2016-10-04T11:06:59Z</time>
      </trkpt>
      <trkpt lat="46.00964" lon="4.79188">
        <ele>252</ele>
        <time>2016-10-04T11:07:00Z</time>
      </trkpt>
      <trkpt lat="46.00959" lon="4.79192">
        <ele>252</ele>
        <time>2016-10-04T11:07:01Z</time>
      </trkpt>
      <trkpt lat="46.00955" lon="4.79196">
        <ele>252</ele>
        <time>2016-10-04T11:07:02Z</time>
      </trkpt>
      <trkpt lat="46.0095" lon="4.79199">
        <ele>252</ele>
        <time>2016-10-04T11:07:03Z</time>
      </trkpt>
      <trkpt lat="46.00946" lon="4.79203">
        <ele>252</ele>
        <time>2016-10-04T11:07:04Z</time>
      </trkpt>
      <trkpt lat="46.00941" lon="4.79207">
        <ele>252</ele>
        <time>2016-10-04T11:07:05Z</time>
      </trkpt>
      <trkpt lat="46.00936" lon="4.7921">
        <ele>252</ele>
        <time>2016-10-04T11:07:06Z</time>
      </trkpt>
      <trkpt lat="46.0093" lon="4.79214">
        <ele>252</ele>
        <time>2016-10-04T11:07:07Z</time>
      </trkpt>
      <trkpt lat="46.00925" lon="4.79219">
        <ele>252</ele>
        <time>2016-10-04T11:07:08Z</time>
      </trkpt>
      <trkpt lat="46.00919" lon="4.79224">
        <ele>252</ele>
        <time>2016-10-04T11:07:09Z</time>
      </trkpt>
      <trkpt lat="46.00913" lon="4.79228">
        <ele>251</ele>
        <time>2016-10-04T11:07:10Z</time>
      </trkpt>
      <trkpt lat="46.00907" lon="4.79232">
        <ele>251</ele>
        <time>2016-10-04T11:07:11Z</time>
      </trkpt>
      <trkpt lat="46.00902" lon="4.79237">
        <ele>251</ele>
        <time>2016-10-04T11:07:12Z</time>
      </trkpt>
      <trkpt lat="46.00896" lon="4.79241">
        <ele>251</ele>
        <time>2016-10-04T11:07:13Z</time>
      </trkpt>
      <trkpt lat="46.00891" lon="4.79245">
        <ele>251</ele>
        <time>2016-10-04T11:07:14Z</time>
      </trkpt>
      <trkpt lat="46.00886" lon="4.79249">
        <ele>251</ele>
        <time>2016-10-04T11:07:15Z</time>
      </trkpt>
      <trkpt lat="46.0088" lon="4.79253">
        <ele>252</ele>
        <time>2016-10-04T11:07:16Z</time>
      </trkpt>
      <trkpt lat="46.00875" lon="4.79257">
        <ele>252</ele>
        <time>2016-10-04T11:07:17Z</time>
      </trkpt>
      <trkpt lat="46.0087" lon="4.79261">
        <ele>252</ele>
        <time>2016-10-04T11:07:18Z</time>
      </trkpt>
      <trkpt lat="46.00866" lon="4.79265">
        <ele>252</ele>
        <time>2016-10-04T11:07:19Z</time>
      </trkpt>
      <trkpt lat="46.00861" lon="4.79269">
        <ele>252</ele>
        <time>2016-10-04T11:07:20Z</time>
      </trkpt>
      <trkpt lat="46.00856" lon="4.79273">
        <ele>252</ele>
        <time>2016-10-04T11:07:21Z</time>
      </trkpt>
      <trkpt lat="46.00851" lon="4.79276">
        <ele>252</ele>
        <time>2016-10-04T11:07:22Z</time>
      </trkpt>
      <trkpt lat="46.00845" lon="4.7928">
        <ele>252</ele>
        <time>2016-10-04T11:07:23Z</time>
      </trkpt>
      <trkpt lat="46.00841" lon="4.79284">
        <ele>252</ele>
        <time>2016-10-04T11:07:24Z</time>
      </trkpt>
      <trkpt lat="46.00836" lon="4.79288">
        <ele>252</ele>
        <time>2016-10-04T11:07:25Z</time>
      </trkpt>
      <trkpt lat="46.00831" lon="4.79292">
        <ele>251</ele>
        <time>2016-10-04T11:07:26Z</time>
      </trkpt>
      <trkpt lat="46.00826" lon="4.79296">
        <ele>251</ele>
        <time>2016-10-04T11:07:27Z</time>
      </trkpt>
      <trkpt lat="46.00821" lon="4.79299">
        <ele>251</ele>
        <time>2016-10-04T11:07:28Z</time>
      </trkpt>
      <trkpt lat="46.00815" lon="4.79303">
        <ele>251</ele>
        <time>2016-10-04T11:07:29Z</time>
      </trkpt>
      <trkpt lat="46.0081" lon="4.79307">
        <ele>251</ele>
        <time>2016-10-04T11:07:30Z</time>
      </trkpt>
      <trkpt lat="46.00804" lon="4.79311">
        <ele>251</ele>
        <time>2016-10-04T11:07:31Z</time>
      </trkpt>
      <trkpt lat="46.00799" lon="4.79315">
        <ele>251</ele>
        <time>2016-10-04T11:07:32Z</time>
      </trkpt>
      <trkpt lat="46.00793" lon="4.79318">
        <ele>251</ele>
        <time>2016-10-04T11:07:33Z</time>
      </trkpt>
      <trkpt lat="46.00788" lon="4.79322">
        <ele>251</ele>
        <time>2016-10-04T11:07:34Z</time>
      </trkpt>
      <trkpt lat="46.00782" lon="4.79325">
        <ele>251</ele>
        <time>2016-10-04T11:07:35Z</time>
      </trkpt>
      <trkpt lat="46.00777" lon="4.79328">
        <ele>251</ele>
        <time>2016-10-04T11:07:36Z</time>
      </trkpt>
      <trkpt lat="46.00771" lon="4.7933">
        <ele>251</ele>
        <time>2016-10-04T11:07:37Z</time>
      </trkpt>
      <trkpt lat="46.00765" lon="4.79332">
        <ele>251</ele>
        <time>2016-10-04T11:07:38Z</time>
      </trkpt>
      <trkpt lat="46.00761" lon="4.79334">
        <ele>252</ele>
        <time>2016-10-04T11:07:39Z</time>
      </trkpt>
      <trkpt lat="46.00755" lon="4.79336">
        <ele>251</ele>
        <time>2016-10-04T11:07:40Z</time>
      </trkpt>
      <trkpt lat="46.0075" lon="4.79337">
        <ele>251</ele>
        <time>2016-10-04T11:07:41Z</time>
      </trkpt>
      <trkpt lat="46.00745" lon="4.79339">
        <ele>251</ele>
        <time>2016-10-04T11:07:42Z</time>
      </trkpt>
      <trkpt lat="46.00739" lon="4.7934">
        <ele>251</ele>
        <time>2016-10-04T11:07:43Z</time>
      </trkpt>
      <trkpt lat="46.00734" lon="4.79341">
        <ele>251</ele>
        <time>2016-10-04T11:07:44Z</time>
      </trkpt>
      <trkpt lat="46.00728" lon="4.79342">
        <ele>251</ele>
        <time>2016-10-04T11:07:45Z</time>
      </trkpt>
      <trkpt lat="46.00723" lon="4.79342">
        <ele>251</ele>
        <time>2016-10-04T11:07:46Z</time>
      </trkpt>
      <trkpt lat="46.00718" lon="4.79343">
        <ele>251</ele>
        <time>2016-10-04T11:07:47Z</time>
      </trkpt>
      <trkpt lat="46.00713" lon="4.79343">
        <ele>251</ele>
        <time>2016-10-04T11:07:48Z</time>
      </trkpt>
      <trkpt lat="46.00708" lon="4.7934">
        <ele>251</ele>
        <time>2016-10-04T11:07:49Z</time>
      </trkpt>
      <trkpt lat="46.00703" lon="4.79337">
        <ele>251</ele>
        <time>2016-10-04T11:07:50Z</time>
      </trkpt>
      <trkpt lat="46.00698" lon="4.79333">
        <ele>250</ele>
        <time>2016-10-04T11:07:51Z</time>
      </trkpt>
      <trkpt lat="46.00693" lon="4.79329">
        <ele>249</ele>
        <time>2016-10-04T11:07:52Z</time>
      </trkpt>
      <trkpt lat="46.00688" lon="4.79326">
        <ele>249</ele>
        <time>2016-10-04T11:07:53Z</time>
      </trkpt>
      <trkpt lat="46.00683" lon="4.79326">
        <ele>249</ele>
        <time>2016-10-04T11:07:54Z</time>
      </trkpt>
      <trkpt lat="46.00678" lon="4.79327">
        <ele>249</ele>
        <time>2016-10-04T11:07:55Z</time>
      </trkpt>
      <trkpt lat="46.00672" lon="4.7933">
        <ele>249</ele>
        <time>2016-10-04T11:07:56Z</time>
      </trkpt>
      <trkpt lat="46.00667" lon="4.79334">
        <ele>249</ele>
        <time>2016-10-04T11:07:57Z</time>
      </trkpt>
      <trkpt lat="46.00662" lon="4.79339">
        <ele>249</ele>
        <time>2016-10-04T11:07:58Z</time>
      </trkpt>
      <trkpt lat="46.00659" lon="4.79345">
        <ele>250</ele>
        <time>2016-10-04T11:07:59Z</time>
      </trkpt>
      <trkpt lat="46.00656" lon="4.79353">
        <ele>250</ele>
        <time>2016-10-04T11:08:00Z</time>
      </trkpt>
      <trkpt lat="46.00655" lon="4.79361">
        <ele>250</ele>
        <time>2016-10-04T11:08:01Z</time>
      </trkpt>
      <trkpt lat="46.00654" lon="4.79369">
        <ele>250</ele>
        <time>2016-10-04T11:08:02Z</time>
      </trkpt>
      <trkpt lat="46.00653" lon="4.79376">
        <ele>251</ele>
        <time>2016-10-04T11:08:03Z</time>
      </trkpt>
      <trkpt lat="46.00651" lon="4.79384">
        <ele>251</ele>
        <time>2016-10-04T11:08:04Z</time>
      </trkpt>
      <trkpt lat="46.00649" lon="4.7939">
        <ele>251</ele>
        <time>2016-10-04T11:08:05Z</time>
      </trkpt>
      <trkpt lat="46.00645" lon="4.79397">
        <ele>251</ele>
        <time>2016-10-04T11:08:06Z</time>
      </trkpt>
      <trkpt lat="46.00641" lon="4.79402">
        <ele>251</ele>
        <time>2016-10-04T11:08:07Z</time>
      </trkpt>
      <trkpt lat="46.00637" lon="4.79407">
        <ele>251</ele>
        <time>2016-10-04T11:08:08Z</time>
      </trkpt>
      <trkpt lat="46.00633" lon="4.79412">
        <ele>251</ele>
        <time>2016-10-04T11:08:09Z</time>
      </trkpt>
      <trkpt lat="46.00629" lon="4.79418">
        <ele>252</ele>
        <time>2016-10-04T11:08:10Z</time>
      </trkpt>
      <trkpt lat="46.00624" lon="4.79424">
        <ele>252</ele>
        <time>2016-10-04T11:08:11Z</time>
      </trkpt>
      <trkpt lat="46.00619" lon="4.7943">
        <ele>252</ele>
        <time>2016-10-04T11:08:12Z</time>
      </trkpt>
      <trkpt lat="46.00614" lon="4.79436">
        <ele>252</ele>
        <time>2016-10-04T11:08:13Z</time>
      </trkpt>
      <trkpt lat="46.00609" lon="4.79442">
        <ele>252</ele>
        <time>2016-10-04T11:08:14Z</time>
      </trkpt>
      <trkpt lat="46.00604" lon="4.79448">
        <ele>252</ele>
        <time>2016-10-04T11:08:15Z</time>
      </trkpt>
      <trkpt lat="46.00599" lon="4.79454">
        <ele>252</ele>
        <time>2016-10-04T11:08:16Z</time>
      </trkpt>
      <trkpt lat="46.00595" lon="4.7946">
        <ele>252</ele>
        <time>2016-10-04T11:08:17Z</time>
      </trkpt>
      <trkpt lat="46.00591" lon="4.79465">
        <ele>252</ele>
        <time>2016-10-04T11:08:18Z</time>
      </trkpt>
      <trkpt lat="46.00586" lon="4.7947">
        <ele>253</ele>
        <time>2016-10-04T11:08:19Z</time>
      </trkpt>
      <trkpt lat="46.00581" lon="4.79475">
        <ele>252</ele>
        <time>2016-10-04T11:08:20Z</time>
      </trkpt>
      <trkpt lat="46.00576" lon="4.7948">
        <ele>253</ele>
        <time>2016-10-04T11:08:21Z</time>
      </trkpt>
      <trkpt lat="46.00571" lon="4.79485">
        <ele>253</ele>
        <time>2016-10-04T11:08:22Z</time>
      </trkpt>
      <trkpt lat="46.00565" lon="4.79489">
        <ele>253</ele>
        <time>2016-10-04T11:08:23Z</time>
      </trkpt>
      <trkpt lat="46.00559" lon="4.79494">
        <ele>253</ele>
        <time>2016-10-04T11:08:24Z</time>
      </trkpt>
      <trkpt lat="46.00554" lon="4.79499">
        <ele>253</ele>
        <time>2016-10-04T11:08:25Z</time>
      </trkpt>
      <trkpt lat="46.00548" lon="4.79503">
        <ele>254</ele>
        <time>2016-10-04T11:08:26Z</time>
      </trkpt>
      <trkpt lat="46.00543" lon="4.79507">
        <ele>254</ele>
        <time>2016-10-04T11:08:27Z</time>
      </trkpt>
      <trkpt lat="46.00538" lon="4.79511">
        <ele>254</ele>
        <time>2016-10-04T11:08:28Z</time>
      </trkpt>
      <trkpt lat="46.00533" lon="4.79515">
        <ele>254</ele>
        <time>2016-10-04T11:08:29Z</time>
      </trkpt>
      <trkpt lat="46.00528" lon="4.79519">
        <ele>254</ele>
        <time>2016-10-04T11:08:30Z</time>
      </trkpt>
      <trkpt lat="46.00523" lon="4.79523">
        <ele>254</ele>
        <time>2016-10-04T11:08:31Z</time>
      </trkpt>
      <trkpt lat="46.00518" lon="4.79527">
        <ele>254</ele>
        <time>2016-10-04T11:08:32Z</time>
      </trkpt>
      <trkpt lat="46.00513" lon="4.7953">
        <ele>254</ele>
        <time>2016-10-04T11:08:33Z</time>
      </trkpt>
      <trkpt lat="46.00508" lon="4.79534">
        <ele>254</ele>
        <time>2016-10-04T11:08:34Z</time>
      </trkpt>
      <trkpt lat="46.00504" lon="4.79538">
        <ele>254</ele>
        <time>2016-10-04T11:08:35Z</time>
      </trkpt>
      <trkpt lat="46.00499" lon="4.79542">
        <ele>255</ele>
        <time>2016-10-04T11:08:36Z</time>
      </trkpt>
      <trkpt lat="46.00494" lon="4.79546">
        <ele>255</ele>
        <time>2016-10-04T11:08:37Z</time>
      </trkpt>
      <trkpt lat="46.00488" lon="4.79548">
        <ele>255</ele>
        <time>2016-10-04T11:08:38Z</time>
      </trkpt>
      <trkpt lat="46.00484" lon="4.79552">
        <ele>255</ele>
        <time>2016-10-04T11:08:39Z</time>
      </trkpt>
      <trkpt lat="46.00479" lon="4.79557">
        <ele>255</ele>
        <time>2016-10-04T11:08:40Z</time>
      </trkpt>
      <trkpt lat="46.00474" lon="4.7956">
        <ele>255</ele>
        <time>2016-10-04T11:08:41Z</time>
      </trkpt>
      <trkpt lat="46.0047" lon="4.79564">
        <ele>255</ele>
        <time>2016-10-04T11:08:42Z</time>
      </trkpt>
      <trkpt lat="46.00465" lon="4.79568">
        <ele>255</ele>
        <time>2016-10-04T11:08:43Z</time>
      </trkpt>
      <trkpt lat="46.0046" lon="4.79572">
        <ele>255</ele>
        <time>2016-10-04T11:08:44Z</time>
      </trkpt>
      <trkpt lat="46.00455" lon="4.79576">
        <ele>255</ele>
        <time>2016-10-04T11:08:45Z</time>
      </trkpt>
      <trkpt lat="46.0045" lon="4.7958">
        <ele>255</ele>
        <time>2016-10-04T11:08:46Z</time>
      </trkpt>
      <trkpt lat="46.00444" lon="4.79584">
        <ele>256</ele>
        <time>2016-10-04T11:08:47Z</time>
      </trkpt>
      <trkpt lat="46.00439" lon="4.79588">
        <ele>256</ele>
        <time>2016-10-04T11:08:48Z</time>
      </trkpt>
      <trkpt lat="46.00434" lon="4.79592">
        <ele>256</ele>
        <time>2016-10-04T11:08:49Z</time>
      </trkpt>
      <trkpt lat="46.00429" lon="4.79596">
        <ele>256</ele>
        <time>2016-10-04T11:08:50Z</time>
      </trkpt>
      <trkpt lat="46.00423" lon="4.796">
        <ele>256</ele>
        <time>2016-10-04T11:08:51Z</time>
      </trkpt>
      <trkpt lat="46.00418" lon="4.79604">
        <ele>256</ele>
        <time>2016-10-04T11:08:52Z</time>
      </trkpt>
      <trkpt lat="46.00412" lon="4.79606">
        <ele>256</ele>
        <time>2016-10-04T11:08:53Z</time>
      </trkpt>
      <trkpt lat="46.00406" lon="4.79611">
        <ele>256</ele>
        <time>2016-10-04T11:08:54Z</time>
      </trkpt>
      <trkpt lat="46.004" lon="4.79615">
        <ele>256</ele>
        <time>2016-10-04T11:08:55Z</time>
      </trkpt>
      <trkpt lat="46.00394" lon="4.79619">
        <ele>256</ele>
        <time>2016-10-04T11:08:56Z</time>
      </trkpt>
      <trkpt lat="46.00389" lon="4.79623">
        <ele>256</ele>
        <time>2016-10-04T11:08:57Z</time>
      </trkpt>
      <trkpt lat="46.00384" lon="4.79627">
        <ele>256</ele>
        <time>2016-10-04T11:08:58Z</time>
      </trkpt>
      <trkpt lat="46.00379" lon="4.79631">
        <ele>256</ele>
        <time>2016-10-04T11:08:59Z</time>
      </trkpt>
      <trkpt lat="46.00373" lon="4.79634">
        <ele>256</ele>
        <time>2016-10-04T11:09:00Z</time>
      </trkpt>
      <trkpt lat="46.00368" lon="4.79638">
        <ele>256</ele>
        <time>2016-10-04T11:09:01Z</time>
      </trkpt>
      <trkpt lat="46.00363" lon="4.79642">
        <ele>256</ele>
        <time>2016-10-04T11:09:02Z</time>
      </trkpt>
      <trkpt lat="46.00359" lon="4.79646">
        <ele>256</ele>
        <time>2016-10-04T11:09:03Z</time>
      </trkpt>
      <trkpt lat="46.00354" lon="4.7965">
        <ele>256</ele>
        <time>2016-10-04T11:09:04Z</time>
      </trkpt>
      <trkpt lat="46.00349" lon="4.79654">
        <ele>256</ele>
        <time>2016-10-04T11:09:05Z</time>
      </trkpt>
      <trkpt lat="46.00344" lon="4.79657">
        <ele>256</ele>
        <time>2016-10-04T11:09:06Z</time>
      </trkpt>
      <trkpt lat="46.00339" lon="4.79661">
        <ele>257</ele>
        <time>2016-10-04T11:09:07Z</time>
      </trkpt>
      <trkpt lat="46.00334" lon="4.79665">
        <ele>257</ele>
        <time>2016-10-04T11:09:08Z</time>
      </trkpt>
      <trkpt lat="46.0033" lon="4.7967">
        <ele>257</ele>
        <time>2016-10-04T11:09:09Z</time>
      </trkpt>
      <trkpt lat="46.00325" lon="4.79674">
        <ele>257</ele>
        <time>2016-10-04T11:09:10Z</time>
      </trkpt>
      <trkpt lat="46.0032" lon="4.79678">
        <ele>257</ele>
        <time>2016-10-04T11:09:11Z</time>
      </trkpt>
      <trkpt lat="46.00315" lon="4.79682">
        <ele>257</ele>
        <time>2016-10-04T11:09:12Z</time>
      </trkpt>
      <trkpt lat="46.0031" lon="4.79685">
        <ele>257</ele>
        <time>2016-10-04T11:09:13Z</time>
      </trkpt>
      <trkpt lat="46.00305" lon="4.79689">
        <ele>257</ele>
        <time>2016-10-04T11:09:14Z</time>
      </trkpt>
      <trkpt lat="46.00299" lon="4.79692">
        <ele>257</ele>
        <time>2016-10-04T11:09:15Z</time>
      </trkpt>
      <trkpt lat="46.00294" lon="4.79696">
        <ele>257</ele>
        <time>2016-10-04T11:09:16Z</time>
      </trkpt>
      <trkpt lat="46.00289" lon="4.797">
        <ele>257</ele>
        <time>2016-10-04T11:09:17Z</time>
      </trkpt>
      <trkpt lat="46.00284" lon="4.79704">
        <ele>257</ele>
        <time>2016-10-04T11:09:18Z</time>
      </trkpt>
      <trkpt lat="46.0028" lon="4.79708">
        <ele>257</ele>
        <time>2016-10-04T11:09:19Z</time>
      </trkpt>
      <trkpt lat="46.00276" lon="4.79711">
        <ele>257</ele>
        <time>2016-10-04T11:09:20Z</time>
      </trkpt>
      <trkpt lat="46.00271" lon="4.79714">
        <ele>257</ele>
        <time>2016-10-04T11:09:21Z</time>
      </trkpt>
      <trkpt lat="46.00267" lon="4.79718">
        <ele>257</ele>
        <time>2016-10-04T11:09:22Z</time>
      </trkpt>
      <trkpt lat="46.00263" lon="4.79721">
        <ele>257</ele>
        <time>2016-10-04T11:09:23Z</time>
      </trkpt>
      <trkpt lat="46.00258" lon="4.79723">
        <ele>257</ele>
        <time>2016-10-04T11:09:24Z</time>
      </trkpt>
      <trkpt lat="46.00254" lon="4.79727">
        <ele>257</ele>
        <time>2016-10-04T11:09:25Z</time>
      </trkpt>
      <trkpt lat="46.00249" lon="4.7973">
        <ele>257</ele>
        <time>2016-10-04T11:09:26Z</time>
      </trkpt>
      <trkpt lat="46.00244" lon="4.79733">
        <ele>257</ele>
        <time>2016-10-04T11:09:27Z</time>
      </trkpt>
      <trkpt lat="46.00239" lon="4.79736">
        <ele>257</ele>
        <time>2016-10-04T11:09:28Z</time>
      </trkpt>
      <trkpt lat="46.00234" lon="4.79739">
        <ele>257</ele>
        <time>2016-10-04T11:09:29Z</time>
      </trkpt>
      <trkpt lat="46.00229" lon="4.79742">
        <ele>257</ele>
        <time>2016-10-04T11:09:30Z</time>
      </trkpt>
      <trkpt lat="46.00224" lon="4.79744">
        <ele>257</ele>
        <time>2016-10-04T11:09:31Z</time>
      </trkpt>
      <trkpt lat="46.00219" lon="4.79747">
        <ele>257</ele>
        <time>2016-10-04T11:09:32Z</time>
      </trkpt>
      <trkpt lat="46.00213" lon="4.79749">
        <ele>256</ele>
        <time>2016-10-04T11:09:33Z</time>
      </trkpt>
      <trkpt lat="46.00207" lon="4.79751">
        <ele>258</ele>
        <time>2016-10-04T11:09:34Z</time>
      </trkpt>
      <trkpt lat="46.00202" lon="4.79753">
        <ele>258</ele>
        <time>2016-10-04T11:09:35Z</time>
      </trkpt>
      <trkpt lat="46.00196" lon="4.79755">
        <ele>258</ele>
        <time>2016-10-04T11:09:36Z</time>
      </trkpt>
      <trkpt lat="46.0019" lon="4.79757">
        <ele>257</ele>
        <time>2016-10-04T11:09:37Z</time>
      </trkpt>
      <trkpt lat="46.00184" lon="4.79759">
        <ele>257</ele>
        <time>2016-10-04T11:09:38Z</time>
      </trkpt>
      <trkpt lat="46.00177" lon="4.79759">
        <ele>257</ele>
        <time>2016-10-04T11:09:39Z</time>
      </trkpt>
      <trkpt lat="46.00171" lon="4.79761">
        <ele>257</ele>
        <time>2016-10-04T11:09:40Z</time>
      </trkpt>
      <trkpt lat="46.00165" lon="4.79762">
        <ele>256</ele>
        <time>2016-10-04T11:09:41Z</time>
      </trkpt>
      <trkpt lat="46.00159" lon="4.79764">
        <ele>256</ele>
        <time>2016-10-04T11:09:42Z</time>
      </trkpt>
      <trkpt lat="46.00153" lon="4.79765">
        <ele>257</ele>
        <time>2016-10-04T11:09:43Z</time>
      </trkpt>
      <trkpt lat="46.00147" lon="4.79767">
        <ele>257</ele>
        <time>2016-10-04T11:09:44Z</time>
      </trkpt>
      <trkpt lat="46.00141" lon="4.79769">
        <ele>257</ele>
        <time>2016-10-04T11:09:45Z</time>
      </trkpt>
      <trkpt lat="46.00135" lon="4.7977">
        <ele>257</ele>
        <time>2016-10-04T11:09:46Z</time>
      </trkpt>
      <trkpt lat="46.00129" lon="4.7977">
        <ele>257</ele>
        <time>2016-10-04T11:09:47Z</time>
      </trkpt>
      <trkpt lat="46.00123" lon="4.7977">
        <ele>257</ele>
        <time>2016-10-04T11:09:48Z</time>
      </trkpt>
      <trkpt lat="46.00117" lon="4.79771">
        <ele>257</ele>
        <time>2016-10-04T11:09:49Z</time>
      </trkpt>
      <trkpt lat="46.00111" lon="4.79772">
        <ele>257</ele>
        <time>2016-10-04T11:09:50Z</time>
      </trkpt>
      <trkpt lat="46.00105" lon="4.79773">
        <ele>256</ele>
        <time>2016-10-04T11:09:51Z</time>
      </trkpt>
      <trkpt lat="46.00099" lon="4.79774">
        <ele>256</ele>
        <time>2016-10-04T11:09:52Z</time>
      </trkpt>
      <trkpt lat="46.00093" lon="4.79773">
        <ele>256</ele>
        <time>2016-10-04T11:09:53Z</time>
      </trkpt>
      <trkpt lat="46.00087" lon="4.79772">
        <ele>256</ele>
        <time>2016-10-04T11:09:54Z</time>
      </trkpt>
      <trkpt lat="46.0008" lon="4.79772">
        <ele>256</ele>
        <time>2016-10-04T11:09:55Z</time>
      </trkpt>
      <trkpt lat="46.00074" lon="4.79773">
        <ele>256</ele>
        <time>2016-10-04T11:09:56Z</time>
      </trkpt>
      <trkpt lat="46.00068" lon="4.79773">
        <ele>256</ele>
        <time>2016-10-04T11:09:57Z</time>
      </trkpt>
      <trkpt lat="46.00062" lon="4.79773">
        <ele>256</ele>
        <time>2016-10-04T11:09:58Z</time>
      </trkpt>
      <trkpt lat="46.00056" lon="4.79773">
        <ele>257</ele>
        <time>2016-10-04T11:09:59Z</time>
      </trkpt>
      <trkpt lat="46.0005" lon="4.79773">
        <ele>257</ele>
        <time>2016-10-04T11:10:00Z</time>
      </trkpt>
      <trkpt lat="46.00044" lon="4.79773">
        <ele>257</ele>
        <time>2016-10-04T11:10:01Z</time>
      </trkpt>
      <trkpt lat="46.00038" lon="4.79773">
        <ele>257</ele>
        <time>2016-10-04T11:10:02Z</time>
      </trkpt>
      <trkpt lat="46.00032" lon="4.79772">
        <ele>257</ele>
        <time>2016-10-04T11:10:03Z</time>
      </trkpt>
      <trkpt lat="46.00026" lon="4.79772">
        <ele>257</ele>
        <time>2016-10-04T11:10:04Z</time>
      </trkpt>
      <trkpt lat="46.00019" lon="4.79772">
        <ele>257</ele>
        <time>2016-10-04T11:10:05Z</time>
      </trkpt>
      <trkpt lat="46.00013" lon="4.79771">
        <ele>257</ele>
        <time>2016-10-04T11:10:06Z</time>
      </trkpt>
      <trkpt lat="46.00006" lon="4.79771">
        <ele>257</ele>
        <time>2016-10-04T11:10:07Z</time>
      </trkpt>
      <trkpt lat="45.99999" lon="4.79771">
        <ele>257</ele>
        <time>2016-10-04T11:10:08Z</time>
      </trkpt>
      <trkpt lat="45.99992" lon="4.7977">
        <ele>257</ele>
        <time>2016-10-04T11:10:09Z</time>
      </trkpt>
      <trkpt lat="45.99986" lon="4.79769">
        <ele>257</ele>
        <time>2016-10-04T11:10:10Z</time>
      </trkpt>
      <trkpt lat="45.99979" lon="4.79769">
        <ele>257</ele>
        <time>2016-10-04T11:10:11Z</time>
      </trkpt>
      <trkpt lat="45.99972" lon="4.79769">
        <ele>257</ele>
        <time>2016-10-04T11:10:12Z</time>
      </trkpt>
      <trkpt lat="45.99965" lon="4.79769">
        <ele>256</ele>
        <time>2016-10-04T11:10:13Z</time>
      </trkpt>
      <trkpt lat="45.99957" lon="4.79768">
        <ele>256</ele>
        <time>2016-10-04T11:10:14Z</time>
      </trkpt>
      <trkpt lat="45.9995" lon="4.79768">
        <ele>256</ele>
        <time>2016-10-04T11:10:15Z</time>
      </trkpt>
      <trkpt lat="45.99943" lon="4.79767">
        <ele>256</ele>
        <time>2016-10-04T11:10:16Z</time>
      </trkpt>
      <trkpt lat="45.99936" lon="4.79767">
        <ele>256</ele>
        <time>2016-10-04T11:10:17Z</time>
      </trkpt>
      <trkpt lat="45.99928" lon="4.79767">
        <ele>256</ele>
        <time>2016-10-04T11:10:18Z</time>
      </trkpt>
      <trkpt lat="45.99921" lon="4.79767">
        <ele>256</ele>
        <time>2016-10-04T11:10:19Z</time>
      </trkpt>
      <trkpt lat="45.99914" lon="4.79766">
        <ele>255</ele>
        <time>2016-10-04T11:10:20Z</time>
      </trkpt>
      <trkpt lat="45.99907" lon="4.79766">
        <ele>255</ele>
        <time>2016-10-04T11:10:21Z</time>
      </trkpt>
      <trkpt lat="45.999" lon="4.79766">
        <ele>255</ele>
        <time>2016-10-04T11:10:22Z</time>
      </trkpt>
      <trkpt lat="45.99894" lon="4.79766">
        <ele>255</ele>
        <time>2016-10-04T11:10:23Z</time>
      </trkpt>
      <trkpt lat="45.99887" lon="4.79764">
        <ele>255</ele>
        <time>2016-10-04T11:10:24Z</time>
      </trkpt>
      <trkpt lat="45.9988" lon="4.79764">
        <ele>255</ele>
        <time>2016-10-04T11:10:25Z</time>
      </trkpt>
      <trkpt lat="45.99873" lon="4.79765">
        <ele>255</ele>
        <time>2016-10-04T11:10:26Z</time>
      </trkpt>
      <trkpt lat="45.99866" lon="4.79764">
        <ele>255</ele>
        <time>2016-10-04T11:10:27Z</time>
      </trkpt>
      <trkpt lat="45.9986" lon="4.79764">
        <ele>255</ele>
        <time>2016-10-04T11:10:28Z</time>
      </trkpt>
      <trkpt lat="45.99853" lon="4.79764">
        <ele>255</ele>
        <time>2016-10-04T11:10:29Z</time>
      </trkpt>
      <trkpt lat="45.99846" lon="4.79764">
        <ele>254</ele>
        <time>2016-10-04T11:10:30Z</time>
      </trkpt>
      <trkpt lat="45.99839" lon="4.79763">
        <ele>254</ele>
        <time>2016-10-04T11:10:31Z</time>
      </trkpt>
      <trkpt lat="45.99832" lon="4.79763">
        <ele>254</ele>
        <time>2016-10-04T11:10:32Z</time>
      </trkpt>
      <trkpt lat="45.99825" lon="4.79762">
        <ele>254</ele>
        <time>2016-10-04T11:10:33Z</time>
      </trkpt>
      <trkpt lat="45.99818" lon="4.79762">
        <ele>254</ele>
        <time>2016-10-04T11:10:34Z</time>
      </trkpt>
      <trkpt lat="45.99811" lon="4.79761">
        <ele>254</ele>
        <time>2016-10-04T11:10:35Z</time>
      </trkpt>
      <trkpt lat="45.99804" lon="4.7976">
        <ele>254</ele>
        <time>2016-10-04T11:10:36Z</time>
      </trkpt>
      <trkpt lat="45.99798" lon="4.79759">
        <ele>254</ele>
        <time>2016-10-04T11:10:37Z</time>
      </trkpt>
      <trkpt lat="45.99792" lon="4.79759">
        <ele>254</ele>
        <time>2016-10-04T11:10:38Z</time>
      </trkpt>
      <trkpt lat="45.99785" lon="4.79758">
        <ele>254</ele>
        <time>2016-10-04T11:10:39Z</time>
      </trkpt>
      <trkpt lat="45.99779" lon="4.79756">
        <ele>254</ele>
        <time>2016-10-04T11:10:40Z</time>
      </trkpt>
      <trkpt lat="45.99772" lon="4.79755">
        <ele>254</ele>
        <time>2016-10-04T11:10:41Z</time>
      </trkpt>
      <trkpt lat="45.99766" lon="4.79754">
        <ele>254</ele>
        <time>2016-10-04T11:10:42Z</time>
      </trkpt>
      <trkpt lat="45.99759" lon="4.79753">
        <ele>253</ele>
        <time>2016-10-04T11:10:43Z</time>
      </trkpt>
      <trkpt lat="45.99753" lon="4.79752">
        <ele>253</ele>
        <time>2016-10-04T11:10:44Z</time>
      </trkpt>
      <trkpt lat="45.99746" lon="4.7975">
        <ele>253</ele>
        <time>2016-10-04T11:10:45Z</time>
      </trkpt>
      <trkpt lat="45.99739" lon="4.79749">
        <ele>253</ele>
        <time>2016-10-04T11:10:46Z</time>
      </trkpt>
      <trkpt lat="45.99733" lon="4.79748">
        <ele>253</ele>
        <time>2016-10-04T11:10:47Z</time>
      </trkpt>
      <trkpt lat="45.99727" lon="4.79746">
        <ele>253</ele>
        <time>2016-10-04T11:10:48Z</time>
      </trkpt>
      <trkpt lat="45.9972" lon="4.79745">
        <ele>253</ele>
        <time>2016-10-04T11:10:49Z</time>
      </trkpt>
      <trkpt lat="45.99714" lon="4.79743">
        <ele>253</ele>
        <time>2016-10-04T11:10:50Z</time>
      </trkpt>
      <trkpt lat="45.99708" lon="4.79742">
        <ele>253</ele>
        <time>2016-10-04T11:10:51Z</time>
      </trkpt>
      <trkpt lat="45.99702" lon="4.79741">
        <ele>253</ele>
        <time>2016-10-04T11:10:52Z</time>
      </trkpt>
      <trkpt lat="45.99696" lon="4.7974">
        <ele>253</ele>
        <time>2016-10-04T11:10:53Z</time>
      </trkpt>
      <trkpt lat="45.9969" lon="4.79738">
        <ele>253</ele>
        <time>2016-10-04T11:10:54Z</time>
      </trkpt>
      <trkpt lat="45.99683" lon="4.79738">
        <ele>253</ele>
        <time>2016-10-04T11:10:55Z</time>
      </trkpt>
      <trkpt lat="45.99676" lon="4.79738">
        <ele>254</ele>
        <time>2016-10-04T11:10:56Z</time>
      </trkpt>
      <trkpt lat="45.9967" lon="4.79737">
        <ele>254</ele>
        <time>2016-10-04T11:10:57Z</time>
      </trkpt>
      <trkpt lat="45.99663" lon="4.79736">
        <ele>254</ele>
        <time>2016-10-04T11:10:58Z</time>
      </trkpt>
      <trkpt lat="45.99656" lon="4.79736">
        <ele>254</ele>
        <time>2016-10-04T11:10:59Z</time>
      </trkpt>
      <trkpt lat="45.99649" lon="4.79735">
        <ele>254</ele>
        <time>2016-10-04T11:11:00Z</time>
      </trkpt>
      <trkpt lat="45.99642" lon="4.79734">
        <ele>254</ele>
        <time>2016-10-04T11:11:01Z</time>
      </trkpt>
      <trkpt lat="45.99636" lon="4.79733">
        <ele>254</ele>
        <time>2016-10-04T11:11:02Z</time>
      </trkpt>
      <trkpt lat="45.99629" lon="4.79732">
        <ele>254</ele>
        <time>2016-10-04T11:11:03Z</time>
      </trkpt>
      <trkpt lat="45.99622" lon="4.79731">
        <ele>254</ele>
        <time>2016-10-04T11:11:04Z</time>
      </trkpt>
      <trkpt lat="45.99615" lon="4.79731">
        <ele>254</ele>
        <time>2016-10-04T11:11:05Z</time>
      </trkpt>
      <trkpt lat="45.99608" lon="4.7973">
        <ele>254</ele>
        <time>2016-10-04T11:11:06Z</time>
      </trkpt>
      <trkpt lat="45.99601" lon="4.7973">
        <ele>254</ele>
        <time>2016-10-04T11:11:07Z</time>
      </trkpt>
      <trkpt lat="45.99594" lon="4.7973">
        <ele>254</ele>
        <time>2016-10-04T11:11:08Z</time>
      </trkpt>
      <trkpt lat="45.99588" lon="4.7973">
        <ele>254</ele>
        <time>2016-10-04T11:11:09Z</time>
      </trkpt>
      <trkpt lat="45.99581" lon="4.79728">
        <ele>253</ele>
        <time>2016-10-04T11:11:10Z</time>
      </trkpt>
      <trkpt lat="45.99574" lon="4.79729">
        <ele>253</ele>
        <time>2016-10-04T11:11:11Z</time>
      </trkpt>
      <trkpt lat="45.99568" lon="4.79729">
        <ele>253</ele>
        <time>2016-10-04T11:11:12Z</time>
      </trkpt>
      <trkpt lat="45.99561" lon="4.79729">
        <ele>253</ele>
        <time>2016-10-04T11:11:13Z</time>
      </trkpt>
      <trkpt lat="45.99555" lon="4.79729">
        <ele>253</ele>
        <time>2016-10-04T11:11:14Z</time>
      </trkpt>
      <trkpt lat="45.99548" lon="4.7973">
        <ele>253</ele>
        <time>2016-10-04T11:11:15Z</time>
      </trkpt>
      <trkpt lat="45.99541" lon="4.7973">
        <ele>253</ele>
        <time>2016-10-04T11:11:16Z</time>
      </trkpt>
      <trkpt lat="45.99534" lon="4.79731">
        <ele>253</ele>
        <time>2016-10-04T11:11:17Z</time>
      </trkpt>
      <trkpt lat="45.99528" lon="4.79731">
        <ele>253</ele>
        <time>2016-10-04T11:11:18Z</time>
      </trkpt>
      <trkpt lat="45.99521" lon="4.7973">
        <ele>253</ele>
        <time>2016-10-04T11:11:19Z</time>
      </trkpt>
      <trkpt lat="45.99514" lon="4.79731">
        <ele>252</ele>
        <time>2016-10-04T11:11:20Z</time>
      </trkpt>
      <trkpt lat="45.99508" lon="4.79732">
        <ele>252</ele>
        <time>2016-10-04T11:11:21Z</time>
      </trkpt>
      <trkpt lat="45.99501" lon="4.79732">
        <ele>252</ele>
        <time>2016-10-04T11:11:22Z</time>
      </trkpt>
      <trkpt lat="45.99495" lon="4.79732">
        <ele>252</ele>
        <time>2016-10-04T11:11:23Z</time>
      </trkpt>
      <trkpt lat="45.99488" lon="4.79732">
        <ele>252</ele>
        <time>2016-10-04T11:11:24Z</time>
      </trkpt>
      <trkpt lat="45.99482" lon="4.79732">
        <ele>252</ele>
        <time>2016-10-04T11:11:25Z</time>
      </trkpt>
      <trkpt lat="45.99476" lon="4.79733">
        <ele>252</ele>
        <time>2016-10-04T11:11:26Z</time>
      </trkpt>
      <trkpt lat="45.99469" lon="4.79733">
        <ele>252</ele>
        <time>2016-10-04T11:11:27Z</time>
      </trkpt>
      <trkpt lat="45.99463" lon="4.79733">
        <ele>252</ele>
        <time>2016-10-04T11:11:28Z</time>
      </trkpt>
      <trkpt lat="45.99457" lon="4.79733">
        <ele>252</ele>
        <time>2016-10-04T11:11:29Z</time>
      </trkpt>
      <trkpt lat="45.9945" lon="4.79733">
        <ele>252</ele>
        <time>2016-10-04T11:11:30Z</time>
      </trkpt>
      <trkpt lat="45.99443" lon="4.79734">
        <ele>252</ele>
        <time>2016-10-04T11:11:31Z</time>
      </trkpt>
      <trkpt lat="45.99436" lon="4.79734">
        <ele>252</ele>
        <time>2016-10-04T11:11:32Z</time>
      </trkpt>
      <trkpt lat="45.99428" lon="4.79734">
        <ele>252</ele>
        <time>2016-10-04T11:11:33Z</time>
      </trkpt>
      <trkpt lat="45.99421" lon="4.79733">
        <ele>252</ele>
        <time>2016-10-04T11:11:34Z</time>
      </trkpt>
      <trkpt lat="45.99414" lon="4.79734">
        <ele>251</ele>
        <time>2016-10-04T11:11:35Z</time>
      </trkpt>
      <trkpt lat="45.99407" lon="4.79735">
        <ele>251</ele>
        <time>2016-10-04T11:11:36Z</time>
      </trkpt>
      <trkpt lat="45.994" lon="4.79735">
        <ele>251</ele>
        <time>2016-10-04T11:11:37Z</time>
      </trkpt>
      <trkpt lat="45.99393" lon="4.79736">
        <ele>251</ele>
        <time>2016-10-04T11:11:38Z</time>
      </trkpt>
      <trkpt lat="45.99387" lon="4.79736">
        <ele>251</ele>
        <time>2016-10-04T11:11:39Z</time>
      </trkpt>
      <trkpt lat="45.9938" lon="4.79736">
        <ele>251</ele>
        <time>2016-10-04T11:11:40Z</time>
      </trkpt>
      <trkpt lat="45.99373" lon="4.79736">
        <ele>251</ele>
        <time>2016-10-04T11:11:41Z</time>
      </trkpt>
      <trkpt lat="45.99366" lon="4.79736">
        <ele>251</ele>
        <time>2016-10-04T11:11:42Z</time>
      </trkpt>
      <trkpt lat="45.99359" lon="4.79736">
        <ele>251</ele>
        <time>2016-10-04T11:11:43Z</time>
      </trkpt>
      <trkpt lat="45.99353" lon="4.79736">
        <ele>251</ele>
        <time>2016-10-04T11:11:44Z</time>
      </trkpt>
      <trkpt lat="45.99346" lon="4.79736">
        <ele>250</ele>
        <time>2016-10-04T11:11:45Z</time>
      </trkpt>
      <trkpt lat="45.99339" lon="4.79736">
        <ele>250</ele>
        <time>2016-10-04T11:11:46Z</time>
      </trkpt>
      <trkpt lat="45.99332" lon="4.79736">
        <ele>250</ele>
        <time>2016-10-04T11:11:47Z</time>
      </trkpt>
      <trkpt lat="45.99325" lon="4.79736">
        <ele>250</ele>
        <time>2016-10-04T11:11:48Z</time>
      </trkpt>
      <trkpt lat="45.99317" lon="4.79736">
        <ele>249</ele>
        <time>2016-10-04T11:11:49Z</time>
      </trkpt>
      <trkpt lat="45.9931" lon="4.79736">
        <ele>249</ele>
        <time>2016-10-04T11:11:50Z</time>
      </trkpt>
      <trkpt lat="45.99303" lon="4.79737">
        <ele>249</ele>
        <time>2016-10-04T11:11:51Z</time>
      </trkpt>
      <trkpt lat="45.99295" lon="4.79737">
        <ele>249</ele>
        <time>2016-10-04T11:11:52Z</time>
      </trkpt>
      <trkpt lat="45.99288" lon="4.79737">
        <ele>249</ele>
        <time>2016-10-04T11:11:53Z</time>
      </trkpt>
      <trkpt lat="45.9928" lon="4.79737">
        <ele>249</ele>
        <time>2016-10-04T11:11:54Z</time>
      </trkpt>
      <trkpt lat="45.99273" lon="4.79737">
        <ele>249</ele>
        <time>2016-10-04T11:11:55Z</time>
      </trkpt>
      <trkpt lat="45.99265" lon="4.79737">
        <ele>249</ele>
        <time>2016-10-04T11:11:56Z</time>
      </trkpt>
      <trkpt lat="45.99258" lon="4.79737">
        <ele>248</ele>
        <time>2016-10-04T11:11:57Z</time>
      </trkpt>
      <trkpt lat="45.99251" lon="4.79737">
        <ele>248</ele>
        <time>2016-10-04T11:11:58Z</time>
      </trkpt>
      <trkpt lat="45.99244" lon="4.79737">
        <ele>248</ele>
        <time>2016-10-04T11:11:59Z</time>
      </trkpt>
      <trkpt lat="45.99237" lon="4.79737">
        <ele>248</ele>
        <time>2016-10-04T11:12:00Z</time>
      </trkpt>
      <trkpt lat="45.99231" lon="4.79737">
        <ele>248</ele>
        <time>2016-10-04T11:12:01Z</time>
      </trkpt>
      <trkpt lat="45.99224" lon="4.79738">
        <ele>248</ele>
        <time>2016-10-04T11:12:02Z</time>
      </trkpt>
      <trkpt lat="45.99218" lon="4.79738">
        <ele>248</ele>
        <time>2016-10-04T11:12:03Z</time>
      </trkpt>
      <trkpt lat="45.99211" lon="4.79737">
        <ele>248</ele>
        <time>2016-10-04T11:12:04Z</time>
      </trkpt>
      <trkpt lat="45.99205" lon="4.79737">
        <ele>249</ele>
        <time>2016-10-04T11:12:05Z</time>
      </trkpt>
      <trkpt lat="45.99199" lon="4.79738">
        <ele>249</ele>
        <time>2016-10-04T11:12:06Z</time>
      </trkpt>
      <trkpt lat="45.99192" lon="4.79738">
        <ele>249</ele>
        <time>2016-10-04T11:12:07Z</time>
      </trkpt>
      <trkpt lat="45.99185" lon="4.79739">
        <ele>249</ele>
        <time>2016-10-04T11:12:08Z</time>
      </trkpt>
      <trkpt lat="45.99178" lon="4.79739">
        <ele>249</ele>
        <time>2016-10-04T11:12:09Z</time>
      </trkpt>
      <trkpt lat="45.99171" lon="4.79739">
        <ele>249</ele>
        <time>2016-10-04T11:12:10Z</time>
      </trkpt>
      <trkpt lat="45.99164" lon="4.79739">
        <ele>249</ele>
        <time>2016-10-04T11:12:11Z</time>
      </trkpt>
      <trkpt lat="45.99156" lon="4.79739">
        <ele>249</ele>
        <time>2016-10-04T11:12:12Z</time>
      </trkpt>
      <trkpt lat="45.99149" lon="4.79739">
        <ele>249</ele>
        <time>2016-10-04T11:12:13Z</time>
      </trkpt>
      <trkpt lat="45.99143" lon="4.79739">
        <ele>249</ele>
        <time>2016-10-04T11:12:14Z</time>
      </trkpt>
      <trkpt lat="45.99136" lon="4.79739">
        <ele>248</ele>
        <time>2016-10-04T11:12:15Z</time>
      </trkpt>
      <trkpt lat="45.9913" lon="4.79738">
        <ele>248</ele>
        <time>2016-10-04T11:12:16Z</time>
      </trkpt>
      <trkpt lat="45.99123" lon="4.79738">
        <ele>248</ele>
        <time>2016-10-04T11:12:17Z</time>
      </trkpt>
      <trkpt lat="45.99116" lon="4.79738">
        <ele>248</ele>
        <time>2016-10-04T11:12:18Z</time>
      </trkpt>
      <trkpt lat="45.99111" lon="4.79738">
        <ele>248</ele>
        <time>2016-10-04T11:12:19Z</time>
      </trkpt>
      <trkpt lat="45.99104" lon="4.79738">
        <ele>248</ele>
        <time>2016-10-04T11:12:20Z</time>
      </trkpt>
      <trkpt lat="45.99097" lon="4.79739">
        <ele>248</ele>
        <time>2016-10-04T11:12:21Z</time>
      </trkpt>
      <trkpt lat="45.99089" lon="4.79738">
        <ele>248</ele>
        <time>2016-10-04T11:12:22Z</time>
      </trkpt>
      <trkpt lat="45.99082" lon="4.79738">
        <ele>247</ele>
        <time>2016-10-04T11:12:23Z</time>
      </trkpt>
      <trkpt lat="45.99074" lon="4.79737">
        <ele>247</ele>
        <time>2016-10-04T11:12:24Z</time>
      </trkpt>
      <trkpt lat="45.99066" lon="4.79737">
        <ele>247</ele>
        <time>2016-10-04T11:12:25Z</time>
      </trkpt>
      <trkpt lat="45.99058" lon="4.79737">
        <ele>247</ele>
        <time>2016-10-04T11:12:26Z</time>
      </trkpt>
      <trkpt lat="45.99051" lon="4.79736">
        <ele>248</ele>
        <time>2016-10-04T11:12:27Z</time>
      </trkpt>
      <trkpt lat="45.99043" lon="4.79735">
        <ele>248</ele>
        <time>2016-10-04T11:12:28Z</time>
      </trkpt>
      <trkpt lat="45.99036" lon="4.79735">
        <ele>248</ele>
        <time>2016-10-04T11:12:29Z</time>
      </trkpt>
      <trkpt lat="45.99028" lon="4.79734">
        <ele>247</ele>
        <time>2016-10-04T11:12:30Z</time>
      </trkpt>
      <trkpt lat="45.9902" lon="4.79734">
        <ele>247</ele>
        <time>2016-10-04T11:12:31Z</time>
      </trkpt>
      <trkpt lat="45.99013" lon="4.79733">
        <ele>247</ele>
        <time>2016-10-04T11:12:32Z</time>
      </trkpt>
      <trkpt lat="45.99006" lon="4.79733">
        <ele>247</ele>
        <time>2016-10-04T11:12:33Z</time>
      </trkpt>
      <trkpt lat="45.98999" lon="4.79732">
        <ele>247</ele>
        <time>2016-10-04T11:12:34Z</time>
      </trkpt>
      <trkpt lat="45.98992" lon="4.79731">
        <ele>247</ele>
        <time>2016-10-04T11:12:35Z</time>
      </trkpt>
      <trkpt lat="45.98986" lon="4.79731">
        <ele>247</ele>
        <time>2016-10-04T11:12:36Z</time>
      </trkpt>
      <trkpt lat="45.98979" lon="4.79731">
        <ele>247</ele>
        <time>2016-10-04T11:12:37Z</time>
      </trkpt>
      <trkpt lat="45.98971" lon="4.79731">
        <ele>247</ele>
        <time>2016-10-04T11:12:38Z</time>
      </trkpt>
      <trkpt lat="45.98964" lon="4.79731">
        <ele>247</ele>
        <time>2016-10-04T11:12:39Z</time>
      </trkpt>
      <trkpt lat="45.98957" lon="4.79731">
        <ele>247</ele>
        <time>2016-10-04T11:12:40Z</time>
      </trkpt>
      <trkpt lat="45.9895" lon="4.79731">
        <ele>247</ele>
        <time>2016-10-04T11:12:41Z</time>
      </trkpt>
      <trkpt lat="45.98943" lon="4.79731">
        <ele>247</ele>
        <time>2016-10-04T11:12:42Z</time>
      </trkpt>
      <trkpt lat="45.98935" lon="4.79731">
        <ele>247</ele>
        <time>2016-10-04T11:12:43Z</time>
      </trkpt>
      <trkpt lat="45.98929" lon="4.7973">
        <ele>247</ele>
        <time>2016-10-04T11:12:44Z</time>
      </trkpt>
      <trkpt lat="45.98922" lon="4.79729">
        <ele>247</ele>
        <time>2016-10-04T11:12:45Z</time>
      </trkpt>
      <trkpt lat="45.98915" lon="4.79729">
        <ele>247</ele>
        <time>2016-10-04T11:12:46Z</time>
      </trkpt>
      <trkpt lat="45.98908" lon="4.79729">
        <ele>247</ele>
        <time>2016-10-04T11:12:47Z</time>
      </trkpt>
      <trkpt lat="45.98901" lon="4.79728">
        <ele>247</ele>
        <time>2016-10-04T11:12:48Z</time>
      </trkpt>
      <trkpt lat="45.98893" lon="4.79727">
        <ele>247</ele>
        <time>2016-10-04T11:12:49Z</time>
      </trkpt>
      <trkpt lat="45.98887" lon="4.79726">
        <ele>247</ele>
        <time>2016-10-04T11:12:50Z</time>
      </trkpt>
      <trkpt lat="45.9888" lon="4.79725">
        <ele>247</ele>
        <time>2016-10-04T11:12:51Z</time>
      </trkpt>
      <trkpt lat="45.98873" lon="4.79725">
        <ele>247</ele>
        <time>2016-10-04T11:12:52Z</time>
      </trkpt>
      <trkpt lat="45.98865" lon="4.79724">
        <ele>247</ele>
        <time>2016-10-04T11:12:53Z</time>
      </trkpt>
      <trkpt lat="45.98859" lon="4.79722">
        <ele>247</ele>
        <time>2016-10-04T11:12:54Z</time>
      </trkpt>
      <trkpt lat="45.98852" lon="4.7972">
        <ele>247</ele>
        <time>2016-10-04T11:12:55Z</time>
      </trkpt>
      <trkpt lat="45.98844" lon="4.79718">
        <ele>247</ele>
        <time>2016-10-04T11:12:56Z</time>
      </trkpt>
      <trkpt lat="45.98838" lon="4.79715">
        <ele>247</ele>
        <time>2016-10-04T11:12:57Z</time>
      </trkpt>
      <trkpt lat="45.98832" lon="4.79713">
        <ele>246</ele>
        <time>2016-10-04T11:12:58Z</time>
      </trkpt>
      <trkpt lat="45.98825" lon="4.79709">
        <ele>246</ele>
        <time>2016-10-04T11:12:59Z</time>
      </trkpt>
      <trkpt lat="45.98818" lon="4.79705">
        <ele>247</ele>
        <time>2016-10-04T11:13:00Z</time>
      </trkpt>
      <trkpt lat="45.98811" lon="4.79701">
        <ele>247</ele>
        <time>2016-10-04T11:13:01Z</time>
      </trkpt>
      <trkpt lat="45.98804" lon="4.79697">
        <ele>246</ele>
        <time>2016-10-04T11:13:02Z</time>
      </trkpt>
      <trkpt lat="45.98798" lon="4.79692">
        <ele>246</ele>
        <time>2016-10-04T11:13:03Z</time>
      </trkpt>
      <trkpt lat="45.98791" lon="4.79687">
        <ele>246</ele>
        <time>2016-10-04T11:13:04Z</time>
      </trkpt>
      <trkpt lat="45.98786" lon="4.7968">
        <ele>246</ele>
        <time>2016-10-04T11:13:05Z</time>
      </trkpt>
      <trkpt lat="45.98779" lon="4.79674">
        <ele>246</ele>
        <time>2016-10-04T11:13:06Z</time>
      </trkpt>
      <trkpt lat="45.98773" lon="4.79669">
        <ele>246</ele>
        <time>2016-10-04T11:13:07Z</time>
      </trkpt>
      <trkpt lat="45.98767" lon="4.79663">
        <ele>246</ele>
        <time>2016-10-04T11:13:08Z</time>
      </trkpt>
      <trkpt lat="45.98761" lon="4.79657">
        <ele>246</ele>
        <time>2016-10-04T11:13:09Z</time>
      </trkpt>
      <trkpt lat="45.98755" lon="4.79651">
        <ele>246</ele>
        <time>2016-10-04T11:13:10Z</time>
      </trkpt>
      <trkpt lat="45.9875" lon="4.79645">
        <ele>246</ele>
        <time>2016-10-04T11:13:11Z</time>
      </trkpt>
      <trkpt lat="45.98745" lon="4.79638">
        <ele>246</ele>
        <time>2016-10-04T11:13:12Z</time>
      </trkpt>
      <trkpt lat="45.9874" lon="4.79631">
        <ele>246</ele>
        <time>2016-10-04T11:13:13Z</time>
      </trkpt>
      <trkpt lat="45.98736" lon="4.79625">
        <ele>245</ele>
        <time>2016-10-04T11:13:14Z</time>
      </trkpt>
      <trkpt lat="45.98731" lon="4.79618">
        <ele>245</ele>
        <time>2016-10-04T11:13:15Z</time>
      </trkpt>
      <trkpt lat="45.98727" lon="4.79612">
        <ele>245</ele>
        <time>2016-10-04T11:13:16Z</time>
      </trkpt>
      <trkpt lat="45.98721" lon="4.79606">
        <ele>245</ele>
        <time>2016-10-04T11:13:17Z</time>
      </trkpt>
      <trkpt lat="45.98715" lon="4.79601">
        <ele>245</ele>
        <time>2016-10-04T11:13:18Z</time>
      </trkpt>
      <trkpt lat="45.98709" lon="4.79596">
        <ele>245</ele>
        <time>2016-10-04T11:13:19Z</time>
      </trkpt>
      <trkpt lat="45.98703" lon="4.79589">
        <ele>246</ele>
        <time>2016-10-04T11:13:20Z</time>
      </trkpt>
      <trkpt lat="45.98697" lon="4.79586">
        <ele>246</ele>
        <time>2016-10-04T11:13:21Z</time>
      </trkpt>
      <trkpt lat="45.9869" lon="4.79584">
        <ele>246</ele>
        <time>2016-10-04T11:13:22Z</time>
      </trkpt>
      <trkpt lat="45.98683" lon="4.79583">
        <ele>246</ele>
        <time>2016-10-04T11:13:23Z</time>
      </trkpt>
      <trkpt lat="45.98676" lon="4.79583">
        <ele>246</ele>
        <time>2016-10-04T11:13:24Z</time>
      </trkpt>
      <trkpt lat="45.98668" lon="4.79584">
        <ele>246</ele>
        <time>2016-10-04T11:13:25Z</time>
      </trkpt>
      <trkpt lat="45.98661" lon="4.79584">
        <ele>246</ele>
        <time>2016-10-04T11:13:26Z</time>
      </trkpt>
      <trkpt lat="45.98655" lon="4.79585">
        <ele>246</ele>
        <time>2016-10-04T11:13:27Z</time>
      </trkpt>
      <trkpt lat="45.98649" lon="4.79587">
        <ele>246</ele>
        <time>2016-10-04T11:13:28Z</time>
      </trkpt>
      <trkpt lat="45.98643" lon="4.79588">
        <ele>246</ele>
        <time>2016-10-04T11:13:29Z</time>
      </trkpt>
      <trkpt lat="45.98637" lon="4.79589">
        <ele>245</ele>
        <time>2016-10-04T11:13:30Z</time>
      </trkpt>
      <trkpt lat="45.98631" lon="4.79589">
        <ele>245</ele>
        <time>2016-10-04T11:13:31Z</time>
      </trkpt>
      <trkpt lat="45.98626" lon="4.79587">
        <ele>245</ele>
        <time>2016-10-04T11:13:32Z</time>
      </trkpt>
      <trkpt lat="45.9862" lon="4.79585">
        <ele>245</ele>
        <time>2016-10-04T11:13:33Z</time>
      </trkpt>
      <trkpt lat="45.98613" lon="4.79585">
        <ele>245</ele>
        <time>2016-10-04T11:13:34Z</time>
      </trkpt>
      <trkpt lat="45.98606" lon="4.79585">
        <ele>245</ele>
        <time>2016-10-04T11:13:35Z</time>
      </trkpt>
      <trkpt lat="45.986" lon="4.79587">
        <ele>245</ele>
        <time>2016-10-04T11:13:36Z</time>
      </trkpt>
      <trkpt lat="45.98593" lon="4.79589">
        <ele>245</ele>
        <time>2016-10-04T11:13:37Z</time>
      </trkpt>
      <trkpt lat="45.98586" lon="4.79588">
        <ele>245</ele>
        <time>2016-10-04T11:13:38Z</time>
      </trkpt>
      <trkpt lat="45.98579" lon="4.79585">
        <ele>245</ele>
        <time>2016-10-04T11:13:39Z</time>
      </trkpt>
      <trkpt lat="45.98572" lon="4.79582">
        <ele>245</ele>
        <time>2016-10-04T11:13:40Z</time>
      </trkpt>
      <trkpt lat="45.98566" lon="4.79577">
        <ele>244</ele>
        <time>2016-10-04T11:13:41Z</time>
      </trkpt>
      <trkpt lat="45.9856" lon="4.79571">
        <ele>244</ele>
        <time>2016-10-04T11:13:42Z</time>
      </trkpt>
      <trkpt lat="45.98555" lon="4.79564">
        <ele>244</ele>
        <time>2016-10-04T11:13:43Z</time>
      </trkpt>
      <trkpt lat="45.9855" lon="4.79557">
        <ele>244</ele>
        <time>2016-10-04T11:13:44Z</time>
      </trkpt>
      <trkpt lat="45.98546" lon="4.79548">
        <ele>244</ele>
        <time>2016-10-04T11:13:45Z</time>
      </trkpt>
      <trkpt lat="45.98542" lon="4.79538">
        <ele>244</ele>
        <time>2016-10-04T11:13:46Z</time>
      </trkpt>
      <trkpt lat="45.98539" lon="4.79529">
        <ele>244</ele>
        <time>2016-10-04T11:13:47Z</time>
      </trkpt>
      <trkpt lat="45.98536" lon="4.79518">
        <ele>244</ele>
        <time>2016-10-04T11:13:48Z</time>
      </trkpt>
      <trkpt lat="45.98533" lon="4.79508">
        <ele>244</ele>
        <time>2016-10-04T11:13:49Z</time>
      </trkpt>
      <trkpt lat="45.98532" lon="4.79498">
        <ele>244</ele>
        <time>2016-10-04T11:13:50Z</time>
      </trkpt>
      <trkpt lat="45.98531" lon="4.79488">
        <ele>244</ele>
        <time>2016-10-04T11:13:51Z</time>
      </trkpt>
      <trkpt lat="45.9853" lon="4.79477">
        <ele>244</ele>
        <time>2016-10-04T11:13:52Z</time>
      </trkpt>
      <trkpt lat="45.98529" lon="4.79468">
        <ele>244</ele>
        <time>2016-10-04T11:13:53Z</time>
      </trkpt>
      <trkpt lat="45.98529" lon="4.79458">
        <ele>244</ele>
        <time>2016-10-04T11:13:54Z</time>
      </trkpt>
      <trkpt lat="45.98529" lon="4.79448">
        <ele>244</ele>
        <time>2016-10-04T11:13:55Z</time>
      </trkpt>
      <trkpt lat="45.98529" lon="4.79439">
        <ele>244</ele>
        <time>2016-10-04T11:13:56Z</time>
      </trkpt>
      <trkpt lat="45.98528" lon="4.79429">
        <ele>244</ele>
        <time>2016-10-04T11:13:57Z</time>
      </trkpt>
      <trkpt lat="45.98528" lon="4.7942">
        <ele>244</ele>
        <time>2016-10-04T11:13:58Z</time>
      </trkpt>
      <trkpt lat="45.98527" lon="4.79411">
        <ele>244</ele>
        <time>2016-10-04T11:13:59Z</time>
      </trkpt>
      <trkpt lat="45.98526" lon="4.79402">
        <ele>244</ele>
        <time>2016-10-04T11:14:00Z</time>
      </trkpt>
      <trkpt lat="45.98524" lon="4.79393">
        <ele>244</ele>
        <time>2016-10-04T11:14:01Z</time>
      </trkpt>
      <trkpt lat="45.98522" lon="4.79384">
        <ele>244</ele>
        <time>2016-10-04T11:14:02Z</time>
      </trkpt>
      <trkpt lat="45.98521" lon="4.79374">
        <ele>243</ele>
        <time>2016-10-04T11:14:03Z</time>
      </trkpt>
      <trkpt lat="45.98519" lon="4.79365">
        <ele>243</ele>
        <time>2016-10-04T11:14:04Z</time>
      </trkpt>
      <trkpt lat="45.98517" lon="4.79355">
        <ele>243</ele>
        <time>2016-10-04T11:14:05Z</time>
      </trkpt>
      <trkpt lat="45.98515" lon="4.79346">
        <ele>243</ele>
        <time>2016-10-04T11:14:06Z</time>
      </trkpt>
      <trkpt lat="45.98513" lon="4.79337">
        <ele>243</ele>
        <time>2016-10-04T11:14:07Z</time>
      </trkpt>
      <trkpt lat="45.9851" lon="4.79329">
        <ele>243</ele>
        <time>2016-10-04T11:14:08Z</time>
      </trkpt>
      <trkpt lat="45.98507" lon="4.79321">
        <ele>243</ele>
        <time>2016-10-04T11:14:09Z</time>
      </trkpt>
      <trkpt lat="45.98505" lon="4.79312">
        <ele>243</ele>
        <time>2016-10-04T11:14:10Z</time>
      </trkpt>
      <trkpt lat="45.98502" lon="4.79304">
        <ele>243</ele>
        <time>2016-10-04T11:14:11Z</time>
      </trkpt>
      <trkpt lat="45.98498" lon="4.79296">
        <ele>243</ele>
        <time>2016-10-04T11:14:12Z</time>
      </trkpt>
      <trkpt lat="45.98494" lon="4.79287">
        <ele>243</ele>
        <time>2016-10-04T11:14:13Z</time>
      </trkpt>
      <trkpt lat="45.9849" lon="4.79279">
        <ele>243</ele>
        <time>2016-10-04T11:14:14Z</time>
      </trkpt>
      <trkpt lat="45.98486" lon="4.7927">
        <ele>243</ele>
        <time>2016-10-04T11:14:15Z</time>
      </trkpt>
      <trkpt lat="45.98482" lon="4.79262">
        <ele>243</ele>
        <time>2016-10-04T11:14:16Z</time>
      </trkpt>
      <trkpt lat="45.98477" lon="4.79254">
        <ele>243</ele>
        <time>2016-10-04T11:14:17Z</time>
      </trkpt>
      <trkpt lat="45.98473" lon="4.79246">
        <ele>243</ele>
        <time>2016-10-04T11:14:18Z</time>
      </trkpt>
      <trkpt lat="45.98468" lon="4.79238">
        <ele>243</ele>
        <time>2016-10-04T11:14:19Z</time>
      </trkpt>
      <trkpt lat="45.98464" lon="4.79231">
        <ele>243</ele>
        <time>2016-10-04T11:14:20Z</time>
      </trkpt>
      <trkpt lat="45.9846" lon="4.79223">
        <ele>243</ele>
        <time>2016-10-04T11:14:21Z</time>
      </trkpt>
      <trkpt lat="45.98456" lon="4.79215">
        <ele>243</ele>
        <time>2016-10-04T11:14:22Z</time>
      </trkpt>
      <trkpt lat="45.98451" lon="4.79208">
        <ele>242</ele>
        <time>2016-10-04T11:14:23Z</time>
      </trkpt>
      <trkpt lat="45.98448" lon="4.792">
        <ele>242</ele>
        <time>2016-10-04T11:14:24Z</time>
      </trkpt>
      <trkpt lat="45.98443" lon="4.79192">
        <ele>242</ele>
        <time>2016-10-04T11:14:25Z</time>
      </trkpt>
      <trkpt lat="45.98439" lon="4.79185">
        <ele>242</ele>
        <time>2016-10-04T11:14:26Z</time>
      </trkpt>
      <trkpt lat="45.98435" lon="4.79178">
        <ele>242</ele>
        <time>2016-10-04T11:14:27Z</time>
      </trkpt>
      <trkpt lat="45.98431" lon="4.7917">
        <ele>242</ele>
        <time>2016-10-04T11:14:28Z</time>
      </trkpt>
      <trkpt lat="45.98427" lon="4.79161">
        <ele>242</ele>
        <time>2016-10-04T11:14:29Z</time>
      </trkpt>
      <trkpt lat="45.98423" lon="4.79152">
        <ele>242</ele>
        <time>2016-10-04T11:14:30Z</time>
      </trkpt>
      <trkpt lat="45.98419" lon="4.79143">
        <ele>242</ele>
        <time>2016-10-04T11:14:31Z</time>
      </trkpt>
      <trkpt lat="45.98414" lon="4.79135">
        <ele>242</ele>
        <time>2016-10-04T11:14:32Z</time>
      </trkpt>
      <trkpt lat="45.9841" lon="4.79126">
        <ele>242</ele>
        <time>2016-10-04T11:14:33Z</time>
      </trkpt>
      <trkpt lat="45.98405" lon="4.79117">
        <ele>242</ele>
        <time>2016-10-04T11:14:34Z</time>
      </trkpt>
      <trkpt lat="45.984" lon="4.79108">
        <ele>242</ele>
        <time>2016-10-04T11:14:35Z</time>
      </trkpt>
      <trkpt lat="45.98396" lon="4.79101">
        <ele>242</ele>
        <time>2016-10-04T11:14:36Z</time>
      </trkpt>
      <trkpt lat="45.98393" lon="4.79091">
        <ele>242</ele>
        <time>2016-10-04T11:14:37Z</time>
      </trkpt>
      <trkpt lat="45.98389" lon="4.79083">
        <ele>242</ele>
        <time>2016-10-04T11:14:38Z</time>
      </trkpt>
      <trkpt lat="45.98385" lon="4.79076">
        <ele>242</ele>
        <time>2016-10-04T11:14:39Z</time>
      </trkpt>
      <trkpt lat="45.98381" lon="4.79069">
        <ele>242</ele>
        <time>2016-10-04T11:14:40Z</time>
      </trkpt>
      <trkpt lat="45.98376" lon="4.79062">
        <ele>242</ele>
        <time>2016-10-04T11:14:41Z</time>
      </trkpt>
      <trkpt lat="45.98371" lon="4.79055">
        <ele>242</ele>
        <time>2016-10-04T11:14:42Z</time>
      </trkpt>
      <trkpt lat="45.98367" lon="4.79047">
        <ele>242</ele>
        <time>2016-10-04T11:14:43Z</time>
      </trkpt>
      <trkpt lat="45.98361" lon="4.79042">
        <ele>242</ele>
        <time>2016-10-04T11:14:44Z</time>
      </trkpt>
      <trkpt lat="45.98357" lon="4.79036">
        <ele>242</ele>
        <time>2016-10-04T11:14:45Z</time>
      </trkpt>
      <trkpt lat="45.98352" lon="4.7903">
        <ele>242</ele>
        <time>2016-10-04T11:14:46Z</time>
      </trkpt>
      <trkpt lat="45.98347" lon="4.79025">
        <ele>242</ele>
        <time>2016-10-04T11:14:47Z</time>
      </trkpt>
      <trkpt lat="45.98342" lon="4.79021">
        <ele>242</ele>
        <time>2016-10-04T11:14:48Z</time>
      </trkpt>
      <trkpt lat="45.98335" lon="4.79016">
        <ele>242</ele>
        <time>2016-10-04T11:14:49Z</time>
      </trkpt>
      <trkpt lat="45.9833" lon="4.79009">
        <ele>242</ele>
        <time>2016-10-04T11:14:50Z</time>
      </trkpt>
      <trkpt lat="45.98324" lon="4.79005">
        <ele>242</ele>
        <time>2016-10-04T11:14:51Z</time>
      </trkpt>
      <trkpt lat="45.98317" lon="4.79001">
        <ele>242</ele>
        <time>2016-10-04T11:14:52Z</time>
      </trkpt>
      <trkpt lat="45.9831" lon="4.78997">
        <ele>241</ele>
        <time>2016-10-04T11:14:53Z</time>
      </trkpt>
      <trkpt lat="45.98303" lon="4.78992">
        <ele>241</ele>
        <time>2016-10-04T11:14:54Z</time>
      </trkpt>
      <trkpt lat="45.98297" lon="4.7899">
        <ele>241</ele>
        <time>2016-10-04T11:14:55Z</time>
      </trkpt>
      <trkpt lat="45.98289" lon="4.78988">
        <ele>241</ele>
        <time>2016-10-04T11:14:56Z</time>
      </trkpt>
      <trkpt lat="45.98283" lon="4.78985">
        <ele>241</ele>
        <time>2016-10-04T11:14:57Z</time>
      </trkpt>
      <trkpt lat="45.98277" lon="4.78981">
        <ele>241</ele>
        <time>2016-10-04T11:14:58Z</time>
      </trkpt>
      <trkpt lat="45.98271" lon="4.78978">
        <ele>241</ele>
        <time>2016-10-04T11:14:59Z</time>
      </trkpt>
      <trkpt lat="45.98265" lon="4.78974">
        <ele>241</ele>
        <time>2016-10-04T11:15:00Z</time>
      </trkpt>
      <trkpt lat="45.98259" lon="4.78971">
        <ele>241</ele>
        <time>2016-10-04T11:15:01Z</time>
      </trkpt>
      <trkpt lat="45.98254" lon="4.78967">
        <ele>241</ele>
        <time>2016-10-04T11:15:02Z</time>
      </trkpt>
      <trkpt lat="45.98248" lon="4.78963">
        <ele>241</ele>
        <time>2016-10-04T11:15:03Z</time>
      </trkpt>
      <trkpt lat="45.98243" lon="4.7896">
        <ele>241</ele>
        <time>2016-10-04T11:15:04Z</time>
      </trkpt>
      <trkpt lat="45.98237" lon="4.78957">
        <ele>241</ele>
        <time>2016-10-04T11:15:05Z</time>
      </trkpt>
      <trkpt lat="45.98231" lon="4.78954">
        <ele>241</ele>
        <time>2016-10-04T11:15:06Z</time>
      </trkpt>
      <trkpt lat="45.98225" lon="4.7895">
        <ele>241</ele>
        <time>2016-10-04T11:15:07Z</time>
      </trkpt>
      <trkpt lat="45.98219" lon="4.78947">
        <ele>241</ele>
        <time>2016-10-04T11:15:08Z</time>
      </trkpt>
      <trkpt lat="45.98213" lon="4.78942">
        <ele>241</ele>
        <time>2016-10-04T11:15:09Z</time>
      </trkpt>
      <trkpt lat="45.98206" lon="4.78937">
        <ele>241</ele>
        <time>2016-10-04T11:15:10Z</time>
      </trkpt>
      <trkpt lat="45.98198" lon="4.78931">
        <ele>241</ele>
        <time>2016-10-04T11:15:11Z</time>
      </trkpt>
      <trkpt lat="45.98191" lon="4.78927">
        <ele>241</ele>
        <time>2016-10-04T11:15:12Z</time>
      </trkpt>
      <trkpt lat="45.98184" lon="4.78923">
        <ele>240</ele>
        <time>2016-10-04T11:15:13Z</time>
      </trkpt>
      <trkpt lat="45.98178" lon="4.78919">
        <ele>240</ele>
        <time>2016-10-04T11:15:14Z</time>
      </trkpt>
      <trkpt lat="45.9817" lon="4.78916">
        <ele>240</ele>
        <time>2016-10-04T11:15:15Z</time>
      </trkpt>
      <trkpt lat="45.98164" lon="4.78913">
        <ele>240</ele>
        <time>2016-10-04T11:15:16Z</time>
      </trkpt>
      <trkpt lat="45.98158" lon="4.78909">
        <ele>240</ele>
        <time>2016-10-04T11:15:17Z</time>
      </trkpt>
      <trkpt lat="45.98152" lon="4.78905">
        <ele>240</ele>
        <time>2016-10-04T11:15:18Z</time>
      </trkpt>
      <trkpt lat="45.98146" lon="4.78901">
        <ele>240</ele>
        <time>2016-10-04T11:15:19Z</time>
      </trkpt>
      <trkpt lat="45.98141" lon="4.78898">
        <ele>240</ele>
        <time>2016-10-04T11:15:20Z</time>
      </trkpt>
      <trkpt lat="45.98136" lon="4.78895">
        <ele>240</ele>
        <time>2016-10-04T11:15:21Z</time>
      </trkpt>
      <trkpt lat="45.9813" lon="4.78893">
        <ele>240</ele>
        <time>2016-10-04T11:15:22Z</time>
      </trkpt>
      <trkpt lat="45.98125" lon="4.7889">
        <ele>240</ele>
        <time>2016-10-04T11:15:23Z</time>
      </trkpt>
      <trkpt lat="45.9812" lon="4.78887">
        <ele>240</ele>
        <time>2016-10-04T11:15:24Z</time>
      </trkpt>
      <trkpt lat="45.98115" lon="4.78883">
        <ele>240</ele>
        <time>2016-10-04T11:15:25Z</time>
      </trkpt>
      <trkpt lat="45.9811" lon="4.78879">
        <ele>240</ele>
        <time>2016-10-04T11:15:26Z</time>
      </trkpt>
      <trkpt lat="45.98104" lon="4.78874">
        <ele>239</ele>
        <time>2016-10-04T11:15:27Z</time>
      </trkpt>
      <trkpt lat="45.98098" lon="4.7887">
        <ele>239</ele>
        <time>2016-10-04T11:15:28Z</time>
      </trkpt>
      <trkpt lat="45.98091" lon="4.78866">
        <ele>239</ele>
        <time>2016-10-04T11:15:29Z</time>
      </trkpt>
      <trkpt lat="45.98085" lon="4.78861">
        <ele>239</ele>
        <time>2016-10-04T11:15:30Z</time>
      </trkpt>
      <trkpt lat="45.98078" lon="4.78858">
        <ele>239</ele>
        <time>2016-10-04T11:15:31Z</time>
      </trkpt>
      <trkpt lat="45.98071" lon="4.78854">
        <ele>239</ele>
        <time>2016-10-04T11:15:32Z</time>
      </trkpt>
      <trkpt lat="45.98064" lon="4.78849">
        <ele>239</ele>
        <time>2016-10-04T11:15:33Z</time>
      </trkpt>
      <trkpt lat="45.98058" lon="4.78845">
        <ele>239</ele>
        <time>2016-10-04T11:15:34Z</time>
      </trkpt>
      <trkpt lat="45.98051" lon="4.78841">
        <ele>238</ele>
        <time>2016-10-04T11:15:35Z</time>
      </trkpt>
      <trkpt lat="45.98045" lon="4.78836">
        <ele>238</ele>
        <time>2016-10-04T11:15:36Z</time>
      </trkpt>
      <trkpt lat="45.98039" lon="4.78832">
        <ele>238</ele>
        <time>2016-10-04T11:15:37Z</time>
      </trkpt>
      <trkpt lat="45.98033" lon="4.78827">
        <ele>238</ele>
        <time>2016-10-04T11:15:38Z</time>
      </trkpt>
      <trkpt lat="45.98027" lon="4.78823">
        <ele>238</ele>
        <time>2016-10-04T11:15:39Z</time>
      </trkpt>
      <trkpt lat="45.98021" lon="4.78818">
        <ele>238</ele>
        <time>2016-10-04T11:15:40Z</time>
      </trkpt>
      <trkpt lat="45.98015" lon="4.78814">
        <ele>238</ele>
        <time>2016-10-04T11:15:41Z</time>
      </trkpt>
      <trkpt lat="45.98008" lon="4.7881">
        <ele>238</ele>
        <time>2016-10-04T11:15:42Z</time>
      </trkpt>
      <trkpt lat="45.98002" lon="4.78806">
        <ele>238</ele>
        <time>2016-10-04T11:15:43Z</time>
      </trkpt>
      <trkpt lat="45.97995" lon="4.78801">
        <ele>238</ele>
        <time>2016-10-04T11:15:44Z</time>
      </trkpt>
      <trkpt lat="45.97988" lon="4.78797">
        <ele>238</ele>
        <time>2016-10-04T11:15:45Z</time>
      </trkpt>
      <trkpt lat="45.97982" lon="4.78793">
        <ele>238</ele>
        <time>2016-10-04T11:15:46Z</time>
      </trkpt>
      <trkpt lat="45.97975" lon="4.78789">
        <ele>238</ele>
        <time>2016-10-04T11:15:47Z</time>
      </trkpt>
      <trkpt lat="45.97969" lon="4.78784">
        <ele>238</ele>
        <time>2016-10-04T11:15:48Z</time>
      </trkpt>
      <trkpt lat="45.97963" lon="4.78779">
        <ele>238</ele>
        <time>2016-10-04T11:15:49Z</time>
      </trkpt>
      <trkpt lat="45.97957" lon="4.78774">
        <ele>238</ele>
        <time>2016-10-04T11:15:50Z</time>
      </trkpt>
      <trkpt lat="45.9795" lon="4.78769">
        <ele>238</ele>
        <time>2016-10-04T11:15:51Z</time>
      </trkpt>
      <trkpt lat="45.97944" lon="4.78764">
        <ele>238</ele>
        <time>2016-10-04T11:15:52Z</time>
      </trkpt>
      <trkpt lat="45.97938" lon="4.7876">
        <ele>238</ele>
        <time>2016-10-04T11:15:53Z</time>
      </trkpt>
      <trkpt lat="45.97932" lon="4.78755">
        <ele>238</ele>
        <time>2016-10-04T11:15:54Z</time>
      </trkpt>
      <trkpt lat="45.97926" lon="4.7875">
        <ele>237</ele>
        <time>2016-10-04T11:15:55Z</time>
      </trkpt>
      <trkpt lat="45.9792" lon="4.78746">
        <ele>237</ele>
        <time>2016-10-04T11:15:56Z</time>
      </trkpt>
      <trkpt lat="45.97914" lon="4.78742">
        <ele>237</ele>
        <time>2016-10-04T11:15:57Z</time>
      </trkpt>
      <trkpt lat="45.97908" lon="4.78738">
        <ele>237</ele>
        <time>2016-10-04T11:15:58Z</time>
      </trkpt>
      <trkpt lat="45.97902" lon="4.78734">
        <ele>237</ele>
        <time>2016-10-04T11:15:59Z</time>
      </trkpt>
      <trkpt lat="45.97896" lon="4.78729">
        <ele>236</ele>
        <time>2016-10-04T11:16:00Z</time>
      </trkpt>
      <trkpt lat="45.97889" lon="4.78724">
        <ele>236</ele>
        <time>2016-10-04T11:16:01Z</time>
      </trkpt>
      <trkpt lat="45.97883" lon="4.78719">
        <ele>236</ele>
        <time>2016-10-04T11:16:02Z</time>
      </trkpt>
      <trkpt lat="45.97876" lon="4.78714">
        <ele>236</ele>
        <time>2016-10-04T11:16:03Z</time>
      </trkpt>
      <trkpt lat="45.97869" lon="4.78709">
        <ele>236</ele>
        <time>2016-10-04T11:16:04Z</time>
      </trkpt>
      <trkpt lat="45.97862" lon="4.78705">
        <ele>236</ele>
        <time>2016-10-04T11:16:05Z</time>
      </trkpt>
      <trkpt lat="45.97855" lon="4.78701">
        <ele>236</ele>
        <time>2016-10-04T11:16:06Z</time>
      </trkpt>
      <trkpt lat="45.97849" lon="4.78697">
        <ele>236</ele>
        <time>2016-10-04T11:16:07Z</time>
      </trkpt>
      <trkpt lat="45.97842" lon="4.78693">
        <ele>236</ele>
        <time>2016-10-04T11:16:08Z</time>
      </trkpt>
      <trkpt lat="45.97835" lon="4.78689">
        <ele>236</ele>
        <time>2016-10-04T11:16:09Z</time>
      </trkpt>
      <trkpt lat="45.97828" lon="4.78687">
        <ele>235</ele>
        <time>2016-10-04T11:16:10Z</time>
      </trkpt>
      <trkpt lat="45.97822" lon="4.78682">
        <ele>235</ele>
        <time>2016-10-04T11:16:11Z</time>
      </trkpt>
      <trkpt lat="45.97815" lon="4.78679">
        <ele>235</ele>
        <time>2016-10-04T11:16:12Z</time>
      </trkpt>
      <trkpt lat="45.97808" lon="4.78677">
        <ele>235</ele>
        <time>2016-10-04T11:16:13Z</time>
      </trkpt>
      <trkpt lat="45.97802" lon="4.78674">
        <ele>235</ele>
        <time>2016-10-04T11:16:14Z</time>
      </trkpt>
      <trkpt lat="45.97796" lon="4.78671">
        <ele>235</ele>
        <time>2016-10-04T11:16:15Z</time>
      </trkpt>
      <trkpt lat="45.97789" lon="4.78668">
        <ele>235</ele>
        <time>2016-10-04T11:16:16Z</time>
      </trkpt>
      <trkpt lat="45.97782" lon="4.78666">
        <ele>235</ele>
        <time>2016-10-04T11:16:17Z</time>
      </trkpt>
      <trkpt lat="45.97775" lon="4.78663">
        <ele>235</ele>
        <time>2016-10-04T11:16:18Z</time>
      </trkpt>
      <trkpt lat="45.97769" lon="4.7866">
        <ele>235</ele>
        <time>2016-10-04T11:16:19Z</time>
      </trkpt>
      <trkpt lat="45.97761" lon="4.78657">
        <ele>235</ele>
        <time>2016-10-04T11:16:20Z</time>
      </trkpt>
      <trkpt lat="45.97754" lon="4.78654">
        <ele>235</ele>
        <time>2016-10-04T11:16:21Z</time>
      </trkpt>
      <trkpt lat="45.97747" lon="4.78651">
        <ele>234</ele>
        <time>2016-10-04T11:16:22Z</time>
      </trkpt>
      <trkpt lat="45.9774" lon="4.78648">
        <ele>234</ele>
        <time>2016-10-04T11:16:23Z</time>
      </trkpt>
      <trkpt lat="45.97733" lon="4.78645">
        <ele>234</ele>
        <time>2016-10-04T11:16:24Z</time>
      </trkpt>
      <trkpt lat="45.97726" lon="4.78644">
        <ele>234</ele>
        <time>2016-10-04T11:16:25Z</time>
      </trkpt>
      <trkpt lat="45.9772" lon="4.7864">
        <ele>234</ele>
        <time>2016-10-04T11:16:26Z</time>
      </trkpt>
      <trkpt lat="45.97713" lon="4.78638">
        <ele>234</ele>
        <time>2016-10-04T11:16:27Z</time>
      </trkpt>
      <trkpt lat="45.97707" lon="4.78634">
        <ele>234</ele>
        <time>2016-10-04T11:16:28Z</time>
      </trkpt>
      <trkpt lat="45.977" lon="4.78631">
        <ele>234</ele>
        <time>2016-10-04T11:16:29Z</time>
      </trkpt>
      <trkpt lat="45.97694" lon="4.78629">
        <ele>234</ele>
        <time>2016-10-04T11:16:30Z</time>
      </trkpt>
      <trkpt lat="45.97688" lon="4.78626">
        <ele>234</ele>
        <time>2016-10-04T11:16:31Z</time>
      </trkpt>
      <trkpt lat="45.97682" lon="4.78623">
        <ele>234</ele>
        <time>2016-10-04T11:16:32Z</time>
      </trkpt>
      <trkpt lat="45.97676" lon="4.7862">
        <ele>234</ele>
        <time>2016-10-04T11:16:33Z</time>
      </trkpt>
      <trkpt lat="45.97669" lon="4.78617">
        <ele>234</ele>
        <time>2016-10-04T11:16:34Z</time>
      </trkpt>
      <trkpt lat="45.97663" lon="4.78614">
        <ele>233</ele>
        <time>2016-10-04T11:16:35Z</time>
      </trkpt>
      <trkpt lat="45.97657" lon="4.78612">
        <ele>233</ele>
        <time>2016-10-04T11:16:36Z</time>
      </trkpt>
      <trkpt lat="45.97651" lon="4.78609">
        <ele>233</ele>
        <time>2016-10-04T11:16:37Z</time>
      </trkpt>
      <trkpt lat="45.97645" lon="4.78606">
        <ele>233</ele>
        <time>2016-10-04T11:16:38Z</time>
      </trkpt>
      <trkpt lat="45.97639" lon="4.78603">
        <ele>233</ele>
        <time>2016-10-04T11:16:39Z</time>
      </trkpt>
      <trkpt lat="45.97633" lon="4.78602">
        <ele>233</ele>
        <time>2016-10-04T11:16:40Z</time>
      </trkpt>
      <trkpt lat="45.97627" lon="4.78599">
        <ele>233</ele>
        <time>2016-10-04T11:16:41Z</time>
      </trkpt>
      <trkpt lat="45.97621" lon="4.78597">
        <ele>233</ele>
        <time>2016-10-04T11:16:42Z</time>
      </trkpt>
      <trkpt lat="45.97615" lon="4.78594">
        <ele>233</ele>
        <time>2016-10-04T11:16:43Z</time>
      </trkpt>
      <trkpt lat="45.97609" lon="4.78592">
        <ele>233</ele>
        <time>2016-10-04T11:16:44Z</time>
      </trkpt>
      <trkpt lat="45.97603" lon="4.78589">
        <ele>233</ele>
        <time>2016-10-04T11:16:45Z</time>
      </trkpt>
      <trkpt lat="45.97597" lon="4.78586">
        <ele>233</ele>
        <time>2016-10-04T11:16:46Z</time>
      </trkpt>
      <trkpt lat="45.97591" lon="4.78583">
        <ele>233</ele>
        <time>2016-10-04T11:16:47Z</time>
      </trkpt>
      <trkpt lat="45.97584" lon="4.7858">
        <ele>233</ele>
        <time>2016-10-04T11:16:48Z</time>
      </trkpt>
      <trkpt lat="45.97577" lon="4.78578">
        <ele>233</ele>
        <time>2016-10-04T11:16:49Z</time>
      </trkpt>
      <trkpt lat="45.9757" lon="4.78576">
        <ele>233</ele>
        <time>2016-10-04T11:16:50Z</time>
      </trkpt>
      <trkpt lat="45.97563" lon="4.78573">
        <ele>233</ele>
        <time>2016-10-04T11:16:51Z</time>
      </trkpt>
      <trkpt lat="45.97557" lon="4.7857">
        <ele>234</ele>
        <time>2016-10-04T11:16:52Z</time>
      </trkpt>
      <trkpt lat="45.9755" lon="4.78567">
        <ele>234</ele>
        <time>2016-10-04T11:16:53Z</time>
      </trkpt>
      <trkpt lat="45.97544" lon="4.78564">
        <ele>234</ele>
        <time>2016-10-04T11:16:54Z</time>
      </trkpt>
      <trkpt lat="45.97537" lon="4.78561">
        <ele>234</ele>
        <time>2016-10-04T11:16:55Z</time>
      </trkpt>
      <trkpt lat="45.97532" lon="4.78557">
        <ele>234</ele>
        <time>2016-10-04T11:16:56Z</time>
      </trkpt>
      <trkpt lat="45.97526" lon="4.78554">
        <ele>234</ele>
        <time>2016-10-04T11:16:57Z</time>
      </trkpt>
      <trkpt lat="45.9752" lon="4.7855">
        <ele>234</ele>
        <time>2016-10-04T11:16:58Z</time>
      </trkpt>
      <trkpt lat="45.97514" lon="4.78547">
        <ele>234</ele>
        <time>2016-10-04T11:16:59Z</time>
      </trkpt>
      <trkpt lat="45.97508" lon="4.78543">
        <ele>234</ele>
        <time>2016-10-04T11:17:00Z</time>
      </trkpt>
      <trkpt lat="45.97502" lon="4.78539">
        <ele>234</ele>
        <time>2016-10-04T11:17:01Z</time>
      </trkpt>
      <trkpt lat="45.97496" lon="4.78535">
        <ele>233</ele>
        <time>2016-10-04T11:17:02Z</time>
      </trkpt>
      <trkpt lat="45.9749" lon="4.7853">
        <ele>233</ele>
        <time>2016-10-04T11:17:03Z</time>
      </trkpt>
      <trkpt lat="45.97484" lon="4.78525">
        <ele>233</ele>
        <time>2016-10-04T11:17:04Z</time>
      </trkpt>
      <trkpt lat="45.97478" lon="4.7852">
        <ele>233</ele>
        <time>2016-10-04T11:17:05Z</time>
      </trkpt>
      <trkpt lat="45.97472" lon="4.78515">
        <ele>234</ele>
        <time>2016-10-04T11:17:06Z</time>
      </trkpt>
      <trkpt lat="45.97466" lon="4.7851">
        <ele>234</ele>
        <time>2016-10-04T11:17:07Z</time>
      </trkpt>
      <trkpt lat="45.9746" lon="4.78505">
        <ele>234</ele>
        <time>2016-10-04T11:17:08Z</time>
      </trkpt>
      <trkpt lat="45.97455" lon="4.785">
        <ele>234</ele>
        <time>2016-10-04T11:17:09Z</time>
      </trkpt>
      <trkpt lat="45.97449" lon="4.78495">
        <ele>234</ele>
        <time>2016-10-04T11:17:10Z</time>
      </trkpt>
      <trkpt lat="45.97444" lon="4.7849">
        <ele>234</ele>
        <time>2016-10-04T11:17:11Z</time>
      </trkpt>
      <trkpt lat="45.97438" lon="4.78485">
        <ele>234</ele>
        <time>2016-10-04T11:17:12Z</time>
      </trkpt>
      <trkpt lat="45.97433" lon="4.7848">
        <ele>234</ele>
        <time>2016-10-04T11:17:13Z</time>
      </trkpt>
      <trkpt lat="45.97427" lon="4.78475">
        <ele>234</ele>
        <time>2016-10-04T11:17:14Z</time>
      </trkpt>
      <trkpt lat="45.97421" lon="4.7847">
        <ele>234</ele>
        <time>2016-10-04T11:17:15Z</time>
      </trkpt>
      <trkpt lat="45.97416" lon="4.78464">
        <ele>233</ele>
        <time>2016-10-04T11:17:16Z</time>
      </trkpt>
      <trkpt lat="45.9741" lon="4.78458">
        <ele>233</ele>
        <time>2016-10-04T11:17:17Z</time>
      </trkpt>
      <trkpt lat="45.97404" lon="4.78453">
        <ele>233</ele>
        <time>2016-10-04T11:17:18Z</time>
      </trkpt>
      <trkpt lat="45.97398" lon="4.78447">
        <ele>233</ele>
        <time>2016-10-04T11:17:19Z</time>
      </trkpt>
      <trkpt lat="45.97392" lon="4.78441">
        <ele>233</ele>
        <time>2016-10-04T11:17:20Z</time>
      </trkpt>
      <trkpt lat="45.97386" lon="4.78436">
        <ele>233</ele>
        <time>2016-10-04T11:17:21Z</time>
      </trkpt>
      <trkpt lat="45.9738" lon="4.7843">
        <ele>233</ele>
        <time>2016-10-04T11:17:22Z</time>
      </trkpt>
      <trkpt lat="45.97375" lon="4.78425">
        <ele>233</ele>
        <time>2016-10-04T11:17:23Z</time>
      </trkpt>
      <trkpt lat="45.9737" lon="4.78419">
        <ele>233</ele>
        <time>2016-10-04T11:17:24Z</time>
      </trkpt>
      <trkpt lat="45.97365" lon="4.78414">
        <ele>233</ele>
        <time>2016-10-04T11:17:25Z</time>
      </trkpt>
      <trkpt lat="45.9736" lon="4.78409">
        <ele>233</ele>
        <time>2016-10-04T11:17:26Z</time>
      </trkpt>
      <trkpt lat="45.97355" lon="4.78403">
        <ele>233</ele>
        <time>2016-10-04T11:17:27Z</time>
      </trkpt>
      <trkpt lat="45.97351" lon="4.78398">
        <ele>233</ele>
        <time>2016-10-04T11:17:28Z</time>
      </trkpt>
      <trkpt lat="45.97345" lon="4.78393">
        <ele>233</ele>
        <time>2016-10-04T11:17:29Z</time>
      </trkpt>
      <trkpt lat="45.9734" lon="4.78387">
        <ele>233</ele>
        <time>2016-10-04T11:17:30Z</time>
      </trkpt>
      <trkpt lat="45.97335" lon="4.78381">
        <ele>233</ele>
        <time>2016-10-04T11:17:31Z</time>
      </trkpt>
      <trkpt lat="45.97329" lon="4.78374">
        <ele>232</ele>
        <time>2016-10-04T11:17:32Z</time>
      </trkpt>
      <trkpt lat="45.97324" lon="4.78367">
        <ele>232</ele>
        <time>2016-10-04T11:17:33Z</time>
      </trkpt>
      <trkpt lat="45.97318" lon="4.78359">
        <ele>232</ele>
        <time>2016-10-04T11:17:34Z</time>
      </trkpt>
      <trkpt lat="45.97312" lon="4.78352">
        <ele>232</ele>
        <time>2016-10-04T11:17:35Z</time>
      </trkpt>
      <trkpt lat="45.97307" lon="4.78345">
        <ele>232</ele>
        <time>2016-10-04T11:17:36Z</time>
      </trkpt>
      <trkpt lat="45.97301" lon="4.78338">
        <ele>232</ele>
        <time>2016-10-04T11:17:37Z</time>
      </trkpt>
      <trkpt lat="45.97296" lon="4.78331">
        <ele>232</ele>
        <time>2016-10-04T11:17:38Z</time>
      </trkpt>
      <trkpt lat="45.97291" lon="4.78323">
        <ele>232</ele>
        <time>2016-10-04T11:17:39Z</time>
      </trkpt>
      <trkpt lat="45.97286" lon="4.78316">
        <ele>232</ele>
        <time>2016-10-04T11:17:40Z</time>
      </trkpt>
      <trkpt lat="45.97281" lon="4.7831">
        <ele>232</ele>
        <time>2016-10-04T11:17:41Z</time>
      </trkpt>
      <trkpt lat="45.97276" lon="4.78302">
        <ele>232</ele>
        <time>2016-10-04T11:17:42Z</time>
      </trkpt>
      <trkpt lat="45.97271" lon="4.78295">
        <ele>232</ele>
        <time>2016-10-04T11:17:43Z</time>
      </trkpt>
      <trkpt lat="45.97267" lon="4.78288">
        <ele>232</ele>
        <time>2016-10-04T11:17:44Z</time>
      </trkpt>
      <trkpt lat="45.97263" lon="4.78281">
        <ele>232</ele>
        <time>2016-10-04T11:17:45Z</time>
      </trkpt>
      <trkpt lat="45.97258" lon="4.78275">
        <ele>232</ele>
        <time>2016-10-04T11:17:46Z</time>
      </trkpt>
      <trkpt lat="45.97254" lon="4.78268">
        <ele>231</ele>
        <time>2016-10-04T11:17:47Z</time>
      </trkpt>
      <trkpt lat="45.97249" lon="4.78261">
        <ele>231</ele>
        <time>2016-10-04T11:17:48Z</time>
      </trkpt>
      <trkpt lat="45.97245" lon="4.78254">
        <ele>231</ele>
        <time>2016-10-04T11:17:49Z</time>
      </trkpt>
      <trkpt lat="45.9724" lon="4.78246">
        <ele>231</ele>
        <time>2016-10-04T11:17:50Z</time>
      </trkpt>
      <trkpt lat="45.97235" lon="4.78239">
        <ele>231</ele>
        <time>2016-10-04T11:17:51Z</time>
      </trkpt>
      <trkpt lat="45.9723" lon="4.78231">
        <ele>231</ele>
        <time>2016-10-04T11:17:52Z</time>
      </trkpt>
      <trkpt lat="45.97226" lon="4.78223">
        <ele>231</ele>
        <time>2016-10-04T11:17:53Z</time>
      </trkpt>
      <trkpt lat="45.97221" lon="4.78215">
        <ele>231</ele>
        <time>2016-10-04T11:17:54Z</time>
      </trkpt>
      <trkpt lat="45.97217" lon="4.78206">
        <ele>231</ele>
        <time>2016-10-04T11:17:55Z</time>
      </trkpt>
      <trkpt lat="45.97211" lon="4.78198">
        <ele>231</ele>
        <time>2016-10-04T11:17:56Z</time>
      </trkpt>
      <trkpt lat="45.97207" lon="4.7819">
        <ele>231</ele>
        <time>2016-10-04T11:17:57Z</time>
      </trkpt>
      <trkpt lat="45.97201" lon="4.78182">
        <ele>231</ele>
        <time>2016-10-04T11:17:58Z</time>
      </trkpt>
      <trkpt lat="45.97197" lon="4.78174">
        <ele>231</ele>
        <time>2016-10-04T11:17:59Z</time>
      </trkpt>
      <trkpt lat="45.97193" lon="4.78165">
        <ele>231</ele>
        <time>2016-10-04T11:18:00Z</time>
      </trkpt>
      <trkpt lat="45.97188" lon="4.78157">
        <ele>231</ele>
        <time>2016-10-04T11:18:01Z</time>
      </trkpt>
      <trkpt lat="45.97184" lon="4.78149">
        <ele>231</ele>
        <time>2016-10-04T11:18:02Z</time>
      </trkpt>
      <trkpt lat="45.9718" lon="4.78141">
        <ele>231</ele>
        <time>2016-10-04T11:18:03Z</time>
      </trkpt>
      <trkpt lat="45.97175" lon="4.78134">
        <ele>231</ele>
        <time>2016-10-04T11:18:04Z</time>
      </trkpt>
      <trkpt lat="45.97171" lon="4.78126">
        <ele>231</ele>
        <time>2016-10-04T11:18:05Z</time>
      </trkpt>
      <trkpt lat="45.97167" lon="4.78118">
        <ele>231</ele>
        <time>2016-10-04T11:18:06Z</time>
      </trkpt>
      <trkpt lat="45.97163" lon="4.7811">
        <ele>230</ele>
        <time>2016-10-04T11:18:07Z</time>
      </trkpt>
      <trkpt lat="45.97158" lon="4.78103">
        <ele>230</ele>
        <time>2016-10-04T11:18:08Z</time>
      </trkpt>
      <trkpt lat="45.97154" lon="4.78095">
        <ele>230</ele>
        <time>2016-10-04T11:18:09Z</time>
      </trkpt>
      <trkpt lat="45.97149" lon="4.78087">
        <ele>230</ele>
        <time>2016-10-04T11:18:10Z</time>
      </trkpt>
      <trkpt lat="45.97144" lon="4.78079">
        <ele>230</ele>
        <time>2016-10-04T11:18:11Z</time>
      </trkpt>
      <trkpt lat="45.9714" lon="4.78072">
        <ele>230</ele>
        <time>2016-10-04T11:18:12Z</time>
      </trkpt>
      <trkpt lat="45.97135" lon="4.78065">
        <ele>230</ele>
        <time>2016-10-04T11:18:13Z</time>
      </trkpt>
      <trkpt lat="45.9713" lon="4.78059">
        <ele>230</ele>
        <time>2016-10-04T11:18:14Z</time>
      </trkpt>
      <trkpt lat="45.97124" lon="4.78053">
        <ele>229</ele>
        <time>2016-10-04T11:18:15Z</time>
      </trkpt>
      <trkpt lat="45.97119" lon="4.78048">
        <ele>229</ele>
        <time>2016-10-04T11:18:16Z</time>
      </trkpt>
      <trkpt lat="45.97114" lon="4.78043">
        <ele>229</ele>
        <time>2016-10-04T11:18:17Z</time>
      </trkpt>
      <trkpt lat="45.97109" lon="4.78038">
        <ele>229</ele>
        <time>2016-10-04T11:18:18Z</time>
      </trkpt>
      <trkpt lat="45.97104" lon="4.78032">
        <ele>229</ele>
        <time>2016-10-04T11:18:19Z</time>
      </trkpt>
      <trkpt lat="45.97098" lon="4.78027">
        <ele>229</ele>
        <time>2016-10-04T11:18:20Z</time>
      </trkpt>
      <trkpt lat="45.97092" lon="4.78021">
        <ele>229</ele>
        <time>2016-10-04T11:18:21Z</time>
      </trkpt>
      <trkpt lat="45.97086" lon="4.78015">
        <ele>229</ele>
        <time>2016-10-04T11:18:22Z</time>
      </trkpt>
      <trkpt lat="45.9708" lon="4.78009">
        <ele>229</ele>
        <time>2016-10-04T11:18:23Z</time>
      </trkpt>
      <trkpt lat="45.97074" lon="4.78003">
        <ele>229</ele>
        <time>2016-10-04T11:18:24Z</time>
      </trkpt>
      <trkpt lat="45.97068" lon="4.77997">
        <ele>229</ele>
        <time>2016-10-04T11:18:25Z</time>
      </trkpt>
      <trkpt lat="45.97061" lon="4.7799">
        <ele>229</ele>
        <time>2016-10-04T11:18:26Z</time>
      </trkpt>
      <trkpt lat="45.97055" lon="4.77984">
        <ele>229</ele>
        <time>2016-10-04T11:18:27Z</time>
      </trkpt>
      <trkpt lat="45.97049" lon="4.77977">
        <ele>229</ele>
        <time>2016-10-04T11:18:28Z</time>
      </trkpt>
      <trkpt lat="45.97043" lon="4.7797">
        <ele>229</ele>
        <time>2016-10-04T11:18:29Z</time>
      </trkpt>
      <trkpt lat="45.97038" lon="4.77964">
        <ele>229</ele>
        <time>2016-10-04T11:18:30Z</time>
      </trkpt>
      <trkpt lat="45.97032" lon="4.77957">
        <ele>228</ele>
        <time>2016-10-04T11:18:31Z</time>
      </trkpt>
      <trkpt lat="45.97027" lon="4.7795">
        <ele>228</ele>
        <time>2016-10-04T11:18:32Z</time>
      </trkpt>
      <trkpt lat="45.97021" lon="4.77944">
        <ele>228</ele>
        <time>2016-10-04T11:18:33Z</time>
      </trkpt>
      <trkpt lat="45.97016" lon="4.77937">
        <ele>228</ele>
        <time>2016-10-04T11:18:34Z</time>
      </trkpt>
      <trkpt lat="45.97011" lon="4.77931">
        <ele>228</ele>
        <time>2016-10-04T11:18:35Z</time>
      </trkpt>
      <trkpt lat="45.97006" lon="4.77925">
        <ele>228</ele>
        <time>2016-10-04T11:18:36Z</time>
      </trkpt>
      <trkpt lat="45.97" lon="4.7792">
        <ele>227</ele>
        <time>2016-10-04T11:18:37Z</time>
      </trkpt>
      <trkpt lat="45.96995" lon="4.77913">
        <ele>227</ele>
        <time>2016-10-04T11:18:38Z</time>
      </trkpt>
      <trkpt lat="45.96989" lon="4.77907">
        <ele>227</ele>
        <time>2016-10-04T11:18:39Z</time>
      </trkpt>
      <trkpt lat="45.96984" lon="4.77901">
        <ele>227</ele>
        <time>2016-10-04T11:18:40Z</time>
      </trkpt>
      <trkpt lat="45.96979" lon="4.77894">
        <ele>228</ele>
        <time>2016-10-04T11:18:41Z</time>
      </trkpt>
      <trkpt lat="45.96973" lon="4.77887">
        <ele>228</ele>
        <time>2016-10-04T11:18:42Z</time>
      </trkpt>
      <trkpt lat="45.96967" lon="4.77881">
        <ele>228</ele>
        <time>2016-10-04T11:18:43Z</time>
      </trkpt>
      <trkpt lat="45.96962" lon="4.77874">
        <ele>228</ele>
        <time>2016-10-04T11:18:44Z</time>
      </trkpt>
      <trkpt lat="45.96956" lon="4.77867">
        <ele>228</ele>
        <time>2016-10-04T11:18:45Z</time>
      </trkpt>
      <trkpt lat="45.9695" lon="4.77861">
        <ele>228</ele>
        <time>2016-10-04T11:18:46Z</time>
      </trkpt>
      <trkpt lat="45.96945" lon="4.77854">
        <ele>228</ele>
        <time>2016-10-04T11:18:47Z</time>
      </trkpt>
      <trkpt lat="45.96939" lon="4.77848">
        <ele>228</ele>
        <time>2016-10-04T11:18:48Z</time>
      </trkpt>
      <trkpt lat="45.96934" lon="4.77841">
        <ele>228</ele>
        <time>2016-10-04T11:18:49Z</time>
      </trkpt>
      <trkpt lat="45.96929" lon="4.77835">
        <ele>228</ele>
        <time>2016-10-04T11:18:50Z</time>
      </trkpt>
      <trkpt lat="45.96923" lon="4.7783">
        <ele>228</ele>
        <time>2016-10-04T11:18:51Z</time>
      </trkpt>
      <trkpt lat="45.96918" lon="4.77824">
        <ele>228</ele>
        <time>2016-10-04T11:18:52Z</time>
      </trkpt>
      <trkpt lat="45.96913" lon="4.77818">
        <ele>228</ele>
        <time>2016-10-04T11:18:53Z</time>
      </trkpt>
      <trkpt lat="45.96907" lon="4.77813">
        <ele>228</ele>
        <time>2016-10-04T11:18:54Z</time>
      </trkpt>
      <trkpt lat="45.96902" lon="4.77807">
        <ele>228</ele>
        <time>2016-10-04T11:18:55Z</time>
      </trkpt>
      <trkpt lat="45.96896" lon="4.77801">
        <ele>228</ele>
        <time>2016-10-04T11:18:56Z</time>
      </trkpt>
      <trkpt lat="45.9689" lon="4.77795">
        <ele>228</ele>
        <time>2016-10-04T11:18:57Z</time>
      </trkpt>
      <trkpt lat="45.96883" lon="4.77789">
        <ele>228</ele>
        <time>2016-10-04T11:18:58Z</time>
      </trkpt>
      <trkpt lat="45.96877" lon="4.77782">
        <ele>228</ele>
        <time>2016-10-04T11:18:59Z</time>
      </trkpt>
      <trkpt lat="45.9687" lon="4.77776">
        <ele>228</ele>
        <time>2016-10-04T11:19:00Z</time>
      </trkpt>
      <trkpt lat="45.96864" lon="4.77769">
        <ele>228</ele>
        <time>2016-10-04T11:19:01Z</time>
      </trkpt>
      <trkpt lat="45.96858" lon="4.77763">
        <ele>228</ele>
        <time>2016-10-04T11:19:02Z</time>
      </trkpt>
      <trkpt lat="45.96852" lon="4.77757">
        <ele>228</ele>
        <time>2016-10-04T11:19:03Z</time>
      </trkpt>
      <trkpt lat="45.96846" lon="4.77751">
        <ele>228</ele>
        <time>2016-10-04T11:19:04Z</time>
      </trkpt>
      <trkpt lat="45.96841" lon="4.77745">
        <ele>228</ele>
        <time>2016-10-04T11:19:05Z</time>
      </trkpt>
      <trkpt lat="45.96835" lon="4.77739">
        <ele>228</ele>
        <time>2016-10-04T11:19:06Z</time>
      </trkpt>
      <trkpt lat="45.9683" lon="4.77733">
        <ele>228</ele>
        <time>2016-10-04T11:19:07Z</time>
      </trkpt>
      <trkpt lat="45.96824" lon="4.77727">
        <ele>228</ele>
        <time>2016-10-04T11:19:08Z</time>
      </trkpt>
      <trkpt lat="45.96818" lon="4.77721">
        <ele>228</ele>
        <time>2016-10-04T11:19:09Z</time>
      </trkpt>
      <trkpt lat="45.96812" lon="4.77715">
        <ele>228</ele>
        <time>2016-10-04T11:19:10Z</time>
      </trkpt>
      <trkpt lat="45.96806" lon="4.77708">
        <ele>228</ele>
        <time>2016-10-04T11:19:11Z</time>
      </trkpt>
      <trkpt lat="45.968" lon="4.77701">
        <ele>228</ele>
        <time>2016-10-04T11:19:12Z</time>
      </trkpt>
      <trkpt lat="45.96793" lon="4.77694">
        <ele>228</ele>
        <time>2016-10-04T11:19:13Z</time>
      </trkpt>
      <trkpt lat="45.96788" lon="4.77687">
        <ele>227</ele>
        <time>2016-10-04T11:19:14Z</time>
      </trkpt>
      <trkpt lat="45.96782" lon="4.77681">
        <ele>227</ele>
        <time>2016-10-04T11:19:15Z</time>
      </trkpt>
      <trkpt lat="45.96777" lon="4.77674">
        <ele>227</ele>
        <time>2016-10-04T11:19:16Z</time>
      </trkpt>
      <trkpt lat="45.96771" lon="4.77667">
        <ele>227</ele>
        <time>2016-10-04T11:19:17Z</time>
      </trkpt>
      <trkpt lat="45.96766" lon="4.7766">
        <ele>227</ele>
        <time>2016-10-04T11:19:18Z</time>
      </trkpt>
      <trkpt lat="45.96761" lon="4.77653">
        <ele>227</ele>
        <time>2016-10-04T11:19:19Z</time>
      </trkpt>
      <trkpt lat="45.96757" lon="4.77646">
        <ele>228</ele>
        <time>2016-10-04T11:19:20Z</time>
      </trkpt>
      <trkpt lat="45.96752" lon="4.77641">
        <ele>228</ele>
        <time>2016-10-04T11:19:21Z</time>
      </trkpt>
      <trkpt lat="45.96747" lon="4.77635">
        <ele>227</ele>
        <time>2016-10-04T11:19:22Z</time>
      </trkpt>
      <trkpt lat="45.96742" lon="4.77629">
        <ele>227</ele>
        <time>2016-10-04T11:19:23Z</time>
      </trkpt>
      <trkpt lat="45.96737" lon="4.77623">
        <ele>226</ele>
        <time>2016-10-04T11:19:24Z</time>
      </trkpt>
      <trkpt lat="45.96732" lon="4.77617">
        <ele>226</ele>
        <time>2016-10-04T11:19:25Z</time>
      </trkpt>
      <trkpt lat="45.96727" lon="4.77611">
        <ele>226</ele>
        <time>2016-10-04T11:19:26Z</time>
      </trkpt>
      <trkpt lat="45.96722" lon="4.77606">
        <ele>226</ele>
        <time>2016-10-04T11:19:27Z</time>
      </trkpt>
      <trkpt lat="45.96717" lon="4.776">
        <ele>226</ele>
        <time>2016-10-04T11:19:28Z</time>
      </trkpt>
      <trkpt lat="45.96711" lon="4.77594">
        <ele>226</ele>
        <time>2016-10-04T11:19:29Z</time>
      </trkpt>
      <trkpt lat="45.96705" lon="4.77588">
        <ele>226</ele>
        <time>2016-10-04T11:19:30Z</time>
      </trkpt>
      <trkpt lat="45.96699" lon="4.77582">
        <ele>226</ele>
        <time>2016-10-04T11:19:31Z</time>
      </trkpt>
      <trkpt lat="45.96693" lon="4.77576">
        <ele>225</ele>
        <time>2016-10-04T11:19:32Z</time>
      </trkpt>
      <trkpt lat="45.96686" lon="4.77571">
        <ele>225</ele>
        <time>2016-10-04T11:19:33Z</time>
      </trkpt>
      <trkpt lat="45.9668" lon="4.77566">
        <ele>225</ele>
        <time>2016-10-04T11:19:34Z</time>
      </trkpt>
      <trkpt lat="45.96674" lon="4.7756">
        <ele>225</ele>
        <time>2016-10-04T11:19:35Z</time>
      </trkpt>
      <trkpt lat="45.96667" lon="4.77556">
        <ele>225</ele>
        <time>2016-10-04T11:19:36Z</time>
      </trkpt>
      <trkpt lat="45.96661" lon="4.77552">
        <ele>224</ele>
        <time>2016-10-04T11:19:37Z</time>
      </trkpt>
      <trkpt lat="45.96654" lon="4.77547">
        <ele>224</ele>
        <time>2016-10-04T11:19:38Z</time>
      </trkpt>
      <trkpt lat="45.96648" lon="4.77543">
        <ele>224</ele>
        <time>2016-10-04T11:19:39Z</time>
      </trkpt>
      <trkpt lat="45.96642" lon="4.77539">
        <ele>224</ele>
        <time>2016-10-04T11:19:40Z</time>
      </trkpt>
      <trkpt lat="45.96636" lon="4.77535">
        <ele>224</ele>
        <time>2016-10-04T11:19:41Z</time>
      </trkpt>
      <trkpt lat="45.9663" lon="4.77531">
        <ele>224</ele>
        <time>2016-10-04T11:19:42Z</time>
      </trkpt>
      <trkpt lat="45.96624" lon="4.77528">
        <ele>224</ele>
        <time>2016-10-04T11:19:43Z</time>
      </trkpt>
      <trkpt lat="45.96618" lon="4.77524">
        <ele>224</ele>
        <time>2016-10-04T11:19:44Z</time>
      </trkpt>
      <trkpt lat="45.96612" lon="4.77521">
        <ele>224</ele>
        <time>2016-10-04T11:19:45Z</time>
      </trkpt>
      <trkpt lat="45.96606" lon="4.77516">
        <ele>224</ele>
        <time>2016-10-04T11:19:46Z</time>
      </trkpt>
      <trkpt lat="45.966" lon="4.77512">
        <ele>224</ele>
        <time>2016-10-04T11:19:47Z</time>
      </trkpt>
      <trkpt lat="45.96595" lon="4.77507">
        <ele>224</ele>
        <time>2016-10-04T11:19:48Z</time>
      </trkpt>
      <trkpt lat="45.96588" lon="4.77503">
        <ele>224</ele>
        <time>2016-10-04T11:19:49Z</time>
      </trkpt>
      <trkpt lat="45.96582" lon="4.77499">
        <ele>224</ele>
        <time>2016-10-04T11:19:50Z</time>
      </trkpt>
      <trkpt lat="45.96576" lon="4.77495">
        <ele>224</ele>
        <time>2016-10-04T11:19:51Z</time>
      </trkpt>
      <trkpt lat="45.96569" lon="4.7749">
        <ele>224</ele>
        <time>2016-10-04T11:19:52Z</time>
      </trkpt>
      <trkpt lat="45.96561" lon="4.77486">
        <ele>224</ele>
        <time>2016-10-04T11:19:53Z</time>
      </trkpt>
      <trkpt lat="45.96554" lon="4.77481">
        <ele>224</ele>
        <time>2016-10-04T11:19:54Z</time>
      </trkpt>
      <trkpt lat="45.96547" lon="4.77476">
        <ele>223</ele>
        <time>2016-10-04T11:19:55Z</time>
      </trkpt>
      <trkpt lat="45.9654" lon="4.77472">
        <ele>223</ele>
        <time>2016-10-04T11:19:56Z</time>
      </trkpt>
      <trkpt lat="45.96533" lon="4.77467">
        <ele>223</ele>
        <time>2016-10-04T11:19:57Z</time>
      </trkpt>
      <trkpt lat="45.96525" lon="4.77463">
        <ele>223</ele>
        <time>2016-10-04T11:19:58Z</time>
      </trkpt>
      <trkpt lat="45.96518" lon="4.77458">
        <ele>223</ele>
        <time>2016-10-04T11:19:59Z</time>
      </trkpt>
      <trkpt lat="45.96511" lon="4.77453">
        <ele>223</ele>
        <time>2016-10-04T11:20:00Z</time>
      </trkpt>
      <trkpt lat="45.96504" lon="4.77449">
        <ele>223</ele>
        <time>2016-10-04T11:20:01Z</time>
      </trkpt>
      <trkpt lat="45.96497" lon="4.77445">
        <ele>222</ele>
        <time>2016-10-04T11:20:02Z</time>
      </trkpt>
      <trkpt lat="45.9649" lon="4.7744">
        <ele>222</ele>
        <time>2016-10-04T11:20:03Z</time>
      </trkpt>
      <trkpt lat="45.96483" lon="4.77436">
        <ele>222</ele>
        <time>2016-10-04T11:20:04Z</time>
      </trkpt>
      <trkpt lat="45.96477" lon="4.77431">
        <ele>222</ele>
        <time>2016-10-04T11:20:05Z</time>
      </trkpt>
      <trkpt lat="45.9647" lon="4.77427">
        <ele>221</ele>
        <time>2016-10-04T11:20:06Z</time>
      </trkpt>
      <trkpt lat="45.96463" lon="4.77423">
        <ele>221</ele>
        <time>2016-10-04T11:20:07Z</time>
      </trkpt>
      <trkpt lat="45.96455" lon="4.77419">
        <ele>221</ele>
        <time>2016-10-04T11:20:08Z</time>
      </trkpt>
      <trkpt lat="45.96448" lon="4.77414">
        <ele>222</ele>
        <time>2016-10-04T11:20:09Z</time>
      </trkpt>
      <trkpt lat="45.9644" lon="4.7741">
        <ele>222</ele>
        <time>2016-10-04T11:20:10Z</time>
      </trkpt>
      <trkpt lat="45.96433" lon="4.77406">
        <ele>222</ele>
        <time>2016-10-04T11:20:11Z</time>
      </trkpt>
      <trkpt lat="45.96426" lon="4.77402">
        <ele>222</ele>
        <time>2016-10-04T11:20:12Z</time>
      </trkpt>
      <trkpt lat="45.96419" lon="4.77397">
        <ele>222</ele>
        <time>2016-10-04T11:20:13Z</time>
      </trkpt>
      <trkpt lat="45.96411" lon="4.77392">
        <ele>220</ele>
        <time>2016-10-04T11:20:14Z</time>
      </trkpt>
      <trkpt lat="45.96404" lon="4.77388">
        <ele>220</ele>
        <time>2016-10-04T11:20:15Z</time>
      </trkpt>
      <trkpt lat="45.96398" lon="4.77384">
        <ele>220</ele>
        <time>2016-10-04T11:20:16Z</time>
      </trkpt>
      <trkpt lat="45.96391" lon="4.77379">
        <ele>220</ele>
        <time>2016-10-04T11:20:17Z</time>
      </trkpt>
      <trkpt lat="45.96384" lon="4.77375">
        <ele>220</ele>
        <time>2016-10-04T11:20:18Z</time>
      </trkpt>
      <trkpt lat="45.96377" lon="4.77371">
        <ele>220</ele>
        <time>2016-10-04T11:20:19Z</time>
      </trkpt>
      <trkpt lat="45.96372" lon="4.77371">
        <ele>220</ele>
        <time>2016-10-04T11:20:20Z</time>
      </trkpt>
      <trkpt lat="45.96365" lon="4.7737">
        <ele>219</ele>
        <time>2016-10-04T11:20:21Z</time>
      </trkpt>
      <trkpt lat="45.96355" lon="4.77366">
        <ele>219</ele>
        <time>2016-10-04T11:20:22Z</time>
      </trkpt>
      <trkpt lat="45.96348" lon="4.77361">
        <ele>219</ele>
        <time>2016-10-04T11:20:23Z</time>
      </trkpt>
      <trkpt lat="45.96341" lon="4.77354">
        <ele>219</ele>
        <time>2016-10-04T11:20:24Z</time>
      </trkpt>
      <trkpt lat="45.96334" lon="4.77349">
        <ele>220</ele>
        <time>2016-10-04T11:20:25Z</time>
      </trkpt>
      <trkpt lat="45.96326" lon="4.77344">
        <ele>218</ele>
        <time>2016-10-04T11:20:26Z</time>
      </trkpt>
      <trkpt lat="45.96318" lon="4.77339">
        <ele>218</ele>
        <time>2016-10-04T11:20:27Z</time>
      </trkpt>
      <trkpt lat="45.96311" lon="4.77335">
        <ele>218</ele>
        <time>2016-10-04T11:20:28Z</time>
      </trkpt>
      <trkpt lat="45.96304" lon="4.7733">
        <ele>219</ele>
        <time>2016-10-04T11:20:29Z</time>
      </trkpt>
      <trkpt lat="45.96297" lon="4.77326">
        <ele>219</ele>
        <time>2016-10-04T11:20:30Z</time>
      </trkpt>
      <trkpt lat="45.9629" lon="4.77322">
        <ele>219</ele>
        <time>2016-10-04T11:20:31Z</time>
      </trkpt>
      <trkpt lat="45.96282" lon="4.77318">
        <ele>219</ele>
        <time>2016-10-04T11:20:32Z</time>
      </trkpt>
      <trkpt lat="45.96275" lon="4.77314">
        <ele>219</ele>
        <time>2016-10-04T11:20:33Z</time>
      </trkpt>
      <trkpt lat="45.96267" lon="4.7731">
        <ele>219</ele>
        <time>2016-10-04T11:20:34Z</time>
      </trkpt>
      <trkpt lat="45.9626" lon="4.77307">
        <ele>219</ele>
        <time>2016-10-04T11:20:35Z</time>
      </trkpt>
      <trkpt lat="45.96253" lon="4.77302">
        <ele>219</ele>
        <time>2016-10-04T11:20:36Z</time>
      </trkpt>
      <trkpt lat="45.96246" lon="4.77298">
        <ele>217</ele>
        <time>2016-10-04T11:20:37Z</time>
      </trkpt>
      <trkpt lat="45.96238" lon="4.77294">
        <ele>217</ele>
        <time>2016-10-04T11:20:38Z</time>
      </trkpt>
      <trkpt lat="45.96231" lon="4.77289">
        <ele>217</ele>
        <time>2016-10-04T11:20:39Z</time>
      </trkpt>
      <trkpt lat="45.96223" lon="4.77285">
        <ele>217</ele>
        <time>2016-10-04T11:20:40Z</time>
      </trkpt>
      <trkpt lat="45.96215" lon="4.77281">
        <ele>217</ele>
        <time>2016-10-04T11:20:41Z</time>
      </trkpt>
      <trkpt lat="45.96209" lon="4.77276">
        <ele>217</ele>
        <time>2016-10-04T11:20:42Z</time>
      </trkpt>
      <trkpt lat="45.96202" lon="4.77271">
        <ele>217</ele>
        <time>2016-10-04T11:20:43Z</time>
      </trkpt>
      <trkpt lat="45.96195" lon="4.77267">
        <ele>216</ele>
        <time>2016-10-04T11:20:44Z</time>
      </trkpt>
      <trkpt lat="45.96187" lon="4.77263">
        <ele>216</ele>
        <time>2016-10-04T11:20:45Z</time>
      </trkpt>
      <trkpt lat="45.96181" lon="4.77259">
        <ele>216</ele>
        <time>2016-10-04T11:20:46Z</time>
      </trkpt>
      <trkpt lat="45.96173" lon="4.77256">
        <ele>216</ele>
        <time>2016-10-04T11:20:47Z</time>
      </trkpt>
      <trkpt lat="45.96166" lon="4.77252">
        <ele>216</ele>
        <time>2016-10-04T11:20:48Z</time>
      </trkpt>
      <trkpt lat="45.96158" lon="4.77247">
        <ele>216</ele>
        <time>2016-10-04T11:20:49Z</time>
      </trkpt>
      <trkpt lat="45.96151" lon="4.77244">
        <ele>215</ele>
        <time>2016-10-04T11:20:50Z</time>
      </trkpt>
      <trkpt lat="45.96143" lon="4.77242">
        <ele>215</ele>
        <time>2016-10-04T11:20:51Z</time>
      </trkpt>
      <trkpt lat="45.96136" lon="4.7724">
        <ele>215</ele>
        <time>2016-10-04T11:20:52Z</time>
      </trkpt>
      <trkpt lat="45.96129" lon="4.77239">
        <ele>215</ele>
        <time>2016-10-04T11:20:53Z</time>
      </trkpt>
      <trkpt lat="45.96121" lon="4.77238">
        <ele>214</ele>
        <time>2016-10-04T11:20:54Z</time>
      </trkpt>
      <trkpt lat="45.96113" lon="4.77238">
        <ele>214</ele>
        <time>2016-10-04T11:20:55Z</time>
      </trkpt>
      <trkpt lat="45.96106" lon="4.77238">
        <ele>213</ele>
        <time>2016-10-04T11:20:56Z</time>
      </trkpt>
      <trkpt lat="45.96097" lon="4.77238">
        <ele>213</ele>
        <time>2016-10-04T11:20:57Z</time>
      </trkpt>
      <trkpt lat="45.9609" lon="4.77238">
        <ele>212</ele>
        <time>2016-10-04T11:20:58Z</time>
      </trkpt>
      <trkpt lat="45.96082" lon="4.77238">
        <ele>210</ele>
        <time>2016-10-04T11:20:59Z</time>
      </trkpt>
      <trkpt lat="45.96076" lon="4.77236">
        <ele>210</ele>
        <time>2016-10-04T11:21:00Z</time>
      </trkpt>
      <trkpt lat="45.9607" lon="4.77231">
        <ele>210</ele>
        <time>2016-10-04T11:21:01Z</time>
      </trkpt>
      <trkpt lat="45.96056" lon="4.7723">
        <ele>209</ele>
        <time>2016-10-04T11:21:02Z</time>
      </trkpt>
      <trkpt lat="45.96046" lon="4.77232">
        <ele>209</ele>
        <time>2016-10-04T11:21:03Z</time>
      </trkpt>
      <trkpt lat="45.96037" lon="4.77234">
        <ele>208</ele>
        <time>2016-10-04T11:21:04Z</time>
      </trkpt>
      <trkpt lat="45.96028" lon="4.77235">
        <ele>208</ele>
        <time>2016-10-04T11:21:05Z</time>
      </trkpt>
      <trkpt lat="45.96019" lon="4.77235">
        <ele>207</ele>
        <time>2016-10-04T11:21:06Z</time>
      </trkpt>
      <trkpt lat="45.9601" lon="4.77236">
        <ele>206</ele>
        <time>2016-10-04T11:21:07Z</time>
      </trkpt>
      <trkpt lat="45.96" lon="4.77236">
        <ele>206</ele>
        <time>2016-10-04T11:21:08Z</time>
      </trkpt>
      <trkpt lat="45.95991" lon="4.77233">
        <ele>202</ele>
        <time>2016-10-04T11:21:09Z</time>
      </trkpt>
      <trkpt lat="45.95982" lon="4.77228">
        <ele>202</ele>
        <time>2016-10-04T11:21:10Z</time>
      </trkpt>
      <trkpt lat="45.95974" lon="4.77221">
        <ele>202</ele>
        <time>2016-10-04T11:21:11Z</time>
      </trkpt>
      <trkpt lat="45.95966" lon="4.77213">
        <ele>202</ele>
        <time>2016-10-04T11:21:12Z</time>
      </trkpt>
      <trkpt lat="45.9596" lon="4.77203">
        <ele>201</ele>
        <time>2016-10-04T11:21:13Z</time>
      </trkpt>
      <trkpt lat="45.95953" lon="4.7719">
        <ele>201</ele>
        <time>2016-10-04T11:21:14Z</time>
      </trkpt>
      <trkpt lat="45.95949" lon="4.77178">
        <ele>201</ele>
        <time>2016-10-04T11:21:15Z</time>
      </trkpt>
      <trkpt lat="45.95944" lon="4.77165">
        <ele>201</ele>
        <time>2016-10-04T11:21:16Z</time>
      </trkpt>
      <trkpt lat="45.9594" lon="4.77153">
        <ele>201</ele>
        <time>2016-10-04T11:21:17Z</time>
      </trkpt>
      <trkpt lat="45.95938" lon="4.7714">
        <ele>201</ele>
        <time>2016-10-04T11:21:18Z</time>
      </trkpt>
      <trkpt lat="45.95938" lon="4.77127">
        <ele>201</ele>
        <time>2016-10-04T11:21:19Z</time>
      </trkpt>
      <trkpt lat="45.95938" lon="4.77115">
        <ele>201</ele>
        <time>2016-10-04T11:21:20Z</time>
      </trkpt>
      <trkpt lat="45.9594" lon="4.77102">
        <ele>201</ele>
        <time>2016-10-04T11:21:21Z</time>
      </trkpt>
      <trkpt lat="45.95943" lon="4.7709">
        <ele>201</ele>
        <time>2016-10-04T11:21:22Z</time>
      </trkpt>
      <trkpt lat="45.95947" lon="4.77078">
        <ele>200</ele>
        <time>2016-10-04T11:21:23Z</time>
      </trkpt>
      <trkpt lat="45.95951" lon="4.77066">
        <ele>200</ele>
        <time>2016-10-04T11:21:24Z</time>
      </trkpt>
      <trkpt lat="45.95956" lon="4.77056">
        <ele>200</ele>
        <time>2016-10-04T11:21:25Z</time>
      </trkpt>
      <trkpt lat="45.95961" lon="4.77045">
        <ele>200</ele>
        <time>2016-10-04T11:21:26Z</time>
      </trkpt>
      <trkpt lat="45.95966" lon="4.77034">
        <ele>200</ele>
        <time>2016-10-04T11:21:27Z</time>
      </trkpt>
      <trkpt lat="45.9597" lon="4.77023">
        <ele>200</ele>
        <time>2016-10-04T11:21:28Z</time>
      </trkpt>
      <trkpt lat="45.95974" lon="4.77013">
        <ele>200</ele>
        <time>2016-10-04T11:21:29Z</time>
      </trkpt>
      <trkpt lat="45.95978" lon="4.77002">
        <ele>200</ele>
        <time>2016-10-04T11:21:30Z</time>
      </trkpt>
      <trkpt lat="45.95981" lon="4.76991">
        <ele>198</ele>
        <time>2016-10-04T11:21:31Z</time>
      </trkpt>
      <trkpt lat="45.95985" lon="4.7698">
        <ele>197</ele>
        <time>2016-10-04T11:21:32Z</time>
      </trkpt>
      <trkpt lat="45.95985" lon="4.76967">
        <ele>197</ele>
        <time>2016-10-04T11:21:33Z</time>
      </trkpt>
      <trkpt lat="45.95984" lon="4.76954">
        <ele>196</ele>
        <time>2016-10-04T11:21:34Z</time>
      </trkpt>
      <trkpt lat="45.9598" lon="4.76943">
        <ele>196</ele>
        <time>2016-10-04T11:21:35Z</time>
      </trkpt>
      <trkpt lat="45.95975" lon="4.76932">
        <ele>196</ele>
        <time>2016-10-04T11:21:36Z</time>
      </trkpt>
      <trkpt lat="45.95968" lon="4.76923">
        <ele>195</ele>
        <time>2016-10-04T11:21:37Z</time>
      </trkpt>
      <trkpt lat="45.9596" lon="4.76915">
        <ele>193</ele>
        <time>2016-10-04T11:21:38Z</time>
      </trkpt>
      <trkpt lat="45.95953" lon="4.76907">
        <ele>193</ele>
        <time>2016-10-04T11:21:39Z</time>
      </trkpt>
      <trkpt lat="45.95945" lon="4.76899">
        <ele>192</ele>
        <time>2016-10-04T11:21:40Z</time>
      </trkpt>
      <trkpt lat="45.95937" lon="4.76891">
        <ele>192</ele>
        <time>2016-10-04T11:21:41Z</time>
      </trkpt>
      <trkpt lat="45.95929" lon="4.76883">
        <ele>192</ele>
        <time>2016-10-04T11:21:42Z</time>
      </trkpt>
      <trkpt lat="45.95921" lon="4.76875">
        <ele>192</ele>
        <time>2016-10-04T11:21:43Z</time>
      </trkpt>
      <trkpt lat="45.95914" lon="4.76866">
        <ele>191</ele>
        <time>2016-10-04T11:21:44Z</time>
      </trkpt>
      <trkpt lat="45.95906" lon="4.76857">
        <ele>191</ele>
        <time>2016-10-04T11:21:45Z</time>
      </trkpt>
      <trkpt lat="45.95899" lon="4.76848">
        <ele>191</ele>
        <time>2016-10-04T11:21:46Z</time>
      </trkpt>
      <trkpt lat="45.95891" lon="4.7684">
        <ele>191</ele>
        <time>2016-10-04T11:21:47Z</time>
      </trkpt>
      <trkpt lat="45.95883" lon="4.76831">
        <ele>191</ele>
        <time>2016-10-04T11:21:48Z</time>
      </trkpt>
      <trkpt lat="45.95876" lon="4.76823">
        <ele>191</ele>
        <time>2016-10-04T11:21:49Z</time>
      </trkpt>
      <trkpt lat="45.95869" lon="4.76814">
        <ele>191</ele>
        <time>2016-10-04T11:21:50Z</time>
      </trkpt>
      <trkpt lat="45.95862" lon="4.76807">
        <ele>191</ele>
        <time>2016-10-04T11:21:51Z</time>
      </trkpt>
      <trkpt lat="45.95855" lon="4.768">
        <ele>191</ele>
        <time>2016-10-04T11:21:52Z</time>
      </trkpt>
      <trkpt lat="45.95848" lon="4.76792">
        <ele>191</ele>
        <time>2016-10-04T11:21:53Z</time>
      </trkpt>
      <trkpt lat="45.95842" lon="4.76784">
        <ele>191</ele>
        <time>2016-10-04T11:21:54Z</time>
      </trkpt>
      <trkpt lat="45.95837" lon="4.76775">
        <ele>191</ele>
        <time>2016-10-04T11:21:55Z</time>
      </trkpt>
      <trkpt lat="45.95835" lon="4.76766">
        <ele>191</ele>
        <time>2016-10-04T11:21:56Z</time>
      </trkpt>
      <trkpt lat="45.95833" lon="4.76756">
        <ele>191</ele>
        <time>2016-10-04T11:21:57Z</time>
      </trkpt>
      <trkpt lat="45.95831" lon="4.76745">
        <ele>191</ele>
        <time>2016-10-04T11:21:58Z</time>
      </trkpt>
      <trkpt lat="45.95829" lon="4.76734">
        <ele>190</ele>
        <time>2016-10-04T11:21:59Z</time>
      </trkpt>
      <trkpt lat="45.95827" lon="4.76722">
        <ele>190</ele>
        <time>2016-10-04T11:22:00Z</time>
      </trkpt>
      <trkpt lat="45.95826" lon="4.76711">
        <ele>189</ele>
        <time>2016-10-04T11:22:01Z</time>
      </trkpt>
      <trkpt lat="45.95824" lon="4.767">
        <ele>189</ele>
        <time>2016-10-04T11:22:02Z</time>
      </trkpt>
      <trkpt lat="45.95823" lon="4.7669">
        <ele>189</ele>
        <time>2016-10-04T11:22:03Z</time>
      </trkpt>
      <trkpt lat="45.95822" lon="4.7668">
        <ele>189</ele>
        <time>2016-10-04T11:22:04Z</time>
      </trkpt>
      <trkpt lat="45.95818" lon="4.76669">
        <ele>188</ele>
        <time>2016-10-04T11:22:05Z</time>
      </trkpt>
      <trkpt lat="45.95816" lon="4.76659">
        <ele>188</ele>
        <time>2016-10-04T11:22:06Z</time>
      </trkpt>
      <trkpt lat="45.95815" lon="4.7665">
        <ele>188</ele>
        <time>2016-10-04T11:22:07Z</time>
      </trkpt>
      <trkpt lat="45.95815" lon="4.7664">
        <ele>188</ele>
        <time>2016-10-04T11:22:08Z</time>
      </trkpt>
      <trkpt lat="45.95813" lon="4.76631">
        <ele>188</ele>
        <time>2016-10-04T11:22:09Z</time>
      </trkpt>
      <trkpt lat="45.95812" lon="4.76621">
        <ele>188</ele>
        <time>2016-10-04T11:22:10Z</time>
      </trkpt>
      <trkpt lat="45.95811" lon="4.76611">
        <ele>188</ele>
        <time>2016-10-04T11:22:11Z</time>
      </trkpt>
      <trkpt lat="45.9581" lon="4.76602">
        <ele>188</ele>
        <time>2016-10-04T11:22:12Z</time>
      </trkpt>
      <trkpt lat="45.95809" lon="4.76592">
        <ele>188</ele>
        <time>2016-10-04T11:22:13Z</time>
      </trkpt>
      <trkpt lat="45.95807" lon="4.76582">
        <ele>187</ele>
        <time>2016-10-04T11:22:14Z</time>
      </trkpt>
      <trkpt lat="45.95806" lon="4.76572">
        <ele>187</ele>
        <time>2016-10-04T11:22:15Z</time>
      </trkpt>
      <trkpt lat="45.95805" lon="4.76562">
        <ele>187</ele>
        <time>2016-10-04T11:22:16Z</time>
      </trkpt>
      <trkpt lat="45.95803" lon="4.76552">
        <ele>187</ele>
        <time>2016-10-04T11:22:17Z</time>
      </trkpt>
      <trkpt lat="45.95802" lon="4.76542">
        <ele>187</ele>
        <time>2016-10-04T11:22:18Z</time>
      </trkpt>
      <trkpt lat="45.95801" lon="4.76533">
        <ele>187</ele>
        <time>2016-10-04T11:22:19Z</time>
      </trkpt>
      <trkpt lat="45.958" lon="4.76523">
        <ele>187</ele>
        <time>2016-10-04T11:22:20Z</time>
      </trkpt>
      <trkpt lat="45.95799" lon="4.76514">
        <ele>187</ele>
        <time>2016-10-04T11:22:21Z</time>
      </trkpt>
      <trkpt lat="45.95797" lon="4.76506">
        <ele>187</ele>
        <time>2016-10-04T11:22:22Z</time>
      </trkpt>
      <trkpt lat="45.95796" lon="4.76497">
        <ele>187</ele>
        <time>2016-10-04T11:22:23Z</time>
      </trkpt>
      <trkpt lat="45.95795" lon="4.76489">
        <ele>187</ele>
        <time>2016-10-04T11:22:24Z</time>
      </trkpt>
      <trkpt lat="45.95794" lon="4.7648">
        <ele>187</ele>
        <time>2016-10-04T11:22:25Z</time>
      </trkpt>
      <trkpt lat="45.95792" lon="4.76471">
        <ele>187</ele>
        <time>2016-10-04T11:22:26Z</time>
      </trkpt>
      <trkpt lat="45.95791" lon="4.76461">
        <ele>186</ele>
        <time>2016-10-04T11:22:27Z</time>
      </trkpt>
      <trkpt lat="45.9579" lon="4.76452">
        <ele>186</ele>
        <time>2016-10-04T11:22:28Z</time>
      </trkpt>
      <trkpt lat="45.95788" lon="4.76442">
        <ele>186</ele>
        <time>2016-10-04T11:22:29Z</time>
      </trkpt>
      <trkpt lat="45.95787" lon="4.76432">
        <ele>186</ele>
        <time>2016-10-04T11:22:30Z</time>
      </trkpt>
      <trkpt lat="45.95786" lon="4.76422">
        <ele>186</ele>
        <time>2016-10-04T11:22:31Z</time>
      </trkpt>
      <trkpt lat="45.95785" lon="4.76411">
        <ele>186</ele>
        <time>2016-10-04T11:22:32Z</time>
      </trkpt>
      <trkpt lat="45.95783" lon="4.76401">
        <ele>186</ele>
        <time>2016-10-04T11:22:33Z</time>
      </trkpt>
      <trkpt lat="45.95782" lon="4.7639">
        <ele>186</ele>
        <time>2016-10-04T11:22:34Z</time>
      </trkpt>
      <trkpt lat="45.95781" lon="4.7638">
        <ele>186</ele>
        <time>2016-10-04T11:22:35Z</time>
      </trkpt>
      <trkpt lat="45.9578" lon="4.76371">
        <ele>186</ele>
        <time>2016-10-04T11:22:36Z</time>
      </trkpt>
      <trkpt lat="45.95779" lon="4.76361">
        <ele>186</ele>
        <time>2016-10-04T11:22:37Z</time>
      </trkpt>
      <trkpt lat="45.95779" lon="4.76352">
        <ele>186</ele>
        <time>2016-10-04T11:22:38Z</time>
      </trkpt>
      <trkpt lat="45.95779" lon="4.76343">
        <ele>186</ele>
        <time>2016-10-04T11:22:39Z</time>
      </trkpt>
      <trkpt lat="45.95778" lon="4.76335">
        <ele>186</ele>
        <time>2016-10-04T11:22:40Z</time>
      </trkpt>
      <trkpt lat="45.95777" lon="4.76326">
        <ele>186</ele>
        <time>2016-10-04T11:22:41Z</time>
      </trkpt>
      <trkpt lat="45.95777" lon="4.76318">
        <ele>186</ele>
        <time>2016-10-04T11:22:42Z</time>
      </trkpt>
      <trkpt lat="45.95776" lon="4.76309">
        <ele>186</ele>
        <time>2016-10-04T11:22:43Z</time>
      </trkpt>
      <trkpt lat="45.95775" lon="4.763">
        <ele>186</ele>
        <time>2016-10-04T11:22:44Z</time>
      </trkpt>
      <trkpt lat="45.95775" lon="4.7629">
        <ele>186</ele>
        <time>2016-10-04T11:22:45Z</time>
      </trkpt>
      <trkpt lat="45.95774" lon="4.76281">
        <ele>186</ele>
        <time>2016-10-04T11:22:46Z</time>
      </trkpt>
      <trkpt lat="45.95774" lon="4.76273">
        <ele>186</ele>
        <time>2016-10-04T11:22:47Z</time>
      </trkpt>
      <trkpt lat="45.95773" lon="4.76264">
        <ele>186</ele>
        <time>2016-10-04T11:22:48Z</time>
      </trkpt>
      <trkpt lat="45.95772" lon="4.76255">
        <ele>186</ele>
        <time>2016-10-04T11:22:49Z</time>
      </trkpt>
      <trkpt lat="45.95772" lon="4.76246">
        <ele>186</ele>
        <time>2016-10-04T11:22:50Z</time>
      </trkpt>
      <trkpt lat="45.95771" lon="4.76237">
        <ele>186</ele>
        <time>2016-10-04T11:22:51Z</time>
      </trkpt>
      <trkpt lat="45.95771" lon="4.76228">
        <ele>186</ele>
        <time>2016-10-04T11:22:52Z</time>
      </trkpt>
      <trkpt lat="45.95771" lon="4.76219">
        <ele>186</ele>
        <time>2016-10-04T11:22:53Z</time>
      </trkpt>
      <trkpt lat="45.9577" lon="4.76209">
        <ele>186</ele>
        <time>2016-10-04T11:22:54Z</time>
      </trkpt>
      <trkpt lat="45.95769" lon="4.762">
        <ele>186</ele>
        <time>2016-10-04T11:22:55Z</time>
      </trkpt>
      <trkpt lat="45.95769" lon="4.7619">
        <ele>186</ele>
        <time>2016-10-04T11:22:56Z</time>
      </trkpt>
      <trkpt lat="45.95769" lon="4.7618">
        <ele>186</ele>
        <time>2016-10-04T11:22:57Z</time>
      </trkpt>
      <trkpt lat="45.95768" lon="4.76171">
        <ele>186</ele>
        <time>2016-10-04T11:22:58Z</time>
      </trkpt>
      <trkpt lat="45.95768" lon="4.76162">
        <ele>186</ele>
        <time>2016-10-04T11:22:59Z</time>
      </trkpt>
      <trkpt lat="45.95767" lon="4.76153">
        <ele>186</ele>
        <time>2016-10-04T11:23:00Z</time>
      </trkpt>
      <trkpt lat="45.95767" lon="4.76145">
        <ele>186</ele>
        <time>2016-10-04T11:23:01Z</time>
      </trkpt>
      <trkpt lat="45.95766" lon="4.76136">
        <ele>186</ele>
        <time>2016-10-04T11:23:02Z</time>
      </trkpt>
      <trkpt lat="45.95766" lon="4.76128">
        <ele>186</ele>
        <time>2016-10-04T11:23:03Z</time>
      </trkpt>
      <trkpt lat="45.95765" lon="4.7612">
        <ele>186</ele>
        <time>2016-10-04T11:23:04Z</time>
      </trkpt>
      <trkpt lat="45.95764" lon="4.76111">
        <ele>186</ele>
        <time>2016-10-04T11:23:05Z</time>
      </trkpt>
      <trkpt lat="45.95762" lon="4.76103">
        <ele>186</ele>
        <time>2016-10-04T11:23:06Z</time>
      </trkpt>
      <trkpt lat="45.95759" lon="4.76095">
        <ele>186</ele>
        <time>2016-10-04T11:23:07Z</time>
      </trkpt>
      <trkpt lat="45.95757" lon="4.76086">
        <ele>185</ele>
        <time>2016-10-04T11:23:08Z</time>
      </trkpt>
      <trkpt lat="45.95754" lon="4.76078">
        <ele>186</ele>
        <time>2016-10-04T11:23:09Z</time>
      </trkpt>
      <trkpt lat="45.9575" lon="4.7607">
        <ele>186</ele>
        <time>2016-10-04T11:23:10Z</time>
      </trkpt>
      <trkpt lat="45.95746" lon="4.76062">
        <ele>185</ele>
        <time>2016-10-04T11:23:11Z</time>
      </trkpt>
      <trkpt lat="45.95742" lon="4.76055">
        <ele>184</ele>
        <time>2016-10-04T11:23:12Z</time>
      </trkpt>
      <trkpt lat="45.9574" lon="4.76046">
        <ele>184</ele>
        <time>2016-10-04T11:23:13Z</time>
      </trkpt>
      <trkpt lat="45.95738" lon="4.76037">
        <ele>185</ele>
        <time>2016-10-04T11:23:14Z</time>
      </trkpt>
      <trkpt lat="45.95735" lon="4.76031">
        <ele>185</ele>
        <time>2016-10-04T11:23:15Z</time>
      </trkpt>
      <trkpt lat="45.95732" lon="4.76024">
        <ele>185</ele>
        <time>2016-10-04T11:23:16Z</time>
      </trkpt>
      <trkpt lat="45.95728" lon="4.76017">
        <ele>185</ele>
        <time>2016-10-04T11:23:17Z</time>
      </trkpt>
      <trkpt lat="45.95724" lon="4.7601">
        <ele>185</ele>
        <time>2016-10-04T11:23:18Z</time>
      </trkpt>
      <trkpt lat="45.9572" lon="4.76002">
        <ele>185</ele>
        <time>2016-10-04T11:23:19Z</time>
      </trkpt>
      <trkpt lat="45.95715" lon="4.75995">
        <ele>185</ele>
        <time>2016-10-04T11:23:20Z</time>
      </trkpt>
      <trkpt lat="45.95712" lon="4.75987">
        <ele>185</ele>
        <time>2016-10-04T11:23:21Z</time>
      </trkpt>
      <trkpt lat="45.95708" lon="4.7598">
        <ele>185</ele>
        <time>2016-10-04T11:23:22Z</time>
      </trkpt>
      <trkpt lat="45.95705" lon="4.75973">
        <ele>185</ele>
        <time>2016-10-04T11:23:23Z</time>
      </trkpt>
      <trkpt lat="45.95702" lon="4.75966">
        <ele>185</ele>
        <time>2016-10-04T11:23:24Z</time>
      </trkpt>
      <trkpt lat="45.95699" lon="4.75959">
        <ele>185</ele>
        <time>2016-10-04T11:23:25Z</time>
      </trkpt>
      <trkpt lat="45.95695" lon="4.75952">
        <ele>185</ele>
        <time>2016-10-04T11:23:26Z</time>
      </trkpt>
      <trkpt lat="45.95691" lon="4.75949">
        <ele>185</ele>
        <time>2016-10-04T11:23:27Z</time>
      </trkpt>
      <trkpt lat="45.95687" lon="4.75944">
        <ele>185</ele>
        <time>2016-10-04T11:23:28Z</time>
      </trkpt>
      <trkpt lat="45.95684" lon="4.75937">
        <ele>185</ele>
        <time>2016-10-04T11:23:29Z</time>
      </trkpt>
      <trkpt lat="45.95681" lon="4.7593">
        <ele>185</ele>
        <time>2016-10-04T11:23:30Z</time>
      </trkpt>
      <trkpt lat="45.95679" lon="4.75924">
        <ele>185</ele>
        <time>2016-10-04T11:23:31Z</time>
      </trkpt>
      <trkpt lat="45.95677" lon="4.75916">
        <ele>185</ele>
        <time>2016-10-04T11:23:32Z</time>
      </trkpt>
      <trkpt lat="45.95674" lon="4.75909">
        <ele>185</ele>
        <time>2016-10-04T11:23:33Z</time>
      </trkpt>
      <trkpt lat="45.95671" lon="4.75901">
        <ele>185</ele>
        <time>2016-10-04T11:23:34Z</time>
      </trkpt>
      <trkpt lat="45.95668" lon="4.75893">
        <ele>186</ele>
        <time>2016-10-04T11:23:35Z</time>
      </trkpt>
      <trkpt lat="45.95666" lon="4.75885">
        <ele>184</ele>
        <time>2016-10-04T11:23:36Z</time>
      </trkpt>
      <trkpt lat="45.95663" lon="4.75877">
        <ele>184</ele>
        <time>2016-10-04T11:23:37Z</time>
      </trkpt>
      <trkpt lat="45.95661" lon="4.75868">
        <ele>184</ele>
        <time>2016-10-04T11:23:38Z</time>
      </trkpt>
      <trkpt lat="45.95659" lon="4.7586">
        <ele>184</ele>
        <time>2016-10-04T11:23:39Z</time>
      </trkpt>
      <trkpt lat="45.95657" lon="4.75851">
        <ele>185</ele>
        <time>2016-10-04T11:23:40Z</time>
      </trkpt>
      <trkpt lat="45.95654" lon="4.75842">
        <ele>185</ele>
        <time>2016-10-04T11:23:41Z</time>
      </trkpt>
      <trkpt lat="45.95652" lon="4.75832">
        <ele>185</ele>
        <time>2016-10-04T11:23:42Z</time>
      </trkpt>
      <trkpt lat="45.9565" lon="4.75824">
        <ele>185</ele>
        <time>2016-10-04T11:23:43Z</time>
      </trkpt>
      <trkpt lat="45.95648" lon="4.75815">
        <ele>185</ele>
        <time>2016-10-04T11:23:44Z</time>
      </trkpt>
      <trkpt lat="45.95645" lon="4.75807">
        <ele>185</ele>
        <time>2016-10-04T11:23:45Z</time>
      </trkpt>
      <trkpt lat="45.95644" lon="4.75799">
        <ele>185</ele>
        <time>2016-10-04T11:23:46Z</time>
      </trkpt>
      <trkpt lat="45.95643" lon="4.75791">
        <ele>185</ele>
        <time>2016-10-04T11:23:47Z</time>
      </trkpt>
      <trkpt lat="45.95642" lon="4.75783">
        <ele>186</ele>
        <time>2016-10-04T11:23:48Z</time>
      </trkpt>
      <trkpt lat="45.95641" lon="4.75776">
        <ele>186</ele>
        <time>2016-10-04T11:23:49Z</time>
      </trkpt>
      <trkpt lat="45.9564" lon="4.75769">
        <ele>186</ele>
        <time>2016-10-04T11:23:50Z</time>
      </trkpt>
      <trkpt lat="45.95639" lon="4.75761">
        <ele>186</ele>
        <time>2016-10-04T11:23:51Z</time>
      </trkpt>
      <trkpt lat="45.95638" lon="4.75753">
        <ele>186</ele>
        <time>2016-10-04T11:23:52Z</time>
      </trkpt>
      <trkpt lat="45.95637" lon="4.75746">
        <ele>187</ele>
        <time>2016-10-04T11:23:53Z</time>
      </trkpt>
      <trkpt lat="45.95636" lon="4.75738">
        <ele>187</ele>
        <time>2016-10-04T11:23:54Z</time>
      </trkpt>
      <trkpt lat="45.95635" lon="4.7573">
        <ele>187</ele>
        <time>2016-10-04T11:23:55Z</time>
      </trkpt>
      <trkpt lat="45.95634" lon="4.75722">
        <ele>187</ele>
        <time>2016-10-04T11:23:56Z</time>
      </trkpt>
      <trkpt lat="45.95633" lon="4.75713">
        <ele>187</ele>
        <time>2016-10-04T11:23:57Z</time>
      </trkpt>
      <trkpt lat="45.95633" lon="4.75704">
        <ele>187</ele>
        <time>2016-10-04T11:23:58Z</time>
      </trkpt>
      <trkpt lat="45.95631" lon="4.75695">
        <ele>187</ele>
        <time>2016-10-04T11:23:59Z</time>
      </trkpt>
      <trkpt lat="45.95629" lon="4.75686">
        <ele>187</ele>
        <time>2016-10-04T11:24:00Z</time>
      </trkpt>
      <trkpt lat="45.95628" lon="4.75677">
        <ele>187</ele>
        <time>2016-10-04T11:24:01Z</time>
      </trkpt>
      <trkpt lat="45.95627" lon="4.75668">
        <ele>187</ele>
        <time>2016-10-04T11:24:02Z</time>
      </trkpt>
      <trkpt lat="45.95626" lon="4.75659">
        <ele>188</ele>
        <time>2016-10-04T11:24:03Z</time>
      </trkpt>
      <trkpt lat="45.95624" lon="4.75651">
        <ele>188</ele>
        <time>2016-10-04T11:24:04Z</time>
      </trkpt>
      <trkpt lat="45.95622" lon="4.75642">
        <ele>188</ele>
        <time>2016-10-04T11:24:05Z</time>
      </trkpt>
      <trkpt lat="45.9562" lon="4.75634">
        <ele>188</ele>
        <time>2016-10-04T11:24:06Z</time>
      </trkpt>
      <trkpt lat="45.95618" lon="4.75626">
        <ele>188</ele>
        <time>2016-10-04T11:24:07Z</time>
      </trkpt>
      <trkpt lat="45.95616" lon="4.75618">
        <ele>188</ele>
        <time>2016-10-04T11:24:08Z</time>
      </trkpt>
      <trkpt lat="45.95613" lon="4.7561">
        <ele>188</ele>
        <time>2016-10-04T11:24:09Z</time>
      </trkpt>
      <trkpt lat="45.9561" lon="4.75602">
        <ele>188</ele>
        <time>2016-10-04T11:24:10Z</time>
      </trkpt>
      <trkpt lat="45.95606" lon="4.75594">
        <ele>187</ele>
        <time>2016-10-04T11:24:11Z</time>
      </trkpt>
      <trkpt lat="45.95604" lon="4.75586">
        <ele>187</ele>
        <time>2016-10-04T11:24:12Z</time>
      </trkpt>
      <trkpt lat="45.95601" lon="4.75578">
        <ele>188</ele>
        <time>2016-10-04T11:24:13Z</time>
      </trkpt>
      <trkpt lat="45.95597" lon="4.7557">
        <ele>188</ele>
        <time>2016-10-04T11:24:14Z</time>
      </trkpt>
      <trkpt lat="45.95593" lon="4.75562">
        <ele>188</ele>
        <time>2016-10-04T11:24:15Z</time>
      </trkpt>
      <trkpt lat="45.95589" lon="4.75555">
        <ele>188</ele>
        <time>2016-10-04T11:24:16Z</time>
      </trkpt>
      <trkpt lat="45.95585" lon="4.75548">
        <ele>189</ele>
        <time>2016-10-04T11:24:17Z</time>
      </trkpt>
      <trkpt lat="45.9558" lon="4.75542">
        <ele>186</ele>
        <time>2016-10-04T11:24:18Z</time>
      </trkpt>
      <trkpt lat="45.95575" lon="4.75537">
        <ele>186</ele>
        <time>2016-10-04T11:24:19Z</time>
      </trkpt>
      <trkpt lat="45.95569" lon="4.75531">
        <ele>186</ele>
        <time>2016-10-04T11:24:20Z</time>
      </trkpt>
      <trkpt lat="45.95563" lon="4.75525">
        <ele>186</ele>
        <time>2016-10-04T11:24:21Z</time>
      </trkpt>
      <trkpt lat="45.95558" lon="4.75519">
        <ele>186</ele>
        <time>2016-10-04T11:24:22Z</time>
      </trkpt>
      <trkpt lat="45.95554" lon="4.75513">
        <ele>186</ele>
        <time>2016-10-04T11:24:23Z</time>
      </trkpt>
      <trkpt lat="45.9555" lon="4.75506">
        <ele>186</ele>
        <time>2016-10-04T11:24:24Z</time>
      </trkpt>
      <trkpt lat="45.95547" lon="4.75499">
        <ele>187</ele>
        <time>2016-10-04T11:24:25Z</time>
      </trkpt>
      <trkpt lat="45.95546" lon="4.75491">
        <ele>187</ele>
        <time>2016-10-04T11:24:26Z</time>
      </trkpt>
      <trkpt lat="45.95544" lon="4.75483">
        <ele>187</ele>
        <time>2016-10-04T11:24:27Z</time>
      </trkpt>
      <trkpt lat="45.95544" lon="4.75475">
        <ele>187</ele>
        <time>2016-10-04T11:24:28Z</time>
      </trkpt>
      <trkpt lat="45.95543" lon="4.75467">
        <ele>187</ele>
        <time>2016-10-04T11:24:29Z</time>
      </trkpt>
      <trkpt lat="45.9554" lon="4.75459">
        <ele>187</ele>
        <time>2016-10-04T11:24:30Z</time>
      </trkpt>
      <trkpt lat="45.95536" lon="4.75451">
        <ele>187</ele>
        <time>2016-10-04T11:24:31Z</time>
      </trkpt>
      <trkpt lat="45.95532" lon="4.75444">
        <ele>187</ele>
        <time>2016-10-04T11:24:32Z</time>
      </trkpt>
      <trkpt lat="45.95528" lon="4.75437">
        <ele>187</ele>
        <time>2016-10-04T11:24:33Z</time>
      </trkpt>
      <trkpt lat="45.95524" lon="4.7543">
        <ele>187</ele>
        <time>2016-10-04T11:24:34Z</time>
      </trkpt>
      <trkpt lat="45.95521" lon="4.75422">
        <ele>187</ele>
        <time>2016-10-04T11:24:35Z</time>
      </trkpt>
      <trkpt lat="45.95519" lon="4.75415">
        <ele>187</ele>
        <time>2016-10-04T11:24:36Z</time>
      </trkpt>
      <trkpt lat="45.95516" lon="4.75408">
        <ele>187</ele>
        <time>2016-10-04T11:24:37Z</time>
      </trkpt>
      <trkpt lat="45.95514" lon="4.754">
        <ele>188</ele>
        <time>2016-10-04T11:24:38Z</time>
      </trkpt>
      <trkpt lat="45.95511" lon="4.75393">
        <ele>188</ele>
        <time>2016-10-04T11:24:39Z</time>
      </trkpt>
      <trkpt lat="45.95507" lon="4.75386">
        <ele>188</ele>
        <time>2016-10-04T11:24:40Z</time>
      </trkpt>
      <trkpt lat="45.95504" lon="4.7538">
        <ele>188</ele>
        <time>2016-10-04T11:24:41Z</time>
      </trkpt>
      <trkpt lat="45.95501" lon="4.75373">
        <ele>189</ele>
        <time>2016-10-04T11:24:42Z</time>
      </trkpt>
      <trkpt lat="45.95496" lon="4.75366">
        <ele>186</ele>
        <time>2016-10-04T11:24:43Z</time>
      </trkpt>
      <trkpt lat="45.95492" lon="4.75359">
        <ele>186</ele>
        <time>2016-10-04T11:24:44Z</time>
      </trkpt>
      <trkpt lat="45.95487" lon="4.75352">
        <ele>186</ele>
        <time>2016-10-04T11:24:45Z</time>
      </trkpt>
      <trkpt lat="45.95484" lon="4.75344">
        <ele>186</ele>
        <time>2016-10-04T11:24:46Z</time>
      </trkpt>
      <trkpt lat="45.9548" lon="4.75338">
        <ele>186</ele>
        <time>2016-10-04T11:24:47Z</time>
      </trkpt>
      <trkpt lat="45.95476" lon="4.75331">
        <ele>188</ele>
        <time>2016-10-04T11:24:48Z</time>
      </trkpt>
      <trkpt lat="45.95474" lon="4.75324">
        <ele>188</ele>
        <time>2016-10-04T11:24:49Z</time>
      </trkpt>
      <trkpt lat="45.95472" lon="4.75317">
        <ele>188</ele>
        <time>2016-10-04T11:24:50Z</time>
      </trkpt>
      <trkpt lat="45.95469" lon="4.75312">
        <ele>188</ele>
        <time>2016-10-04T11:24:51Z</time>
      </trkpt>
      <trkpt lat="45.95465" lon="4.75307">
        <ele>188</ele>
        <time>2016-10-04T11:24:52Z</time>
      </trkpt>
      <trkpt lat="45.95461" lon="4.75302">
        <ele>188</ele>
        <time>2016-10-04T11:24:53Z</time>
      </trkpt>
      <trkpt lat="45.95458" lon="4.75297">
        <ele>188</ele>
        <time>2016-10-04T11:24:54Z</time>
      </trkpt>
      <trkpt lat="45.95454" lon="4.7529">
        <ele>188</ele>
        <time>2016-10-04T11:24:55Z</time>
      </trkpt>
      <trkpt lat="45.95451" lon="4.75284">
        <ele>189</ele>
        <time>2016-10-04T11:24:56Z</time>
      </trkpt>
      <trkpt lat="45.95447" lon="4.75274">
        <ele>189</ele>
        <time>2016-10-04T11:24:58Z</time>
      </trkpt>
      <trkpt lat="45.95444" lon="4.75268">
        <ele>189</ele>
        <time>2016-10-04T11:24:59Z</time>
      </trkpt>
      <trkpt lat="45.95441" lon="4.75262">
        <ele>189</ele>
        <time>2016-10-04T11:25:00Z</time>
      </trkpt>
      <trkpt lat="45.95438" lon="4.75257">
        <ele>189</ele>
        <time>2016-10-04T11:25:01Z</time>
      </trkpt>
      <trkpt lat="45.95435" lon="4.75252">
        <ele>189</ele>
        <time>2016-10-04T11:25:02Z</time>
      </trkpt>
      <trkpt lat="45.95432" lon="4.75246">
        <ele>190</ele>
        <time>2016-10-04T11:25:03Z</time>
      </trkpt>
      <trkpt lat="45.95429" lon="4.75241">
        <ele>190</ele>
        <time>2016-10-04T11:25:04Z</time>
      </trkpt>
      <trkpt lat="45.95426" lon="4.75235">
        <ele>190</ele>
        <time>2016-10-04T11:25:05Z</time>
      </trkpt>
      <trkpt lat="45.95424" lon="4.75227">
        <ele>191</ele>
        <time>2016-10-04T11:25:06Z</time>
      </trkpt>
      <trkpt lat="45.95421" lon="4.75221">
        <ele>191</ele>
        <time>2016-10-04T11:25:07Z</time>
      </trkpt>
      <trkpt lat="45.95418" lon="4.75216">
        <ele>191</ele>
        <time>2016-10-04T11:25:08Z</time>
      </trkpt>
      <trkpt lat="45.95415" lon="4.75211">
        <ele>189</ele>
        <time>2016-10-04T11:25:09Z</time>
      </trkpt>
      <trkpt lat="45.9541" lon="4.75202">
        <ele>189</ele>
        <time>2016-10-04T11:25:11Z</time>
      </trkpt>
      <trkpt lat="45.95408" lon="4.75198">
        <ele>189</ele>
        <time>2016-10-04T11:25:12Z</time>
      </trkpt>
      <trkpt lat="45.95403" lon="4.75188">
        <ele>189</ele>
        <time>2016-10-04T11:25:14Z</time>
      </trkpt>
      <trkpt lat="45.954" lon="4.75183">
        <ele>189</ele>
        <time>2016-10-04T11:25:15Z</time>
      </trkpt>
      <trkpt lat="45.95397" lon="4.75178">
        <ele>189</ele>
        <time>2016-10-04T11:25:16Z</time>
      </trkpt>
      <trkpt lat="45.95394" lon="4.75172">
        <ele>189</ele>
        <time>2016-10-04T11:25:17Z</time>
      </trkpt>
      <trkpt lat="45.95389" lon="4.75163">
        <ele>191</ele>
        <time>2016-10-04T11:25:19Z</time>
      </trkpt>
      <trkpt lat="45.95386" lon="4.75158">
        <ele>191</ele>
        <time>2016-10-04T11:25:20Z</time>
      </trkpt>
      <trkpt lat="45.95382" lon="4.75153">
        <ele>191</ele>
        <time>2016-10-04T11:25:21Z</time>
      </trkpt>
      <trkpt lat="45.95379" lon="4.75148">
        <ele>191</ele>
        <time>2016-10-04T11:25:22Z</time>
      </trkpt>
      <trkpt lat="45.95376" lon="4.75142">
        <ele>191</ele>
        <time>2016-10-04T11:25:23Z</time>
      </trkpt>
      <trkpt lat="45.95373" lon="4.75137">
        <ele>191</ele>
        <time>2016-10-04T11:25:24Z</time>
      </trkpt>
      <trkpt lat="45.95369" lon="4.75132">
        <ele>191</ele>
        <time>2016-10-04T11:25:25Z</time>
      </trkpt>
      <trkpt lat="45.95366" lon="4.75128">
        <ele>191</ele>
        <time>2016-10-04T11:25:26Z</time>
      </trkpt>
      <trkpt lat="45.95363" lon="4.75123">
        <ele>191</ele>
        <time>2016-10-04T11:25:27Z</time>
      </trkpt>
      <trkpt lat="45.9536" lon="4.75118">
        <ele>192</ele>
        <time>2016-10-04T11:25:28Z</time>
      </trkpt>
      <trkpt lat="45.95355" lon="4.75107">
        <ele>192</ele>
        <time>2016-10-04T11:25:30Z</time>
      </trkpt>
      <trkpt lat="45.95352" lon="4.75102">
        <ele>192</ele>
        <time>2016-10-04T11:25:31Z</time>
      </trkpt>
      <trkpt lat="45.95348" lon="4.75096">
        <ele>192</ele>
        <time>2016-10-04T11:25:32Z</time>
      </trkpt>
      <trkpt lat="45.95343" lon="4.75091">
        <ele>192</ele>
        <time>2016-10-04T11:25:33Z</time>
      </trkpt>
      <trkpt lat="45.9534" lon="4.75086">
        <ele>193</ele>
        <time>2016-10-04T11:25:34Z</time>
      </trkpt>
      <trkpt lat="45.95336" lon="4.75081">
        <ele>193</ele>
        <time>2016-10-04T11:25:35Z</time>
      </trkpt>
      <trkpt lat="45.95332" lon="4.75075">
        <ele>192</ele>
        <time>2016-10-04T11:25:36Z</time>
      </trkpt>
      <trkpt lat="45.95328" lon="4.7507">
        <ele>192</ele>
        <time>2016-10-04T11:25:37Z</time>
      </trkpt>
      <trkpt lat="45.95325" lon="4.75065">
        <ele>192</ele>
        <time>2016-10-04T11:25:38Z</time>
      </trkpt>
      <trkpt lat="45.95321" lon="4.7506">
        <ele>192</ele>
        <time>2016-10-04T11:25:39Z</time>
      </trkpt>
      <trkpt lat="45.95317" lon="4.75055">
        <ele>192</ele>
        <time>2016-10-04T11:25:40Z</time>
      </trkpt>
      <trkpt lat="45.95314" lon="4.75049">
        <ele>192</ele>
        <time>2016-10-04T11:25:41Z</time>
      </trkpt>
      <trkpt lat="45.95311" lon="4.75044">
        <ele>192</ele>
        <time>2016-10-04T11:25:42Z</time>
      </trkpt>
      <trkpt lat="45.95308" lon="4.75039">
        <ele>192</ele>
        <time>2016-10-04T11:25:43Z</time>
      </trkpt>
      <trkpt lat="45.95304" lon="4.75033">
        <ele>192</ele>
        <time>2016-10-04T11:25:44Z</time>
      </trkpt>
      <trkpt lat="45.953" lon="4.75028">
        <ele>192</ele>
        <time>2016-10-04T11:25:45Z</time>
      </trkpt>
      <trkpt lat="45.95296" lon="4.75022">
        <ele>191</ele>
        <time>2016-10-04T11:25:46Z</time>
      </trkpt>
      <trkpt lat="45.95293" lon="4.75015">
        <ele>191</ele>
        <time>2016-10-04T11:25:47Z</time>
      </trkpt>
      <trkpt lat="45.95288" lon="4.75012">
        <ele>191</ele>
        <time>2016-10-04T11:25:48Z</time>
      </trkpt>
      <trkpt lat="45.95284" lon="4.75007">
        <ele>191</ele>
        <time>2016-10-04T11:25:49Z</time>
      </trkpt>
      <trkpt lat="45.9528" lon="4.75">
        <ele>191</ele>
        <time>2016-10-04T11:25:50Z</time>
      </trkpt>
      <trkpt lat="45.95276" lon="4.74994">
        <ele>192</ele>
        <time>2016-10-04T11:25:51Z</time>
      </trkpt>
      <trkpt lat="45.95272" lon="4.74988">
        <ele>192</ele>
        <time>2016-10-04T11:25:52Z</time>
      </trkpt>
      <trkpt lat="45.95269" lon="4.74981">
        <ele>192</ele>
        <time>2016-10-04T11:25:53Z</time>
      </trkpt>
      <trkpt lat="45.95266" lon="4.74975">
        <ele>192</ele>
        <time>2016-10-04T11:25:54Z</time>
      </trkpt>
      <trkpt lat="45.95263" lon="4.74969">
        <ele>192</ele>
        <time>2016-10-04T11:25:55Z</time>
      </trkpt>
      <trkpt lat="45.9526" lon="4.74963">
        <ele>192</ele>
        <time>2016-10-04T11:25:56Z</time>
      </trkpt>
      <trkpt lat="45.95258" lon="4.74958">
        <ele>192</ele>
        <time>2016-10-04T11:25:57Z</time>
      </trkpt>
      <trkpt lat="45.95254" lon="4.74952">
        <ele>192</ele>
        <time>2016-10-04T11:25:58Z</time>
      </trkpt>
      <trkpt lat="45.95251" lon="4.74946">
        <ele>192</ele>
        <time>2016-10-04T11:25:59Z</time>
      </trkpt>
      <trkpt lat="45.95247" lon="4.74941">
        <ele>192</ele>
        <time>2016-10-04T11:26:00Z</time>
      </trkpt>
      <trkpt lat="45.95243" lon="4.74935">
        <ele>192</ele>
        <time>2016-10-04T11:26:01Z</time>
      </trkpt>
      <trkpt lat="45.95239" lon="4.74929">
        <ele>192</ele>
        <time>2016-10-04T11:26:02Z</time>
      </trkpt>
      <trkpt lat="45.95237" lon="4.74923">
        <ele>192</ele>
        <time>2016-10-04T11:26:03Z</time>
      </trkpt>
      <trkpt lat="45.95234" lon="4.74918">
        <ele>192</ele>
        <time>2016-10-04T11:26:04Z</time>
      </trkpt>
      <trkpt lat="45.95231" lon="4.74912">
        <ele>193</ele>
        <time>2016-10-04T11:26:05Z</time>
      </trkpt>
      <trkpt lat="45.95227" lon="4.74908">
        <ele>193</ele>
        <time>2016-10-04T11:26:06Z</time>
      </trkpt>
      <trkpt lat="45.95224" lon="4.74903">
        <ele>193</ele>
        <time>2016-10-04T11:26:07Z</time>
      </trkpt>
      <trkpt lat="45.9522" lon="4.74898">
        <ele>193</ele>
        <time>2016-10-04T11:26:08Z</time>
      </trkpt>
      <trkpt lat="45.95217" lon="4.74893">
        <ele>193</ele>
        <time>2016-10-04T11:26:09Z</time>
      </trkpt>
      <trkpt lat="45.95214" lon="4.74888">
        <ele>193</ele>
        <time>2016-10-04T11:26:10Z</time>
      </trkpt>
      <trkpt lat="45.95211" lon="4.74883">
        <ele>193</ele>
        <time>2016-10-04T11:26:11Z</time>
      </trkpt>
      <trkpt lat="45.95208" lon="4.74876">
        <ele>194</ele>
        <time>2016-10-04T11:26:12Z</time>
      </trkpt>
      <trkpt lat="45.95204" lon="4.74869">
        <ele>194</ele>
        <time>2016-10-04T11:26:13Z</time>
      </trkpt>
      <trkpt lat="45.952" lon="4.74863">
        <ele>194</ele>
        <time>2016-10-04T11:26:14Z</time>
      </trkpt>
      <trkpt lat="45.95196" lon="4.74856">
        <ele>194</ele>
        <time>2016-10-04T11:26:15Z</time>
      </trkpt>
      <trkpt lat="45.95192" lon="4.7485">
        <ele>194</ele>
        <time>2016-10-04T11:26:16Z</time>
      </trkpt>
      <trkpt lat="45.95189" lon="4.74844">
        <ele>194</ele>
        <time>2016-10-04T11:26:17Z</time>
      </trkpt>
      <trkpt lat="45.95185" lon="4.74837">
        <ele>194</ele>
        <time>2016-10-04T11:26:18Z</time>
      </trkpt>
      <trkpt lat="45.95182" lon="4.74831">
        <ele>194</ele>
        <time>2016-10-04T11:26:19Z</time>
      </trkpt>
      <trkpt lat="45.95178" lon="4.74826">
        <ele>194</ele>
        <time>2016-10-04T11:26:20Z</time>
      </trkpt>
      <trkpt lat="45.95174" lon="4.7482">
        <ele>194</ele>
        <time>2016-10-04T11:26:21Z</time>
      </trkpt>
      <trkpt lat="45.95171" lon="4.74814">
        <ele>194</ele>
        <time>2016-10-04T11:26:22Z</time>
      </trkpt>
      <trkpt lat="45.95167" lon="4.74807">
        <ele>194</ele>
        <time>2016-10-04T11:26:23Z</time>
      </trkpt>
      <trkpt lat="45.95163" lon="4.74801">
        <ele>194</ele>
        <time>2016-10-04T11:26:24Z</time>
      </trkpt>
      <trkpt lat="45.95158" lon="4.74794">
        <ele>194</ele>
        <time>2016-10-04T11:26:25Z</time>
      </trkpt>
      <trkpt lat="45.95154" lon="4.74788">
        <ele>194</ele>
        <time>2016-10-04T11:26:26Z</time>
      </trkpt>
      <trkpt lat="45.9515" lon="4.74782">
        <ele>194</ele>
        <time>2016-10-04T11:26:27Z</time>
      </trkpt>
      <trkpt lat="45.95146" lon="4.74775">
        <ele>194</ele>
        <time>2016-10-04T11:26:28Z</time>
      </trkpt>
      <trkpt lat="45.95143" lon="4.74769">
        <ele>194</ele>
        <time>2016-10-04T11:26:29Z</time>
      </trkpt>
      <trkpt lat="45.95139" lon="4.74763">
        <ele>194</ele>
        <time>2016-10-04T11:26:30Z</time>
      </trkpt>
      <trkpt lat="45.95136" lon="4.74756">
        <ele>194</ele>
        <time>2016-10-04T11:26:31Z</time>
      </trkpt>
      <trkpt lat="45.95132" lon="4.74751">
        <ele>194</ele>
        <time>2016-10-04T11:26:32Z</time>
      </trkpt>
      <trkpt lat="45.95129" lon="4.74745">
        <ele>194</ele>
        <time>2016-10-04T11:26:33Z</time>
      </trkpt>
      <trkpt lat="45.95125" lon="4.74739">
        <ele>194</ele>
        <time>2016-10-04T11:26:34Z</time>
      </trkpt>
      <trkpt lat="45.95121" lon="4.74733">
        <ele>194</ele>
        <time>2016-10-04T11:26:35Z</time>
      </trkpt>
      <trkpt lat="45.95117" lon="4.74727">
        <ele>194</ele>
        <time>2016-10-04T11:26:36Z</time>
      </trkpt>
      <trkpt lat="45.95114" lon="4.74721">
        <ele>194</ele>
        <time>2016-10-04T11:26:37Z</time>
      </trkpt>
      <trkpt lat="45.9511" lon="4.74714">
        <ele>194</ele>
        <time>2016-10-04T11:26:38Z</time>
      </trkpt>
      <trkpt lat="45.95106" lon="4.74708">
        <ele>194</ele>
        <time>2016-10-04T11:26:39Z</time>
      </trkpt>
      <trkpt lat="45.95101" lon="4.74702">
        <ele>194</ele>
        <time>2016-10-04T11:26:40Z</time>
      </trkpt>
      <trkpt lat="45.95097" lon="4.74696">
        <ele>194</ele>
        <time>2016-10-04T11:26:41Z</time>
      </trkpt>
      <trkpt lat="45.95092" lon="4.74689">
        <ele>195</ele>
        <time>2016-10-04T11:26:42Z</time>
      </trkpt>
      <trkpt lat="45.95088" lon="4.74682">
        <ele>195</ele>
        <time>2016-10-04T11:26:43Z</time>
      </trkpt>
      <trkpt lat="45.95083" lon="4.74675">
        <ele>195</ele>
        <time>2016-10-04T11:26:44Z</time>
      </trkpt>
      <trkpt lat="45.95079" lon="4.74668">
        <ele>195</ele>
        <time>2016-10-04T11:26:45Z</time>
      </trkpt>
      <trkpt lat="45.95075" lon="4.74662">
        <ele>195</ele>
        <time>2016-10-04T11:26:46Z</time>
      </trkpt>
      <trkpt lat="45.95072" lon="4.74656">
        <ele>195</ele>
        <time>2016-10-04T11:26:47Z</time>
      </trkpt>
      <trkpt lat="45.95069" lon="4.7465">
        <ele>195</ele>
        <time>2016-10-04T11:26:48Z</time>
      </trkpt>
      <trkpt lat="45.95066" lon="4.74643">
        <ele>195</ele>
        <time>2016-10-04T11:26:49Z</time>
      </trkpt>
      <trkpt lat="45.95062" lon="4.74637">
        <ele>194</ele>
        <time>2016-10-04T11:26:50Z</time>
      </trkpt>
      <trkpt lat="45.95059" lon="4.74631">
        <ele>194</ele>
        <time>2016-10-04T11:26:51Z</time>
      </trkpt>
      <trkpt lat="45.95055" lon="4.74624">
        <ele>194</ele>
        <time>2016-10-04T11:26:52Z</time>
      </trkpt>
      <trkpt lat="45.95052" lon="4.74618">
        <ele>194</ele>
        <time>2016-10-04T11:26:53Z</time>
      </trkpt>
      <trkpt lat="45.95048" lon="4.74611">
        <ele>194</ele>
        <time>2016-10-04T11:26:54Z</time>
      </trkpt>
      <trkpt lat="45.95043" lon="4.74604">
        <ele>194</ele>
        <time>2016-10-04T11:26:55Z</time>
      </trkpt>
      <trkpt lat="45.95039" lon="4.74598">
        <ele>194</ele>
        <time>2016-10-04T11:26:56Z</time>
      </trkpt>
      <trkpt lat="45.95035" lon="4.74591">
        <ele>194</ele>
        <time>2016-10-04T11:26:57Z</time>
      </trkpt>
      <trkpt lat="45.95032" lon="4.74585">
        <ele>194</ele>
        <time>2016-10-04T11:26:58Z</time>
      </trkpt>
      <trkpt lat="45.95029" lon="4.74578">
        <ele>194</ele>
        <time>2016-10-04T11:26:59Z</time>
      </trkpt>
      <trkpt lat="45.95025" lon="4.74572">
        <ele>194</ele>
        <time>2016-10-04T11:27:00Z</time>
      </trkpt>
      <trkpt lat="45.95022" lon="4.74566">
        <ele>194</ele>
        <time>2016-10-04T11:27:01Z</time>
      </trkpt>
      <trkpt lat="45.95019" lon="4.74559">
        <ele>194</ele>
        <time>2016-10-04T11:27:02Z</time>
      </trkpt>
      <trkpt lat="45.95016" lon="4.74553">
        <ele>194</ele>
        <time>2016-10-04T11:27:03Z</time>
      </trkpt>
      <trkpt lat="45.95013" lon="4.74546">
        <ele>194</ele>
        <time>2016-10-04T11:27:04Z</time>
      </trkpt>
      <trkpt lat="45.95009" lon="4.74538">
        <ele>194</ele>
        <time>2016-10-04T11:27:05Z</time>
      </trkpt>
      <trkpt lat="45.95005" lon="4.74531">
        <ele>194</ele>
        <time>2016-10-04T11:27:06Z</time>
      </trkpt>
      <trkpt lat="45.95003" lon="4.74523">
        <ele>194</ele>
        <time>2016-10-04T11:27:07Z</time>
      </trkpt>
      <trkpt lat="45.94999" lon="4.74517">
        <ele>193</ele>
        <time>2016-10-04T11:27:08Z</time>
      </trkpt>
      <trkpt lat="45.94995" lon="4.74513">
        <ele>193</ele>
        <time>2016-10-04T11:27:09Z</time>
      </trkpt>
      <trkpt lat="45.9499" lon="4.74506">
        <ele>193</ele>
        <time>2016-10-04T11:27:10Z</time>
      </trkpt>
      <trkpt lat="45.94986" lon="4.74498">
        <ele>193</ele>
        <time>2016-10-04T11:27:11Z</time>
      </trkpt>
      <trkpt lat="45.94982" lon="4.74489">
        <ele>193</ele>
        <time>2016-10-04T11:27:12Z</time>
      </trkpt>
      <trkpt lat="45.94978" lon="4.7448">
        <ele>193</ele>
        <time>2016-10-04T11:27:13Z</time>
      </trkpt>
      <trkpt lat="45.94974" lon="4.74472">
        <ele>193</ele>
        <time>2016-10-04T11:27:14Z</time>
      </trkpt>
      <trkpt lat="45.9497" lon="4.74464">
        <ele>193</ele>
        <time>2016-10-04T11:27:15Z</time>
      </trkpt>
      <trkpt lat="45.94965" lon="4.74456">
        <ele>192</ele>
        <time>2016-10-04T11:27:16Z</time>
      </trkpt>
      <trkpt lat="45.94961" lon="4.74449">
        <ele>192</ele>
        <time>2016-10-04T11:27:17Z</time>
      </trkpt>
      <trkpt lat="45.94957" lon="4.74441">
        <ele>192</ele>
        <time>2016-10-04T11:27:18Z</time>
      </trkpt>
      <trkpt lat="45.94954" lon="4.74434">
        <ele>192</ele>
        <time>2016-10-04T11:27:19Z</time>
      </trkpt>
      <trkpt lat="45.9495" lon="4.74426">
        <ele>192</ele>
        <time>2016-10-04T11:27:20Z</time>
      </trkpt>
      <trkpt lat="45.94947" lon="4.74419">
        <ele>192</ele>
        <time>2016-10-04T11:27:21Z</time>
      </trkpt>
      <trkpt lat="45.94942" lon="4.74411">
        <ele>192</ele>
        <time>2016-10-04T11:27:22Z</time>
      </trkpt>
      <trkpt lat="45.94939" lon="4.74402">
        <ele>192</ele>
        <time>2016-10-04T11:27:23Z</time>
      </trkpt>
      <trkpt lat="45.94935" lon="4.74395">
        <ele>192</ele>
        <time>2016-10-04T11:27:24Z</time>
      </trkpt>
      <trkpt lat="45.94931" lon="4.74387">
        <ele>192</ele>
        <time>2016-10-04T11:27:25Z</time>
      </trkpt>
      <trkpt lat="45.94926" lon="4.74379">
        <ele>192</ele>
        <time>2016-10-04T11:27:26Z</time>
      </trkpt>
      <trkpt lat="45.94922" lon="4.74371">
        <ele>192</ele>
        <time>2016-10-04T11:27:27Z</time>
      </trkpt>
      <trkpt lat="45.94917" lon="4.74364">
        <ele>192</ele>
        <time>2016-10-04T11:27:28Z</time>
      </trkpt>
      <trkpt lat="45.94913" lon="4.74356">
        <ele>191</ele>
        <time>2016-10-04T11:27:29Z</time>
      </trkpt>
      <trkpt lat="45.9491" lon="4.74348">
        <ele>191</ele>
        <time>2016-10-04T11:27:30Z</time>
      </trkpt>
      <trkpt lat="45.94906" lon="4.7434">
        <ele>191</ele>
        <time>2016-10-04T11:27:31Z</time>
      </trkpt>
      <trkpt lat="45.94902" lon="4.74333">
        <ele>191</ele>
        <time>2016-10-04T11:27:32Z</time>
      </trkpt>
      <trkpt lat="45.94898" lon="4.74325">
        <ele>191</ele>
        <time>2016-10-04T11:27:33Z</time>
      </trkpt>
      <trkpt lat="45.94894" lon="4.74318">
        <ele>191</ele>
        <time>2016-10-04T11:27:34Z</time>
      </trkpt>
      <trkpt lat="45.9489" lon="4.74311">
        <ele>191</ele>
        <time>2016-10-04T11:27:35Z</time>
      </trkpt>
      <trkpt lat="45.94886" lon="4.74303">
        <ele>191</ele>
        <time>2016-10-04T11:27:36Z</time>
      </trkpt>
      <trkpt lat="45.94881" lon="4.74296">
        <ele>191</ele>
        <time>2016-10-04T11:27:37Z</time>
      </trkpt>
      <trkpt lat="45.94878" lon="4.74288">
        <ele>191</ele>
        <time>2016-10-04T11:27:38Z</time>
      </trkpt>
      <trkpt lat="45.94875" lon="4.7428">
        <ele>191</ele>
        <time>2016-10-04T11:27:39Z</time>
      </trkpt>
      <trkpt lat="45.94871" lon="4.74272">
        <ele>191</ele>
        <time>2016-10-04T11:27:40Z</time>
      </trkpt>
      <trkpt lat="45.94867" lon="4.74264">
        <ele>190</ele>
        <time>2016-10-04T11:27:41Z</time>
      </trkpt>
      <trkpt lat="45.94864" lon="4.74257">
        <ele>190</ele>
        <time>2016-10-04T11:27:42Z</time>
      </trkpt>
      <trkpt lat="45.9486" lon="4.74249">
        <ele>190</ele>
        <time>2016-10-04T11:27:43Z</time>
      </trkpt>
      <trkpt lat="45.94856" lon="4.74241">
        <ele>190</ele>
        <time>2016-10-04T11:27:44Z</time>
      </trkpt>
      <trkpt lat="45.94852" lon="4.74234">
        <ele>190</ele>
        <time>2016-10-04T11:27:45Z</time>
      </trkpt>
      <trkpt lat="45.94849" lon="4.74227">
        <ele>190</ele>
        <time>2016-10-04T11:27:46Z</time>
      </trkpt>
      <trkpt lat="45.94845" lon="4.74219">
        <ele>190</ele>
        <time>2016-10-04T11:27:47Z</time>
      </trkpt>
      <trkpt lat="45.94841" lon="4.74212">
        <ele>190</ele>
        <time>2016-10-04T11:27:48Z</time>
      </trkpt>
      <trkpt lat="45.94836" lon="4.74204">
        <ele>190</ele>
        <time>2016-10-04T11:27:49Z</time>
      </trkpt>
      <trkpt lat="45.94832" lon="4.74197">
        <ele>189</ele>
        <time>2016-10-04T11:27:50Z</time>
      </trkpt>
      <trkpt lat="45.94827" lon="4.7419">
        <ele>189</ele>
        <time>2016-10-04T11:27:51Z</time>
      </trkpt>
      <trkpt lat="45.94823" lon="4.74183">
        <ele>189</ele>
        <time>2016-10-04T11:27:52Z</time>
      </trkpt>
      <trkpt lat="45.94819" lon="4.74176">
        <ele>189</ele>
        <time>2016-10-04T11:27:53Z</time>
      </trkpt>
      <trkpt lat="45.94814" lon="4.7417">
        <ele>189</ele>
        <time>2016-10-04T11:27:54Z</time>
      </trkpt>
      <trkpt lat="45.9481" lon="4.74163">
        <ele>189</ele>
        <time>2016-10-04T11:27:55Z</time>
      </trkpt>
      <trkpt lat="45.94806" lon="4.74157">
        <ele>189</ele>
        <time>2016-10-04T11:27:56Z</time>
      </trkpt>
      <trkpt lat="45.94802" lon="4.7415">
        <ele>189</ele>
        <time>2016-10-04T11:27:57Z</time>
      </trkpt>
      <trkpt lat="45.94799" lon="4.74143">
        <ele>189</ele>
        <time>2016-10-04T11:27:58Z</time>
      </trkpt>
      <trkpt lat="45.94795" lon="4.74137">
        <ele>189</ele>
        <time>2016-10-04T11:27:59Z</time>
      </trkpt>
      <trkpt lat="45.9479" lon="4.7413">
        <ele>189</ele>
        <time>2016-10-04T11:28:00Z</time>
      </trkpt>
      <trkpt lat="45.94785" lon="4.74123">
        <ele>189</ele>
        <time>2016-10-04T11:28:01Z</time>
      </trkpt>
      <trkpt lat="45.94781" lon="4.74115">
        <ele>189</ele>
        <time>2016-10-04T11:28:02Z</time>
      </trkpt>
      <trkpt lat="45.94777" lon="4.74108">
        <ele>189</ele>
        <time>2016-10-04T11:28:03Z</time>
      </trkpt>
      <trkpt lat="45.94772" lon="4.74101">
        <ele>189</ele>
        <time>2016-10-04T11:28:04Z</time>
      </trkpt>
      <trkpt lat="45.94767" lon="4.74094">
        <ele>189</ele>
        <time>2016-10-04T11:28:05Z</time>
      </trkpt>
      <trkpt lat="45.94762" lon="4.74087">
        <ele>189</ele>
        <time>2016-10-04T11:28:06Z</time>
      </trkpt>
      <trkpt lat="45.94757" lon="4.7408">
        <ele>189</ele>
        <time>2016-10-04T11:28:07Z</time>
      </trkpt>
      <trkpt lat="45.94753" lon="4.74073">
        <ele>189</ele>
        <time>2016-10-04T11:28:08Z</time>
      </trkpt>
      <trkpt lat="45.94748" lon="4.74066">
        <ele>188</ele>
        <time>2016-10-04T11:28:09Z</time>
      </trkpt>
      <trkpt lat="45.94742" lon="4.74059">
        <ele>188</ele>
        <time>2016-10-04T11:28:10Z</time>
      </trkpt>
      <trkpt lat="45.94737" lon="4.74052">
        <ele>188</ele>
        <time>2016-10-04T11:28:11Z</time>
      </trkpt>
      <trkpt lat="45.94732" lon="4.74045">
        <ele>188</ele>
        <time>2016-10-04T11:28:12Z</time>
      </trkpt>
      <trkpt lat="45.94728" lon="4.74038">
        <ele>188</ele>
        <time>2016-10-04T11:28:13Z</time>
      </trkpt>
      <trkpt lat="45.94723" lon="4.74032">
        <ele>187</ele>
        <time>2016-10-04T11:28:14Z</time>
      </trkpt>
      <trkpt lat="45.94719" lon="4.74026">
        <ele>187</ele>
        <time>2016-10-04T11:28:15Z</time>
      </trkpt>
      <trkpt lat="45.94714" lon="4.7402">
        <ele>187</ele>
        <time>2016-10-04T11:28:16Z</time>
      </trkpt>
      <trkpt lat="45.94709" lon="4.74015">
        <ele>187</ele>
        <time>2016-10-04T11:28:17Z</time>
      </trkpt>
      <trkpt lat="45.94705" lon="4.74009">
        <ele>187</ele>
        <time>2016-10-04T11:28:18Z</time>
      </trkpt>
      <trkpt lat="45.947" lon="4.74003">
        <ele>187</ele>
        <time>2016-10-04T11:28:19Z</time>
      </trkpt>
      <trkpt lat="45.94695" lon="4.73996">
        <ele>187</ele>
        <time>2016-10-04T11:28:20Z</time>
      </trkpt>
      <trkpt lat="45.94689" lon="4.73989">
        <ele>187</ele>
        <time>2016-10-04T11:28:21Z</time>
      </trkpt>
      <trkpt lat="45.94684" lon="4.73981">
        <ele>187</ele>
        <time>2016-10-04T11:28:22Z</time>
      </trkpt>
      <trkpt lat="45.94679" lon="4.73972">
        <ele>187</ele>
        <time>2016-10-04T11:28:23Z</time>
      </trkpt>
      <trkpt lat="45.94676" lon="4.73964">
        <ele>187</ele>
        <time>2016-10-04T11:28:24Z</time>
      </trkpt>
      <trkpt lat="45.94672" lon="4.73957">
        <ele>188</ele>
        <time>2016-10-04T11:28:25Z</time>
      </trkpt>
      <trkpt lat="45.94665" lon="4.73951">
        <ele>187</ele>
        <time>2016-10-04T11:28:26Z</time>
      </trkpt>
      <trkpt lat="45.94661" lon="4.73944">
        <ele>187</ele>
        <time>2016-10-04T11:28:27Z</time>
      </trkpt>
      <trkpt lat="45.94656" lon="4.73937">
        <ele>187</ele>
        <time>2016-10-04T11:28:28Z</time>
      </trkpt>
      <trkpt lat="45.9465" lon="4.73931">
        <ele>187</ele>
        <time>2016-10-04T11:28:29Z</time>
      </trkpt>
      <trkpt lat="45.94645" lon="4.73924">
        <ele>187</ele>
        <time>2016-10-04T11:28:30Z</time>
      </trkpt>
      <trkpt lat="45.9464" lon="4.73918">
        <ele>187</ele>
        <time>2016-10-04T11:28:31Z</time>
      </trkpt>
      <trkpt lat="45.94634" lon="4.73912">
        <ele>187</ele>
        <time>2016-10-04T11:28:32Z</time>
      </trkpt>
      <trkpt lat="45.94629" lon="4.73905">
        <ele>187</ele>
        <time>2016-10-04T11:28:33Z</time>
      </trkpt>
      <trkpt lat="45.94623" lon="4.73899">
        <ele>187</ele>
        <time>2016-10-04T11:28:34Z</time>
      </trkpt>
      <trkpt lat="45.94617" lon="4.73893">
        <ele>187</ele>
        <time>2016-10-04T11:28:35Z</time>
      </trkpt>
      <trkpt lat="45.94613" lon="4.73886">
        <ele>187</ele>
        <time>2016-10-04T11:28:36Z</time>
      </trkpt>
      <trkpt lat="45.94608" lon="4.73879">
        <ele>187</ele>
        <time>2016-10-04T11:28:37Z</time>
      </trkpt>
      <trkpt lat="45.94603" lon="4.73872">
        <ele>187</ele>
        <time>2016-10-04T11:28:38Z</time>
      </trkpt>
      <trkpt lat="45.94598" lon="4.73866">
        <ele>187</ele>
        <time>2016-10-04T11:28:39Z</time>
      </trkpt>
      <trkpt lat="45.94592" lon="4.7386">
        <ele>187</ele>
        <time>2016-10-04T11:28:40Z</time>
      </trkpt>
      <trkpt lat="45.94586" lon="4.73854">
        <ele>187</ele>
        <time>2016-10-04T11:28:41Z</time>
      </trkpt>
      <trkpt lat="45.94579" lon="4.73848">
        <ele>186</ele>
        <time>2016-10-04T11:28:42Z</time>
      </trkpt>
      <trkpt lat="45.94573" lon="4.73843">
        <ele>186</ele>
        <time>2016-10-04T11:28:43Z</time>
      </trkpt>
      <trkpt lat="45.94567" lon="4.73837">
        <ele>186</ele>
        <time>2016-10-04T11:28:44Z</time>
      </trkpt>
      <trkpt lat="45.94561" lon="4.73831">
        <ele>186</ele>
        <time>2016-10-04T11:28:45Z</time>
      </trkpt>
      <trkpt lat="45.94556" lon="4.73826">
        <ele>186</ele>
        <time>2016-10-04T11:28:46Z</time>
      </trkpt>
      <trkpt lat="45.9455" lon="4.73821">
        <ele>186</ele>
        <time>2016-10-04T11:28:47Z</time>
      </trkpt>
      <trkpt lat="45.94544" lon="4.73816">
        <ele>186</ele>
        <time>2016-10-04T11:28:48Z</time>
      </trkpt>
      <trkpt lat="45.94538" lon="4.73811">
        <ele>186</ele>
        <time>2016-10-04T11:28:49Z</time>
      </trkpt>
      <trkpt lat="45.94533" lon="4.73805">
        <ele>186</ele>
        <time>2016-10-04T11:28:50Z</time>
      </trkpt>
      <trkpt lat="45.94528" lon="4.738">
        <ele>186</ele>
        <time>2016-10-04T11:28:51Z</time>
      </trkpt>
      <trkpt lat="45.94523" lon="4.73794">
        <ele>186</ele>
        <time>2016-10-04T11:28:52Z</time>
      </trkpt>
      <trkpt lat="45.94518" lon="4.73788">
        <ele>186</ele>
        <time>2016-10-04T11:28:53Z</time>
      </trkpt>
      <trkpt lat="45.94514" lon="4.73783">
        <ele>186</ele>
        <time>2016-10-04T11:28:54Z</time>
      </trkpt>
      <trkpt lat="45.9451" lon="4.73777">
        <ele>186</ele>
        <time>2016-10-04T11:28:55Z</time>
      </trkpt>
      <trkpt lat="45.94505" lon="4.73771">
        <ele>186</ele>
        <time>2016-10-04T11:28:56Z</time>
      </trkpt>
      <trkpt lat="45.945" lon="4.73765">
        <ele>186</ele>
        <time>2016-10-04T11:28:57Z</time>
      </trkpt>
      <trkpt lat="45.94497" lon="4.73759">
        <ele>186</ele>
        <time>2016-10-04T11:28:58Z</time>
      </trkpt>
      <trkpt lat="45.94494" lon="4.73752">
        <ele>186</ele>
        <time>2016-10-04T11:28:59Z</time>
      </trkpt>
      <trkpt lat="45.94492" lon="4.73744">
        <ele>186</ele>
        <time>2016-10-04T11:29:00Z</time>
      </trkpt>
      <trkpt lat="45.94493" lon="4.73735">
        <ele>186</ele>
        <time>2016-10-04T11:29:01Z</time>
      </trkpt>
      <trkpt lat="45.94495" lon="4.73727">
        <ele>186</ele>
        <time>2016-10-04T11:29:02Z</time>
      </trkpt>
      <trkpt lat="45.94496" lon="4.73718">
        <ele>186</ele>
        <time>2016-10-04T11:29:03Z</time>
      </trkpt>
      <trkpt lat="45.94497" lon="4.73709">
        <ele>186</ele>
        <time>2016-10-04T11:29:04Z</time>
      </trkpt>
      <trkpt lat="45.94499" lon="4.73699">
        <ele>186</ele>
        <time>2016-10-04T11:29:05Z</time>
      </trkpt>
      <trkpt lat="45.94501" lon="4.73689">
        <ele>185</ele>
        <time>2016-10-04T11:29:06Z</time>
      </trkpt>
      <trkpt lat="45.94501" lon="4.73678">
        <ele>185</ele>
        <time>2016-10-04T11:29:07Z</time>
      </trkpt>
      <trkpt lat="45.94503" lon="4.73669">
        <ele>185</ele>
        <time>2016-10-04T11:29:08Z</time>
      </trkpt>
      <trkpt lat="45.94505" lon="4.73659">
        <ele>185</ele>
        <time>2016-10-04T11:29:09Z</time>
      </trkpt>
      <trkpt lat="45.94506" lon="4.73649">
        <ele>184</ele>
        <time>2016-10-04T11:29:10Z</time>
      </trkpt>
      <trkpt lat="45.94507" lon="4.73641">
        <ele>184</ele>
        <time>2016-10-04T11:29:11Z</time>
      </trkpt>
      <trkpt lat="45.94507" lon="4.73633">
        <ele>184</ele>
        <time>2016-10-04T11:29:12Z</time>
      </trkpt>
      <trkpt lat="45.94508" lon="4.73624">
        <ele>184</ele>
        <time>2016-10-04T11:29:13Z</time>
      </trkpt>
      <trkpt lat="45.94506" lon="4.73615">
        <ele>184</ele>
        <time>2016-10-04T11:29:14Z</time>
      </trkpt>
      <trkpt lat="45.94504" lon="4.73606">
        <ele>184</ele>
        <time>2016-10-04T11:29:15Z</time>
      </trkpt>
      <trkpt lat="45.94505" lon="4.73596">
        <ele>184</ele>
        <time>2016-10-04T11:29:16Z</time>
      </trkpt>
      <trkpt lat="45.94506" lon="4.73587">
        <ele>185</ele>
        <time>2016-10-04T11:29:17Z</time>
      </trkpt>
      <trkpt lat="45.94508" lon="4.73578">
        <ele>184</ele>
        <time>2016-10-04T11:29:18Z</time>
      </trkpt>
      <trkpt lat="45.94508" lon="4.73568">
        <ele>184</ele>
        <time>2016-10-04T11:29:19Z</time>
      </trkpt>
      <trkpt lat="45.94508" lon="4.73558">
        <ele>183</ele>
        <time>2016-10-04T11:29:20Z</time>
      </trkpt>
      <trkpt lat="45.94509" lon="4.73548">
        <ele>183</ele>
        <time>2016-10-04T11:29:21Z</time>
      </trkpt>
      <trkpt lat="45.94509" lon="4.73537">
        <ele>183</ele>
        <time>2016-10-04T11:29:22Z</time>
      </trkpt>
      <trkpt lat="45.94509" lon="4.73527">
        <ele>183</ele>
        <time>2016-10-04T11:29:23Z</time>
      </trkpt>
      <trkpt lat="45.94509" lon="4.73516">
        <ele>183</ele>
        <time>2016-10-04T11:29:24Z</time>
      </trkpt>
      <trkpt lat="45.94509" lon="4.73506">
        <ele>183</ele>
        <time>2016-10-04T11:29:25Z</time>
      </trkpt>
      <trkpt lat="45.94509" lon="4.73495">
        <ele>182</ele>
        <time>2016-10-04T11:29:26Z</time>
      </trkpt>
      <trkpt lat="45.94509" lon="4.73484">
        <ele>182</ele>
        <time>2016-10-04T11:29:27Z</time>
      </trkpt>
      <trkpt lat="45.94509" lon="4.73474">
        <ele>182</ele>
        <time>2016-10-04T11:29:28Z</time>
      </trkpt>
      <trkpt lat="45.9451" lon="4.73464">
        <ele>181</ele>
        <time>2016-10-04T11:29:29Z</time>
      </trkpt>
      <trkpt lat="45.94509" lon="4.73454">
        <ele>181</ele>
        <time>2016-10-04T11:29:30Z</time>
      </trkpt>
      <trkpt lat="45.94509" lon="4.73443">
        <ele>181</ele>
        <time>2016-10-04T11:29:31Z</time>
      </trkpt>
      <trkpt lat="45.94509" lon="4.73432">
        <ele>181</ele>
        <time>2016-10-04T11:29:32Z</time>
      </trkpt>
      <trkpt lat="45.9451" lon="4.73421">
        <ele>180</ele>
        <time>2016-10-04T11:29:33Z</time>
      </trkpt>
      <trkpt lat="45.94509" lon="4.7341">
        <ele>179</ele>
        <time>2016-10-04T11:29:34Z</time>
      </trkpt>
      <trkpt lat="45.94508" lon="4.73398">
        <ele>179</ele>
        <time>2016-10-04T11:29:35Z</time>
      </trkpt>
      <trkpt lat="45.94507" lon="4.73387">
        <ele>179</ele>
        <time>2016-10-04T11:29:36Z</time>
      </trkpt>
      <trkpt lat="45.94505" lon="4.73376">
        <ele>178</ele>
        <time>2016-10-04T11:29:37Z</time>
      </trkpt>
      <trkpt lat="45.94504" lon="4.73364">
        <ele>178</ele>
        <time>2016-10-04T11:29:38Z</time>
      </trkpt>
      <trkpt lat="45.94503" lon="4.73354">
        <ele>178</ele>
        <time>2016-10-04T11:29:39Z</time>
      </trkpt>
      <trkpt lat="45.94501" lon="4.73343">
        <ele>177</ele>
        <time>2016-10-04T11:29:40Z</time>
      </trkpt>
      <trkpt lat="45.945" lon="4.73332">
        <ele>177</ele>
        <time>2016-10-04T11:29:41Z</time>
      </trkpt>
      <trkpt lat="45.94498" lon="4.7332">
        <ele>177</ele>
        <time>2016-10-04T11:29:42Z</time>
      </trkpt>
      <trkpt lat="45.94497" lon="4.73309">
        <ele>177</ele>
        <time>2016-10-04T11:29:43Z</time>
      </trkpt>
      <trkpt lat="45.94496" lon="4.73298">
        <ele>177</ele>
        <time>2016-10-04T11:29:44Z</time>
      </trkpt>
      <trkpt lat="45.94495" lon="4.73287">
        <ele>177</ele>
        <time>2016-10-04T11:29:45Z</time>
      </trkpt>
      <trkpt lat="45.94493" lon="4.73275">
        <ele>177</ele>
        <time>2016-10-04T11:29:46Z</time>
      </trkpt>
      <trkpt lat="45.94491" lon="4.73264">
        <ele>176</ele>
        <time>2016-10-04T11:29:47Z</time>
      </trkpt>
      <trkpt lat="45.9449" lon="4.73253">
        <ele>176</ele>
        <time>2016-10-04T11:29:48Z</time>
      </trkpt>
      <trkpt lat="45.94488" lon="4.73242">
        <ele>175</ele>
        <time>2016-10-04T11:29:49Z</time>
      </trkpt>
      <trkpt lat="45.94487" lon="4.73231">
        <ele>175</ele>
        <time>2016-10-04T11:29:50Z</time>
      </trkpt>
      <trkpt lat="45.94486" lon="4.7322">
        <ele>175</ele>
        <time>2016-10-04T11:29:51Z</time>
      </trkpt>
      <trkpt lat="45.94485" lon="4.7321">
        <ele>175</ele>
        <time>2016-10-04T11:29:52Z</time>
      </trkpt>
      <trkpt lat="45.94484" lon="4.732">
        <ele>174</ele>
        <time>2016-10-04T11:29:53Z</time>
      </trkpt>
      <trkpt lat="45.94483" lon="4.7319">
        <ele>174</ele>
        <time>2016-10-04T11:29:54Z</time>
      </trkpt>
      <trkpt lat="45.94483" lon="4.73179">
        <ele>174</ele>
        <time>2016-10-04T11:29:55Z</time>
      </trkpt>
      <trkpt lat="45.94482" lon="4.73167">
        <ele>174</ele>
        <time>2016-10-04T11:29:56Z</time>
      </trkpt>
      <trkpt lat="45.94482" lon="4.73156">
        <ele>173</ele>
        <time>2016-10-04T11:29:57Z</time>
      </trkpt>
      <trkpt lat="45.94481" lon="4.73146">
        <ele>172</ele>
        <time>2016-10-04T11:29:58Z</time>
      </trkpt>
      <trkpt lat="45.9448" lon="4.73135">
        <ele>172</ele>
        <time>2016-10-04T11:29:59Z</time>
      </trkpt>
      <trkpt lat="45.94479" lon="4.73125">
        <ele>172</ele>
        <time>2016-10-04T11:30:00Z</time>
      </trkpt>
      <trkpt lat="45.94479" lon="4.73116">
        <ele>172</ele>
        <time>2016-10-04T11:30:01Z</time>
      </trkpt>
      <trkpt lat="45.94476" lon="4.73106">
        <ele>172</ele>
        <time>2016-10-04T11:30:02Z</time>
      </trkpt>
      <trkpt lat="45.94474" lon="4.73097">
        <ele>172</ele>
        <time>2016-10-04T11:30:03Z</time>
      </trkpt>
      <trkpt lat="45.94473" lon="4.73088">
        <ele>172</ele>
        <time>2016-10-04T11:30:04Z</time>
      </trkpt>
      <trkpt lat="45.94471" lon="4.73078">
        <ele>170</ele>
        <time>2016-10-04T11:30:05Z</time>
      </trkpt>
      <trkpt lat="45.94469" lon="4.73069">
        <ele>170</ele>
        <time>2016-10-04T11:30:06Z</time>
      </trkpt>
      <trkpt lat="45.94468" lon="4.73059">
        <ele>170</ele>
        <time>2016-10-04T11:30:07Z</time>
      </trkpt>
      <trkpt lat="45.94466" lon="4.7305">
        <ele>170</ele>
        <time>2016-10-04T11:30:08Z</time>
      </trkpt>
      <trkpt lat="45.94464" lon="4.73041">
        <ele>170</ele>
        <time>2016-10-04T11:30:09Z</time>
      </trkpt>
      <trkpt lat="45.94462" lon="4.73032">
        <ele>169</ele>
        <time>2016-10-04T11:30:10Z</time>
      </trkpt>
      <trkpt lat="45.9446" lon="4.73024">
        <ele>169</ele>
        <time>2016-10-04T11:30:11Z</time>
      </trkpt>
      <trkpt lat="45.94459" lon="4.73015">
        <ele>169</ele>
        <time>2016-10-04T11:30:12Z</time>
      </trkpt>
      <trkpt lat="45.94458" lon="4.73007">
        <ele>169</ele>
        <time>2016-10-04T11:30:13Z</time>
      </trkpt>
      <trkpt lat="45.94457" lon="4.72998">
        <ele>168</ele>
        <time>2016-10-04T11:30:14Z</time>
      </trkpt>
      <trkpt lat="45.94455" lon="4.7299">
        <ele>168</ele>
        <time>2016-10-04T11:30:15Z</time>
      </trkpt>
      <trkpt lat="45.94454" lon="4.72982">
        <ele>167</ele>
        <time>2016-10-04T11:30:16Z</time>
      </trkpt>
      <trkpt lat="45.94453" lon="4.72974">
        <ele>167</ele>
        <time>2016-10-04T11:30:17Z</time>
      </trkpt>
      <trkpt lat="45.94452" lon="4.72966">
        <ele>167</ele>
        <time>2016-10-04T11:30:18Z</time>
      </trkpt>
      <trkpt lat="45.94451" lon="4.72958">
        <ele>167</ele>
        <time>2016-10-04T11:30:19Z</time>
      </trkpt>
      <trkpt lat="45.9445" lon="4.72951">
        <ele>167</ele>
        <time>2016-10-04T11:30:20Z</time>
      </trkpt>
      <trkpt lat="45.94448" lon="4.72944">
        <ele>167</ele>
        <time>2016-10-04T11:30:21Z</time>
      </trkpt>
      <trkpt lat="45.94447" lon="4.72937">
        <ele>167</ele>
        <time>2016-10-04T11:30:22Z</time>
      </trkpt>
      <trkpt lat="45.94446" lon="4.7293">
        <ele>167</ele>
        <time>2016-10-04T11:30:23Z</time>
      </trkpt>
      <trkpt lat="45.94445" lon="4.72923">
        <ele>167</ele>
        <time>2016-10-04T11:30:24Z</time>
      </trkpt>
      <trkpt lat="45.94445" lon="4.72916">
        <ele>166</ele>
        <time>2016-10-04T11:30:25Z</time>
      </trkpt>
      <trkpt lat="45.94444" lon="4.7291">
        <ele>166</ele>
        <time>2016-10-04T11:30:26Z</time>
      </trkpt>
      <trkpt lat="45.94443" lon="4.72903">
        <ele>166</ele>
        <time>2016-10-04T11:30:27Z</time>
      </trkpt>
      <trkpt lat="45.94443" lon="4.72897">
        <ele>166</ele>
        <time>2016-10-04T11:30:28Z</time>
      </trkpt>
      <trkpt lat="45.94442" lon="4.7289">
        <ele>166</ele>
        <time>2016-10-04T11:30:29Z</time>
      </trkpt>
      <trkpt lat="45.94441" lon="4.72883">
        <ele>166</ele>
        <time>2016-10-04T11:30:30Z</time>
      </trkpt>
      <trkpt lat="45.9444" lon="4.72877">
        <ele>166</ele>
        <time>2016-10-04T11:30:31Z</time>
      </trkpt>
      <trkpt lat="45.94439" lon="4.7287">
        <ele>166</ele>
        <time>2016-10-04T11:30:32Z</time>
      </trkpt>
      <trkpt lat="45.94438" lon="4.72863">
        <ele>166</ele>
        <time>2016-10-04T11:30:33Z</time>
      </trkpt>
      <trkpt lat="45.94438" lon="4.72855">
        <ele>166</ele>
        <time>2016-10-04T11:30:34Z</time>
      </trkpt>
      <trkpt lat="45.94436" lon="4.72848">
        <ele>166</ele>
        <time>2016-10-04T11:30:35Z</time>
      </trkpt>
      <trkpt lat="45.94435" lon="4.7284">
        <ele>166</ele>
        <time>2016-10-04T11:30:36Z</time>
      </trkpt>
      <trkpt lat="45.94434" lon="4.72832">
        <ele>167</ele>
        <time>2016-10-04T11:30:37Z</time>
      </trkpt>
      <trkpt lat="45.94434" lon="4.72824">
        <ele>167</ele>
        <time>2016-10-04T11:30:38Z</time>
      </trkpt>
      <trkpt lat="45.94433" lon="4.72815">
        <ele>167</ele>
        <time>2016-10-04T11:30:39Z</time>
      </trkpt>
      <trkpt lat="45.94431" lon="4.72806">
        <ele>167</ele>
        <time>2016-10-04T11:30:40Z</time>
      </trkpt>
      <trkpt lat="45.9443" lon="4.72797">
        <ele>167</ele>
        <time>2016-10-04T11:30:41Z</time>
      </trkpt>
      <trkpt lat="45.94429" lon="4.72787">
        <ele>168</ele>
        <time>2016-10-04T11:30:42Z</time>
      </trkpt>
      <trkpt lat="45.94428" lon="4.72778">
        <ele>168</ele>
        <time>2016-10-04T11:30:43Z</time>
      </trkpt>
      <trkpt lat="45.94427" lon="4.72769">
        <ele>169</ele>
        <time>2016-10-04T11:30:44Z</time>
      </trkpt>
      <trkpt lat="45.94426" lon="4.7276">
        <ele>169</ele>
        <time>2016-10-04T11:30:45Z</time>
      </trkpt>
      <trkpt lat="45.94424" lon="4.72751">
        <ele>170</ele>
        <time>2016-10-04T11:30:46Z</time>
      </trkpt>
      <trkpt lat="45.94423" lon="4.72742">
        <ele>171</ele>
        <time>2016-10-04T11:30:47Z</time>
      </trkpt>
      <trkpt lat="45.94422" lon="4.72733">
        <ele>171</ele>
        <time>2016-10-04T11:30:48Z</time>
      </trkpt>
      <trkpt lat="45.94421" lon="4.72724">
        <ele>171</ele>
        <time>2016-10-04T11:30:49Z</time>
      </trkpt>
      <trkpt lat="45.9442" lon="4.72715">
        <ele>172</ele>
        <time>2016-10-04T11:30:50Z</time>
      </trkpt>
      <trkpt lat="45.94418" lon="4.72706">
        <ele>172</ele>
        <time>2016-10-04T11:30:51Z</time>
      </trkpt>
      <trkpt lat="45.94417" lon="4.72698">
        <ele>172</ele>
        <time>2016-10-04T11:30:52Z</time>
      </trkpt>
      <trkpt lat="45.94416" lon="4.7269">
        <ele>173</ele>
        <time>2016-10-04T11:30:53Z</time>
      </trkpt>
      <trkpt lat="45.94414" lon="4.7268">
        <ele>173</ele>
        <time>2016-10-04T11:30:54Z</time>
      </trkpt>
      <trkpt lat="45.94413" lon="4.72671">
        <ele>174</ele>
        <time>2016-10-04T11:30:55Z</time>
      </trkpt>
      <trkpt lat="45.94413" lon="4.72661">
        <ele>174</ele>
        <time>2016-10-04T11:30:56Z</time>
      </trkpt>
      <trkpt lat="45.94412" lon="4.72651">
        <ele>174</ele>
        <time>2016-10-04T11:30:57Z</time>
      </trkpt>
      <trkpt lat="45.94411" lon="4.7264">
        <ele>174</ele>
        <time>2016-10-04T11:30:58Z</time>
      </trkpt>
      <trkpt lat="45.9441" lon="4.7263">
        <ele>174</ele>
        <time>2016-10-04T11:30:59Z</time>
      </trkpt>
      <trkpt lat="45.94408" lon="4.7262">
        <ele>173</ele>
        <time>2016-10-04T11:31:00Z</time>
      </trkpt>
      <trkpt lat="45.94407" lon="4.72611">
        <ele>173</ele>
        <time>2016-10-04T11:31:01Z</time>
      </trkpt>
      <trkpt lat="45.94406" lon="4.72602">
        <ele>173</ele>
        <time>2016-10-04T11:31:02Z</time>
      </trkpt>
      <trkpt lat="45.94404" lon="4.72593">
        <ele>173</ele>
        <time>2016-10-04T11:31:03Z</time>
      </trkpt>
      <trkpt lat="45.94403" lon="4.72584">
        <ele>173</ele>
        <time>2016-10-04T11:31:04Z</time>
      </trkpt>
      <trkpt lat="45.94402" lon="4.72575">
        <ele>173</ele>
        <time>2016-10-04T11:31:05Z</time>
      </trkpt>
      <trkpt lat="45.94401" lon="4.72567">
        <ele>173</ele>
        <time>2016-10-04T11:31:06Z</time>
      </trkpt>
      <trkpt lat="45.94398" lon="4.7256">
        <ele>173</ele>
        <time>2016-10-04T11:31:07Z</time>
      </trkpt>
      <trkpt lat="45.94396" lon="4.72551">
        <ele>173</ele>
        <time>2016-10-04T11:31:08Z</time>
      </trkpt>
      <trkpt lat="45.94394" lon="4.72542">
        <ele>174</ele>
        <time>2016-10-04T11:31:09Z</time>
      </trkpt>
      <trkpt lat="45.94392" lon="4.72533">
        <ele>174</ele>
        <time>2016-10-04T11:31:10Z</time>
      </trkpt>
      <trkpt lat="45.94389" lon="4.72524">
        <ele>174</ele>
        <time>2016-10-04T11:31:11Z</time>
      </trkpt>
      <trkpt lat="45.94387" lon="4.72514">
        <ele>174</ele>
        <time>2016-10-04T11:31:12Z</time>
      </trkpt>
      <trkpt lat="45.94385" lon="4.72505">
        <ele>174</ele>
        <time>2016-10-04T11:31:13Z</time>
      </trkpt>
      <trkpt lat="45.94383" lon="4.72496">
        <ele>173</ele>
        <time>2016-10-04T11:31:14Z</time>
      </trkpt>
      <trkpt lat="45.9438" lon="4.72488">
        <ele>173</ele>
        <time>2016-10-04T11:31:15Z</time>
      </trkpt>
      <trkpt lat="45.94377" lon="4.72481">
        <ele>173</ele>
        <time>2016-10-04T11:31:16Z</time>
      </trkpt>
      <trkpt lat="45.94374" lon="4.72473">
        <ele>173</ele>
        <time>2016-10-04T11:31:17Z</time>
      </trkpt>
      <trkpt lat="45.9437" lon="4.72466">
        <ele>173</ele>
        <time>2016-10-04T11:31:18Z</time>
      </trkpt>
      <trkpt lat="45.94367" lon="4.72459">
        <ele>173</ele>
        <time>2016-10-04T11:31:19Z</time>
      </trkpt>
      <trkpt lat="45.94365" lon="4.72452">
        <ele>173</ele>
        <time>2016-10-04T11:31:20Z</time>
      </trkpt>
      <trkpt lat="45.94362" lon="4.72446">
        <ele>173</ele>
        <time>2016-10-04T11:31:21Z</time>
      </trkpt>
      <trkpt lat="45.9436" lon="4.72439">
        <ele>173</ele>
        <time>2016-10-04T11:31:22Z</time>
      </trkpt>
      <trkpt lat="45.94358" lon="4.72432">
        <ele>173</ele>
        <time>2016-10-04T11:31:23Z</time>
      </trkpt>
      <trkpt lat="45.94355" lon="4.72426">
        <ele>173</ele>
        <time>2016-10-04T11:31:24Z</time>
      </trkpt>
      <trkpt lat="45.94352" lon="4.72419">
        <ele>173</ele>
        <time>2016-10-04T11:31:25Z</time>
      </trkpt>
      <trkpt lat="45.94349" lon="4.72412">
        <ele>173</ele>
        <time>2016-10-04T11:31:26Z</time>
      </trkpt>
      <trkpt lat="45.94346" lon="4.72405">
        <ele>173</ele>
        <time>2016-10-04T11:31:27Z</time>
      </trkpt>
      <trkpt lat="45.94343" lon="4.72398">
        <ele>172</ele>
        <time>2016-10-04T11:31:28Z</time>
      </trkpt>
      <trkpt lat="45.9434" lon="4.72392">
        <ele>172</ele>
        <time>2016-10-04T11:31:29Z</time>
      </trkpt>
      <trkpt lat="45.94337" lon="4.72385">
        <ele>172</ele>
        <time>2016-10-04T11:31:30Z</time>
      </trkpt>
      <trkpt lat="45.94334" lon="4.72379">
        <ele>172</ele>
        <time>2016-10-04T11:31:31Z</time>
      </trkpt>
      <trkpt lat="45.9433" lon="4.72372">
        <ele>172</ele>
        <time>2016-10-04T11:31:32Z</time>
      </trkpt>
      <trkpt lat="45.94327" lon="4.72364">
        <ele>172</ele>
        <time>2016-10-04T11:31:33Z</time>
      </trkpt>
      <trkpt lat="45.94324" lon="4.72357">
        <ele>172</ele>
        <time>2016-10-04T11:31:34Z</time>
      </trkpt>
      <trkpt lat="45.9432" lon="4.72349">
        <ele>172</ele>
        <time>2016-10-04T11:31:35Z</time>
      </trkpt>
      <trkpt lat="45.94317" lon="4.72341">
        <ele>172</ele>
        <time>2016-10-04T11:31:36Z</time>
      </trkpt>
      <trkpt lat="45.94314" lon="4.72333">
        <ele>172</ele>
        <time>2016-10-04T11:31:37Z</time>
      </trkpt>
      <trkpt lat="45.94311" lon="4.72325">
        <ele>172</ele>
        <time>2016-10-04T11:31:38Z</time>
      </trkpt>
      <trkpt lat="45.94308" lon="4.72317">
        <ele>171</ele>
        <time>2016-10-04T11:31:39Z</time>
      </trkpt>
      <trkpt lat="45.94305" lon="4.7231">
        <ele>171</ele>
        <time>2016-10-04T11:31:40Z</time>
      </trkpt>
      <trkpt lat="45.94302" lon="4.72303">
        <ele>171</ele>
        <time>2016-10-04T11:31:41Z</time>
      </trkpt>
      <trkpt lat="45.94299" lon="4.72296">
        <ele>171</ele>
        <time>2016-10-04T11:31:42Z</time>
      </trkpt>
      <trkpt lat="45.94296" lon="4.7229">
        <ele>171</ele>
        <time>2016-10-04T11:31:43Z</time>
      </trkpt>
      <trkpt lat="45.94293" lon="4.72282">
        <ele>171</ele>
        <time>2016-10-04T11:31:44Z</time>
      </trkpt>
      <trkpt lat="45.9429" lon="4.72275">
        <ele>171</ele>
        <time>2016-10-04T11:31:45Z</time>
      </trkpt>
      <trkpt lat="45.94286" lon="4.72268">
        <ele>171</ele>
        <time>2016-10-04T11:31:46Z</time>
      </trkpt>
      <trkpt lat="45.94283" lon="4.72261">
        <ele>171</ele>
        <time>2016-10-04T11:31:47Z</time>
      </trkpt>
      <trkpt lat="45.94281" lon="4.72252">
        <ele>171</ele>
        <time>2016-10-04T11:31:48Z</time>
      </trkpt>
      <trkpt lat="45.94277" lon="4.72245">
        <ele>171</ele>
        <time>2016-10-04T11:31:49Z</time>
      </trkpt>
      <trkpt lat="45.94274" lon="4.72238">
        <ele>171</ele>
        <time>2016-10-04T11:31:50Z</time>
      </trkpt>
      <trkpt lat="45.9427" lon="4.72231">
        <ele>172</ele>
        <time>2016-10-04T11:31:51Z</time>
      </trkpt>
      <trkpt lat="45.94267" lon="4.72224">
        <ele>172</ele>
        <time>2016-10-04T11:31:52Z</time>
      </trkpt>
      <trkpt lat="45.94264" lon="4.72218">
        <ele>172</ele>
        <time>2016-10-04T11:31:53Z</time>
      </trkpt>
      <trkpt lat="45.94262" lon="4.72211">
        <ele>172</ele>
        <time>2016-10-04T11:31:54Z</time>
      </trkpt>
      <trkpt lat="45.94258" lon="4.72205">
        <ele>172</ele>
        <time>2016-10-04T11:31:55Z</time>
      </trkpt>
      <trkpt lat="45.94255" lon="4.72199">
        <ele>172</ele>
        <time>2016-10-04T11:31:56Z</time>
      </trkpt>
      <trkpt lat="45.94252" lon="4.72193">
        <ele>172</ele>
        <time>2016-10-04T11:31:57Z</time>
      </trkpt>
      <trkpt lat="45.9425" lon="4.72186">
        <ele>172</ele>
        <time>2016-10-04T11:31:58Z</time>
      </trkpt>
      <trkpt lat="45.94247" lon="4.7218">
        <ele>172</ele>
        <time>2016-10-04T11:31:59Z</time>
      </trkpt>
      <trkpt lat="45.94244" lon="4.72173">
        <ele>172</ele>
        <time>2016-10-04T11:32:00Z</time>
      </trkpt>
      <trkpt lat="45.94242" lon="4.72167">
        <ele>172</ele>
        <time>2016-10-04T11:32:01Z</time>
      </trkpt>
      <trkpt lat="45.94239" lon="4.72161">
        <ele>173</ele>
        <time>2016-10-04T11:32:02Z</time>
      </trkpt>
      <trkpt lat="45.94236" lon="4.72156">
        <ele>173</ele>
        <time>2016-10-04T11:32:03Z</time>
      </trkpt>
      <trkpt lat="45.94233" lon="4.7215">
        <ele>173</ele>
        <time>2016-10-04T11:32:04Z</time>
      </trkpt>
      <trkpt lat="45.94229" lon="4.72145">
        <ele>173</ele>
        <time>2016-10-04T11:32:05Z</time>
      </trkpt>
      <trkpt lat="45.94225" lon="4.72134">
        <ele>173</ele>
        <time>2016-10-04T11:32:07Z</time>
      </trkpt>
      <trkpt lat="45.94222" lon="4.72128">
        <ele>173</ele>
        <time>2016-10-04T11:32:08Z</time>
      </trkpt>
      <trkpt lat="45.94218" lon="4.72119">
        <ele>173</ele>
        <time>2016-10-04T11:32:10Z</time>
      </trkpt>
      <trkpt lat="45.94216" lon="4.72114">
        <ele>173</ele>
        <time>2016-10-04T11:32:11Z</time>
      </trkpt>
      <trkpt lat="45.94212" lon="4.72105">
        <ele>173</ele>
        <time>2016-10-04T11:32:13Z</time>
      </trkpt>
      <trkpt lat="45.9421" lon="4.721">
        <ele>173</ele>
        <time>2016-10-04T11:32:14Z</time>
      </trkpt>
      <trkpt lat="45.94206" lon="4.72091">
        <ele>173</ele>
        <time>2016-10-04T11:32:16Z</time>
      </trkpt>
      <trkpt lat="45.94204" lon="4.72086">
        <ele>173</ele>
        <time>2016-10-04T11:32:17Z</time>
      </trkpt>
      <trkpt lat="45.942" lon="4.72076">
        <ele>173</ele>
        <time>2016-10-04T11:32:19Z</time>
      </trkpt>
      <trkpt lat="45.94198" lon="4.7207">
        <ele>173</ele>
        <time>2016-10-04T11:32:20Z</time>
      </trkpt>
      <trkpt lat="45.94194" lon="4.7206">
        <ele>173</ele>
        <time>2016-10-04T11:32:22Z</time>
      </trkpt>
      <trkpt lat="45.94191" lon="4.72055">
        <ele>173</ele>
        <time>2016-10-04T11:32:23Z</time>
      </trkpt>
      <trkpt lat="45.94188" lon="4.72044">
        <ele>173</ele>
        <time>2016-10-04T11:32:25Z</time>
      </trkpt>
      <trkpt lat="45.94185" lon="4.72039">
        <ele>173</ele>
        <time>2016-10-04T11:32:26Z</time>
      </trkpt>
      <trkpt lat="45.9418" lon="4.72028">
        <ele>173</ele>
        <time>2016-10-04T11:32:28Z</time>
      </trkpt>
      <trkpt lat="45.94178" lon="4.72022">
        <ele>173</ele>
        <time>2016-10-04T11:32:29Z</time>
      </trkpt>
      <trkpt lat="45.94175" lon="4.72016">
        <ele>173</ele>
        <time>2016-10-04T11:32:30Z</time>
      </trkpt>
      <trkpt lat="45.94172" lon="4.72009">
        <ele>173</ele>
        <time>2016-10-04T11:32:31Z</time>
      </trkpt>
      <trkpt lat="45.94168" lon="4.72001">
        <ele>173</ele>
        <time>2016-10-04T11:32:32Z</time>
      </trkpt>
      <trkpt lat="45.94164" lon="4.71993">
        <ele>173</ele>
        <time>2016-10-04T11:32:33Z</time>
      </trkpt>
      <trkpt lat="45.9416" lon="4.71985">
        <ele>173</ele>
        <time>2016-10-04T11:32:34Z</time>
      </trkpt>
      <trkpt lat="45.94156" lon="4.71977">
        <ele>173</ele>
        <time>2016-10-04T11:32:35Z</time>
      </trkpt>
      <trkpt lat="45.94154" lon="4.71968">
        <ele>173</ele>
        <time>2016-10-04T11:32:36Z</time>
      </trkpt>
      <trkpt lat="45.94151" lon="4.7196">
        <ele>173</ele>
        <time>2016-10-04T11:32:37Z</time>
      </trkpt>
      <trkpt lat="45.94151" lon="4.71952">
        <ele>173</ele>
        <time>2016-10-04T11:32:38Z</time>
      </trkpt>
      <trkpt lat="45.94151" lon="4.71944">
        <ele>173</ele>
        <time>2016-10-04T11:32:39Z</time>
      </trkpt>
      <trkpt lat="45.94148" lon="4.71938">
        <ele>173</ele>
        <time>2016-10-04T11:32:40Z</time>
      </trkpt>
      <trkpt lat="45.94145" lon="4.71932">
        <ele>173</ele>
        <time>2016-10-04T11:32:41Z</time>
      </trkpt>
      <trkpt lat="45.9414" lon="4.71929">
        <ele>173</ele>
        <time>2016-10-04T11:32:42Z</time>
      </trkpt>
      <trkpt lat="45.94134" lon="4.71927">
        <ele>173</ele>
        <time>2016-10-04T11:32:43Z</time>
      </trkpt>
      <trkpt lat="45.94129" lon="4.71929">
        <ele>174</ele>
        <time>2016-10-04T11:32:44Z</time>
      </trkpt>
      <trkpt lat="45.94124" lon="4.71933">
        <ele>174</ele>
        <time>2016-10-04T11:32:45Z</time>
      </trkpt>
      <trkpt lat="45.9412" lon="4.71939">
        <ele>174</ele>
        <time>2016-10-04T11:32:46Z</time>
      </trkpt>
      <trkpt lat="45.94118" lon="4.71945">
        <ele>174</ele>
        <time>2016-10-04T11:32:47Z</time>
      </trkpt>
      <trkpt lat="45.94117" lon="4.71951">
        <ele>174</ele>
        <time>2016-10-04T11:32:48Z</time>
      </trkpt>
      <trkpt lat="45.94114" lon="4.71957">
        <ele>174</ele>
        <time>2016-10-04T11:32:49Z</time>
      </trkpt>
      <trkpt lat="45.94112" lon="4.71963">
        <ele>174</ele>
        <time>2016-10-04T11:32:50Z</time>
      </trkpt>
      <trkpt lat="45.94108" lon="4.71969">
        <ele>174</ele>
        <time>2016-10-04T11:32:51Z</time>
      </trkpt>
      <trkpt lat="45.94105" lon="4.71975">
        <ele>174</ele>
        <time>2016-10-04T11:32:52Z</time>
      </trkpt>
      <trkpt lat="45.94101" lon="4.7198">
        <ele>174</ele>
        <time>2016-10-04T11:32:53Z</time>
      </trkpt>
      <trkpt lat="45.94096" lon="4.71985">
        <ele>174</ele>
        <time>2016-10-04T11:32:54Z</time>
      </trkpt>
      <trkpt lat="45.94091" lon="4.71989">
        <ele>175</ele>
        <time>2016-10-04T11:32:55Z</time>
      </trkpt>
      <trkpt lat="45.94087" lon="4.71994">
        <ele>175</ele>
        <time>2016-10-04T11:32:56Z</time>
      </trkpt>
      <trkpt lat="45.94083" lon="4.71999">
        <ele>175</ele>
        <time>2016-10-04T11:32:57Z</time>
      </trkpt>
      <trkpt lat="45.94079" lon="4.72004">
        <ele>175</ele>
        <time>2016-10-04T11:32:58Z</time>
      </trkpt>
      <trkpt lat="45.94074" lon="4.72008">
        <ele>174</ele>
        <time>2016-10-04T11:32:59Z</time>
      </trkpt>
      <trkpt lat="45.9407" lon="4.72013">
        <ele>174</ele>
        <time>2016-10-04T11:33:00Z</time>
      </trkpt>
      <trkpt lat="45.94066" lon="4.72018">
        <ele>174</ele>
        <time>2016-10-04T11:33:01Z</time>
      </trkpt>
      <trkpt lat="45.94062" lon="4.72023">
        <ele>174</ele>
        <time>2016-10-04T11:33:02Z</time>
      </trkpt>
      <trkpt lat="45.94057" lon="4.72026">
        <ele>174</ele>
        <time>2016-10-04T11:33:03Z</time>
      </trkpt>
      <trkpt lat="45.94053" lon="4.72028">
        <ele>174</ele>
        <time>2016-10-04T11:33:04Z</time>
      </trkpt>
      <trkpt lat="45.94048" lon="4.72027">
        <ele>173</ele>
        <time>2016-10-04T11:33:05Z</time>
      </trkpt>
      <trkpt lat="45.94044" lon="4.72023">
        <ele>173</ele>
        <time>2016-10-04T11:33:06Z</time>
      </trkpt>
      <trkpt lat="45.94041" lon="4.72018">
        <ele>173</ele>
        <time>2016-10-04T11:33:07Z</time>
      </trkpt>
      <trkpt lat="45.94038" lon="4.72012">
        <ele>173</ele>
        <time>2016-10-04T11:33:08Z</time>
      </trkpt>
      <trkpt lat="45.94033" lon="4.72006">
        <ele>173</ele>
        <time>2016-10-04T11:33:09Z</time>
      </trkpt>
      <trkpt lat="45.94029" lon="4.71999">
        <ele>174</ele>
        <time>2016-10-04T11:33:10Z</time>
      </trkpt>
      <trkpt lat="45.94027" lon="4.71992">
        <ele>174</ele>
        <time>2016-10-04T11:33:11Z</time>
      </trkpt>
      <trkpt lat="45.94024" lon="4.71986">
        <ele>174</ele>
        <time>2016-10-04T11:33:12Z</time>
      </trkpt>
      <trkpt lat="45.94021" lon="4.7198">
        <ele>174</ele>
        <time>2016-10-04T11:33:13Z</time>
      </trkpt>
      <trkpt lat="45.94017" lon="4.71974">
        <ele>174</ele>
        <time>2016-10-04T11:33:14Z</time>
      </trkpt>
      <trkpt lat="45.94013" lon="4.71969">
        <ele>174</ele>
        <time>2016-10-04T11:33:15Z</time>
      </trkpt>
      <trkpt lat="45.9401" lon="4.71965">
        <ele>174</ele>
        <time>2016-10-04T11:33:16Z</time>
      </trkpt>
      <trkpt lat="45.94006" lon="4.71962">
        <ele>174</ele>
        <time>2016-10-04T11:33:17Z</time>
      </trkpt>
      <trkpt lat="45.94001" lon="4.7196">
        <ele>174</ele>
        <time>2016-10-04T11:33:18Z</time>
      </trkpt>
      <trkpt lat="45.93996" lon="4.71961">
        <ele>173</ele>
        <time>2016-10-04T11:33:19Z</time>
      </trkpt>
      <trkpt lat="45.9399" lon="4.71963">
        <ele>173</ele>
        <time>2016-10-04T11:33:20Z</time>
      </trkpt>
      <trkpt lat="45.93984" lon="4.71968">
        <ele>173</ele>
        <time>2016-10-04T11:33:21Z</time>
      </trkpt>
      <trkpt lat="45.9398" lon="4.71973">
        <ele>173</ele>
        <time>2016-10-04T11:33:22Z</time>
      </trkpt>
      <trkpt lat="45.93975" lon="4.71978">
        <ele>173</ele>
        <time>2016-10-04T11:33:23Z</time>
      </trkpt>
      <trkpt lat="45.9397" lon="4.71982">
        <ele>173</ele>
        <time>2016-10-04T11:33:24Z</time>
      </trkpt>
      <trkpt lat="45.93965" lon="4.71986">
        <ele>173</ele>
        <time>2016-10-04T11:33:25Z</time>
      </trkpt>
      <trkpt lat="45.93961" lon="4.7199">
        <ele>173</ele>
        <time>2016-10-04T11:33:26Z</time>
      </trkpt>
      <trkpt lat="45.93956" lon="4.71995">
        <ele>172</ele>
        <time>2016-10-04T11:33:27Z</time>
      </trkpt>
      <trkpt lat="45.93952" lon="4.71999">
        <ele>172</ele>
        <time>2016-10-04T11:33:28Z</time>
      </trkpt>
      <trkpt lat="45.93947" lon="4.72003">
        <ele>172</ele>
        <time>2016-10-04T11:33:29Z</time>
      </trkpt>
      <trkpt lat="45.93943" lon="4.72007">
        <ele>172</ele>
        <time>2016-10-04T11:33:30Z</time>
      </trkpt>
      <trkpt lat="45.93939" lon="4.72012">
        <ele>172</ele>
        <time>2016-10-04T11:33:31Z</time>
      </trkpt>
      <trkpt lat="45.93935" lon="4.72017">
        <ele>172</ele>
        <time>2016-10-04T11:33:32Z</time>
      </trkpt>
      <trkpt lat="45.93932" lon="4.72022">
        <ele>172</ele>
        <time>2016-10-04T11:33:33Z</time>
      </trkpt>
      <trkpt lat="45.93928" lon="4.72026">
        <ele>172</ele>
        <time>2016-10-04T11:33:34Z</time>
      </trkpt>
      <trkpt lat="45.93924" lon="4.7203">
        <ele>172</ele>
        <time>2016-10-04T11:33:35Z</time>
      </trkpt>
      <trkpt lat="45.9392" lon="4.72034">
        <ele>172</ele>
        <time>2016-10-04T11:33:36Z</time>
      </trkpt>
      <trkpt lat="45.93916" lon="4.72038">
        <ele>172</ele>
        <time>2016-10-04T11:33:37Z</time>
      </trkpt>
      <trkpt lat="45.93912" lon="4.72041">
        <ele>172</ele>
        <time>2016-10-04T11:33:38Z</time>
      </trkpt>
      <trkpt lat="45.93908" lon="4.72046">
        <ele>172</ele>
        <time>2016-10-04T11:33:39Z</time>
      </trkpt>
      <trkpt lat="45.93903" lon="4.72054">
        <ele>172</ele>
        <time>2016-10-04T11:33:41Z</time>
      </trkpt>
      <trkpt lat="45.939" lon="4.72057">
        <ele>172</ele>
        <time>2016-10-04T11:33:42Z</time>
      </trkpt>
      <trkpt lat="45.93894" lon="4.72065">
        <ele>172</ele>
        <time>2016-10-04T11:33:44Z</time>
      </trkpt>
      <trkpt lat="45.93892" lon="4.72068">
        <ele>172</ele>
        <time>2016-10-04T11:33:45Z</time>
      </trkpt>
      <trkpt lat="45.93885" lon="4.72077">
        <ele>172</ele>
        <time>2016-10-04T11:33:47Z</time>
      </trkpt>
      <trkpt lat="45.93882" lon="4.72081">
        <ele>172</ele>
        <time>2016-10-04T11:33:48Z</time>
      </trkpt>
      <trkpt lat="45.93876" lon="4.7209">
        <ele>172</ele>
        <time>2016-10-04T11:33:50Z</time>
      </trkpt>
      <trkpt lat="45.93873" lon="4.72094">
        <ele>172</ele>
        <time>2016-10-04T11:33:51Z</time>
      </trkpt>
      <trkpt lat="45.93867" lon="4.72098">
        <ele>172</ele>
        <time>2016-10-04T11:33:52Z</time>
      </trkpt>
      <trkpt lat="45.93865" lon="4.72102">
        <ele>172</ele>
        <time>2016-10-04T11:33:53Z</time>
      </trkpt>
      <trkpt lat="45.93861" lon="4.72107">
        <ele>172</ele>
        <time>2016-10-04T11:33:54Z</time>
      </trkpt>
      <trkpt lat="45.93858" lon="4.72111">
        <ele>172</ele>
        <time>2016-10-04T11:33:55Z</time>
      </trkpt>
      <trkpt lat="45.93854" lon="4.72115">
        <ele>172</ele>
        <time>2016-10-04T11:33:56Z</time>
      </trkpt>
      <trkpt lat="45.9385" lon="4.72119">
        <ele>172</ele>
        <time>2016-10-04T11:33:57Z</time>
      </trkpt>
      <trkpt lat="45.93845" lon="4.72127">
        <ele>172</ele>
        <time>2016-10-04T11:33:59Z</time>
      </trkpt>
      <trkpt lat="45.93844" lon="4.72129">
        <ele>172</ele>
        <time>2016-10-04T11:34:00Z</time>
      </trkpt>
      <trkpt lat="45.93838" lon="4.72139">
        <ele>172</ele>
        <time>2016-10-04T11:34:06Z</time>
      </trkpt>
      <trkpt lat="45.93837" lon="4.72141">
        <ele>172</ele>
        <time>2016-10-04T11:34:07Z</time>
      </trkpt>
      <trkpt lat="45.93833" lon="4.72148">
        <ele>172</ele>
        <time>2016-10-04T11:34:09Z</time>
      </trkpt>
      <trkpt lat="45.93831" lon="4.72152">
        <ele>172</ele>
        <time>2016-10-04T11:34:10Z</time>
      </trkpt>
      <trkpt lat="45.93826" lon="4.72158">
        <ele>172</ele>
        <time>2016-10-04T11:34:12Z</time>
      </trkpt>
      <trkpt lat="45.93823" lon="4.72162">
        <ele>172</ele>
        <time>2016-10-04T11:34:13Z</time>
      </trkpt>
      <trkpt lat="45.93821" lon="4.72167">
        <ele>172</ele>
        <time>2016-10-04T11:34:14Z</time>
      </trkpt>
      <trkpt lat="45.93819" lon="4.72174">
        <ele>172</ele>
        <time>2016-10-04T11:34:15Z</time>
      </trkpt>
      <trkpt lat="45.93818" lon="4.72181">
        <ele>172</ele>
        <time>2016-10-04T11:34:16Z</time>
      </trkpt>
      <trkpt lat="45.93816" lon="4.72187">
        <ele>172</ele>
        <time>2016-10-04T11:34:17Z</time>
      </trkpt>
      <trkpt lat="45.93812" lon="4.72196">
        <ele>172</ele>
        <time>2016-10-04T11:34:19Z</time>
      </trkpt>
      <trkpt lat="45.93809" lon="4.722">
        <ele>172</ele>
        <time>2016-10-04T11:34:20Z</time>
      </trkpt>
      <trkpt lat="45.93806" lon="4.72205">
        <ele>172</ele>
        <time>2016-10-04T11:34:21Z</time>
      </trkpt>
      <trkpt lat="45.93802" lon="4.72209">
        <ele>172</ele>
        <time>2016-10-04T11:34:22Z</time>
      </trkpt>
      <trkpt lat="45.93797" lon="4.72215">
        <ele>172</ele>
        <time>2016-10-04T11:34:23Z</time>
      </trkpt>
      <trkpt lat="45.93794" lon="4.72219">
        <ele>172</ele>
        <time>2016-10-04T11:34:24Z</time>
      </trkpt>
      <trkpt lat="45.93792" lon="4.72224">
        <ele>172</ele>
        <time>2016-10-04T11:34:25Z</time>
      </trkpt>
      <trkpt lat="45.93789" lon="4.7223">
        <ele>172</ele>
        <time>2016-10-04T11:34:26Z</time>
      </trkpt>
      <trkpt lat="45.93786" lon="4.72234">
        <ele>172</ele>
        <time>2016-10-04T11:34:27Z</time>
      </trkpt>
      <trkpt lat="45.93782" lon="4.7224">
        <ele>172</ele>
        <time>2016-10-04T11:34:28Z</time>
      </trkpt>
      <trkpt lat="45.9378" lon="4.72245">
        <ele>172</ele>
        <time>2016-10-04T11:34:29Z</time>
      </trkpt>
      <trkpt lat="45.93777" lon="4.72251">
        <ele>172</ele>
        <time>2016-10-04T11:34:30Z</time>
      </trkpt>
      <trkpt lat="45.93774" lon="4.72255">
        <ele>172</ele>
        <time>2016-10-04T11:34:31Z</time>
      </trkpt>
      <trkpt lat="45.93771" lon="4.72261">
        <ele>172</ele>
        <time>2016-10-04T11:34:32Z</time>
      </trkpt>
      <trkpt lat="45.93768" lon="4.72267">
        <ele>172</ele>
        <time>2016-10-04T11:34:33Z</time>
      </trkpt>
      <trkpt lat="45.93765" lon="4.72273">
        <ele>172</ele>
        <time>2016-10-04T11:34:34Z</time>
      </trkpt>
      <trkpt lat="45.93761" lon="4.72278">
        <ele>172</ele>
        <time>2016-10-04T11:34:35Z</time>
      </trkpt>
      <trkpt lat="45.93759" lon="4.72284">
        <ele>172</ele>
        <time>2016-10-04T11:34:36Z</time>
      </trkpt>
      <trkpt lat="45.93755" lon="4.7229">
        <ele>172</ele>
        <time>2016-10-04T11:34:37Z</time>
      </trkpt>
      <trkpt lat="45.93752" lon="4.72296">
        <ele>172</ele>
        <time>2016-10-04T11:34:38Z</time>
      </trkpt>
      <trkpt lat="45.93748" lon="4.72302">
        <ele>172</ele>
        <time>2016-10-04T11:34:39Z</time>
      </trkpt>
      <trkpt lat="45.93745" lon="4.72308">
        <ele>172</ele>
        <time>2016-10-04T11:34:40Z</time>
      </trkpt>
      <trkpt lat="45.93741" lon="4.72314">
        <ele>172</ele>
        <time>2016-10-04T11:34:41Z</time>
      </trkpt>
      <trkpt lat="45.93738" lon="4.7232">
        <ele>172</ele>
        <time>2016-10-04T11:34:42Z</time>
      </trkpt>
      <trkpt lat="45.93735" lon="4.72326">
        <ele>172</ele>
        <time>2016-10-04T11:34:43Z</time>
      </trkpt>
      <trkpt lat="45.93732" lon="4.72332">
        <ele>172</ele>
        <time>2016-10-04T11:34:44Z</time>
      </trkpt>
      <trkpt lat="45.93729" lon="4.72337">
        <ele>172</ele>
        <time>2016-10-04T11:34:45Z</time>
      </trkpt>
      <trkpt lat="45.93727" lon="4.72342">
        <ele>172</ele>
        <time>2016-10-04T11:34:46Z</time>
      </trkpt>
      <trkpt lat="45.93722" lon="4.72352">
        <ele>172</ele>
        <time>2016-10-04T11:34:48Z</time>
      </trkpt>
      <trkpt lat="45.93719" lon="4.72356">
        <ele>172</ele>
        <time>2016-10-04T11:34:49Z</time>
      </trkpt>
      <trkpt lat="45.93714" lon="4.72362">
        <ele>172</ele>
        <time>2016-10-04T11:34:51Z</time>
      </trkpt>
      <trkpt lat="45.93711" lon="4.72363">
        <ele>172</ele>
        <time>2016-10-04T11:34:52Z</time>
      </trkpt>
      <trkpt lat="45.93705" lon="4.72359">
        <ele>171</ele>
        <time>2016-10-04T11:34:54Z</time>
      </trkpt>
      <trkpt lat="45.93703" lon="4.72356">
        <ele>171</ele>
        <time>2016-10-04T11:34:55Z</time>
      </trkpt>
      <trkpt lat="45.93697" lon="4.72349">
        <ele>171</ele>
        <time>2016-10-04T11:34:57Z</time>
      </trkpt>
      <trkpt lat="45.93693" lon="4.72343">
        <ele>171</ele>
        <time>2016-10-04T11:34:58Z</time>
      </trkpt>
      <trkpt lat="45.93688" lon="4.7234">
        <ele>171</ele>
        <time>2016-10-04T11:34:59Z</time>
      </trkpt>
      <trkpt lat="45.93684" lon="4.72337">
        <ele>171</ele>
        <time>2016-10-04T11:35:00Z</time>
      </trkpt>
      <trkpt lat="45.93677" lon="4.72332">
        <ele>171</ele>
        <time>2016-10-04T11:35:02Z</time>
      </trkpt>
      <trkpt lat="45.93673" lon="4.72324">
        <ele>171</ele>
        <time>2016-10-04T11:35:03Z</time>
      </trkpt>
      <trkpt lat="45.93668" lon="4.72317">
        <ele>171</ele>
        <time>2016-10-04T11:35:05Z</time>
      </trkpt>
      <trkpt lat="45.93665" lon="4.72312">
        <ele>172</ele>
        <time>2016-10-04T11:35:06Z</time>
      </trkpt>
      <trkpt lat="45.93661" lon="4.72307">
        <ele>172</ele>
        <time>2016-10-04T11:35:07Z</time>
      </trkpt>
      <trkpt lat="45.93657" lon="4.72302">
        <ele>172</ele>
        <time>2016-10-04T11:35:08Z</time>
      </trkpt>
      <trkpt lat="45.93652" lon="4.72297">
        <ele>172</ele>
        <time>2016-10-04T11:35:09Z</time>
      </trkpt>
      <trkpt lat="45.93647" lon="4.72293">
        <ele>172</ele>
        <time>2016-10-04T11:35:10Z</time>
      </trkpt>
      <trkpt lat="45.93643" lon="4.72289">
        <ele>172</ele>
        <time>2016-10-04T11:35:11Z</time>
      </trkpt>
      <trkpt lat="45.93638" lon="4.72285">
        <ele>172</ele>
        <time>2016-10-04T11:35:12Z</time>
      </trkpt>
      <trkpt lat="45.93634" lon="4.7228">
        <ele>172</ele>
        <time>2016-10-04T11:35:13Z</time>
      </trkpt>
      <trkpt lat="45.9363" lon="4.72275">
        <ele>172</ele>
        <time>2016-10-04T11:35:14Z</time>
      </trkpt>
      <trkpt lat="45.93623" lon="4.7227">
        <ele>172</ele>
        <time>2016-10-04T11:35:16Z</time>
      </trkpt>
      <trkpt lat="45.9362" lon="4.72266">
        <ele>172</ele>
        <time>2016-10-04T11:35:17Z</time>
      </trkpt>
      <trkpt lat="45.93614" lon="4.72258">
        <ele>172</ele>
        <time>2016-10-04T11:35:19Z</time>
      </trkpt>
      <trkpt lat="45.9361" lon="4.72254">
        <ele>173</ele>
        <time>2016-10-04T11:35:20Z</time>
      </trkpt>
      <trkpt lat="45.93606" lon="4.7225">
        <ele>173</ele>
        <time>2016-10-04T11:35:21Z</time>
      </trkpt>
      <trkpt lat="45.93602" lon="4.72246">
        <ele>173</ele>
        <time>2016-10-04T11:35:22Z</time>
      </trkpt>
      <trkpt lat="45.93598" lon="4.72243">
        <ele>173</ele>
        <time>2016-10-04T11:35:23Z</time>
      </trkpt>
      <trkpt lat="45.93594" lon="4.72238">
        <ele>173</ele>
        <time>2016-10-04T11:35:24Z</time>
      </trkpt>
      <trkpt lat="45.93588" lon="4.72232">
        <ele>173</ele>
        <time>2016-10-04T11:35:26Z</time>
      </trkpt>
      <trkpt lat="45.93585" lon="4.72228">
        <ele>173</ele>
        <time>2016-10-04T11:35:27Z</time>
      </trkpt>
      <trkpt lat="45.93581" lon="4.72218">
        <ele>173</ele>
        <time>2016-10-04T11:35:29Z</time>
      </trkpt>
      <trkpt lat="45.93579" lon="4.72214">
        <ele>173</ele>
        <time>2016-10-04T11:35:30Z</time>
      </trkpt>
      <trkpt lat="45.93572" lon="4.72206">
        <ele>173</ele>
        <time>2016-10-04T11:35:53Z</time>
      </trkpt>
      <trkpt lat="45.93567" lon="4.72206">
        <ele>173</ele>
        <time>2016-10-04T11:35:54Z</time>
      </trkpt>
      <trkpt lat="45.9356" lon="4.72213">
        <ele>173</ele>
        <time>2016-10-04T11:35:56Z</time>
      </trkpt>
      <trkpt lat="45.93557" lon="4.72216">
        <ele>173</ele>
        <time>2016-10-04T11:35:57Z</time>
      </trkpt>
      <trkpt lat="45.93554" lon="4.72221">
        <ele>173</ele>
        <time>2016-10-04T11:35:58Z</time>
      </trkpt>
      <trkpt lat="45.93551" lon="4.72226">
        <ele>172</ele>
        <time>2016-10-04T11:35:59Z</time>
      </trkpt>
      <trkpt lat="45.93547" lon="4.72238">
        <ele>172</ele>
        <time>2016-10-04T11:36:01Z</time>
      </trkpt>
      <trkpt lat="45.93545" lon="4.72243">
        <ele>172</ele>
        <time>2016-10-04T11:36:02Z</time>
      </trkpt>
      <trkpt lat="45.93542" lon="4.72249">
        <ele>172</ele>
        <time>2016-10-04T11:36:03Z</time>
      </trkpt>
      <trkpt lat="45.93537" lon="4.7226">
        <ele>172</ele>
        <time>2016-10-04T11:36:05Z</time>
      </trkpt>
      <trkpt lat="45.93535" lon="4.72266">
        <ele>172</ele>
        <time>2016-10-04T11:36:06Z</time>
      </trkpt>
      <trkpt lat="45.93532" lon="4.72272">
        <ele>172</ele>
        <time>2016-10-04T11:36:07Z</time>
      </trkpt>
      <trkpt lat="45.93529" lon="4.72279">
        <ele>172</ele>
        <time>2016-10-04T11:36:08Z</time>
      </trkpt>
      <trkpt lat="45.93526" lon="4.72284">
        <ele>172</ele>
        <time>2016-10-04T11:36:09Z</time>
      </trkpt>
      <trkpt lat="45.93524" lon="4.72291">
        <ele>172</ele>
        <time>2016-10-04T11:36:10Z</time>
      </trkpt>
      <trkpt lat="45.9352" lon="4.72297">
        <ele>172</ele>
        <time>2016-10-04T11:36:11Z</time>
      </trkpt>
      <trkpt lat="45.93516" lon="4.72303">
        <ele>172</ele>
        <time>2016-10-04T11:36:12Z</time>
      </trkpt>
      <trkpt lat="45.9351" lon="4.72311">
        <ele>173</ele>
        <time>2016-10-04T11:36:13Z</time>
      </trkpt>
      <trkpt lat="45.93506" lon="4.72318">
        <ele>173</ele>
        <time>2016-10-04T11:36:14Z</time>
      </trkpt>
      <trkpt lat="45.93502" lon="4.72325">
        <ele>173</ele>
        <time>2016-10-04T11:36:15Z</time>
      </trkpt>
      <trkpt lat="45.93497" lon="4.72331">
        <ele>173</ele>
        <time>2016-10-04T11:36:16Z</time>
      </trkpt>
      <trkpt lat="45.93493" lon="4.72337">
        <ele>173</ele>
        <time>2016-10-04T11:36:17Z</time>
      </trkpt>
      <trkpt lat="45.93489" lon="4.72343">
        <ele>173</ele>
        <time>2016-10-04T11:36:18Z</time>
      </trkpt>
      <trkpt lat="45.93484" lon="4.72349">
        <ele>173</ele>
        <time>2016-10-04T11:36:19Z</time>
      </trkpt>
      <trkpt lat="45.9348" lon="4.72354">
        <ele>173</ele>
        <time>2016-10-04T11:36:20Z</time>
      </trkpt>
      <trkpt lat="45.93475" lon="4.7236">
        <ele>173</ele>
        <time>2016-10-04T11:36:21Z</time>
      </trkpt>
      <trkpt lat="45.93471" lon="4.72365">
        <ele>173</ele>
        <time>2016-10-04T11:36:22Z</time>
      </trkpt>
      <trkpt lat="45.93466" lon="4.72371">
        <ele>173</ele>
        <time>2016-10-04T11:36:23Z</time>
      </trkpt>
      <trkpt lat="45.93462" lon="4.72376">
        <ele>173</ele>
        <time>2016-10-04T11:36:24Z</time>
      </trkpt>
      <trkpt lat="45.93457" lon="4.72382">
        <ele>173</ele>
        <time>2016-10-04T11:36:25Z</time>
      </trkpt>
      <trkpt lat="45.93453" lon="4.72387">
        <ele>173</ele>
        <time>2016-10-04T11:36:26Z</time>
      </trkpt>
      <trkpt lat="45.93448" lon="4.72391">
        <ele>173</ele>
        <time>2016-10-04T11:36:27Z</time>
      </trkpt>
      <trkpt lat="45.93443" lon="4.72392">
        <ele>173</ele>
        <time>2016-10-04T11:36:28Z</time>
      </trkpt>
      <trkpt lat="45.93439" lon="4.72395">
        <ele>173</ele>
        <time>2016-10-04T11:36:29Z</time>
      </trkpt>
      <trkpt lat="45.93434" lon="4.72397">
        <ele>173</ele>
        <time>2016-10-04T11:36:30Z</time>
      </trkpt>
      <trkpt lat="45.93427" lon="4.72398">
        <ele>174</ele>
        <time>2016-10-04T11:36:31Z</time>
      </trkpt>
      <trkpt lat="45.93422" lon="4.72401">
        <ele>174</ele>
        <time>2016-10-04T11:36:32Z</time>
      </trkpt>
      <trkpt lat="45.93416" lon="4.72404">
        <ele>174</ele>
        <time>2016-10-04T11:36:33Z</time>
      </trkpt>
      <trkpt lat="45.93411" lon="4.72405">
        <ele>174</ele>
        <time>2016-10-04T11:36:34Z</time>
      </trkpt>
      <trkpt lat="45.93406" lon="4.72406">
        <ele>174</ele>
        <time>2016-10-04T11:36:35Z</time>
      </trkpt>
      <trkpt lat="45.934" lon="4.72405">
        <ele>174</ele>
        <time>2016-10-04T11:36:36Z</time>
      </trkpt>
      <trkpt lat="45.93395" lon="4.72406">
        <ele>174</ele>
        <time>2016-10-04T11:36:37Z</time>
      </trkpt>
      <trkpt lat="45.9339" lon="4.72409">
        <ele>174</ele>
        <time>2016-10-04T11:36:38Z</time>
      </trkpt>
      <trkpt lat="45.93386" lon="4.72414">
        <ele>174</ele>
        <time>2016-10-04T11:36:39Z</time>
      </trkpt>
      <trkpt lat="45.93383" lon="4.7242">
        <ele>173</ele>
        <time>2016-10-04T11:36:40Z</time>
      </trkpt>
      <trkpt lat="45.93382" lon="4.72427">
        <ele>173</ele>
        <time>2016-10-04T11:36:41Z</time>
      </trkpt>
      <trkpt lat="45.93384" lon="4.72432">
        <ele>173</ele>
        <time>2016-10-04T11:36:42Z</time>
      </trkpt>
      <trkpt lat="45.93386" lon="4.72438">
        <ele>173</ele>
        <time>2016-10-04T11:36:43Z</time>
      </trkpt>
      <trkpt lat="45.93388" lon="4.72445">
        <ele>173</ele>
        <time>2016-10-04T11:36:44Z</time>
      </trkpt>
      <trkpt lat="45.93388" lon="4.72451">
        <ele>173</ele>
        <time>2016-10-04T11:36:45Z</time>
      </trkpt>
      <trkpt lat="45.93386" lon="4.72459">
        <ele>173</ele>
        <time>2016-10-04T11:36:46Z</time>
      </trkpt>
      <trkpt lat="45.93383" lon="4.72466">
        <ele>173</ele>
        <time>2016-10-04T11:36:47Z</time>
      </trkpt>
      <trkpt lat="45.93379" lon="4.72471">
        <ele>173</ele>
        <time>2016-10-04T11:36:48Z</time>
      </trkpt>
      <trkpt lat="45.93375" lon="4.72477">
        <ele>173</ele>
        <time>2016-10-04T11:36:49Z</time>
      </trkpt>
      <trkpt lat="45.93371" lon="4.72482">
        <ele>173</ele>
        <time>2016-10-04T11:36:50Z</time>
      </trkpt>
      <trkpt lat="45.93367" lon="4.72487">
        <ele>173</ele>
        <time>2016-10-04T11:36:51Z</time>
      </trkpt>
      <trkpt lat="45.93362" lon="4.72493">
        <ele>173</ele>
        <time>2016-10-04T11:36:52Z</time>
      </trkpt>
      <trkpt lat="45.93358" lon="4.72498">
        <ele>173</ele>
        <time>2016-10-04T11:36:53Z</time>
      </trkpt>
      <trkpt lat="45.93354" lon="4.72503">
        <ele>172</ele>
        <time>2016-10-04T11:36:54Z</time>
      </trkpt>
      <trkpt lat="45.93349" lon="4.72509">
        <ele>172</ele>
        <time>2016-10-04T11:36:55Z</time>
      </trkpt>
      <trkpt lat="45.93345" lon="4.72514">
        <ele>172</ele>
        <time>2016-10-04T11:36:56Z</time>
      </trkpt>
      <trkpt lat="45.93341" lon="4.7252">
        <ele>172</ele>
        <time>2016-10-04T11:36:57Z</time>
      </trkpt>
      <trkpt lat="45.93336" lon="4.72526">
        <ele>172</ele>
        <time>2016-10-04T11:36:58Z</time>
      </trkpt>
      <trkpt lat="45.93332" lon="4.72531">
        <ele>172</ele>
        <time>2016-10-04T11:36:59Z</time>
      </trkpt>
      <trkpt lat="45.93327" lon="4.72538">
        <ele>172</ele>
        <time>2016-10-04T11:37:00Z</time>
      </trkpt>
      <trkpt lat="45.93323" lon="4.72545">
        <ele>172</ele>
        <time>2016-10-04T11:37:01Z</time>
      </trkpt>
      <trkpt lat="45.93319" lon="4.7255">
        <ele>172</ele>
        <time>2016-10-04T11:37:02Z</time>
      </trkpt>
      <trkpt lat="45.93314" lon="4.72556">
        <ele>172</ele>
        <time>2016-10-04T11:37:03Z</time>
      </trkpt>
      <trkpt lat="45.93308" lon="4.72561">
        <ele>172</ele>
        <time>2016-10-04T11:37:04Z</time>
      </trkpt>
      <trkpt lat="45.93303" lon="4.72565">
        <ele>171</ele>
        <time>2016-10-04T11:37:05Z</time>
      </trkpt>
      <trkpt lat="45.93298" lon="4.7257">
        <ele>171</ele>
        <time>2016-10-04T11:37:06Z</time>
      </trkpt>
      <trkpt lat="45.93294" lon="4.72575">
        <ele>171</ele>
        <time>2016-10-04T11:37:07Z</time>
      </trkpt>
      <trkpt lat="45.9329" lon="4.7258">
        <ele>171</ele>
        <time>2016-10-04T11:37:08Z</time>
      </trkpt>
      <trkpt lat="45.93286" lon="4.72585">
        <ele>170</ele>
        <time>2016-10-04T11:37:09Z</time>
      </trkpt>
      <trkpt lat="45.93281" lon="4.7259">
        <ele>170</ele>
        <time>2016-10-04T11:37:10Z</time>
      </trkpt>
      <trkpt lat="45.93276" lon="4.72595">
        <ele>170</ele>
        <time>2016-10-04T11:37:11Z</time>
      </trkpt>
      <trkpt lat="45.93272" lon="4.72601">
        <ele>170</ele>
        <time>2016-10-04T11:37:12Z</time>
      </trkpt>
      <trkpt lat="45.93268" lon="4.72606">
        <ele>170</ele>
        <time>2016-10-04T11:37:13Z</time>
      </trkpt>
      <trkpt lat="45.93263" lon="4.72612">
        <ele>170</ele>
        <time>2016-10-04T11:37:14Z</time>
      </trkpt>
      <trkpt lat="45.93259" lon="4.72617">
        <ele>170</ele>
        <time>2016-10-04T11:37:15Z</time>
      </trkpt>
      <trkpt lat="45.93254" lon="4.72622">
        <ele>170</ele>
        <time>2016-10-04T11:37:16Z</time>
      </trkpt>
      <trkpt lat="45.93249" lon="4.72628">
        <ele>170</ele>
        <time>2016-10-04T11:37:17Z</time>
      </trkpt>
      <trkpt lat="45.93245" lon="4.72634">
        <ele>170</ele>
        <time>2016-10-04T11:37:18Z</time>
      </trkpt>
      <trkpt lat="45.9324" lon="4.72639">
        <ele>170</ele>
        <time>2016-10-04T11:37:19Z</time>
      </trkpt>
      <trkpt lat="45.93236" lon="4.72644">
        <ele>170</ele>
        <time>2016-10-04T11:37:20Z</time>
      </trkpt>
      <trkpt lat="45.93231" lon="4.7265">
        <ele>170</ele>
        <time>2016-10-04T11:37:21Z</time>
      </trkpt>
      <trkpt lat="45.93226" lon="4.72655">
        <ele>170</ele>
        <time>2016-10-04T11:37:22Z</time>
      </trkpt>
      <trkpt lat="45.93221" lon="4.72661">
        <ele>170</ele>
        <time>2016-10-04T11:37:23Z</time>
      </trkpt>
      <trkpt lat="45.93217" lon="4.72666">
        <ele>170</ele>
        <time>2016-10-04T11:37:24Z</time>
      </trkpt>
      <trkpt lat="45.93212" lon="4.72672">
        <ele>169</ele>
        <time>2016-10-04T11:37:25Z</time>
      </trkpt>
      <trkpt lat="45.93207" lon="4.72677">
        <ele>169</ele>
        <time>2016-10-04T11:37:26Z</time>
      </trkpt>
      <trkpt lat="45.93203" lon="4.72683">
        <ele>169</ele>
        <time>2016-10-04T11:37:27Z</time>
      </trkpt>
      <trkpt lat="45.93198" lon="4.72688">
        <ele>169</ele>
        <time>2016-10-04T11:37:28Z</time>
      </trkpt>
      <trkpt lat="45.93193" lon="4.72694">
        <ele>169</ele>
        <time>2016-10-04T11:37:29Z</time>
      </trkpt>
      <trkpt lat="45.93188" lon="4.72698">
        <ele>169</ele>
        <time>2016-10-04T11:37:30Z</time>
      </trkpt>
      <trkpt lat="45.93183" lon="4.72702">
        <ele>169</ele>
        <time>2016-10-04T11:37:31Z</time>
      </trkpt>
      <trkpt lat="45.9318" lon="4.72706">
        <ele>169</ele>
        <time>2016-10-04T11:37:32Z</time>
      </trkpt>
      <trkpt lat="45.93175" lon="4.72711">
        <ele>170</ele>
        <time>2016-10-04T11:37:33Z</time>
      </trkpt>
      <trkpt lat="45.93171" lon="4.72716">
        <ele>170</ele>
        <time>2016-10-04T11:37:34Z</time>
      </trkpt>
      <trkpt lat="45.93167" lon="4.72721">
        <ele>170</ele>
        <time>2016-10-04T11:37:35Z</time>
      </trkpt>
      <trkpt lat="45.93162" lon="4.72725">
        <ele>170</ele>
        <time>2016-10-04T11:37:36Z</time>
      </trkpt>
      <trkpt lat="45.93158" lon="4.72729">
        <ele>170</ele>
        <time>2016-10-04T11:37:37Z</time>
      </trkpt>
      <trkpt lat="45.93154" lon="4.72734">
        <ele>170</ele>
        <time>2016-10-04T11:37:38Z</time>
      </trkpt>
      <trkpt lat="45.9315" lon="4.72739">
        <ele>170</ele>
        <time>2016-10-04T11:37:39Z</time>
      </trkpt>
      <trkpt lat="45.93146" lon="4.72744">
        <ele>170</ele>
        <time>2016-10-04T11:37:40Z</time>
      </trkpt>
      <trkpt lat="45.93142" lon="4.72748">
        <ele>170</ele>
        <time>2016-10-04T11:37:41Z</time>
      </trkpt>
      <trkpt lat="45.93135" lon="4.72756">
        <ele>171</ele>
        <time>2016-10-04T11:37:43Z</time>
      </trkpt>
      <trkpt lat="45.93132" lon="4.7276">
        <ele>171</ele>
        <time>2016-10-04T11:37:44Z</time>
      </trkpt>
      <trkpt lat="45.93127" lon="4.7277">
        <ele>171</ele>
        <time>2016-10-04T11:37:47Z</time>
      </trkpt>
      <trkpt lat="45.93126" lon="4.72772">
        <ele>171</ele>
        <time>2016-10-04T11:37:48Z</time>
      </trkpt>
      <trkpt lat="45.93119" lon="4.72779">
        <ele>171</ele>
        <time>2016-10-04T11:37:54Z</time>
      </trkpt>
      <trkpt lat="45.93118" lon="4.7278">
        <ele>171</ele>
        <time>2016-10-04T11:37:55Z</time>
      </trkpt>
      <trkpt lat="45.93115" lon="4.72785">
        <ele>171</ele>
        <time>2016-10-04T11:38:00Z</time>
      </trkpt>
      <trkpt lat="45.93114" lon="4.72784">
        <ele>171</ele>
        <time>2016-10-04T11:38:01Z</time>
      </trkpt>
      <trkpt lat="45.93111" lon="4.72786">
        <ele>171</ele>
        <time>2016-10-04T11:38:08Z</time>
      </trkpt>
      <trkpt lat="45.93109" lon="4.72788">
        <ele>171</ele>
        <time>2016-10-04T11:38:09Z</time>
      </trkpt>
      <trkpt lat="45.93103" lon="4.72797">
        <ele>171</ele>
        <time>2016-10-04T11:38:13Z</time>
      </trkpt>
      <trkpt lat="45.93102" lon="4.72798">
        <ele>171</ele>
        <time>2016-10-04T11:38:14Z</time>
      </trkpt>
      <trkpt lat="45.93096" lon="4.72806">
        <ele>172</ele>
        <time>2016-10-04T11:38:23Z</time>
      </trkpt>
      <trkpt lat="45.93095" lon="4.72808">
        <ele>172</ele>
        <time>2016-10-04T11:38:24Z</time>
      </trkpt>
      <trkpt lat="45.93091" lon="4.72814">
        <ele>172</ele>
        <time>2016-10-04T11:38:26Z</time>
      </trkpt>
      <trkpt lat="45.93089" lon="4.72818">
        <ele>172</ele>
        <time>2016-10-04T11:38:27Z</time>
      </trkpt>
      <trkpt lat="45.93083" lon="4.72827">
        <ele>173</ele>
        <time>2016-10-04T11:38:29Z</time>
      </trkpt>
      <trkpt lat="45.9308" lon="4.72833">
        <ele>173</ele>
        <time>2016-10-04T11:38:30Z</time>
      </trkpt>
      <trkpt lat="45.93078" lon="4.72838">
        <ele>173</ele>
        <time>2016-10-04T11:38:31Z</time>
      </trkpt>
      <trkpt lat="45.93075" lon="4.72844">
        <ele>173</ele>
        <time>2016-10-04T11:38:32Z</time>
      </trkpt>
      <trkpt lat="45.93071" lon="4.72848">
        <ele>172</ele>
        <time>2016-10-04T11:38:33Z</time>
      </trkpt>
      <trkpt lat="45.93066" lon="4.72851">
        <ele>172</ele>
        <time>2016-10-04T11:38:34Z</time>
      </trkpt>
      <trkpt lat="45.9306" lon="4.72854">
        <ele>172</ele>
        <time>2016-10-04T11:38:35Z</time>
      </trkpt>
      <trkpt lat="45.93057" lon="4.72858">
        <ele>172</ele>
        <time>2016-10-04T11:38:36Z</time>
      </trkpt>
      <trkpt lat="45.9305" lon="4.72862">
        <ele>172</ele>
        <time>2016-10-04T11:38:37Z</time>
      </trkpt>
      <trkpt lat="45.93044" lon="4.72866">
        <ele>172</ele>
        <time>2016-10-04T11:38:38Z</time>
      </trkpt>
      <trkpt lat="45.93036" lon="4.72872">
        <ele>172</ele>
        <time>2016-10-04T11:38:39Z</time>
      </trkpt>
      <trkpt lat="45.93031" lon="4.72877">
        <ele>172</ele>
        <time>2016-10-04T11:38:40Z</time>
      </trkpt>
      <trkpt lat="45.93027" lon="4.72884">
        <ele>172</ele>
        <time>2016-10-04T11:38:41Z</time>
      </trkpt>
      <trkpt lat="45.93023" lon="4.72892">
        <ele>172</ele>
        <time>2016-10-04T11:38:42Z</time>
      </trkpt>
      <trkpt lat="45.93019" lon="4.72897">
        <ele>172</ele>
        <time>2016-10-04T11:38:43Z</time>
      </trkpt>
      <trkpt lat="45.93015" lon="4.72901">
        <ele>172</ele>
        <time>2016-10-04T11:38:44Z</time>
      </trkpt>
      <trkpt lat="45.9301" lon="4.72906">
        <ele>171</ele>
        <time>2016-10-04T11:38:45Z</time>
      </trkpt>
      <trkpt lat="45.93005" lon="4.7291">
        <ele>171</ele>
        <time>2016-10-04T11:38:46Z</time>
      </trkpt>
      <trkpt lat="45.93" lon="4.72914">
        <ele>171</ele>
        <time>2016-10-04T11:38:47Z</time>
      </trkpt>
      <trkpt lat="45.92995" lon="4.7292">
        <ele>171</ele>
        <time>2016-10-04T11:38:48Z</time>
      </trkpt>
      <trkpt lat="45.9299" lon="4.72925">
        <ele>171</ele>
        <time>2016-10-04T11:38:49Z</time>
      </trkpt>
      <trkpt lat="45.92986" lon="4.72931">
        <ele>171</ele>
        <time>2016-10-04T11:38:50Z</time>
      </trkpt>
      <trkpt lat="45.92981" lon="4.72936">
        <ele>171</ele>
        <time>2016-10-04T11:38:51Z</time>
      </trkpt>
      <trkpt lat="45.92977" lon="4.72941">
        <ele>171</ele>
        <time>2016-10-04T11:38:52Z</time>
      </trkpt>
      <trkpt lat="45.92973" lon="4.72946">
        <ele>171</ele>
        <time>2016-10-04T11:38:53Z</time>
      </trkpt>
      <trkpt lat="45.92969" lon="4.7295">
        <ele>171</ele>
        <time>2016-10-04T11:38:54Z</time>
      </trkpt>
      <trkpt lat="45.92966" lon="4.72955">
        <ele>171</ele>
        <time>2016-10-04T11:38:55Z</time>
      </trkpt>
      <trkpt lat="45.92963" lon="4.7296">
        <ele>171</ele>
        <time>2016-10-04T11:38:56Z</time>
      </trkpt>
      <trkpt lat="45.92959" lon="4.72965">
        <ele>171</ele>
        <time>2016-10-04T11:38:57Z</time>
      </trkpt>
      <trkpt lat="45.92955" lon="4.7297">
        <ele>171</ele>
        <time>2016-10-04T11:38:58Z</time>
      </trkpt>
      <trkpt lat="45.92951" lon="4.72975">
        <ele>171</ele>
        <time>2016-10-04T11:38:59Z</time>
      </trkpt>
      <trkpt lat="45.92946" lon="4.72981">
        <ele>171</ele>
        <time>2016-10-04T11:39:00Z</time>
      </trkpt>
      <trkpt lat="45.92941" lon="4.72987">
        <ele>171</ele>
        <time>2016-10-04T11:39:01Z</time>
      </trkpt>
      <trkpt lat="45.92937" lon="4.72993">
        <ele>171</ele>
        <time>2016-10-04T11:39:02Z</time>
      </trkpt>
      <trkpt lat="45.92932" lon="4.72998">
        <ele>172</ele>
        <time>2016-10-04T11:39:03Z</time>
      </trkpt>
      <trkpt lat="45.92913" lon="4.73023">
        <ele>172</ele>
        <time>2016-10-04T11:39:08Z</time>
      </trkpt>
      <trkpt lat="45.92909" lon="4.73028">
        <ele>172</ele>
        <time>2016-10-04T11:39:09Z</time>
      </trkpt>
      <trkpt lat="45.92906" lon="4.73032">
        <ele>172</ele>
        <time>2016-10-04T11:39:10Z</time>
      </trkpt>
      <trkpt lat="45.92903" lon="4.73038">
        <ele>172</ele>
        <time>2016-10-04T11:39:11Z</time>
      </trkpt>
      <trkpt lat="45.92899" lon="4.73044">
        <ele>172</ele>
        <time>2016-10-04T11:39:12Z</time>
      </trkpt>
      <trkpt lat="45.92896" lon="4.7305">
        <ele>172</ele>
        <time>2016-10-04T11:39:13Z</time>
      </trkpt>
      <trkpt lat="45.92892" lon="4.73058">
        <ele>172</ele>
        <time>2016-10-04T11:39:14Z</time>
      </trkpt>
      <trkpt lat="45.92888" lon="4.73065">
        <ele>172</ele>
        <time>2016-10-04T11:39:15Z</time>
      </trkpt>
      <trkpt lat="45.92884" lon="4.73072">
        <ele>172</ele>
        <time>2016-10-04T11:39:16Z</time>
      </trkpt>
      <trkpt lat="45.92881" lon="4.73079">
        <ele>172</ele>
        <time>2016-10-04T11:39:17Z</time>
      </trkpt>
      <trkpt lat="45.92879" lon="4.73088">
        <ele>172</ele>
        <time>2016-10-04T11:39:18Z</time>
      </trkpt>
      <trkpt lat="45.92877" lon="4.73095">
        <ele>172</ele>
        <time>2016-10-04T11:39:19Z</time>
      </trkpt>
      <trkpt lat="45.92874" lon="4.73102">
        <ele>172</ele>
        <time>2016-10-04T11:39:20Z</time>
      </trkpt>
      <trkpt lat="45.92872" lon="4.73109">
        <ele>172</ele>
        <time>2016-10-04T11:39:21Z</time>
      </trkpt>
      <trkpt lat="45.9287" lon="4.73117">
        <ele>171</ele>
        <time>2016-10-04T11:39:22Z</time>
      </trkpt>
      <trkpt lat="45.92868" lon="4.73124">
        <ele>171</ele>
        <time>2016-10-04T11:39:23Z</time>
      </trkpt>
      <trkpt lat="45.92866" lon="4.73131">
        <ele>171</ele>
        <time>2016-10-04T11:39:24Z</time>
      </trkpt>
      <trkpt lat="45.92865" lon="4.73138">
        <ele>171</ele>
        <time>2016-10-04T11:39:25Z</time>
      </trkpt>
      <trkpt lat="45.92863" lon="4.73146">
        <ele>171</ele>
        <time>2016-10-04T11:39:26Z</time>
      </trkpt>
      <trkpt lat="45.92862" lon="4.73153">
        <ele>171</ele>
        <time>2016-10-04T11:39:27Z</time>
      </trkpt>
      <trkpt lat="45.92861" lon="4.7316">
        <ele>171</ele>
        <time>2016-10-04T11:39:28Z</time>
      </trkpt>
      <trkpt lat="45.9286" lon="4.73167">
        <ele>171</ele>
        <time>2016-10-04T11:39:29Z</time>
      </trkpt>
      <trkpt lat="45.92859" lon="4.73175">
        <ele>171</ele>
        <time>2016-10-04T11:39:30Z</time>
      </trkpt>
      <trkpt lat="45.92858" lon="4.73183">
        <ele>171</ele>
        <time>2016-10-04T11:39:31Z</time>
      </trkpt>
      <trkpt lat="45.92858" lon="4.73191">
        <ele>171</ele>
        <time>2016-10-04T11:39:32Z</time>
      </trkpt>
      <trkpt lat="45.92858" lon="4.73201">
        <ele>171</ele>
        <time>2016-10-04T11:39:33Z</time>
      </trkpt>
      <trkpt lat="45.92855" lon="4.73209">
        <ele>171</ele>
        <time>2016-10-04T11:39:34Z</time>
      </trkpt>
      <trkpt lat="45.92854" lon="4.73218">
        <ele>171</ele>
        <time>2016-10-04T11:39:35Z</time>
      </trkpt>
      <trkpt lat="45.92853" lon="4.73227">
        <ele>171</ele>
        <time>2016-10-04T11:39:36Z</time>
      </trkpt>
      <trkpt lat="45.92852" lon="4.73237">
        <ele>171</ele>
        <time>2016-10-04T11:39:37Z</time>
      </trkpt>
      <trkpt lat="45.92851" lon="4.73246">
        <ele>171</ele>
        <time>2016-10-04T11:39:38Z</time>
      </trkpt>
      <trkpt lat="45.92851" lon="4.73254">
        <ele>171</ele>
        <time>2016-10-04T11:39:39Z</time>
      </trkpt>
      <trkpt lat="45.9285" lon="4.73263">
        <ele>171</ele>
        <time>2016-10-04T11:39:40Z</time>
      </trkpt>
      <trkpt lat="45.92849" lon="4.73271">
        <ele>171</ele>
        <time>2016-10-04T11:39:41Z</time>
      </trkpt>
      <trkpt lat="45.92848" lon="4.7328">
        <ele>171</ele>
        <time>2016-10-04T11:39:42Z</time>
      </trkpt>
      <trkpt lat="45.92846" lon="4.73289">
        <ele>171</ele>
        <time>2016-10-04T11:39:43Z</time>
      </trkpt>
      <trkpt lat="45.92846" lon="4.73297">
        <ele>171</ele>
        <time>2016-10-04T11:39:44Z</time>
      </trkpt>
      <trkpt lat="45.92845" lon="4.73305">
        <ele>171</ele>
        <time>2016-10-04T11:39:45Z</time>
      </trkpt>
      <trkpt lat="45.92844" lon="4.73313">
        <ele>171</ele>
        <time>2016-10-04T11:39:46Z</time>
      </trkpt>
      <trkpt lat="45.92843" lon="4.73321">
        <ele>171</ele>
        <time>2016-10-04T11:39:47Z</time>
      </trkpt>
      <trkpt lat="45.92842" lon="4.7333">
        <ele>171</ele>
        <time>2016-10-04T11:39:48Z</time>
      </trkpt>
      <trkpt lat="45.92842" lon="4.73338">
        <ele>171</ele>
        <time>2016-10-04T11:39:49Z</time>
      </trkpt>
      <trkpt lat="45.9284" lon="4.73347">
        <ele>171</ele>
        <time>2016-10-04T11:39:50Z</time>
      </trkpt>
      <trkpt lat="45.92839" lon="4.73356">
        <ele>171</ele>
        <time>2016-10-04T11:39:51Z</time>
      </trkpt>
      <trkpt lat="45.92838" lon="4.73365">
        <ele>171</ele>
        <time>2016-10-04T11:39:52Z</time>
      </trkpt>
      <trkpt lat="45.92837" lon="4.73374">
        <ele>171</ele>
        <time>2016-10-04T11:39:53Z</time>
      </trkpt>
      <trkpt lat="45.92836" lon="4.73383">
        <ele>172</ele>
        <time>2016-10-04T11:39:54Z</time>
      </trkpt>
      <trkpt lat="45.92835" lon="4.73392">
        <ele>172</ele>
        <time>2016-10-04T11:39:55Z</time>
      </trkpt>
      <trkpt lat="45.92834" lon="4.73401">
        <ele>172</ele>
        <time>2016-10-04T11:39:56Z</time>
      </trkpt>
      <trkpt lat="45.92832" lon="4.73409">
        <ele>172</ele>
        <time>2016-10-04T11:39:57Z</time>
      </trkpt>
      <trkpt lat="45.92831" lon="4.73417">
        <ele>172</ele>
        <time>2016-10-04T11:39:58Z</time>
      </trkpt>
      <trkpt lat="45.9283" lon="4.73425">
        <ele>172</ele>
        <time>2016-10-04T11:39:59Z</time>
      </trkpt>
      <trkpt lat="45.92829" lon="4.73432">
        <ele>172</ele>
        <time>2016-10-04T11:40:00Z</time>
      </trkpt>
      <trkpt lat="45.92828" lon="4.7344">
        <ele>172</ele>
        <time>2016-10-04T11:40:01Z</time>
      </trkpt>
      <trkpt lat="45.92827" lon="4.73448">
        <ele>172</ele>
        <time>2016-10-04T11:40:02Z</time>
      </trkpt>
      <trkpt lat="45.92826" lon="4.73457">
        <ele>172</ele>
        <time>2016-10-04T11:40:03Z</time>
      </trkpt>
      <trkpt lat="45.92826" lon="4.73466">
        <ele>172</ele>
        <time>2016-10-04T11:40:04Z</time>
      </trkpt>
      <trkpt lat="45.92824" lon="4.73476">
        <ele>172</ele>
        <time>2016-10-04T11:40:05Z</time>
      </trkpt>
      <trkpt lat="45.92823" lon="4.73485">
        <ele>172</ele>
        <time>2016-10-04T11:40:06Z</time>
      </trkpt>
      <trkpt lat="45.92821" lon="4.73495">
        <ele>172</ele>
        <time>2016-10-04T11:40:07Z</time>
      </trkpt>
      <trkpt lat="45.9282" lon="4.73503">
        <ele>172</ele>
        <time>2016-10-04T11:40:08Z</time>
      </trkpt>
      <trkpt lat="45.92819" lon="4.73511">
        <ele>172</ele>
        <time>2016-10-04T11:40:09Z</time>
      </trkpt>
      <trkpt lat="45.92818" lon="4.73519">
        <ele>172</ele>
        <time>2016-10-04T11:40:10Z</time>
      </trkpt>
      <trkpt lat="45.92817" lon="4.73528">
        <ele>172</ele>
        <time>2016-10-04T11:40:11Z</time>
      </trkpt>
      <trkpt lat="45.92817" lon="4.73536">
        <ele>172</ele>
        <time>2016-10-04T11:40:12Z</time>
      </trkpt>
      <trkpt lat="45.92817" lon="4.73544">
        <ele>171</ele>
        <time>2016-10-04T11:40:13Z</time>
      </trkpt>
      <trkpt lat="45.92817" lon="4.73552">
        <ele>171</ele>
        <time>2016-10-04T11:40:14Z</time>
      </trkpt>
      <trkpt lat="45.92816" lon="4.73562">
        <ele>171</ele>
        <time>2016-10-04T11:40:15Z</time>
      </trkpt>
      <trkpt lat="45.92816" lon="4.73571">
        <ele>171</ele>
        <time>2016-10-04T11:40:16Z</time>
      </trkpt>
      <trkpt lat="45.92816" lon="4.73579">
        <ele>171</ele>
        <time>2016-10-04T11:40:17Z</time>
      </trkpt>
      <trkpt lat="45.92816" lon="4.73588">
        <ele>171</ele>
        <time>2016-10-04T11:40:18Z</time>
      </trkpt>
      <trkpt lat="45.92815" lon="4.73596">
        <ele>171</ele>
        <time>2016-10-04T11:40:19Z</time>
      </trkpt>
      <trkpt lat="45.92815" lon="4.73605">
        <ele>172</ele>
        <time>2016-10-04T11:40:20Z</time>
      </trkpt>
      <trkpt lat="45.92814" lon="4.73613">
        <ele>172</ele>
        <time>2016-10-04T11:40:21Z</time>
      </trkpt>
      <trkpt lat="45.92813" lon="4.73621">
        <ele>172</ele>
        <time>2016-10-04T11:40:22Z</time>
      </trkpt>
      <trkpt lat="45.9281" lon="4.73628">
        <ele>172</ele>
        <time>2016-10-04T11:40:23Z</time>
      </trkpt>
      <trkpt lat="45.92806" lon="4.73634">
        <ele>172</ele>
        <time>2016-10-04T11:40:24Z</time>
      </trkpt>
      <trkpt lat="45.92804" lon="4.73641">
        <ele>172</ele>
        <time>2016-10-04T11:40:25Z</time>
      </trkpt>
      <trkpt lat="45.92801" lon="4.73647">
        <ele>172</ele>
        <time>2016-10-04T11:40:26Z</time>
      </trkpt>
      <trkpt lat="45.92798" lon="4.73653">
        <ele>172</ele>
        <time>2016-10-04T11:40:27Z</time>
      </trkpt>
      <trkpt lat="45.92797" lon="4.7366">
        <ele>172</ele>
        <time>2016-10-04T11:40:28Z</time>
      </trkpt>
      <trkpt lat="45.92795" lon="4.73666">
        <ele>172</ele>
        <time>2016-10-04T11:40:29Z</time>
      </trkpt>
      <trkpt lat="45.92793" lon="4.73672">
        <ele>172</ele>
        <time>2016-10-04T11:40:30Z</time>
      </trkpt>
      <trkpt lat="45.9279" lon="4.73683">
        <ele>172</ele>
        <time>2016-10-04T11:40:32Z</time>
      </trkpt>
      <trkpt lat="45.92788" lon="4.73689">
        <ele>172</ele>
        <time>2016-10-04T11:40:33Z</time>
      </trkpt>
      <trkpt lat="45.92785" lon="4.73701">
        <ele>172</ele>
        <time>2016-10-04T11:40:35Z</time>
      </trkpt>
      <trkpt lat="45.92783" lon="4.73707">
        <ele>172</ele>
        <time>2016-10-04T11:40:36Z</time>
      </trkpt>
      <trkpt lat="45.92782" lon="4.73714">
        <ele>172</ele>
        <time>2016-10-04T11:40:37Z</time>
      </trkpt>
      <trkpt lat="45.92781" lon="4.7372">
        <ele>172</ele>
        <time>2016-10-04T11:40:38Z</time>
      </trkpt>
      <trkpt lat="45.92776" lon="4.73727">
        <ele>172</ele>
        <time>2016-10-04T11:40:40Z</time>
      </trkpt>
      <trkpt lat="45.92773" lon="4.7373">
        <ele>172</ele>
        <time>2016-10-04T11:40:41Z</time>
      </trkpt>
      <trkpt lat="45.92766" lon="4.73728">
        <ele>172</ele>
        <time>2016-10-04T11:40:43Z</time>
      </trkpt>
      <trkpt lat="45.92762" lon="4.73726">
        <ele>172</ele>
        <time>2016-10-04T11:40:44Z</time>
      </trkpt>
      <trkpt lat="45.92756" lon="4.73723">
        <ele>172</ele>
        <time>2016-10-04T11:40:45Z</time>
      </trkpt>
      <trkpt lat="45.92749" lon="4.73721">
        <ele>173</ele>
        <time>2016-10-04T11:40:46Z</time>
      </trkpt>
      <trkpt lat="45.92743" lon="4.73718">
        <ele>173</ele>
        <time>2016-10-04T11:40:47Z</time>
      </trkpt>
      <trkpt lat="45.92737" lon="4.73716">
        <ele>173</ele>
        <time>2016-10-04T11:40:48Z</time>
      </trkpt>
      <trkpt lat="45.92731" lon="4.73715">
        <ele>173</ele>
        <time>2016-10-04T11:40:49Z</time>
      </trkpt>
      <trkpt lat="45.92725" lon="4.73714">
        <ele>173</ele>
        <time>2016-10-04T11:40:50Z</time>
      </trkpt>
      <trkpt lat="45.9272" lon="4.73716">
        <ele>173</ele>
        <time>2016-10-04T11:40:51Z</time>
      </trkpt>
      <trkpt lat="45.92714" lon="4.73713">
        <ele>173</ele>
        <time>2016-10-04T11:40:52Z</time>
      </trkpt>
      <trkpt lat="45.92709" lon="4.73711">
        <ele>173</ele>
        <time>2016-10-04T11:40:53Z</time>
      </trkpt>
      <trkpt lat="45.92704" lon="4.7371">
        <ele>173</ele>
        <time>2016-10-04T11:40:54Z</time>
      </trkpt>
      <trkpt lat="45.92698" lon="4.73709">
        <ele>173</ele>
        <time>2016-10-04T11:40:55Z</time>
      </trkpt>
      <trkpt lat="45.92692" lon="4.73709">
        <ele>173</ele>
        <time>2016-10-04T11:40:56Z</time>
      </trkpt>
      <trkpt lat="45.92687" lon="4.73708">
        <ele>173</ele>
        <time>2016-10-04T11:40:57Z</time>
      </trkpt>
      <trkpt lat="45.92682" lon="4.73706">
        <ele>173</ele>
        <time>2016-10-04T11:40:58Z</time>
      </trkpt>
      <trkpt lat="45.92677" lon="4.73704">
        <ele>173</ele>
        <time>2016-10-04T11:40:59Z</time>
      </trkpt>
      <trkpt lat="45.92672" lon="4.73703">
        <ele>174</ele>
        <time>2016-10-04T11:41:00Z</time>
      </trkpt>
      <trkpt lat="45.92666" lon="4.737">
        <ele>173</ele>
        <time>2016-10-04T11:41:01Z</time>
      </trkpt>
      <trkpt lat="45.92661" lon="4.73697">
        <ele>173</ele>
        <time>2016-10-04T11:41:02Z</time>
      </trkpt>
      <trkpt lat="45.92655" lon="4.73693">
        <ele>173</ele>
        <time>2016-10-04T11:41:03Z</time>
      </trkpt>
      <trkpt lat="45.9265" lon="4.73689">
        <ele>173</ele>
        <time>2016-10-04T11:41:04Z</time>
      </trkpt>
      <trkpt lat="45.92646" lon="4.73681">
        <ele>173</ele>
        <time>2016-10-04T11:41:05Z</time>
      </trkpt>
      <trkpt lat="45.92642" lon="4.73674">
        <ele>173</ele>
        <time>2016-10-04T11:41:06Z</time>
      </trkpt>
      <trkpt lat="45.92638" lon="4.73668">
        <ele>173</ele>
        <time>2016-10-04T11:41:07Z</time>
      </trkpt>
      <trkpt lat="45.92635" lon="4.73662">
        <ele>173</ele>
        <time>2016-10-04T11:41:08Z</time>
      </trkpt>
      <trkpt lat="45.92631" lon="4.73656">
        <ele>173</ele>
        <time>2016-10-04T11:41:09Z</time>
      </trkpt>
      <trkpt lat="45.92628" lon="4.73649">
        <ele>173</ele>
        <time>2016-10-04T11:41:10Z</time>
      </trkpt>
      <trkpt lat="45.92625" lon="4.73643">
        <ele>173</ele>
        <time>2016-10-04T11:41:11Z</time>
      </trkpt>
      <trkpt lat="45.92623" lon="4.73636">
        <ele>173</ele>
        <time>2016-10-04T11:41:12Z</time>
      </trkpt>
      <trkpt lat="45.92619" lon="4.7363">
        <ele>173</ele>
        <time>2016-10-04T11:41:13Z</time>
      </trkpt>
      <trkpt lat="45.92615" lon="4.73625">
        <ele>173</ele>
        <time>2016-10-04T11:41:14Z</time>
      </trkpt>
      <trkpt lat="45.9261" lon="4.73621">
        <ele>173</ele>
        <time>2016-10-04T11:41:15Z</time>
      </trkpt>
      <trkpt lat="45.92604" lon="4.73619">
        <ele>173</ele>
        <time>2016-10-04T11:41:16Z</time>
      </trkpt>
      <trkpt lat="45.92598" lon="4.73619">
        <ele>173</ele>
        <time>2016-10-04T11:41:17Z</time>
      </trkpt>
      <trkpt lat="45.92591" lon="4.73619">
        <ele>173</ele>
        <time>2016-10-04T11:41:18Z</time>
      </trkpt>
      <trkpt lat="45.92585" lon="4.73621">
        <ele>173</ele>
        <time>2016-10-04T11:41:19Z</time>
      </trkpt>
      <trkpt lat="45.92578" lon="4.73623">
        <ele>173</ele>
        <time>2016-10-04T11:41:20Z</time>
      </trkpt>
      <trkpt lat="45.92571" lon="4.73623">
        <ele>173</ele>
        <time>2016-10-04T11:41:21Z</time>
      </trkpt>
      <trkpt lat="45.92565" lon="4.73624">
        <ele>173</ele>
        <time>2016-10-04T11:41:22Z</time>
      </trkpt>
      <trkpt lat="45.92559" lon="4.73626">
        <ele>173</ele>
        <time>2016-10-04T11:41:23Z</time>
      </trkpt>
      <trkpt lat="45.92554" lon="4.73629">
        <ele>173</ele>
        <time>2016-10-04T11:41:24Z</time>
      </trkpt>
      <trkpt lat="45.92548" lon="4.7363">
        <ele>173</ele>
        <time>2016-10-04T11:41:25Z</time>
      </trkpt>
      <trkpt lat="45.92542" lon="4.73631">
        <ele>173</ele>
        <time>2016-10-04T11:41:26Z</time>
      </trkpt>
      <trkpt lat="45.92536" lon="4.73631">
        <ele>173</ele>
        <time>2016-10-04T11:41:27Z</time>
      </trkpt>
      <trkpt lat="45.9253" lon="4.73631">
        <ele>173</ele>
        <time>2016-10-04T11:41:28Z</time>
      </trkpt>
      <trkpt lat="45.92525" lon="4.73631">
        <ele>173</ele>
        <time>2016-10-04T11:41:29Z</time>
      </trkpt>
      <trkpt lat="45.9252" lon="4.73632">
        <ele>173</ele>
        <time>2016-10-04T11:41:30Z</time>
      </trkpt>
      <trkpt lat="45.92514" lon="4.73633">
        <ele>173</ele>
        <time>2016-10-04T11:41:31Z</time>
      </trkpt>
      <trkpt lat="45.92509" lon="4.73633">
        <ele>173</ele>
        <time>2016-10-04T11:41:32Z</time>
      </trkpt>
      <trkpt lat="45.92505" lon="4.73634">
        <ele>174</ele>
        <time>2016-10-04T11:41:33Z</time>
      </trkpt>
      <trkpt lat="45.925" lon="4.73633">
        <ele>174</ele>
        <time>2016-10-04T11:41:34Z</time>
      </trkpt>
      <trkpt lat="45.92492" lon="4.73633">
        <ele>174</ele>
        <time>2016-10-04T11:41:36Z</time>
      </trkpt>
      <trkpt lat="45.92488" lon="4.73632">
        <ele>174</ele>
        <time>2016-10-04T11:41:37Z</time>
      </trkpt>
      <trkpt lat="45.9248" lon="4.73636">
        <ele>174</ele>
        <time>2016-10-04T11:41:39Z</time>
      </trkpt>
      <trkpt lat="45.92476" lon="4.7364">
        <ele>174</ele>
        <time>2016-10-04T11:41:40Z</time>
      </trkpt>
      <trkpt lat="45.92471" lon="4.7365">
        <ele>174</ele>
        <time>2016-10-04T11:41:42Z</time>
      </trkpt>
      <trkpt lat="45.92469" lon="4.73656">
        <ele>174</ele>
        <time>2016-10-04T11:41:43Z</time>
      </trkpt>
      <trkpt lat="45.92467" lon="4.73667">
        <ele>174</ele>
        <time>2016-10-04T11:41:45Z</time>
      </trkpt>
      <trkpt lat="45.92466" lon="4.73672">
        <ele>174</ele>
        <time>2016-10-04T11:41:46Z</time>
      </trkpt>
      <trkpt lat="45.92465" lon="4.73681">
        <ele>174</ele>
        <time>2016-10-04T11:41:48Z</time>
      </trkpt>
      <trkpt lat="45.92465" lon="4.73685">
        <ele>174</ele>
        <time>2016-10-04T11:41:49Z</time>
      </trkpt>
      <trkpt lat="45.92459" lon="4.7369">
        <ele>174</ele>
        <time>2016-10-04T11:41:53Z</time>
      </trkpt>
      <trkpt lat="45.92459" lon="4.73694">
        <ele>174</ele>
        <time>2016-10-04T11:41:54Z</time>
      </trkpt>
      <trkpt lat="45.92459" lon="4.73699">
        <ele>174</ele>
        <time>2016-10-04T11:42:24.511Z</time>
      </trkpt>
    </trkseg>
  </trk>
</gpx>